<?xml version='1.0' encoding='UTF-8'?><gpx version="1.1" creator="JPX - https://github.com/jenetics/jpx" xmlns="http://www.topografix.com/GPX/1/1"><trk><trkseg><trkpt lat="43.35402175602597" lon="11.910700221638722"><ele>319.0</ele><time>2026-04-26T08:14:09.002Z</time></trkpt><trkpt lat="43.35395779731218" lon="11.910717547339289"><ele>319.0</ele><time>2026-04-26T08:14:39.003Z</time></trkpt><trkpt lat="43.35395454537408" lon="11.91081322099482"><ele>319.0</ele><time>2026-04-26T08:15:17.005Z</time></trkpt><trkpt lat="43.35398145492024" lon="11.910893675388468"><ele>319.0</ele><time>2026-04-26T08:15:22.004Z</time></trkpt><trkpt lat="43.35403391732134" lon="11.910950425767245"><ele>319.0</ele><time>2026-04-26T08:15:35.002Z</time></trkpt><trkpt lat="43.35407982462996" lon="11.910887689430226"><ele>319.0</ele><time>2026-04-26T08:15:40.002Z</time></trkpt><trkpt lat="43.35405592993314" lon="11.910796614386634"><ele>319.0</ele><time>2026-04-26T08:15:47.001Z</time></trkpt><trkpt lat="43.353990427464346" lon="11.910771840219379"><ele>319.0</ele><time>2026-04-26T08:15:52.001Z</time></trkpt><trkpt lat="43.354052668521526" lon="11.910713025973891"><ele>319.0</ele><time>2026-04-26T08:17:06Z</time></trkpt><trkpt lat="43.3540724977341" lon="11.910629290823442"><ele>319.0</ele><time>2026-04-26T08:18:08.999Z</time></trkpt><trkpt lat="43.354054723315" lon="11.910712813980982"><ele>319.0</ele><time>2026-04-26T08:18:14.999Z</time></trkpt><trkpt lat="43.35411121837964" lon="11.910671471321786"><ele>319.0</ele><time>2026-04-26T08:18:44.999Z</time></trkpt><trkpt lat="43.354208965239636" lon="11.910659498211015"><ele>319.0</ele><time>2026-04-26T08:18:58.999Z</time></trkpt><trkpt lat="43.35413419499377" lon="11.910756985821886"><ele>319.0</ele><time>2026-04-26T08:19:25.999Z</time></trkpt><trkpt lat="43.35421979312286" lon="11.91086748690604"><ele>319.0</ele><time>2026-04-26T08:19:33Z</time></trkpt><trkpt lat="43.35417931048887" lon="11.91079790608334"><ele>319.0</ele><time>2026-04-26T08:19:40Z</time></trkpt><trkpt lat="43.35411661850175" lon="11.910785746248456"><ele>319.0</ele><time>2026-04-26T08:19:46Z</time></trkpt><trkpt lat="43.35404516622453" lon="11.910752296893108"><ele>319.0</ele><time>2026-04-26T08:19:55Z</time></trkpt><trkpt lat="43.354050574971915" lon="11.910848659303369"><ele>319.0</ele><time>2026-04-26T08:20:20.999Z</time></trkpt><trkpt lat="43.35401993390902" lon="11.910926730306786"><ele>319.0</ele><time>2026-04-26T08:20:39.999Z</time></trkpt><trkpt lat="43.35397771506709" lon="11.910860267528548"><ele>319.0</ele><time>2026-04-26T08:20:57.999Z</time></trkpt><trkpt lat="43.353979085614235" lon="11.910766642685903"><ele>319.0</ele><time>2026-04-26T08:21:04.999Z</time></trkpt><trkpt lat="43.35395296863966" lon="11.910675377057592"><ele>319.0</ele><time>2026-04-26T08:21:15.999Z</time></trkpt><trkpt lat="43.35396341132299" lon="11.910766036075925"><ele>319.0</ele><time>2026-04-26T08:22:53.999Z</time></trkpt><trkpt lat="43.35397213170757" lon="11.910878640160242"><ele>319.0</ele><time>2026-04-26T08:24:00Z</time></trkpt><trkpt lat="43.35398405388492" lon="11.910793491981297"><ele>319.0</ele><time>2026-04-26T08:25:11.999Z</time></trkpt><trkpt lat="43.353968410434476" lon="11.910708148260095"><ele>319.0</ele><time>2026-04-26T08:25:18.999Z</time></trkpt><trkpt lat="43.353956612572816" lon="11.91080313547759"><ele>319.0</ele><time>2026-04-26T08:26:41Z</time></trkpt><trkpt lat="43.35397537353131" lon="11.910908365442484"><ele>319.0</ele><time>2026-04-26T08:27:55Z</time></trkpt><trkpt lat="43.354011838525416" lon="11.911045416633252"><ele>319.0</ele><time>2026-04-26T08:27:58Z</time></trkpt><trkpt lat="43.354056464318134" lon="11.911184821240418"><ele>319.0</ele><time>2026-04-26T08:28:00Z</time></trkpt><trkpt lat="43.35410215569025" lon="11.911334215734755"><ele>318.59999999999997</ele><time>2026-04-26T08:28:02Z</time></trkpt><trkpt lat="43.3541506354906" lon="11.911482994864333"><ele>318.2</ele><time>2026-04-26T08:28:04Z</time></trkpt><trkpt lat="43.354176296294234" lon="11.911621246599307"><ele>317.79999999999995</ele><time>2026-04-26T08:28:06Z</time></trkpt><trkpt lat="43.35417325950637" lon="11.91175813311571"><ele>317.4</ele><time>2026-04-26T08:28:08Z</time></trkpt><trkpt lat="43.35416460694647" lon="11.911869097010012"><ele>317.0</ele><time>2026-04-26T08:28:10Z</time></trkpt><trkpt lat="43.354168245274494" lon="11.911996562784497"><ele>317.0</ele><time>2026-04-26T08:28:13Z</time></trkpt><trkpt lat="43.354165282308784" lon="11.911860535294545"><ele>317.0</ele><time>2026-04-26T08:28:18Z</time></trkpt><trkpt lat="43.35417754896765" lon="11.911669075097091"><ele>317.0</ele><time>2026-04-26T08:28:20Z</time></trkpt><trkpt lat="43.354152636657375" lon="11.911548847101328"><ele>317.0</ele><time>2026-04-26T08:28:21Z</time></trkpt><trkpt lat="43.35411018847176" lon="11.911445940736973"><ele>317.0</ele><time>2026-04-26T08:28:22Z</time></trkpt><trkpt lat="43.35409411220827" lon="11.91134270429619"><ele>316.83333333333337</ele><time>2026-04-26T08:28:23Z</time></trkpt><trkpt lat="43.3540767711262" lon="11.911244479224443"><ele>316.6666666666667</ele><time>2026-04-26T08:28:24Z</time></trkpt><trkpt lat="43.354034904785586" lon="11.911150470942516"><ele>316.5</ele><time>2026-04-26T08:28:25Z</time></trkpt><trkpt lat="43.353986702202256" lon="11.911040297313914"><ele>316.3333333333333</ele><time>2026-04-26T08:28:26Z</time></trkpt><trkpt lat="43.35393702002265" lon="11.910935297821746"><ele>316.16666666666663</ele><time>2026-04-26T08:28:27Z</time></trkpt><trkpt lat="43.353884071539284" lon="11.910831747637975"><ele>316.0</ele><time>2026-04-26T08:28:28Z</time></trkpt><trkpt lat="43.353753894103164" lon="11.910774809684327"><ele>313.3333333333333</ele><time>2026-04-26T08:28:29Z</time></trkpt><trkpt lat="43.353713283501456" lon="11.910662189040558"><ele>310.66666666666663</ele><time>2026-04-26T08:28:30Z</time></trkpt><trkpt lat="43.35367571806732" lon="11.910546538426017"><ele>308.0</ele><time>2026-04-26T08:28:31Z</time></trkpt><trkpt lat="43.35363503756044" lon="11.91044246718791"><ele>305.3333333333333</ele><time>2026-04-26T08:28:32Z</time></trkpt><trkpt lat="43.35359871403499" lon="11.910335994986205"><ele>302.6666666666667</ele><time>2026-04-26T08:28:33Z</time></trkpt><trkpt lat="43.35356055443064" lon="11.910241882964145"><ele>300.0</ele><time>2026-04-26T08:28:34Z</time></trkpt><trkpt lat="43.353510102754434" lon="11.910157165073116"><ele>300.5</ele><time>2026-04-26T08:28:35Z</time></trkpt><trkpt lat="43.35348414171453" lon="11.910051979299913"><ele>301.0</ele><time>2026-04-26T08:28:36Z</time></trkpt><trkpt lat="43.35345766793653" lon="11.90996151465693"><ele>301.5</ele><time>2026-04-26T08:28:37Z</time></trkpt><trkpt lat="43.35343389489246" lon="11.909869885423644"><ele>302.0</ele><time>2026-04-26T08:28:38Z</time></trkpt><trkpt lat="43.35340726509885" lon="11.909790473906362"><ele>302.5</ele><time>2026-04-26T08:28:39Z</time></trkpt><trkpt lat="43.35336974374167" lon="11.909655648066204"><ele>303.0</ele><time>2026-04-26T08:28:41Z</time></trkpt><trkpt lat="43.35333774564401" lon="11.909545000532427"><ele>303.0</ele><time>2026-04-26T08:28:43Z</time></trkpt><trkpt lat="43.35331016284865" lon="11.909443781914714"><ele>303.0</ele><time>2026-04-26T08:28:45Z</time></trkpt><trkpt lat="43.35328100458488" lon="11.90933221133365"><ele>303.0</ele><time>2026-04-26T08:28:47Z</time></trkpt><trkpt lat="43.353235293784806" lon="11.909200593075804"><ele>303.0</ele><time>2026-04-26T08:28:49Z</time></trkpt><trkpt lat="43.353214163064756" lon="11.909117140991722"><ele>303.0</ele><time>2026-04-26T08:28:50Z</time></trkpt><trkpt lat="43.35316805641008" lon="11.908965254188452"><ele>303.1666666666667</ele><time>2026-04-26T08:28:52Z</time></trkpt><trkpt lat="43.353120649802804" lon="11.908842364730786"><ele>303.3333333333333</ele><time>2026-04-26T08:28:54Z</time></trkpt><trkpt lat="43.3530680880975" lon="11.90874463700367"><ele>303.5</ele><time>2026-04-26T08:28:56Z</time></trkpt><trkpt lat="43.35301980732077" lon="11.908663668629359"><ele>303.66666666666663</ele><time>2026-04-26T08:28:58Z</time></trkpt><trkpt lat="43.35296611840113" lon="11.90859592300797"><ele>303.8333333333333</ele><time>2026-04-26T08:29:00Z</time></trkpt><trkpt lat="43.35292516971811" lon="11.908506807890676"><ele>304.0</ele><time>2026-04-26T08:29:02Z</time></trkpt><trkpt lat="43.352882968298324" lon="11.908432773356898"><ele>301.8333333333333</ele><time>2026-04-26T08:29:03.999Z</time></trkpt><trkpt lat="43.35286544931166" lon="11.908287605537401"><ele>299.66666666666663</ele><time>2026-04-26T08:29:05.999Z</time></trkpt><trkpt lat="43.35284022607421" lon="11.90819257973339"><ele>297.5</ele><time>2026-04-26T08:29:06.999Z</time></trkpt><trkpt lat="43.35280170970218" lon="11.908106364938835"><ele>295.3333333333333</ele><time>2026-04-26T08:29:07.999Z</time></trkpt><trkpt lat="43.35277907864298" lon="11.908015263903376"><ele>293.1666666666667</ele><time>2026-04-26T08:29:08.999Z</time></trkpt><trkpt lat="43.352760987231605" lon="11.90791486595061"><ele>291.0</ele><time>2026-04-26T08:29:09.999Z</time></trkpt><trkpt lat="43.352739210332295" lon="11.907819054485238"><ele>291.0</ele><time>2026-04-26T08:29:10.999Z</time></trkpt><trkpt lat="43.35271384806835" lon="11.907731630675618"><ele>291.0</ele><time>2026-04-26T08:29:11.999Z</time></trkpt><trkpt lat="43.35268076098787" lon="11.907583642727785"><ele>291.0</ele><time>2026-04-26T08:29:13.999Z</time></trkpt><trkpt lat="43.35265562143125" lon="11.90745726556535"><ele>291.0</ele><time>2026-04-26T08:29:15.999Z</time></trkpt><trkpt lat="43.35266019242545" lon="11.907313109034613"><ele>291.0</ele><time>2026-04-26T08:29:17.999Z</time></trkpt><trkpt lat="43.35265868605888" lon="11.907203158729983"><ele>291.1666666666667</ele><time>2026-04-26T08:29:19.999Z</time></trkpt><trkpt lat="43.352682895575235" lon="11.907089720084139"><ele>291.3333333333333</ele><time>2026-04-26T08:29:21.999Z</time></trkpt><trkpt lat="43.35272540548656" lon="11.906983659627087"><ele>291.5</ele><time>2026-04-26T08:29:23.999Z</time></trkpt><trkpt lat="43.35272290158047" lon="11.90682366912323"><ele>291.66666666666663</ele><time>2026-04-26T08:29:25.999Z</time></trkpt><trkpt lat="43.35270419098412" lon="11.906739807783717"><ele>291.8333333333333</ele><time>2026-04-26T08:29:26.999Z</time></trkpt><trkpt lat="43.35266828762283" lon="11.906662429351083"><ele>292.0</ele><time>2026-04-26T08:29:27.999Z</time></trkpt><trkpt lat="43.352629170660926" lon="11.906579971833"><ele>292.0</ele><time>2026-04-26T08:29:28.999Z</time></trkpt><trkpt lat="43.352587711173285" lon="11.906475942407788"><ele>292.0</ele><time>2026-04-26T08:29:30.999Z</time></trkpt><trkpt lat="43.35263189361116" lon="11.906554217532996"><ele>292.0</ele><time>2026-04-26T08:29:34.999Z</time></trkpt><trkpt lat="43.35266544687267" lon="11.906628180796663"><ele>292.0</ele><time>2026-04-26T08:29:35.999Z</time></trkpt><trkpt lat="43.35271006437744" lon="11.906732506548689"><ele>292.0</ele><time>2026-04-26T08:29:37.999Z</time></trkpt><trkpt lat="43.35260021101187" lon="11.906779491503315"><ele>292.0</ele><time>2026-04-26T08:29:38.999Z</time></trkpt><trkpt lat="43.35248674640552" lon="11.90682618716541"><ele>292.0</ele><time>2026-04-26T08:29:40.999Z</time></trkpt><trkpt lat="43.3523990359612" lon="11.906935180901003"><ele>292.0</ele><time>2026-04-26T08:29:42.999Z</time></trkpt><trkpt lat="43.35231618289051" lon="11.907065314453863"><ele>292.0</ele><time>2026-04-26T08:29:44.999Z</time></trkpt><trkpt lat="43.35223525111345" lon="11.907187522311448"><ele>292.0</ele><time>2026-04-26T08:29:46.999Z</time></trkpt><trkpt lat="43.35214261483141" lon="11.907310780772573"><ele>290.7142857142857</ele><time>2026-04-26T08:29:48.999Z</time></trkpt><trkpt lat="43.35209881783494" lon="11.907385519307075"><ele>289.42857142857144</ele><time>2026-04-26T08:29:49.999Z</time></trkpt><trkpt lat="43.352049642762005" lon="11.907451076552496"><ele>288.14285714285717</ele><time>2026-04-26T08:29:50.999Z</time></trkpt><trkpt lat="43.35199412942354" lon="11.907502295336794"><ele>286.8571428571429</ele><time>2026-04-26T08:29:51.999Z</time></trkpt><trkpt lat="43.351936235266656" lon="11.907539681969217"><ele>285.5714285714286</ele><time>2026-04-26T08:29:52.999Z</time></trkpt><trkpt lat="43.35187660498823" lon="11.907571912643403"><ele>284.2857142857143</ele><time>2026-04-26T08:29:53.999Z</time></trkpt><trkpt lat="43.35181630149891" lon="11.907616575004724"><ele>283.0</ele><time>2026-04-26T08:29:54.999Z</time></trkpt><trkpt lat="43.35175145461466" lon="11.907667357838957"><ele>283.0</ele><time>2026-04-26T08:29:55.999Z</time></trkpt><trkpt lat="43.35168614370531" lon="11.907708279390821"><ele>283.0</ele><time>2026-04-26T08:29:57Z</time></trkpt><trkpt lat="43.35161981024047" lon="11.90776659003425"><ele>283.0</ele><time>2026-04-26T08:29:58Z</time></trkpt><trkpt lat="43.351550606970406" lon="11.907826967982885"><ele>283.0</ele><time>2026-04-26T08:29:59Z</time></trkpt><trkpt lat="43.35148154304377" lon="11.907876894448478"><ele>283.0</ele><time>2026-04-26T08:30:00Z</time></trkpt><trkpt lat="43.3514051655958" lon="11.907925702585377"><ele>283.0</ele><time>2026-04-26T08:30:01Z</time></trkpt><trkpt lat="43.35132814327073" lon="11.907980232807576"><ele>282.5</ele><time>2026-04-26T08:30:02Z</time></trkpt><trkpt lat="43.35124933516824" lon="11.908031057780141"><ele>282.0</ele><time>2026-04-26T08:30:03Z</time></trkpt><trkpt lat="43.35116965414323" lon="11.908081576202283"><ele>281.5</ele><time>2026-04-26T08:30:04Z</time></trkpt><trkpt lat="43.35109197394892" lon="11.908140142057913"><ele>281.0</ele><time>2026-04-26T08:30:05Z</time></trkpt><trkpt lat="43.35102178323335" lon="11.908211855908952"><ele>280.5</ele><time>2026-04-26T08:30:06Z</time></trkpt><trkpt lat="43.35095386643608" lon="11.90828297833873"><ele>280.0</ele><time>2026-04-26T08:30:07Z</time></trkpt><trkpt lat="43.35089064862818" lon="11.908358557532198"><ele>280.3333333333333</ele><time>2026-04-26T08:30:08Z</time></trkpt><trkpt lat="43.35083029987155" lon="11.908433982825713"><ele>280.66666666666663</ele><time>2026-04-26T08:30:09Z</time></trkpt><trkpt lat="43.35076962782945" lon="11.908519360179715"><ele>281.0</ele><time>2026-04-26T08:30:10Z</time></trkpt><trkpt lat="43.35071484503883" lon="11.908606209904484"><ele>281.3333333333333</ele><time>2026-04-26T08:30:11Z</time></trkpt><trkpt lat="43.35065668091878" lon="11.908691694458385"><ele>281.6666666666667</ele><time>2026-04-26T08:30:12Z</time></trkpt><trkpt lat="43.35059520951247" lon="11.908763589538417"><ele>282.0</ele><time>2026-04-26T08:30:13Z</time></trkpt><trkpt lat="43.3505261272716" lon="11.908830859116922"><ele>281.3333333333333</ele><time>2026-04-26T08:30:14Z</time></trkpt><trkpt lat="43.350453724796" lon="11.908885168965929"><ele>280.6666666666667</ele><time>2026-04-26T08:30:15Z</time></trkpt><trkpt lat="43.350369386795414" lon="11.908914423444651"><ele>280.0</ele><time>2026-04-26T08:30:16Z</time></trkpt><trkpt lat="43.35029260222532" lon="11.908935991268288"><ele>279.33333333333337</ele><time>2026-04-26T08:30:17Z</time></trkpt><trkpt lat="43.350226984786374" lon="11.90895436950633"><ele>278.6666666666667</ele><time>2026-04-26T08:30:18Z</time></trkpt><trkpt lat="43.35016079568249" lon="11.908969573349534"><ele>278.0</ele><time>2026-04-26T08:30:19Z</time></trkpt><trkpt lat="43.350057605523915" lon="11.908987005130841"><ele>278.0</ele><time>2026-04-26T08:30:21Z</time></trkpt><trkpt lat="43.349990054178676" lon="11.908987227866369"><ele>278.0</ele><time>2026-04-26T08:30:24Z</time></trkpt><trkpt lat="43.34992645462405" lon="11.908904546626864"><ele>278.0</ele><time>2026-04-26T08:30:26Z</time></trkpt><trkpt lat="43.34985908925216" lon="11.908777003976798"><ele>278.0</ele><time>2026-04-26T08:30:28Z</time></trkpt><trkpt lat="43.3497989155797" lon="11.908742101840806"><ele>278.0</ele><time>2026-04-26T08:30:29Z</time></trkpt><trkpt lat="43.349732669342536" lon="11.908758197179175"><ele>278.0</ele><time>2026-04-26T08:30:30Z</time></trkpt><trkpt lat="43.349679593263126" lon="11.908837514981242"><ele>278.0</ele><time>2026-04-26T08:30:31Z</time></trkpt><trkpt lat="43.34966387511562" lon="11.908937904613486"><ele>278.0</ele><time>2026-04-26T08:30:32Z</time></trkpt><trkpt lat="43.34964921144255" lon="11.909040157348848"><ele>278.0</ele><time>2026-04-26T08:30:33Z</time></trkpt><trkpt lat="43.34961547338689" lon="11.909124522480727"><ele>278.0</ele><time>2026-04-26T08:30:34Z</time></trkpt><trkpt lat="43.34956517043256" lon="11.909184446434546"><ele>278.0</ele><time>2026-04-26T08:30:35Z</time></trkpt><trkpt lat="43.34947784699904" lon="11.909299879518933"><ele>278.0</ele><time>2026-04-26T08:30:37Z</time></trkpt><trkpt lat="43.34943044485602" lon="11.909369327768687"><ele>278.0</ele><time>2026-04-26T08:30:38Z</time></trkpt><trkpt lat="43.34938371415141" lon="11.909444110724477"><ele>278.0</ele><time>2026-04-26T08:30:39Z</time></trkpt><trkpt lat="43.349326435851005" lon="11.90952466892632"><ele>278.0</ele><time>2026-04-26T08:30:40Z</time></trkpt><trkpt lat="43.34926683645195" lon="11.909611797041459"><ele>278.0</ele><time>2026-04-26T08:30:41Z</time></trkpt><trkpt lat="43.349209216141666" lon="11.909700841263346"><ele>278.0</ele><time>2026-04-26T08:30:42Z</time></trkpt><trkpt lat="43.34915306009381" lon="11.909790294315249"><ele>278.0</ele><time>2026-04-26T08:30:43Z</time></trkpt><trkpt lat="43.34909786566523" lon="11.909882037752523"><ele>278.0</ele><time>2026-04-26T08:30:44Z</time></trkpt><trkpt lat="43.34904224514658" lon="11.90997023166236"><ele>278.0</ele><time>2026-04-26T08:30:45Z</time></trkpt><trkpt lat="43.34898165188191" lon="11.910058925701117"><ele>278.0</ele><time>2026-04-26T08:30:46Z</time></trkpt><trkpt lat="43.348923205096604" lon="11.910144932844487"><ele>278.0</ele><time>2026-04-26T08:30:47Z</time></trkpt><trkpt lat="43.34886833207819" lon="11.910236287380064"><ele>278.0</ele><time>2026-04-26T08:30:48Z</time></trkpt><trkpt lat="43.3488067212565" lon="11.910328423212128"><ele>278.0</ele><time>2026-04-26T08:30:49Z</time></trkpt><trkpt lat="43.348749655095666" lon="11.910422841136517"><ele>278.0</ele><time>2026-04-26T08:30:50Z</time></trkpt><trkpt lat="43.34868868479744" lon="11.910518740735158"><ele>278.0</ele><time>2026-04-26T08:30:51Z</time></trkpt><trkpt lat="43.3486359606551" lon="11.910608537346889"><ele>278.0</ele><time>2026-04-26T08:30:52Z</time></trkpt><trkpt lat="43.34857197840919" lon="11.910691173353948"><ele>278.0</ele><time>2026-04-26T08:30:53Z</time></trkpt><trkpt lat="43.34851226167442" lon="11.910775537771805"><ele>278.0</ele><time>2026-04-26T08:30:54Z</time></trkpt><trkpt lat="43.34844492002877" lon="11.91086045803257"><ele>278.0</ele><time>2026-04-26T08:30:55Z</time></trkpt><trkpt lat="43.348369650042066" lon="11.910941008098149"><ele>278.4</ele><time>2026-04-26T08:30:56Z</time></trkpt><trkpt lat="43.34829089634278" lon="11.911016158977786"><ele>278.8</ele><time>2026-04-26T08:30:57Z</time></trkpt><trkpt lat="43.34821073532886" lon="11.911091530852339"><ele>279.2</ele><time>2026-04-26T08:30:58Z</time></trkpt><trkpt lat="43.34812954075742" lon="11.911157463563196"><ele>279.6</ele><time>2026-04-26T08:30:59Z</time></trkpt><trkpt lat="43.348040971948585" lon="11.911214631853603"><ele>280.0</ele><time>2026-04-26T08:31:00Z</time></trkpt><trkpt lat="43.34794970596147" lon="11.91126374965655"><ele>280.0</ele><time>2026-04-26T08:31:01Z</time></trkpt><trkpt lat="43.347856044602004" lon="11.911308223741548"><ele>280.0</ele><time>2026-04-26T08:31:02Z</time></trkpt><trkpt lat="43.34776340960768" lon="11.911347173427403"><ele>280.0</ele><time>2026-04-26T08:31:03Z</time></trkpt><trkpt lat="43.34767157562972" lon="11.91138589249206"><ele>280.0</ele><time>2026-04-26T08:31:04Z</time></trkpt><trkpt lat="43.34758000848023" lon="11.911422201181688"><ele>280.0</ele><time>2026-04-26T08:31:05Z</time></trkpt><trkpt lat="43.347485769914655" lon="11.9114553033921"><ele>280.0</ele><time>2026-04-26T08:31:06Z</time></trkpt><trkpt lat="43.34739239540452" lon="11.911486511015603"><ele>280.0</ele><time>2026-04-26T08:31:07Z</time></trkpt><trkpt lat="43.34730277513867" lon="11.911518744057625"><ele>280.0</ele><time>2026-04-26T08:31:08Z</time></trkpt><trkpt lat="43.34721424516592" lon="11.911553384066337"><ele>280.0</ele><time>2026-04-26T08:31:09Z</time></trkpt><trkpt lat="43.347126937802045" lon="11.911591514395809"><ele>280.0</ele><time>2026-04-26T08:31:10Z</time></trkpt><trkpt lat="43.34703820128915" lon="11.911627126796018"><ele>279.8</ele><time>2026-04-26T08:31:11Z</time></trkpt><trkpt lat="43.34694686552937" lon="11.911660616573021"><ele>279.6</ele><time>2026-04-26T08:31:12Z</time></trkpt><trkpt lat="43.346857992570996" lon="11.911693648828876"><ele>279.4</ele><time>2026-04-26T08:31:13Z</time></trkpt><trkpt lat="43.34676948648316" lon="11.911727019767437"><ele>279.2</ele><time>2026-04-26T08:31:14Z</time></trkpt><trkpt lat="43.34667998135875" lon="11.911764662018182"><ele>279.0</ele><time>2026-04-26T08:31:15Z</time></trkpt><trkpt lat="43.34658408498727" lon="11.911803511918409"><ele>278.4</ele><time>2026-04-26T08:31:16Z</time></trkpt><trkpt lat="43.34648625431425" lon="11.911842333350176"><ele>277.79999999999995</ele><time>2026-04-26T08:31:17Z</time></trkpt><trkpt lat="43.34639045430335" lon="11.91187980431763"><ele>277.20000000000005</ele><time>2026-04-26T08:31:18Z</time></trkpt><trkpt lat="43.3462923877236" lon="11.911918451770244"><ele>276.6</ele><time>2026-04-26T08:31:19Z</time></trkpt><trkpt lat="43.34619469814819" lon="11.911955870086471"><ele>276.0</ele><time>2026-04-26T08:31:20Z</time></trkpt><trkpt lat="43.34609519703005" lon="11.9119945592113"><ele>276.0</ele><time>2026-04-26T08:31:21Z</time></trkpt><trkpt lat="43.3459951472253" lon="11.91203168767594"><ele>276.0</ele><time>2026-04-26T08:31:22Z</time></trkpt><trkpt lat="43.34589406442609" lon="11.912068829752343"><ele>276.0</ele><time>2026-04-26T08:31:23Z</time></trkpt><trkpt lat="43.3457921915987" lon="11.912105973988949"><ele>276.0</ele><time>2026-04-26T08:31:24Z</time></trkpt><trkpt lat="43.34569198157167" lon="11.912143344293508"><ele>276.0</ele><time>2026-04-26T08:31:24.999Z</time></trkpt><trkpt lat="43.34559063338804" lon="11.912182219375254"><ele>275.2</ele><time>2026-04-26T08:31:25.999Z</time></trkpt><trkpt lat="43.34548911168275" lon="11.912217628287829"><ele>274.40000000000003</ele><time>2026-04-26T08:31:26.999Z</time></trkpt><trkpt lat="43.34538665208917" lon="11.91225823110192"><ele>273.6</ele><time>2026-04-26T08:31:27.999Z</time></trkpt><trkpt lat="43.34528271653049" lon="11.912295632335836"><ele>272.8</ele><time>2026-04-26T08:31:28.999Z</time></trkpt><trkpt lat="43.345177779953886" lon="11.912336255223156"><ele>272.0</ele><time>2026-04-26T08:31:29.999Z</time></trkpt><trkpt lat="43.34507174118779" lon="11.912374599343813"><ele>272.0</ele><time>2026-04-26T08:31:30.999Z</time></trkpt><trkpt lat="43.34496480723081" lon="11.91241323961327"><ele>272.0</ele><time>2026-04-26T08:31:31.999Z</time></trkpt><trkpt lat="43.34485484163222" lon="11.912453849321835"><ele>272.0</ele><time>2026-04-26T08:31:32.999Z</time></trkpt><trkpt lat="43.34474678714543" lon="11.912495296648617"><ele>272.0</ele><time>2026-04-26T08:31:33.999Z</time></trkpt><trkpt lat="43.34463943844868" lon="11.912539909448826"><ele>272.0</ele><time>2026-04-26T08:31:34.999Z</time></trkpt><trkpt lat="43.34453083069173" lon="11.912583105332088"><ele>271.4</ele><time>2026-04-26T08:31:35.999Z</time></trkpt><trkpt lat="43.344421841185444" lon="11.912622147304395"><ele>270.79999999999995</ele><time>2026-04-26T08:31:36.999Z</time></trkpt><trkpt lat="43.34431569213005" lon="11.912670785314694"><ele>270.2</ele><time>2026-04-26T08:31:37.999Z</time></trkpt><trkpt lat="43.34421305452185" lon="11.912730609368358"><ele>269.59999999999997</ele><time>2026-04-26T08:31:38.999Z</time></trkpt><trkpt lat="43.34411134275547" lon="11.912795389400864"><ele>269.0</ele><time>2026-04-26T08:31:39.999Z</time></trkpt><trkpt lat="43.34401717619705" lon="11.91287293608944"><ele>269.0</ele><time>2026-04-26T08:31:40.999Z</time></trkpt><trkpt lat="43.343925029335296" lon="11.912953830745412"><ele>269.0</ele><time>2026-04-26T08:31:41.999Z</time></trkpt><trkpt lat="43.34383873360432" lon="11.913041431635552"><ele>269.0</ele><time>2026-04-26T08:31:42.999Z</time></trkpt><trkpt lat="43.34376003525424" lon="11.913129251720575"><ele>269.0</ele><time>2026-04-26T08:31:43.999Z</time></trkpt><trkpt lat="43.34368712797642" lon="11.913220662758272"><ele>269.0</ele><time>2026-04-26T08:31:44.999Z</time></trkpt><trkpt lat="43.343616909948636" lon="11.91331870327048"><ele>268.59999999999997</ele><time>2026-04-26T08:31:45.999Z</time></trkpt><trkpt lat="43.34354991433274" lon="11.913420147357561"><ele>268.2</ele><time>2026-04-26T08:31:46.999Z</time></trkpt><trkpt lat="43.34348461007459" lon="11.913521430698834"><ele>267.79999999999995</ele><time>2026-04-26T08:31:47.999Z</time></trkpt><trkpt lat="43.34341782665599" lon="11.91362116890178"><ele>267.4</ele><time>2026-04-26T08:31:48.999Z</time></trkpt><trkpt lat="43.34335204016139" lon="11.913720090544665"><ele>267.0</ele><time>2026-04-26T08:31:49.999Z</time></trkpt><trkpt lat="43.34328914634384" lon="11.913815345068015"><ele>267.0</ele><time>2026-04-26T08:31:50.999Z</time></trkpt><trkpt lat="43.343227031122055" lon="11.913908577772832"><ele>267.0</ele><time>2026-04-26T08:31:51.999Z</time></trkpt><trkpt lat="43.34316740107762" lon="11.914000329196096"><ele>267.0</ele><time>2026-04-26T08:31:52.999Z</time></trkpt><trkpt lat="43.34310912945353" lon="11.914092296767164"><ele>267.0</ele><time>2026-04-26T08:31:53.999Z</time></trkpt><trkpt lat="43.343049758216864" lon="11.914183089974273"><ele>267.0</ele><time>2026-04-26T08:31:54.999Z</time></trkpt><trkpt lat="43.342993953952124" lon="11.914266754877696"><ele>267.0</ele><time>2026-04-26T08:31:55.999Z</time></trkpt><trkpt lat="43.34294429871207" lon="11.914345140656284"><ele>266.8571428571429</ele><time>2026-04-26T08:31:56.999Z</time></trkpt><trkpt lat="43.34289599678822" lon="11.914404801160979"><ele>266.7142857142857</ele><time>2026-04-26T08:31:57.999Z</time></trkpt><trkpt lat="43.34283430049468" lon="11.914440131381992"><ele>266.57142857142856</ele><time>2026-04-26T08:31:58.999Z</time></trkpt><trkpt lat="43.34278214428544" lon="11.914495264826124"><ele>266.42857142857144</ele><time>2026-04-26T08:31:59.999Z</time></trkpt><trkpt lat="43.34274547094347" lon="11.914576094211435"><ele>266.2857142857143</ele><time>2026-04-26T08:32:00.999Z</time></trkpt><trkpt lat="43.34271422748716" lon="11.914664289444522"><ele>266.14285714285717</ele><time>2026-04-26T08:32:01.999Z</time></trkpt><trkpt lat="43.34267724322267" lon="11.914751809664798"><ele>266.0</ele><time>2026-04-26T08:32:03Z</time></trkpt><trkpt lat="43.34262750146442" lon="11.914827725431357"><ele>266.0</ele><time>2026-04-26T08:32:04Z</time></trkpt><trkpt lat="43.34257352467972" lon="11.914905080499024"><ele>266.0</ele><time>2026-04-26T08:32:05Z</time></trkpt><trkpt lat="43.34252402806858" lon="11.914984588991118"><ele>266.0</ele><time>2026-04-26T08:32:06Z</time></trkpt><trkpt lat="43.34247346932689" lon="11.915062117336744"><ele>266.0</ele><time>2026-04-26T08:32:07Z</time></trkpt><trkpt lat="43.34242328156207" lon="11.915132000707036"><ele>266.0</ele><time>2026-04-26T08:32:08Z</time></trkpt><trkpt lat="43.34237917890732" lon="11.915193800584493"><ele>266.0</ele><time>2026-04-26T08:32:09Z</time></trkpt><trkpt lat="43.34227619327474" lon="11.915257336686489"><ele>265.6</ele><time>2026-04-26T08:32:11Z</time></trkpt><trkpt lat="43.342187649993875" lon="11.915343586912922"><ele>265.20000000000005</ele><time>2026-04-26T08:32:13Z</time></trkpt><trkpt lat="43.34215533965437" lon="11.91548995951856"><ele>264.79999999999995</ele><time>2026-04-26T08:32:15Z</time></trkpt><trkpt lat="43.34211400081579" lon="11.915636549935815"><ele>264.4</ele><time>2026-04-26T08:32:17Z</time></trkpt><trkpt lat="43.34207283796595" lon="11.9157043072548"><ele>264.0</ele><time>2026-04-26T08:32:18Z</time></trkpt><trkpt lat="43.34202108556027" lon="11.915766414360373"><ele>264.0</ele><time>2026-04-26T08:32:19Z</time></trkpt><trkpt lat="43.34197048915404" lon="11.915838519266165"><ele>264.0</ele><time>2026-04-26T08:32:20Z</time></trkpt><trkpt lat="43.34192058814238" lon="11.91592036673731"><ele>264.0</ele><time>2026-04-26T08:32:21Z</time></trkpt><trkpt lat="43.341869332179414" lon="11.915999393071766"><ele>264.0</ele><time>2026-04-26T08:32:22Z</time></trkpt><trkpt lat="43.34181378623091" lon="11.916074721072045"><ele>264.0</ele><time>2026-04-26T08:32:23Z</time></trkpt><trkpt lat="43.34176511141393" lon="11.916153118803475"><ele>264.0</ele><time>2026-04-26T08:32:24Z</time></trkpt><trkpt lat="43.3417184829575" lon="11.916226112767582"><ele>264.1666666666667</ele><time>2026-04-26T08:32:25Z</time></trkpt><trkpt lat="43.341665189391065" lon="11.916300102619617"><ele>264.3333333333333</ele><time>2026-04-26T08:32:26Z</time></trkpt><trkpt lat="43.34161364729339" lon="11.916382038468255"><ele>264.5</ele><time>2026-04-26T08:32:27Z</time></trkpt><trkpt lat="43.34155463993279" lon="11.916459926419211"><ele>264.66666666666663</ele><time>2026-04-26T08:32:28Z</time></trkpt><trkpt lat="43.34149920805682" lon="11.916542965382167"><ele>264.8333333333333</ele><time>2026-04-26T08:32:29Z</time></trkpt><trkpt lat="43.341448226857835" lon="11.916630487478223"><ele>265.0</ele><time>2026-04-26T08:32:30Z</time></trkpt><trkpt lat="43.34139363279545" lon="11.916716300154764"><ele>264.3333333333333</ele><time>2026-04-26T08:32:31Z</time></trkpt><trkpt lat="43.34133847153319" lon="11.916806561811024"><ele>263.66666666666663</ele><time>2026-04-26T08:32:32Z</time></trkpt><trkpt lat="43.3412833855832" lon="11.916896818572654"><ele>263.0</ele><time>2026-04-26T08:32:33Z</time></trkpt><trkpt lat="43.3412236758978" lon="11.91698209587423"><ele>262.3333333333333</ele><time>2026-04-26T08:32:34Z</time></trkpt><trkpt lat="43.34116658292954" lon="11.917074003057198"><ele>261.6666666666667</ele><time>2026-04-26T08:32:35Z</time></trkpt><trkpt lat="43.34111194834382" lon="11.917163535885441"><ele>261.0</ele><time>2026-04-26T08:32:36Z</time></trkpt><trkpt lat="43.34105803279555" lon="11.917248838625"><ele>261.0</ele><time>2026-04-26T08:32:37Z</time></trkpt><trkpt lat="43.341003832572056" lon="11.917334815869294"><ele>261.0</ele><time>2026-04-26T08:32:38Z</time></trkpt><trkpt lat="43.34094660235124" lon="11.917417544303545"><ele>261.0</ele><time>2026-04-26T08:32:39Z</time></trkpt><trkpt lat="43.34089059498491" lon="11.917500415037933"><ele>261.0</ele><time>2026-04-26T08:32:40Z</time></trkpt><trkpt lat="43.340838666029704" lon="11.917584031053881"><ele>261.0</ele><time>2026-04-26T08:32:41Z</time></trkpt><trkpt lat="43.3407876523191" lon="11.91766675671264"><ele>261.0</ele><time>2026-04-26T08:32:42Z</time></trkpt><trkpt lat="43.34073566548508" lon="11.917745922739837"><ele>261.0</ele><time>2026-04-26T08:32:43Z</time></trkpt><trkpt lat="43.34068835509794" lon="11.917820017025564"><ele>261.0</ele><time>2026-04-26T08:32:44Z</time></trkpt><trkpt lat="43.34064589348439" lon="11.917885126542405"><ele>261.0</ele><time>2026-04-26T08:32:45Z</time></trkpt><trkpt lat="43.34056472171389" lon="11.918010882585513"><ele>261.0</ele><time>2026-04-26T08:32:47Z</time></trkpt><trkpt lat="43.340520803233375" lon="11.918076818280593"><ele>261.0</ele><time>2026-04-26T08:32:48Z</time></trkpt><trkpt lat="43.34047477781236" lon="11.918144108472033"><ele>261.0</ele><time>2026-04-26T08:32:49Z</time></trkpt><trkpt lat="43.34043037996203" lon="11.91821448758754"><ele>261.0</ele><time>2026-04-26T08:32:50Z</time></trkpt><trkpt lat="43.34038390143772" lon="11.91828309013818"><ele>261.0</ele><time>2026-04-26T08:32:51Z</time></trkpt><trkpt lat="43.340339878724464" lon="11.918354621386337"><ele>261.0</ele><time>2026-04-26T08:32:52Z</time></trkpt><trkpt lat="43.340296493289244" lon="11.918427632011767"><ele>261.0</ele><time>2026-04-26T08:32:53Z</time></trkpt><trkpt lat="43.340249190645494" lon="11.918496934847878"><ele>261.0</ele><time>2026-04-26T08:32:54Z</time></trkpt><trkpt lat="43.34020201028695" lon="11.918566959390686"><ele>261.0</ele><time>2026-04-26T08:32:55Z</time></trkpt><trkpt lat="43.34015682483966" lon="11.918643579263868"><ele>261.0</ele><time>2026-04-26T08:32:56Z</time></trkpt><trkpt lat="43.340108224075756" lon="11.918713235925747"><ele>261.2857142857143</ele><time>2026-04-26T08:32:57Z</time></trkpt><trkpt lat="43.340059472460204" lon="11.918784454732592"><ele>261.57142857142856</ele><time>2026-04-26T08:32:58Z</time></trkpt><trkpt lat="43.34001299063586" lon="11.918856221155682"><ele>261.85714285714283</ele><time>2026-04-26T08:32:59Z</time></trkpt><trkpt lat="43.3399651214032" lon="11.918928583519573"><ele>262.1428571428571</ele><time>2026-04-26T08:33:00Z</time></trkpt><trkpt lat="43.3399195118941" lon="11.919001538864253"><ele>262.4285714285714</ele><time>2026-04-26T08:33:01Z</time></trkpt><trkpt lat="43.339873473601415" lon="11.919074770434436"><ele>262.7142857142857</ele><time>2026-04-26T08:33:02Z</time></trkpt><trkpt lat="43.33982823643299" lon="11.919145265144788"><ele>263.0</ele><time>2026-04-26T08:33:03Z</time></trkpt><trkpt lat="43.33978215744158" lon="11.919216427411449"><ele>262.85714285714283</ele><time>2026-04-26T08:33:04Z</time></trkpt><trkpt lat="43.33973641143172" lon="11.919286497601183"><ele>262.71428571428567</ele><time>2026-04-26T08:33:05Z</time></trkpt><trkpt lat="43.33969200408377" lon="11.919357757967605"><ele>262.57142857142856</ele><time>2026-04-26T08:33:06Z</time></trkpt><trkpt lat="43.33964655742391" lon="11.919428480923225"><ele>262.42857142857144</ele><time>2026-04-26T08:33:07Z</time></trkpt><trkpt lat="43.33959835061736" lon="11.919500209668849"><ele>262.28571428571433</ele><time>2026-04-26T08:33:08Z</time></trkpt><trkpt lat="43.33955216180828" lon="11.91957063745414"><ele>262.14285714285717</ele><time>2026-04-26T08:33:09Z</time></trkpt><trkpt lat="43.339505156641465" lon="11.919646212058888"><ele>262.0</ele><time>2026-04-26T08:33:10Z</time></trkpt><trkpt lat="43.339456996956514" lon="11.91971968517144"><ele>262.0</ele><time>2026-04-26T08:33:11Z</time></trkpt><trkpt lat="43.33940959879275" lon="11.91979389492519"><ele>262.0</ele><time>2026-04-26T08:33:12Z</time></trkpt><trkpt lat="43.33936071042947" lon="11.919865449378268"><ele>262.0</ele><time>2026-04-26T08:33:13Z</time></trkpt><trkpt lat="43.339312007423125" lon="11.91994058211944"><ele>262.0</ele><time>2026-04-26T08:33:14Z</time></trkpt><trkpt lat="43.33926525130276" lon="11.920010960623156"><ele>262.0</ele><time>2026-04-26T08:33:15Z</time></trkpt><trkpt lat="43.339219357990665" lon="11.920084180951871"><ele>262.0</ele><time>2026-04-26T08:33:16Z</time></trkpt><trkpt lat="43.33917204421681" lon="11.920157897355574"><ele>262.0</ele><time>2026-04-26T08:33:17Z</time></trkpt><trkpt lat="43.33912609165352" lon="11.920230164382481"><ele>262.0</ele><time>2026-04-26T08:33:18Z</time></trkpt><trkpt lat="43.339079416735906" lon="11.920302534312738"><ele>262.0</ele><time>2026-04-26T08:33:19Z</time></trkpt><trkpt lat="43.339032526219945" lon="11.92037087538117"><ele>262.0</ele><time>2026-04-26T08:33:20Z</time></trkpt><trkpt lat="43.33898617417626" lon="11.920442688649773"><ele>262.0</ele><time>2026-04-26T08:33:21Z</time></trkpt><trkpt lat="43.33894110490458" lon="11.920510500045278"><ele>262.0</ele><time>2026-04-26T08:33:22Z</time></trkpt><trkpt lat="43.33889463019252" lon="11.920579225158491"><ele>262.0</ele><time>2026-04-26T08:33:23Z</time></trkpt><trkpt lat="43.33884847068782" lon="11.920651702232462"><ele>262.0</ele><time>2026-04-26T08:33:24Z</time></trkpt><trkpt lat="43.338802774156676" lon="11.920724383556308"><ele>262.0</ele><time>2026-04-26T08:33:25Z</time></trkpt><trkpt lat="43.33875678630822" lon="11.920794202960629"><ele>262.0</ele><time>2026-04-26T08:33:26Z</time></trkpt><trkpt lat="43.33870992297467" lon="11.920864621276545"><ele>262.0</ele><time>2026-04-26T08:33:27Z</time></trkpt><trkpt lat="43.33866114743546" lon="11.920943103342601"><ele>262.0</ele><time>2026-04-26T08:33:28Z</time></trkpt><trkpt lat="43.338604642393825" lon="11.921024874215435"><ele>262.0</ele><time>2026-04-26T08:33:29Z</time></trkpt><trkpt lat="43.338550086958485" lon="11.921109907520572"><ele>262.0</ele><time>2026-04-26T08:33:30Z</time></trkpt><trkpt lat="43.33849115238649" lon="11.92119680450463"><ele>262.66666666666663</ele><time>2026-04-26T08:33:31Z</time></trkpt><trkpt lat="43.338423866419454" lon="11.921294526246525"><ele>263.3333333333333</ele><time>2026-04-26T08:33:32Z</time></trkpt><trkpt lat="43.33836005473189" lon="11.921377187413276"><ele>264.0</ele><time>2026-04-26T08:33:33Z</time></trkpt><trkpt lat="43.338304456941856" lon="11.921479299729112"><ele>264.6666666666667</ele><time>2026-04-26T08:33:34Z</time></trkpt><trkpt lat="43.33824599975508" lon="11.921566185490727"><ele>265.33333333333337</ele><time>2026-04-26T08:33:35Z</time></trkpt><trkpt lat="43.33819505943679" lon="11.921640463782522"><ele>266.0</ele><time>2026-04-26T08:33:36Z</time></trkpt><trkpt lat="43.33811597235274" lon="11.921743944331132"><ele>264.83333333333337</ele><time>2026-04-26T08:33:37.999Z</time></trkpt><trkpt lat="43.33804526505334" lon="11.92183285952667"><ele>263.6666666666667</ele><time>2026-04-26T08:33:39.999Z</time></trkpt><trkpt lat="43.33800028824386" lon="11.92190726152383"><ele>262.5</ele><time>2026-04-26T08:33:41.999Z</time></trkpt><trkpt lat="43.3379572811961" lon="11.921973283136003"><ele>261.3333333333333</ele><time>2026-04-26T08:33:45.999Z</time></trkpt><trkpt lat="43.337922771255045" lon="11.922088734090332"><ele>260.16666666666663</ele><time>2026-04-26T08:33:49.999Z</time></trkpt><trkpt lat="43.33786480338846" lon="11.922162426566667"><ele>259.0</ele><time>2026-04-26T08:33:51.999Z</time></trkpt><trkpt lat="43.33780776399797" lon="11.922255046423428"><ele>259.0</ele><time>2026-04-26T08:33:53.999Z</time></trkpt><trkpt lat="43.337740214847685" lon="11.922353514030284"><ele>259.0</ele><time>2026-04-26T08:33:55.999Z</time></trkpt><trkpt lat="43.33765100773779" lon="11.922497171945553"><ele>259.0</ele><time>2026-04-26T08:33:57.999Z</time></trkpt><trkpt lat="43.3375941428697" lon="11.922576107699957"><ele>259.0</ele><time>2026-04-26T08:33:58.999Z</time></trkpt><trkpt lat="43.33754078747095" lon="11.922656950933016"><ele>259.0</ele><time>2026-04-26T08:33:59.999Z</time></trkpt><trkpt lat="43.337492142143276" lon="11.922723140959356"><ele>259.0</ele><time>2026-04-26T08:34:00.999Z</time></trkpt><trkpt lat="43.33741284972573" lon="11.92280347186567"><ele>259.0</ele><time>2026-04-26T08:34:02.999Z</time></trkpt><trkpt lat="43.33731507035229" lon="11.922735471112402"><ele>259.0</ele><time>2026-04-26T08:34:03.999Z</time></trkpt><trkpt lat="43.337190172627565" lon="11.922744435981445"><ele>259.0</ele><time>2026-04-26T08:34:05.999Z</time></trkpt><trkpt lat="43.33707004794331" lon="11.922717248678293"><ele>258.57142857142856</ele><time>2026-04-26T08:34:07.999Z</time></trkpt><trkpt lat="43.33700565261765" lon="11.922710650011547"><ele>258.1428571428571</ele><time>2026-04-26T08:34:09Z</time></trkpt><trkpt lat="43.336930546930695" lon="11.922727399392935"><ele>257.7142857142857</ele><time>2026-04-26T08:34:10Z</time></trkpt><trkpt lat="43.33686036038093" lon="11.92272346503609"><ele>257.2857142857143</ele><time>2026-04-26T08:34:11Z</time></trkpt><trkpt lat="43.33679330439389" lon="11.922719616306086"><ele>256.85714285714283</ele><time>2026-04-26T08:34:12Z</time></trkpt><trkpt lat="43.336726312303696" lon="11.922715771243213"><ele>256.42857142857144</ele><time>2026-04-26T08:34:13Z</time></trkpt><trkpt lat="43.336656645625304" lon="11.922711772670219"><ele>256.0</ele><time>2026-04-26T08:34:14Z</time></trkpt><trkpt lat="43.33658735761673" lon="11.922707870552896"><ele>255.99999999999997</ele><time>2026-04-26T08:34:15Z</time></trkpt><trkpt lat="43.336521448926206" lon="11.922704553618972"><ele>256.0</ele><time>2026-04-26T08:34:16Z</time></trkpt><trkpt lat="43.33645644209512" lon="11.922701725695585"><ele>256.0</ele><time>2026-04-26T08:34:17Z</time></trkpt><trkpt lat="43.336393502086715" lon="11.922699376402955"><ele>256.0</ele><time>2026-04-26T08:34:18Z</time></trkpt><trkpt lat="43.336274322013885" lon="11.922694154673879"><ele>255.99999999999997</ele><time>2026-04-26T08:34:20Z</time></trkpt><trkpt lat="43.336164361268516" lon="11.922687737866761"><ele>256.0</ele><time>2026-04-26T08:34:22Z</time></trkpt><trkpt lat="43.3360493950609" lon="11.9226810289629"><ele>255.8</ele><time>2026-04-26T08:34:24Z</time></trkpt><trkpt lat="43.33593324073" lon="11.922674250725791"><ele>255.60000000000002</ele><time>2026-04-26T08:34:26Z</time></trkpt><trkpt lat="43.33581902989238" lon="11.922667585900818"><ele>255.4</ele><time>2026-04-26T08:34:28Z</time></trkpt><trkpt lat="43.33569847580455" lon="11.922662326780445"><ele>255.2</ele><time>2026-04-26T08:34:30Z</time></trkpt><trkpt lat="43.33563362031889" lon="11.92264085093339"><ele>255.0</ele><time>2026-04-26T08:34:31Z</time></trkpt><trkpt lat="43.33551109759653" lon="11.922655315587647"><ele>255.0</ele><time>2026-04-26T08:34:33Z</time></trkpt><trkpt lat="43.33539423902225" lon="11.922650943051716"><ele>255.0</ele><time>2026-04-26T08:34:35Z</time></trkpt><trkpt lat="43.33533050644849" lon="11.922648558349145"><ele>255.0</ele><time>2026-04-26T08:34:36Z</time></trkpt><trkpt lat="43.335213493619094" lon="11.922644180041473"><ele>255.0</ele><time>2026-04-26T08:34:38Z</time></trkpt><trkpt lat="43.33509340827927" lon="11.922638125431176"><ele>255.0</ele><time>2026-04-26T08:34:40Z</time></trkpt><trkpt lat="43.334975859902485" lon="11.922592541560952"><ele>255.0</ele><time>2026-04-26T08:34:42Z</time></trkpt><trkpt lat="43.33485246368067" lon="11.922580936511979"><ele>255.0</ele><time>2026-04-26T08:34:44Z</time></trkpt><trkpt lat="43.33473022229908" lon="11.92257095863663"><ele>255.0</ele><time>2026-04-26T08:34:46Z</time></trkpt><trkpt lat="43.334666476540235" lon="11.922567123482791"><ele>255.0</ele><time>2026-04-26T08:34:47Z</time></trkpt><trkpt lat="43.3345445125917" lon="11.922558583068374"><ele>255.0</ele><time>2026-04-26T08:34:49Z</time></trkpt><trkpt lat="43.3344194520834" lon="11.922548089658035"><ele>255.0</ele><time>2026-04-26T08:34:51Z</time></trkpt><trkpt lat="43.33429677199345" lon="11.922536520815028"><ele>255.0</ele><time>2026-04-26T08:34:53Z</time></trkpt><trkpt lat="43.33417489145383" lon="11.922539651838363"><ele>255.0</ele><time>2026-04-26T08:34:55Z</time></trkpt><trkpt lat="43.33411551517906" lon="11.922509282585802"><ele>255.0</ele><time>2026-04-26T08:34:56Z</time></trkpt><trkpt lat="43.33398897742057" lon="11.922567089770714"><ele>255.0</ele><time>2026-04-26T08:34:58Z</time></trkpt><trkpt lat="43.33392446273745" lon="11.922569857920871"><ele>255.16666666666666</ele><time>2026-04-26T08:34:59Z</time></trkpt><trkpt lat="43.33379702131112" lon="11.922564396735941"><ele>255.33333333333331</ele><time>2026-04-26T08:35:01Z</time></trkpt><trkpt lat="43.333729251818056" lon="11.922551492870943"><ele>255.5</ele><time>2026-04-26T08:35:02Z</time></trkpt><trkpt lat="43.333659848038614" lon="11.922547825394712"><ele>255.66666666666666</ele><time>2026-04-26T08:35:03Z</time></trkpt><trkpt lat="43.33359260416038" lon="11.922538495193344"><ele>255.83333333333331</ele><time>2026-04-26T08:35:04Z</time></trkpt><trkpt lat="43.333524009506256" lon="11.922535065685887"><ele>256.0</ele><time>2026-04-26T08:35:05Z</time></trkpt><trkpt lat="43.33346081597937" lon="11.92252725836626"><ele>256.0</ele><time>2026-04-26T08:35:06Z</time></trkpt><trkpt lat="43.33334300642941" lon="11.922516260191928"><ele>256.0</ele><time>2026-04-26T08:35:08Z</time></trkpt><trkpt lat="43.333244666282845" lon="11.922503955745857"><ele>256.0</ele><time>2026-04-26T08:35:10Z</time></trkpt><trkpt lat="43.33316186396108" lon="11.922493186089257"><ele>256.0</ele><time>2026-04-26T08:35:12Z</time></trkpt><trkpt lat="43.333081363367555" lon="11.922489193868625"><ele>256.0</ele><time>2026-04-26T08:35:14Z</time></trkpt><trkpt lat="43.33299806596628" lon="11.922486152758884"><ele>255.8</ele><time>2026-04-26T08:35:16Z</time></trkpt><trkpt lat="43.332921553464566" lon="11.922484055511145"><ele>255.60000000000002</ele><time>2026-04-26T08:35:18Z</time></trkpt><trkpt lat="43.3328453202445" lon="11.922473156096686"><ele>255.4</ele><time>2026-04-26T08:35:20Z</time></trkpt><trkpt lat="43.33276183520314" lon="11.922484013796444"><ele>255.2</ele><time>2026-04-26T08:35:22Z</time></trkpt><trkpt lat="43.33265750842795" lon="11.922476477794683"><ele>255.0</ele><time>2026-04-26T08:35:24Z</time></trkpt><trkpt lat="43.33254811678361" lon="11.922454207607071"><ele>255.0</ele><time>2026-04-26T08:35:26Z</time></trkpt><trkpt lat="43.33244142087704" lon="11.922454843356848"><ele>255.0</ele><time>2026-04-26T08:35:28Z</time></trkpt><trkpt lat="43.33232437494816" lon="11.922442306880836"><ele>255.0</ele><time>2026-04-26T08:35:30Z</time></trkpt><trkpt lat="43.33221713172198" lon="11.92243876032778"><ele>255.0</ele><time>2026-04-26T08:35:32Z</time></trkpt><trkpt lat="43.332101277774576" lon="11.922433159619331"><ele>255.0</ele><time>2026-04-26T08:35:34Z</time></trkpt><trkpt lat="43.33198656937708" lon="11.922452839307473"><ele>255.0</ele><time>2026-04-26T08:35:36Z</time></trkpt><trkpt lat="43.331871589335044" lon="11.922429054923052"><ele>255.0</ele><time>2026-04-26T08:35:38Z</time></trkpt><trkpt lat="43.33180756856305" lon="11.922425531370695"><ele>255.0</ele><time>2026-04-26T08:35:39Z</time></trkpt><trkpt lat="43.331744238491815" lon="11.922429598420502"><ele>255.0</ele><time>2026-04-26T08:35:40Z</time></trkpt><trkpt lat="43.33161610292728" lon="11.922425870295946"><ele>255.0</ele><time>2026-04-26T08:35:42Z</time></trkpt><trkpt lat="43.33153944971202" lon="11.922419812202042"><ele>255.0</ele><time>2026-04-26T08:35:43Z</time></trkpt><trkpt lat="43.33145610610626" lon="11.922411860973384"><ele>255.2</ele><time>2026-04-26T08:35:44Z</time></trkpt><trkpt lat="43.3313679150166" lon="11.922405743662006"><ele>255.4</ele><time>2026-04-26T08:35:45Z</time></trkpt><trkpt lat="43.33127568667276" lon="11.922395972433844"><ele>255.60000000000002</ele><time>2026-04-26T08:35:46Z</time></trkpt><trkpt lat="43.331183305329205" lon="11.922389770868918"><ele>255.8</ele><time>2026-04-26T08:35:47Z</time></trkpt><trkpt lat="43.33108821122788" lon="11.92238533171424"><ele>256.0</ele><time>2026-04-26T08:35:48Z</time></trkpt><trkpt lat="43.33099236054668" lon="11.922377335034986"><ele>256.0</ele><time>2026-04-26T08:35:49Z</time></trkpt><trkpt lat="43.33089595917855" lon="11.922370824368532"><ele>256.0</ele><time>2026-04-26T08:35:50Z</time></trkpt><trkpt lat="43.33079844127757" lon="11.922367206939095"><ele>256.0</ele><time>2026-04-26T08:35:50.999Z</time></trkpt><trkpt lat="43.33070460967184" lon="11.92235848689851"><ele>256.0</ele><time>2026-04-26T08:35:51.999Z</time></trkpt><trkpt lat="43.330614595280984" lon="11.922353705048295"><ele>256.0</ele><time>2026-04-26T08:35:52.999Z</time></trkpt><trkpt lat="43.33052913918842" lon="11.922351247256229"><ele>255.8</ele><time>2026-04-26T08:35:53.999Z</time></trkpt><trkpt lat="43.33044112667332" lon="11.922345963198788"><ele>255.60000000000002</ele><time>2026-04-26T08:35:54.999Z</time></trkpt><trkpt lat="43.33035039693424" lon="11.922340443399053"><ele>255.4</ele><time>2026-04-26T08:35:55.999Z</time></trkpt><trkpt lat="43.3302566187302" lon="11.922336151214367"><ele>255.2</ele><time>2026-04-26T08:35:56.999Z</time></trkpt><trkpt lat="43.33016139182647" lon="11.922331500695586"><ele>255.0</ele><time>2026-04-26T08:35:57.999Z</time></trkpt><trkpt lat="43.33006560300526" lon="11.922330003431489"><ele>255.0</ele><time>2026-04-26T08:35:58.999Z</time></trkpt><trkpt lat="43.329973027692915" lon="11.922320218739053"><ele>255.0</ele><time>2026-04-26T08:35:59.999Z</time></trkpt><trkpt lat="43.32987867647515" lon="11.922315054062993"><ele>255.0</ele><time>2026-04-26T08:36:00.999Z</time></trkpt><trkpt lat="43.32978457209487" lon="11.922308080355911"><ele>255.0</ele><time>2026-04-26T08:36:01.999Z</time></trkpt><trkpt lat="43.32968777582543" lon="11.922301973052852"><ele>255.0</ele><time>2026-04-26T08:36:02.999Z</time></trkpt><trkpt lat="43.32959229940736" lon="11.922298149799458"><ele>255.2</ele><time>2026-04-26T08:36:03.999Z</time></trkpt><trkpt lat="43.32949833059323" lon="11.92229254363004"><ele>255.4</ele><time>2026-04-26T08:36:04.999Z</time></trkpt><trkpt lat="43.32940339154404" lon="11.922286674225736"><ele>255.60000000000002</ele><time>2026-04-26T08:36:05.999Z</time></trkpt><trkpt lat="43.32930920099015" lon="11.922282195426831"><ele>255.8</ele><time>2026-04-26T08:36:06.999Z</time></trkpt><trkpt lat="43.3292147147394" lon="11.922275915595556"><ele>256.0</ele><time>2026-04-26T08:36:07.999Z</time></trkpt><trkpt lat="43.329122043140586" lon="11.922269519860926"><ele>256.0</ele><time>2026-04-26T08:36:08.999Z</time></trkpt><trkpt lat="43.32902702061402" lon="11.922263890018119"><ele>256.0</ele><time>2026-04-26T08:36:09.999Z</time></trkpt><trkpt lat="43.32893335696669" lon="11.92225921898486"><ele>256.0</ele><time>2026-04-26T08:36:10.999Z</time></trkpt><trkpt lat="43.328843368134955" lon="11.922252558508244"><ele>256.0</ele><time>2026-04-26T08:36:11.999Z</time></trkpt><trkpt lat="43.32875036119844" lon="11.92225039828222"><ele>256.0</ele><time>2026-04-26T08:36:12.999Z</time></trkpt><trkpt lat="43.32865814034372" lon="11.922242705920294"><ele>256.16666666666663</ele><time>2026-04-26T08:36:14Z</time></trkpt><trkpt lat="43.32856666169325" lon="11.922238441353047"><ele>256.3333333333333</ele><time>2026-04-26T08:36:15Z</time></trkpt><trkpt lat="43.328479150931514" lon="11.922228520942062"><ele>256.5</ele><time>2026-04-26T08:36:16Z</time></trkpt><trkpt lat="43.32841260402736" lon="11.922222891440008"><ele>256.6666666666667</ele><time>2026-04-26T08:36:17Z</time></trkpt><trkpt lat="43.32832866117459" lon="11.922221384494387"><ele>256.83333333333337</ele><time>2026-04-26T08:36:19Z</time></trkpt><trkpt lat="43.32841556422439" lon="11.922221688009838"><ele>257.0</ele><time>2026-04-26T08:36:29Z</time></trkpt><trkpt lat="43.32849257585966" lon="11.922195299372156"><ele>257.0</ele><time>2026-04-26T08:36:31Z</time></trkpt><trkpt lat="43.32844458148335" lon="11.92198482381985"><ele>257.0</ele><time>2026-04-26T08:36:35Z</time></trkpt><trkpt lat="43.328439313064614" lon="11.921892422707309"><ele>257.0</ele><time>2026-04-26T08:36:37Z</time></trkpt><trkpt lat="43.328449082037935" lon="11.921768428536998"><ele>257.0</ele><time>2026-04-26T08:36:41Z</time></trkpt><trkpt lat="43.32845190319438" lon="11.921861905947736"><ele>257.0</ele><time>2026-04-26T08:36:46Z</time></trkpt><trkpt lat="43.328460758128905" lon="11.9220027730069"><ele>257.0</ele><time>2026-04-26T08:36:49Z</time></trkpt><trkpt lat="43.328457272082325" lon="11.92210174784393"><ele>257.0</ele><time>2026-04-26T08:36:51Z</time></trkpt><trkpt lat="43.32847264373905" lon="11.922195537244527"><ele>257.0</ele><time>2026-04-26T08:36:55Z</time></trkpt><trkpt lat="43.3283638197418" lon="11.922224235008997"><ele>257.0</ele><time>2026-04-26T08:36:59Z</time></trkpt><trkpt lat="43.32828970572167" lon="11.922215117158924"><ele>257.0</ele><time>2026-04-26T08:37:00Z</time></trkpt><trkpt lat="43.32820456112585" lon="11.92221027469491"><ele>257.0</ele><time>2026-04-26T08:37:01Z</time></trkpt><trkpt lat="43.32810964879659" lon="11.922204390129352"><ele>256.8</ele><time>2026-04-26T08:37:02Z</time></trkpt><trkpt lat="43.328012275829" lon="11.922197967185943"><ele>256.6</ele><time>2026-04-26T08:37:03Z</time></trkpt><trkpt lat="43.32791512935057" lon="11.922187134330118"><ele>256.40000000000003</ele><time>2026-04-26T08:37:04Z</time></trkpt><trkpt lat="43.327817502326475" lon="11.922178304651627"><ele>256.2</ele><time>2026-04-26T08:37:05Z</time></trkpt><trkpt lat="43.32771730232023" lon="11.92216893322062"><ele>256.0</ele><time>2026-04-26T08:37:06Z</time></trkpt><trkpt lat="43.327624417640514" lon="11.922162406459433"><ele>255.99999999999997</ele><time>2026-04-26T08:37:07Z</time></trkpt><trkpt lat="43.327539265661606" lon="11.922154780169485"><ele>256.0</ele><time>2026-04-26T08:37:08Z</time></trkpt><trkpt lat="43.32746473211122" lon="11.922145378746594"><ele>256.0</ele><time>2026-04-26T08:37:09Z</time></trkpt><trkpt lat="43.327401716304536" lon="11.922104851243285"><ele>256.0</ele><time>2026-04-26T08:37:10Z</time></trkpt><trkpt lat="43.327360863797644" lon="11.9219021076677"><ele>255.99999999999997</ele><time>2026-04-26T08:37:12Z</time></trkpt><trkpt lat="43.32732618371898" lon="11.921825913670418"><ele>256.0</ele><time>2026-04-26T08:37:13Z</time></trkpt><trkpt lat="43.327276070127645" lon="11.921702090241586"><ele>255.75</ele><time>2026-04-26T08:37:15Z</time></trkpt><trkpt lat="43.327243004022066" lon="11.92160424772386"><ele>255.5</ele><time>2026-04-26T08:37:17Z</time></trkpt><trkpt lat="43.32705294653206" lon="11.921643683445797"><ele>255.25</ele><time>2026-04-26T08:37:20Z</time></trkpt><trkpt lat="43.32693543830922" lon="11.921653531467976"><ele>255.0</ele><time>2026-04-26T08:37:22Z</time></trkpt><trkpt lat="43.32687088550024" lon="11.921654717637834"><ele>255.0</ele><time>2026-04-26T08:37:23Z</time></trkpt><trkpt lat="43.32680508485049" lon="11.92165286648813"><ele>255.0</ele><time>2026-04-26T08:37:24Z</time></trkpt><trkpt lat="43.32667995154897" lon="11.921644146012444"><ele>255.0</ele><time>2026-04-26T08:37:26Z</time></trkpt><trkpt lat="43.32656178971533" lon="11.921642379570686"><ele>255.0</ele><time>2026-04-26T08:37:28Z</time></trkpt><trkpt lat="43.326455602491045" lon="11.921640474086317"><ele>255.0</ele><time>2026-04-26T08:37:30Z</time></trkpt><trkpt lat="43.32634312553395" lon="11.921655724953451"><ele>255.0</ele><time>2026-04-26T08:37:32Z</time></trkpt><trkpt lat="43.32623163793071" lon="11.921664439322509"><ele>255.0</ele><time>2026-04-26T08:37:34Z</time></trkpt><trkpt lat="43.32612217043347" lon="11.921663784216175"><ele>255.0</ele><time>2026-04-26T08:37:36Z</time></trkpt><trkpt lat="43.326012399733926" lon="11.921657996966202"><ele>255.0</ele><time>2026-04-26T08:37:38Z</time></trkpt><trkpt lat="43.32589757818771" lon="11.921658384863724"><ele>255.0</ele><time>2026-04-26T08:37:40Z</time></trkpt><trkpt lat="43.32578439696467" lon="11.92165137020299"><ele>255.0</ele><time>2026-04-26T08:37:42Z</time></trkpt><trkpt lat="43.32567268749705" lon="11.921647513212179"><ele>255.0</ele><time>2026-04-26T08:37:44Z</time></trkpt><trkpt lat="43.32555352222276" lon="11.92163407935034"><ele>255.0</ele><time>2026-04-26T08:37:46Z</time></trkpt><trkpt lat="43.32543867438843" lon="11.921636822113344"><ele>255.0</ele><time>2026-04-26T08:37:48Z</time></trkpt><trkpt lat="43.32532790792425" lon="11.921641590241396"><ele>254.4</ele><time>2026-04-26T08:37:50Z</time></trkpt><trkpt lat="43.32521657964897" lon="11.921640801339226"><ele>253.8</ele><time>2026-04-26T08:37:52Z</time></trkpt><trkpt lat="43.32510608726616" lon="11.921639605927325"><ele>253.2</ele><time>2026-04-26T08:37:54Z</time></trkpt><trkpt lat="43.32500075914435" lon="11.921633067189513"><ele>252.6</ele><time>2026-04-26T08:37:56Z</time></trkpt><trkpt lat="43.32489794213557" lon="11.92163054623235"><ele>252.0</ele><time>2026-04-26T08:37:58Z</time></trkpt><trkpt lat="43.32478968886304" lon="11.92162790162591"><ele>252.2</ele><time>2026-04-26T08:38:00Z</time></trkpt><trkpt lat="43.32467366124765" lon="11.921624701582124"><ele>252.39999999999998</ele><time>2026-04-26T08:38:02Z</time></trkpt><trkpt lat="43.324565216510024" lon="11.921623350338557"><ele>252.60000000000002</ele><time>2026-04-26T08:38:04Z</time></trkpt><trkpt lat="43.32446133584423" lon="11.921629045162971"><ele>252.8</ele><time>2026-04-26T08:38:05.999Z</time></trkpt><trkpt lat="43.324351060038694" lon="11.921631338333832"><ele>253.0</ele><time>2026-04-26T08:38:07.999Z</time></trkpt><trkpt lat="43.32424797431589" lon="11.921633090102112"><ele>253.0</ele><time>2026-04-26T08:38:09.999Z</time></trkpt><trkpt lat="43.32414283907178" lon="11.921620489733467"><ele>253.0</ele><time>2026-04-26T08:38:11.999Z</time></trkpt><trkpt lat="43.324051408013474" lon="11.921531853921183"><ele>253.0</ele><time>2026-04-26T08:38:13.999Z</time></trkpt><trkpt lat="43.32396038499609" lon="11.921612792949244"><ele>253.0</ele><time>2026-04-26T08:38:14.999Z</time></trkpt><trkpt lat="43.323836573077244" lon="11.921627155976196"><ele>253.14285714285717</ele><time>2026-04-26T08:38:16.999Z</time></trkpt><trkpt lat="43.32377306091855" lon="11.921620645110073"><ele>253.28571428571428</ele><time>2026-04-26T08:38:17.999Z</time></trkpt><trkpt lat="43.32370780643573" lon="11.9216141910357"><ele>253.42857142857144</ele><time>2026-04-26T08:38:18.999Z</time></trkpt><trkpt lat="43.32363974143928" lon="11.921611173726916"><ele>253.57142857142858</ele><time>2026-04-26T08:38:20Z</time></trkpt><trkpt lat="43.32356784518844" lon="11.921589322536294"><ele>253.71428571428572</ele><time>2026-04-26T08:38:21Z</time></trkpt><trkpt lat="43.323497185299864" lon="11.921587678571587"><ele>253.85714285714286</ele><time>2026-04-26T08:38:22Z</time></trkpt><trkpt lat="43.32342229752927" lon="11.921585936242842"><ele>254.0</ele><time>2026-04-26T08:38:23Z</time></trkpt><trkpt lat="43.323346521346686" lon="11.921604035460506"><ele>254.00000000000003</ele><time>2026-04-26T08:38:24Z</time></trkpt><trkpt lat="43.32327057482166" lon="11.921600102726885"><ele>254.0</ele><time>2026-04-26T08:38:25Z</time></trkpt><trkpt lat="43.32319479797909" lon="11.921599178389993"><ele>254.0</ele><time>2026-04-26T08:38:26Z</time></trkpt><trkpt lat="43.32311933645925" lon="11.921597791847098"><ele>254.0</ele><time>2026-04-26T08:38:27Z</time></trkpt><trkpt lat="43.323042730844165" lon="11.921597428754453"><ele>254.00000000000003</ele><time>2026-04-26T08:38:28Z</time></trkpt><trkpt lat="43.3229662146792" lon="11.921595213761512"><ele>254.0</ele><time>2026-04-26T08:38:29Z</time></trkpt><trkpt lat="43.322889707118925" lon="11.921592844379873"><ele>254.00000000000003</ele><time>2026-04-26T08:38:30Z</time></trkpt><trkpt lat="43.322811506376475" lon="11.92159200338465"><ele>254.0</ele><time>2026-04-26T08:38:31Z</time></trkpt><trkpt lat="43.32273284822405" lon="11.921591850435004"><ele>254.0</ele><time>2026-04-26T08:38:32Z</time></trkpt><trkpt lat="43.32265624629487" lon="11.921593583466809"><ele>254.0</ele><time>2026-04-26T08:38:33Z</time></trkpt><trkpt lat="43.32257918444463" lon="11.921590978208389"><ele>254.00000000000003</ele><time>2026-04-26T08:38:34Z</time></trkpt><trkpt lat="43.32250389162903" lon="11.921601135489686"><ele>254.0</ele><time>2026-04-26T08:38:35Z</time></trkpt><trkpt lat="43.32243253772551" lon="11.92160901093784"><ele>254.0</ele><time>2026-04-26T08:38:36Z</time></trkpt><trkpt lat="43.32236140089485" lon="11.921591299164989"><ele>254.0</ele><time>2026-04-26T08:38:37Z</time></trkpt><trkpt lat="43.322294660128144" lon="11.921591531395505"><ele>254.0</ele><time>2026-04-26T08:38:38Z</time></trkpt><trkpt lat="43.322227180377034" lon="11.921589055839256"><ele>254.0</ele><time>2026-04-26T08:38:39Z</time></trkpt><trkpt lat="43.32215573538185" lon="11.921584647857035"><ele>254.0</ele><time>2026-04-26T08:38:40Z</time></trkpt><trkpt lat="43.32208677924232" lon="11.921579615344886"><ele>254.0</ele><time>2026-04-26T08:38:41Z</time></trkpt><trkpt lat="43.322015035002565" lon="11.921576169258822"><ele>254.0</ele><time>2026-04-26T08:38:42Z</time></trkpt><trkpt lat="43.321942046672" lon="11.921592678862126"><ele>254.0</ele><time>2026-04-26T08:38:43Z</time></trkpt><trkpt lat="43.321869554753135" lon="11.921592125975359"><ele>254.0</ele><time>2026-04-26T08:38:44Z</time></trkpt><trkpt lat="43.32179917083093" lon="11.92158967671578"><ele>254.0</ele><time>2026-04-26T08:38:45Z</time></trkpt><trkpt lat="43.32173113348028" lon="11.921586875711254"><ele>254.0</ele><time>2026-04-26T08:38:46Z</time></trkpt><trkpt lat="43.3216614007911" lon="11.921584229728815"><ele>254.0</ele><time>2026-04-26T08:38:47Z</time></trkpt><trkpt lat="43.32159162306242" lon="11.921580063362189"><ele>254.0</ele><time>2026-04-26T08:38:48Z</time></trkpt><trkpt lat="43.32152121406252" lon="11.921576717695885"><ele>254.0</ele><time>2026-04-26T08:38:49Z</time></trkpt><trkpt lat="43.32144960911372" lon="11.921576396579335"><ele>253.85714285714286</ele><time>2026-04-26T08:38:50Z</time></trkpt><trkpt lat="43.321375533133086" lon="11.92157934027367"><ele>253.71428571428572</ele><time>2026-04-26T08:38:51Z</time></trkpt><trkpt lat="43.3213017195864" lon="11.921582896988584"><ele>253.57142857142858</ele><time>2026-04-26T08:38:52Z</time></trkpt><trkpt lat="43.32122675225799" lon="11.921584532299512"><ele>253.42857142857144</ele><time>2026-04-26T08:38:53Z</time></trkpt><trkpt lat="43.32114970316622" lon="11.921584685953015"><ele>253.28571428571428</ele><time>2026-04-26T08:38:54Z</time></trkpt><trkpt lat="43.32107397358001" lon="11.921584553203356"><ele>253.14285714285717</ele><time>2026-04-26T08:38:55Z</time></trkpt><trkpt lat="43.32100067682093" lon="11.92158320763491"><ele>253.00000000000003</ele><time>2026-04-26T08:38:56Z</time></trkpt><trkpt lat="43.32092989602751" lon="11.921580079556401"><ele>253.00000000000003</ele><time>2026-04-26T08:38:57Z</time></trkpt><trkpt lat="43.320859425255684" lon="11.921578339216214"><ele>253.0</ele><time>2026-04-26T08:38:58Z</time></trkpt><trkpt lat="43.32079199371935" lon="11.92157597211035"><ele>253.00000000000003</ele><time>2026-04-26T08:38:59Z</time></trkpt><trkpt lat="43.32072399517931" lon="11.92157242505595"><ele>253.00000000000003</ele><time>2026-04-26T08:39:00Z</time></trkpt><trkpt lat="43.32065532983135" lon="11.92156801582989"><ele>253.0</ele><time>2026-04-26T08:39:01Z</time></trkpt><trkpt lat="43.32058591447131" lon="11.921567267309566"><ele>253.00000000000003</ele><time>2026-04-26T08:39:02Z</time></trkpt><trkpt lat="43.32051643013365" lon="11.921542622130689"><ele>253.00000000000003</ele><time>2026-04-26T08:39:03Z</time></trkpt><trkpt lat="43.32044378488535" lon="11.921539467900384"><ele>253.16666666666666</ele><time>2026-04-26T08:39:04Z</time></trkpt><trkpt lat="43.3203720150637" lon="11.921536351682375"><ele>253.33333333333331</ele><time>2026-04-26T08:39:05Z</time></trkpt><trkpt lat="43.32030466931003" lon="11.921533427554518"><ele>253.5</ele><time>2026-04-26T08:39:06Z</time></trkpt><trkpt lat="43.32024137391865" lon="11.921530679292287"><ele>253.66666666666669</ele><time>2026-04-26T08:39:07Z</time></trkpt><trkpt lat="43.320129414325265" lon="11.921527268667035"><ele>253.83333333333334</ele><time>2026-04-26T08:39:09Z</time></trkpt><trkpt lat="43.320013422742846" lon="11.921523938425322"><ele>254.0</ele><time>2026-04-26T08:39:11Z</time></trkpt><trkpt lat="43.319891810080904" lon="11.921520446797642"><ele>254.0</ele><time>2026-04-26T08:39:13Z</time></trkpt><trkpt lat="43.319771774834365" lon="11.921517002196891"><ele>254.0</ele><time>2026-04-26T08:39:15Z</time></trkpt><trkpt lat="43.31965459404892" lon="11.921513637813934"><ele>254.0</ele><time>2026-04-26T08:39:17Z</time></trkpt><trkpt lat="43.319531042424174" lon="11.921509679380605"><ele>254.0</ele><time>2026-04-26T08:39:19Z</time></trkpt><trkpt lat="43.31940377545552" lon="11.921504784497547"><ele>254.0</ele><time>2026-04-26T08:39:21Z</time></trkpt><trkpt lat="43.31933982089652" lon="11.921502324707626"><ele>254.0</ele><time>2026-04-26T08:39:22Z</time></trkpt><trkpt lat="43.31927553155364" lon="11.92149985204029"><ele>254.0</ele><time>2026-04-26T08:39:23Z</time></trkpt><trkpt lat="43.3192097760997" lon="11.921497322984504"><ele>254.0</ele><time>2026-04-26T08:39:23.999Z</time></trkpt><trkpt lat="43.31914179826077" lon="11.921494708486184"><ele>254.0</ele><time>2026-04-26T08:39:24.999Z</time></trkpt><trkpt lat="43.31907148428185" lon="11.92149200688718"><ele>254.0</ele><time>2026-04-26T08:39:25.999Z</time></trkpt><trkpt lat="43.31900140518087" lon="11.921489313924882"><ele>254.0</ele><time>2026-04-26T08:39:26.999Z</time></trkpt><trkpt lat="43.31893448836112" lon="11.92148674247645"><ele>254.0</ele><time>2026-04-26T08:39:27.999Z</time></trkpt><trkpt lat="43.31887150328068" lon="11.921484322108995"><ele>254.0</ele><time>2026-04-26T08:39:28.999Z</time></trkpt><trkpt lat="43.31880238325431" lon="11.921481666001197"><ele>254.0</ele><time>2026-04-26T08:39:29.999Z</time></trkpt><trkpt lat="43.31873882258413" lon="11.921501935046733"><ele>254.0</ele><time>2026-04-26T08:39:30.999Z</time></trkpt><trkpt lat="43.318674776439444" lon="11.921497305314265"><ele>254.0</ele><time>2026-04-26T08:39:31.999Z</time></trkpt><trkpt lat="43.31861112236651" lon="11.921496305967622"><ele>254.0</ele><time>2026-04-26T08:39:32.999Z</time></trkpt><trkpt lat="43.31854877288408" lon="11.9214715160023"><ele>254.0</ele><time>2026-04-26T08:39:33.999Z</time></trkpt><trkpt lat="43.31848402637284" lon="11.92146885695659"><ele>254.00000000000003</ele><time>2026-04-26T08:39:34.999Z</time></trkpt><trkpt lat="43.31841787224508" lon="11.921466140099833"><ele>254.0</ele><time>2026-04-26T08:39:35.999Z</time></trkpt><trkpt lat="43.31829196601354" lon="11.921460969308272"><ele>254.0</ele><time>2026-04-26T08:39:37.999Z</time></trkpt><trkpt lat="43.318223612220685" lon="11.921458162118862"><ele>254.0</ele><time>2026-04-26T08:39:38.999Z</time></trkpt><trkpt lat="43.318150701298926" lon="11.92145516776654"><ele>254.00000000000003</ele><time>2026-04-26T08:39:39.999Z</time></trkpt><trkpt lat="43.31807646889843" lon="11.921452119149944"><ele>254.0</ele><time>2026-04-26T08:39:40.999Z</time></trkpt><trkpt lat="43.3180015711867" lon="11.921449043206982"><ele>253.85714285714286</ele><time>2026-04-26T08:39:41.999Z</time></trkpt><trkpt lat="43.317928495231754" lon="11.921445909355048"><ele>253.71428571428572</ele><time>2026-04-26T08:39:42.999Z</time></trkpt><trkpt lat="43.31785509099885" lon="11.921442431758052"><ele>253.57142857142858</ele><time>2026-04-26T08:39:43.999Z</time></trkpt><trkpt lat="43.31778427304298" lon="11.921439076687419"><ele>253.42857142857144</ele><time>2026-04-26T08:39:44.999Z</time></trkpt><trkpt lat="43.31771646518241" lon="11.92143586422287"><ele>253.28571428571428</ele><time>2026-04-26T08:39:45.999Z</time></trkpt><trkpt lat="43.31764504552222" lon="11.92143248064126"><ele>253.14285714285717</ele><time>2026-04-26T08:39:46.999Z</time></trkpt><trkpt lat="43.31757529959067" lon="11.921429176358686"><ele>253.00000000000003</ele><time>2026-04-26T08:39:47.999Z</time></trkpt><trkpt lat="43.31750133712485" lon="11.921425672312049"><ele>253.00000000000003</ele><time>2026-04-26T08:39:48.999Z</time></trkpt><trkpt lat="43.31743130798236" lon="11.921422354614975"><ele>253.0</ele><time>2026-04-26T08:39:49.999Z</time></trkpt><trkpt lat="43.31736023975557" lon="11.921418987685005"><ele>253.00000000000003</ele><time>2026-04-26T08:39:50.999Z</time></trkpt><trkpt lat="43.317288999912805" lon="11.92141561262592"><ele>253.00000000000003</ele><time>2026-04-26T08:39:51.999Z</time></trkpt><trkpt lat="43.31721726513142" lon="11.921412214118536"><ele>253.0</ele><time>2026-04-26T08:39:52.999Z</time></trkpt><trkpt lat="43.317141557995754" lon="11.921409109019224"><ele>253.00000000000003</ele><time>2026-04-26T08:39:53.999Z</time></trkpt><trkpt lat="43.317065608523265" lon="11.921406344971029"><ele>253.00000000000003</ele><time>2026-04-26T08:39:54.999Z</time></trkpt><trkpt lat="43.31698977226624" lon="11.92140358504275"><ele>253.28571428571433</ele><time>2026-04-26T08:39:55.999Z</time></trkpt><trkpt lat="43.31691774480486" lon="11.921400963728068"><ele>253.57142857142858</ele><time>2026-04-26T08:39:56.999Z</time></trkpt><trkpt lat="43.316849984918214" lon="11.921398497725097"><ele>253.8571428571429</ele><time>2026-04-26T08:39:57.999Z</time></trkpt><trkpt lat="43.316781181908325" lon="11.921395993759445"><ele>254.14285714285717</ele><time>2026-04-26T08:39:58.999Z</time></trkpt><trkpt lat="43.31671468579596" lon="11.921393573750057"><ele>254.42857142857144</ele><time>2026-04-26T08:39:59.999Z</time></trkpt><trkpt lat="43.316646786422226" lon="11.921391102667494"><ele>254.71428571428572</ele><time>2026-04-26T08:40:00.999Z</time></trkpt><trkpt lat="43.31657526384915" lon="11.921410883651674"><ele>255.0</ele><time>2026-04-26T08:40:01.999Z</time></trkpt><trkpt lat="43.31650353683455" lon="11.921386702520687"><ele>255.0</ele><time>2026-04-26T08:40:02.999Z</time></trkpt><trkpt lat="43.31643279478559" lon="11.92138457231075"><ele>255.0</ele><time>2026-04-26T08:40:03.999Z</time></trkpt><trkpt lat="43.31635947961524" lon="11.921381401622634"><ele>255.0</ele><time>2026-04-26T08:40:04.999Z</time></trkpt><trkpt lat="43.316287151307634" lon="11.921377766469517"><ele>255.0</ele><time>2026-04-26T08:40:05.999Z</time></trkpt><trkpt lat="43.31620675135085" lon="11.921373260571622"><ele>255.0</ele><time>2026-04-26T08:40:06.999Z</time></trkpt><trkpt lat="43.31608135322491" lon="11.921366232822452"><ele>255.0</ele><time>2026-04-26T08:40:08.999Z</time></trkpt><trkpt lat="43.31600455478762" lon="11.92136366577865"><ele>254.83333333333334</ele><time>2026-04-26T08:40:09.999Z</time></trkpt><trkpt lat="43.31592421928995" lon="11.921361199540508"><ele>254.66666666666669</ele><time>2026-04-26T08:40:10.999Z</time></trkpt><trkpt lat="43.31584264227845" lon="11.921357658408043"><ele>254.5</ele><time>2026-04-26T08:40:11.999Z</time></trkpt><trkpt lat="43.31577221862273" lon="11.921350844831942"><ele>254.33333333333334</ele><time>2026-04-26T08:40:12.999Z</time></trkpt><trkpt lat="43.315701002722726" lon="11.921336091852789"><ele>254.16666666666669</ele><time>2026-04-26T08:40:13.999Z</time></trkpt><trkpt lat="43.31558430373246" lon="11.921268631136755"><ele>254.0</ele><time>2026-04-26T08:40:15.999Z</time></trkpt><trkpt lat="43.315492366787275" lon="11.921142702545392"><ele>253.71428571428572</ele><time>2026-04-26T08:40:17.999Z</time></trkpt><trkpt lat="43.31544704344699" lon="11.921079357824079"><ele>253.42857142857142</ele><time>2026-04-26T08:40:18.999Z</time></trkpt><trkpt lat="43.31540017807121" lon="11.921011967912788"><ele>253.14285714285714</ele><time>2026-04-26T08:40:19.999Z</time></trkpt><trkpt lat="43.31535305359736" lon="11.92094252135802"><ele>252.85714285714286</ele><time>2026-04-26T08:40:20.999Z</time></trkpt><trkpt lat="43.3153059085051" lon="11.920873044147386"><ele>252.57142857142856</ele><time>2026-04-26T08:40:21.999Z</time></trkpt><trkpt lat="43.31525864483148" lon="11.92080222473673"><ele>252.28571428571428</ele><time>2026-04-26T08:40:22.999Z</time></trkpt><trkpt lat="43.315211545975764" lon="11.920731741459736"><ele>252.0</ele><time>2026-04-26T08:40:23.999Z</time></trkpt><trkpt lat="43.31516261004224" lon="11.920658509063175"><ele>251.66666666666666</ele><time>2026-04-26T08:40:24.999Z</time></trkpt><trkpt lat="43.315111300325334" lon="11.920582491104465"><ele>251.33333333333331</ele><time>2026-04-26T08:40:25.999Z</time></trkpt><trkpt lat="43.31506320201374" lon="11.920513355769097"><ele>251.0</ele><time>2026-04-26T08:40:26.999Z</time></trkpt><trkpt lat="43.31501891017421" lon="11.920449691910056"><ele>250.66666666666666</ele><time>2026-04-26T08:40:27.999Z</time></trkpt><trkpt lat="43.3149446191023" lon="11.920338930132512"><ele>250.33333333333331</ele><time>2026-04-26T08:40:29.999Z</time></trkpt><trkpt lat="43.314927678307505" lon="11.920243729047407"><ele>250.0</ele><time>2026-04-26T08:40:31.999Z</time></trkpt><trkpt lat="43.315001843991126" lon="11.920189351271878"><ele>250.0</ele><time>2026-04-26T08:40:33.999Z</time></trkpt><trkpt lat="43.31510452267911" lon="11.920216799874183"><ele>250.0</ele><time>2026-04-26T08:40:35.999Z</time></trkpt><trkpt lat="43.315220575307364" lon="11.920282864507046"><ele>250.0</ele><time>2026-04-26T08:40:37.999Z</time></trkpt><trkpt lat="43.31531751607739" lon="11.920348729258293"><ele>250.0</ele><time>2026-04-26T08:40:39.999Z</time></trkpt><trkpt lat="43.31542169580249" lon="11.920400511041237"><ele>250.0</ele><time>2026-04-26T08:40:41.999Z</time></trkpt><trkpt lat="43.315515820720755" lon="11.920453790828532"><ele>250.6</ele><time>2026-04-26T08:40:43.999Z</time></trkpt><trkpt lat="43.315622678055355" lon="11.920516844521929"><ele>251.2</ele><time>2026-04-26T08:40:45.999Z</time></trkpt><trkpt lat="43.31572205705923" lon="11.920584099653054"><ele>251.8</ele><time>2026-04-26T08:40:47.999Z</time></trkpt><trkpt lat="43.3158397950123" lon="11.920645862959654"><ele>252.4</ele><time>2026-04-26T08:40:49.999Z</time></trkpt><trkpt lat="43.31590474313612" lon="11.920681517844326"><ele>253.0</ele><time>2026-04-26T08:40:50.999Z</time></trkpt><trkpt lat="43.315965833620616" lon="11.920723818896555"><ele>253.00000000000003</ele><time>2026-04-26T08:40:51.999Z</time></trkpt><trkpt lat="43.31602286660713" lon="11.920773827734507"><ele>253.0</ele><time>2026-04-26T08:40:52.999Z</time></trkpt><trkpt lat="43.31607903469264" lon="11.920833239556893"><ele>253.00000000000003</ele><time>2026-04-26T08:40:53.999Z</time></trkpt><trkpt lat="43.316136084379266" lon="11.920896137488288"><ele>253.00000000000003</ele><time>2026-04-26T08:40:54.999Z</time></trkpt><trkpt lat="43.31618589734442" lon="11.920956585389172"><ele>253.0</ele><time>2026-04-26T08:40:55.999Z</time></trkpt><trkpt lat="43.31622489806281" lon="11.921028027001965"><ele>253.00000000000003</ele><time>2026-04-26T08:40:56.999Z</time></trkpt><trkpt lat="43.316263990727634" lon="11.921103688177075"><ele>253.00000000000003</ele><time>2026-04-26T08:40:57.999Z</time></trkpt><trkpt lat="43.316301819339685" lon="11.921180383005538"><ele>253.16666666666666</ele><time>2026-04-26T08:40:58.999Z</time></trkpt><trkpt lat="43.31633548831125" lon="11.92125908909025"><ele>253.33333333333331</ele><time>2026-04-26T08:40:59.999Z</time></trkpt><trkpt lat="43.316362239319574" lon="11.921342996846642"><ele>253.5</ele><time>2026-04-26T08:41:00.999Z</time></trkpt><trkpt lat="43.316385612095864" lon="11.921423892790047"><ele>253.66666666666669</ele><time>2026-04-26T08:41:01.999Z</time></trkpt><trkpt lat="43.316438241611564" lon="11.92158504567956"><ele>253.83333333333334</ele><time>2026-04-26T08:41:03.999Z</time></trkpt><trkpt lat="43.316465781396" lon="11.921669525904973"><ele>254.0</ele><time>2026-04-26T08:41:04.999Z</time></trkpt><trkpt lat="43.316495074945905" lon="11.921756393735928"><ele>254.50000000000003</ele><time>2026-04-26T08:41:05.999Z</time></trkpt><trkpt lat="43.3165278150875" lon="11.921835339308444"><ele>255.0</ele><time>2026-04-26T08:41:06.999Z</time></trkpt><trkpt lat="43.31657527396676" lon="11.921993819135595"><ele>255.5</ele><time>2026-04-26T08:41:08.999Z</time></trkpt><trkpt lat="43.31660129525655" lon="11.92207983551441"><ele>256.0</ele><time>2026-04-26T08:41:09.999Z</time></trkpt><trkpt lat="43.3166284046395" lon="11.922170243391767"><ele>256.5</ele><time>2026-04-26T08:41:10.999Z</time></trkpt><trkpt lat="43.31665581791565" lon="11.9222516484719"><ele>257.0</ele><time>2026-04-26T08:41:11.999Z</time></trkpt><trkpt lat="43.31670139850235" lon="11.922392677804623"><ele>257.0</ele><time>2026-04-26T08:41:13.999Z</time></trkpt><trkpt lat="43.31672538929159" lon="11.922478701864497"><ele>257.0</ele><time>2026-04-26T08:41:14.999Z</time></trkpt><trkpt lat="43.316753080326244" lon="11.922564337273927"><ele>257.0</ele><time>2026-04-26T08:41:15.999Z</time></trkpt><trkpt lat="43.316787418961674" lon="11.922721332939034"><ele>257.0</ele><time>2026-04-26T08:41:17.999Z</time></trkpt><trkpt lat="43.31683292067724" lon="11.922842872923416"><ele>257.0</ele><time>2026-04-26T08:41:19.999Z</time></trkpt><trkpt lat="43.31686300904661" lon="11.922939790189142"><ele>257.0</ele><time>2026-04-26T08:41:21.999Z</time></trkpt><trkpt lat="43.316898387355835" lon="11.923026807040618"><ele>258.0</ele><time>2026-04-26T08:41:24.999Z</time></trkpt><trkpt lat="43.31699845429069" lon="11.923040764485538"><ele>259.0</ele><time>2026-04-26T08:41:26.999Z</time></trkpt><trkpt lat="43.317066207279574" lon="11.92301279331251"><ele>260.0</ele><time>2026-04-26T08:41:27.999Z</time></trkpt><trkpt lat="43.31713081857265" lon="11.922990761872956"><ele>261.0</ele><time>2026-04-26T08:41:28.999Z</time></trkpt><trkpt lat="43.317194170474494" lon="11.922956929500664"><ele>262.0</ele><time>2026-04-26T08:41:29.999Z</time></trkpt><trkpt lat="43.31729146210299" lon="11.922908670322009"><ele>263.0</ele><time>2026-04-26T08:41:31.999Z</time></trkpt><trkpt lat="43.31735815513018" lon="11.923006758469224"><ele>263.33333333333337</ele><time>2026-04-26T08:41:34.999Z</time></trkpt><trkpt lat="43.317382884972666" lon="11.923104020394765"><ele>263.6666666666667</ele><time>2026-04-26T08:41:36.999Z</time></trkpt><trkpt lat="43.317400739156945" lon="11.92322231934942"><ele>264.0</ele><time>2026-04-26T08:41:38.999Z</time></trkpt><trkpt lat="43.31742394325652" lon="11.923332688228564"><ele>264.3333333333333</ele><time>2026-04-26T08:41:40.999Z</time></trkpt><trkpt lat="43.31743675003837" lon="11.92346116071182"><ele>264.66666666666663</ele><time>2026-04-26T08:41:42.999Z</time></trkpt><trkpt lat="43.31745852463654" lon="11.923579411645626"><ele>265.0</ele><time>2026-04-26T08:41:44.999Z</time></trkpt><trkpt lat="43.31748622472634" lon="11.923692690572448"><ele>267.0</ele><time>2026-04-26T08:41:46.999Z</time></trkpt><trkpt lat="43.31750743914772" lon="11.923808586809221"><ele>269.0</ele><time>2026-04-26T08:41:48.999Z</time></trkpt><trkpt lat="43.3175258871848" lon="11.923934319924623"><ele>271.0</ele><time>2026-04-26T08:41:50.999Z</time></trkpt><trkpt lat="43.31755257547956" lon="11.92405535766254"><ele>273.0</ele><time>2026-04-26T08:41:53.999Z</time></trkpt><trkpt lat="43.3175693781158" lon="11.924151981990915"><ele>275.0</ele><time>2026-04-26T08:41:55.999Z</time></trkpt><trkpt lat="43.31758946060146" lon="11.924239048770689"><ele>277.0</ele><time>2026-04-26T08:41:57.999Z</time></trkpt><trkpt lat="43.317634523471575" lon="11.924339512837197"><ele>278.66666666666663</ele><time>2026-04-26T08:42:00.999Z</time></trkpt><trkpt lat="43.317683697337515" lon="11.924400665537187"><ele>280.3333333333333</ele><time>2026-04-26T08:42:02.999Z</time></trkpt><trkpt lat="43.317730704135485" lon="11.924512069603667"><ele>282.0</ele><time>2026-04-26T08:42:05.999Z</time></trkpt><trkpt lat="43.31775499144447" lon="11.92459742812689"><ele>283.6666666666667</ele><time>2026-04-26T08:42:07.999Z</time></trkpt><trkpt lat="43.31778344564526" lon="11.924695459232733"><ele>285.33333333333337</ele><time>2026-04-26T08:42:09.999Z</time></trkpt><trkpt lat="43.31781350960116" lon="11.924793080805365"><ele>287.0</ele><time>2026-04-26T08:42:11.999Z</time></trkpt><trkpt lat="43.31781869053539" lon="11.924902541546125"><ele>287.0</ele><time>2026-04-26T08:42:13.999Z</time></trkpt><trkpt lat="43.317840310030306" lon="11.924994606436616"><ele>287.0</ele><time>2026-04-26T08:42:15.999Z</time></trkpt><trkpt lat="43.31788429549205" lon="11.925080830052654"><ele>287.0</ele><time>2026-04-26T08:42:18.999Z</time></trkpt><trkpt lat="43.31796279242734" lon="11.925147856404404"><ele>287.0</ele><time>2026-04-26T08:42:21.999Z</time></trkpt><trkpt lat="43.31802006776981" lon="11.92522309989982"><ele>287.0</ele><time>2026-04-26T08:42:23.999Z</time></trkpt><trkpt lat="43.31807510785682" lon="11.925312302558861"><ele>287.0</ele><time>2026-04-26T08:42:26.999Z</time></trkpt><trkpt lat="43.318141540680266" lon="11.925396284003451"><ele>290.0</ele><time>2026-04-26T08:42:28.999Z</time></trkpt><trkpt lat="43.318184006032254" lon="11.92550517138983"><ele>293.0</ele><time>2026-04-26T08:42:30.999Z</time></trkpt><trkpt lat="43.31824719646593" lon="11.925595252314007"><ele>296.0</ele><time>2026-04-26T08:42:33Z</time></trkpt><trkpt lat="43.318311798324736" lon="11.925694292641918"><ele>299.0</ele><time>2026-04-26T08:42:35Z</time></trkpt><trkpt lat="43.31837575526463" lon="11.925759773343806"><ele>302.0</ele><time>2026-04-26T08:42:37Z</time></trkpt><trkpt lat="43.31844103277669" lon="11.925884255007157"><ele>302.75</ele><time>2026-04-26T08:42:39Z</time></trkpt><trkpt lat="43.31849590691691" lon="11.92601610218256"><ele>303.5</ele><time>2026-04-26T08:42:41Z</time></trkpt><trkpt lat="43.31855873207343" lon="11.926162583507498"><ele>304.25</ele><time>2026-04-26T08:42:43Z</time></trkpt><trkpt lat="43.3185966480468" lon="11.926319212349679"><ele>305.0</ele><time>2026-04-26T08:42:45Z</time></trkpt><trkpt lat="43.31863273770614" lon="11.926472812759409"><ele>305.0</ele><time>2026-04-26T08:42:47Z</time></trkpt><trkpt lat="43.31866529924085" lon="11.926636978692056"><ele>305.0</ele><time>2026-04-26T08:42:49Z</time></trkpt><trkpt lat="43.318674883081215" lon="11.926729213756357"><ele>305.0</ele><time>2026-04-26T08:42:50Z</time></trkpt><trkpt lat="43.31867837810475" lon="11.926821948987063"><ele>305.0</ele><time>2026-04-26T08:42:51Z</time></trkpt><trkpt lat="43.31868652809903" lon="11.926915206582057"><ele>305.0</ele><time>2026-04-26T08:42:52Z</time></trkpt><trkpt lat="43.318695676080345" lon="11.927005414467077"><ele>305.0</ele><time>2026-04-26T08:42:53Z</time></trkpt><trkpt lat="43.318701823065595" lon="11.927100758016268"><ele>304.8571428571429</ele><time>2026-04-26T08:42:54Z</time></trkpt><trkpt lat="43.318703463361004" lon="11.927197658182909"><ele>304.71428571428567</ele><time>2026-04-26T08:42:55Z</time></trkpt><trkpt lat="43.31869843111419" lon="11.927293635871145"><ele>304.57142857142856</ele><time>2026-04-26T08:42:56Z</time></trkpt><trkpt lat="43.31868747358996" lon="11.92738948579684"><ele>304.42857142857144</ele><time>2026-04-26T08:42:57Z</time></trkpt><trkpt lat="43.318675267994486" lon="11.92748247697068"><ele>304.28571428571433</ele><time>2026-04-26T08:42:58Z</time></trkpt><trkpt lat="43.3186583168663" lon="11.927574530465547"><ele>304.1428571428571</ele><time>2026-04-26T08:42:59Z</time></trkpt><trkpt lat="43.318636479123874" lon="11.92766361405292"><ele>304.0</ele><time>2026-04-26T08:43:00Z</time></trkpt><trkpt lat="43.31861395499918" lon="11.927753176059356"><ele>303.2857142857143</ele><time>2026-04-26T08:43:01Z</time></trkpt><trkpt lat="43.31858909621389" lon="11.927842878064242"><ele>302.5714285714286</ele><time>2026-04-26T08:43:02Z</time></trkpt><trkpt lat="43.318560641664014" lon="11.927931459253076"><ele>301.8571428571429</ele><time>2026-04-26T08:43:03Z</time></trkpt><trkpt lat="43.318531671993824" lon="11.928015373278773"><ele>301.1428571428571</ele><time>2026-04-26T08:43:04Z</time></trkpt><trkpt lat="43.31850894290157" lon="11.928100976919579"><ele>300.42857142857144</ele><time>2026-04-26T08:43:05Z</time></trkpt><trkpt lat="43.31850171372073" lon="11.928192320566389"><ele>299.7142857142857</ele><time>2026-04-26T08:43:05.999Z</time></trkpt><trkpt lat="43.318510127788244" lon="11.928286267336881"><ele>299.0</ele><time>2026-04-26T08:43:06.999Z</time></trkpt><trkpt lat="43.31852331921481" lon="11.92837843487931"><ele>297.85714285714283</ele><time>2026-04-26T08:43:07.999Z</time></trkpt><trkpt lat="43.318533508819954" lon="11.92846914987541"><ele>296.7142857142857</ele><time>2026-04-26T08:43:08.999Z</time></trkpt><trkpt lat="43.31854081598401" lon="11.928566416124964"><ele>295.57142857142856</ele><time>2026-04-26T08:43:09.999Z</time></trkpt><trkpt lat="43.3185504687493" lon="11.928658758827067"><ele>294.42857142857144</ele><time>2026-04-26T08:43:10.999Z</time></trkpt><trkpt lat="43.31855568959986" lon="11.92875677335086"><ele>293.2857142857143</ele><time>2026-04-26T08:43:11.999Z</time></trkpt><trkpt lat="43.31855495788019" lon="11.928857528125754"><ele>292.1428571428571</ele><time>2026-04-26T08:43:12.999Z</time></trkpt><trkpt lat="43.31853745031959" lon="11.92896295353875"><ele>291.0</ele><time>2026-04-26T08:43:13.999Z</time></trkpt><trkpt lat="43.318515560038605" lon="11.929066833606115"><ele>291.0</ele><time>2026-04-26T08:43:14.999Z</time></trkpt><trkpt lat="43.318492232175494" lon="11.92916745003473"><ele>291.0</ele><time>2026-04-26T08:43:15.999Z</time></trkpt><trkpt lat="43.3184655770651" lon="11.929264158037617"><ele>291.0</ele><time>2026-04-26T08:43:16.999Z</time></trkpt><trkpt lat="43.31843655304599" lon="11.92935827162401"><ele>291.0</ele><time>2026-04-26T08:43:17.999Z</time></trkpt><trkpt lat="43.318423016162164" lon="11.929467668838749"><ele>291.0</ele><time>2026-04-26T08:43:18.999Z</time></trkpt><trkpt lat="43.318414207596895" lon="11.929571787647033"><ele>291.0</ele><time>2026-04-26T08:43:19.999Z</time></trkpt><trkpt lat="43.31841705622552" lon="11.929673498294845"><ele>289.57142857142856</ele><time>2026-04-26T08:43:20.999Z</time></trkpt><trkpt lat="43.31843049436314" lon="11.929773278951389"><ele>288.1428571428571</ele><time>2026-04-26T08:43:21.999Z</time></trkpt><trkpt lat="43.31843906558768" lon="11.929875811234721"><ele>286.7142857142857</ele><time>2026-04-26T08:43:22.999Z</time></trkpt><trkpt lat="43.31844216930517" lon="11.929969001718476"><ele>285.2857142857143</ele><time>2026-04-26T08:43:23.999Z</time></trkpt><trkpt lat="43.31844196502588" lon="11.93007039114977"><ele>283.8571428571429</ele><time>2026-04-26T08:43:24.999Z</time></trkpt><trkpt lat="43.31844320814115" lon="11.930171944158767"><ele>282.42857142857144</ele><time>2026-04-26T08:43:25.999Z</time></trkpt><trkpt lat="43.31844610578285" lon="11.930273460147836"><ele>281.0</ele><time>2026-04-26T08:43:26.999Z</time></trkpt><trkpt lat="43.31844662694597" lon="11.93037538909968"><ele>279.8571428571429</ele><time>2026-04-26T08:43:27.999Z</time></trkpt><trkpt lat="43.31845018528379" lon="11.930475755601979"><ele>278.7142857142857</ele><time>2026-04-26T08:43:28.999Z</time></trkpt><trkpt lat="43.31845260211467" lon="11.93057336104539"><ele>277.57142857142856</ele><time>2026-04-26T08:43:29.999Z</time></trkpt><trkpt lat="43.3184655152861" lon="11.930674676853705"><ele>276.42857142857144</ele><time>2026-04-26T08:43:30.999Z</time></trkpt><trkpt lat="43.31848692073007" lon="11.930767932609578"><ele>275.2857142857143</ele><time>2026-04-26T08:43:31.999Z</time></trkpt><trkpt lat="43.31851758360944" lon="11.930860247854055"><ele>274.14285714285717</ele><time>2026-04-26T08:43:32.999Z</time></trkpt><trkpt lat="43.3185496943772" lon="11.930948617195902"><ele>273.0</ele><time>2026-04-26T08:43:33.999Z</time></trkpt><trkpt lat="43.31859069743162" lon="11.931035592474922"><ele>272.3333333333333</ele><time>2026-04-26T08:43:34.999Z</time></trkpt><trkpt lat="43.3186364659619" lon="11.931123982234185"><ele>271.6666666666667</ele><time>2026-04-26T08:43:35.999Z</time></trkpt><trkpt lat="43.318683018899755" lon="11.931202358977291"><ele>271.0</ele><time>2026-04-26T08:43:36.999Z</time></trkpt><trkpt lat="43.31873400339897" lon="11.931278889295744"><ele>270.33333333333337</ele><time>2026-04-26T08:43:37.999Z</time></trkpt><trkpt lat="43.31878540076598" lon="11.93135474962674"><ele>269.6666666666667</ele><time>2026-04-26T08:43:38.999Z</time></trkpt><trkpt lat="43.31883821261297" lon="11.931428416207721"><ele>269.0</ele><time>2026-04-26T08:43:39.999Z</time></trkpt><trkpt lat="43.3188900303687" lon="11.931502455402503"><ele>268.0</ele><time>2026-04-26T08:43:40.999Z</time></trkpt><trkpt lat="43.31894030899974" lon="11.931575020913122"><ele>267.0</ele><time>2026-04-26T08:43:41.999Z</time></trkpt><trkpt lat="43.318989673313496" lon="11.931655504810621"><ele>266.0</ele><time>2026-04-26T08:43:42.999Z</time></trkpt><trkpt lat="43.319036620180476" lon="11.93173951025831"><ele>265.0</ele><time>2026-04-26T08:43:43.999Z</time></trkpt><trkpt lat="43.31908260560405" lon="11.93182366123409"><ele>264.0</ele><time>2026-04-26T08:43:44.999Z</time></trkpt><trkpt lat="43.3191294572806" lon="11.93190899619715"><ele>263.0</ele><time>2026-04-26T08:43:45.999Z</time></trkpt><trkpt lat="43.31917615740455" lon="11.93199527792891"><ele>262.83333333333337</ele><time>2026-04-26T08:43:46.999Z</time></trkpt><trkpt lat="43.31922707141917" lon="11.932080983035286"><ele>262.6666666666667</ele><time>2026-04-26T08:43:47.999Z</time></trkpt><trkpt lat="43.31928187602259" lon="11.932165973273074"><ele>262.5</ele><time>2026-04-26T08:43:48.999Z</time></trkpt><trkpt lat="43.31933985754681" lon="11.932233860727623"><ele>262.3333333333333</ele><time>2026-04-26T08:43:49.999Z</time></trkpt><trkpt lat="43.31940244862467" lon="11.932290424125451"><ele>262.16666666666663</ele><time>2026-04-26T08:43:50.999Z</time></trkpt><trkpt lat="43.31945877688761" lon="11.932353099630687"><ele>262.0</ele><time>2026-04-26T08:43:51.999Z</time></trkpt><trkpt lat="43.31951647504112" lon="11.932422075705265"><ele>262.0</ele><time>2026-04-26T08:43:52.999Z</time></trkpt><trkpt lat="43.31957972406309" lon="11.932486164755538"><ele>262.0</ele><time>2026-04-26T08:43:53.999Z</time></trkpt><trkpt lat="43.31963812717523" lon="11.93254254807321"><ele>262.0</ele><time>2026-04-26T08:43:54.999Z</time></trkpt><trkpt lat="43.31969104725286" lon="11.932595212903378"><ele>262.0</ele><time>2026-04-26T08:43:55.999Z</time></trkpt><trkpt lat="43.31978913906947" lon="11.932696425363746"><ele>262.0</ele><time>2026-04-26T08:43:57.999Z</time></trkpt><trkpt lat="43.31988680582513" lon="11.932803642934894"><ele>262.0</ele><time>2026-04-26T08:43:59.999Z</time></trkpt><trkpt lat="43.31993872965858" lon="11.932863270682361"><ele>262.0</ele><time>2026-04-26T08:44:00.999Z</time></trkpt><trkpt lat="43.31999248342635" lon="11.932918645495308"><ele>262.0</ele><time>2026-04-26T08:44:01.999Z</time></trkpt><trkpt lat="43.32004508899683" lon="11.932979586614115"><ele>262.0</ele><time>2026-04-26T08:44:02.999Z</time></trkpt><trkpt lat="43.32009546285632" lon="11.933041899639079"><ele>262.0</ele><time>2026-04-26T08:44:03.999Z</time></trkpt><trkpt lat="43.32014366180894" lon="11.933102032373059"><ele>262.0</ele><time>2026-04-26T08:44:04.999Z</time></trkpt><trkpt lat="43.32018734910589" lon="11.933165384493904"><ele>262.0</ele><time>2026-04-26T08:44:05.999Z</time></trkpt><trkpt lat="43.320239586185984" lon="11.933296364310225"><ele>262.0</ele><time>2026-04-26T08:44:07.999Z</time></trkpt><trkpt lat="43.3201881912029" lon="11.933421010030528"><ele>262.0</ele><time>2026-04-26T08:44:09.999Z</time></trkpt><trkpt lat="43.32009394746121" lon="11.933506230629416"><ele>262.0</ele><time>2026-04-26T08:44:11.999Z</time></trkpt><trkpt lat="43.32003824792226" lon="11.933589262710688"><ele>262.0</ele><time>2026-04-26T08:44:13.999Z</time></trkpt><trkpt lat="43.320000783963295" lon="11.9336929722698"><ele>262.0</ele><time>2026-04-26T08:44:15.999Z</time></trkpt><trkpt lat="43.31997308845189" lon="11.933800700755523"><ele>262.0</ele><time>2026-04-26T08:44:17.999Z</time></trkpt><trkpt lat="43.319948503633555" lon="11.933941310913387"><ele>262.0</ele><time>2026-04-26T08:44:19.999Z</time></trkpt><trkpt lat="43.319944036389586" lon="11.934030241640396"><ele>262.0</ele><time>2026-04-26T08:44:20.999Z</time></trkpt><trkpt lat="43.31995155686638" lon="11.934193363652158"><ele>262.0</ele><time>2026-04-26T08:44:22.999Z</time></trkpt><trkpt lat="43.31994985516474" lon="11.934335622935976"><ele>262.0</ele><time>2026-04-26T08:44:24.999Z</time></trkpt><trkpt lat="43.31995330901492" lon="11.934464537771044"><ele>262.2</ele><time>2026-04-26T08:44:26.999Z</time></trkpt><trkpt lat="43.31995704568402" lon="11.934569114513726"><ele>262.4</ele><time>2026-04-26T08:44:28.999Z</time></trkpt><trkpt lat="43.31996118862507" lon="11.934688753327226"><ele>262.6</ele><time>2026-04-26T08:44:31.999Z</time></trkpt><trkpt lat="43.31997120674493" lon="11.934793833605701"><ele>262.8</ele><time>2026-04-26T08:44:33.999Z</time></trkpt><trkpt lat="43.319966715194376" lon="11.934886547622606"><ele>263.0</ele><time>2026-04-26T08:44:36.999Z</time></trkpt><trkpt lat="43.319843202011675" lon="11.934982413836691"><ele>263.0</ele><time>2026-04-26T08:44:39Z</time></trkpt><trkpt lat="43.31974553853827" lon="11.93503571984875"><ele>263.0</ele><time>2026-04-26T08:44:41Z</time></trkpt><trkpt lat="43.319643166568994" lon="11.935080640431808"><ele>263.0</ele><time>2026-04-26T08:44:43Z</time></trkpt><trkpt lat="43.31958285407848" lon="11.935110440999502"><ele>263.0</ele><time>2026-04-26T08:44:44Z</time></trkpt><trkpt lat="43.31951955906921" lon="11.935145430340574"><ele>263.0</ele><time>2026-04-26T08:44:45Z</time></trkpt><trkpt lat="43.31945280820647" lon="11.935179430925432"><ele>263.0</ele><time>2026-04-26T08:44:46Z</time></trkpt><trkpt lat="43.31938769039776" lon="11.935208097230314"><ele>263.1428571428571</ele><time>2026-04-26T08:44:47Z</time></trkpt><trkpt lat="43.31931393962809" lon="11.93523107099039"><ele>263.2857142857143</ele><time>2026-04-26T08:44:48Z</time></trkpt><trkpt lat="43.3192441844908" lon="11.935255003543578"><ele>263.42857142857144</ele><time>2026-04-26T08:44:49Z</time></trkpt><trkpt lat="43.31917224757568" lon="11.935277708785552"><ele>263.57142857142856</ele><time>2026-04-26T08:44:50Z</time></trkpt><trkpt lat="43.31909835540612" lon="11.935298234094072"><ele>263.7142857142857</ele><time>2026-04-26T08:44:51Z</time></trkpt><trkpt lat="43.31902894539138" lon="11.935321767197006"><ele>263.85714285714283</ele><time>2026-04-26T08:44:52Z</time></trkpt><trkpt lat="43.318958453600814" lon="11.935340575440168"><ele>264.0</ele><time>2026-04-26T08:44:53Z</time></trkpt><trkpt lat="43.31888835497128" lon="11.935364306932824"><ele>264.0</ele><time>2026-04-26T08:44:54Z</time></trkpt><trkpt lat="43.318814796938746" lon="11.935388534053663"><ele>264.0</ele><time>2026-04-26T08:44:55Z</time></trkpt><trkpt lat="43.318745006046456" lon="11.93540713489572"><ele>264.0</ele><time>2026-04-26T08:44:56Z</time></trkpt><trkpt lat="43.318674444189796" lon="11.935430612235898"><ele>264.0</ele><time>2026-04-26T08:44:57Z</time></trkpt><trkpt lat="43.31860343896237" lon="11.935454013891738"><ele>264.0</ele><time>2026-04-26T08:44:58Z</time></trkpt><trkpt lat="43.31850662138148" lon="11.935479014600222"><ele>264.0</ele><time>2026-04-26T08:44:59Z</time></trkpt><trkpt lat="43.318444488692876" lon="11.935506968766934"><ele>264.0</ele><time>2026-04-26T08:45:00Z</time></trkpt><trkpt lat="43.31838271875622" lon="11.93553653561896"><ele>264.0</ele><time>2026-04-26T08:45:01Z</time></trkpt><trkpt lat="43.31831763971117" lon="11.935571454818097"><ele>264.0</ele><time>2026-04-26T08:45:02Z</time></trkpt><trkpt lat="43.31825114010487" lon="11.935588898150993"><ele>264.0</ele><time>2026-04-26T08:45:03Z</time></trkpt><trkpt lat="43.31818375087598" lon="11.935613709309774"><ele>264.0</ele><time>2026-04-26T08:45:04Z</time></trkpt><trkpt lat="43.318118678578756" lon="11.93563896853286"><ele>264.0</ele><time>2026-04-26T08:45:05Z</time></trkpt><trkpt lat="43.318052799705924" lon="11.93566426163925"><ele>264.0</ele><time>2026-04-26T08:45:06Z</time></trkpt><trkpt lat="43.31798709268919" lon="11.93568655247061"><ele>264.57142857142856</ele><time>2026-04-26T08:45:07Z</time></trkpt><trkpt lat="43.317920457606576" lon="11.935709808818247"><ele>265.14285714285717</ele><time>2026-04-26T08:45:08Z</time></trkpt><trkpt lat="43.31785365392225" lon="11.935727725990604"><ele>265.7142857142857</ele><time>2026-04-26T08:45:09Z</time></trkpt><trkpt lat="43.31778553000561" lon="11.935747174122485"><ele>266.2857142857143</ele><time>2026-04-26T08:45:10Z</time></trkpt><trkpt lat="43.31771799633418" lon="11.93577225539825"><ele>266.85714285714283</ele><time>2026-04-26T08:45:11Z</time></trkpt><trkpt lat="43.31764988697635" lon="11.935776771130739"><ele>267.42857142857144</ele><time>2026-04-26T08:45:12Z</time></trkpt><trkpt lat="43.317581033788805" lon="11.935794617906213"><ele>268.0</ele><time>2026-04-26T08:45:13Z</time></trkpt><trkpt lat="43.31751358533458" lon="11.93581273030153"><ele>268.0</ele><time>2026-04-26T08:45:14Z</time></trkpt><trkpt lat="43.31744375938763" lon="11.935836876117841"><ele>268.0</ele><time>2026-04-26T08:45:15Z</time></trkpt><trkpt lat="43.3173829827322" lon="11.935878130547898"><ele>268.0</ele><time>2026-04-26T08:45:16Z</time></trkpt><trkpt lat="43.31731568609356" lon="11.935912593283096"><ele>268.0</ele><time>2026-04-26T08:45:17Z</time></trkpt><trkpt lat="43.31724167186272" lon="11.935952197313442"><ele>268.0</ele><time>2026-04-26T08:45:18Z</time></trkpt><trkpt lat="43.317172592791565" lon="11.93600235314715"><ele>268.0</ele><time>2026-04-26T08:45:19Z</time></trkpt><trkpt lat="43.31710583984139" lon="11.936056331522451"><ele>268.0</ele><time>2026-04-26T08:45:20Z</time></trkpt><trkpt lat="43.31704338954751" lon="11.936121439222234"><ele>268.0</ele><time>2026-04-26T08:45:21Z</time></trkpt><trkpt lat="43.31698964367398" lon="11.936200415082183"><ele>268.0</ele><time>2026-04-26T08:45:22Z</time></trkpt><trkpt lat="43.31694360684814" lon="11.936284757264756"><ele>268.0</ele><time>2026-04-26T08:45:23Z</time></trkpt><trkpt lat="43.316899347651" lon="11.936367423255058"><ele>268.0</ele><time>2026-04-26T08:45:24Z</time></trkpt><trkpt lat="43.316849236950624" lon="11.936443113584236"><ele>268.0</ele><time>2026-04-26T08:45:25Z</time></trkpt><trkpt lat="43.31679815050696" lon="11.936516032391301"><ele>268.0</ele><time>2026-04-26T08:45:25.999Z</time></trkpt><trkpt lat="43.31675022530026" lon="11.936594302370853"><ele>268.0</ele><time>2026-04-26T08:45:26.999Z</time></trkpt><trkpt lat="43.316702857689386" lon="11.936670925008112"><ele>268.0</ele><time>2026-04-26T08:45:27.999Z</time></trkpt><trkpt lat="43.31665401230451" lon="11.936746030524558"><ele>268.0</ele><time>2026-04-26T08:45:28.999Z</time></trkpt><trkpt lat="43.31660863243421" lon="11.936824654332298"><ele>268.0</ele><time>2026-04-26T08:45:29.999Z</time></trkpt><trkpt lat="43.31656188332121" lon="11.936900733093788"><ele>268.0</ele><time>2026-04-26T08:45:30.999Z</time></trkpt><trkpt lat="43.31650938093712" lon="11.936975668553027"><ele>268.0</ele><time>2026-04-26T08:45:31.999Z</time></trkpt><trkpt lat="43.31645273446704" lon="11.93704417975018"><ele>268.0</ele><time>2026-04-26T08:45:32.999Z</time></trkpt><trkpt lat="43.316388125490995" lon="11.937101866901454"><ele>268.2857142857143</ele><time>2026-04-26T08:45:33.999Z</time></trkpt><trkpt lat="43.31632440807573" lon="11.937146509313955"><ele>268.57142857142856</ele><time>2026-04-26T08:45:34.999Z</time></trkpt><trkpt lat="43.31626420185865" lon="11.937186388731954"><ele>268.85714285714283</ele><time>2026-04-26T08:45:35.999Z</time></trkpt><trkpt lat="43.31620378196458" lon="11.937225852696404"><ele>269.1428571428571</ele><time>2026-04-26T08:45:36.999Z</time></trkpt><trkpt lat="43.31614108073217" lon="11.937259592240899"><ele>269.4285714285714</ele><time>2026-04-26T08:45:37.999Z</time></trkpt><trkpt lat="43.31608017384893" lon="11.937297766187326"><ele>269.7142857142857</ele><time>2026-04-26T08:45:38.999Z</time></trkpt><trkpt lat="43.316017043052284" lon="11.937339272471238"><ele>270.0</ele><time>2026-04-26T08:45:39.999Z</time></trkpt><trkpt lat="43.31595275122548" lon="11.937382792156075"><ele>270.0</ele><time>2026-04-26T08:45:40.999Z</time></trkpt><trkpt lat="43.315886628121135" lon="11.937421323263246"><ele>270.0</ele><time>2026-04-26T08:45:41.999Z</time></trkpt><trkpt lat="43.31581961494342" lon="11.937465885399668"><ele>270.0</ele><time>2026-04-26T08:45:42.999Z</time></trkpt><trkpt lat="43.31575668976213" lon="11.937517134098334"><ele>270.0</ele><time>2026-04-26T08:45:43.999Z</time></trkpt><trkpt lat="43.31569492382455" lon="11.937566889888979"><ele>270.0</ele><time>2026-04-26T08:45:44.999Z</time></trkpt><trkpt lat="43.315632945805135" lon="11.937620026471423"><ele>270.0</ele><time>2026-04-26T08:45:45.999Z</time></trkpt><trkpt lat="43.31557478334715" lon="11.937685182668565"><ele>270.0</ele><time>2026-04-26T08:45:46.999Z</time></trkpt><trkpt lat="43.315513964386604" lon="11.937745760750246"><ele>270.57142857142856</ele><time>2026-04-26T08:45:47.999Z</time></trkpt><trkpt lat="43.315451488945264" lon="11.937800591946733"><ele>271.1428571428571</ele><time>2026-04-26T08:45:48.999Z</time></trkpt><trkpt lat="43.315390810134616" lon="11.937860592856143"><ele>271.7142857142857</ele><time>2026-04-26T08:45:49.999Z</time></trkpt><trkpt lat="43.315331253255565" lon="11.93792095817185"><ele>272.2857142857143</ele><time>2026-04-26T08:45:50.999Z</time></trkpt><trkpt lat="43.31526777530546" lon="11.937981420747223"><ele>272.8571428571429</ele><time>2026-04-26T08:45:51.999Z</time></trkpt><trkpt lat="43.3152069309354" lon="11.938036973511627"><ele>273.42857142857144</ele><time>2026-04-26T08:45:52.999Z</time></trkpt><trkpt lat="43.31514641382631" lon="11.938094024683673"><ele>274.0</ele><time>2026-04-26T08:45:53.999Z</time></trkpt><trkpt lat="43.31508693313336" lon="11.93815147071661"><ele>274.00000000000006</ele><time>2026-04-26T08:45:54.999Z</time></trkpt><trkpt lat="43.3150233879179" lon="11.938205311982976"><ele>274.0</ele><time>2026-04-26T08:45:55.999Z</time></trkpt><trkpt lat="43.314964113171705" lon="11.938263741841386"><ele>274.0</ele><time>2026-04-26T08:45:56.999Z</time></trkpt><trkpt lat="43.31490112075759" lon="11.938311619016725"><ele>274.0</ele><time>2026-04-26T08:45:57.999Z</time></trkpt><trkpt lat="43.314837471603155" lon="11.938357312669234"><ele>274.0</ele><time>2026-04-26T08:45:58.999Z</time></trkpt><trkpt lat="43.31476829394245" lon="11.938394719041463"><ele>274.00000000000006</ele><time>2026-04-26T08:45:59.999Z</time></trkpt><trkpt lat="43.31469715465782" lon="11.938417715689573"><ele>274.0</ele><time>2026-04-26T08:46:00.999Z</time></trkpt><trkpt lat="43.31462492236702" lon="11.938443876245891"><ele>274.28571428571433</ele><time>2026-04-26T08:46:01.999Z</time></trkpt><trkpt lat="43.314556687104925" lon="11.938466958689109"><ele>274.57142857142856</ele><time>2026-04-26T08:46:02.999Z</time></trkpt><trkpt lat="43.31448602575513" lon="11.938490008340807"><ele>274.8571428571429</ele><time>2026-04-26T08:46:03.999Z</time></trkpt><trkpt lat="43.314415410378665" lon="11.938517509382166"><ele>275.14285714285717</ele><time>2026-04-26T08:46:04.999Z</time></trkpt><trkpt lat="43.314345179552156" lon="11.938545745495382"><ele>275.42857142857144</ele><time>2026-04-26T08:46:05.999Z</time></trkpt><trkpt lat="43.31427731210631" lon="11.938577398156676"><ele>275.7142857142857</ele><time>2026-04-26T08:46:06.999Z</time></trkpt><trkpt lat="43.3142180104043" lon="11.938616575849986"><ele>276.0</ele><time>2026-04-26T08:46:07.999Z</time></trkpt><trkpt lat="43.31410526297557" lon="11.93869290299287"><ele>276.0</ele><time>2026-04-26T08:46:09.999Z</time></trkpt><trkpt lat="43.314039282200625" lon="11.938723829513258"><ele>276.0</ele><time>2026-04-26T08:46:10.999Z</time></trkpt><trkpt lat="43.31397728004956" lon="11.938741705359616"><ele>276.0</ele><time>2026-04-26T08:46:11.999Z</time></trkpt><trkpt lat="43.31386229064608" lon="11.938777124099843"><ele>276.0</ele><time>2026-04-26T08:46:13.999Z</time></trkpt><trkpt lat="43.31375083353458" lon="11.938806139852133"><ele>276.0</ele><time>2026-04-26T08:46:15.999Z</time></trkpt><trkpt lat="43.31365758310164" lon="11.938842711172118"><ele>276.40000000000003</ele><time>2026-04-26T08:46:17.999Z</time></trkpt><trkpt lat="43.3135564019746" lon="11.938813696282086"><ele>276.8</ele><time>2026-04-26T08:46:19.999Z</time></trkpt><trkpt lat="43.31344617353562" lon="11.93881528489991"><ele>277.20000000000005</ele><time>2026-04-26T08:46:21.999Z</time></trkpt><trkpt lat="43.31334613455915" lon="11.938834984291294"><ele>277.6</ele><time>2026-04-26T08:46:23.999Z</time></trkpt><trkpt lat="43.31327749566106" lon="11.938830987717246"><ele>278.0</ele><time>2026-04-26T08:46:25.999Z</time></trkpt><trkpt lat="43.313109729395805" lon="11.938792855963145"><ele>278.25</ele><time>2026-04-26T08:46:28.999Z</time></trkpt><trkpt lat="43.312997787266134" lon="11.93875103984465"><ele>278.5</ele><time>2026-04-26T08:46:30.999Z</time></trkpt><trkpt lat="43.312895261486254" lon="11.938680020664624"><ele>278.75</ele><time>2026-04-26T08:46:32.999Z</time></trkpt><trkpt lat="43.312792099764486" lon="11.938632110082288"><ele>279.0</ele><time>2026-04-26T08:46:34.999Z</time></trkpt><trkpt lat="43.31268272963943" lon="11.938589088568355"><ele>279.0</ele><time>2026-04-26T08:46:36.999Z</time></trkpt><trkpt lat="43.31257619755625" lon="11.938556984158089"><ele>279.0</ele><time>2026-04-26T08:46:38.999Z</time></trkpt><trkpt lat="43.31248414480827" lon="11.938531846912841"><ele>279.0</ele><time>2026-04-26T08:46:40.999Z</time></trkpt><trkpt lat="43.31240061089874" lon="11.938539853802078"><ele>279.0</ele><time>2026-04-26T08:46:42.999Z</time></trkpt><trkpt lat="43.31231613673933" lon="11.93851802751191"><ele>279.0</ele><time>2026-04-26T08:46:45Z</time></trkpt><trkpt lat="43.31222187511321" lon="11.938500042204707"><ele>280.0</ele><time>2026-04-26T08:46:47Z</time></trkpt><trkpt lat="43.31212746695656" lon="11.938489382271456"><ele>281.0</ele><time>2026-04-26T08:46:50Z</time></trkpt><trkpt lat="43.312059607232726" lon="11.938488176962732"><ele>282.0</ele><time>2026-04-26T08:46:51Z</time></trkpt><trkpt lat="43.31197665775544" lon="11.938479391707627"><ele>283.0</ele><time>2026-04-26T08:46:54Z</time></trkpt><trkpt lat="43.31189582053594" lon="11.93847062714288"><ele>284.0</ele><time>2026-04-26T08:46:56Z</time></trkpt><trkpt lat="43.311817111080344" lon="11.938468976476198"><ele>285.0</ele><time>2026-04-26T08:46:57Z</time></trkpt><trkpt lat="43.3117349399727" lon="11.938468601898984"><ele>285.0</ele><time>2026-04-26T08:46:59Z</time></trkpt><trkpt lat="43.311672945788814" lon="11.938484653688406"><ele>285.0</ele><time>2026-04-26T08:47:01Z</time></trkpt><trkpt lat="43.31159401728762" lon="11.938501323629273"><ele>285.0</ele><time>2026-04-26T08:47:05Z</time></trkpt><trkpt lat="43.31152263827007" lon="11.938527150348316"><ele>285.0</ele><time>2026-04-26T08:47:08Z</time></trkpt><trkpt lat="43.311447522417886" lon="11.938576452317012"><ele>285.0</ele><time>2026-04-26T08:47:11Z</time></trkpt><trkpt lat="43.31136257091968" lon="11.938595606856284"><ele>285.0</ele><time>2026-04-26T08:47:14Z</time></trkpt><trkpt lat="43.31129650306573" lon="11.938604092190296"><ele>285.8333333333333</ele><time>2026-04-26T08:47:16Z</time></trkpt><trkpt lat="43.31122065016828" lon="11.938627106001206"><ele>286.6666666666667</ele><time>2026-04-26T08:47:18Z</time></trkpt><trkpt lat="43.3111456142764" lon="11.938648885133547"><ele>287.5</ele><time>2026-04-26T08:47:21Z</time></trkpt><trkpt lat="43.31107564280846" lon="11.938675054802495"><ele>288.33333333333337</ele><time>2026-04-26T08:47:25Z</time></trkpt><trkpt lat="43.311003986696875" lon="11.938696913547144"><ele>289.1666666666667</ele><time>2026-04-26T08:47:27Z</time></trkpt><trkpt lat="43.31092329263419" lon="11.938725898343883"><ele>290.0</ele><time>2026-04-26T08:47:30Z</time></trkpt><trkpt lat="43.31084929545421" lon="11.938738175678962"><ele>290.0</ele><time>2026-04-26T08:47:32Z</time></trkpt><trkpt lat="43.310764402157595" lon="11.938761828957604"><ele>290.0</ele><time>2026-04-26T08:47:35Z</time></trkpt><trkpt lat="43.31068075814085" lon="11.938756985344586"><ele>290.0</ele><time>2026-04-26T08:47:38Z</time></trkpt><trkpt lat="43.31060676608621" lon="11.938756692040974"><ele>290.0</ele><time>2026-04-26T08:47:41Z</time></trkpt><trkpt lat="43.31053455346529" lon="11.938756217287546"><ele>290.0</ele><time>2026-04-26T08:47:45Z</time></trkpt><trkpt lat="43.31046605514686" lon="11.938774044802688"><ele>290.0</ele><time>2026-04-26T08:47:47.999Z</time></trkpt><trkpt lat="43.3103910370424" lon="11.938776234486161"><ele>291.2857142857143</ele><time>2026-04-26T08:47:50.999Z</time></trkpt><trkpt lat="43.310320619235945" lon="11.938799741717618"><ele>292.5714285714286</ele><time>2026-04-26T08:47:52.999Z</time></trkpt><trkpt lat="43.31023919802249" lon="11.93881768316122"><ele>293.8571428571429</ele><time>2026-04-26T08:47:55.999Z</time></trkpt><trkpt lat="43.31016772140067" lon="11.938795742635852"><ele>295.14285714285717</ele><time>2026-04-26T08:47:59.999Z</time></trkpt><trkpt lat="43.310098080153494" lon="11.93882311988653"><ele>296.42857142857144</ele><time>2026-04-26T08:48:03.999Z</time></trkpt><trkpt lat="43.31002831398251" lon="11.938872037023177"><ele>297.7142857142857</ele><time>2026-04-26T08:48:06.999Z</time></trkpt><trkpt lat="43.30997419611501" lon="11.93891852460917"><ele>299.0</ele><time>2026-04-26T08:48:09.999Z</time></trkpt><trkpt lat="43.309903740877715" lon="11.938958286875298"><ele>299.0</ele><time>2026-04-26T08:48:13.999Z</time></trkpt><trkpt lat="43.309834024568666" lon="11.938984013642864"><ele>299.0</ele><time>2026-04-26T08:48:16.999Z</time></trkpt><trkpt lat="43.30976599961211" lon="11.938987582011181"><ele>299.0</ele><time>2026-04-26T08:48:19.999Z</time></trkpt><trkpt lat="43.309694131629556" lon="11.938997612349928"><ele>299.0</ele><time>2026-04-26T08:48:22.999Z</time></trkpt><trkpt lat="43.30962200116212" lon="11.939010156909427"><ele>299.0</ele><time>2026-04-26T08:48:25.999Z</time></trkpt><trkpt lat="43.30955435240474" lon="11.939026805819108"><ele>299.0</ele><time>2026-04-26T08:48:28.999Z</time></trkpt><trkpt lat="43.30948399447751" lon="11.939044236842049"><ele>299.0</ele><time>2026-04-26T08:48:31.999Z</time></trkpt><trkpt lat="43.3094099493712" lon="11.93904596683772"><ele>301.0</ele><time>2026-04-26T08:48:35.999Z</time></trkpt><trkpt lat="43.309331575934436" lon="11.939044871484754"><ele>303.0</ele><time>2026-04-26T08:48:38.999Z</time></trkpt><trkpt lat="43.309256841236696" lon="11.939015885817128"><ele>305.0</ele><time>2026-04-26T08:48:41.999Z</time></trkpt><trkpt lat="43.309163227501855" lon="11.939004252982418"><ele>307.0</ele><time>2026-04-26T08:48:44.999Z</time></trkpt><trkpt lat="43.30907623990834" lon="11.938969001352621"><ele>309.0</ele><time>2026-04-26T08:48:48.999Z</time></trkpt><trkpt lat="43.309006155733215" lon="11.938959203074866"><ele>311.0</ele><time>2026-04-26T08:48:52Z</time></trkpt><trkpt lat="43.308945241940854" lon="11.938912131076878"><ele>313.1666666666667</ele><time>2026-04-26T08:48:56Z</time></trkpt><trkpt lat="43.30889355604931" lon="11.938852718936484"><ele>315.33333333333337</ele><time>2026-04-26T08:48:59Z</time></trkpt><trkpt lat="43.308810237881644" lon="11.938820553496805"><ele>317.5</ele><time>2026-04-26T08:49:02Z</time></trkpt><trkpt lat="43.308714479043495" lon="11.938792942272801"><ele>319.6666666666667</ele><time>2026-04-26T08:49:06Z</time></trkpt><trkpt lat="43.308646914855444" lon="11.938811906420204"><ele>321.8333333333333</ele><time>2026-04-26T08:49:10Z</time></trkpt><trkpt lat="43.308584623855964" lon="11.938851313594062"><ele>324.0</ele><time>2026-04-26T08:49:13Z</time></trkpt><trkpt lat="43.30853477007263" lon="11.938943233122153"><ele>324.0</ele><time>2026-04-26T08:49:17Z</time></trkpt><trkpt lat="43.30851459195697" lon="11.939032052271056"><ele>324.0</ele><time>2026-04-26T08:49:20Z</time></trkpt><trkpt lat="43.30847893082621" lon="11.93912453693595"><ele>324.0</ele><time>2026-04-26T08:49:24Z</time></trkpt><trkpt lat="43.30842030477546" lon="11.939175255899524"><ele>324.0</ele><time>2026-04-26T08:49:27Z</time></trkpt><trkpt lat="43.30835700000524" lon="11.939229357584514"><ele>324.0</ele><time>2026-04-26T08:49:29Z</time></trkpt><trkpt lat="43.308302717119304" lon="11.939313011267938"><ele>324.0</ele><time>2026-04-26T08:49:32Z</time></trkpt><trkpt lat="43.30825534545646" lon="11.939405486911298"><ele>324.0</ele><time>2026-04-26T08:49:35Z</time></trkpt><trkpt lat="43.308176863590894" lon="11.939451446530418"><ele>324.0</ele><time>2026-04-26T08:49:38Z</time></trkpt><trkpt lat="43.3081238795122" lon="11.939521010583672"><ele>324.0</ele><time>2026-04-26T08:49:41Z</time></trkpt><trkpt lat="43.308070519877226" lon="11.9395938185321"><ele>324.0</ele><time>2026-04-26T08:49:44Z</time></trkpt><trkpt lat="43.30799571033962" lon="11.939648733529337"><ele>324.0</ele><time>2026-04-26T08:49:47Z</time></trkpt><trkpt lat="43.30793546462062" lon="11.939675019826515"><ele>324.0</ele><time>2026-04-26T08:49:50Z</time></trkpt><trkpt lat="43.307864685064736" lon="11.939714161705922"><ele>324.0</ele><time>2026-04-26T08:49:53Z</time></trkpt><trkpt lat="43.307769877993096" lon="11.939768764599426"><ele>324.0</ele><time>2026-04-26T08:49:57Z</time></trkpt><trkpt lat="43.30769285018005" lon="11.939786048642373"><ele>324.0</ele><time>2026-04-26T08:50:00Z</time></trkpt><trkpt lat="43.30759771675326" lon="11.939839771789401"><ele>324.0</ele><time>2026-04-26T08:50:03Z</time></trkpt><trkpt lat="43.30751798069558" lon="11.939862829135704"><ele>324.0</ele><time>2026-04-26T08:50:06Z</time></trkpt><trkpt lat="43.30743874741128" lon="11.939862142013205"><ele>324.0</ele><time>2026-04-26T08:50:09Z</time></trkpt><trkpt lat="43.30736869956221" lon="11.939852841665692"><ele>324.0</ele><time>2026-04-26T08:50:12Z</time></trkpt><trkpt lat="43.307286737805434" lon="11.939811770582509"><ele>324.0</ele><time>2026-04-26T08:50:17Z</time></trkpt><trkpt lat="43.307216504266684" lon="11.939788357844975"><ele>324.0</ele><time>2026-04-26T08:50:19.999Z</time></trkpt><trkpt lat="43.307146377834236" lon="11.93978466139553"><ele>324.0</ele><time>2026-04-26T08:50:22.999Z</time></trkpt><trkpt lat="43.30706757571968" lon="11.939751822966356"><ele>324.0</ele><time>2026-04-26T08:50:26.999Z</time></trkpt><trkpt lat="43.307003203416905" lon="11.93971416292384"><ele>324.0</ele><time>2026-04-26T08:50:30.999Z</time></trkpt><trkpt lat="43.3069312333926" lon="11.939666997560794"><ele>325.1666666666667</ele><time>2026-04-26T08:50:34.999Z</time></trkpt><trkpt lat="43.30686631428662" lon="11.93961981774175"><ele>326.3333333333333</ele><time>2026-04-26T08:50:38.999Z</time></trkpt><trkpt lat="43.30680476518968" lon="11.939565729944846"><ele>327.5</ele><time>2026-04-26T08:50:40.999Z</time></trkpt><trkpt lat="43.30673204234895" lon="11.939529422077651"><ele>328.66666666666663</ele><time>2026-04-26T08:50:43.999Z</time></trkpt><trkpt lat="43.306668538998174" lon="11.939480626693355"><ele>329.8333333333333</ele><time>2026-04-26T08:50:46.999Z</time></trkpt><trkpt lat="43.30660712056959" lon="11.939456549780115"><ele>331.0</ele><time>2026-04-26T08:50:48.999Z</time></trkpt><trkpt lat="43.30651380305708" lon="11.939467436300069"><ele>331.0</ele><time>2026-04-26T08:50:51.999Z</time></trkpt><trkpt lat="43.30644552869406" lon="11.93948022037235"><ele>331.0</ele><time>2026-04-26T08:50:53.999Z</time></trkpt><trkpt lat="43.30638433208248" lon="11.939505489489934"><ele>331.0</ele><time>2026-04-26T08:50:58Z</time></trkpt><trkpt lat="43.30631244403956" lon="11.939552462846802"><ele>331.0</ele><time>2026-04-26T08:51:01Z</time></trkpt><trkpt lat="43.30623640338515" lon="11.939589666931116"><ele>331.0</ele><time>2026-04-26T08:51:05Z</time></trkpt><trkpt lat="43.30616733960194" lon="11.939601894652471"><ele>331.0</ele><time>2026-04-26T08:51:08Z</time></trkpt><trkpt lat="43.30609476316628" lon="11.93960137849379"><ele>331.0</ele><time>2026-04-26T08:51:12Z</time></trkpt><trkpt lat="43.30601679786483" lon="11.939609830906358"><ele>333.3333333333333</ele><time>2026-04-26T08:51:17Z</time></trkpt><trkpt lat="43.30593546607585" lon="11.939579496092144"><ele>335.66666666666663</ele><time>2026-04-26T08:51:22Z</time></trkpt><trkpt lat="43.305849960925464" lon="11.939557628402401"><ele>338.0</ele><time>2026-04-26T08:51:25Z</time></trkpt><trkpt lat="43.30577881264778" lon="11.939549177955435"><ele>340.3333333333333</ele><time>2026-04-26T08:51:28Z</time></trkpt><trkpt lat="43.30570235581279" lon="11.939526160242096"><ele>342.6666666666667</ele><time>2026-04-26T08:51:32Z</time></trkpt><trkpt lat="43.305638126199554" lon="11.939470866595716"><ele>345.0</ele><time>2026-04-26T08:51:36Z</time></trkpt><trkpt lat="43.305572377267616" lon="11.939429379298995"><ele>346.8333333333333</ele><time>2026-04-26T08:51:39Z</time></trkpt><trkpt lat="43.30552655441851" lon="11.939355696900325"><ele>348.6666666666667</ele><time>2026-04-26T08:51:42Z</time></trkpt><trkpt lat="43.3054652900294" lon="11.939293900154775"><ele>350.5</ele><time>2026-04-26T08:51:47Z</time></trkpt><trkpt lat="43.30540535080586" lon="11.939247036681522"><ele>352.33333333333337</ele><time>2026-04-26T08:51:51Z</time></trkpt><trkpt lat="43.30531968041114" lon="11.939194247094601"><ele>354.1666666666667</ele><time>2026-04-26T08:51:55Z</time></trkpt><trkpt lat="43.30524965732246" lon="11.939158319456048"><ele>356.0</ele><time>2026-04-26T08:51:58Z</time></trkpt><trkpt lat="43.305192764259324" lon="11.939103500593633"><ele>356.0</ele><time>2026-04-26T08:52:01Z</time></trkpt><trkpt lat="43.305095552919916" lon="11.93903323082813"><ele>356.0</ele><time>2026-04-26T08:52:04Z</time></trkpt><trkpt lat="43.30504049905152" lon="11.938984702705286"><ele>356.0</ele><time>2026-04-26T08:52:06Z</time></trkpt><trkpt lat="43.30498310682229" lon="11.938926953865801"><ele>356.0</ele><time>2026-04-26T08:52:08Z</time></trkpt><trkpt lat="43.304919235533895" lon="11.938893077163678"><ele>356.0</ele><time>2026-04-26T08:52:10Z</time></trkpt><trkpt lat="43.304908407616004" lon="11.938805549665831"><ele>356.0</ele><time>2026-04-26T08:52:13Z</time></trkpt><trkpt lat="43.30483139176782" lon="11.938796607919537"><ele>356.0</ele><time>2026-04-26T08:52:16Z</time></trkpt><trkpt lat="43.30476751090413" lon="11.938781716913399"><ele>356.0</ele><time>2026-04-26T08:52:20Z</time></trkpt><trkpt lat="43.30468891793578" lon="11.93872283297328"><ele>356.0</ele><time>2026-04-26T08:52:23Z</time></trkpt><trkpt lat="43.304623200957415" lon="11.938687935566781"><ele>356.0</ele><time>2026-04-26T08:52:25Z</time></trkpt><trkpt lat="43.304532729298785" lon="11.938664638416352"><ele>356.0</ele><time>2026-04-26T08:52:27Z</time></trkpt><trkpt lat="43.30443324908035" lon="11.93865323592326"><ele>356.0</ele><time>2026-04-26T08:52:28.999Z</time></trkpt><trkpt lat="43.30432338445441" lon="11.938636046453654"><ele>356.8</ele><time>2026-04-26T08:52:30.999Z</time></trkpt><trkpt lat="43.30422265728807" lon="11.938646751328681"><ele>357.6</ele><time>2026-04-26T08:52:32.999Z</time></trkpt><trkpt lat="43.304121811207835" lon="11.938658647905173"><ele>358.4</ele><time>2026-04-26T08:52:34.999Z</time></trkpt><trkpt lat="43.30403569973517" lon="11.938654967368723"><ele>359.2</ele><time>2026-04-26T08:52:36.999Z</time></trkpt><trkpt lat="43.303937802629044" lon="11.938589522073737"><ele>360.0</ele><time>2026-04-26T08:52:38.999Z</time></trkpt><trkpt lat="43.30388003997035" lon="11.938542862753359"><ele>357.4</ele><time>2026-04-26T08:52:39.999Z</time></trkpt><trkpt lat="43.303816068818435" lon="11.93850759981882"><ele>354.8</ele><time>2026-04-26T08:52:40.999Z</time></trkpt><trkpt lat="43.3037152665595" lon="11.938479226857526"><ele>352.20000000000005</ele><time>2026-04-26T08:52:42.999Z</time></trkpt><trkpt lat="43.30361550966953" lon="11.938476618860971"><ele>349.6</ele><time>2026-04-26T08:52:44.999Z</time></trkpt><trkpt lat="43.30350540735354" lon="11.938483965616944"><ele>347.0</ele><time>2026-04-26T08:52:46.999Z</time></trkpt><trkpt lat="43.303389627904316" lon="11.938484640248447"><ele>347.0</ele><time>2026-04-26T08:52:48.999Z</time></trkpt><trkpt lat="43.30332705717412" lon="11.938503935952854"><ele>347.0</ele><time>2026-04-26T08:52:49.999Z</time></trkpt><trkpt lat="43.30326912879926" lon="11.938545497581037"><ele>347.0</ele><time>2026-04-26T08:52:50.999Z</time></trkpt><trkpt lat="43.303209286949944" lon="11.938590608693207"><ele>347.0</ele><time>2026-04-26T08:52:51.999Z</time></trkpt><trkpt lat="43.30315482685968" lon="11.938634410998679"><ele>347.0</ele><time>2026-04-26T08:52:52.999Z</time></trkpt><trkpt lat="43.30306421227327" lon="11.938749993551667"><ele>347.0</ele><time>2026-04-26T08:52:54.999Z</time></trkpt><trkpt lat="43.30303852359278" lon="11.938835209457473"><ele>344.6666666666667</ele><time>2026-04-26T08:52:55.999Z</time></trkpt><trkpt lat="43.302994709819444" lon="11.938921160117404"><ele>342.33333333333337</ele><time>2026-04-26T08:52:56.999Z</time></trkpt><trkpt lat="43.30294553138945" lon="11.938988256496105"><ele>340.0</ele><time>2026-04-26T08:52:57.999Z</time></trkpt><trkpt lat="43.30288158718628" lon="11.939041597420859"><ele>337.6666666666667</ele><time>2026-04-26T08:52:58.999Z</time></trkpt><trkpt lat="43.3028134633976" lon="11.939088932246761"><ele>335.3333333333333</ele><time>2026-04-26T08:52:59.999Z</time></trkpt><trkpt lat="43.30273845122677" lon="11.939112451758339"><ele>333.0</ele><time>2026-04-26T08:53:00.999Z</time></trkpt><trkpt lat="43.30265778599123" lon="11.939108412766714"><ele>333.0</ele><time>2026-04-26T08:53:02Z</time></trkpt><trkpt lat="43.30258120985868" lon="11.93908342613023"><ele>333.0</ele><time>2026-04-26T08:53:03Z</time></trkpt><trkpt lat="43.302512734237816" lon="11.939039888747912"><ele>333.0</ele><time>2026-04-26T08:53:04Z</time></trkpt><trkpt lat="43.30244348131063" lon="11.938998702744113"><ele>333.0</ele><time>2026-04-26T08:53:05Z</time></trkpt><trkpt lat="43.302324304071604" lon="11.938965067221496"><ele>333.0</ele><time>2026-04-26T08:53:07Z</time></trkpt><trkpt lat="43.302220424133544" lon="11.93896737389576"><ele>331.1666666666667</ele><time>2026-04-26T08:53:09Z</time></trkpt><trkpt lat="43.3020871319554" lon="11.938990164505961"><ele>329.3333333333333</ele><time>2026-04-26T08:53:11Z</time></trkpt><trkpt lat="43.30202637026577" lon="11.939030669279969"><ele>327.5</ele><time>2026-04-26T08:53:12Z</time></trkpt><trkpt lat="43.301961467796524" lon="11.939084937511986"><ele>325.66666666666663</ele><time>2026-04-26T08:53:13Z</time></trkpt><trkpt lat="43.30191127713796" lon="11.939138335436322"><ele>323.8333333333333</ele><time>2026-04-26T08:53:14Z</time></trkpt><trkpt lat="43.30185323657913" lon="11.939200551692785"><ele>322.0</ele><time>2026-04-26T08:53:15Z</time></trkpt><trkpt lat="43.301792728973254" lon="11.939279933287194"><ele>322.0</ele><time>2026-04-26T08:53:16Z</time></trkpt><trkpt lat="43.30171915394007" lon="11.939337555493616"><ele>322.0</ele><time>2026-04-26T08:53:17Z</time></trkpt><trkpt lat="43.30166850347371" lon="11.939427341770871"><ele>322.0</ele><time>2026-04-26T08:53:18Z</time></trkpt><trkpt lat="43.30160740734575" lon="11.939496986033515"><ele>322.0</ele><time>2026-04-26T08:53:19Z</time></trkpt><trkpt lat="43.30155111776761" lon="11.939573404635778"><ele>322.0</ele><time>2026-04-26T08:53:20Z</time></trkpt><trkpt lat="43.3014974408179" lon="11.939656323390004"><ele>322.0</ele><time>2026-04-26T08:53:21Z</time></trkpt><trkpt lat="43.301443750487635" lon="11.939741528720743"><ele>319.8</ele><time>2026-04-26T08:53:22Z</time></trkpt><trkpt lat="43.30139149096314" lon="11.939829298079326"><ele>317.6</ele><time>2026-04-26T08:53:23Z</time></trkpt><trkpt lat="43.30134367535146" lon="11.939920363272089"><ele>315.40000000000003</ele><time>2026-04-26T08:53:24Z</time></trkpt><trkpt lat="43.30129059318387" lon="11.940006949870495"><ele>313.20000000000005</ele><time>2026-04-26T08:53:25Z</time></trkpt><trkpt lat="43.30119050485358" lon="11.940162477495976"><ele>311.0</ele><time>2026-04-26T08:53:27Z</time></trkpt><trkpt lat="43.30112343204165" lon="11.940285146553181"><ele>311.0</ele><time>2026-04-26T08:53:29Z</time></trkpt><trkpt lat="43.30106553427378" lon="11.940335919515181"><ele>311.0</ele><time>2026-04-26T08:53:31Z</time></trkpt><trkpt lat="43.30099307566998" lon="11.940391194664873"><ele>311.0</ele><time>2026-04-26T08:53:34Z</time></trkpt><trkpt lat="43.30093053544921" lon="11.94042971854364"><ele>311.0</ele><time>2026-04-26T08:53:36Z</time></trkpt><trkpt lat="43.30084725280956" lon="11.940454754580767"><ele>311.0</ele><time>2026-04-26T08:53:38Z</time></trkpt><trkpt lat="43.300757533480365" lon="11.940519935646178"><ele>311.0</ele><time>2026-04-26T08:53:40Z</time></trkpt><trkpt lat="43.30066460959387" lon="11.940530463800902"><ele>311.0</ele><time>2026-04-26T08:53:42Z</time></trkpt><trkpt lat="43.3005892741652" lon="11.94054247870848"><ele>311.0</ele><time>2026-04-26T08:53:44Z</time></trkpt><trkpt lat="43.30051711789778" lon="11.940563454414203"><ele>311.0</ele><time>2026-04-26T08:53:46Z</time></trkpt><trkpt lat="43.300428062687864" lon="11.940599870693235"><ele>311.0</ele><time>2026-04-26T08:53:48Z</time></trkpt><trkpt lat="43.30033284480326" lon="11.940631164086629"><ele>311.0</ele><time>2026-04-26T08:53:50Z</time></trkpt><trkpt lat="43.30022674364852" lon="11.940677964357505"><ele>310.25</ele><time>2026-04-26T08:53:52Z</time></trkpt><trkpt lat="43.30012026284235" lon="11.940731544902464"><ele>309.5</ele><time>2026-04-26T08:53:54Z</time></trkpt><trkpt lat="43.30000964043198" lon="11.940793546453268"><ele>308.75</ele><time>2026-04-26T08:53:56Z</time></trkpt><trkpt lat="43.299897943416525" lon="11.94087594603418"><ele>308.0</ele><time>2026-04-26T08:53:58Z</time></trkpt><trkpt lat="43.29979391166069" lon="11.940968163182031"><ele>304.4</ele><time>2026-04-26T08:54:00Z</time></trkpt><trkpt lat="43.29974281720065" lon="11.941018915603019"><ele>300.8</ele><time>2026-04-26T08:54:01Z</time></trkpt><trkpt lat="43.29964782349357" lon="11.941128894080567"><ele>297.2</ele><time>2026-04-26T08:54:03Z</time></trkpt><trkpt lat="43.299557826903815" lon="11.941238283736931"><ele>293.6</ele><time>2026-04-26T08:54:05Z</time></trkpt><trkpt lat="43.29951374696795" lon="11.941302697140232"><ele>290.0</ele><time>2026-04-26T08:54:06Z</time></trkpt><trkpt lat="43.299431114306465" lon="11.941432440359069"><ele>290.0</ele><time>2026-04-26T08:54:08Z</time></trkpt><trkpt lat="43.299385219954125" lon="11.941496674994468"><ele>290.0</ele><time>2026-04-26T08:54:09Z</time></trkpt><trkpt lat="43.29933824673056" lon="11.941557379200521"><ele>290.0</ele><time>2026-04-26T08:54:10Z</time></trkpt><trkpt lat="43.29927363630948" lon="11.941646174486937"><ele>290.0</ele><time>2026-04-26T08:54:12Z</time></trkpt><trkpt lat="43.29922889892255" lon="11.94175264856822"><ele>290.0</ele><time>2026-04-26T08:54:14Z</time></trkpt><trkpt lat="43.29918545850937" lon="11.941875754817945"><ele>290.0</ele><time>2026-04-26T08:54:16Z</time></trkpt><trkpt lat="43.29916391886874" lon="11.94198651443471"><ele>291.0</ele><time>2026-04-26T08:54:18Z</time></trkpt><trkpt lat="43.299156201597604" lon="11.942098304824547"><ele>292.0</ele><time>2026-04-26T08:54:20Z</time></trkpt><trkpt lat="43.2991068233507" lon="11.942192602553586"><ele>293.0</ele><time>2026-04-26T08:54:22Z</time></trkpt><trkpt lat="43.29902024349282" lon="11.942207809167918"><ele>294.0</ele><time>2026-04-26T08:54:24Z</time></trkpt><trkpt lat="43.29893687211556" lon="11.94215017161158"><ele>295.0</ele><time>2026-04-26T08:54:26Z</time></trkpt><trkpt lat="43.29885411617434" lon="11.942121303701253"><ele>296.0</ele><time>2026-04-26T08:54:28Z</time></trkpt><trkpt lat="43.298754843455846" lon="11.942151702609127"><ele>295.40000000000003</ele><time>2026-04-26T08:54:30Z</time></trkpt><trkpt lat="43.29869257107279" lon="11.942257771048665"><ele>294.8</ele><time>2026-04-26T08:54:32Z</time></trkpt><trkpt lat="43.298636471356524" lon="11.942385335819361"><ele>294.20000000000005</ele><time>2026-04-26T08:54:34Z</time></trkpt><trkpt lat="43.2985757781385" lon="11.94251824126455"><ele>293.6</ele><time>2026-04-26T08:54:36Z</time></trkpt><trkpt lat="43.298522525217976" lon="11.94265664112922"><ele>293.0</ele><time>2026-04-26T08:54:38Z</time></trkpt><trkpt lat="43.29845901067617" lon="11.942797712017809"><ele>292.99999999999994</ele><time>2026-04-26T08:54:39.999Z</time></trkpt><trkpt lat="43.29842526599513" lon="11.942877524226226"><ele>293.0</ele><time>2026-04-26T08:54:40.999Z</time></trkpt><trkpt lat="43.29838818582561" lon="11.942958834104196"><ele>293.0</ele><time>2026-04-26T08:54:41.999Z</time></trkpt><trkpt lat="43.29834815039077" lon="11.943043126293267"><ele>293.0</ele><time>2026-04-26T08:54:42.999Z</time></trkpt><trkpt lat="43.29830823742916" lon="11.943116885706969"><ele>293.0</ele><time>2026-04-26T08:54:43.999Z</time></trkpt><trkpt lat="43.298261000565404" lon="11.943206657264588"><ele>292.99999999999994</ele><time>2026-04-26T08:54:44.999Z</time></trkpt><trkpt lat="43.298221288007745" lon="11.943282007973059"><ele>293.0</ele><time>2026-04-26T08:54:45.999Z</time></trkpt><trkpt lat="43.29817763618684" lon="11.94335929843623"><ele>292.83333333333337</ele><time>2026-04-26T08:54:46.999Z</time></trkpt><trkpt lat="43.29812112656718" lon="11.943424819200242"><ele>292.6666666666667</ele><time>2026-04-26T08:54:47.999Z</time></trkpt><trkpt lat="43.298057590750766" lon="11.943481193396535"><ele>292.5</ele><time>2026-04-26T08:54:48.999Z</time></trkpt><trkpt lat="43.29798667842342" lon="11.94352641393812"><ele>292.3333333333333</ele><time>2026-04-26T08:54:49.999Z</time></trkpt><trkpt lat="43.29791951782042" lon="11.943577852724944"><ele>292.16666666666663</ele><time>2026-04-26T08:54:50.999Z</time></trkpt><trkpt lat="43.29785186301674" lon="11.943634735785738"><ele>292.0</ele><time>2026-04-26T08:54:51.999Z</time></trkpt><trkpt lat="43.29778539161142" lon="11.943694017970108"><ele>292.0</ele><time>2026-04-26T08:54:52.999Z</time></trkpt><trkpt lat="43.297719922026886" lon="11.943755077474357"><ele>292.0</ele><time>2026-04-26T08:54:53.999Z</time></trkpt><trkpt lat="43.2976556380028" lon="11.943815883972995"><ele>292.0</ele><time>2026-04-26T08:54:54.999Z</time></trkpt><trkpt lat="43.29758934256504" lon="11.943877677565263"><ele>292.0</ele><time>2026-04-26T08:54:55.999Z</time></trkpt><trkpt lat="43.29751996492645" lon="11.943937190166347"><ele>292.0</ele><time>2026-04-26T08:54:56.999Z</time></trkpt><trkpt lat="43.29745345853256" lon="11.94399321587131"><ele>292.0</ele><time>2026-04-26T08:54:57.999Z</time></trkpt><trkpt lat="43.29738471758176" lon="11.944051769453207"><ele>292.0</ele><time>2026-04-26T08:54:58.999Z</time></trkpt><trkpt lat="43.29731658541159" lon="11.944107838113883"><ele>292.0</ele><time>2026-04-26T08:54:59.999Z</time></trkpt><trkpt lat="43.29724382405861" lon="11.944148144564766"><ele>292.0</ele><time>2026-04-26T08:55:00.999Z</time></trkpt><trkpt lat="43.29716533358907" lon="11.944189253480637"><ele>292.0</ele><time>2026-04-26T08:55:01.999Z</time></trkpt><trkpt lat="43.297087407596095" lon="11.944225437101538"><ele>292.0</ele><time>2026-04-26T08:55:02.999Z</time></trkpt><trkpt lat="43.29700536914773" lon="11.944268181722618"><ele>292.0</ele><time>2026-04-26T08:55:03.999Z</time></trkpt><trkpt lat="43.2969270094546" lon="11.944320412442762"><ele>292.0</ele><time>2026-04-26T08:55:04.999Z</time></trkpt><trkpt lat="43.296851093893345" lon="11.944375551731731"><ele>292.0</ele><time>2026-04-26T08:55:05.999Z</time></trkpt><trkpt lat="43.296781519256484" lon="11.944433074948044"><ele>292.0</ele><time>2026-04-26T08:55:06.999Z</time></trkpt><trkpt lat="43.29670918522328" lon="11.944480698856855"><ele>292.0</ele><time>2026-04-26T08:55:08Z</time></trkpt><trkpt lat="43.296645445580474" lon="11.944528902948115"><ele>292.0</ele><time>2026-04-26T08:55:09Z</time></trkpt><trkpt lat="43.29658770003605" lon="11.944598845987079"><ele>292.0</ele><time>2026-04-26T08:55:10Z</time></trkpt><trkpt lat="43.2965440007477" lon="11.944680578841803"><ele>292.0</ele><time>2026-04-26T08:55:11Z</time></trkpt><trkpt lat="43.2965149380204" lon="11.944778349312783"><ele>292.0</ele><time>2026-04-26T08:55:12Z</time></trkpt><trkpt lat="43.296493437177205" lon="11.944873592797206"><ele>292.0</ele><time>2026-04-26T08:55:13Z</time></trkpt><trkpt lat="43.296472059691254" lon="11.944962457204351"><ele>292.0</ele><time>2026-04-26T08:55:14Z</time></trkpt><trkpt lat="43.29645297020698" lon="11.945051956369236"><ele>292.0</ele><time>2026-04-26T08:55:15Z</time></trkpt><trkpt lat="43.296436198839004" lon="11.945138490380845"><ele>292.0</ele><time>2026-04-26T08:55:16Z</time></trkpt><trkpt lat="43.296425308829996" lon="11.945227153458559"><ele>292.0</ele><time>2026-04-26T08:55:17Z</time></trkpt><trkpt lat="43.296420069643375" lon="11.945313540940138"><ele>290.1428571428571</ele><time>2026-04-26T08:55:18Z</time></trkpt><trkpt lat="43.296405690802544" lon="11.945404779243342"><ele>288.2857142857143</ele><time>2026-04-26T08:55:19Z</time></trkpt><trkpt lat="43.29640439591108" lon="11.94549882502982"><ele>286.42857142857144</ele><time>2026-04-26T08:55:20Z</time></trkpt><trkpt lat="43.29640520668295" lon="11.945593480450313"><ele>284.57142857142856</ele><time>2026-04-26T08:55:21Z</time></trkpt><trkpt lat="43.29639955475454" lon="11.945691159413025"><ele>282.7142857142857</ele><time>2026-04-26T08:55:22Z</time></trkpt><trkpt lat="43.29639061619703" lon="11.945788169671111"><ele>280.85714285714283</ele><time>2026-04-26T08:55:23Z</time></trkpt><trkpt lat="43.29637871738672" lon="11.945884777556136"><ele>279.0</ele><time>2026-04-26T08:55:24Z</time></trkpt><trkpt lat="43.296362384226335" lon="11.945977693438051"><ele>278.99999999999994</ele><time>2026-04-26T08:55:25Z</time></trkpt><trkpt lat="43.29634234195971" lon="11.946070184517437"><ele>279.0</ele><time>2026-04-26T08:55:26Z</time></trkpt><trkpt lat="43.2963203600186" lon="11.946160927433153"><ele>279.0</ele><time>2026-04-26T08:55:27Z</time></trkpt><trkpt lat="43.296296769397564" lon="11.946249164889835"><ele>279.0</ele><time>2026-04-26T08:55:28Z</time></trkpt><trkpt lat="43.296268730929775" lon="11.94633409693164"><ele>279.0</ele><time>2026-04-26T08:55:29Z</time></trkpt><trkpt lat="43.296245611567876" lon="11.946419944695384"><ele>278.99999999999994</ele><time>2026-04-26T08:55:30Z</time></trkpt><trkpt lat="43.29622325897926" lon="11.9465106169754"><ele>279.0</ele><time>2026-04-26T08:55:31Z</time></trkpt><trkpt lat="43.29619707450641" lon="11.946598053988977"><ele>279.2</ele><time>2026-04-26T08:55:32Z</time></trkpt><trkpt lat="43.29615513486018" lon="11.946740228155942"><ele>279.4</ele><time>2026-04-26T08:55:34Z</time></trkpt><trkpt lat="43.296113056553175" lon="11.946829245412946"><ele>279.6</ele><time>2026-04-26T08:55:36Z</time></trkpt><trkpt lat="43.29606917160925" lon="11.946930934225731"><ele>279.8</ele><time>2026-04-26T08:55:39Z</time></trkpt><trkpt lat="43.29604656925007" lon="11.94703511774451"><ele>280.0</ele><time>2026-04-26T08:55:41Z</time></trkpt><trkpt lat="43.29601171167259" lon="11.947166999018988"><ele>280.0</ele><time>2026-04-26T08:55:43Z</time></trkpt><trkpt lat="43.29596879476455" lon="11.94733191406671"><ele>280.0</ele><time>2026-04-26T08:55:45Z</time></trkpt><trkpt lat="43.29594662702607" lon="11.94741682812159"><ele>280.0</ele><time>2026-04-26T08:55:46Z</time></trkpt><trkpt lat="43.29592121820006" lon="11.947500982533953"><ele>280.0</ele><time>2026-04-26T08:55:47Z</time></trkpt><trkpt lat="43.295891361072094" lon="11.947583022814191"><ele>280.0</ele><time>2026-04-26T08:55:48Z</time></trkpt><trkpt lat="43.29585608998855" lon="11.947664795693644"><ele>280.0</ele><time>2026-04-26T08:55:49Z</time></trkpt><trkpt lat="43.29581500313657" lon="11.947736047405204"><ele>279.6</ele><time>2026-04-26T08:55:50Z</time></trkpt><trkpt lat="43.29577166415895" lon="11.947805069642975"><ele>279.2</ele><time>2026-04-26T08:55:51Z</time></trkpt><trkpt lat="43.295701368479556" lon="11.947942997939487"><ele>278.8</ele><time>2026-04-26T08:55:53Z</time></trkpt><trkpt lat="43.29561821746621" lon="11.948060316281758"><ele>278.4</ele><time>2026-04-26T08:55:55Z</time></trkpt><trkpt lat="43.29553250519727" lon="11.948174293708561"><ele>278.0</ele><time>2026-04-26T08:55:57Z</time></trkpt><trkpt lat="43.29548023542525" lon="11.948223769422825"><ele>278.0</ele><time>2026-04-26T08:55:58Z</time></trkpt><trkpt lat="43.29542039638196" lon="11.94826203329795"><ele>278.0</ele><time>2026-04-26T08:55:59Z</time></trkpt><trkpt lat="43.2953549290708" lon="11.94829118366221"><ele>278.0</ele><time>2026-04-26T08:56:00Z</time></trkpt><trkpt lat="43.29529497091241" lon="11.948324141542725"><ele>278.0</ele><time>2026-04-26T08:56:01Z</time></trkpt><trkpt lat="43.29522751889021" lon="11.948360014804413"><ele>278.0</ele><time>2026-04-26T08:56:02Z</time></trkpt><trkpt lat="43.29516283554526" lon="11.948402687953225"><ele>278.0</ele><time>2026-04-26T08:56:03Z</time></trkpt><trkpt lat="43.29509960336853" lon="11.948434208916169"><ele>278.0</ele><time>2026-04-26T08:56:04Z</time></trkpt><trkpt lat="43.29503790779737" lon="11.948467814101507"><ele>278.0</ele><time>2026-04-26T08:56:05Z</time></trkpt><trkpt lat="43.29497478884707" lon="11.94850478553025"><ele>278.0</ele><time>2026-04-26T08:56:06Z</time></trkpt><trkpt lat="43.294914940225716" lon="11.948541754617182"><ele>278.0</ele><time>2026-04-26T08:56:07Z</time></trkpt><trkpt lat="43.294849005520256" lon="11.948586843595749"><ele>278.0</ele><time>2026-04-26T08:56:08Z</time></trkpt><trkpt lat="43.29473476937459" lon="11.948668916137015"><ele>278.0</ele><time>2026-04-26T08:56:10Z</time></trkpt><trkpt lat="43.294674795441864" lon="11.948704519383117"><ele>278.0</ele><time>2026-04-26T08:56:11Z</time></trkpt><trkpt lat="43.29461468535647" lon="11.94874518458285"><ele>278.0</ele><time>2026-04-26T08:56:12Z</time></trkpt><trkpt lat="43.294553304830224" lon="11.948780232522603"><ele>278.0</ele><time>2026-04-26T08:56:13Z</time></trkpt><trkpt lat="43.294489533027104" lon="11.948813519192914"><ele>278.0</ele><time>2026-04-26T08:56:14Z</time></trkpt><trkpt lat="43.29442311301939" lon="11.948844626270269"><ele>278.0</ele><time>2026-04-26T08:56:15Z</time></trkpt><trkpt lat="43.29435563113772" lon="11.948868425886502"><ele>278.0</ele><time>2026-04-26T08:56:16Z</time></trkpt><trkpt lat="43.29428790191237" lon="11.94889055279916"><ele>278.0</ele><time>2026-04-26T08:56:17Z</time></trkpt><trkpt lat="43.29422305306887" lon="11.948901089330315"><ele>278.0</ele><time>2026-04-26T08:56:18Z</time></trkpt><trkpt lat="43.29415653520208" lon="11.948910005515474"><ele>278.0</ele><time>2026-04-26T08:56:19Z</time></trkpt><trkpt lat="43.294091469035344" lon="11.948915155576227"><ele>278.0</ele><time>2026-04-26T08:56:20Z</time></trkpt><trkpt lat="43.294025861634886" lon="11.948920023803112"><ele>278.0</ele><time>2026-04-26T08:56:21Z</time></trkpt><trkpt lat="43.293957365675624" lon="11.948919290785726"><ele>278.0</ele><time>2026-04-26T08:56:22Z</time></trkpt><trkpt lat="43.29389285959682" lon="11.948920815674489"><ele>278.0</ele><time>2026-04-26T08:56:23Z</time></trkpt><trkpt lat="43.29377503142336" lon="11.948918392199804"><ele>278.0</ele><time>2026-04-26T08:56:25Z</time></trkpt><trkpt lat="43.29365094229708" lon="11.948910118088893"><ele>278.57142857142856</ele><time>2026-04-26T08:56:27Z</time></trkpt><trkpt lat="43.29358602949842" lon="11.948899780097225"><ele>279.14285714285717</ele><time>2026-04-26T08:56:28Z</time></trkpt><trkpt lat="43.293522831650435" lon="11.948887236655848"><ele>279.7142857142857</ele><time>2026-04-26T08:56:29Z</time></trkpt><trkpt lat="43.29345736392221" lon="11.948863063426952"><ele>280.2857142857143</ele><time>2026-04-26T08:56:30Z</time></trkpt><trkpt lat="43.29339591382963" lon="11.948830690233324"><ele>280.85714285714283</ele><time>2026-04-26T08:56:31Z</time></trkpt><trkpt lat="43.29333326557686" lon="11.94881332589592"><ele>281.42857142857144</ele><time>2026-04-26T08:56:32Z</time></trkpt><trkpt lat="43.29327058337906" lon="11.948786560389676"><ele>282.0</ele><time>2026-04-26T08:56:33Z</time></trkpt><trkpt lat="43.293208497989326" lon="11.94875437780558"><ele>282.0</ele><time>2026-04-26T08:56:34Z</time></trkpt><trkpt lat="43.29314483268402" lon="11.948726090930531"><ele>282.0</ele><time>2026-04-26T08:56:35Z</time></trkpt><trkpt lat="43.293077468407276" lon="11.948696800700775"><ele>282.0</ele><time>2026-04-26T08:56:36Z</time></trkpt><trkpt lat="43.293011145060234" lon="11.948671665206065"><ele>282.0</ele><time>2026-04-26T08:56:37Z</time></trkpt><trkpt lat="43.29289380269815" lon="11.948645348631679"><ele>282.0</ele><time>2026-04-26T08:56:39Z</time></trkpt><trkpt lat="43.29276928005411" lon="11.948620979498724"><ele>282.0</ele><time>2026-04-26T08:56:41Z</time></trkpt><trkpt lat="43.292650169487274" lon="11.94859465027496"><ele>282.0</ele><time>2026-04-26T08:56:43Z</time></trkpt><trkpt lat="43.29253200748422" lon="11.9485607082608"><ele>282.0</ele><time>2026-04-26T08:56:45Z</time></trkpt><trkpt lat="43.29241080553443" lon="11.948548649376614"><ele>282.0</ele><time>2026-04-26T08:56:47Z</time></trkpt><trkpt lat="43.29228646336389" lon="11.948568124800985"><ele>281.1666666666667</ele><time>2026-04-26T08:56:49Z</time></trkpt><trkpt lat="43.29222474119443" lon="11.948589611032295"><ele>280.3333333333333</ele><time>2026-04-26T08:56:50Z</time></trkpt><trkpt lat="43.29216228269532" lon="11.948611292673771"><ele>279.5</ele><time>2026-04-26T08:56:51Z</time></trkpt><trkpt lat="43.29209839502339" lon="11.948647652890713"><ele>278.66666666666663</ele><time>2026-04-26T08:56:52Z</time></trkpt><trkpt lat="43.292039729260964" lon="11.948680448668467"><ele>277.8333333333333</ele><time>2026-04-26T08:56:53Z</time></trkpt><trkpt lat="43.291977002558205" lon="11.948714266083769"><ele>277.0</ele><time>2026-04-26T08:56:54Z</time></trkpt><trkpt lat="43.291860005617465" lon="11.94876337041799"><ele>277.0</ele><time>2026-04-26T08:56:56Z</time></trkpt><trkpt lat="43.2917495426332" lon="11.94880312772144"><ele>277.0</ele><time>2026-04-26T08:56:58Z</time></trkpt><trkpt lat="43.29164531014074" lon="11.948841992696167"><ele>277.0</ele><time>2026-04-26T08:57:00Z</time></trkpt><trkpt lat="43.291535416134664" lon="11.948893908293842"><ele>277.0</ele><time>2026-04-26T08:57:01.999Z</time></trkpt><trkpt lat="43.29142621037968" lon="11.948940421295962"><ele>276.25</ele><time>2026-04-26T08:57:03.999Z</time></trkpt><trkpt lat="43.29132290888654" lon="11.949001547718776"><ele>275.5</ele><time>2026-04-26T08:57:05.999Z</time></trkpt><trkpt lat="43.29121991399772" lon="11.949066508928958"><ele>274.75</ele><time>2026-04-26T08:57:07.999Z</time></trkpt><trkpt lat="43.29111622571297" lon="11.949132796776688"><ele>274.0</ele><time>2026-04-26T08:57:09.999Z</time></trkpt><trkpt lat="43.291010236790235" lon="11.949201641317908"><ele>276.2</ele><time>2026-04-26T08:57:11.999Z</time></trkpt><trkpt lat="43.29090540356679" lon="11.949269948602984"><ele>278.4</ele><time>2026-04-26T08:57:14Z</time></trkpt><trkpt lat="43.29081070770554" lon="11.949332984751779"><ele>280.6</ele><time>2026-04-26T08:57:16Z</time></trkpt><trkpt lat="43.29074006007497" lon="11.949376797520436"><ele>282.8</ele><time>2026-04-26T08:57:18Z</time></trkpt><trkpt lat="43.29067442967958" lon="11.949423190081717"><ele>285.0</ele><time>2026-04-26T08:57:21Z</time></trkpt><trkpt lat="43.29060317451302" lon="11.949470730090676"><ele>284.3333333333333</ele><time>2026-04-26T08:57:25Z</time></trkpt><trkpt lat="43.290531806893895" lon="11.949465521038311"><ele>283.6666666666667</ele><time>2026-04-26T08:57:28Z</time></trkpt><trkpt lat="43.29050819007565" lon="11.949331243028501"><ele>283.0</ele><time>2026-04-26T08:57:31Z</time></trkpt><trkpt lat="43.29055183707306" lon="11.949210456593567"><ele>282.33333333333337</ele><time>2026-04-26T08:57:33Z</time></trkpt><trkpt lat="43.29062375770757" lon="11.949085980454571"><ele>281.6666666666667</ele><time>2026-04-26T08:57:35Z</time></trkpt><trkpt lat="43.29067936146033" lon="11.949045348160997"><ele>281.0</ele><time>2026-04-26T08:57:36Z</time></trkpt><trkpt lat="43.290774010540844" lon="11.948935067389389"><ele>280.00000000000006</ele><time>2026-04-26T08:57:38Z</time></trkpt><trkpt lat="43.29082621795418" lon="11.948878231358165"><ele>279.0</ele><time>2026-04-26T08:57:39Z</time></trkpt><trkpt lat="43.29087846307314" lon="11.948821354274182"><ele>278.0</ele><time>2026-04-26T08:57:40Z</time></trkpt><trkpt lat="43.29093155541353" lon="11.948762365165466"><ele>277.0</ele><time>2026-04-26T08:57:41Z</time></trkpt><trkpt lat="43.29098527519126" lon="11.948701401731753"><ele>276.0</ele><time>2026-04-26T08:57:42Z</time></trkpt><trkpt lat="43.29103954842911" lon="11.948637765413084"><ele>275.00000000000006</ele><time>2026-04-26T08:57:43Z</time></trkpt><trkpt lat="43.29109414823934" lon="11.948572297485914"><ele>274.0</ele><time>2026-04-26T08:57:44Z</time></trkpt><trkpt lat="43.29114696615952" lon="11.948502568711447"><ele>274.0</ele><time>2026-04-26T08:57:45Z</time></trkpt><trkpt lat="43.29119785484084" lon="11.948430876174502"><ele>274.0</ele><time>2026-04-26T08:57:46Z</time></trkpt><trkpt lat="43.291246637581814" lon="11.948360383654455"><ele>274.0</ele><time>2026-04-26T08:57:47Z</time></trkpt><trkpt lat="43.2912942989273" lon="11.948291622378786"><ele>274.0</ele><time>2026-04-26T08:57:48Z</time></trkpt><trkpt lat="43.291339372359225" lon="11.948226594651373"><ele>274.0</ele><time>2026-04-26T08:57:49Z</time></trkpt><trkpt lat="43.29138316042483" lon="11.948163421334838"><ele>274.0</ele><time>2026-04-26T08:57:50Z</time></trkpt><trkpt lat="43.29146728971402" lon="11.948039944470404"><ele>273.16666666666663</ele><time>2026-04-26T08:57:52Z</time></trkpt><trkpt lat="43.29152249757826" lon="11.947906792863186"><ele>272.3333333333333</ele><time>2026-04-26T08:57:54Z</time></trkpt><trkpt lat="43.29157631220671" lon="11.947786033816344"><ele>271.5</ele><time>2026-04-26T08:57:56Z</time></trkpt><trkpt lat="43.291630754121826" lon="11.947738408662335"><ele>270.6666666666667</ele><time>2026-04-26T08:57:57Z</time></trkpt><trkpt lat="43.291664366545774" lon="11.947662157894465"><ele>269.83333333333337</ele><time>2026-04-26T08:57:58Z</time></trkpt><trkpt lat="43.29169128100784" lon="11.94758170612206"><ele>269.0</ele><time>2026-04-26T08:57:59Z</time></trkpt><trkpt lat="43.29174244467816" lon="11.947446192128373"><ele>267.83333333333337</ele><time>2026-04-26T08:58:01Z</time></trkpt><trkpt lat="43.29180427482253" lon="11.947489367112068"><ele>266.6666666666667</ele><time>2026-04-26T08:58:02Z</time></trkpt><trkpt lat="43.29168753225165" lon="11.947315249727732"><ele>265.5</ele><time>2026-04-26T08:58:03Z</time></trkpt><trkpt lat="43.29163844557607" lon="11.9472473633522"><ele>264.3333333333333</ele><time>2026-04-26T08:58:04Z</time></trkpt><trkpt lat="43.29160761176412" lon="11.947161150428679"><ele>263.16666666666663</ele><time>2026-04-26T08:58:05Z</time></trkpt><trkpt lat="43.29157008769962" lon="11.947087063991466"><ele>262.0</ele><time>2026-04-26T08:58:06Z</time></trkpt><trkpt lat="43.29152954071142" lon="11.947005403639274"><ele>262.0</ele><time>2026-04-26T08:58:07Z</time></trkpt><trkpt lat="43.291490832472725" lon="11.946930068728834"><ele>262.0</ele><time>2026-04-26T08:58:08Z</time></trkpt><trkpt lat="43.29145058228999" lon="11.946856745057556"><ele>262.0</ele><time>2026-04-26T08:58:09Z</time></trkpt><trkpt lat="43.291411395918615" lon="11.946787734632125"><ele>262.0</ele><time>2026-04-26T08:58:10Z</time></trkpt><trkpt lat="43.291336995239334" lon="11.946656708914608"><ele>262.0</ele><time>2026-04-26T08:58:12Z</time></trkpt><trkpt lat="43.291270399507646" lon="11.946538227146116"><ele>262.0</ele><time>2026-04-26T08:58:14Z</time></trkpt><trkpt lat="43.29121120455089" lon="11.94643111437079"><ele>260.66666666666663</ele><time>2026-04-26T08:58:16Z</time></trkpt><trkpt lat="43.29115821926603" lon="11.946335237926982"><ele>259.3333333333333</ele><time>2026-04-26T08:58:18Z</time></trkpt><trkpt lat="43.291092314096424" lon="11.946221260684446"><ele>258.0</ele><time>2026-04-26T08:58:21Z</time></trkpt><trkpt lat="43.29104294886415" lon="11.946143030830056"><ele>256.6666666666667</ele><time>2026-04-26T08:58:23Z</time></trkpt><trkpt lat="43.29098485256354" lon="11.946074544514072"><ele>255.33333333333334</ele><time>2026-04-26T08:58:25Z</time></trkpt><trkpt lat="43.29088952346064" lon="11.946024560238374"><ele>254.0</ele><time>2026-04-26T08:58:27Z</time></trkpt><trkpt lat="43.29078822657299" lon="11.94595690792461"><ele>254.0</ele><time>2026-04-26T08:58:29Z</time></trkpt><trkpt lat="43.29070983594626" lon="11.945830970620019"><ele>254.0</ele><time>2026-04-26T08:58:31Z</time></trkpt><trkpt lat="43.29063494084622" lon="11.945701020346126"><ele>254.0</ele><time>2026-04-26T08:58:33Z</time></trkpt><trkpt lat="43.29055584254328" lon="11.945569972897436"><ele>254.0</ele><time>2026-04-26T08:58:35Z</time></trkpt><trkpt lat="43.29047548241553" lon="11.945436959592433"><ele>253.5</ele><time>2026-04-26T08:58:37Z</time></trkpt><trkpt lat="43.29039687437119" lon="11.945305003953083"><ele>253.0</ele><time>2026-04-26T08:58:39Z</time></trkpt><trkpt lat="43.2903208359066" lon="11.945177361793142"><ele>252.5</ele><time>2026-04-26T08:58:41Z</time></trkpt><trkpt lat="43.290244772980834" lon="11.945052368296974"><ele>252.0</ele><time>2026-04-26T08:58:43Z</time></trkpt><trkpt lat="43.29017087388567" lon="11.944938833785429"><ele>252.0</ele><time>2026-04-26T08:58:45Z</time></trkpt><trkpt lat="43.290078706394674" lon="11.944836423851124"><ele>252.0</ele><time>2026-04-26T08:58:47Z</time></trkpt><trkpt lat="43.289992369840846" lon="11.944735496558353"><ele>252.0</ele><time>2026-04-26T08:58:49Z</time></trkpt><trkpt lat="43.28991459402587" lon="11.94466881455264"><ele>252.0</ele><time>2026-04-26T08:58:51Z</time></trkpt><trkpt lat="43.28987148130251" lon="11.94458262839037"><ele>252.0</ele><time>2026-04-26T08:58:53Z</time></trkpt><trkpt lat="43.289808374544116" lon="11.944492315737344"><ele>251.83333333333334</ele><time>2026-04-26T08:58:55Z</time></trkpt><trkpt lat="43.28973760431983" lon="11.944396634394007"><ele>251.66666666666669</ele><time>2026-04-26T08:58:57Z</time></trkpt><trkpt lat="43.28966207549081" lon="11.944324157719938"><ele>251.5</ele><time>2026-04-26T08:58:59Z</time></trkpt><trkpt lat="43.2896128714348" lon="11.94423066549664"><ele>251.33333333333334</ele><time>2026-04-26T08:59:01Z</time></trkpt><trkpt lat="43.28955353809641" lon="11.944143228540725"><ele>251.16666666666669</ele><time>2026-04-26T08:59:03Z</time></trkpt><trkpt lat="43.289482190979555" lon="11.94410319814975"><ele>251.0</ele><time>2026-04-26T08:59:05Z</time></trkpt><trkpt lat="43.289410706910694" lon="11.944094858229095"><ele>251.0</ele><time>2026-04-26T08:59:07Z</time></trkpt><trkpt lat="43.28934094317296" lon="11.944173472200793"><ele>251.00000000000003</ele><time>2026-04-26T08:59:09Z</time></trkpt><trkpt lat="43.28929184802919" lon="11.944294813324712"><ele>251.00000000000003</ele><time>2026-04-26T08:59:11Z</time></trkpt><trkpt lat="43.289226532737665" lon="11.944403079328767"><ele>251.0</ele><time>2026-04-26T08:59:13Z</time></trkpt><trkpt lat="43.28915211561498" lon="11.9445048219339"><ele>251.0</ele><time>2026-04-26T08:59:15Z</time></trkpt><trkpt lat="43.28906356166597" lon="11.944601739226442"><ele>251.0</ele><time>2026-04-26T08:59:16.999Z</time></trkpt><trkpt lat="43.288985957493146" lon="11.944685359728178"><ele>251.00000000000003</ele><time>2026-04-26T08:59:18.999Z</time></trkpt><trkpt lat="43.28891954362218" lon="11.944782982648256"><ele>251.00000000000003</ele><time>2026-04-26T08:59:21Z</time></trkpt><trkpt lat="43.288856653581654" lon="11.944905690288655"><ele>251.0</ele><time>2026-04-26T08:59:23Z</time></trkpt><trkpt lat="43.28880728792154" lon="11.945026621102606"><ele>251.0</ele><time>2026-04-26T08:59:25Z</time></trkpt><trkpt lat="43.28874779584321" lon="11.945148772117635"><ele>251.0</ele><time>2026-04-26T08:59:27Z</time></trkpt><trkpt lat="43.28869044760409" lon="11.945265709208497"><ele>251.00000000000003</ele><time>2026-04-26T08:59:29Z</time></trkpt><trkpt lat="43.288634361133795" lon="11.94537989532676"><ele>251.00000000000003</ele><time>2026-04-26T08:59:31Z</time></trkpt><trkpt lat="43.28857715916327" lon="11.94549450943915"><ele>251.0</ele><time>2026-04-26T08:59:33Z</time></trkpt><trkpt lat="43.28851858663358" lon="11.945615884338105"><ele>251.0</ele><time>2026-04-26T08:59:35Z</time></trkpt><trkpt lat="43.28845506886296" lon="11.945740944393783"><ele>251.0</ele><time>2026-04-26T08:59:37Z</time></trkpt><trkpt lat="43.288392444937784" lon="11.94587650717708"><ele>251.0</ele><time>2026-04-26T08:59:39Z</time></trkpt><trkpt lat="43.2883310304895" lon="11.946017575558471"><ele>251.0</ele><time>2026-04-26T08:59:41Z</time></trkpt><trkpt lat="43.28826698599778" lon="11.946146673795408"><ele>251.0</ele><time>2026-04-26T08:59:43Z</time></trkpt><trkpt lat="43.28818089152156" lon="11.946273885456764"><ele>250.99999999999997</ele><time>2026-04-26T08:59:45Z</time></trkpt><trkpt lat="43.28812914855707" lon="11.946334400250503"><ele>251.0</ele><time>2026-04-26T08:59:46Z</time></trkpt><trkpt lat="43.2880793934276" lon="11.946395633918717"><ele>250.99999999999997</ele><time>2026-04-26T08:59:47Z</time></trkpt><trkpt lat="43.28803168936202" lon="11.946461346669361"><ele>250.99999999999997</ele><time>2026-04-26T08:59:48Z</time></trkpt><trkpt lat="43.2879778324242" lon="11.946529034464833"><ele>251.0</ele><time>2026-04-26T08:59:49Z</time></trkpt><trkpt lat="43.28792444422591" lon="11.94659327589474"><ele>250.99999999999997</ele><time>2026-04-26T08:59:50Z</time></trkpt><trkpt lat="43.28786869418445" lon="11.946655782998258"><ele>250.99999999999997</ele><time>2026-04-26T08:59:51Z</time></trkpt><trkpt lat="43.287815392476" lon="11.946719721387138"><ele>251.60000000000002</ele><time>2026-04-26T08:59:52Z</time></trkpt><trkpt lat="43.287762845774004" lon="11.946784776388823"><ele>252.20000000000002</ele><time>2026-04-26T08:59:53Z</time></trkpt><trkpt lat="43.287711727179456" lon="11.946845998086026"><ele>252.79999999999998</ele><time>2026-04-26T08:59:54Z</time></trkpt><trkpt lat="43.28761829068564" lon="11.946953422748363"><ele>253.39999999999998</ele><time>2026-04-26T08:59:56Z</time></trkpt><trkpt lat="43.287528720567536" lon="11.946990728907243"><ele>254.0</ele><time>2026-04-26T08:59:58Z</time></trkpt><trkpt lat="43.28746138187772" lon="11.946883013038603"><ele>254.0</ele><time>2026-04-26T09:00:00Z</time></trkpt><trkpt lat="43.287408022956775" lon="11.946831274041866"><ele>254.0</ele><time>2026-04-26T09:00:01Z</time></trkpt><trkpt lat="43.28735507773276" lon="11.946764475351863"><ele>254.0</ele><time>2026-04-26T09:00:02Z</time></trkpt><trkpt lat="43.28729976884069" lon="11.946698811318925"><ele>254.0</ele><time>2026-04-26T09:00:03Z</time></trkpt><trkpt lat="43.2872440166549" lon="11.946640658111695"><ele>254.0</ele><time>2026-04-26T09:00:04Z</time></trkpt><trkpt lat="43.28719402086297" lon="11.94658115953872"><ele>254.0</ele><time>2026-04-26T09:00:05Z</time></trkpt><trkpt lat="43.287143825764275" lon="11.94652203985548"><ele>254.0</ele><time>2026-04-26T09:00:06Z</time></trkpt><trkpt lat="43.2870941830041" lon="11.946466709759303"><ele>253.33333333333334</ele><time>2026-04-26T09:00:07Z</time></trkpt><trkpt lat="43.28705514209578" lon="11.946396100940122"><ele>252.66666666666669</ele><time>2026-04-26T09:00:08Z</time></trkpt><trkpt lat="43.28697700119529" lon="11.94628445113682"><ele>252.0</ele><time>2026-04-26T09:00:10Z</time></trkpt><trkpt lat="43.28692536606334" lon="11.94614584375672"><ele>251.33333333333331</ele><time>2026-04-26T09:00:12Z</time></trkpt><trkpt lat="43.28690061459933" lon="11.946059716745838"><ele>250.66666666666666</ele><time>2026-04-26T09:00:13Z</time></trkpt><trkpt lat="43.28687846571317" lon="11.945978385080855"><ele>250.0</ele><time>2026-04-26T09:00:14Z</time></trkpt><trkpt lat="43.286855908423234" lon="11.945895554066693"><ele>249.85714285714283</ele><time>2026-04-26T09:00:15Z</time></trkpt><trkpt lat="43.286833925075335" lon="11.945811728669277"><ele>249.71428571428572</ele><time>2026-04-26T09:00:16Z</time></trkpt><trkpt lat="43.28681299113011" lon="11.945728817421811"><ele>249.57142857142856</ele><time>2026-04-26T09:00:17Z</time></trkpt><trkpt lat="43.286791374580666" lon="11.94564386669218"><ele>249.42857142857142</ele><time>2026-04-26T09:00:18Z</time></trkpt><trkpt lat="43.28676824589123" lon="11.94555840354489"><ele>249.28571428571428</ele><time>2026-04-26T09:00:19Z</time></trkpt><trkpt lat="43.28674367730165" lon="11.945470156065053"><ele>249.14285714285714</ele><time>2026-04-26T09:00:20Z</time></trkpt><trkpt lat="43.28671692785107" lon="11.945383682501912"><ele>249.0</ele><time>2026-04-26T09:00:21Z</time></trkpt><trkpt lat="43.2866837847992" lon="11.945300073267902"><ele>249.0</ele><time>2026-04-26T09:00:22Z</time></trkpt><trkpt lat="43.28664015609338" lon="11.945228419190446"><ele>248.99999999999997</ele><time>2026-04-26T09:00:23Z</time></trkpt><trkpt lat="43.28657235316949" lon="11.945196640601948"><ele>249.0</ele><time>2026-04-26T09:00:24Z</time></trkpt><trkpt lat="43.28650256379139" lon="11.945177089095765"><ele>249.0</ele><time>2026-04-26T09:00:25Z</time></trkpt><trkpt lat="43.28643597984562" lon="11.94517493826228"><ele>248.99999999999997</ele><time>2026-04-26T09:00:26Z</time></trkpt><trkpt lat="43.28636907547094" lon="11.945170135239115"><ele>249.0</ele><time>2026-04-26T09:00:27Z</time></trkpt><trkpt lat="43.286304710018285" lon="11.94515741632867"><ele>249.0</ele><time>2026-04-26T09:00:28Z</time></trkpt><trkpt lat="43.286241712388815" lon="11.945135750216052"><ele>249.14285714285714</ele><time>2026-04-26T09:00:29Z</time></trkpt><trkpt lat="43.28618099912009" lon="11.945099197625721"><ele>249.28571428571428</ele><time>2026-04-26T09:00:30Z</time></trkpt><trkpt lat="43.28612659887052" lon="11.94505025624336"><ele>249.42857142857142</ele><time>2026-04-26T09:00:31Z</time></trkpt><trkpt lat="43.286070853465674" lon="11.945007563719662"><ele>249.57142857142856</ele><time>2026-04-26T09:00:32Z</time></trkpt><trkpt lat="43.286007339652244" lon="11.94498254694233"><ele>249.71428571428572</ele><time>2026-04-26T09:00:33Z</time></trkpt><trkpt lat="43.28594181857016" lon="11.944971716394125"><ele>249.85714285714283</ele><time>2026-04-26T09:00:34Z</time></trkpt><trkpt lat="43.28587637916327" lon="11.9449565065972"><ele>250.0</ele><time>2026-04-26T09:00:35Z</time></trkpt><trkpt lat="43.285813357440475" lon="11.944943338691871"><ele>250.0</ele><time>2026-04-26T09:00:36Z</time></trkpt><trkpt lat="43.28575066393797" lon="11.944926607406524"><ele>250.0</ele><time>2026-04-26T09:00:37Z</time></trkpt><trkpt lat="43.28568636146645" lon="11.944902939409499"><ele>250.0</ele><time>2026-04-26T09:00:38Z</time></trkpt><trkpt lat="43.285622309057764" lon="11.944879174743201"><ele>250.0</ele><time>2026-04-26T09:00:39Z</time></trkpt><trkpt lat="43.285555495146" lon="11.944854334327273"><ele>250.0</ele><time>2026-04-26T09:00:40Z</time></trkpt><trkpt lat="43.28549180634444" lon="11.94482308481375"><ele>250.0</ele><time>2026-04-26T09:00:41Z</time></trkpt><trkpt lat="43.285425095374144" lon="11.944791776888813"><ele>250.0</ele><time>2026-04-26T09:00:42Z</time></trkpt><trkpt lat="43.285357338321894" lon="11.944763935087074"><ele>249.71428571428572</ele><time>2026-04-26T09:00:43Z</time></trkpt><trkpt lat="43.28529156702068" lon="11.944732889938875"><ele>249.42857142857144</ele><time>2026-04-26T09:00:44Z</time></trkpt><trkpt lat="43.28522900370653" lon="11.944694721583646"><ele>249.14285714285717</ele><time>2026-04-26T09:00:45Z</time></trkpt><trkpt lat="43.285167426341395" lon="11.944649928541882"><ele>248.85714285714286</ele><time>2026-04-26T09:00:46Z</time></trkpt><trkpt lat="43.28510870898735" lon="11.944600176839037"><ele>248.5714285714286</ele><time>2026-04-26T09:00:47Z</time></trkpt><trkpt lat="43.285054024407366" lon="11.944552561640696"><ele>248.2857142857143</ele><time>2026-04-26T09:00:48Z</time></trkpt><trkpt lat="43.28499985179085" lon="11.944496798965947"><ele>248.0</ele><time>2026-04-26T09:00:49Z</time></trkpt><trkpt lat="43.284947518225046" lon="11.944439953854843"><ele>248.0</ele><time>2026-04-26T09:00:50Z</time></trkpt><trkpt lat="43.284893399841714" lon="11.944385414915406"><ele>248.00000000000003</ele><time>2026-04-26T09:00:51Z</time></trkpt><trkpt lat="43.28483894839269" lon="11.944331142037546"><ele>248.0</ele><time>2026-04-26T09:00:52Z</time></trkpt><trkpt lat="43.28479410389661" lon="11.944258258413969"><ele>248.0</ele><time>2026-04-26T09:00:53Z</time></trkpt><trkpt lat="43.2847409737355" lon="11.944202114759888"><ele>248.00000000000003</ele><time>2026-04-26T09:00:54Z</time></trkpt><trkpt lat="43.284687606075714" lon="11.944145720144002"><ele>248.0</ele><time>2026-04-26T09:00:55Z</time></trkpt><trkpt lat="43.284636006720575" lon="11.944089541260082"><ele>248.0</ele><time>2026-04-26T09:00:56Z</time></trkpt><trkpt lat="43.28458522039108" lon="11.944033388670604"><ele>248.71428571428572</ele><time>2026-04-26T09:00:57Z</time></trkpt><trkpt lat="43.28453415182861" lon="11.94397395238035"><ele>249.42857142857144</ele><time>2026-04-26T09:00:58Z</time></trkpt><trkpt lat="43.28448550645357" lon="11.943915367865234"><ele>250.14285714285717</ele><time>2026-04-26T09:00:59Z</time></trkpt><trkpt lat="43.284436716674385" lon="11.943855124783058"><ele>250.8571428571429</ele><time>2026-04-26T09:01:00Z</time></trkpt><trkpt lat="43.2843872366334" lon="11.943793608339192"><ele>251.57142857142858</ele><time>2026-04-26T09:01:01Z</time></trkpt><trkpt lat="43.28433839312432" lon="11.943732261687732"><ele>252.28571428571433</ele><time>2026-04-26T09:01:02Z</time></trkpt><trkpt lat="43.284288894431924" lon="11.943665694507082"><ele>253.00000000000003</ele><time>2026-04-26T09:01:03Z</time></trkpt><trkpt lat="43.28424078565009" lon="11.943601802586368"><ele>253.00000000000003</ele><time>2026-04-26T09:01:04Z</time></trkpt><trkpt lat="43.28419150393871" lon="11.943543712831815"><ele>253.0</ele><time>2026-04-26T09:01:05Z</time></trkpt><trkpt lat="43.284135491012165" lon="11.943491465687684"><ele>253.00000000000003</ele><time>2026-04-26T09:01:06Z</time></trkpt><trkpt lat="43.28407811146483" lon="11.9434442506261"><ele>253.00000000000003</ele><time>2026-04-26T09:01:07Z</time></trkpt><trkpt lat="43.284006637682836" lon="11.943425406495711"><ele>253.0</ele><time>2026-04-26T09:01:08Z</time></trkpt><trkpt lat="43.28394060776202" lon="11.943391666002018"><ele>253.00000000000003</ele><time>2026-04-26T09:01:09Z</time></trkpt><trkpt lat="43.28387206128415" lon="11.94336379946363"><ele>253.00000000000003</ele><time>2026-04-26T09:01:09.999Z</time></trkpt><trkpt lat="43.2838025295781" lon="11.943334705653129"><ele>252.33333333333331</ele><time>2026-04-26T09:01:10.999Z</time></trkpt><trkpt lat="43.28373228266765" lon="11.943308694632043"><ele>251.66666666666666</ele><time>2026-04-26T09:01:11.999Z</time></trkpt><trkpt lat="43.283659801309774" lon="11.943280787315276"><ele>251.0</ele><time>2026-04-26T09:01:12.999Z</time></trkpt><trkpt lat="43.283587612873426" lon="11.943244872768558"><ele>250.33333333333331</ele><time>2026-04-26T09:01:13.999Z</time></trkpt><trkpt lat="43.28351606586339" lon="11.943205029127132"><ele>249.66666666666666</ele><time>2026-04-26T09:01:14.999Z</time></trkpt><trkpt lat="43.28344782180485" lon="11.943163669293131"><ele>249.0</ele><time>2026-04-26T09:01:15.999Z</time></trkpt><trkpt lat="43.28338075300602" lon="11.943122345751087"><ele>249.0</ele><time>2026-04-26T09:01:16.999Z</time></trkpt><trkpt lat="43.28331259860736" lon="11.943082854194124"><ele>248.99999999999997</ele><time>2026-04-26T09:01:17.999Z</time></trkpt><trkpt lat="43.283246323569045" lon="11.943046044656214"><ele>249.0</ele><time>2026-04-26T09:01:18.999Z</time></trkpt><trkpt lat="43.28318271419748" lon="11.943013113198639"><ele>249.0</ele><time>2026-04-26T09:01:19.999Z</time></trkpt><trkpt lat="43.28312175442452" lon="11.942981499289353"><ele>248.99999999999997</ele><time>2026-04-26T09:01:20.999Z</time></trkpt><trkpt lat="43.28306138792218" lon="11.942952630646232"><ele>249.0</ele><time>2026-04-26T09:01:21.999Z</time></trkpt><trkpt lat="43.28299705933322" lon="11.94293561730799"><ele>249.0</ele><time>2026-04-26T09:01:22.999Z</time></trkpt><trkpt lat="43.28293100735559" lon="11.942934601243728"><ele>249.14285714285714</ele><time>2026-04-26T09:01:23.999Z</time></trkpt><trkpt lat="43.282860485132595" lon="11.942942539729163"><ele>249.28571428571428</ele><time>2026-04-26T09:01:24.999Z</time></trkpt><trkpt lat="43.282790183778324" lon="11.942953734185636"><ele>249.42857142857142</ele><time>2026-04-26T09:01:25.999Z</time></trkpt><trkpt lat="43.28272158657891" lon="11.942968468375884"><ele>249.57142857142856</ele><time>2026-04-26T09:01:26.999Z</time></trkpt><trkpt lat="43.28265034808873" lon="11.942989119680469"><ele>249.71428571428572</ele><time>2026-04-26T09:01:27.999Z</time></trkpt><trkpt lat="43.2825823954" lon="11.943017801229995"><ele>249.85714285714283</ele><time>2026-04-26T09:01:28.999Z</time></trkpt><trkpt lat="43.282514717032186" lon="11.943055506225388"><ele>250.0</ele><time>2026-04-26T09:01:29.999Z</time></trkpt><trkpt lat="43.28245026768214" lon="11.943096835036227"><ele>250.0</ele><time>2026-04-26T09:01:30.999Z</time></trkpt><trkpt lat="43.282385854607945" lon="11.94313982947359"><ele>250.0</ele><time>2026-04-26T09:01:31.999Z</time></trkpt><trkpt lat="43.282323078157525" lon="11.943185065157698"><ele>250.0</ele><time>2026-04-26T09:01:32.999Z</time></trkpt><trkpt lat="43.28226204917682" lon="11.943231743415026"><ele>250.0</ele><time>2026-04-26T09:01:33.999Z</time></trkpt><trkpt lat="43.28219901340017" lon="11.943276569854133"><ele>250.0</ele><time>2026-04-26T09:01:34.999Z</time></trkpt><trkpt lat="43.28213621773147" lon="11.943319244966004"><ele>250.0</ele><time>2026-04-26T09:01:35.999Z</time></trkpt><trkpt lat="43.28207213115481" lon="11.943366796559804"><ele>250.0</ele><time>2026-04-26T09:01:36.999Z</time></trkpt><trkpt lat="43.28200953714447" lon="11.943407296323972"><ele>249.71428571428572</ele><time>2026-04-26T09:01:37.999Z</time></trkpt><trkpt lat="43.281942047525995" lon="11.943443773598618"><ele>249.42857142857144</ele><time>2026-04-26T09:01:38.999Z</time></trkpt><trkpt lat="43.281878295127804" lon="11.943483324945653"><ele>249.14285714285717</ele><time>2026-04-26T09:01:39.999Z</time></trkpt><trkpt lat="43.28181594920294" lon="11.943524247952501"><ele>248.85714285714286</ele><time>2026-04-26T09:01:40.999Z</time></trkpt><trkpt lat="43.28175091773965" lon="11.943562679542604"><ele>248.5714285714286</ele><time>2026-04-26T09:01:41.999Z</time></trkpt><trkpt lat="43.2816876968581" lon="11.943604841996075"><ele>248.2857142857143</ele><time>2026-04-26T09:01:42.999Z</time></trkpt><trkpt lat="43.28162620985577" lon="11.94364466624184"><ele>248.0</ele><time>2026-04-26T09:01:43.999Z</time></trkpt><trkpt lat="43.28156495498605" lon="11.94368554011533"><ele>248.0</ele><time>2026-04-26T09:01:44.999Z</time></trkpt><trkpt lat="43.281502962439724" lon="11.943725943580095"><ele>248.00000000000003</ele><time>2026-04-26T09:01:45.999Z</time></trkpt><trkpt lat="43.28144209587917" lon="11.943766301592468"><ele>248.0</ele><time>2026-04-26T09:01:46.999Z</time></trkpt><trkpt lat="43.28137990902052" lon="11.943807810580678"><ele>248.0</ele><time>2026-04-26T09:01:47.999Z</time></trkpt><trkpt lat="43.28131719173557" lon="11.9438514949606"><ele>248.00000000000003</ele><time>2026-04-26T09:01:48.999Z</time></trkpt><trkpt lat="43.28125481930393" lon="11.943898347974534"><ele>248.0</ele><time>2026-04-26T09:01:49.999Z</time></trkpt><trkpt lat="43.28119265257549" lon="11.943940410590336"><ele>248.0</ele><time>2026-04-26T09:01:50.999Z</time></trkpt><trkpt lat="43.281131459506774" lon="11.943979614674486"><ele>248.16666666666669</ele><time>2026-04-26T09:01:51.999Z</time></trkpt><trkpt lat="43.28107139421744" lon="11.944011397581166"><ele>248.33333333333334</ele><time>2026-04-26T09:01:52.999Z</time></trkpt><trkpt lat="43.28101166680765" lon="11.944040215658625"><ele>248.5</ele><time>2026-04-26T09:01:53.999Z</time></trkpt><trkpt lat="43.280893391200756" lon="11.944035444823932"><ele>248.66666666666669</ele><time>2026-04-26T09:01:55.999Z</time></trkpt><trkpt lat="43.28084022765853" lon="11.9439851218091"><ele>248.83333333333334</ele><time>2026-04-26T09:01:56.999Z</time></trkpt><trkpt lat="43.28081424664888" lon="11.943904310582553"><ele>249.0</ele><time>2026-04-26T09:01:57.999Z</time></trkpt><trkpt lat="43.280753146903564" lon="11.943771604161537"><ele>249.0</ele><time>2026-04-26T09:01:59.999Z</time></trkpt><trkpt lat="43.2806825512509" lon="11.943627792623749"><ele>249.0</ele><time>2026-04-26T09:02:01.999Z</time></trkpt><trkpt lat="43.28064712256789" lon="11.943555620186672"><ele>249.0</ele><time>2026-04-26T09:02:02.999Z</time></trkpt><trkpt lat="43.28060940273929" lon="11.943478780530011"><ele>249.0</ele><time>2026-04-26T09:02:03.999Z</time></trkpt><trkpt lat="43.280571968967614" lon="11.943402523470402"><ele>249.0</ele><time>2026-04-26T09:02:04.999Z</time></trkpt><trkpt lat="43.28053428643309" lon="11.94332886058656"><ele>249.0</ele><time>2026-04-26T09:02:05.999Z</time></trkpt><trkpt lat="43.280495431057304" lon="11.94325357835772"><ele>248.85714285714283</ele><time>2026-04-26T09:02:06.999Z</time></trkpt><trkpt lat="43.280455094342976" lon="11.94317694957693"><ele>248.7142857142857</ele><time>2026-04-26T09:02:07.999Z</time></trkpt><trkpt lat="43.28041155228524" lon="11.943103060993968"><ele>248.57142857142856</ele><time>2026-04-26T09:02:08.999Z</time></trkpt><trkpt lat="43.2803621885641" lon="11.943036712199698"><ele>248.42857142857144</ele><time>2026-04-26T09:02:09.999Z</time></trkpt><trkpt lat="43.28031110559664" lon="11.94298077538815"><ele>248.2857142857143</ele><time>2026-04-26T09:02:10.999Z</time></trkpt><trkpt lat="43.28023381992023" lon="11.942974007463981"><ele>248.14285714285717</ele><time>2026-04-26T09:02:11.999Z</time></trkpt><trkpt lat="43.28016573013189" lon="11.942961434676057"><ele>248.0</ele><time>2026-04-26T09:02:12.999Z</time></trkpt><trkpt lat="43.28009535543681" lon="11.942969894551819"><ele>248.0</ele><time>2026-04-26T09:02:13.999Z</time></trkpt><trkpt lat="43.28002378009547" lon="11.942976361239284"><ele>248.00000000000003</ele><time>2026-04-26T09:02:14.999Z</time></trkpt><trkpt lat="43.27995590980811" lon="11.942958333674666"><ele>248.0</ele><time>2026-04-26T09:02:15.999Z</time></trkpt><trkpt lat="43.279899083064265" lon="11.942894708312426"><ele>248.0</ele><time>2026-04-26T09:02:16.999Z</time></trkpt><trkpt lat="43.27985315840789" lon="11.942822707075388"><ele>248.00000000000003</ele><time>2026-04-26T09:02:17.999Z</time></trkpt><trkpt lat="43.2797963821533" lon="11.942771672870917"><ele>248.0</ele><time>2026-04-26T09:02:18.999Z</time></trkpt><trkpt lat="43.279737707257134" lon="11.942727583293886"><ele>248.0</ele><time>2026-04-26T09:02:19.999Z</time></trkpt><trkpt lat="43.27966717305156" lon="11.942715176082112"><ele>247.85714285714286</ele><time>2026-04-26T09:02:20.999Z</time></trkpt><trkpt lat="43.27960634296991" lon="11.942686216169939"><ele>247.71428571428572</ele><time>2026-04-26T09:02:21.999Z</time></trkpt><trkpt lat="43.27954541185542" lon="11.942661794476573"><ele>247.57142857142858</ele><time>2026-04-26T09:02:22.999Z</time></trkpt><trkpt lat="43.27948113183885" lon="11.94263848491721"><ele>247.42857142857144</ele><time>2026-04-26T09:02:23.999Z</time></trkpt><trkpt lat="43.27941619859775" lon="11.942619274188012"><ele>247.28571428571428</ele><time>2026-04-26T09:02:24.999Z</time></trkpt><trkpt lat="43.279349849576214" lon="11.942602535476132"><ele>247.14285714285717</ele><time>2026-04-26T09:02:25.999Z</time></trkpt><trkpt lat="43.27928261125646" lon="11.942585991982789"><ele>247.0</ele><time>2026-04-26T09:02:26.999Z</time></trkpt><trkpt lat="43.27921656764841" lon="11.942569068270563"><ele>246.99999999999997</ele><time>2026-04-26T09:02:27.999Z</time></trkpt><trkpt lat="43.27914871263699" lon="11.942554181369745"><ele>247.0</ele><time>2026-04-26T09:02:28.999Z</time></trkpt><trkpt lat="43.2790811314416" lon="11.94254397144363"><ele>247.0</ele><time>2026-04-26T09:02:29.999Z</time></trkpt><trkpt lat="43.27901155939359" lon="11.942537318228014"><ele>247.0</ele><time>2026-04-26T09:02:30.999Z</time></trkpt><trkpt lat="43.27894376327411" lon="11.942531873641979"><ele>246.99999999999997</ele><time>2026-04-26T09:02:31.999Z</time></trkpt><trkpt lat="43.27881783803165" lon="11.942516878969338"><ele>247.0</ele><time>2026-04-26T09:02:33.999Z</time></trkpt><trkpt lat="43.278749902033056" lon="11.942511583962894"><ele>247.57142857142858</ele><time>2026-04-26T09:02:34.999Z</time></trkpt><trkpt lat="43.27868050799785" lon="11.9425058895574"><ele>248.1428571428571</ele><time>2026-04-26T09:02:35.999Z</time></trkpt><trkpt lat="43.27861159179996" lon="11.942500324619875"><ele>248.7142857142857</ele><time>2026-04-26T09:02:36.999Z</time></trkpt><trkpt lat="43.278543221428706" lon="11.942493435071322"><ele>249.28571428571428</ele><time>2026-04-26T09:02:37.999Z</time></trkpt><trkpt lat="43.27847587450716" lon="11.942484945294693"><ele>249.85714285714283</ele><time>2026-04-26T09:02:38.999Z</time></trkpt><trkpt lat="43.27840847873075" lon="11.942481238823342"><ele>250.4285714285714</ele><time>2026-04-26T09:02:39.999Z</time></trkpt><trkpt lat="43.27834330521893" lon="11.942477884708525"><ele>250.99999999999997</ele><time>2026-04-26T09:02:40.999Z</time></trkpt><trkpt lat="43.27827588248291" lon="11.942471602626739"><ele>250.99999999999997</ele><time>2026-04-26T09:02:41.999Z</time></trkpt><trkpt lat="43.27820855622511" lon="11.94246440536782"><ele>251.0</ele><time>2026-04-26T09:02:42.999Z</time></trkpt><trkpt lat="43.2781413254973" lon="11.942457917673488"><ele>250.99999999999997</ele><time>2026-04-26T09:02:43.999Z</time></trkpt><trkpt lat="43.27807598935872" lon="11.942449871314873"><ele>250.99999999999997</ele><time>2026-04-26T09:02:44.999Z</time></trkpt><trkpt lat="43.27801199225183" lon="11.942441051897605"><ele>251.0</ele><time>2026-04-26T09:02:45.999Z</time></trkpt><trkpt lat="43.27794494862595" lon="11.942432886711915"><ele>250.99999999999997</ele><time>2026-04-26T09:02:46.999Z</time></trkpt><trkpt lat="43.27787859020265" lon="11.942428935452684"><ele>250.99999999999997</ele><time>2026-04-26T09:02:47.999Z</time></trkpt><trkpt lat="43.277812119508745" lon="11.942424843353322"><ele>250.85714285714283</ele><time>2026-04-26T09:02:48.999Z</time></trkpt><trkpt lat="43.277745209051396" lon="11.94242150921243"><ele>250.71428571428572</ele><time>2026-04-26T09:02:49.999Z</time></trkpt><trkpt lat="43.2776812281743" lon="11.94241311902983"><ele>250.57142857142856</ele><time>2026-04-26T09:02:50.999Z</time></trkpt><trkpt lat="43.27761549833059" lon="11.94241000392264"><ele>250.42857142857142</ele><time>2026-04-26T09:02:51.999Z</time></trkpt><trkpt lat="43.27755014260134" lon="11.94241622960125"><ele>250.28571428571428</ele><time>2026-04-26T09:02:52.999Z</time></trkpt><trkpt lat="43.27748404558247" lon="11.942421071798833"><ele>250.14285714285714</ele><time>2026-04-26T09:02:53.999Z</time></trkpt><trkpt lat="43.27742015294561" lon="11.942429435985346"><ele>250.0</ele><time>2026-04-26T09:02:54.999Z</time></trkpt><trkpt lat="43.27735797520244" lon="11.942448319426457"><ele>250.0</ele><time>2026-04-26T09:02:55.999Z</time></trkpt><trkpt lat="43.27729405851749" lon="11.94247170075899"><ele>250.0</ele><time>2026-04-26T09:02:56.999Z</time></trkpt><trkpt lat="43.277229409251866" lon="11.942485859193706"><ele>250.0</ele><time>2026-04-26T09:02:57.999Z</time></trkpt><trkpt lat="43.2771153793312" lon="11.942427617360133"><ele>250.0</ele><time>2026-04-26T09:02:59.999Z</time></trkpt><trkpt lat="43.27707925510384" lon="11.942348192780127"><ele>250.0</ele><time>2026-04-26T09:03:00.999Z</time></trkpt><trkpt lat="43.27703275854627" lon="11.942289330122083"><ele>250.0</ele><time>2026-04-26T09:03:01.999Z</time></trkpt><trkpt lat="43.276985514982236" lon="11.942231582077259"><ele>250.0</ele><time>2026-04-26T09:03:02.999Z</time></trkpt><trkpt lat="43.276903374642735" lon="11.942136787929462"><ele>250.16666666666666</ele><time>2026-04-26T09:03:04.999Z</time></trkpt><trkpt lat="43.2768479114011" lon="11.942073478756416"><ele>250.33333333333331</ele><time>2026-04-26T09:03:06.999Z</time></trkpt><trkpt lat="43.27678212293729" lon="11.942142311572072"><ele>250.5</ele><time>2026-04-26T09:03:09.999Z</time></trkpt><trkpt lat="43.276761256786834" lon="11.942267580271483"><ele>250.66666666666669</ele><time>2026-04-26T09:03:11.999Z</time></trkpt><trkpt lat="43.27675520423797" lon="11.942386451081891"><ele>250.83333333333334</ele><time>2026-04-26T09:03:13.999Z</time></trkpt><trkpt lat="43.276683274175774" lon="11.942416040710903"><ele>251.0</ele><time>2026-04-26T09:03:16.999Z</time></trkpt><trkpt lat="43.27663684888889" lon="11.942322232778935"><ele>251.0</ele><time>2026-04-26T09:03:18.999Z</time></trkpt><trkpt lat="43.276588305397304" lon="11.942236611576902"><ele>251.00000000000003</ele><time>2026-04-26T09:03:20.999Z</time></trkpt><trkpt lat="43.276526312330624" lon="11.942141677655615"><ele>251.00000000000003</ele><time>2026-04-26T09:03:22.999Z</time></trkpt><trkpt lat="43.27659013644874" lon="11.942255675383024"><ele>251.0</ele><time>2026-04-26T09:03:30.999Z</time></trkpt><trkpt lat="43.27665145429987" lon="11.94234901616268"><ele>251.0</ele><time>2026-04-26T09:03:33Z</time></trkpt><trkpt lat="43.276710332760885" lon="11.942433460848724"><ele>251.00000000000003</ele><time>2026-04-26T09:03:35Z</time></trkpt><trkpt lat="43.27674226932919" lon="11.942519281358864"><ele>251.0</ele><time>2026-04-26T09:03:37Z</time></trkpt><trkpt lat="43.276753268584656" lon="11.942642887985606"><ele>251.0</ele><time>2026-04-26T09:03:39Z</time></trkpt><trkpt lat="43.276773946705845" lon="11.942755684868137"><ele>251.0</ele><time>2026-04-26T09:03:41Z</time></trkpt><trkpt lat="43.27673141129468" lon="11.94284567631904"><ele>251.00000000000003</ele><time>2026-04-26T09:03:43Z</time></trkpt><trkpt lat="43.276619595047066" lon="11.9429107619591"><ele>251.0</ele><time>2026-04-26T09:03:45Z</time></trkpt><trkpt lat="43.27655804778331" lon="11.94294884209485"><ele>250.99999999999997</ele><time>2026-04-26T09:03:46Z</time></trkpt><trkpt lat="43.27649413370991" lon="11.942992903473368"><ele>251.0</ele><time>2026-04-26T09:03:47Z</time></trkpt><trkpt lat="43.276426887896285" lon="11.94303707481927"><ele>250.99999999999997</ele><time>2026-04-26T09:03:48Z</time></trkpt><trkpt lat="43.2763583849232" lon="11.94308278358292"><ele>250.99999999999997</ele><time>2026-04-26T09:03:49Z</time></trkpt><trkpt lat="43.27629087734581" lon="11.943128470972189"><ele>251.0</ele><time>2026-04-26T09:03:50Z</time></trkpt><trkpt lat="43.27622694513288" lon="11.943172661988468"><ele>250.99999999999997</ele><time>2026-04-26T09:03:51Z</time></trkpt><trkpt lat="43.276161119503826" lon="11.943218317661755"><ele>250.99999999999997</ele><time>2026-04-26T09:03:52Z</time></trkpt><trkpt lat="43.276096955740535" lon="11.943261564282333"><ele>251.00000000000003</ele><time>2026-04-26T09:03:53Z</time></trkpt><trkpt lat="43.276034325991766" lon="11.943300823151828"><ele>251.0</ele><time>2026-04-26T09:03:54Z</time></trkpt><trkpt lat="43.27597486012257" lon="11.94333864315366"><ele>251.0</ele><time>2026-04-26T09:03:55Z</time></trkpt><trkpt lat="43.27591778241737" lon="11.943378661414677"><ele>251.0</ele><time>2026-04-26T09:03:56Z</time></trkpt><trkpt lat="43.27580800960369" lon="11.94345958881049"><ele>251.00000000000003</ele><time>2026-04-26T09:03:57.999Z</time></trkpt><trkpt lat="43.275694705192684" lon="11.943530979231095"><ele>251.0</ele><time>2026-04-26T09:03:59.999Z</time></trkpt><trkpt lat="43.275580872359974" lon="11.943600666333962"><ele>250.8</ele><time>2026-04-26T09:04:01.999Z</time></trkpt><trkpt lat="43.27546133601429" lon="11.943630447094229"><ele>250.60000000000002</ele><time>2026-04-26T09:04:03.999Z</time></trkpt><trkpt lat="43.27533919988543" lon="11.943620390057182"><ele>250.4</ele><time>2026-04-26T09:04:05.999Z</time></trkpt><trkpt lat="43.275276738529534" lon="11.943606191523598"><ele>250.2</ele><time>2026-04-26T09:04:06.999Z</time></trkpt><trkpt lat="43.27515662588763" lon="11.94363086480996"><ele>250.0</ele><time>2026-04-26T09:04:08.999Z</time></trkpt><trkpt lat="43.275100676947844" lon="11.943674085038657"><ele>249.99999999999997</ele><time>2026-04-26T09:04:09.999Z</time></trkpt><trkpt lat="43.27504522351956" lon="11.943720367629792"><ele>250.0</ele><time>2026-04-26T09:04:10.999Z</time></trkpt><trkpt lat="43.27498573943649" lon="11.943767286018893"><ele>250.0</ele><time>2026-04-26T09:04:11.999Z</time></trkpt><trkpt lat="43.274925862143135" lon="11.94380262708738"><ele>250.0</ele><time>2026-04-26T09:04:12.999Z</time></trkpt><trkpt lat="43.27486727251624" lon="11.94385261683438"><ele>249.99999999999997</ele><time>2026-04-26T09:04:13.999Z</time></trkpt><trkpt lat="43.274757640224934" lon="11.94394070679749"><ele>250.0</ele><time>2026-04-26T09:04:15.999Z</time></trkpt><trkpt lat="43.27465092096271" lon="11.944020457499889"><ele>250.33333333333331</ele><time>2026-04-26T09:04:17.999Z</time></trkpt><trkpt lat="43.27459154165551" lon="11.944056701533436"><ele>250.66666666666666</ele><time>2026-04-26T09:04:18.999Z</time></trkpt><trkpt lat="43.27452889115332" lon="11.944087896808533"><ele>251.0</ele><time>2026-04-26T09:04:19.999Z</time></trkpt><trkpt lat="43.27446708060148" lon="11.944117657872557"><ele>251.33333333333331</ele><time>2026-04-26T09:04:20.999Z</time></trkpt><trkpt lat="43.27440215177181" lon="11.944156225909246"><ele>251.66666666666666</ele><time>2026-04-26T09:04:21.999Z</time></trkpt><trkpt lat="43.27434320201937" lon="11.944195125967255"><ele>252.0</ele><time>2026-04-26T09:04:22.999Z</time></trkpt><trkpt lat="43.27423945628226" lon="11.944275597711092"><ele>252.0</ele><time>2026-04-26T09:04:24.999Z</time></trkpt><trkpt lat="43.27417996024079" lon="11.944304814953613"><ele>252.0</ele><time>2026-04-26T09:04:25.999Z</time></trkpt><trkpt lat="43.274061834941655" lon="11.944361514756686"><ele>252.0</ele><time>2026-04-26T09:04:27.999Z</time></trkpt><trkpt lat="43.274001961582314" lon="11.94439752329336"><ele>252.0</ele><time>2026-04-26T09:04:28.999Z</time></trkpt><trkpt lat="43.27394460386699" lon="11.944434275435313"><ele>252.0</ele><time>2026-04-26T09:04:29.999Z</time></trkpt><trkpt lat="43.27388481532605" lon="11.944471249863513"><ele>252.0</ele><time>2026-04-26T09:04:30.999Z</time></trkpt><trkpt lat="43.27382576704173" lon="11.944508138682917"><ele>252.0</ele><time>2026-04-26T09:04:31.999Z</time></trkpt><trkpt lat="43.273765821856315" lon="11.944543448298923"><ele>252.14285714285714</ele><time>2026-04-26T09:04:32.999Z</time></trkpt><trkpt lat="43.273705202659634" lon="11.944573619024267"><ele>252.28571428571428</ele><time>2026-04-26T09:04:33.999Z</time></trkpt><trkpt lat="43.27364592982843" lon="11.944606630923497"><ele>252.42857142857144</ele><time>2026-04-26T09:04:34.999Z</time></trkpt><trkpt lat="43.27358520316394" lon="11.944639857647411"><ele>252.57142857142858</ele><time>2026-04-26T09:04:35.999Z</time></trkpt><trkpt lat="43.27352200265999" lon="11.944674133877314"><ele>252.71428571428572</ele><time>2026-04-26T09:04:36.999Z</time></trkpt><trkpt lat="43.27345561706496" lon="11.944696155926952"><ele>252.8571428571429</ele><time>2026-04-26T09:04:37.999Z</time></trkpt><trkpt lat="43.27338699603985" lon="11.944714261940305"><ele>253.00000000000003</ele><time>2026-04-26T09:04:38.999Z</time></trkpt><trkpt lat="43.273318969106604" lon="11.944732555877783"><ele>253.00000000000003</ele><time>2026-04-26T09:04:39.999Z</time></trkpt><trkpt lat="43.273253376529766" lon="11.944755193473224"><ele>253.0</ele><time>2026-04-26T09:04:40.999Z</time></trkpt><trkpt lat="43.27318828004172" lon="11.94477788801422"><ele>253.00000000000003</ele><time>2026-04-26T09:04:41.999Z</time></trkpt><trkpt lat="43.273122701148054" lon="11.944801167178202"><ele>253.00000000000003</ele><time>2026-04-26T09:04:42.999Z</time></trkpt><trkpt lat="43.273059477742585" lon="11.94482680500283"><ele>253.0</ele><time>2026-04-26T09:04:43.999Z</time></trkpt><trkpt lat="43.27299605179896" lon="11.944848308165467"><ele>253.00000000000003</ele><time>2026-04-26T09:04:44.999Z</time></trkpt><trkpt lat="43.272932501230024" lon="11.944872293627666"><ele>253.00000000000003</ele><time>2026-04-26T09:04:45.999Z</time></trkpt><trkpt lat="43.272869164018374" lon="11.944907563312208"><ele>252.8571428571429</ele><time>2026-04-26T09:04:46.999Z</time></trkpt><trkpt lat="43.272808104844394" lon="11.944953867349733"><ele>252.71428571428572</ele><time>2026-04-26T09:04:47.999Z</time></trkpt><trkpt lat="43.272751404449416" lon="11.945012488245252"><ele>252.57142857142858</ele><time>2026-04-26T09:04:48.999Z</time></trkpt><trkpt lat="43.27269994852978" lon="11.945079238249486"><ele>252.42857142857144</ele><time>2026-04-26T09:04:49.999Z</time></trkpt><trkpt lat="43.27265742997861" lon="11.945147537653137"><ele>252.28571428571428</ele><time>2026-04-26T09:04:50.999Z</time></trkpt><trkpt lat="43.27261605330759" lon="11.94521550962151"><ele>252.14285714285714</ele><time>2026-04-26T09:04:51.999Z</time></trkpt><trkpt lat="43.27257153212618" lon="11.945292366365459"><ele>252.0</ele><time>2026-04-26T09:04:52.999Z</time></trkpt><trkpt lat="43.27249777637893" lon="11.94542561407535"><ele>252.0</ele><time>2026-04-26T09:04:54.999Z</time></trkpt><trkpt lat="43.2724216232732" lon="11.94554530805917"><ele>252.0</ele><time>2026-04-26T09:04:56.999Z</time></trkpt><trkpt lat="43.27235125592188" lon="11.945654306240913"><ele>252.0</ele><time>2026-04-26T09:04:58.999Z</time></trkpt><trkpt lat="43.27229121587161" lon="11.945740440474218"><ele>252.0</ele><time>2026-04-26T09:05:00.999Z</time></trkpt><trkpt lat="43.272242910380974" lon="11.94580096906718"><ele>252.0</ele><time>2026-04-26T09:05:02.999Z</time></trkpt><trkpt lat="43.27219150951479" lon="11.94588680764982"><ele>251.39999999999998</ele><time>2026-04-26T09:05:04.999Z</time></trkpt><trkpt lat="43.27212997447576" lon="11.945986937350565"><ele>250.79999999999998</ele><time>2026-04-26T09:05:06.999Z</time></trkpt><trkpt lat="43.27206243183604" lon="11.946091526848024"><ele>250.2</ele><time>2026-04-26T09:05:08.999Z</time></trkpt><trkpt lat="43.271999787322656" lon="11.94619112229981"><ele>249.6</ele><time>2026-04-26T09:05:10.999Z</time></trkpt><trkpt lat="43.27194274485122" lon="11.94628706100802"><ele>249.0</ele><time>2026-04-26T09:05:12.999Z</time></trkpt><trkpt lat="43.27187868214333" lon="11.94637307781881"><ele>249.0</ele><time>2026-04-26T09:05:14.999Z</time></trkpt><trkpt lat="43.27180150100887" lon="11.946468572716924"><ele>248.99999999999997</ele><time>2026-04-26T09:05:16.999Z</time></trkpt><trkpt lat="43.27171454708135" lon="11.946551194917795"><ele>248.99999999999997</ele><time>2026-04-26T09:05:18.999Z</time></trkpt><trkpt lat="43.27162139310454" lon="11.946637196640653"><ele>249.0</ele><time>2026-04-26T09:05:20.999Z</time></trkpt><trkpt lat="43.271522969374345" lon="11.946713733563323"><ele>249.0</ele><time>2026-04-26T09:05:22.999Z</time></trkpt><trkpt lat="43.27141969154442" lon="11.946785232039366"><ele>249.2</ele><time>2026-04-26T09:05:24.999Z</time></trkpt><trkpt lat="43.271320166885516" lon="11.946845122907456"><ele>249.39999999999998</ele><time>2026-04-26T09:05:26.999Z</time></trkpt><trkpt lat="43.27121606274995" lon="11.94690701874317"><ele>249.6</ele><time>2026-04-26T09:05:28.999Z</time></trkpt><trkpt lat="43.271110193937645" lon="11.94696177670466"><ele>249.8</ele><time>2026-04-26T09:05:30.999Z</time></trkpt><trkpt lat="43.27100015949959" lon="11.94699989602711"><ele>250.0</ele><time>2026-04-26T09:05:32.999Z</time></trkpt><trkpt lat="43.27089233177538" lon="11.947027706060132"><ele>250.0</ele><time>2026-04-26T09:05:34.999Z</time></trkpt><trkpt lat="43.27078116321223" lon="11.947063741457463"><ele>250.0</ele><time>2026-04-26T09:05:36.999Z</time></trkpt><trkpt lat="43.2706699812366" lon="11.9471116239096"><ele>250.0</ele><time>2026-04-26T09:05:39Z</time></trkpt><trkpt lat="43.27057690095482" lon="11.947197762351138"><ele>250.0</ele><time>2026-04-26T09:05:41Z</time></trkpt><trkpt lat="43.270497405518825" lon="11.947309097770518"><ele>249.75</ele><time>2026-04-26T09:05:43Z</time></trkpt><trkpt lat="43.27042661489545" lon="11.947427225200592"><ele>249.5</ele><time>2026-04-26T09:05:45Z</time></trkpt><trkpt lat="43.27035430557673" lon="11.947542112112703"><ele>249.25</ele><time>2026-04-26T09:05:47Z</time></trkpt><trkpt lat="43.270280683755864" lon="11.94766370875811"><ele>249.0</ele><time>2026-04-26T09:05:49Z</time></trkpt><trkpt lat="43.27020075799167" lon="11.947788552858832"><ele>249.0</ele><time>2026-04-26T09:05:51Z</time></trkpt><trkpt lat="43.270128584040066" lon="11.947916599481259"><ele>249.0</ele><time>2026-04-26T09:05:53Z</time></trkpt><trkpt lat="43.270052656774446" lon="11.948044079364717"><ele>249.0</ele><time>2026-04-26T09:05:55Z</time></trkpt><trkpt lat="43.26997522336837" lon="11.948168060710623"><ele>249.0</ele><time>2026-04-26T09:05:57Z</time></trkpt><trkpt lat="43.26989123631554" lon="11.948288607756968"><ele>249.0</ele><time>2026-04-26T09:05:59Z</time></trkpt><trkpt lat="43.26980846814418" lon="11.948401685146894"><ele>249.0</ele><time>2026-04-26T09:06:01Z</time></trkpt><trkpt lat="43.26972629479781" lon="11.948501394180347"><ele>249.0</ele><time>2026-04-26T09:06:03Z</time></trkpt><trkpt lat="43.269641790657786" lon="11.948607279283632"><ele>249.0</ele><time>2026-04-26T09:06:05Z</time></trkpt><trkpt lat="43.26954733054434" lon="11.948701725317939"><ele>249.25</ele><time>2026-04-26T09:06:07Z</time></trkpt><trkpt lat="43.26945349458036" lon="11.94880100799334"><ele>249.5</ele><time>2026-04-26T09:06:09Z</time></trkpt><trkpt lat="43.26936078332209" lon="11.948899632674403"><ele>249.75</ele><time>2026-04-26T09:06:11Z</time></trkpt><trkpt lat="43.26927172248983" lon="11.949010657018615"><ele>250.0</ele><time>2026-04-26T09:06:13Z</time></trkpt><trkpt lat="43.26918768804446" lon="11.949126300548173"><ele>250.0</ele><time>2026-04-26T09:06:15Z</time></trkpt><trkpt lat="43.269099788319046" lon="11.949231822447668"><ele>250.0</ele><time>2026-04-26T09:06:17Z</time></trkpt><trkpt lat="43.269025192345" lon="11.949329799146241"><ele>250.0</ele><time>2026-04-26T09:06:19Z</time></trkpt><trkpt lat="43.26894041936819" lon="11.949254086325581"><ele>250.0</ele><time>2026-04-26T09:06:21Z</time></trkpt><trkpt lat="43.26887882692489" lon="11.949224791964077"><ele>250.0</ele><time>2026-04-26T09:06:23Z</time></trkpt><trkpt lat="43.26875162256039" lon="11.949126416242827"><ele>250.0</ele><time>2026-04-26T09:06:24.999Z</time></trkpt><trkpt lat="43.268649941154656" lon="11.94905160207086"><ele>250.0</ele><time>2026-04-26T09:06:26.999Z</time></trkpt><trkpt lat="43.2685480119926" lon="11.948975339479388"><ele>250.0</ele><time>2026-04-26T09:06:28.999Z</time></trkpt><trkpt lat="43.268442782996765" lon="11.948895897657328"><ele>250.0</ele><time>2026-04-26T09:06:30.999Z</time></trkpt><trkpt lat="43.26833934650243" lon="11.948818581132379"><ele>250.0</ele><time>2026-04-26T09:06:32.999Z</time></trkpt><trkpt lat="43.26824370531128" lon="11.948737866537602"><ele>250.0</ele><time>2026-04-26T09:06:34.999Z</time></trkpt><trkpt lat="43.26814223934962" lon="11.948665443743746"><ele>250.0</ele><time>2026-04-26T09:06:36.999Z</time></trkpt><trkpt lat="43.26804065292171" lon="11.948591053229244"><ele>250.0</ele><time>2026-04-26T09:06:38.999Z</time></trkpt><trkpt lat="43.26793795735439" lon="11.948515864632878"><ele>250.2</ele><time>2026-04-26T09:06:40.999Z</time></trkpt><trkpt lat="43.26783383450991" lon="11.948440693362771"><ele>250.4</ele><time>2026-04-26T09:06:42.999Z</time></trkpt><trkpt lat="43.26772977169145" lon="11.948375052485272"><ele>250.60000000000002</ele><time>2026-04-26T09:06:44.999Z</time></trkpt><trkpt lat="43.26764447409845" lon="11.948309632978093"><ele>250.8</ele><time>2026-04-26T09:06:46.999Z</time></trkpt><trkpt lat="43.26758611484069" lon="11.94826141873322"><ele>251.0</ele><time>2026-04-26T09:06:48.999Z</time></trkpt><trkpt lat="43.26747514004818" lon="11.94817281012704"><ele>251.16666666666669</ele><time>2026-04-26T09:06:50.999Z</time></trkpt><trkpt lat="43.2674159087438" lon="11.9481221296516"><ele>251.33333333333334</ele><time>2026-04-26T09:06:52.999Z</time></trkpt><trkpt lat="43.2673394723574" lon="11.948083958830873"><ele>251.5</ele><time>2026-04-26T09:06:57.999Z</time></trkpt><trkpt lat="43.26724482663427" lon="11.948139591981631"><ele>251.66666666666669</ele><time>2026-04-26T09:06:59.999Z</time></trkpt><trkpt lat="43.267169211102214" lon="11.94816873965086"><ele>251.83333333333334</ele><time>2026-04-26T09:07:01.999Z</time></trkpt><trkpt lat="43.267095549215725" lon="11.948137877319803"><ele>252.0</ele><time>2026-04-26T09:07:03.999Z</time></trkpt><trkpt lat="43.26701175517259" lon="11.948101094349033"><ele>252.0</ele><time>2026-04-26T09:07:05.999Z</time></trkpt><trkpt lat="43.26691910241863" lon="11.948080780759993"><ele>252.0</ele><time>2026-04-26T09:07:07.999Z</time></trkpt><trkpt lat="43.26680952530049" lon="11.948082353309907"><ele>252.0</ele><time>2026-04-26T09:07:09.999Z</time></trkpt><trkpt lat="43.266723847358776" lon="11.948076461983256"><ele>252.0</ele><time>2026-04-26T09:07:11.999Z</time></trkpt><trkpt lat="43.26657433731535" lon="11.948079155452579"><ele>252.0</ele><time>2026-04-26T09:07:14.999Z</time></trkpt><trkpt lat="43.266478957847454" lon="11.948079995053524"><ele>251.8</ele><time>2026-04-26T09:07:16.999Z</time></trkpt><trkpt lat="43.266384757197955" lon="11.948084209570336"><ele>251.6</ele><time>2026-04-26T09:07:18.999Z</time></trkpt><trkpt lat="43.26628679422337" lon="11.948091708710521"><ele>251.40000000000003</ele><time>2026-04-26T09:07:20.999Z</time></trkpt><trkpt lat="43.266193798312685" lon="11.948119183770912"><ele>251.20000000000002</ele><time>2026-04-26T09:07:22.999Z</time></trkpt><trkpt lat="43.26610105310037" lon="11.948132875755356"><ele>251.0</ele><time>2026-04-26T09:07:24.999Z</time></trkpt><trkpt lat="43.26600772061396" lon="11.948148680081145"><ele>251.0</ele><time>2026-04-26T09:07:26.999Z</time></trkpt><trkpt lat="43.26591288220471" lon="11.948169394482473"><ele>251.00000000000003</ele><time>2026-04-26T09:07:28.999Z</time></trkpt><trkpt lat="43.2658221128102" lon="11.948207330797763"><ele>251.00000000000003</ele><time>2026-04-26T09:07:30.999Z</time></trkpt><trkpt lat="43.265728570029665" lon="11.948234963908943"><ele>251.0</ele><time>2026-04-26T09:07:32.999Z</time></trkpt><trkpt lat="43.265632804148794" lon="11.948252126641425"><ele>251.0</ele><time>2026-04-26T09:07:34.999Z</time></trkpt><trkpt lat="43.26554387025434" lon="11.948267812452793"><ele>250.5</ele><time>2026-04-26T09:07:36.999Z</time></trkpt><trkpt lat="43.26545141393153" lon="11.948311751923008"><ele>250.0</ele><time>2026-04-26T09:07:38.999Z</time></trkpt><trkpt lat="43.265365846460504" lon="11.94835373128979"><ele>249.5</ele><time>2026-04-26T09:07:40.999Z</time></trkpt><trkpt lat="43.26527029937528" lon="11.948403225734966"><ele>249.0</ele><time>2026-04-26T09:07:43Z</time></trkpt><trkpt lat="43.265119806614585" lon="11.948490561312395"><ele>249.0</ele><time>2026-04-26T09:07:46Z</time></trkpt><trkpt lat="43.26502803507858" lon="11.948535138624232"><ele>248.99999999999997</ele><time>2026-04-26T09:07:48Z</time></trkpt><trkpt lat="43.264933613969674" lon="11.948563945354245"><ele>248.99999999999997</ele><time>2026-04-26T09:07:50Z</time></trkpt><trkpt lat="43.26483568747119" lon="11.948614080385504"><ele>249.0</ele><time>2026-04-26T09:07:52Z</time></trkpt><trkpt lat="43.264723754759444" lon="11.948635130389585"><ele>249.0</ele><time>2026-04-26T09:07:54Z</time></trkpt><trkpt lat="43.264610548956085" lon="11.948662449503248"><ele>249.0</ele><time>2026-04-26T09:07:56Z</time></trkpt><trkpt lat="43.264499545951395" lon="11.94866763195283"><ele>248.99999999999997</ele><time>2026-04-26T09:07:58Z</time></trkpt><trkpt lat="43.2644007271739" lon="11.948654868599778"><ele>248.99999999999997</ele><time>2026-04-26T09:08:00Z</time></trkpt><trkpt lat="43.26429738844138" lon="11.94857554939878"><ele>249.0</ele><time>2026-04-26T09:08:02Z</time></trkpt><trkpt lat="43.26419717041048" lon="11.94848916897482"><ele>249.0</ele><time>2026-04-26T09:08:04Z</time></trkpt><trkpt lat="43.264089654503856" lon="11.948435517793971"><ele>249.0</ele><time>2026-04-26T09:08:06Z</time></trkpt><trkpt lat="43.26398293005385" lon="11.948396620808479"><ele>249.0</ele><time>2026-04-26T09:08:08Z</time></trkpt><trkpt lat="43.26386924437974" lon="11.948346673205334"><ele>249.0</ele><time>2026-04-26T09:08:10Z</time></trkpt><trkpt lat="43.263744465665944" lon="11.94834736681949"><ele>249.0</ele><time>2026-04-26T09:08:12Z</time></trkpt><trkpt lat="43.26362948467605" lon="11.948398653860947"><ele>249.0</ele><time>2026-04-26T09:08:14Z</time></trkpt><trkpt lat="43.26356526786892" lon="11.948427853424759"><ele>249.0</ele><time>2026-04-26T09:08:15Z</time></trkpt><trkpt lat="43.263503211922234" lon="11.948464388314031"><ele>249.0</ele><time>2026-04-26T09:08:16Z</time></trkpt><trkpt lat="43.26339149468186" lon="11.948537269605826"><ele>249.0</ele><time>2026-04-26T09:08:18Z</time></trkpt><trkpt lat="43.2633306151152" lon="11.948574716295823"><ele>249.0</ele><time>2026-04-26T09:08:19Z</time></trkpt><trkpt lat="43.26326736255826" lon="11.948604509755583"><ele>249.0</ele><time>2026-04-26T09:08:20Z</time></trkpt><trkpt lat="43.263206969692725" lon="11.948632305458338"><ele>249.0</ele><time>2026-04-26T09:08:21Z</time></trkpt><trkpt lat="43.263144194330735" lon="11.948649934266326"><ele>249.0</ele><time>2026-04-26T09:08:22Z</time></trkpt><trkpt lat="43.26307828666723" lon="11.948662001567783"><ele>249.0</ele><time>2026-04-26T09:08:23Z</time></trkpt><trkpt lat="43.26301606352772" lon="11.948677225980665"><ele>249.0</ele><time>2026-04-26T09:08:24Z</time></trkpt><trkpt lat="43.26289626841009" lon="11.948709430541546"><ele>249.0</ele><time>2026-04-26T09:08:26Z</time></trkpt><trkpt lat="43.262776365519244" lon="11.94874319695296"><ele>249.0</ele><time>2026-04-26T09:08:28Z</time></trkpt><trkpt lat="43.262654762913876" lon="11.948776664195817"><ele>248.79999999999998</ele><time>2026-04-26T09:08:30Z</time></trkpt><trkpt lat="43.26253652254031" lon="11.948802532665963"><ele>248.59999999999997</ele><time>2026-04-26T09:08:32Z</time></trkpt><trkpt lat="43.262415740050535" lon="11.948812233116358"><ele>248.4</ele><time>2026-04-26T09:08:33.999Z</time></trkpt><trkpt lat="43.262294474196736" lon="11.948821608433613"><ele>248.2</ele><time>2026-04-26T09:08:35.999Z</time></trkpt><trkpt lat="43.262232921298526" lon="11.948843057662684"><ele>248.0</ele><time>2026-04-26T09:08:36.999Z</time></trkpt><trkpt lat="43.26216979377339" lon="11.948835517633137"><ele>248.0</ele><time>2026-04-26T09:08:37.999Z</time></trkpt><trkpt lat="43.262105948654266" lon="11.948841470559065"><ele>248.0</ele><time>2026-04-26T09:08:38.999Z</time></trkpt><trkpt lat="43.26204126891163" lon="11.948855341244922"><ele>248.0</ele><time>2026-04-26T09:08:39.999Z</time></trkpt><trkpt lat="43.26191914918594" lon="11.94887070174035"><ele>248.0</ele><time>2026-04-26T09:08:41.999Z</time></trkpt><trkpt lat="43.26180322466016" lon="11.948876672025841"><ele>248.0</ele><time>2026-04-26T09:08:43.999Z</time></trkpt><trkpt lat="43.26168792682254" lon="11.948898653576247"><ele>248.0</ele><time>2026-04-26T09:08:45.999Z</time></trkpt><trkpt lat="43.26156447725204" lon="11.948940845702714"><ele>248.0</ele><time>2026-04-26T09:08:47.999Z</time></trkpt><trkpt lat="43.26144227285579" lon="11.94897211395194"><ele>248.0</ele><time>2026-04-26T09:08:49.999Z</time></trkpt><trkpt lat="43.26132802870648" lon="11.94896376731797"><ele>248.0</ele><time>2026-04-26T09:08:51.999Z</time></trkpt><trkpt lat="43.26121986402753" lon="11.948967204692162"><ele>248.4</ele><time>2026-04-26T09:08:53.999Z</time></trkpt><trkpt lat="43.261105631224844" lon="11.94895467620881"><ele>248.8</ele><time>2026-04-26T09:08:55.999Z</time></trkpt><trkpt lat="43.26100326356628" lon="11.94894781328005"><ele>249.2</ele><time>2026-04-26T09:08:57.999Z</time></trkpt><trkpt lat="43.260904419742644" lon="11.948934274886687"><ele>249.6</ele><time>2026-04-26T09:08:59.999Z</time></trkpt><trkpt lat="43.260803870325645" lon="11.948936166310233"><ele>250.0</ele><time>2026-04-26T09:09:01.999Z</time></trkpt><trkpt lat="43.26070990921887" lon="11.948940833248027"><ele>250.0</ele><time>2026-04-26T09:09:03.999Z</time></trkpt><trkpt lat="43.260617547935134" lon="11.948933163552207"><ele>250.0</ele><time>2026-04-26T09:09:05.999Z</time></trkpt><trkpt lat="43.260526846635344" lon="11.94893176193763"><ele>250.0</ele><time>2026-04-26T09:09:07.999Z</time></trkpt><trkpt lat="43.2604154209327" lon="11.948919384536607"><ele>250.0</ele><time>2026-04-26T09:09:09.999Z</time></trkpt><trkpt lat="43.26029330288624" lon="11.948873573303798"><ele>250.0</ele><time>2026-04-26T09:09:11.999Z</time></trkpt><trkpt lat="43.260229972102465" lon="11.948849155552017"><ele>250.0</ele><time>2026-04-26T09:09:12.999Z</time></trkpt><trkpt lat="43.260170215901" lon="11.948816688361225"><ele>250.0</ele><time>2026-04-26T09:09:13.999Z</time></trkpt><trkpt lat="43.260113206744826" lon="11.948778464673218"><ele>250.0</ele><time>2026-04-26T09:09:14.999Z</time></trkpt><trkpt lat="43.260053040220306" lon="11.948736802393254"><ele>250.0</ele><time>2026-04-26T09:09:15.999Z</time></trkpt><trkpt lat="43.26000135070034" lon="11.9486747241007"><ele>250.0</ele><time>2026-04-26T09:09:16.999Z</time></trkpt><trkpt lat="43.25994291788509" lon="11.948628177177167"><ele>250.0</ele><time>2026-04-26T09:09:17.999Z</time></trkpt><trkpt lat="43.25988565301181" lon="11.9485825974342"><ele>250.0</ele><time>2026-04-26T09:09:18.999Z</time></trkpt><trkpt lat="43.25982896073898" lon="11.94853961595066"><ele>249.99999999999997</ele><time>2026-04-26T09:09:19.999Z</time></trkpt><trkpt lat="43.25977192818417" lon="11.948501678485183"><ele>250.0</ele><time>2026-04-26T09:09:20.999Z</time></trkpt><trkpt lat="43.259710466455175" lon="11.948467737896516"><ele>250.0</ele><time>2026-04-26T09:09:21.999Z</time></trkpt><trkpt lat="43.25964490297707" lon="11.948457880506025"><ele>250.0</ele><time>2026-04-26T09:09:22.999Z</time></trkpt><trkpt lat="43.25952531317932" lon="11.948405418749713"><ele>249.99999999999997</ele><time>2026-04-26T09:09:24.999Z</time></trkpt><trkpt lat="43.25946104522547" lon="11.948388690412964"><ele>250.0</ele><time>2026-04-26T09:09:25.999Z</time></trkpt><trkpt lat="43.25939903501644" lon="11.948371412654316"><ele>250.0</ele><time>2026-04-26T09:09:26.999Z</time></trkpt><trkpt lat="43.25927730352093" lon="11.948332089858987"><ele>250.0</ele><time>2026-04-26T09:09:28.999Z</time></trkpt><trkpt lat="43.2591553598282" lon="11.948299776566156"><ele>250.0</ele><time>2026-04-26T09:09:30.999Z</time></trkpt><trkpt lat="43.2590329650504" lon="11.948258673175435"><ele>250.0</ele><time>2026-04-26T09:09:32.999Z</time></trkpt><trkpt lat="43.25896817835961" lon="11.948235473027458"><ele>250.0</ele><time>2026-04-26T09:09:33.999Z</time></trkpt><trkpt lat="43.258902097955605" lon="11.948213881807293"><ele>250.0</ele><time>2026-04-26T09:09:34.999Z</time></trkpt><trkpt lat="43.258833280876544" lon="11.948188434569776"><ele>250.0</ele><time>2026-04-26T09:09:35.999Z</time></trkpt><trkpt lat="43.258766669725254" lon="11.948164055906451"><ele>250.0</ele><time>2026-04-26T09:09:36.999Z</time></trkpt><trkpt lat="43.25870000935097" lon="11.948134506322912"><ele>250.0</ele><time>2026-04-26T09:09:37.999Z</time></trkpt><trkpt lat="43.25863498886795" lon="11.948109447100405"><ele>250.0</ele><time>2026-04-26T09:09:38.999Z</time></trkpt><trkpt lat="43.25857058445592" lon="11.948087694937543"><ele>250.0</ele><time>2026-04-26T09:09:39.999Z</time></trkpt><trkpt lat="43.258506240884984" lon="11.948065536373269"><ele>250.0</ele><time>2026-04-26T09:09:40.999Z</time></trkpt><trkpt lat="43.25844405123173" lon="11.948041432801885"><ele>250.0</ele><time>2026-04-26T09:09:41.999Z</time></trkpt><trkpt lat="43.25838255309549" lon="11.9480168835735"><ele>250.0</ele><time>2026-04-26T09:09:42.999Z</time></trkpt><trkpt lat="43.25832209978724" lon="11.947986409088239"><ele>250.0</ele><time>2026-04-26T09:09:43.999Z</time></trkpt><trkpt lat="43.258208375863546" lon="11.947934952616036"><ele>250.0</ele><time>2026-04-26T09:09:45.999Z</time></trkpt><trkpt lat="43.25814760393583" lon="11.94791055352243"><ele>250.0</ele><time>2026-04-26T09:09:46.999Z</time></trkpt><trkpt lat="43.25809582275812" lon="11.947861327018355"><ele>250.0</ele><time>2026-04-26T09:09:47.999Z</time></trkpt><trkpt lat="43.25803838299264" lon="11.947824069102955"><ele>250.0</ele><time>2026-04-26T09:09:49Z</time></trkpt><trkpt lat="43.257981622248174" lon="11.947785935248186"><ele>250.0</ele><time>2026-04-26T09:09:50Z</time></trkpt><trkpt lat="43.257925137415604" lon="11.947742396446017"><ele>250.0</ele><time>2026-04-26T09:09:51Z</time></trkpt><trkpt lat="43.257863942540766" lon="11.947711666419929"><ele>250.0</ele><time>2026-04-26T09:09:52Z</time></trkpt><trkpt lat="43.25780919302272" lon="11.947656844748519"><ele>250.0</ele><time>2026-04-26T09:09:53Z</time></trkpt><trkpt lat="43.25775657469531" lon="11.947597046478386"><ele>250.0</ele><time>2026-04-26T09:09:54Z</time></trkpt><trkpt lat="43.257704174498215" lon="11.947535303316494"><ele>250.0</ele><time>2026-04-26T09:09:55Z</time></trkpt><trkpt lat="43.257664253655186" lon="11.947464782199278"><ele>250.0</ele><time>2026-04-26T09:09:56Z</time></trkpt><trkpt lat="43.25761931700285" lon="11.947403761390033"><ele>250.0</ele><time>2026-04-26T09:09:57Z</time></trkpt><trkpt lat="43.257571913633505" lon="11.947337764192456"><ele>250.0</ele><time>2026-04-26T09:09:58Z</time></trkpt><trkpt lat="43.25752923316614" lon="11.94726962708558"><ele>250.0</ele><time>2026-04-26T09:09:59Z</time></trkpt><trkpt lat="43.257487163564996" lon="11.94720181565506"><ele>250.0</ele><time>2026-04-26T09:10:00Z</time></trkpt><trkpt lat="43.25744136264531" lon="11.947125008787264"><ele>250.0</ele><time>2026-04-26T09:10:01Z</time></trkpt><trkpt lat="43.257397180720396" lon="11.947048415038587"><ele>250.0</ele><time>2026-04-26T09:10:02Z</time></trkpt><trkpt lat="43.25735336888776" lon="11.946972462939087"><ele>250.0</ele><time>2026-04-26T09:10:03Z</time></trkpt><trkpt lat="43.25731143901641" lon="11.94689730541939"><ele>250.0</ele><time>2026-04-26T09:10:04Z</time></trkpt><trkpt lat="43.25725683630035" lon="11.946836663681598"><ele>250.0</ele><time>2026-04-26T09:10:05Z</time></trkpt><trkpt lat="43.25721576755565" lon="11.946757280781647"><ele>250.0</ele><time>2026-04-26T09:10:06Z</time></trkpt><trkpt lat="43.25717408332658" lon="11.946677305317117"><ele>250.0</ele><time>2026-04-26T09:10:07Z</time></trkpt><trkpt lat="43.25713333730158" lon="11.94660106546918"><ele>250.0</ele><time>2026-04-26T09:10:08Z</time></trkpt><trkpt lat="43.25708912192943" lon="11.946525373433168"><ele>250.0</ele><time>2026-04-26T09:10:09Z</time></trkpt><trkpt lat="43.25705839370898" lon="11.946436628102058"><ele>250.0</ele><time>2026-04-26T09:10:10Z</time></trkpt><trkpt lat="43.25701772029746" lon="11.946361997437073"><ele>249.99999999999997</ele><time>2026-04-26T09:10:11Z</time></trkpt><trkpt lat="43.2569776273441" lon="11.94628617453897"><ele>250.0</ele><time>2026-04-26T09:10:12Z</time></trkpt><trkpt lat="43.25693816884161" lon="11.946211477227505"><ele>250.0</ele><time>2026-04-26T09:10:13Z</time></trkpt><trkpt lat="43.256902241764486" lon="11.946138395500725"><ele>250.0</ele><time>2026-04-26T09:10:14Z</time></trkpt><trkpt lat="43.25683821390852" lon="11.94599463939923"><ele>249.99999999999997</ele><time>2026-04-26T09:10:16Z</time></trkpt><trkpt lat="43.25677916670434" lon="11.945842385543626"><ele>250.0</ele><time>2026-04-26T09:10:18Z</time></trkpt><trkpt lat="43.25675066167364" lon="11.945762939082536"><ele>249.71428571428572</ele><time>2026-04-26T09:10:19Z</time></trkpt><trkpt lat="43.256721523016815" lon="11.94568172663034"><ele>249.42857142857144</ele><time>2026-04-26T09:10:20Z</time></trkpt><trkpt lat="43.25669224165579" lon="11.94560011646549"><ele>249.14285714285717</ele><time>2026-04-26T09:10:21Z</time></trkpt><trkpt lat="43.256658556262536" lon="11.945515267494569"><ele>248.85714285714286</ele><time>2026-04-26T09:10:22Z</time></trkpt><trkpt lat="43.256622745690905" lon="11.945437842698269"><ele>248.5714285714286</ele><time>2026-04-26T09:10:23Z</time></trkpt><trkpt lat="43.25657990250393" lon="11.945358390853993"><ele>248.2857142857143</ele><time>2026-04-26T09:10:24Z</time></trkpt><trkpt lat="43.25653414781555" lon="11.945286812580791"><ele>248.0</ele><time>2026-04-26T09:10:25Z</time></trkpt><trkpt lat="43.25648931629663" lon="11.945216339428645"><ele>247.71428571428572</ele><time>2026-04-26T09:10:26Z</time></trkpt><trkpt lat="43.25644839596497" lon="11.94514803639455"><ele>247.42857142857144</ele><time>2026-04-26T09:10:27Z</time></trkpt><trkpt lat="43.256405403500565" lon="11.945073424578492"><ele>247.14285714285717</ele><time>2026-04-26T09:10:28Z</time></trkpt><trkpt lat="43.256360352183236" lon="11.944995239700155"><ele>246.8571428571429</ele><time>2026-04-26T09:10:29Z</time></trkpt><trkpt lat="43.256318752254415" lon="11.944920778359785"><ele>246.57142857142858</ele><time>2026-04-26T09:10:30Z</time></trkpt><trkpt lat="43.25627726079506" lon="11.94484308417069"><ele>246.28571428571433</ele><time>2026-04-26T09:10:31Z</time></trkpt><trkpt lat="43.25623878700765" lon="11.944763983617118"><ele>246.00000000000003</ele><time>2026-04-26T09:10:32Z</time></trkpt><trkpt lat="43.256201561953176" lon="11.94468044370014"><ele>246.00000000000003</ele><time>2026-04-26T09:10:33Z</time></trkpt><trkpt lat="43.25616882072141" lon="11.944598239455242"><ele>246.0</ele><time>2026-04-26T09:10:34Z</time></trkpt><trkpt lat="43.25613658356709" lon="11.944513467679714"><ele>246.00000000000003</ele><time>2026-04-26T09:10:35Z</time></trkpt><trkpt lat="43.2561051942673" lon="11.944428167423387"><ele>246.00000000000003</ele><time>2026-04-26T09:10:36Z</time></trkpt><trkpt lat="43.25607389450274" lon="11.944342493745063"><ele>246.0</ele><time>2026-04-26T09:10:37Z</time></trkpt><trkpt lat="43.2560439589751" lon="11.944260554253585"><ele>246.00000000000003</ele><time>2026-04-26T09:10:38Z</time></trkpt><trkpt lat="43.25601381668814" lon="11.944178048828343"><ele>246.00000000000003</ele><time>2026-04-26T09:10:39Z</time></trkpt><trkpt lat="43.25598275138656" lon="11.944095167226173"><ele>246.14285714285717</ele><time>2026-04-26T09:10:40Z</time></trkpt><trkpt lat="43.2559515465135" lon="11.944014149617487"><ele>246.28571428571428</ele><time>2026-04-26T09:10:41Z</time></trkpt><trkpt lat="43.25592096375223" lon="11.943934747185233"><ele>246.42857142857144</ele><time>2026-04-26T09:10:42Z</time></trkpt><trkpt lat="43.255890469050534" lon="11.943855573372009"><ele>246.57142857142858</ele><time>2026-04-26T09:10:43Z</time></trkpt><trkpt lat="43.25585894411627" lon="11.943780597517879"><ele>246.71428571428572</ele><time>2026-04-26T09:10:44Z</time></trkpt><trkpt lat="43.25582542718539" lon="11.9437053394258"><ele>246.85714285714286</ele><time>2026-04-26T09:10:45Z</time></trkpt><trkpt lat="43.25575767501965" lon="11.943577463155906"><ele>247.0</ele><time>2026-04-26T09:10:47Z</time></trkpt><trkpt lat="43.25570851262507" lon="11.943517438613386"><ele>246.99999999999997</ele><time>2026-04-26T09:10:48Z</time></trkpt><trkpt lat="43.25564373477701" lon="11.943483098702671"><ele>247.0</ele><time>2026-04-26T09:10:49Z</time></trkpt><trkpt lat="43.255574792476025" lon="11.943482589549534"><ele>247.0</ele><time>2026-04-26T09:10:50Z</time></trkpt><trkpt lat="43.255456818533254" lon="11.943489065756022"><ele>247.0</ele><time>2026-04-26T09:10:52Z</time></trkpt><trkpt lat="43.255391655102976" lon="11.943488441953843"><ele>246.99999999999997</ele><time>2026-04-26T09:10:53Z</time></trkpt><trkpt lat="43.25532578527805" lon="11.943488188297863"><ele>247.0</ele><time>2026-04-26T09:10:54Z</time></trkpt><trkpt lat="43.25526212771294" lon="11.94348869881486"><ele>246.8</ele><time>2026-04-26T09:10:55Z</time></trkpt><trkpt lat="43.25513681822217" lon="11.943488333541453"><ele>246.6</ele><time>2026-04-26T09:10:57Z</time></trkpt><trkpt lat="43.25507178789524" lon="11.943487012383216"><ele>246.40000000000003</ele><time>2026-04-26T09:10:58Z</time></trkpt><trkpt lat="43.255004581705194" lon="11.94348421562711"><ele>246.20000000000002</ele><time>2026-04-26T09:10:59Z</time></trkpt><trkpt lat="43.25493445574433" lon="11.943480701772097"><ele>246.0</ele><time>2026-04-26T09:11:00Z</time></trkpt><trkpt lat="43.254806901455304" lon="11.943494013820562"><ele>246.4</ele><time>2026-04-26T09:11:01.999Z</time></trkpt><trkpt lat="43.25474341656684" lon="11.943486185659511"><ele>246.8</ele><time>2026-04-26T09:11:02.999Z</time></trkpt><trkpt lat="43.254683063761306" lon="11.943457900771262"><ele>247.20000000000002</ele><time>2026-04-26T09:11:03.999Z</time></trkpt><trkpt lat="43.25455859550007" lon="11.943454473511437"><ele>247.60000000000002</ele><time>2026-04-26T09:11:05.999Z</time></trkpt><trkpt lat="43.25443869773273" lon="11.94342263075056"><ele>248.0</ele><time>2026-04-26T09:11:07.999Z</time></trkpt><trkpt lat="43.2543154112267" lon="11.9433955117253"><ele>248.0</ele><time>2026-04-26T09:11:09.999Z</time></trkpt><trkpt lat="43.25425155527616" lon="11.943383174289496"><ele>248.00000000000003</ele><time>2026-04-26T09:11:10.999Z</time></trkpt><trkpt lat="43.25418783667946" lon="11.943376608966888"><ele>248.0</ele><time>2026-04-26T09:11:11.999Z</time></trkpt><trkpt lat="43.25412164806736" lon="11.943372757026715"><ele>248.0</ele><time>2026-04-26T09:11:12.999Z</time></trkpt><trkpt lat="43.254055615854234" lon="11.943362326826595"><ele>248.00000000000003</ele><time>2026-04-26T09:11:13.999Z</time></trkpt><trkpt lat="43.25399240467687" lon="11.943350878269415"><ele>248.0</ele><time>2026-04-26T09:11:14.999Z</time></trkpt><trkpt lat="43.25392942575337" lon="11.94334746001356"><ele>248.0</ele><time>2026-04-26T09:11:15.999Z</time></trkpt><trkpt lat="43.2538684548757" lon="11.943324606799779"><ele>248.5</ele><time>2026-04-26T09:11:16.999Z</time></trkpt><trkpt lat="43.25374911341177" lon="11.943306265109646"><ele>249.0</ele><time>2026-04-26T09:11:18.999Z</time></trkpt><trkpt lat="43.25363772693046" lon="11.94328425446481"><ele>249.5</ele><time>2026-04-26T09:11:20.999Z</time></trkpt><trkpt lat="43.25352186819545" lon="11.943260329329997"><ele>250.0</ele><time>2026-04-26T09:11:22.999Z</time></trkpt><trkpt lat="43.253403557109166" lon="11.943235897783522"><ele>250.0</ele><time>2026-04-26T09:11:24.999Z</time></trkpt><trkpt lat="43.25328416264092" lon="11.943215795728616"><ele>250.0</ele><time>2026-04-26T09:11:26.999Z</time></trkpt><trkpt lat="43.253166590370185" lon="11.943196162052503"><ele>250.0</ele><time>2026-04-26T09:11:28.999Z</time></trkpt><trkpt lat="43.25305199028021" lon="11.943200036855288"><ele>250.0</ele><time>2026-04-26T09:11:30.999Z</time></trkpt><trkpt lat="43.252862327110385" lon="11.943161011516203"><ele>249.99999999999997</ele><time>2026-04-26T09:11:33.999Z</time></trkpt><trkpt lat="43.25279725093554" lon="11.943158552417616"><ele>250.0</ele><time>2026-04-26T09:11:34.999Z</time></trkpt><trkpt lat="43.25273177964199" lon="11.943158018812213"><ele>250.0</ele><time>2026-04-26T09:11:35.999Z</time></trkpt><trkpt lat="43.25266604206204" lon="11.943180180651186"><ele>250.0</ele><time>2026-04-26T09:11:36.999Z</time></trkpt><trkpt lat="43.25260244548315" lon="11.943163424315822"><ele>249.99999999999997</ele><time>2026-04-26T09:11:37.999Z</time></trkpt><trkpt lat="43.252537248262854" lon="11.943170628919836"><ele>250.0</ele><time>2026-04-26T09:11:38.999Z</time></trkpt><trkpt lat="43.25241733619268" lon="11.943222413586522"><ele>250.0</ele><time>2026-04-26T09:11:40.999Z</time></trkpt><trkpt lat="43.25229815394629" lon="11.943268050339706"><ele>250.0</ele><time>2026-04-26T09:11:42.999Z</time></trkpt><trkpt lat="43.25223563741912" lon="11.943297372198577"><ele>250.0</ele><time>2026-04-26T09:11:43.999Z</time></trkpt><trkpt lat="43.25217806963995" lon="11.94333453496192"><ele>250.0</ele><time>2026-04-26T09:11:44.999Z</time></trkpt><trkpt lat="43.25211836773408" lon="11.943374772272088"><ele>250.0</ele><time>2026-04-26T09:11:45.999Z</time></trkpt><trkpt lat="43.25205361122453" lon="11.943375765016103"><ele>250.0</ele><time>2026-04-26T09:11:46.999Z</time></trkpt><trkpt lat="43.25199158306294" lon="11.943395067025223"><ele>250.0</ele><time>2026-04-26T09:11:47.999Z</time></trkpt><trkpt lat="43.251874965701866" lon="11.94342511871074"><ele>250.75</ele><time>2026-04-26T09:11:49.999Z</time></trkpt><trkpt lat="43.25176330781019" lon="11.943464262614597"><ele>251.5</ele><time>2026-04-26T09:11:51.999Z</time></trkpt><trkpt lat="43.25168749727012" lon="11.943454453962923"><ele>252.25</ele><time>2026-04-26T09:11:53.999Z</time></trkpt><trkpt lat="43.2516119116826" lon="11.943537606797634"><ele>253.0</ele><time>2026-04-26T09:11:58Z</time></trkpt><trkpt lat="43.25184341247178" lon="11.94346549379745"><ele>253.00000000000003</ele><time>2026-04-26T09:11:59Z</time></trkpt><trkpt lat="43.251731335328024" lon="11.94346698486408"><ele>253.0</ele><time>2026-04-26T09:12:05Z</time></trkpt><trkpt lat="43.251667095663045" lon="11.9434669555689"><ele>253.00000000000003</ele><time>2026-04-26T09:12:06Z</time></trkpt><trkpt lat="43.25159610975274" lon="11.943463382605938"><ele>253.00000000000003</ele><time>2026-04-26T09:12:07Z</time></trkpt><trkpt lat="43.25153005303975" lon="11.943458796997385"><ele>253.0</ele><time>2026-04-26T09:12:08Z</time></trkpt><trkpt lat="43.251467383600676" lon="11.943443466235207"><ele>253.00000000000003</ele><time>2026-04-26T09:12:09Z</time></trkpt><trkpt lat="43.25140509134206" lon="11.943428355149354"><ele>253.00000000000003</ele><time>2026-04-26T09:12:10Z</time></trkpt><trkpt lat="43.25133728069392" lon="11.943413147929377"><ele>253.16666666666666</ele><time>2026-04-26T09:12:11Z</time></trkpt><trkpt lat="43.251265168416" lon="11.943389276663508"><ele>253.33333333333331</ele><time>2026-04-26T09:12:12Z</time></trkpt><trkpt lat="43.251195258224065" lon="11.943367528564306"><ele>253.5</ele><time>2026-04-26T09:12:13Z</time></trkpt><trkpt lat="43.25112994469036" lon="11.943338779352025"><ele>253.66666666666669</ele><time>2026-04-26T09:12:14Z</time></trkpt><trkpt lat="43.251068023015755" lon="11.94331645881542"><ele>253.83333333333334</ele><time>2026-04-26T09:12:15Z</time></trkpt><trkpt lat="43.2510144713901" lon="11.943268274123241"><ele>254.0</ele><time>2026-04-26T09:12:16Z</time></trkpt><trkpt lat="43.25089253789266" lon="11.94324619676436"><ele>254.0</ele><time>2026-04-26T09:12:18Z</time></trkpt><trkpt lat="43.250777014331106" lon="11.943203580855432"><ele>253.99999999999997</ele><time>2026-04-26T09:12:20Z</time></trkpt><trkpt lat="43.250664339052896" lon="11.943141622216517"><ele>253.99999999999997</ele><time>2026-04-26T09:12:22Z</time></trkpt><trkpt lat="43.25057222607225" lon="11.943053513003987"><ele>254.0</ele><time>2026-04-26T09:12:24Z</time></trkpt><trkpt lat="43.25051360915154" lon="11.943020851222942"><ele>254.0</ele><time>2026-04-26T09:12:25Z</time></trkpt><trkpt lat="43.25045821091959" lon="11.942976898044673"><ele>254.6</ele><time>2026-04-26T09:12:26Z</time></trkpt><trkpt lat="43.25038723910689" lon="11.942890751000004"><ele>255.2</ele><time>2026-04-26T09:12:28Z</time></trkpt><trkpt lat="43.25032748926876" lon="11.94283392859905"><ele>255.79999999999998</ele><time>2026-04-26T09:12:31Z</time></trkpt><trkpt lat="43.250200806280276" lon="11.942931108893289"><ele>256.4</ele><time>2026-04-26T09:12:35Z</time></trkpt><trkpt lat="43.2501346640269" lon="11.943065318930687"><ele>257.0</ele><time>2026-04-26T09:12:37Z</time></trkpt><trkpt lat="43.25005487056455" lon="11.943194778982486"><ele>257.0</ele><time>2026-04-26T09:12:39Z</time></trkpt><trkpt lat="43.2500201274987" lon="11.94326780928152"><ele>257.0</ele><time>2026-04-26T09:12:40Z</time></trkpt><trkpt lat="43.249983671432496" lon="11.943342764517089"><ele>257.0</ele><time>2026-04-26T09:12:41Z</time></trkpt><trkpt lat="43.24991381688374" lon="11.9434809880848"><ele>257.0</ele><time>2026-04-26T09:12:43Z</time></trkpt><trkpt lat="43.24984765708139" lon="11.943611458315173"><ele>257.0</ele><time>2026-04-26T09:12:45Z</time></trkpt><trkpt lat="43.24976886370799" lon="11.94373324034223"><ele>257.0</ele><time>2026-04-26T09:12:47Z</time></trkpt><trkpt lat="43.24972381854765" lon="11.943795349083372"><ele>257.0</ele><time>2026-04-26T09:12:48Z</time></trkpt><trkpt lat="43.249640216433114" lon="11.943918386017263"><ele>257.0</ele><time>2026-04-26T09:12:50Z</time></trkpt><trkpt lat="43.24954385877551" lon="11.944022052861927"><ele>257.0</ele><time>2026-04-26T09:12:52Z</time></trkpt><trkpt lat="43.24948721074937" lon="11.944073166586309"><ele>257.0</ele><time>2026-04-26T09:12:53Z</time></trkpt><trkpt lat="43.249427283078575" lon="11.944115474864217"><ele>257.0</ele><time>2026-04-26T09:12:54Z</time></trkpt><trkpt lat="43.24935979453717" lon="11.944151961085067"><ele>257.0</ele><time>2026-04-26T09:12:55Z</time></trkpt><trkpt lat="43.24929104146013" lon="11.944175455226498"><ele>257.0</ele><time>2026-04-26T09:12:56Z</time></trkpt><trkpt lat="43.249220903011356" lon="11.944213426486906"><ele>257.0</ele><time>2026-04-26T09:12:57Z</time></trkpt><trkpt lat="43.249149748202164" lon="11.94424141791419"><ele>257.0</ele><time>2026-04-26T09:12:58Z</time></trkpt><trkpt lat="43.249080129311004" lon="11.94426854935107"><ele>257.0</ele><time>2026-04-26T09:12:59Z</time></trkpt><trkpt lat="43.24895400735203" lon="11.944316796756585"><ele>257.0</ele><time>2026-04-26T09:13:01Z</time></trkpt><trkpt lat="43.24888266482347" lon="11.944343022731346"><ele>257.1428571428571</ele><time>2026-04-26T09:13:02Z</time></trkpt><trkpt lat="43.248811561205365" lon="11.944366996297267"><ele>257.2857142857143</ele><time>2026-04-26T09:13:03Z</time></trkpt><trkpt lat="43.248741949274866" lon="11.944396286895664"><ele>257.42857142857144</ele><time>2026-04-26T09:13:04Z</time></trkpt><trkpt lat="43.24867146075617" lon="11.944419857559682"><ele>257.57142857142856</ele><time>2026-04-26T09:13:05Z</time></trkpt><trkpt lat="43.248603064891945" lon="11.944445820738977"><ele>257.7142857142857</ele><time>2026-04-26T09:13:06Z</time></trkpt><trkpt lat="43.24854000994392" lon="11.944477196264131"><ele>257.85714285714283</ele><time>2026-04-26T09:13:07Z</time></trkpt><trkpt lat="43.24848090959772" lon="11.944519743537235"><ele>258.0</ele><time>2026-04-26T09:13:08Z</time></trkpt><trkpt lat="43.24842160486792" lon="11.944562546635577"><ele>258.0</ele><time>2026-04-26T09:13:09Z</time></trkpt><trkpt lat="43.24836566930494" lon="11.944610024966968"><ele>258.0</ele><time>2026-04-26T09:13:10Z</time></trkpt><trkpt lat="43.24826171337297" lon="11.94470750207859"><ele>258.0</ele><time>2026-04-26T09:13:12Z</time></trkpt><trkpt lat="43.24820718677903" lon="11.944755711174352"><ele>258.0</ele><time>2026-04-26T09:13:13Z</time></trkpt><trkpt lat="43.24809714733793" lon="11.944824954296639"><ele>258.0</ele><time>2026-04-26T09:13:15Z</time></trkpt><trkpt lat="43.247996923359004" lon="11.944894444839973"><ele>258.0</ele><time>2026-04-26T09:13:17Z</time></trkpt><trkpt lat="43.24788985510307" lon="11.94497471949061"><ele>258.0</ele><time>2026-04-26T09:13:19Z</time></trkpt><trkpt lat="43.24778186469262" lon="11.945040061880842"><ele>258.0</ele><time>2026-04-26T09:13:21Z</time></trkpt><trkpt lat="43.24767065312803" lon="11.94511256341077"><ele>258.0</ele><time>2026-04-26T09:13:22.999Z</time></trkpt><trkpt lat="43.24761450027737" lon="11.945152197942502"><ele>258.0</ele><time>2026-04-26T09:13:23.999Z</time></trkpt><trkpt lat="43.24755413531642" lon="11.945185667176743"><ele>257.99999999999994</ele><time>2026-04-26T09:13:24.999Z</time></trkpt><trkpt lat="43.247493474304584" lon="11.945222598965131"><ele>258.0</ele><time>2026-04-26T09:13:25.999Z</time></trkpt><trkpt lat="43.24743358283526" lon="11.94526585464285"><ele>258.0</ele><time>2026-04-26T09:13:26.999Z</time></trkpt><trkpt lat="43.247371711026666" lon="11.94531021543697"><ele>258.0</ele><time>2026-04-26T09:13:27.999Z</time></trkpt><trkpt lat="43.247309720073055" lon="11.945346774145833"><ele>258.0</ele><time>2026-04-26T09:13:28.999Z</time></trkpt><trkpt lat="43.24725089055912" lon="11.945383849059176"><ele>257.99999999999994</ele><time>2026-04-26T09:13:29.999Z</time></trkpt><trkpt lat="43.24719187827638" lon="11.945421339014072"><ele>258.0</ele><time>2026-04-26T09:13:30.999Z</time></trkpt><trkpt lat="43.24707421094133" lon="11.94547897483649"><ele>258.0</ele><time>2026-04-26T09:13:32.999Z</time></trkpt><trkpt lat="43.246960674388056" lon="11.94552529514939"><ele>258.0</ele><time>2026-04-26T09:13:34.999Z</time></trkpt><trkpt lat="43.24689463061912" lon="11.94554548619847"><ele>258.0</ele><time>2026-04-26T09:13:35.999Z</time></trkpt><trkpt lat="43.24682857585951" lon="11.945573382066021"><ele>258.0</ele><time>2026-04-26T09:13:36.999Z</time></trkpt><trkpt lat="43.2467135320613" lon="11.945592777149532"><ele>258.0</ele><time>2026-04-26T09:13:38.999Z</time></trkpt><trkpt lat="43.246607234836034" lon="11.945636339205945"><ele>258.0</ele><time>2026-04-26T09:13:40.999Z</time></trkpt><trkpt lat="43.2465336086879" lon="11.945683957226944"><ele>258.0</ele><time>2026-04-26T09:13:43.999Z</time></trkpt><trkpt lat="43.246455950310676" lon="11.94569328462754"><ele>258.0</ele><time>2026-04-26T09:13:46.999Z</time></trkpt><trkpt lat="43.24637612458165" lon="11.945755994041908"><ele>258.0</ele><time>2026-04-26T09:13:48.999Z</time></trkpt><trkpt lat="43.246306775513766" lon="11.945832535145435"><ele>258.0</ele><time>2026-04-26T09:13:50.999Z</time></trkpt><trkpt lat="43.246257261655764" lon="11.946022087751068"><ele>258.0</ele><time>2026-04-26T09:13:53.999Z</time></trkpt><trkpt lat="43.24624236247483" lon="11.94617325857412"><ele>258.0</ele><time>2026-04-26T09:13:55.999Z</time></trkpt><trkpt lat="43.24623223727077" lon="11.946337188504131"><ele>258.0</ele><time>2026-04-26T09:13:57.999Z</time></trkpt><trkpt lat="43.246218746943406" lon="11.946503511237697"><ele>258.0</ele><time>2026-04-26T09:13:59.999Z</time></trkpt><trkpt lat="43.24620793835982" lon="11.94665604702371"><ele>258.1666666666667</ele><time>2026-04-26T09:14:02Z</time></trkpt><trkpt lat="43.24621107186962" lon="11.946784246240528"><ele>258.3333333333333</ele><time>2026-04-26T09:14:04Z</time></trkpt><trkpt lat="43.24619758128846" lon="11.946892182243408"><ele>258.5</ele><time>2026-04-26T09:14:06Z</time></trkpt><trkpt lat="43.2461744211787" lon="11.947003889744904"><ele>258.66666666666663</ele><time>2026-04-26T09:14:08Z</time></trkpt><trkpt lat="43.24614931264337" lon="11.947101745854031"><ele>258.8333333333333</ele><time>2026-04-26T09:14:10Z</time></trkpt><trkpt lat="43.24614091694601" lon="11.947221763755635"><ele>259.0</ele><time>2026-04-26T09:14:12Z</time></trkpt><trkpt lat="43.246108731355505" lon="11.947332420407268"><ele>259.0</ele><time>2026-04-26T09:14:14Z</time></trkpt><trkpt lat="43.24607329654645" lon="11.947495612996256"><ele>259.0</ele><time>2026-04-26T09:14:17Z</time></trkpt><trkpt lat="43.24604147358098" lon="11.947677977390017"><ele>259.0</ele><time>2026-04-26T09:14:19Z</time></trkpt><trkpt lat="43.246022354100944" lon="11.947824595241498"><ele>259.0</ele><time>2026-04-26T09:14:21Z</time></trkpt><trkpt lat="43.24600634195188" lon="11.94797196745424"><ele>259.0</ele><time>2026-04-26T09:14:23Z</time></trkpt><trkpt lat="43.24597892580403" lon="11.94811796882895"><ele>259.0</ele><time>2026-04-26T09:14:25Z</time></trkpt><trkpt lat="43.24594292096727" lon="11.948257510203904"><ele>259.0</ele><time>2026-04-26T09:14:27Z</time></trkpt><trkpt lat="43.24591112973465" lon="11.948376650495891"><ele>259.0</ele><time>2026-04-26T09:14:29Z</time></trkpt><trkpt lat="43.24586898935418" lon="11.948475131060011"><ele>259.0</ele><time>2026-04-26T09:14:31Z</time></trkpt><trkpt lat="43.24582333745126" lon="11.94855593055188"><ele>258.4</ele><time>2026-04-26T09:14:33Z</time></trkpt><trkpt lat="43.245760606606375" lon="11.948605239348339"><ele>257.79999999999995</ele><time>2026-04-26T09:14:35Z</time></trkpt><trkpt lat="43.24568511482605" lon="11.948600703638176"><ele>257.20000000000005</ele><time>2026-04-26T09:14:37Z</time></trkpt><trkpt lat="43.245581452131425" lon="11.948541920233163"><ele>256.6</ele><time>2026-04-26T09:14:44Z</time></trkpt><trkpt lat="43.24548852761711" lon="11.948483927185272"><ele>256.0</ele><time>2026-04-26T09:14:46Z</time></trkpt><trkpt lat="43.24537170067765" lon="11.94843451259852"><ele>256.0</ele><time>2026-04-26T09:14:48Z</time></trkpt><trkpt lat="43.2452537070246" lon="11.9483844364061"><ele>256.0</ele><time>2026-04-26T09:14:50Z</time></trkpt><trkpt lat="43.24514743791566" lon="11.948328103662732"><ele>256.0</ele><time>2026-04-26T09:14:52Z</time></trkpt><trkpt lat="43.2450840974056" lon="11.948307779788685"><ele>256.0</ele><time>2026-04-26T09:14:53Z</time></trkpt><trkpt lat="43.24496826992166" lon="11.948244825031837"><ele>256.0</ele><time>2026-04-26T09:14:55Z</time></trkpt><trkpt lat="43.244854131201706" lon="11.948184005943947"><ele>255.57142857142856</ele><time>2026-04-26T09:14:57Z</time></trkpt><trkpt lat="43.244788931675366" lon="11.948165022288222"><ele>255.1428571428571</ele><time>2026-04-26T09:14:58Z</time></trkpt><trkpt lat="43.2447222667358" lon="11.948136975842306"><ele>254.71428571428572</ele><time>2026-04-26T09:14:59Z</time></trkpt><trkpt lat="43.244653167342555" lon="11.948108974453554"><ele>254.28571428571428</ele><time>2026-04-26T09:15:00Z</time></trkpt><trkpt lat="43.244581404925526" lon="11.948081630378617"><ele>253.85714285714286</ele><time>2026-04-26T09:15:01Z</time></trkpt><trkpt lat="43.2445133343947" lon="11.94805527549539"><ele>253.42857142857144</ele><time>2026-04-26T09:15:02Z</time></trkpt><trkpt lat="43.2444441920785" lon="11.94802823901139"><ele>253.00000000000003</ele><time>2026-04-26T09:15:03Z</time></trkpt><trkpt lat="43.244376342231" lon="11.948002107972888"><ele>253.00000000000003</ele><time>2026-04-26T09:15:04Z</time></trkpt><trkpt lat="43.244307125670275" lon="11.947977837196829"><ele>253.0</ele><time>2026-04-26T09:15:05Z</time></trkpt><trkpt lat="43.24423597563127" lon="11.947949800291157"><ele>253.00000000000003</ele><time>2026-04-26T09:15:06Z</time></trkpt><trkpt lat="43.24416664422506" lon="11.947920764951675"><ele>253.00000000000003</ele><time>2026-04-26T09:15:07Z</time></trkpt><trkpt lat="43.244096013786134" lon="11.947890237899761"><ele>253.0</ele><time>2026-04-26T09:15:08Z</time></trkpt><trkpt lat="43.24402672828185" lon="11.947860960552152"><ele>253.00000000000003</ele><time>2026-04-26T09:15:09Z</time></trkpt><trkpt lat="43.24395840342955" lon="11.947830059415274"><ele>253.00000000000003</ele><time>2026-04-26T09:15:10Z</time></trkpt><trkpt lat="43.243888715525344" lon="11.947798074182527"><ele>253.00000000000003</ele><time>2026-04-26T09:15:11Z</time></trkpt><trkpt lat="43.24382400346673" lon="11.94776167501843"><ele>253.0</ele><time>2026-04-26T09:15:12Z</time></trkpt><trkpt lat="43.243755883728326" lon="11.947724671469723"><ele>253.00000000000003</ele><time>2026-04-26T09:15:13Z</time></trkpt><trkpt lat="43.24368513676795" lon="11.947685176090959"><ele>253.00000000000003</ele><time>2026-04-26T09:15:14Z</time></trkpt><trkpt lat="43.24361693409256" lon="11.947646231026665"><ele>253.0</ele><time>2026-04-26T09:15:15Z</time></trkpt><trkpt lat="43.243547843473976" lon="11.947612089253996"><ele>253.00000000000003</ele><time>2026-04-26T09:15:16Z</time></trkpt><trkpt lat="43.24347377443575" lon="11.947570778922525"><ele>253.00000000000003</ele><time>2026-04-26T09:15:17Z</time></trkpt><trkpt lat="43.24340396641482" lon="11.947518276572637"><ele>252.83333333333331</ele><time>2026-04-26T09:15:18Z</time></trkpt><trkpt lat="43.24333103042964" lon="11.947474879482229"><ele>252.66666666666666</ele><time>2026-04-26T09:15:19Z</time></trkpt><trkpt lat="43.24325838121735" lon="11.947425277945777"><ele>252.5</ele><time>2026-04-26T09:15:20Z</time></trkpt><trkpt lat="43.243186743976835" lon="11.947372901907986"><ele>252.33333333333331</ele><time>2026-04-26T09:15:21Z</time></trkpt><trkpt lat="43.24311560211483" lon="11.947325682663804"><ele>252.16666666666666</ele><time>2026-04-26T09:15:22Z</time></trkpt><trkpt lat="43.243045116078996" lon="11.947285890890726"><ele>252.0</ele><time>2026-04-26T09:15:23Z</time></trkpt><trkpt lat="43.24297516160557" lon="11.947252974102836"><ele>252.0</ele><time>2026-04-26T09:15:24Z</time></trkpt><trkpt lat="43.24290689388864" lon="11.947218172587307"><ele>252.0</ele><time>2026-04-26T09:15:25Z</time></trkpt><trkpt lat="43.24284083457475" lon="11.947177953921344"><ele>252.0</ele><time>2026-04-26T09:15:26Z</time></trkpt><trkpt lat="43.24277022429641" lon="11.947143084400224"><ele>252.0</ele><time>2026-04-26T09:15:27Z</time></trkpt><trkpt lat="43.24269703676798" lon="11.947108925904002"><ele>252.0</ele><time>2026-04-26T09:15:28Z</time></trkpt><trkpt lat="43.24262582365725" lon="11.947078427130341"><ele>252.0</ele><time>2026-04-26T09:15:29Z</time></trkpt><trkpt lat="43.24255564383425" lon="11.947049874695189"><ele>252.0</ele><time>2026-04-26T09:15:30Z</time></trkpt><trkpt lat="43.242486536701186" lon="11.9470224684482"><ele>252.0</ele><time>2026-04-26T09:15:31Z</time></trkpt><trkpt lat="43.24242124313431" lon="11.946997079694603"><ele>252.0</ele><time>2026-04-26T09:15:32Z</time></trkpt><trkpt lat="43.24235464675805" lon="11.94697607299858"><ele>252.0</ele><time>2026-04-26T09:15:33Z</time></trkpt><trkpt lat="43.242289336120685" lon="11.946951006631478"><ele>252.0</ele><time>2026-04-26T09:15:33.999Z</time></trkpt><trkpt lat="43.24222600832588" lon="11.946925838922525"><ele>252.0</ele><time>2026-04-26T09:15:34.999Z</time></trkpt><trkpt lat="43.24215969398761" lon="11.946903018301033"><ele>252.0</ele><time>2026-04-26T09:15:35.999Z</time></trkpt><trkpt lat="43.24209075036187" lon="11.946880583898107"><ele>252.0</ele><time>2026-04-26T09:15:36.999Z</time></trkpt><trkpt lat="43.24202030056069" lon="11.946856858491577"><ele>252.28571428571428</ele><time>2026-04-26T09:15:37.999Z</time></trkpt><trkpt lat="43.241952140213925" lon="11.946830971799272"><ele>252.57142857142856</ele><time>2026-04-26T09:15:38.999Z</time></trkpt><trkpt lat="43.24188239609706" lon="11.94680662563968"><ele>252.85714285714286</ele><time>2026-04-26T09:15:39.999Z</time></trkpt><trkpt lat="43.24181592121052" lon="11.946781423668877"><ele>253.14285714285714</ele><time>2026-04-26T09:15:40.999Z</time></trkpt><trkpt lat="43.24174736834354" lon="11.946761790690056"><ele>253.42857142857142</ele><time>2026-04-26T09:15:41.999Z</time></trkpt><trkpt lat="43.241681125237044" lon="11.946739189788905"><ele>253.71428571428572</ele><time>2026-04-26T09:15:42.999Z</time></trkpt><trkpt lat="43.24161263849068" lon="11.94671463796722"><ele>254.0</ele><time>2026-04-26T09:15:43.999Z</time></trkpt><trkpt lat="43.241543525748725" lon="11.946691643194095"><ele>254.0</ele><time>2026-04-26T09:15:44.999Z</time></trkpt><trkpt lat="43.241471244710205" lon="11.94667136788583"><ele>254.0</ele><time>2026-04-26T09:15:45.999Z</time></trkpt><trkpt lat="43.241399133633955" lon="11.946643853254018"><ele>254.0</ele><time>2026-04-26T09:15:46.999Z</time></trkpt><trkpt lat="43.2413254310954" lon="11.946615520316236"><ele>254.0</ele><time>2026-04-26T09:15:47.999Z</time></trkpt><trkpt lat="43.24125485576153" lon="11.946589471197491"><ele>254.0</ele><time>2026-04-26T09:15:48.999Z</time></trkpt><trkpt lat="43.24118325798465" lon="11.94656340663217"><ele>254.0</ele><time>2026-04-26T09:15:49.999Z</time></trkpt><trkpt lat="43.24111037199984" lon="11.946536833430516"><ele>254.0</ele><time>2026-04-26T09:15:50.999Z</time></trkpt><trkpt lat="43.241038451430555" lon="11.946511515947789"><ele>254.0</ele><time>2026-04-26T09:15:51.999Z</time></trkpt><trkpt lat="43.24096645693173" lon="11.946488009148025"><ele>254.0</ele><time>2026-04-26T09:15:52.999Z</time></trkpt><trkpt lat="43.24089307635584" lon="11.946461475580332"><ele>254.0</ele><time>2026-04-26T09:15:53.999Z</time></trkpt><trkpt lat="43.24081999804641" lon="11.94643311769602"><ele>254.0</ele><time>2026-04-26T09:15:54.999Z</time></trkpt><trkpt lat="43.240748954951734" lon="11.94640589416191"><ele>254.0</ele><time>2026-04-26T09:15:55.999Z</time></trkpt><trkpt lat="43.240677207120065" lon="11.946380288952913"><ele>254.0</ele><time>2026-04-26T09:15:56.999Z</time></trkpt><trkpt lat="43.24060565489244" lon="11.946354614986769"><ele>254.0</ele><time>2026-04-26T09:15:57.999Z</time></trkpt><trkpt lat="43.240535005287796" lon="11.946329254925127"><ele>254.71428571428572</ele><time>2026-04-26T09:15:58.999Z</time></trkpt><trkpt lat="43.24046465914325" lon="11.946303131416158"><ele>255.42857142857142</ele><time>2026-04-26T09:15:59.999Z</time></trkpt><trkpt lat="43.24039521245474" lon="11.946275759224507"><ele>256.1428571428571</ele><time>2026-04-26T09:16:00.999Z</time></trkpt><trkpt lat="43.24032456489442" lon="11.946250600656427"><ele>256.8571428571429</ele><time>2026-04-26T09:16:01.999Z</time></trkpt><trkpt lat="43.24025206704684" lon="11.946224374736389"><ele>257.57142857142856</ele><time>2026-04-26T09:16:02.999Z</time></trkpt><trkpt lat="43.240180422559874" lon="11.94619826945122"><ele>258.2857142857143</ele><time>2026-04-26T09:16:03.999Z</time></trkpt><trkpt lat="43.24010819536537" lon="11.946169484865614"><ele>259.0</ele><time>2026-04-26T09:16:04.999Z</time></trkpt><trkpt lat="43.24003617147713" lon="11.94614233494375"><ele>259.0</ele><time>2026-04-26T09:16:05.999Z</time></trkpt><trkpt lat="43.23996407508381" lon="11.9461169542702"><ele>259.0</ele><time>2026-04-26T09:16:07Z</time></trkpt><trkpt lat="43.2398932072674" lon="11.946086368265158"><ele>259.0</ele><time>2026-04-26T09:16:08Z</time></trkpt><trkpt lat="43.23982242513189" lon="11.946054627414938"><ele>259.0</ele><time>2026-04-26T09:16:09Z</time></trkpt><trkpt lat="43.23975446633689" lon="11.946022772628035"><ele>259.0</ele><time>2026-04-26T09:16:10Z</time></trkpt><trkpt lat="43.23968389496943" lon="11.945992071115539"><ele>259.0</ele><time>2026-04-26T09:16:11Z</time></trkpt><trkpt lat="43.239616317975965" lon="11.945957269976127"><ele>259.0</ele><time>2026-04-26T09:16:12Z</time></trkpt><trkpt lat="43.23954833920601" lon="11.945921380193788"><ele>259.3333333333333</ele><time>2026-04-26T09:16:13Z</time></trkpt><trkpt lat="43.23948019170571" lon="11.945881554636323"><ele>259.66666666666663</ele><time>2026-04-26T09:16:14Z</time></trkpt><trkpt lat="43.239412045302736" lon="11.94583713069834"><ele>260.0</ele><time>2026-04-26T09:16:15Z</time></trkpt><trkpt lat="43.23934416232893" lon="11.945789687162069"><ele>260.3333333333333</ele><time>2026-04-26T09:16:16Z</time></trkpt><trkpt lat="43.23927922577406" lon="11.945735434015445"><ele>260.6666666666667</ele><time>2026-04-26T09:16:17Z</time></trkpt><trkpt lat="43.23921518166314" lon="11.945676692521952"><ele>261.0</ele><time>2026-04-26T09:16:18Z</time></trkpt><trkpt lat="43.23915234190752" lon="11.945611705438644"><ele>261.0</ele><time>2026-04-26T09:16:19Z</time></trkpt><trkpt lat="43.239094493926146" lon="11.945538835655253"><ele>261.0</ele><time>2026-04-26T09:16:20Z</time></trkpt><trkpt lat="43.239038223428224" lon="11.945466191476022"><ele>261.0</ele><time>2026-04-26T09:16:21Z</time></trkpt><trkpt lat="43.238990110456605" lon="11.945393781015225"><ele>261.0</ele><time>2026-04-26T09:16:22Z</time></trkpt><trkpt lat="43.238941538286106" lon="11.945320909444563"><ele>261.0</ele><time>2026-04-26T09:16:23Z</time></trkpt><trkpt lat="43.23889162625404" lon="11.945250160636302"><ele>261.0</ele><time>2026-04-26T09:16:24Z</time></trkpt><trkpt lat="43.23885175145624" lon="11.945164075328686"><ele>261.0</ele><time>2026-04-26T09:16:25Z</time></trkpt><trkpt lat="43.23881501529954" lon="11.945077199552136"><ele>262.1666666666667</ele><time>2026-04-26T09:16:26Z</time></trkpt><trkpt lat="43.23877889762127" lon="11.944981948184676"><ele>263.3333333333333</ele><time>2026-04-26T09:16:27Z</time></trkpt><trkpt lat="43.23874208121142" lon="11.94488748008613"><ele>264.5</ele><time>2026-04-26T09:16:28Z</time></trkpt><trkpt lat="43.23871357019395" lon="11.944791755894025"><ele>265.66666666666663</ele><time>2026-04-26T09:16:29Z</time></trkpt><trkpt lat="43.238688245544935" lon="11.944693486926008"><ele>266.8333333333333</ele><time>2026-04-26T09:16:30Z</time></trkpt><trkpt lat="43.23866378608627" lon="11.944594519401392"><ele>268.0</ele><time>2026-04-26T09:16:31Z</time></trkpt><trkpt lat="43.238641855507474" lon="11.944494890507132"><ele>268.0</ele><time>2026-04-26T09:16:32Z</time></trkpt><trkpt lat="43.23862338933039" lon="11.944394381949099"><ele>268.0</ele><time>2026-04-26T09:16:33Z</time></trkpt><trkpt lat="43.2386058065306" lon="11.944294960276235"><ele>268.0</ele><time>2026-04-26T09:16:34Z</time></trkpt><trkpt lat="43.23859025506082" lon="11.944196774197755"><ele>268.0</ele><time>2026-04-26T09:16:35Z</time></trkpt><trkpt lat="43.23857673649632" lon="11.944099917197658"><ele>268.0</ele><time>2026-04-26T09:16:36Z</time></trkpt><trkpt lat="43.238564162717054" lon="11.944002271285907"><ele>268.0</ele><time>2026-04-26T09:16:37Z</time></trkpt><trkpt lat="43.23855224292226" lon="11.943906420276978"><ele>268.0</ele><time>2026-04-26T09:16:38Z</time></trkpt><trkpt lat="43.238538594591" lon="11.943810538584819"><ele>267.8571428571429</ele><time>2026-04-26T09:16:39Z</time></trkpt><trkpt lat="43.23852856170852" lon="11.943715993654362"><ele>267.7142857142857</ele><time>2026-04-26T09:16:40Z</time></trkpt><trkpt lat="43.23851821567185" lon="11.943621661299481"><ele>267.57142857142856</ele><time>2026-04-26T09:16:41Z</time></trkpt><trkpt lat="43.2385112758556" lon="11.94352666142959"><ele>267.42857142857144</ele><time>2026-04-26T09:16:42Z</time></trkpt><trkpt lat="43.23850086665516" lon="11.943428758778996"><ele>267.2857142857143</ele><time>2026-04-26T09:16:43Z</time></trkpt><trkpt lat="43.23849175774273" lon="11.943328866772845"><ele>267.14285714285717</ele><time>2026-04-26T09:16:44Z</time></trkpt><trkpt lat="43.23848321335482" lon="11.943229973803424"><ele>267.0</ele><time>2026-04-26T09:16:45Z</time></trkpt><trkpt lat="43.23848145249637" lon="11.943125954527467"><ele>267.0</ele><time>2026-04-26T09:16:46Z</time></trkpt><trkpt lat="43.23848173861524" lon="11.943023104039545"><ele>267.0</ele><time>2026-04-26T09:16:47Z</time></trkpt><trkpt lat="43.23848365287095" lon="11.942916659761286"><ele>267.0</ele><time>2026-04-26T09:16:48Z</time></trkpt><trkpt lat="43.2384806464299" lon="11.942820175616424"><ele>267.0</ele><time>2026-04-26T09:16:49Z</time></trkpt><trkpt lat="43.23847667380273" lon="11.942714296985073"><ele>267.0</ele><time>2026-04-26T09:16:50Z</time></trkpt><trkpt lat="43.23847750537696" lon="11.942609856634311"><ele>267.0</ele><time>2026-04-26T09:16:51Z</time></trkpt><trkpt lat="43.23848364445405" lon="11.94250537466715"><ele>267.1666666666667</ele><time>2026-04-26T09:16:52Z</time></trkpt><trkpt lat="43.23848796577361" lon="11.942399763159804"><ele>267.3333333333333</ele><time>2026-04-26T09:16:53Z</time></trkpt><trkpt lat="43.23849155824955" lon="11.94229509119041"><ele>267.5</ele><time>2026-04-26T09:16:54Z</time></trkpt><trkpt lat="43.23849617197421" lon="11.942187953130782"><ele>267.66666666666663</ele><time>2026-04-26T09:16:55Z</time></trkpt><trkpt lat="43.238497866072244" lon="11.942085337328123"><ele>267.8333333333333</ele><time>2026-04-26T09:16:56Z</time></trkpt><trkpt lat="43.2384999477963" lon="11.94198086647489"><ele>268.0</ele><time>2026-04-26T09:16:57Z</time></trkpt><trkpt lat="43.23850575038147" lon="11.941872851775463"><ele>268.0</ele><time>2026-04-26T09:16:58Z</time></trkpt><trkpt lat="43.23851697776774" lon="11.941765913367561"><ele>268.0</ele><time>2026-04-26T09:16:59Z</time></trkpt><trkpt lat="43.238518224645354" lon="11.94165300868414"><ele>268.0</ele><time>2026-04-26T09:17:00Z</time></trkpt><trkpt lat="43.23851771794063" lon="11.941542638347133"><ele>268.0</ele><time>2026-04-26T09:17:01Z</time></trkpt><trkpt lat="43.2385007085956" lon="11.941437928205872"><ele>268.0</ele><time>2026-04-26T09:17:02Z</time></trkpt><trkpt lat="43.238495230461226" lon="11.941333892600094"><ele>268.0</ele><time>2026-04-26T09:17:03Z</time></trkpt><trkpt lat="43.23850573318385" lon="11.941229345361366"><ele>268.14285714285717</ele><time>2026-04-26T09:17:04Z</time></trkpt><trkpt lat="43.238482590584496" lon="11.941128780831523"><ele>268.2857142857143</ele><time>2026-04-26T09:17:05Z</time></trkpt><trkpt lat="43.238474740310046" lon="11.941027558788546"><ele>268.42857142857144</ele><time>2026-04-26T09:17:06Z</time></trkpt><trkpt lat="43.23846276020337" lon="11.940930356853787"><ele>268.57142857142856</ele><time>2026-04-26T09:17:07Z</time></trkpt><trkpt lat="43.238453579321465" lon="11.940834035570454"><ele>268.7142857142857</ele><time>2026-04-26T09:17:08Z</time></trkpt><trkpt lat="43.238444461588045" lon="11.940737284858116"><ele>268.8571428571429</ele><time>2026-04-26T09:17:09Z</time></trkpt><trkpt lat="43.23843248895469" lon="11.940642629500676"><ele>269.0</ele><time>2026-04-26T09:17:10Z</time></trkpt><trkpt lat="43.23842057833129" lon="11.940546612432097"><ele>269.42857142857144</ele><time>2026-04-26T09:17:11Z</time></trkpt><trkpt lat="43.23840782983144" lon="11.94045497232102"><ele>269.8571428571429</ele><time>2026-04-26T09:17:12Z</time></trkpt><trkpt lat="43.23839720356189" lon="11.94035963898197"><ele>270.2857142857143</ele><time>2026-04-26T09:17:13Z</time></trkpt><trkpt lat="43.23838501500536" lon="11.940261960738106"><ele>270.7142857142857</ele><time>2026-04-26T09:17:14Z</time></trkpt><trkpt lat="43.23836904574767" lon="11.940168158509865"><ele>271.1428571428571</ele><time>2026-04-26T09:17:15Z</time></trkpt><trkpt lat="43.23834625872181" lon="11.940073439617672"><ele>271.57142857142856</ele><time>2026-04-26T09:17:16Z</time></trkpt><trkpt lat="43.23831817966211" lon="11.939979406763253"><ele>272.0</ele><time>2026-04-26T09:17:17Z</time></trkpt><trkpt lat="43.238290132448014" lon="11.939884364086653"><ele>272.0</ele><time>2026-04-26T09:17:18Z</time></trkpt><trkpt lat="43.238258693059734" lon="11.939792475805485"><ele>272.0</ele><time>2026-04-26T09:17:19Z</time></trkpt><trkpt lat="43.2382269639261" lon="11.93969930412312"><ele>272.0</ele><time>2026-04-26T09:17:20Z</time></trkpt><trkpt lat="43.238193375535275" lon="11.9396055463533"><ele>272.0</ele><time>2026-04-26T09:17:21Z</time></trkpt><trkpt lat="43.23815716216428" lon="11.93951180255187"><ele>272.0</ele><time>2026-04-26T09:17:22Z</time></trkpt><trkpt lat="43.238119858850695" lon="11.939420135309048"><ele>272.0</ele><time>2026-04-26T09:17:23Z</time></trkpt><trkpt lat="43.238086919139114" lon="11.93932791890476"><ele>271.99999999999994</ele><time>2026-04-26T09:17:24Z</time></trkpt><trkpt lat="43.23805242387992" lon="11.939237967511454"><ele>272.0</ele><time>2026-04-26T09:17:25Z</time></trkpt><trkpt lat="43.23802043528607" lon="11.939148366421517"><ele>272.0</ele><time>2026-04-26T09:17:26Z</time></trkpt><trkpt lat="43.237986496242335" lon="11.93905954804735"><ele>272.0</ele><time>2026-04-26T09:17:27Z</time></trkpt><trkpt lat="43.23795441413304" lon="11.938969104385569"><ele>272.0</ele><time>2026-04-26T09:17:28Z</time></trkpt><trkpt lat="43.23792074257508" lon="11.938878822802616"><ele>271.99999999999994</ele><time>2026-04-26T09:17:29Z</time></trkpt><trkpt lat="43.2378889929494" lon="11.938786741608064"><ele>272.0</ele><time>2026-04-26T09:17:30Z</time></trkpt><trkpt lat="43.237854257398965" lon="11.938697509926147"><ele>272.2857142857143</ele><time>2026-04-26T09:17:31Z</time></trkpt><trkpt lat="43.23781940273711" lon="11.938608172298467"><ele>272.57142857142856</ele><time>2026-04-26T09:17:32Z</time></trkpt><trkpt lat="43.2377841891981" lon="11.938517059500825"><ele>272.8571428571429</ele><time>2026-04-26T09:17:33Z</time></trkpt><trkpt lat="43.23774904362866" lon="11.938424551203203"><ele>273.1428571428571</ele><time>2026-04-26T09:17:34Z</time></trkpt><trkpt lat="43.23772085382052" lon="11.938333853017557"><ele>273.42857142857144</ele><time>2026-04-26T09:17:35Z</time></trkpt><trkpt lat="43.2376890694476" lon="11.938247322282095"><ele>273.7142857142857</ele><time>2026-04-26T09:17:36Z</time></trkpt><trkpt lat="43.23765556103252" lon="11.938160361569377"><ele>274.0</ele><time>2026-04-26T09:17:37Z</time></trkpt><trkpt lat="43.23762128247418" lon="11.93807345720521"><ele>274.28571428571433</ele><time>2026-04-26T09:17:38Z</time></trkpt><trkpt lat="43.23758815249212" lon="11.937984090929612"><ele>274.57142857142856</ele><time>2026-04-26T09:17:39Z</time></trkpt><trkpt lat="43.23755583123174" lon="11.93789573100245"><ele>274.8571428571429</ele><time>2026-04-26T09:17:40Z</time></trkpt><trkpt lat="43.23752436551329" lon="11.93780755191669"><ele>275.14285714285717</ele><time>2026-04-26T09:17:41Z</time></trkpt><trkpt lat="43.23749212175848" lon="11.93771705043507"><ele>275.42857142857144</ele><time>2026-04-26T09:17:42Z</time></trkpt><trkpt lat="43.237461606886406" lon="11.937624501460997"><ele>275.7142857142857</ele><time>2026-04-26T09:17:43Z</time></trkpt><trkpt lat="43.23743422798461" lon="11.937538494982071"><ele>276.0</ele><time>2026-04-26T09:17:44Z</time></trkpt><trkpt lat="43.2374056898641" lon="11.937459050486751"><ele>276.1666666666667</ele><time>2026-04-26T09:17:45Z</time></trkpt><trkpt lat="43.237349354897354" lon="11.937307660778147"><ele>276.3333333333333</ele><time>2026-04-26T09:17:47Z</time></trkpt><trkpt lat="43.23731523681657" lon="11.937225094162258"><ele>276.5</ele><time>2026-04-26T09:17:48Z</time></trkpt><trkpt lat="43.23727367598402" lon="11.937132651150748"><ele>276.66666666666663</ele><time>2026-04-26T09:17:49Z</time></trkpt><trkpt lat="43.23724718186337" lon="11.937043658246932"><ele>276.8333333333333</ele><time>2026-04-26T09:17:50Z</time></trkpt><trkpt lat="43.23721431665959" lon="11.936958893137547"><ele>277.0</ele><time>2026-04-26T09:17:51Z</time></trkpt><trkpt lat="43.23718305921895" lon="11.936871097331228"><ele>276.7142857142857</ele><time>2026-04-26T09:17:52Z</time></trkpt><trkpt lat="43.2371496004638" lon="11.936787521814997"><ele>276.4285714285714</ele><time>2026-04-26T09:17:52.999Z</time></trkpt><trkpt lat="43.23711857779963" lon="11.936702151263628"><ele>276.1428571428571</ele><time>2026-04-26T09:17:53.999Z</time></trkpt><trkpt lat="43.23708598936864" lon="11.936615467028835"><ele>275.85714285714283</ele><time>2026-04-26T09:17:54.999Z</time></trkpt><trkpt lat="43.23704816978316" lon="11.936534854188212"><ele>275.57142857142856</ele><time>2026-04-26T09:17:55.999Z</time></trkpt><trkpt lat="43.237015313767806" lon="11.93645014802882"><ele>275.2857142857143</ele><time>2026-04-26T09:17:56.999Z</time></trkpt><trkpt lat="43.23698209012497" lon="11.93636320943751"><ele>275.0</ele><time>2026-04-26T09:17:57.999Z</time></trkpt><trkpt lat="43.23694702685454" lon="11.936276227886712"><ele>275.0</ele><time>2026-04-26T09:17:58.999Z</time></trkpt><trkpt lat="43.236912894683826" lon="11.936191022896594"><ele>275.0</ele><time>2026-04-26T09:17:59.999Z</time></trkpt><trkpt lat="43.23688066275661" lon="11.936105034025747"><ele>275.0</ele><time>2026-04-26T09:18:00.999Z</time></trkpt><trkpt lat="43.23684556503416" lon="11.936017585138492"><ele>275.0</ele><time>2026-04-26T09:18:01.999Z</time></trkpt><trkpt lat="43.23681003291905" lon="11.935925621462964"><ele>275.0</ele><time>2026-04-26T09:18:02.999Z</time></trkpt><trkpt lat="43.23677512472528" lon="11.935834937844723"><ele>275.0</ele><time>2026-04-26T09:18:03.999Z</time></trkpt><trkpt lat="43.23673654515002" lon="11.935744916207335"><ele>275.0</ele><time>2026-04-26T09:18:04.999Z</time></trkpt><trkpt lat="43.236699905271706" lon="11.935652602188295"><ele>274.8571428571429</ele><time>2026-04-26T09:18:05.999Z</time></trkpt><trkpt lat="43.23666557750454" lon="11.935559932305306"><ele>274.7142857142857</ele><time>2026-04-26T09:18:06.999Z</time></trkpt><trkpt lat="43.23662919578227" lon="11.935469583960145"><ele>274.57142857142856</ele><time>2026-04-26T09:18:07.999Z</time></trkpt><trkpt lat="43.23659469926481" lon="11.935381027228152"><ele>274.42857142857144</ele><time>2026-04-26T09:18:08.999Z</time></trkpt><trkpt lat="43.2365569106651" lon="11.935291280078822"><ele>274.2857142857143</ele><time>2026-04-26T09:18:09.999Z</time></trkpt><trkpt lat="43.23651813208871" lon="11.935201172693215"><ele>274.14285714285717</ele><time>2026-04-26T09:18:10.999Z</time></trkpt><trkpt lat="43.23648744650926" lon="11.935112024391898"><ele>274.0</ele><time>2026-04-26T09:18:11.999Z</time></trkpt><trkpt lat="43.236450875936875" lon="11.935023959258903"><ele>273.42857142857144</ele><time>2026-04-26T09:18:13Z</time></trkpt><trkpt lat="43.23641472285732" lon="11.934939062296701"><ele>272.8571428571429</ele><time>2026-04-26T09:18:14Z</time></trkpt><trkpt lat="43.23637584836653" lon="11.934846696503508"><ele>272.2857142857143</ele><time>2026-04-26T09:18:15Z</time></trkpt><trkpt lat="43.2363362476896" lon="11.934763678629569"><ele>271.7142857142857</ele><time>2026-04-26T09:18:16Z</time></trkpt><trkpt lat="43.23630681544155" lon="11.934680102427409"><ele>271.1428571428571</ele><time>2026-04-26T09:18:17Z</time></trkpt><trkpt lat="43.23627770196455" lon="11.934600475558163"><ele>270.57142857142856</ele><time>2026-04-26T09:18:18Z</time></trkpt><trkpt lat="43.23624569383447" lon="11.934524122128787"><ele>270.0</ele><time>2026-04-26T09:18:19Z</time></trkpt><trkpt lat="43.23621244521192" lon="11.934445231161256"><ele>270.0</ele><time>2026-04-26T09:18:20Z</time></trkpt><trkpt lat="43.23618148800741" lon="11.934366964741068"><ele>270.0</ele><time>2026-04-26T09:18:21Z</time></trkpt><trkpt lat="43.23611526270604" lon="11.934210304320434"><ele>270.0</ele><time>2026-04-26T09:18:23Z</time></trkpt><trkpt lat="43.23608135280185" lon="11.934133657415773"><ele>270.0</ele><time>2026-04-26T09:18:24Z</time></trkpt><trkpt lat="43.23604544234059" lon="11.93405505559755"><ele>270.0</ele><time>2026-04-26T09:18:25Z</time></trkpt><trkpt lat="43.23600288198983" lon="11.933978983523724"><ele>270.0</ele><time>2026-04-26T09:18:26Z</time></trkpt><trkpt lat="43.235958736117006" lon="11.933904602209315"><ele>271.0</ele><time>2026-04-26T09:18:27Z</time></trkpt><trkpt lat="43.235917624417084" lon="11.933833906490714"><ele>272.0</ele><time>2026-04-26T09:18:28Z</time></trkpt><trkpt lat="43.23584671571461" lon="11.933702484895674"><ele>273.0</ele><time>2026-04-26T09:18:30Z</time></trkpt><trkpt lat="43.23577388617589" lon="11.933579236313179"><ele>274.0</ele><time>2026-04-26T09:18:32Z</time></trkpt><trkpt lat="43.23569521601392" lon="11.933453082040298"><ele>275.0</ele><time>2026-04-26T09:18:34Z</time></trkpt><trkpt lat="43.2355775377918" lon="11.93325878122623"><ele>275.6666666666667</ele><time>2026-04-26T09:18:37Z</time></trkpt><trkpt lat="43.23549169921058" lon="11.933135754039958"><ele>276.33333333333337</ele><time>2026-04-26T09:18:39Z</time></trkpt><trkpt lat="43.23544968532535" lon="11.93306952835915"><ele>277.0</ele><time>2026-04-26T09:18:40Z</time></trkpt><trkpt lat="43.23540198789422" lon="11.932999066719754"><ele>277.6666666666667</ele><time>2026-04-26T09:18:41Z</time></trkpt><trkpt lat="43.23536064917842" lon="11.932926348450792"><ele>278.3333333333333</ele><time>2026-04-26T09:18:42Z</time></trkpt><trkpt lat="43.23531687008069" lon="11.932856039552558"><ele>279.0</ele><time>2026-04-26T09:18:43Z</time></trkpt><trkpt lat="43.2352725006154" lon="11.932783023637349"><ele>279.0</ele><time>2026-04-26T09:18:44Z</time></trkpt><trkpt lat="43.23522738627346" lon="11.932714510102567"><ele>279.0</ele><time>2026-04-26T09:18:45Z</time></trkpt><trkpt lat="43.2351533731672" lon="11.932588915764438"><ele>279.0</ele><time>2026-04-26T09:18:47Z</time></trkpt><trkpt lat="43.23508215421375" lon="11.932464305374765"><ele>279.0</ele><time>2026-04-26T09:18:49Z</time></trkpt><trkpt lat="43.23500534945823" lon="11.93232756492396"><ele>279.0</ele><time>2026-04-26T09:18:51Z</time></trkpt><trkpt lat="43.23495921035699" lon="11.932258792448055"><ele>279.1428571428571</ele><time>2026-04-26T09:18:52Z</time></trkpt><trkpt lat="43.23491210990495" lon="11.932183967582324"><ele>279.2857142857143</ele><time>2026-04-26T09:18:53Z</time></trkpt><trkpt lat="43.234867292446026" lon="11.932107301214703"><ele>279.42857142857144</ele><time>2026-04-26T09:18:54Z</time></trkpt><trkpt lat="43.23482158974787" lon="11.932028168714737"><ele>279.57142857142856</ele><time>2026-04-26T09:18:55Z</time></trkpt><trkpt lat="43.23477702363207" lon="11.931949960489453"><ele>279.7142857142857</ele><time>2026-04-26T09:18:56Z</time></trkpt><trkpt lat="43.2347344045888" lon="11.931872041174392"><ele>279.85714285714283</ele><time>2026-04-26T09:18:57Z</time></trkpt><trkpt lat="43.234691437631845" lon="11.93179517046848"><ele>280.0</ele><time>2026-04-26T09:18:58Z</time></trkpt><trkpt lat="43.23465037828104" lon="11.931716734056245"><ele>280.2857142857143</ele><time>2026-04-26T09:18:59Z</time></trkpt><trkpt lat="43.234610563985754" lon="11.931639348378853"><ele>280.57142857142856</ele><time>2026-04-26T09:19:00Z</time></trkpt><trkpt lat="43.23456829391072" lon="11.931559085157502"><ele>280.8571428571429</ele><time>2026-04-26T09:19:01Z</time></trkpt><trkpt lat="43.23452521442274" lon="11.931480599268179"><ele>281.1428571428571</ele><time>2026-04-26T09:19:02Z</time></trkpt><trkpt lat="43.23448434343406" lon="11.931400210354774"><ele>281.42857142857144</ele><time>2026-04-26T09:19:03Z</time></trkpt><trkpt lat="43.23444658142098" lon="11.93131847130407"><ele>281.7142857142857</ele><time>2026-04-26T09:19:04Z</time></trkpt><trkpt lat="43.23440579588096" lon="11.93123094934189"><ele>282.0</ele><time>2026-04-26T09:19:05Z</time></trkpt><trkpt lat="43.23436558957824" lon="11.931150062091106"><ele>282.0</ele><time>2026-04-26T09:19:06Z</time></trkpt><trkpt lat="43.23432037871667" lon="11.93106534477832"><ele>282.0</ele><time>2026-04-26T09:19:07Z</time></trkpt><trkpt lat="43.23427874008167" lon="11.930981825699686"><ele>282.0</ele><time>2026-04-26T09:19:08Z</time></trkpt><trkpt lat="43.234237913060596" lon="11.93090497048363"><ele>282.0</ele><time>2026-04-26T09:19:09Z</time></trkpt><trkpt lat="43.23419581250946" lon="11.930829775995988"><ele>282.0</ele><time>2026-04-26T09:19:10Z</time></trkpt><trkpt lat="43.234154729789836" lon="11.930750042463094"><ele>282.0</ele><time>2026-04-26T09:19:11Z</time></trkpt><trkpt lat="43.23411533040246" lon="11.930667842394215"><ele>282.0</ele><time>2026-04-26T09:19:12Z</time></trkpt><trkpt lat="43.23407344021034" lon="11.93059189846571"><ele>282.0</ele><time>2026-04-26T09:19:13Z</time></trkpt><trkpt lat="43.23403099233621" lon="11.930521136374646"><ele>282.0</ele><time>2026-04-26T09:19:14Z</time></trkpt><trkpt lat="43.23398885098993" lon="11.930450655450805"><ele>282.0</ele><time>2026-04-26T09:19:15Z</time></trkpt><trkpt lat="43.23394665170441" lon="11.930371163817881"><ele>282.0</ele><time>2026-04-26T09:19:16Z</time></trkpt><trkpt lat="43.233909140891484" lon="11.93029110417426"><ele>282.0</ele><time>2026-04-26T09:19:17Z</time></trkpt><trkpt lat="43.23386709495457" lon="11.930220028460404"><ele>282.0</ele><time>2026-04-26T09:19:18Z</time></trkpt><trkpt lat="43.23382341391871" lon="11.930155606342487"><ele>282.0</ele><time>2026-04-26T09:19:19Z</time></trkpt><trkpt lat="43.233776499462756" lon="11.930092669061036"><ele>282.0</ele><time>2026-04-26T09:19:20Z</time></trkpt><trkpt lat="43.233689313761786" lon="11.929991788904006"><ele>282.0</ele><time>2026-04-26T09:19:22Z</time></trkpt><trkpt lat="43.23363725997598" lon="11.929932595402681"><ele>282.0</ele><time>2026-04-26T09:19:24Z</time></trkpt><trkpt lat="43.23355669616134" lon="11.930073690145312"><ele>282.0</ele><time>2026-04-26T09:19:25Z</time></trkpt><trkpt lat="43.23348143381299" lon="11.930148259366272"><ele>282.0</ele><time>2026-04-26T09:19:27Z</time></trkpt><trkpt lat="43.23338410765652" lon="11.93025055426922"><ele>282.0</ele><time>2026-04-26T09:19:29Z</time></trkpt><trkpt lat="43.233276332777415" lon="11.930348970539578"><ele>282.0</ele><time>2026-04-26T09:19:31Z</time></trkpt><trkpt lat="43.2332202192445" lon="11.930396549372583"><ele>282.0</ele><time>2026-04-26T09:19:32Z</time></trkpt><trkpt lat="43.23316120841953" lon="11.930446437776737"><ele>282.0</ele><time>2026-04-26T09:19:33Z</time></trkpt><trkpt lat="43.233107977258236" lon="11.930493675990407"><ele>282.0</ele><time>2026-04-26T09:19:34Z</time></trkpt><trkpt lat="43.23300807225028" lon="11.930599116772626"><ele>281.6666666666667</ele><time>2026-04-26T09:19:36Z</time></trkpt><trkpt lat="43.232954317029744" lon="11.930652002786223"><ele>281.3333333333333</ele><time>2026-04-26T09:19:37Z</time></trkpt><trkpt lat="43.232895070055065" lon="11.93071148575048"><ele>281.0</ele><time>2026-04-26T09:19:38Z</time></trkpt><trkpt lat="43.23283575895322" lon="11.930752770025228"><ele>280.66666666666663</ele><time>2026-04-26T09:19:39Z</time></trkpt><trkpt lat="43.23276934939206" lon="11.930811768623247"><ele>280.3333333333333</ele><time>2026-04-26T09:19:40Z</time></trkpt><trkpt lat="43.23271383472125" lon="11.930866300586768"><ele>280.0</ele><time>2026-04-26T09:19:41Z</time></trkpt><trkpt lat="43.23262701902366" lon="11.93097002112267"><ele>279.85714285714283</ele><time>2026-04-26T09:19:43Z</time></trkpt><trkpt lat="43.232566961423835" lon="11.931026367172821"><ele>279.7142857142857</ele><time>2026-04-26T09:19:44Z</time></trkpt><trkpt lat="43.23250971000482" lon="11.931083491158823"><ele>279.57142857142856</ele><time>2026-04-26T09:19:45Z</time></trkpt><trkpt lat="43.23245040904193" lon="11.931136321599663"><ele>279.42857142857144</ele><time>2026-04-26T09:19:46Z</time></trkpt><trkpt lat="43.23239207336509" lon="11.931199111841066"><ele>279.2857142857143</ele><time>2026-04-26T09:19:47Z</time></trkpt><trkpt lat="43.23233348697645" lon="11.931260326658505"><ele>279.1428571428571</ele><time>2026-04-26T09:19:48Z</time></trkpt><trkpt lat="43.23227297437569" lon="11.931317460691194"><ele>279.0</ele><time>2026-04-26T09:19:49Z</time></trkpt><trkpt lat="43.23221706940291" lon="11.931369392979443"><ele>278.1428571428571</ele><time>2026-04-26T09:19:50Z</time></trkpt><trkpt lat="43.2321675183847" lon="11.931432350677015"><ele>277.2857142857143</ele><time>2026-04-26T09:19:51Z</time></trkpt><trkpt lat="43.23211313080043" lon="11.931492235198986"><ele>276.42857142857144</ele><time>2026-04-26T09:19:52Z</time></trkpt><trkpt lat="43.2320587275664" lon="11.93155544437922"><ele>275.57142857142856</ele><time>2026-04-26T09:19:53Z</time></trkpt><trkpt lat="43.23200512219464" lon="11.931616894606659"><ele>274.7142857142857</ele><time>2026-04-26T09:19:54Z</time></trkpt><trkpt lat="43.23195220942999" lon="11.93168126785297"><ele>273.85714285714283</ele><time>2026-04-26T09:19:55Z</time></trkpt><trkpt lat="43.231898519091224" lon="11.93174396449549"><ele>273.0</ele><time>2026-04-26T09:19:56Z</time></trkpt><trkpt lat="43.23184421538261" lon="11.931807017859379"><ele>272.57142857142856</ele><time>2026-04-26T09:19:57Z</time></trkpt><trkpt lat="43.23179087739119" lon="11.931867262291592"><ele>272.1428571428571</ele><time>2026-04-26T09:19:58Z</time></trkpt><trkpt lat="43.231736317035164" lon="11.931925570590629"><ele>271.7142857142857</ele><time>2026-04-26T09:19:59Z</time></trkpt><trkpt lat="43.23168042528109" lon="11.931982907211772"><ele>271.2857142857143</ele><time>2026-04-26T09:20:00Z</time></trkpt><trkpt lat="43.2316310012596" lon="11.932048271063973"><ele>270.85714285714283</ele><time>2026-04-26T09:20:01Z</time></trkpt><trkpt lat="43.23158007164815" lon="11.932111598536054"><ele>270.42857142857144</ele><time>2026-04-26T09:20:02Z</time></trkpt><trkpt lat="43.23152687515073" lon="11.932173204443345"><ele>270.0</ele><time>2026-04-26T09:20:03Z</time></trkpt><trkpt lat="43.23147559533195" lon="11.932232302841788"><ele>270.57142857142856</ele><time>2026-04-26T09:20:04Z</time></trkpt><trkpt lat="43.2314247930955" lon="11.932292530973202"><ele>271.1428571428571</ele><time>2026-04-26T09:20:05Z</time></trkpt><trkpt lat="43.2313740992961" lon="11.93235164653736"><ele>271.7142857142857</ele><time>2026-04-26T09:20:06Z</time></trkpt><trkpt lat="43.23132418994898" lon="11.932422416358301"><ele>272.2857142857143</ele><time>2026-04-26T09:20:07Z</time></trkpt><trkpt lat="43.231275127505704" lon="11.932476714396827"><ele>272.8571428571429</ele><time>2026-04-26T09:20:08Z</time></trkpt><trkpt lat="43.23122525350803" lon="11.932539074115306"><ele>273.42857142857144</ele><time>2026-04-26T09:20:09Z</time></trkpt><trkpt lat="43.23117442397147" lon="11.932600430136537"><ele>274.0</ele><time>2026-04-26T09:20:10Z</time></trkpt><trkpt lat="43.231120667719885" lon="11.932661501048772"><ele>274.14285714285717</ele><time>2026-04-26T09:20:11Z</time></trkpt><trkpt lat="43.231067146521525" lon="11.932723542143153"><ele>274.2857142857143</ele><time>2026-04-26T09:20:12Z</time></trkpt><trkpt lat="43.23101340749367" lon="11.93278694654009"><ele>274.42857142857144</ele><time>2026-04-26T09:20:13Z</time></trkpt><trkpt lat="43.23095527293565" lon="11.932844381587024"><ele>274.57142857142856</ele><time>2026-04-26T09:20:14Z</time></trkpt><trkpt lat="43.23089504715476" lon="11.932900541755892"><ele>274.7142857142857</ele><time>2026-04-26T09:20:15Z</time></trkpt><trkpt lat="43.230835363580745" lon="11.932950502630668"><ele>274.8571428571429</ele><time>2026-04-26T09:20:16Z</time></trkpt><trkpt lat="43.2307715667017" lon="11.932992409811837"><ele>275.0</ele><time>2026-04-26T09:20:17Z</time></trkpt><trkpt lat="43.23070589694925" lon="11.933028902251882"><ele>275.57142857142856</ele><time>2026-04-26T09:20:18Z</time></trkpt><trkpt lat="43.23063883834345" lon="11.933066788399476"><ele>276.1428571428571</ele><time>2026-04-26T09:20:19Z</time></trkpt><trkpt lat="43.23057407769483" lon="11.933104823372815"><ele>276.71428571428567</ele><time>2026-04-26T09:20:20Z</time></trkpt><trkpt lat="43.230509064265306" lon="11.933142701684066"><ele>277.2857142857143</ele><time>2026-04-26T09:20:21Z</time></trkpt><trkpt lat="43.230447477753245" lon="11.933185909067976"><ele>277.85714285714283</ele><time>2026-04-26T09:20:22Z</time></trkpt><trkpt lat="43.230391053961284" lon="11.933233305299622"><ele>278.4285714285714</ele><time>2026-04-26T09:20:23Z</time></trkpt><trkpt lat="43.230329169682335" lon="11.93327703801657"><ele>279.0</ele><time>2026-04-26T09:20:24Z</time></trkpt><trkpt lat="43.2302643361936" lon="11.933323221463882"><ele>279.0</ele><time>2026-04-26T09:20:25Z</time></trkpt><trkpt lat="43.23019961070173" lon="11.933379466882387"><ele>279.0</ele><time>2026-04-26T09:20:26Z</time></trkpt><trkpt lat="43.230138894877484" lon="11.933438935642917"><ele>279.0</ele><time>2026-04-26T09:20:27Z</time></trkpt><trkpt lat="43.230077095803836" lon="11.933506963021232"><ele>279.0</ele><time>2026-04-26T09:20:28Z</time></trkpt><trkpt lat="43.230023102041024" lon="11.933582791863149"><ele>279.0</ele><time>2026-04-26T09:20:29Z</time></trkpt><trkpt lat="43.22996263799061" lon="11.933651207422766"><ele>279.0</ele><time>2026-04-26T09:20:30Z</time></trkpt><trkpt lat="43.229901317805094" lon="11.933721768921755"><ele>279.0</ele><time>2026-04-26T09:20:31Z</time></trkpt><trkpt lat="43.22984296069843" lon="11.93379306494964"><ele>279.0</ele><time>2026-04-26T09:20:32Z</time></trkpt><trkpt lat="43.229788203730685" lon="11.933864068195625"><ele>279.0</ele><time>2026-04-26T09:20:33Z</time></trkpt><trkpt lat="43.22973476842108" lon="11.933933877886883"><ele>279.0</ele><time>2026-04-26T09:20:34Z</time></trkpt><trkpt lat="43.22968411733672" lon="11.933998325376656"><ele>279.0</ele><time>2026-04-26T09:20:35Z</time></trkpt><trkpt lat="43.229602037923634" lon="11.934100745957789"><ele>279.0</ele><time>2026-04-26T09:20:37Z</time></trkpt><trkpt lat="43.229526347516504" lon="11.93420858259445"><ele>279.4</ele><time>2026-04-26T09:20:39Z</time></trkpt><trkpt lat="43.229477794125934" lon="11.934326086595005"><ele>279.79999999999995</ele><time>2026-04-26T09:20:41Z</time></trkpt><trkpt lat="43.22946786047869" lon="11.934463724465129"><ele>280.20000000000005</ele><time>2026-04-26T09:20:43Z</time></trkpt><trkpt lat="43.22950980231451" lon="11.934604462799863"><ele>280.6</ele><time>2026-04-26T09:20:45Z</time></trkpt><trkpt lat="43.22957438696955" lon="11.934742151536065"><ele>281.0</ele><time>2026-04-26T09:20:47Z</time></trkpt><trkpt lat="43.229644311866814" lon="11.934891208717977"><ele>281.0</ele><time>2026-04-26T09:20:49Z</time></trkpt><trkpt lat="43.22968171669878" lon="11.934975636398088"><ele>281.0</ele><time>2026-04-26T09:20:50Z</time></trkpt><trkpt lat="43.22971739897878" lon="11.935053430422524"><ele>281.0</ele><time>2026-04-26T09:20:51Z</time></trkpt><trkpt lat="43.22978552842928" lon="11.935190342668978"><ele>281.0</ele><time>2026-04-26T09:20:53Z</time></trkpt><trkpt lat="43.2298173019181" lon="11.935266710148367"><ele>281.0</ele><time>2026-04-26T09:20:54Z</time></trkpt><trkpt lat="43.22987099360717" lon="11.935391200412406"><ele>281.0</ele><time>2026-04-26T09:20:56Z</time></trkpt><trkpt lat="43.22992027080949" lon="11.935526042531817"><ele>281.0</ele><time>2026-04-26T09:20:58Z</time></trkpt><trkpt lat="43.229976049374976" lon="11.935678992068022"><ele>281.0</ele><time>2026-04-26T09:21:00Z</time></trkpt><trkpt lat="43.23000499390243" lon="11.93576155930401"><ele>281.0</ele><time>2026-04-26T09:21:01Z</time></trkpt><trkpt lat="43.23003133590991" lon="11.935849111394598"><ele>281.0</ele><time>2026-04-26T09:21:02Z</time></trkpt><trkpt lat="43.230057026960104" lon="11.935937810278187"><ele>281.0</ele><time>2026-04-26T09:21:03Z</time></trkpt><trkpt lat="43.230076994243404" lon="11.936020648833274"><ele>281.0</ele><time>2026-04-26T09:21:04Z</time></trkpt><trkpt lat="43.230098271442756" lon="11.936103467699501"><ele>281.0</ele><time>2026-04-26T09:21:05Z</time></trkpt><trkpt lat="43.23013756252825" lon="11.936263847848648"><ele>281.0</ele><time>2026-04-26T09:21:07Z</time></trkpt><trkpt lat="43.23015392348091" lon="11.936352875742298"><ele>281.0</ele><time>2026-04-26T09:21:08Z</time></trkpt><trkpt lat="43.23016356548455" lon="11.936443917154595"><ele>281.0</ele><time>2026-04-26T09:21:09Z</time></trkpt><trkpt lat="43.23016784563005" lon="11.936535029763085"><ele>281.0</ele><time>2026-04-26T09:21:10Z</time></trkpt><trkpt lat="43.230168283906636" lon="11.936627593483191"><ele>281.0</ele><time>2026-04-26T09:21:11Z</time></trkpt><trkpt lat="43.23016768492254" lon="11.936718792465221"><ele>280.5714285714286</ele><time>2026-04-26T09:21:12Z</time></trkpt><trkpt lat="43.23016772917354" lon="11.936811898801908"><ele>280.14285714285717</ele><time>2026-04-26T09:21:13Z</time></trkpt><trkpt lat="43.23016809168939" lon="11.936903018634029"><ele>279.7142857142857</ele><time>2026-04-26T09:21:14Z</time></trkpt><trkpt lat="43.230167780815066" lon="11.936996691204818"><ele>279.28571428571433</ele><time>2026-04-26T09:21:15Z</time></trkpt><trkpt lat="43.23016900831505" lon="11.937088840670942"><ele>278.8571428571429</ele><time>2026-04-26T09:21:16Z</time></trkpt><trkpt lat="43.23017234427519" lon="11.93718069201157"><ele>278.42857142857144</ele><time>2026-04-26T09:21:17Z</time></trkpt><trkpt lat="43.230171659199904" lon="11.937273800113287"><ele>278.0</ele><time>2026-04-26T09:21:18Z</time></trkpt><trkpt lat="43.230172863328264" lon="11.937369176381337"><ele>278.0</ele><time>2026-04-26T09:21:19Z</time></trkpt><trkpt lat="43.23017176967349" lon="11.937464691772675"><ele>278.0</ele><time>2026-04-26T09:21:20Z</time></trkpt><trkpt lat="43.23017298047954" lon="11.937563652080534"><ele>278.0</ele><time>2026-04-26T09:21:21Z</time></trkpt><trkpt lat="43.23017692461549" lon="11.93765888735905"><ele>278.0</ele><time>2026-04-26T09:21:22Z</time></trkpt><trkpt lat="43.23017745630166" lon="11.937751333459598"><ele>278.0</ele><time>2026-04-26T09:21:23Z</time></trkpt><trkpt lat="43.23017598189973" lon="11.937843627953953"><ele>278.0</ele><time>2026-04-26T09:21:24Z</time></trkpt><trkpt lat="43.2301714288836" lon="11.93802213963558"><ele>277.85714285714283</ele><time>2026-04-26T09:21:26Z</time></trkpt><trkpt lat="43.2301686321001" lon="11.938113412834381"><ele>277.7142857142857</ele><time>2026-04-26T09:21:27Z</time></trkpt><trkpt lat="43.23017202393519" lon="11.938208537151162"><ele>277.57142857142856</ele><time>2026-04-26T09:21:28Z</time></trkpt><trkpt lat="43.23016881833012" lon="11.938302696143687"><ele>277.42857142857144</ele><time>2026-04-26T09:21:29Z</time></trkpt><trkpt lat="43.230161814012426" lon="11.938401739097625"><ele>277.2857142857143</ele><time>2026-04-26T09:21:30Z</time></trkpt><trkpt lat="43.23014880567602" lon="11.938501821016102"><ele>277.1428571428571</ele><time>2026-04-26T09:21:31Z</time></trkpt><trkpt lat="43.230134725720106" lon="11.938600914848768"><ele>277.0</ele><time>2026-04-26T09:21:32Z</time></trkpt><trkpt lat="43.23011831833769" lon="11.938702035286742"><ele>276.66666666666663</ele><time>2026-04-26T09:21:33Z</time></trkpt><trkpt lat="43.23009563890826" lon="11.938804028491717"><ele>276.3333333333333</ele><time>2026-04-26T09:21:34Z</time></trkpt><trkpt lat="43.23006971717656" lon="11.938902023031188"><ele>276.0</ele><time>2026-04-26T09:21:35Z</time></trkpt><trkpt lat="43.230046106358664" lon="11.939002954659744"><ele>275.6666666666667</ele><time>2026-04-26T09:21:36Z</time></trkpt><trkpt lat="43.23002459655574" lon="11.939102972364665"><ele>275.33333333333337</ele><time>2026-04-26T09:21:37Z</time></trkpt><trkpt lat="43.23000072752582" lon="11.939196572401771"><ele>275.0</ele><time>2026-04-26T09:21:38Z</time></trkpt><trkpt lat="43.229979696073144" lon="11.939290634988664"><ele>274.6666666666667</ele><time>2026-04-26T09:21:39Z</time></trkpt><trkpt lat="43.229954157390864" lon="11.939391172465958"><ele>274.33333333333337</ele><time>2026-04-26T09:21:40Z</time></trkpt><trkpt lat="43.229929412134005" lon="11.939487942239504"><ele>274.0</ele><time>2026-04-26T09:21:41Z</time></trkpt><trkpt lat="43.22990638223747" lon="11.93958903289309"><ele>273.6666666666667</ele><time>2026-04-26T09:21:42Z</time></trkpt><trkpt lat="43.22987418734593" lon="11.939690295483317"><ele>273.3333333333333</ele><time>2026-04-26T09:21:43Z</time></trkpt><trkpt lat="43.229852690420216" lon="11.939791920965748"><ele>273.0</ele><time>2026-04-26T09:21:44Z</time></trkpt><trkpt lat="43.229829041921406" lon="11.939887423268251"><ele>272.5</ele><time>2026-04-26T09:21:45Z</time></trkpt><trkpt lat="43.22980217283547" lon="11.939988256625442"><ele>272.0</ele><time>2026-04-26T09:21:46Z</time></trkpt><trkpt lat="43.2297720315551" lon="11.940092981467426"><ele>271.5</ele><time>2026-04-26T09:21:47Z</time></trkpt><trkpt lat="43.22974204958086" lon="11.940188206421448"><ele>271.0</ele><time>2026-04-26T09:21:48Z</time></trkpt><trkpt lat="43.22971137794416" lon="11.940285464450834"><ele>270.5</ele><time>2026-04-26T09:21:49Z</time></trkpt><trkpt lat="43.22967888135782" lon="11.940385050688015"><ele>270.0</ele><time>2026-04-26T09:21:50Z</time></trkpt><trkpt lat="43.229644116740836" lon="11.940486533860842"><ele>269.5</ele><time>2026-04-26T09:21:51Z</time></trkpt><trkpt lat="43.22960539563653" lon="11.940588745771818"><ele>269.0</ele><time>2026-04-26T09:21:52Z</time></trkpt><trkpt lat="43.22956319137846" lon="11.940692308076061"><ele>268.5</ele><time>2026-04-26T09:21:53Z</time></trkpt><trkpt lat="43.22951634393574" lon="11.940794563559164"><ele>268.0</ele><time>2026-04-26T09:21:54Z</time></trkpt><trkpt lat="43.22946985820501" lon="11.940898404720533"><ele>267.5</ele><time>2026-04-26T09:21:55Z</time></trkpt><trkpt lat="43.22941817919173" lon="11.940995742340235"><ele>267.0</ele><time>2026-04-26T09:21:56Z</time></trkpt><trkpt lat="43.22936609570811" lon="11.941088767248917"><ele>266.3333333333333</ele><time>2026-04-26T09:21:57Z</time></trkpt><trkpt lat="43.22930994489313" lon="11.941175068909825"><ele>265.6666666666667</ele><time>2026-04-26T09:21:58Z</time></trkpt><trkpt lat="43.22925465527736" lon="11.94125570739701"><ele>265.0</ele><time>2026-04-26T09:21:59Z</time></trkpt><trkpt lat="43.2291994981673" lon="11.941333265995098"><ele>264.33333333333337</ele><time>2026-04-26T09:22:00Z</time></trkpt><trkpt lat="43.22914562151503" lon="11.94140832662188"><ele>263.6666666666667</ele><time>2026-04-26T09:22:01Z</time></trkpt><trkpt lat="43.22908880730021" lon="11.94148487915402"><ele>263.0</ele><time>2026-04-26T09:22:02Z</time></trkpt><trkpt lat="43.229033025285766" lon="11.941560817828679"><ele>263.0</ele><time>2026-04-26T09:22:03Z</time></trkpt><trkpt lat="43.22897617290484" lon="11.94163577739835"><ele>263.0</ele><time>2026-04-26T09:22:04Z</time></trkpt><trkpt lat="43.22892039243099" lon="11.94171020212743"><ele>263.0</ele><time>2026-04-26T09:22:05Z</time></trkpt><trkpt lat="43.22886464885272" lon="11.941785880501953"><ele>263.0</ele><time>2026-04-26T09:22:06Z</time></trkpt><trkpt lat="43.22881200942246" lon="11.94186468651365"><ele>263.0</ele><time>2026-04-26T09:22:07Z</time></trkpt><trkpt lat="43.228752430415" lon="11.941936767257136"><ele>263.0</ele><time>2026-04-26T09:22:08Z</time></trkpt><trkpt lat="43.22869489613322" lon="11.9420111244485"><ele>262.0</ele><time>2026-04-26T09:22:09Z</time></trkpt><trkpt lat="43.2286372532316" lon="11.94208958415023"><ele>261.0</ele><time>2026-04-26T09:22:10Z</time></trkpt><trkpt lat="43.22858202646149" lon="11.942161869054523"><ele>260.0</ele><time>2026-04-26T09:22:11Z</time></trkpt><trkpt lat="43.2285269134163" lon="11.942230346509636"><ele>259.0</ele><time>2026-04-26T09:22:12Z</time></trkpt><trkpt lat="43.22847577950599" lon="11.942294945645434"><ele>258.0</ele><time>2026-04-26T09:22:13Z</time></trkpt><trkpt lat="43.22842403769073" lon="11.942364297828716"><ele>257.0</ele><time>2026-04-26T09:22:14Z</time></trkpt><trkpt lat="43.22837214301647" lon="11.942435456770717"><ele>256.0</ele><time>2026-04-26T09:22:15Z</time></trkpt><trkpt lat="43.22832134916324" lon="11.942503032226687"><ele>256.0</ele><time>2026-04-26T09:22:16Z</time></trkpt><trkpt lat="43.228269295437165" lon="11.942574409547092"><ele>255.99999999999997</ele><time>2026-04-26T09:22:17Z</time></trkpt><trkpt lat="43.22821548528819" lon="11.942642781721645"><ele>256.0</ele><time>2026-04-26T09:22:18Z</time></trkpt><trkpt lat="43.228164303065256" lon="11.94271392141553"><ele>256.0</ele><time>2026-04-26T09:22:19Z</time></trkpt><trkpt lat="43.22811232881965" lon="11.942787487470977"><ele>255.99999999999997</ele><time>2026-04-26T09:22:20Z</time></trkpt><trkpt lat="43.22805915455891" lon="11.942858652850012"><ele>256.0</ele><time>2026-04-26T09:22:21Z</time></trkpt><trkpt lat="43.22800556534229" lon="11.942928510285181"><ele>256.0</ele><time>2026-04-26T09:22:22Z</time></trkpt><trkpt lat="43.227949804343055" lon="11.943001386866321"><ele>255.99999999999997</ele><time>2026-04-26T09:22:23Z</time></trkpt><trkpt lat="43.22789249835556" lon="11.943074142017487"><ele>256.0</ele><time>2026-04-26T09:22:24Z</time></trkpt><trkpt lat="43.227834008517725" lon="11.943146125052769"><ele>256.0</ele><time>2026-04-26T09:22:25Z</time></trkpt><trkpt lat="43.22777477739557" lon="11.943219775376432"><ele>256.0</ele><time>2026-04-26T09:22:26Z</time></trkpt><trkpt lat="43.22771233266382" lon="11.943287396688646"><ele>255.99999999999997</ele><time>2026-04-26T09:22:27Z</time></trkpt><trkpt lat="43.227649096688694" lon="11.943352128787435"><ele>256.0</ele><time>2026-04-26T09:22:28Z</time></trkpt><trkpt lat="43.22758489804705" lon="11.943412492931424"><ele>256.16666666666663</ele><time>2026-04-26T09:22:29Z</time></trkpt><trkpt lat="43.22751585891163" lon="11.943466796188734"><ele>256.3333333333333</ele><time>2026-04-26T09:22:30Z</time></trkpt><trkpt lat="43.227447788377965" lon="11.943517884114707"><ele>256.5</ele><time>2026-04-26T09:22:31Z</time></trkpt><trkpt lat="43.22737762890992" lon="11.943564714134851"><ele>256.6666666666667</ele><time>2026-04-26T09:22:32Z</time></trkpt><trkpt lat="43.22730693696105" lon="11.943609366477405"><ele>256.83333333333337</ele><time>2026-04-26T09:22:33Z</time></trkpt><trkpt lat="43.227233344041096" lon="11.943651182780814"><ele>257.0</ele><time>2026-04-26T09:22:34Z</time></trkpt><trkpt lat="43.227160407555594" lon="11.943690358175136"><ele>257.1666666666667</ele><time>2026-04-26T09:22:35Z</time></trkpt><trkpt lat="43.22708671762282" lon="11.943724423853459"><ele>257.33333333333337</ele><time>2026-04-26T09:22:36Z</time></trkpt><trkpt lat="43.22701092074584" lon="11.943753330781925"><ele>257.5</ele><time>2026-04-26T09:22:37Z</time></trkpt><trkpt lat="43.22693595260586" lon="11.943781525390415"><ele>257.6666666666667</ele><time>2026-04-26T09:22:38Z</time></trkpt><trkpt lat="43.22685985021915" lon="11.943803200421653"><ele>257.8333333333333</ele><time>2026-04-26T09:22:39Z</time></trkpt><trkpt lat="43.22678539414717" lon="11.943818033710391"><ele>258.0</ele><time>2026-04-26T09:22:40Z</time></trkpt><trkpt lat="43.22670847476764" lon="11.943828886369854"><ele>258.0</ele><time>2026-04-26T09:22:41Z</time></trkpt><trkpt lat="43.2266278189254" lon="11.943841667582257"><ele>258.0</ele><time>2026-04-26T09:22:42Z</time></trkpt><trkpt lat="43.22655071431354" lon="11.943850131903295"><ele>258.0</ele><time>2026-04-26T09:22:43Z</time></trkpt><trkpt lat="43.22647137973621" lon="11.943859943158666"><ele>258.0</ele><time>2026-04-26T09:22:44Z</time></trkpt><trkpt lat="43.226396594616126" lon="11.94387213589311"><ele>258.0</ele><time>2026-04-26T09:22:45Z</time></trkpt><trkpt lat="43.22632218725392" lon="11.94388107179146"><ele>258.0</ele><time>2026-04-26T09:22:46Z</time></trkpt><trkpt lat="43.226249842329516" lon="11.943891072203698"><ele>258.4285714285714</ele><time>2026-04-26T09:22:47Z</time></trkpt><trkpt lat="43.22617735442731" lon="11.943900073304285"><ele>258.85714285714283</ele><time>2026-04-26T09:22:47.999Z</time></trkpt><trkpt lat="43.2261058286319" lon="11.943910834220377"><ele>259.2857142857143</ele><time>2026-04-26T09:22:48.999Z</time></trkpt><trkpt lat="43.22603659404864" lon="11.943927733620205"><ele>259.71428571428567</ele><time>2026-04-26T09:22:49.999Z</time></trkpt><trkpt lat="43.22597072308851" lon="11.943950924608895"><ele>260.1428571428571</ele><time>2026-04-26T09:22:50.999Z</time></trkpt><trkpt lat="43.225906232081066" lon="11.943981199216966"><ele>260.57142857142856</ele><time>2026-04-26T09:22:51.999Z</time></trkpt><trkpt lat="43.225843081318544" lon="11.944018298610262"><ele>261.0</ele><time>2026-04-26T09:22:52.999Z</time></trkpt><trkpt lat="43.22578284469221" lon="11.944059493579017"><ele>261.0</ele><time>2026-04-26T09:22:53.999Z</time></trkpt><trkpt lat="43.22572557430795" lon="11.944108022320068"><ele>261.0</ele><time>2026-04-26T09:22:54.999Z</time></trkpt><trkpt lat="43.22567351024807" lon="11.944165699355253"><ele>261.0</ele><time>2026-04-26T09:22:55.999Z</time></trkpt><trkpt lat="43.2256308844827" lon="11.944230649748299"><ele>261.0</ele><time>2026-04-26T09:22:56.999Z</time></trkpt><trkpt lat="43.22557929382515" lon="11.944299013338359"><ele>261.0</ele><time>2026-04-26T09:22:57.999Z</time></trkpt><trkpt lat="43.225488806632164" lon="11.944428122297547"><ele>261.0</ele><time>2026-04-26T09:22:59.999Z</time></trkpt><trkpt lat="43.22543791873598" lon="11.94450025185934"><ele>261.7142857142857</ele><time>2026-04-26T09:23:00.999Z</time></trkpt><trkpt lat="43.22539102596186" lon="11.944568147486562"><ele>262.42857142857144</ele><time>2026-04-26T09:23:01.999Z</time></trkpt><trkpt lat="43.22534368873687" lon="11.944643482021313"><ele>263.1428571428571</ele><time>2026-04-26T09:23:02.999Z</time></trkpt><trkpt lat="43.22529826770705" lon="11.944709320040023"><ele>263.8571428571429</ele><time>2026-04-26T09:23:03.999Z</time></trkpt><trkpt lat="43.225252311105486" lon="11.944777968337762"><ele>264.57142857142856</ele><time>2026-04-26T09:23:04.999Z</time></trkpt><trkpt lat="43.22520432806197" lon="11.944850198610546"><ele>265.2857142857143</ele><time>2026-04-26T09:23:05.999Z</time></trkpt><trkpt lat="43.22515906368446" lon="11.944915354975638"><ele>266.0</ele><time>2026-04-26T09:23:06.999Z</time></trkpt><trkpt lat="43.22511413362701" lon="11.944979983518815"><ele>266.85714285714283</ele><time>2026-04-26T09:23:07.999Z</time></trkpt><trkpt lat="43.22506900482366" lon="11.945048352250348"><ele>267.7142857142857</ele><time>2026-04-26T09:23:08.999Z</time></trkpt><trkpt lat="43.22502443380939" lon="11.945116730109767"><ele>268.57142857142856</ele><time>2026-04-26T09:23:09.999Z</time></trkpt><trkpt lat="43.224976384458586" lon="11.945185514517897"><ele>269.42857142857144</ele><time>2026-04-26T09:23:10.999Z</time></trkpt><trkpt lat="43.22493149168603" lon="11.945252586720702"><ele>270.2857142857143</ele><time>2026-04-26T09:23:11.999Z</time></trkpt><trkpt lat="43.224887586549514" lon="11.945317757197575"><ele>271.1428571428571</ele><time>2026-04-26T09:23:12.999Z</time></trkpt><trkpt lat="43.22483928889082" lon="11.945383892823012"><ele>272.0</ele><time>2026-04-26T09:23:13.999Z</time></trkpt><trkpt lat="43.22479417765626" lon="11.945455741507448"><ele>271.99999999999994</ele><time>2026-04-26T09:23:14.999Z</time></trkpt><trkpt lat="43.22474811311041" lon="11.945529513533216"><ele>272.0</ele><time>2026-04-26T09:23:15.999Z</time></trkpt><trkpt lat="43.22470045097098" lon="11.94559565950262"><ele>272.0</ele><time>2026-04-26T09:23:16.999Z</time></trkpt><trkpt lat="43.224653870880985" lon="11.945667294706658"><ele>272.0</ele><time>2026-04-26T09:23:17.998Z</time></trkpt><trkpt lat="43.22460324068133" lon="11.945733312240378"><ele>272.0</ele><time>2026-04-26T09:23:18.998Z</time></trkpt><trkpt lat="43.22455958953707" lon="11.94580371624693"><ele>271.99999999999994</ele><time>2026-04-26T09:23:19.998Z</time></trkpt><trkpt lat="43.2245115830461" lon="11.945874603017943"><ele>272.0</ele><time>2026-04-26T09:23:20.998Z</time></trkpt><trkpt lat="43.22446611419406" lon="11.94594277564154"><ele>272.2857142857143</ele><time>2026-04-26T09:23:21.998Z</time></trkpt><trkpt lat="43.22442019489415" lon="11.9460096552225"><ele>272.57142857142856</ele><time>2026-04-26T09:23:22.998Z</time></trkpt><trkpt lat="43.22437671753847" lon="11.94607721281467"><ele>272.8571428571429</ele><time>2026-04-26T09:23:23.998Z</time></trkpt><trkpt lat="43.22432597564453" lon="11.946149011545657"><ele>273.1428571428571</ele><time>2026-04-26T09:23:24.998Z</time></trkpt><trkpt lat="43.224276187718424" lon="11.946222003472723"><ele>273.42857142857144</ele><time>2026-04-26T09:23:25.998Z</time></trkpt><trkpt lat="43.22422670852387" lon="11.946300168391469"><ele>273.7142857142857</ele><time>2026-04-26T09:23:26.998Z</time></trkpt><trkpt lat="43.224178017279215" lon="11.94638150319907"><ele>274.0</ele><time>2026-04-26T09:23:27.998Z</time></trkpt><trkpt lat="43.22412491424577" lon="11.946453794073433"><ele>274.00000000000006</ele><time>2026-04-26T09:23:28.998Z</time></trkpt><trkpt lat="43.224068779940524" lon="11.946526049589055"><ele>274.0</ele><time>2026-04-26T09:23:29.998Z</time></trkpt><trkpt lat="43.22401763808204" lon="11.946593681498676"><ele>274.0</ele><time>2026-04-26T09:23:30.998Z</time></trkpt><trkpt lat="43.22396914471398" lon="11.94666108092935"><ele>274.0</ele><time>2026-04-26T09:23:31.998Z</time></trkpt><trkpt lat="43.22391687430885" lon="11.94673182131946"><ele>274.0</ele><time>2026-04-26T09:23:32.998Z</time></trkpt><trkpt lat="43.22386442222749" lon="11.946804354225097"><ele>274.00000000000006</ele><time>2026-04-26T09:23:33.998Z</time></trkpt><trkpt lat="43.22381228287847" lon="11.946868733838091"><ele>274.0</ele><time>2026-04-26T09:23:34.998Z</time></trkpt><trkpt lat="43.223755275110534" lon="11.946920019101965"><ele>274.28571428571433</ele><time>2026-04-26T09:23:35.998Z</time></trkpt><trkpt lat="43.22369672523994" lon="11.946970165827208"><ele>274.57142857142856</ele><time>2026-04-26T09:23:36.998Z</time></trkpt><trkpt lat="43.22364030424364" lon="11.94701989084341"><ele>274.8571428571429</ele><time>2026-04-26T09:23:37.998Z</time></trkpt><trkpt lat="43.22358613398901" lon="11.94706777203255"><ele>275.14285714285717</ele><time>2026-04-26T09:23:38.998Z</time></trkpt><trkpt lat="43.22352679427312" lon="11.947115448172768"><ele>275.42857142857144</ele><time>2026-04-26T09:23:39.998Z</time></trkpt><trkpt lat="43.22347126390526" lon="11.94716987559121"><ele>275.7142857142857</ele><time>2026-04-26T09:23:40.998Z</time></trkpt><trkpt lat="43.22341537788444" lon="11.947218171954729"><ele>276.0</ele><time>2026-04-26T09:23:41.998Z</time></trkpt><trkpt lat="43.223358341508735" lon="11.947273290498185"><ele>276.0</ele><time>2026-04-26T09:23:42.998Z</time></trkpt><trkpt lat="43.223311099299295" lon="11.94733423197455"><ele>276.0</ele><time>2026-04-26T09:23:43.998Z</time></trkpt><trkpt lat="43.2232698189924" lon="11.947406255776743"><ele>276.0</ele><time>2026-04-26T09:23:44.998Z</time></trkpt><trkpt lat="43.22323054651937" lon="11.947475799999543"><ele>276.0</ele><time>2026-04-26T09:23:45.998Z</time></trkpt><trkpt lat="43.22319496171197" lon="11.94754744148563"><ele>276.0</ele><time>2026-04-26T09:23:46.998Z</time></trkpt><trkpt lat="43.22315589580737" lon="11.947626307337966"><ele>276.0</ele><time>2026-04-26T09:23:47.998Z</time></trkpt><trkpt lat="43.22311947134622" lon="11.947705126464928"><ele>276.0</ele><time>2026-04-26T09:23:48.998Z</time></trkpt><trkpt lat="43.22308268396235" lon="11.947783257577983"><ele>276.42857142857144</ele><time>2026-04-26T09:23:49.998Z</time></trkpt><trkpt lat="43.223048758089206" lon="11.947865409790355"><ele>276.8571428571429</ele><time>2026-04-26T09:23:50.998Z</time></trkpt><trkpt lat="43.223011370092564" lon="11.947948595611125"><ele>277.2857142857143</ele><time>2026-04-26T09:23:51.998Z</time></trkpt><trkpt lat="43.22296974967918" lon="11.948027269987342"><ele>277.7142857142857</ele><time>2026-04-26T09:23:52.998Z</time></trkpt><trkpt lat="43.222931654953236" lon="11.94810938486745"><ele>278.1428571428571</ele><time>2026-04-26T09:23:53.998Z</time></trkpt><trkpt lat="43.22289638409935" lon="11.948193674966216"><ele>278.57142857142856</ele><time>2026-04-26T09:23:54.998Z</time></trkpt><trkpt lat="43.222858556887196" lon="11.948276748922707"><ele>279.0</ele><time>2026-04-26T09:23:55.998Z</time></trkpt><trkpt lat="43.22281803183545" lon="11.948360390673678"><ele>278.99999999999994</ele><time>2026-04-26T09:23:56.998Z</time></trkpt><trkpt lat="43.222782381549145" lon="11.94843588858149"><ele>279.0</ele><time>2026-04-26T09:23:57.998Z</time></trkpt><trkpt lat="43.22274474476346" lon="11.948513850237314"><ele>279.0</ele><time>2026-04-26T09:23:58.998Z</time></trkpt><trkpt lat="43.22270974946834" lon="11.948594722313011"><ele>279.0</ele><time>2026-04-26T09:23:59.998Z</time></trkpt><trkpt lat="43.22266451062344" lon="11.948669851826038"><ele>279.0</ele><time>2026-04-26T09:24:00.998Z</time></trkpt><trkpt lat="43.22261673669054" lon="11.94874460123287"><ele>278.99999999999994</ele><time>2026-04-26T09:24:01.998Z</time></trkpt><trkpt lat="43.22256501907047" lon="11.948819703049793"><ele>279.0</ele><time>2026-04-26T09:24:02.998Z</time></trkpt><trkpt lat="43.22250956563499" lon="11.94887668690054"><ele>279.0</ele><time>2026-04-26T09:24:03.998Z</time></trkpt><trkpt lat="43.222453679149886" lon="11.9489383821377"><ele>279.0</ele><time>2026-04-26T09:24:04.998Z</time></trkpt><trkpt lat="43.222400213926676" lon="11.94899457466211"><ele>279.0</ele><time>2026-04-26T09:24:05.998Z</time></trkpt><trkpt lat="43.22234408300236" lon="11.949039033534682"><ele>279.0</ele><time>2026-04-26T09:24:06.998Z</time></trkpt><trkpt lat="43.22223794945969" lon="11.949136623999852"><ele>279.0</ele><time>2026-04-26T09:24:08.998Z</time></trkpt><trkpt lat="43.222181521710354" lon="11.949193213671807"><ele>279.0</ele><time>2026-04-26T09:24:09.998Z</time></trkpt><trkpt lat="43.22212117907979" lon="11.949247814252631"><ele>279.2857142857143</ele><time>2026-04-26T09:24:10.998Z</time></trkpt><trkpt lat="43.22205982466217" lon="11.949297581636436"><ele>279.57142857142856</ele><time>2026-04-26T09:24:11.998Z</time></trkpt><trkpt lat="43.22199434625339" lon="11.949347626247727"><ele>279.8571428571429</ele><time>2026-04-26T09:24:12.998Z</time></trkpt><trkpt lat="43.221936393586496" lon="11.949399530675773"><ele>280.1428571428571</ele><time>2026-04-26T09:24:13.998Z</time></trkpt><trkpt lat="43.22187986616482" lon="11.949452415846045"><ele>280.42857142857144</ele><time>2026-04-26T09:24:14.998Z</time></trkpt><trkpt lat="43.2218220749815" lon="11.94950122810298"><ele>280.7142857142857</ele><time>2026-04-26T09:24:15.998Z</time></trkpt><trkpt lat="43.22176452518919" lon="11.949555387249967"><ele>281.0</ele><time>2026-04-26T09:24:16.998Z</time></trkpt><trkpt lat="43.22170671208408" lon="11.94960967019284"><ele>281.0</ele><time>2026-04-26T09:24:17.998Z</time></trkpt><trkpt lat="43.22164992895891" lon="11.94966597212891"><ele>281.0</ele><time>2026-04-26T09:24:18.998Z</time></trkpt><trkpt lat="43.22159098567553" lon="11.949716923256235"><ele>281.0</ele><time>2026-04-26T09:24:19.998Z</time></trkpt><trkpt lat="43.22148915054754" lon="11.949797195182835"><ele>281.0</ele><time>2026-04-26T09:24:21.998Z</time></trkpt><trkpt lat="43.22140762969925" lon="11.94985387957206"><ele>281.0</ele><time>2026-04-26T09:24:23.998Z</time></trkpt><trkpt lat="43.22134782849988" lon="11.94992390261641"><ele>281.0</ele><time>2026-04-26T09:24:26.998Z</time></trkpt><trkpt lat="43.22125425867825" lon="11.94997164835596"><ele>280.40000000000003</ele><time>2026-04-26T09:24:29.998Z</time></trkpt><trkpt lat="43.22117069756024" lon="11.95007572958123"><ele>279.8</ele><time>2026-04-26T09:24:31.999Z</time></trkpt><trkpt lat="43.2211233905484" lon="11.950133921562426"><ele>279.20000000000005</ele><time>2026-04-26T09:24:32.999Z</time></trkpt><trkpt lat="43.22101729882101" lon="11.950223402678215"><ele>278.6</ele><time>2026-04-26T09:24:34.999Z</time></trkpt><trkpt lat="43.220914110036304" lon="11.950319083394382"><ele>278.0</ele><time>2026-04-26T09:24:36.999Z</time></trkpt><trkpt lat="43.220859300174325" lon="11.950372398090897"><ele>278.0</ele><time>2026-04-26T09:24:37.999Z</time></trkpt><trkpt lat="43.22080498822699" lon="11.950429215164254"><ele>278.0</ele><time>2026-04-26T09:24:38.999Z</time></trkpt><trkpt lat="43.22074298095542" lon="11.95046905815035"><ele>278.0</ele><time>2026-04-26T09:24:39.999Z</time></trkpt><trkpt lat="43.220688882511" lon="11.950514628267184"><ele>278.0</ele><time>2026-04-26T09:24:40.999Z</time></trkpt><trkpt lat="43.2205845933263" lon="11.95061221192839"><ele>278.0</ele><time>2026-04-26T09:24:42.999Z</time></trkpt><trkpt lat="43.2205226337857" lon="11.950659197058462"><ele>278.0</ele><time>2026-04-26T09:24:43.999Z</time></trkpt><trkpt lat="43.22046487676917" lon="11.950695681925785"><ele>277.57142857142856</ele><time>2026-04-26T09:24:44.999Z</time></trkpt><trkpt lat="43.22040857686741" lon="11.950736391699047"><ele>277.14285714285717</ele><time>2026-04-26T09:24:45.999Z</time></trkpt><trkpt lat="43.220343724713594" lon="11.950774253182795"><ele>276.7142857142857</ele><time>2026-04-26T09:24:46.999Z</time></trkpt><trkpt lat="43.22027272298637" lon="11.950810969247756"><ele>276.2857142857143</ele><time>2026-04-26T09:24:47.999Z</time></trkpt><trkpt lat="43.22020233111352" lon="11.950838411570103"><ele>275.85714285714283</ele><time>2026-04-26T09:24:48.999Z</time></trkpt><trkpt lat="43.22013284752063" lon="11.950874552108575"><ele>275.42857142857144</ele><time>2026-04-26T09:24:49.999Z</time></trkpt><trkpt lat="43.22006093526759" lon="11.950898775474714"><ele>275.0</ele><time>2026-04-26T09:24:50.999Z</time></trkpt><trkpt lat="43.21998978913477" lon="11.950926964164388"><ele>274.83333333333337</ele><time>2026-04-26T09:24:51.999Z</time></trkpt><trkpt lat="43.219917456183815" lon="11.950958973291428"><ele>274.6666666666667</ele><time>2026-04-26T09:24:52.999Z</time></trkpt><trkpt lat="43.21984776216699" lon="11.951000759219172"><ele>274.5</ele><time>2026-04-26T09:24:53.999Z</time></trkpt><trkpt lat="43.2197776828538" lon="11.951049763453794"><ele>274.3333333333333</ele><time>2026-04-26T09:24:54.999Z</time></trkpt><trkpt lat="43.21970955477719" lon="11.951104454281266"><ele>274.16666666666663</ele><time>2026-04-26T09:24:55.999Z</time></trkpt><trkpt lat="43.219643891894904" lon="11.95115766873306"><ele>274.0</ele><time>2026-04-26T09:24:56.999Z</time></trkpt><trkpt lat="43.21957577195719" lon="11.951213865024098"><ele>273.5</ele><time>2026-04-26T09:24:57.999Z</time></trkpt><trkpt lat="43.21950626014548" lon="11.95127103714101"><ele>273.0</ele><time>2026-04-26T09:24:58.999Z</time></trkpt><trkpt lat="43.219440045540146" lon="11.951325700247885"><ele>272.5</ele><time>2026-04-26T09:24:59.999Z</time></trkpt><trkpt lat="43.21937793547957" lon="11.951381889568067"><ele>272.0</ele><time>2026-04-26T09:25:00.999Z</time></trkpt><trkpt lat="43.21931022729548" lon="11.951443338879784"><ele>271.5</ele><time>2026-04-26T09:25:01.999Z</time></trkpt><trkpt lat="43.219243522788645" lon="11.951500293944193"><ele>271.0</ele><time>2026-04-26T09:25:02.999Z</time></trkpt><trkpt lat="43.219178440483525" lon="11.951558352269211"><ele>271.0</ele><time>2026-04-26T09:25:03.999Z</time></trkpt><trkpt lat="43.21911210293192" lon="11.951612723519952"><ele>271.0</ele><time>2026-04-26T09:25:04.999Z</time></trkpt><trkpt lat="43.21904954896161" lon="11.951667759952185"><ele>271.0</ele><time>2026-04-26T09:25:05.999Z</time></trkpt><trkpt lat="43.218990077559425" lon="11.951727071353455"><ele>271.0</ele><time>2026-04-26T09:25:06.999Z</time></trkpt><trkpt lat="43.218927675321" lon="11.951772796099748"><ele>271.0</ele><time>2026-04-26T09:25:07.999Z</time></trkpt><trkpt lat="43.21886856637165" lon="11.951820050155462"><ele>271.0</ele><time>2026-04-26T09:25:08.999Z</time></trkpt><trkpt lat="43.21880664557834" lon="11.951867897215994"><ele>271.0</ele><time>2026-04-26T09:25:09.999Z</time></trkpt><trkpt lat="43.21874456225268" lon="11.951920536226293"><ele>270.66666666666663</ele><time>2026-04-26T09:25:10.999Z</time></trkpt><trkpt lat="43.21868033506232" lon="11.951973122340709"><ele>270.3333333333333</ele><time>2026-04-26T09:25:11.999Z</time></trkpt><trkpt lat="43.218616154071036" lon="11.952027274504317"><ele>270.0</ele><time>2026-04-26T09:25:12.999Z</time></trkpt><trkpt lat="43.21854895042593" lon="11.952081948435344"><ele>269.6666666666667</ele><time>2026-04-26T09:25:13.999Z</time></trkpt><trkpt lat="43.21848175884038" lon="11.952134901834906"><ele>269.33333333333337</ele><time>2026-04-26T09:25:14.999Z</time></trkpt><trkpt lat="43.21841359533428" lon="11.952188148163916"><ele>269.0</ele><time>2026-04-26T09:25:15.999Z</time></trkpt><trkpt lat="43.21834318665161" lon="11.952238193285092"><ele>269.0</ele><time>2026-04-26T09:25:16.999Z</time></trkpt><trkpt lat="43.21826943744112" lon="11.952282900382217"><ele>269.0</ele><time>2026-04-26T09:25:17.999Z</time></trkpt><trkpt lat="43.218197934277214" lon="11.952321811569613"><ele>269.0</ele><time>2026-04-26T09:25:18.999Z</time></trkpt><trkpt lat="43.218120794459324" lon="11.952357949496697"><ele>269.0</ele><time>2026-04-26T09:25:19.999Z</time></trkpt><trkpt lat="43.21804862106399" lon="11.952386568013525"><ele>269.0</ele><time>2026-04-26T09:25:20.999Z</time></trkpt><trkpt lat="43.21798271030285" lon="11.9524226806294"><ele>269.0</ele><time>2026-04-26T09:25:21.999Z</time></trkpt><trkpt lat="43.217913960172346" lon="11.952462126601787"><ele>269.14285714285717</ele><time>2026-04-26T09:25:22.999Z</time></trkpt><trkpt lat="43.2178418998798" lon="11.952496815567011"><ele>269.28571428571433</ele><time>2026-04-26T09:25:23.999Z</time></trkpt><trkpt lat="43.21777124155337" lon="11.952531884822404"><ele>269.42857142857144</ele><time>2026-04-26T09:25:24.999Z</time></trkpt><trkpt lat="43.21770021471162" lon="11.952561558612905"><ele>269.57142857142856</ele><time>2026-04-26T09:25:25.999Z</time></trkpt><trkpt lat="43.21762761350469" lon="11.95259481668592"><ele>269.71428571428567</ele><time>2026-04-26T09:25:26.999Z</time></trkpt><trkpt lat="43.21755495591374" lon="11.952630984895826"><ele>269.85714285714283</ele><time>2026-04-26T09:25:27.999Z</time></trkpt><trkpt lat="43.217491109239454" lon="11.952653088251843"><ele>270.0</ele><time>2026-04-26T09:25:28.999Z</time></trkpt><trkpt lat="43.21741659448" lon="11.952670753239401"><ele>270.0</ele><time>2026-04-26T09:25:29.999Z</time></trkpt><trkpt lat="43.217347583877086" lon="11.95270820799521"><ele>270.0</ele><time>2026-04-26T09:25:30.999Z</time></trkpt><trkpt lat="43.21727806217823" lon="11.95273676504571"><ele>270.0</ele><time>2026-04-26T09:25:31.999Z</time></trkpt><trkpt lat="43.217161512235904" lon="11.95277608797887"><ele>270.0</ele><time>2026-04-26T09:25:33.999Z</time></trkpt><trkpt lat="43.21709930887223" lon="11.952789655777027"><ele>270.0</ele><time>2026-04-26T09:25:34.999Z</time></trkpt><trkpt lat="43.216983562176885" lon="11.952808134333099"><ele>270.0</ele><time>2026-04-26T09:25:36.999Z</time></trkpt><trkpt lat="43.21685982708475" lon="11.952829768817736"><ele>270.57142857142856</ele><time>2026-04-26T09:25:38.999Z</time></trkpt><trkpt lat="43.21679247077212" lon="11.95284103551599"><ele>271.1428571428571</ele><time>2026-04-26T09:25:39.999Z</time></trkpt><trkpt lat="43.216725756020146" lon="11.952851567302105"><ele>271.7142857142857</ele><time>2026-04-26T09:25:40.999Z</time></trkpt><trkpt lat="43.21665945649055" lon="11.952869404796434"><ele>272.2857142857143</ele><time>2026-04-26T09:25:41.999Z</time></trkpt><trkpt lat="43.216595972973" lon="11.952900256182817"><ele>272.8571428571429</ele><time>2026-04-26T09:25:42.999Z</time></trkpt><trkpt lat="43.216532852952454" lon="11.952919345658598"><ele>273.42857142857144</ele><time>2026-04-26T09:25:43.999Z</time></trkpt><trkpt lat="43.21646698663874" lon="11.952939507329155"><ele>274.0</ele><time>2026-04-26T09:25:44.999Z</time></trkpt><trkpt lat="43.21639534003929" lon="11.952944447861654"><ele>274.5</ele><time>2026-04-26T09:25:45.999Z</time></trkpt><trkpt lat="43.21632279944551" lon="11.952951064949772"><ele>275.0</ele><time>2026-04-26T09:25:46.999Z</time></trkpt><trkpt lat="43.21625000426976" lon="11.95297165504992"><ele>275.5</ele><time>2026-04-26T09:25:47.999Z</time></trkpt><trkpt lat="43.21618368858586" lon="11.952989009635251"><ele>276.0</ele><time>2026-04-26T09:25:48.999Z</time></trkpt><trkpt lat="43.21612109237565" lon="11.9530079624251"><ele>276.5</ele><time>2026-04-26T09:25:49.999Z</time></trkpt><trkpt lat="43.21599369809664" lon="11.953028740282242"><ele>277.0</ele><time>2026-04-26T09:25:51.999Z</time></trkpt><trkpt lat="43.21593010612921" lon="11.953044577233982"><ele>277.0</ele><time>2026-04-26T09:25:52.999Z</time></trkpt><trkpt lat="43.21586640046005" lon="11.953051139299813"><ele>277.0</ele><time>2026-04-26T09:25:53.999Z</time></trkpt><trkpt lat="43.215802889247016" lon="11.953063725801485"><ele>277.0</ele><time>2026-04-26T09:25:54.999Z</time></trkpt><trkpt lat="43.21573538852285" lon="11.953072223961438"><ele>277.0</ele><time>2026-04-26T09:25:55.999Z</time></trkpt><trkpt lat="43.215664976033786" lon="11.95309359101005"><ele>277.0</ele><time>2026-04-26T09:25:56.999Z</time></trkpt><trkpt lat="43.215594286067834" lon="11.953096191912284"><ele>277.0</ele><time>2026-04-26T09:25:57.999Z</time></trkpt><trkpt lat="43.21552351589009" lon="11.953105508462867"><ele>277.0</ele><time>2026-04-26T09:25:58.999Z</time></trkpt><trkpt lat="43.215451268792535" lon="11.953118725960703"><ele>277.1428571428571</ele><time>2026-04-26T09:25:59.999Z</time></trkpt><trkpt lat="43.215389074537484" lon="11.95313222094578"><ele>277.2857142857143</ele><time>2026-04-26T09:26:00.999Z</time></trkpt><trkpt lat="43.215325604191634" lon="11.953143536748108"><ele>277.42857142857144</ele><time>2026-04-26T09:26:01.999Z</time></trkpt><trkpt lat="43.21525676780405" lon="11.953153605165836"><ele>277.57142857142856</ele><time>2026-04-26T09:26:02.999Z</time></trkpt><trkpt lat="43.215185540942315" lon="11.953161697631371"><ele>277.7142857142857</ele><time>2026-04-26T09:26:03.999Z</time></trkpt><trkpt lat="43.21511303263645" lon="11.95317114876621"><ele>277.85714285714283</ele><time>2026-04-26T09:26:04.999Z</time></trkpt><trkpt lat="43.215043611303955" lon="11.953190301615592"><ele>278.0</ele><time>2026-04-26T09:26:05.999Z</time></trkpt><trkpt lat="43.21497929786001" lon="11.953219486044713"><ele>278.0</ele><time>2026-04-26T09:26:06.999Z</time></trkpt><trkpt lat="43.21491858918169" lon="11.953257597726953"><ele>278.0</ele><time>2026-04-26T09:26:07.999Z</time></trkpt><trkpt lat="43.21486119595589" lon="11.953308072571282"><ele>278.0</ele><time>2026-04-26T09:26:08.999Z</time></trkpt><trkpt lat="43.214804889186226" lon="11.953357982420629"><ele>278.0</ele><time>2026-04-26T09:26:09.999Z</time></trkpt><trkpt lat="43.214752318885324" lon="11.953414054455635"><ele>278.0</ele><time>2026-04-26T09:26:10.999Z</time></trkpt><trkpt lat="43.214695884366485" lon="11.953466906205394"><ele>278.0</ele><time>2026-04-26T09:26:11.999Z</time></trkpt><trkpt lat="43.2146371560164" lon="11.953520640948247"><ele>278.0</ele><time>2026-04-26T09:26:12.999Z</time></trkpt><trkpt lat="43.21457587262022" lon="11.953576747517582"><ele>278.0</ele><time>2026-04-26T09:26:13.999Z</time></trkpt><trkpt lat="43.21451722394538" lon="11.953632284790922"><ele>278.0</ele><time>2026-04-26T09:26:14.999Z</time></trkpt><trkpt lat="43.21446007349684" lon="11.953688642498774"><ele>278.0</ele><time>2026-04-26T09:26:15.999Z</time></trkpt><trkpt lat="43.21440355686879" lon="11.953746144876373"><ele>278.0</ele><time>2026-04-26T09:26:16.999Z</time></trkpt><trkpt lat="43.214343700189254" lon="11.953798269467056"><ele>278.0</ele><time>2026-04-26T09:26:17.999Z</time></trkpt><trkpt lat="43.214286279107434" lon="11.953853648664625"><ele>278.0</ele><time>2026-04-26T09:26:18.999Z</time></trkpt><trkpt lat="43.21423550765267" lon="11.953914254548728"><ele>278.0</ele><time>2026-04-26T09:26:19.999Z</time></trkpt><trkpt lat="43.2141802642022" lon="11.953966503500217"><ele>278.0</ele><time>2026-04-26T09:26:20.999Z</time></trkpt><trkpt lat="43.21412247252232" lon="11.954021576804253"><ele>278.0</ele><time>2026-04-26T09:26:21.999Z</time></trkpt><trkpt lat="43.21406325975398" lon="11.954075010917917"><ele>278.0</ele><time>2026-04-26T09:26:22.999Z</time></trkpt><trkpt lat="43.21400318109665" lon="11.95413191839466"><ele>278.0</ele><time>2026-04-26T09:26:23.999Z</time></trkpt><trkpt lat="43.213948011600806" lon="11.954191647885844"><ele>278.0</ele><time>2026-04-26T09:26:24.999Z</time></trkpt><trkpt lat="43.21388676046752" lon="11.95425006852474"><ele>278.0</ele><time>2026-04-26T09:26:25.999Z</time></trkpt><trkpt lat="43.213824792120676" lon="11.954307355835468"><ele>278.0</ele><time>2026-04-26T09:26:26.999Z</time></trkpt><trkpt lat="43.213764344501975" lon="11.954364540524425"><ele>278.2857142857143</ele><time>2026-04-26T09:26:27.999Z</time></trkpt><trkpt lat="43.21370923539991" lon="11.95442400454777"><ele>278.57142857142856</ele><time>2026-04-26T09:26:28.999Z</time></trkpt><trkpt lat="43.21365340203691" lon="11.95447772972183"><ele>278.8571428571429</ele><time>2026-04-26T09:26:29.999Z</time></trkpt><trkpt lat="43.21359495739754" lon="11.954531917166143"><ele>279.1428571428571</ele><time>2026-04-26T09:26:30.999Z</time></trkpt><trkpt lat="43.21353430429538" lon="11.954592033287364"><ele>279.42857142857144</ele><time>2026-04-26T09:26:31.999Z</time></trkpt><trkpt lat="43.21347344368306" lon="11.954651898078952"><ele>279.7142857142857</ele><time>2026-04-26T09:26:32.999Z</time></trkpt><trkpt lat="43.213414139638914" lon="11.954710838259796"><ele>280.0</ele><time>2026-04-26T09:26:33.999Z</time></trkpt><trkpt lat="43.213361910886164" lon="11.954765965824006"><ele>280.0</ele><time>2026-04-26T09:26:34.999Z</time></trkpt><trkpt lat="43.21330478956141" lon="11.95482365951379"><ele>280.0</ele><time>2026-04-26T09:26:35.999Z</time></trkpt><trkpt lat="43.2132553260531" lon="11.954885994649475"><ele>280.0</ele><time>2026-04-26T09:26:37Z</time></trkpt><trkpt lat="43.2132013827068" lon="11.954956022819674"><ele>280.0</ele><time>2026-04-26T09:26:38Z</time></trkpt><trkpt lat="43.213139121533324" lon="11.955028585170163"><ele>280.0</ele><time>2026-04-26T09:26:39Z</time></trkpt><trkpt lat="43.21308669742106" lon="11.955096388447291"><ele>280.0</ele><time>2026-04-26T09:26:40Z</time></trkpt><trkpt lat="43.21302984267283" lon="11.955157802613085"><ele>280.0</ele><time>2026-04-26T09:26:41Z</time></trkpt><trkpt lat="43.21297933102278" lon="11.955217355765816"><ele>279.8333333333333</ele><time>2026-04-26T09:26:42Z</time></trkpt><trkpt lat="43.21292708162617" lon="11.955290263150134"><ele>279.66666666666663</ele><time>2026-04-26T09:26:43Z</time></trkpt><trkpt lat="43.21287310899039" lon="11.955364650869093"><ele>279.5</ele><time>2026-04-26T09:26:44Z</time></trkpt><trkpt lat="43.2128181310855" lon="11.955427504340031"><ele>279.3333333333333</ele><time>2026-04-26T09:26:45Z</time></trkpt><trkpt lat="43.2127683389229" lon="11.955485257960154"><ele>279.1666666666667</ele><time>2026-04-26T09:26:46Z</time></trkpt><trkpt lat="43.21267747772942" lon="11.955594234851889"><ele>279.0</ele><time>2026-04-26T09:26:48Z</time></trkpt><trkpt lat="43.21262884173813" lon="11.955659191729604"><ele>278.99999999999994</ele><time>2026-04-26T09:26:49Z</time></trkpt><trkpt lat="43.21257664362167" lon="11.955724808250013"><ele>279.0</ele><time>2026-04-26T09:26:50Z</time></trkpt><trkpt lat="43.212523833709646" lon="11.955797674208323"><ele>279.0</ele><time>2026-04-26T09:26:51Z</time></trkpt><trkpt lat="43.21247439587676" lon="11.955864920190896"><ele>279.0</ele><time>2026-04-26T09:26:52Z</time></trkpt><trkpt lat="43.21242271046922" lon="11.955930032634292"><ele>279.0</ele><time>2026-04-26T09:26:53Z</time></trkpt><trkpt lat="43.21237304178517" lon="11.955993587656362"><ele>278.99999999999994</ele><time>2026-04-26T09:26:54Z</time></trkpt><trkpt lat="43.212323091708356" lon="11.956058092362383"><ele>279.0</ele><time>2026-04-26T09:26:55Z</time></trkpt><trkpt lat="43.212271485623575" lon="11.956121549223973"><ele>277.99999999999994</ele><time>2026-04-26T09:26:56Z</time></trkpt><trkpt lat="43.2122216057928" lon="11.956183962594428"><ele>277.0</ele><time>2026-04-26T09:26:57Z</time></trkpt><trkpt lat="43.21217181854373" lon="11.956249871964678"><ele>276.0</ele><time>2026-04-26T09:26:58Z</time></trkpt><trkpt lat="43.21212114692688" lon="11.956315997118892"><ele>275.0</ele><time>2026-04-26T09:26:59Z</time></trkpt><trkpt lat="43.212068822098" lon="11.95638059857937"><ele>274.0</ele><time>2026-04-26T09:27:00Z</time></trkpt><trkpt lat="43.212016177225586" lon="11.956448392663265"><ele>272.99999999999994</ele><time>2026-04-26T09:27:01Z</time></trkpt><trkpt lat="43.2119644175411" lon="11.956516170174007"><ele>272.0</ele><time>2026-04-26T09:27:02Z</time></trkpt><trkpt lat="43.21190746486195" lon="11.956582599700685"><ele>272.0</ele><time>2026-04-26T09:27:03Z</time></trkpt><trkpt lat="43.21185082467504" lon="11.956653027890539"><ele>272.0</ele><time>2026-04-26T09:27:04Z</time></trkpt><trkpt lat="43.21179681318604" lon="11.956729041246449"><ele>272.0</ele><time>2026-04-26T09:27:05Z</time></trkpt><trkpt lat="43.21174087716027" lon="11.956803521527736"><ele>272.0</ele><time>2026-04-26T09:27:06Z</time></trkpt><trkpt lat="43.2116912230398" lon="11.956875924458156"><ele>272.0</ele><time>2026-04-26T09:27:07Z</time></trkpt><trkpt lat="43.211632816875465" lon="11.956948755151407"><ele>272.0</ele><time>2026-04-26T09:27:08Z</time></trkpt><trkpt lat="43.21157122706936" lon="11.957029211823288"><ele>271.6666666666667</ele><time>2026-04-26T09:27:09Z</time></trkpt><trkpt lat="43.21150725018818" lon="11.957101849791753"><ele>271.33333333333337</ele><time>2026-04-26T09:27:10Z</time></trkpt><trkpt lat="43.21144445963062" lon="11.957171823343034"><ele>271.0</ele><time>2026-04-26T09:27:11Z</time></trkpt><trkpt lat="43.21138185243191" lon="11.957238723114656"><ele>270.6666666666667</ele><time>2026-04-26T09:27:12Z</time></trkpt><trkpt lat="43.211320899667044" lon="11.957309227887356"><ele>270.3333333333333</ele><time>2026-04-26T09:27:13Z</time></trkpt><trkpt lat="43.211260270330264" lon="11.957376455497373"><ele>270.0</ele><time>2026-04-26T09:27:14Z</time></trkpt><trkpt lat="43.21119682829665" lon="11.957439442847896"><ele>269.5</ele><time>2026-04-26T09:27:15Z</time></trkpt><trkpt lat="43.211134256537484" lon="11.957500929480481"><ele>269.0</ele><time>2026-04-26T09:27:16Z</time></trkpt><trkpt lat="43.2110681373804" lon="11.957559216885958"><ele>268.5</ele><time>2026-04-26T09:27:17Z</time></trkpt><trkpt lat="43.211002931012985" lon="11.95761569437881"><ele>268.0</ele><time>2026-04-26T09:27:18Z</time></trkpt><trkpt lat="43.210936038424215" lon="11.957674682532089"><ele>267.5</ele><time>2026-04-26T09:27:19Z</time></trkpt><trkpt lat="43.21087186728705" lon="11.957730050583603"><ele>267.0</ele><time>2026-04-26T09:27:20Z</time></trkpt><trkpt lat="43.21080495775736" lon="11.95778223745678"><ele>267.00000000000006</ele><time>2026-04-26T09:27:21Z</time></trkpt><trkpt lat="43.210739756229295" lon="11.957838492693533"><ele>267.0</ele><time>2026-04-26T09:27:22Z</time></trkpt><trkpt lat="43.2106739460908" lon="11.95789274599241"><ele>267.0</ele><time>2026-04-26T09:27:22.999Z</time></trkpt><trkpt lat="43.210610494675834" lon="11.957942220479731"><ele>267.0</ele><time>2026-04-26T09:27:23.999Z</time></trkpt><trkpt lat="43.210550125572986" lon="11.957986194583711"><ele>267.0</ele><time>2026-04-26T09:27:24.999Z</time></trkpt><trkpt lat="43.210491692747524" lon="11.958033655430642"><ele>267.00000000000006</ele><time>2026-04-26T09:27:25.999Z</time></trkpt><trkpt lat="43.21043304339376" lon="11.95808540846843"><ele>267.0</ele><time>2026-04-26T09:27:26.999Z</time></trkpt><trkpt lat="43.21037580767312" lon="11.958132710617338"><ele>267.00000000000006</ele><time>2026-04-26T09:27:27.999Z</time></trkpt><trkpt lat="43.21031839349977" lon="11.958177236022758"><ele>267.0</ele><time>2026-04-26T09:27:28.999Z</time></trkpt><trkpt lat="43.210262401270775" lon="11.958224607162148"><ele>267.0</ele><time>2026-04-26T09:27:29.999Z</time></trkpt><trkpt lat="43.21020573618411" lon="11.958279213888755"><ele>267.0</ele><time>2026-04-26T09:27:30.999Z</time></trkpt><trkpt lat="43.21014254869617" lon="11.958333088783982"><ele>267.0</ele><time>2026-04-26T09:27:31.999Z</time></trkpt><trkpt lat="43.21008250117296" lon="11.958380801919112"><ele>267.00000000000006</ele><time>2026-04-26T09:27:32.999Z</time></trkpt><trkpt lat="43.21002079441178" lon="11.958438848500961"><ele>267.0</ele><time>2026-04-26T09:27:33.999Z</time></trkpt><trkpt lat="43.20996444053405" lon="11.958497526094465"><ele>267.28571428571433</ele><time>2026-04-26T09:27:34.999Z</time></trkpt><trkpt lat="43.209898658958146" lon="11.958543152366127"><ele>267.57142857142856</ele><time>2026-04-26T09:27:35.999Z</time></trkpt><trkpt lat="43.20983682022902" lon="11.958591238821384"><ele>267.8571428571429</ele><time>2026-04-26T09:27:36.999Z</time></trkpt><trkpt lat="43.2097789808004" lon="11.958639213437952"><ele>268.14285714285717</ele><time>2026-04-26T09:27:37.999Z</time></trkpt><trkpt lat="43.209719010194775" lon="11.95868409762987"><ele>268.42857142857144</ele><time>2026-04-26T09:27:38.999Z</time></trkpt><trkpt lat="43.20966474696383" lon="11.958729701983678"><ele>268.7142857142857</ele><time>2026-04-26T09:27:39.999Z</time></trkpt><trkpt lat="43.20961210723269" lon="11.95877938942257"><ele>269.0</ele><time>2026-04-26T09:27:40.999Z</time></trkpt><trkpt lat="43.2095582244128" lon="11.95882777465606"><ele>269.33333333333337</ele><time>2026-04-26T09:27:41.999Z</time></trkpt><trkpt lat="43.20949933741884" lon="11.958872089780009"><ele>269.6666666666667</ele><time>2026-04-26T09:27:42.999Z</time></trkpt><trkpt lat="43.20944046175317" lon="11.95891008958196"><ele>270.0</ele><time>2026-04-26T09:27:43.999Z</time></trkpt><trkpt lat="43.20933310487101" lon="11.958996619790202"><ele>270.3333333333333</ele><time>2026-04-26T09:27:45.999Z</time></trkpt><trkpt lat="43.209273372309035" lon="11.959046650114717"><ele>270.66666666666663</ele><time>2026-04-26T09:27:46.999Z</time></trkpt><trkpt lat="43.20921217080365" lon="11.959096287667723"><ele>271.0</ele><time>2026-04-26T09:27:47.999Z</time></trkpt><trkpt lat="43.20915253739285" lon="11.95914385112165"><ele>271.0</ele><time>2026-04-26T09:27:48.999Z</time></trkpt><trkpt lat="43.20909281178769" lon="11.95919515499083"><ele>271.0</ele><time>2026-04-26T09:27:49.999Z</time></trkpt><trkpt lat="43.209034209434634" lon="11.959241840166195"><ele>271.0</ele><time>2026-04-26T09:27:50.999Z</time></trkpt><trkpt lat="43.20897523348917" lon="11.95928689753976"><ele>271.0</ele><time>2026-04-26T09:27:51.999Z</time></trkpt><trkpt lat="43.208917565009976" lon="11.95933856820526"><ele>271.0</ele><time>2026-04-26T09:27:52.999Z</time></trkpt><trkpt lat="43.20885367065778" lon="11.959388255144134"><ele>271.0</ele><time>2026-04-26T09:27:53.999Z</time></trkpt><trkpt lat="43.20879071670535" lon="11.95943934628515"><ele>271.0</ele><time>2026-04-26T09:27:54.999Z</time></trkpt><trkpt lat="43.20872918988152" lon="11.959487883351674"><ele>271.2857142857143</ele><time>2026-04-26T09:27:55.999Z</time></trkpt><trkpt lat="43.20866930967277" lon="11.959538991813037"><ele>271.57142857142856</ele><time>2026-04-26T09:27:56.999Z</time></trkpt><trkpt lat="43.20860640686668" lon="11.959591877166572"><ele>271.8571428571429</ele><time>2026-04-26T09:27:57.999Z</time></trkpt><trkpt lat="43.20854467782274" lon="11.959643393855426"><ele>272.1428571428571</ele><time>2026-04-26T09:27:58.999Z</time></trkpt><trkpt lat="43.208486293170075" lon="11.959695958060008"><ele>272.42857142857144</ele><time>2026-04-26T09:27:59.999Z</time></trkpt><trkpt lat="43.208422674972724" lon="11.959752587521171"><ele>272.7142857142857</ele><time>2026-04-26T09:28:00.999Z</time></trkpt><trkpt lat="43.20835829555627" lon="11.959797955295342"><ele>273.0</ele><time>2026-04-26T09:28:01.999Z</time></trkpt><trkpt lat="43.20829905344059" lon="11.95985195718787"><ele>273.0</ele><time>2026-04-26T09:28:02.999Z</time></trkpt><trkpt lat="43.208237858050616" lon="11.959897537800018"><ele>273.0</ele><time>2026-04-26T09:28:03.999Z</time></trkpt><trkpt lat="43.208179603920314" lon="11.959945659023123"><ele>273.0</ele><time>2026-04-26T09:28:04.999Z</time></trkpt><trkpt lat="43.208122406512175" lon="11.95999713778308"><ele>273.0</ele><time>2026-04-26T09:28:05.999Z</time></trkpt><trkpt lat="43.208061070778946" lon="11.960044265599283"><ele>273.0</ele><time>2026-04-26T09:28:06.999Z</time></trkpt><trkpt lat="43.20799900798911" lon="11.960095661696887"><ele>273.0</ele><time>2026-04-26T09:28:07.999Z</time></trkpt><trkpt lat="43.207942279616965" lon="11.960143074426862"><ele>273.0</ele><time>2026-04-26T09:28:08.999Z</time></trkpt><trkpt lat="43.207883419156616" lon="11.960188478996319"><ele>273.1666666666667</ele><time>2026-04-26T09:28:09.999Z</time></trkpt><trkpt lat="43.207823153234465" lon="11.960236204923673"><ele>273.3333333333333</ele><time>2026-04-26T09:28:10.999Z</time></trkpt><trkpt lat="43.207762986893464" lon="11.960283222060692"><ele>273.5</ele><time>2026-04-26T09:28:11.999Z</time></trkpt><trkpt lat="43.20770407250953" lon="11.960324869679297"><ele>273.66666666666663</ele><time>2026-04-26T09:28:12.999Z</time></trkpt><trkpt lat="43.20761447731976" lon="11.960397978749205"><ele>273.8333333333333</ele><time>2026-04-26T09:28:14.999Z</time></trkpt><trkpt lat="43.20754101002851" lon="11.960444695741304"><ele>274.0</ele><time>2026-04-26T09:28:16.999Z</time></trkpt><trkpt lat="43.207465797585584" lon="11.960484395449008"><ele>274.0</ele><time>2026-04-26T09:28:19.999Z</time></trkpt><trkpt lat="43.20757619634688" lon="11.960459841762223"><ele>274.0</ele><time>2026-04-26T09:28:25.999Z</time></trkpt><trkpt lat="43.207635007326566" lon="11.96041550162858"><ele>274.0</ele><time>2026-04-26T09:28:26.999Z</time></trkpt><trkpt lat="43.207702532299045" lon="11.960397071695363"><ele>274.0</ele><time>2026-04-26T09:28:27.999Z</time></trkpt><trkpt lat="43.20776291023818" lon="11.960354918779593"><ele>274.0</ele><time>2026-04-26T09:28:28.999Z</time></trkpt><trkpt lat="43.20787056500696" lon="11.960275424972172"><ele>274.0</ele><time>2026-04-26T09:28:30.999Z</time></trkpt><trkpt lat="43.20793551795432" lon="11.960223350602428"><ele>274.0</ele><time>2026-04-26T09:28:32.999Z</time></trkpt><trkpt lat="43.20788022595505" lon="11.960267433407301"><ele>274.0</ele><time>2026-04-26T09:28:38.999Z</time></trkpt><trkpt lat="43.20780764127342" lon="11.960247703783175"><ele>274.0</ele><time>2026-04-26T09:29:06.999Z</time></trkpt><trkpt lat="43.20773606706842" lon="11.960303190193633"><ele>274.0</ele><time>2026-04-26T09:29:08.999Z</time></trkpt><trkpt lat="43.20764899827649" lon="11.960366093869792"><ele>274.0</ele><time>2026-04-26T09:29:10.999Z</time></trkpt><trkpt lat="43.207555932819375" lon="11.960430760015594"><ele>274.0</ele><time>2026-04-26T09:29:13Z</time></trkpt><trkpt lat="43.207462292181205" lon="11.96049463315636"><ele>274.0</ele><time>2026-04-26T09:29:15Z</time></trkpt><trkpt lat="43.20736501121088" lon="11.96056293966454"><ele>274.0</ele><time>2026-04-26T09:29:17Z</time></trkpt><trkpt lat="43.20726587400256" lon="11.960628132847198"><ele>274.0</ele><time>2026-04-26T09:29:19Z</time></trkpt><trkpt lat="43.207177184202855" lon="11.960687256290674"><ele>274.0</ele><time>2026-04-26T09:29:21Z</time></trkpt><trkpt lat="43.20708923170971" lon="11.96075176858108"><ele>274.0</ele><time>2026-04-26T09:29:23Z</time></trkpt><trkpt lat="43.20699678130443" lon="11.960823794287572"><ele>274.0</ele><time>2026-04-26T09:29:25Z</time></trkpt><trkpt lat="43.20688640993486" lon="11.960888562295803"><ele>274.0</ele><time>2026-04-26T09:29:27Z</time></trkpt><trkpt lat="43.206824833460914" lon="11.960926568140513"><ele>274.0</ele><time>2026-04-26T09:29:28Z</time></trkpt><trkpt lat="43.20675843918165" lon="11.960967185386664"><ele>274.0</ele><time>2026-04-26T09:29:28.999Z</time></trkpt><trkpt lat="43.206687490823775" lon="11.96101729200977"><ele>274.0</ele><time>2026-04-26T09:29:29.999Z</time></trkpt><trkpt lat="43.20661746894867" lon="11.961055101420357"><ele>274.0</ele><time>2026-04-26T09:29:30.999Z</time></trkpt><trkpt lat="43.20655665747452" lon="11.961089925587515"><ele>274.00000000000006</ele><time>2026-04-26T09:29:31.999Z</time></trkpt><trkpt lat="43.20649564393446" lon="11.961140941375495"><ele>274.0</ele><time>2026-04-26T09:29:32.999Z</time></trkpt><trkpt lat="43.20642734059018" lon="11.96118665706876"><ele>274.0</ele><time>2026-04-26T09:29:33.999Z</time></trkpt><trkpt lat="43.206358733086255" lon="11.961232387259589"><ele>274.0</ele><time>2026-04-26T09:29:34.999Z</time></trkpt><trkpt lat="43.206293153185094" lon="11.96127444459729"><ele>274.0</ele><time>2026-04-26T09:29:35.999Z</time></trkpt><trkpt lat="43.2062292953037" lon="11.961311486514637"><ele>274.00000000000006</ele><time>2026-04-26T09:29:36.999Z</time></trkpt><trkpt lat="43.2061655834003" lon="11.96134294436802"><ele>274.0</ele><time>2026-04-26T09:29:37.999Z</time></trkpt><trkpt lat="43.20605319164369" lon="11.961409203652202"><ele>274.3333333333333</ele><time>2026-04-26T09:29:39.999Z</time></trkpt><trkpt lat="43.20593059372977" lon="11.96145838886849"><ele>274.66666666666663</ele><time>2026-04-26T09:29:41.999Z</time></trkpt><trkpt lat="43.20585800374773" lon="11.961463307184848"><ele>275.0</ele><time>2026-04-26T09:29:42.999Z</time></trkpt><trkpt lat="43.20578422934363" lon="11.961452030430307"><ele>275.3333333333333</ele><time>2026-04-26T09:29:43.999Z</time></trkpt><trkpt lat="43.2057126065903" lon="11.961422187110044"><ele>275.6666666666667</ele><time>2026-04-26T09:29:44.999Z</time></trkpt><trkpt lat="43.2056473770947" lon="11.961379830248877"><ele>276.0</ele><time>2026-04-26T09:29:45.999Z</time></trkpt><trkpt lat="43.20558682956485" lon="11.96133613882055"><ele>276.0</ele><time>2026-04-26T09:29:46.999Z</time></trkpt><trkpt lat="43.205472042417654" lon="11.961268842217342"><ele>276.0</ele><time>2026-04-26T09:29:48.999Z</time></trkpt><trkpt lat="43.20541306416657" lon="11.96123694927665"><ele>276.0</ele><time>2026-04-26T09:29:49.999Z</time></trkpt><trkpt lat="43.20529410219635" lon="11.961167482596826"><ele>276.0</ele><time>2026-04-26T09:29:51.999Z</time></trkpt><trkpt lat="43.2052305244373" lon="11.96113251357219"><ele>276.0</ele><time>2026-04-26T09:29:52.999Z</time></trkpt><trkpt lat="43.20516469717835" lon="11.961099391325444"><ele>276.0</ele><time>2026-04-26T09:29:53.999Z</time></trkpt><trkpt lat="43.20509837817543" lon="11.961071065981347"><ele>276.0</ele><time>2026-04-26T09:29:54.999Z</time></trkpt><trkpt lat="43.205030835787355" lon="11.961050697521413"><ele>276.0</ele><time>2026-04-26T09:29:55.999Z</time></trkpt><trkpt lat="43.204964211030386" lon="11.961053598205638"><ele>276.0</ele><time>2026-04-26T09:29:56.999Z</time></trkpt><trkpt lat="43.20489458501598" lon="11.961066365524632"><ele>276.0</ele><time>2026-04-26T09:29:57.999Z</time></trkpt><trkpt lat="43.20483016504014" lon="11.961088707974673"><ele>276.0</ele><time>2026-04-26T09:29:58.999Z</time></trkpt><trkpt lat="43.20476452353575" lon="11.961130549440707"><ele>276.0</ele><time>2026-04-26T09:29:59.999Z</time></trkpt><trkpt lat="43.204704875619726" lon="11.961181610124966"><ele>276.0</ele><time>2026-04-26T09:30:00.999Z</time></trkpt><trkpt lat="43.204653273082705" lon="11.961244323826794"><ele>276.0</ele><time>2026-04-26T09:30:01.999Z</time></trkpt><trkpt lat="43.20460916821096" lon="11.961318216761672"><ele>276.0</ele><time>2026-04-26T09:30:02.999Z</time></trkpt><trkpt lat="43.2045627906275" lon="11.961394833865242"><ele>276.0</ele><time>2026-04-26T09:30:03.999Z</time></trkpt><trkpt lat="43.20451308217887" lon="11.961481779186563"><ele>276.0</ele><time>2026-04-26T09:30:04.999Z</time></trkpt><trkpt lat="43.20446967723897" lon="11.961558259152286"><ele>276.0</ele><time>2026-04-26T09:30:05.999Z</time></trkpt><trkpt lat="43.204428643567596" lon="11.96163273468594"><ele>276.0</ele><time>2026-04-26T09:30:06.999Z</time></trkpt><trkpt lat="43.20439068633564" lon="11.96171232995952"><ele>275.57142857142856</ele><time>2026-04-26T09:30:07.999Z</time></trkpt><trkpt lat="43.2043485003994" lon="11.961780947710572"><ele>275.14285714285717</ele><time>2026-04-26T09:30:08.999Z</time></trkpt><trkpt lat="43.20430858093503" lon="11.961852671618853"><ele>274.7142857142857</ele><time>2026-04-26T09:30:09.999Z</time></trkpt><trkpt lat="43.204263607045164" lon="11.961927418431085"><ele>274.2857142857143</ele><time>2026-04-26T09:30:10.999Z</time></trkpt><trkpt lat="43.20421900121355" lon="11.962007858384"><ele>273.8571428571429</ele><time>2026-04-26T09:30:11.999Z</time></trkpt><trkpt lat="43.20417587736985" lon="11.962089227051207"><ele>273.42857142857144</ele><time>2026-04-26T09:30:12.999Z</time></trkpt><trkpt lat="43.2041315626848" lon="11.962169219779192"><ele>273.0</ele><time>2026-04-26T09:30:13.999Z</time></trkpt><trkpt lat="43.20408561162687" lon="11.962248758084318"><ele>273.0</ele><time>2026-04-26T09:30:14.999Z</time></trkpt><trkpt lat="43.20404179178016" lon="11.962328235042861"><ele>273.0</ele><time>2026-04-26T09:30:15.999Z</time></trkpt><trkpt lat="43.20399848486473" lon="11.962411220300792"><ele>273.0</ele><time>2026-04-26T09:30:16.999Z</time></trkpt><trkpt lat="43.203957944392" lon="11.962492699220196"><ele>273.0</ele><time>2026-04-26T09:30:17.999Z</time></trkpt><trkpt lat="43.20391859153691" lon="11.962564459169734"><ele>273.0</ele><time>2026-04-26T09:30:18.999Z</time></trkpt><trkpt lat="43.203874082601295" lon="11.962636246985507"><ele>273.0</ele><time>2026-04-26T09:30:19.999Z</time></trkpt><trkpt lat="43.203830579475785" lon="11.962708917403432"><ele>273.0</ele><time>2026-04-26T09:30:20.999Z</time></trkpt><trkpt lat="43.20378657492099" lon="11.962775717302195"><ele>273.2857142857143</ele><time>2026-04-26T09:30:21.999Z</time></trkpt><trkpt lat="43.20373012224046" lon="11.962835914053205"><ele>273.57142857142856</ele><time>2026-04-26T09:30:22.999Z</time></trkpt><trkpt lat="43.20367139309462" lon="11.962895298703627"><ele>273.8571428571429</ele><time>2026-04-26T09:30:23.999Z</time></trkpt><trkpt lat="43.20360673603973" lon="11.962945912459324"><ele>274.1428571428571</ele><time>2026-04-26T09:30:24.999Z</time></trkpt><trkpt lat="43.20353995794609" lon="11.962993004627148"><ele>274.42857142857144</ele><time>2026-04-26T09:30:25.999Z</time></trkpt><trkpt lat="43.20347784139767" lon="11.963033534842202"><ele>274.7142857142857</ele><time>2026-04-26T09:30:26.999Z</time></trkpt><trkpt lat="43.20341502148135" lon="11.963079515251707"><ele>275.0</ele><time>2026-04-26T09:30:27.999Z</time></trkpt><trkpt lat="43.203349480657955" lon="11.963124597360816"><ele>275.0</ele><time>2026-04-26T09:30:28.999Z</time></trkpt><trkpt lat="43.203284249184755" lon="11.96316667963467"><ele>275.0</ele><time>2026-04-26T09:30:29.999Z</time></trkpt><trkpt lat="43.203218993352394" lon="11.963202024988774"><ele>275.0</ele><time>2026-04-26T09:30:30.999Z</time></trkpt><trkpt lat="43.20315490632209" lon="11.963241658204435"><ele>275.0</ele><time>2026-04-26T09:30:31.999Z</time></trkpt><trkpt lat="43.20309401137883" lon="11.96328353813897"><ele>275.0</ele><time>2026-04-26T09:30:32.999Z</time></trkpt><trkpt lat="43.20303153971222" lon="11.963328738078918"><ele>275.0</ele><time>2026-04-26T09:30:33.999Z</time></trkpt><trkpt lat="43.20296670364876" lon="11.963370040608527"><ele>275.0</ele><time>2026-04-26T09:30:34.999Z</time></trkpt><trkpt lat="43.20290086982655" lon="11.963404023884861"><ele>275.14285714285717</ele><time>2026-04-26T09:30:35.999Z</time></trkpt><trkpt lat="43.20284352746519" lon="11.963440978959804"><ele>275.2857142857143</ele><time>2026-04-26T09:30:36.999Z</time></trkpt><trkpt lat="43.20278303364255" lon="11.963479847977888"><ele>275.42857142857144</ele><time>2026-04-26T09:30:37.999Z</time></trkpt><trkpt lat="43.2027240218485" lon="11.96352011783671"><ele>275.57142857142856</ele><time>2026-04-26T09:30:38.999Z</time></trkpt><trkpt lat="43.20266159119416" lon="11.96355702891926"><ele>275.7142857142857</ele><time>2026-04-26T09:30:39.999Z</time></trkpt><trkpt lat="43.202597803490434" lon="11.963605141795872"><ele>275.8571428571429</ele><time>2026-04-26T09:30:40.999Z</time></trkpt><trkpt lat="43.20253339144969" lon="11.963641325401616"><ele>276.0</ele><time>2026-04-26T09:30:41.999Z</time></trkpt><trkpt lat="43.20246286225492" lon="11.963676137092563"><ele>276.0</ele><time>2026-04-26T09:30:42.999Z</time></trkpt><trkpt lat="43.202395021017026" lon="11.963720679347833"><ele>276.0</ele><time>2026-04-26T09:30:43.999Z</time></trkpt><trkpt lat="43.202336516149934" lon="11.963765677747348"><ele>276.0</ele><time>2026-04-26T09:30:44.999Z</time></trkpt><trkpt lat="43.20226933850849" lon="11.963805980704242"><ele>276.0</ele><time>2026-04-26T09:30:45.999Z</time></trkpt><trkpt lat="43.202200321912215" lon="11.963850806189036"><ele>276.0</ele><time>2026-04-26T09:30:46.999Z</time></trkpt><trkpt lat="43.202138420045905" lon="11.963893615435559"><ele>276.0</ele><time>2026-04-26T09:30:47.999Z</time></trkpt><trkpt lat="43.20208229729181" lon="11.963933667438674"><ele>276.0</ele><time>2026-04-26T09:30:49Z</time></trkpt><trkpt lat="43.202017182278134" lon="11.963969905568916"><ele>276.0</ele><time>2026-04-26T09:30:50Z</time></trkpt><trkpt lat="43.20194897920838" lon="11.964014237857626"><ele>276.0</ele><time>2026-04-26T09:30:51Z</time></trkpt><trkpt lat="43.20187929450363" lon="11.964060672034119"><ele>276.0</ele><time>2026-04-26T09:30:52Z</time></trkpt><trkpt lat="43.201811784068724" lon="11.964101222316568"><ele>276.0</ele><time>2026-04-26T09:30:53Z</time></trkpt><trkpt lat="43.20174362299327" lon="11.964139300746671"><ele>276.0</ele><time>2026-04-26T09:30:54Z</time></trkpt><trkpt lat="43.20168236595473" lon="11.964174214591202"><ele>276.0</ele><time>2026-04-26T09:30:55Z</time></trkpt><trkpt lat="43.201622753352666" lon="11.964216602744479"><ele>276.0</ele><time>2026-04-26T09:30:56Z</time></trkpt><trkpt lat="43.20156279851515" lon="11.964263076799222"><ele>276.14285714285717</ele><time>2026-04-26T09:30:57Z</time></trkpt><trkpt lat="43.201500433785974" lon="11.96430283303931"><ele>276.28571428571433</ele><time>2026-04-26T09:30:58Z</time></trkpt><trkpt lat="43.201435825175594" lon="11.964339054670564"><ele>276.42857142857144</ele><time>2026-04-26T09:30:59Z</time></trkpt><trkpt lat="43.2013691316251" lon="11.964375601630774"><ele>276.57142857142856</ele><time>2026-04-26T09:31:00Z</time></trkpt><trkpt lat="43.20130275763668" lon="11.964416243530739"><ele>276.71428571428567</ele><time>2026-04-26T09:31:01Z</time></trkpt><trkpt lat="43.20123568903452" lon="11.964464857059445"><ele>276.85714285714283</ele><time>2026-04-26T09:31:02Z</time></trkpt><trkpt lat="43.20117119903778" lon="11.96451325605176"><ele>277.0</ele><time>2026-04-26T09:31:03Z</time></trkpt><trkpt lat="43.2011052044476" lon="11.964560003502053"><ele>277.0</ele><time>2026-04-26T09:31:04Z</time></trkpt><trkpt lat="43.20103973698796" lon="11.964601656661513"><ele>277.0</ele><time>2026-04-26T09:31:05Z</time></trkpt><trkpt lat="43.20097434735959" lon="11.96464080116322"><ele>277.0</ele><time>2026-04-26T09:31:06Z</time></trkpt><trkpt lat="43.20091148488853" lon="11.964678080651698"><ele>277.0</ele><time>2026-04-26T09:31:07Z</time></trkpt><trkpt lat="43.20084162794601" lon="11.964719622583225"><ele>277.0</ele><time>2026-04-26T09:31:08Z</time></trkpt><trkpt lat="43.20077120193354" lon="11.964764493755686"><ele>277.0</ele><time>2026-04-26T09:31:09Z</time></trkpt><trkpt lat="43.2006987909535" lon="11.964813299718088"><ele>277.0</ele><time>2026-04-26T09:31:10Z</time></trkpt><trkpt lat="43.20063828343972" lon="11.964850794685729"><ele>277.16666666666663</ele><time>2026-04-26T09:31:11Z</time></trkpt><trkpt lat="43.20051714616545" lon="11.964922571169417"><ele>277.3333333333333</ele><time>2026-04-26T09:31:13Z</time></trkpt><trkpt lat="43.20045373446961" lon="11.964965304170336"><ele>277.5</ele><time>2026-04-26T09:31:14Z</time></trkpt><trkpt lat="43.20038905767456" lon="11.965007123641403"><ele>277.6666666666667</ele><time>2026-04-26T09:31:15Z</time></trkpt><trkpt lat="43.20032408847217" lon="11.965048123018414"><ele>277.83333333333337</ele><time>2026-04-26T09:31:16Z</time></trkpt><trkpt lat="43.200263080115306" lon="11.96508307524124"><ele>278.0</ele><time>2026-04-26T09:31:17Z</time></trkpt><trkpt lat="43.20020339927323" lon="11.96512723601741"><ele>278.0</ele><time>2026-04-26T09:31:18Z</time></trkpt><trkpt lat="43.20014109180799" lon="11.965166657372317"><ele>278.0</ele><time>2026-04-26T09:31:19Z</time></trkpt><trkpt lat="43.2000814166859" lon="11.965213901309667"><ele>278.0</ele><time>2026-04-26T09:31:20Z</time></trkpt><trkpt lat="43.20002045789876" lon="11.965261874063861"><ele>278.0</ele><time>2026-04-26T09:31:21Z</time></trkpt><trkpt lat="43.19996177160924" lon="11.965306940144055"><ele>278.0</ele><time>2026-04-26T09:31:22Z</time></trkpt><trkpt lat="43.19989867973749" lon="11.965350298692057"><ele>278.0</ele><time>2026-04-26T09:31:23Z</time></trkpt><trkpt lat="43.19983631383517" lon="11.965397603843563"><ele>278.0</ele><time>2026-04-26T09:31:24Z</time></trkpt><trkpt lat="43.1997789935252" lon="11.965453873134962"><ele>278.0</ele><time>2026-04-26T09:31:25Z</time></trkpt><trkpt lat="43.19972271706985" lon="11.96551635945881"><ele>278.0</ele><time>2026-04-26T09:31:26Z</time></trkpt><trkpt lat="43.19966563605459" lon="11.965577195335353"><ele>278.0</ele><time>2026-04-26T09:31:27Z</time></trkpt><trkpt lat="43.19960537608491" lon="11.96563673580429"><ele>278.0</ele><time>2026-04-26T09:31:28Z</time></trkpt><trkpt lat="43.1995471331036" lon="11.965695328945197"><ele>278.0</ele><time>2026-04-26T09:31:29Z</time></trkpt><trkpt lat="43.199492199332596" lon="11.965753869311515"><ele>278.0</ele><time>2026-04-26T09:31:30Z</time></trkpt><trkpt lat="43.19943736572339" lon="11.965811618008209"><ele>278.0</ele><time>2026-04-26T09:31:31Z</time></trkpt><trkpt lat="43.19937928223873" lon="11.965872165630339"><ele>278.1428571428571</ele><time>2026-04-26T09:31:32Z</time></trkpt><trkpt lat="43.199320818566605" lon="11.965932232983958"><ele>278.2857142857143</ele><time>2026-04-26T09:31:33Z</time></trkpt><trkpt lat="43.1992684346768" lon="11.965985107160728"><ele>278.42857142857144</ele><time>2026-04-26T09:31:34Z</time></trkpt><trkpt lat="43.19920962266637" lon="11.966048820312293"><ele>278.57142857142856</ele><time>2026-04-26T09:31:35Z</time></trkpt><trkpt lat="43.199149613134885" lon="11.966112283927085"><ele>278.7142857142857</ele><time>2026-04-26T09:31:36Z</time></trkpt><trkpt lat="43.199090489226776" lon="11.966178495599697"><ele>278.85714285714283</ele><time>2026-04-26T09:31:37Z</time></trkpt><trkpt lat="43.199027209297874" lon="11.96624292566194"><ele>279.0</ele><time>2026-04-26T09:31:38Z</time></trkpt><trkpt lat="43.198965869730515" lon="11.966304610922297"><ele>279.0</ele><time>2026-04-26T09:31:39Z</time></trkpt><trkpt lat="43.19890509097394" lon="11.966374368364438"><ele>279.0</ele><time>2026-04-26T09:31:40Z</time></trkpt><trkpt lat="43.19884407931396" lon="11.966436763974098"><ele>279.0</ele><time>2026-04-26T09:31:41Z</time></trkpt><trkpt lat="43.198785451254125" lon="11.966501789282702"><ele>279.0</ele><time>2026-04-26T09:31:42Z</time></trkpt><trkpt lat="43.19872893310138" lon="11.966569040587826"><ele>279.0</ele><time>2026-04-26T09:31:43Z</time></trkpt><trkpt lat="43.1986770653374" lon="11.966643342103977"><ele>279.0</ele><time>2026-04-26T09:31:44Z</time></trkpt><trkpt lat="43.198621491888595" lon="11.966708933640135"><ele>278.99999999999994</ele><time>2026-04-26T09:31:45Z</time></trkpt><trkpt lat="43.19856306404596" lon="11.966755485520162"><ele>279.0</ele><time>2026-04-26T09:31:46Z</time></trkpt><trkpt lat="43.19850486105824" lon="11.966807132923693"><ele>279.0</ele><time>2026-04-26T09:31:47Z</time></trkpt><trkpt lat="43.198447201939125" lon="11.966860826564995"><ele>279.0</ele><time>2026-04-26T09:31:48Z</time></trkpt><trkpt lat="43.19839015867672" lon="11.966919350024133"><ele>279.0</ele><time>2026-04-26T09:31:49Z</time></trkpt><trkpt lat="43.19833681720535" lon="11.966978696273841"><ele>278.99999999999994</ele><time>2026-04-26T09:31:50Z</time></trkpt><trkpt lat="43.19828507948285" lon="11.96703642766675"><ele>279.0</ele><time>2026-04-26T09:31:51Z</time></trkpt><trkpt lat="43.19823334602424" lon="11.967092205872014"><ele>279.2</ele><time>2026-04-26T09:31:52Z</time></trkpt><trkpt lat="43.1981202277056" lon="11.967171064951694"><ele>279.4</ele><time>2026-04-26T09:31:53.999Z</time></trkpt><trkpt lat="43.19807408206673" lon="11.967232078669177"><ele>279.6</ele><time>2026-04-26T09:31:54.999Z</time></trkpt><trkpt lat="43.197991895090844" lon="11.967345132478302"><ele>279.8</ele><time>2026-04-26T09:31:56.999Z</time></trkpt><trkpt lat="43.197897384826426" lon="11.967436446782795"><ele>280.0</ele><time>2026-04-26T09:31:58.999Z</time></trkpt><trkpt lat="43.1978003916681" lon="11.967538185585402"><ele>280.42857142857144</ele><time>2026-04-26T09:32:00.999Z</time></trkpt><trkpt lat="43.19774926520502" lon="11.967588969632418"><ele>280.8571428571429</ele><time>2026-04-26T09:32:01.999Z</time></trkpt><trkpt lat="43.197697882700425" lon="11.967639586339548"><ele>281.2857142857143</ele><time>2026-04-26T09:32:02.999Z</time></trkpt><trkpt lat="43.19764167405607" lon="11.967694427030404"><ele>281.7142857142857</ele><time>2026-04-26T09:32:03.999Z</time></trkpt><trkpt lat="43.19759062607601" lon="11.96774899446148"><ele>282.14285714285717</ele><time>2026-04-26T09:32:04.999Z</time></trkpt><trkpt lat="43.19754185632402" lon="11.967804992842927"><ele>282.57142857142856</ele><time>2026-04-26T09:32:05.999Z</time></trkpt><trkpt lat="43.19744497693377" lon="11.967914949983307"><ele>283.0</ele><time>2026-04-26T09:32:07.999Z</time></trkpt><trkpt lat="43.19739134540191" lon="11.9679669668681"><ele>283.14285714285717</ele><time>2026-04-26T09:32:08.999Z</time></trkpt><trkpt lat="43.19733336155329" lon="11.96802157933894"><ele>283.28571428571433</ele><time>2026-04-26T09:32:09.999Z</time></trkpt><trkpt lat="43.19727733278332" lon="11.968080406924297"><ele>283.42857142857144</ele><time>2026-04-26T09:32:10.999Z</time></trkpt><trkpt lat="43.19721787222447" lon="11.968135712462432"><ele>283.57142857142856</ele><time>2026-04-26T09:32:11.999Z</time></trkpt><trkpt lat="43.19716377026558" lon="11.968196066671672"><ele>283.71428571428567</ele><time>2026-04-26T09:32:12.999Z</time></trkpt><trkpt lat="43.19710761188486" lon="11.968256824297175"><ele>283.85714285714283</ele><time>2026-04-26T09:32:13.999Z</time></trkpt><trkpt lat="43.19705016699558" lon="11.968314737381302"><ele>284.0</ele><time>2026-04-26T09:32:14.999Z</time></trkpt><trkpt lat="43.19699105056853" lon="11.968373405026217"><ele>284.0</ele><time>2026-04-26T09:32:15.999Z</time></trkpt><trkpt lat="43.19693611191098" lon="11.968432765597441"><ele>284.0</ele><time>2026-04-26T09:32:16.999Z</time></trkpt><trkpt lat="43.19688205235374" lon="11.968494636496319"><ele>284.0</ele><time>2026-04-26T09:32:17.999Z</time></trkpt><trkpt lat="43.19682852850483" lon="11.968562664841064"><ele>284.0</ele><time>2026-04-26T09:32:18.999Z</time></trkpt><trkpt lat="43.19677395797232" lon="11.968624628972048"><ele>284.0</ele><time>2026-04-26T09:32:19.999Z</time></trkpt><trkpt lat="43.19672212625107" lon="11.968689632932564"><ele>284.0</ele><time>2026-04-26T09:32:20.999Z</time></trkpt><trkpt lat="43.196667596656425" lon="11.968762455663619"><ele>284.0</ele><time>2026-04-26T09:32:21.999Z</time></trkpt><trkpt lat="43.19661073653865" lon="11.968816825495917"><ele>284.0</ele><time>2026-04-26T09:32:22.999Z</time></trkpt><trkpt lat="43.19654988336112" lon="11.968869506985447"><ele>284.0</ele><time>2026-04-26T09:32:23.999Z</time></trkpt><trkpt lat="43.19649101298527" lon="11.968920992491972"><ele>284.0</ele><time>2026-04-26T09:32:24.999Z</time></trkpt><trkpt lat="43.196400841751654" lon="11.96902938569748"><ele>284.0</ele><time>2026-04-26T09:32:26.999Z</time></trkpt><trkpt lat="43.19634968833666" lon="11.969083501781844"><ele>284.0</ele><time>2026-04-26T09:32:27.999Z</time></trkpt><trkpt lat="43.196294341362886" lon="11.969138013813165"><ele>284.0</ele><time>2026-04-26T09:32:28.999Z</time></trkpt><trkpt lat="43.19624074996043" lon="11.96919271624128"><ele>283.5</ele><time>2026-04-26T09:32:29.999Z</time></trkpt><trkpt lat="43.196179873154044" lon="11.969244164005255"><ele>283.0</ele><time>2026-04-26T09:32:30.999Z</time></trkpt><trkpt lat="43.19612479191531" lon="11.96929100056757"><ele>282.5</ele><time>2026-04-26T09:32:31.999Z</time></trkpt><trkpt lat="43.196063596295886" lon="11.969344704595883"><ele>282.0</ele><time>2026-04-26T09:32:32.999Z</time></trkpt><trkpt lat="43.196005999469335" lon="11.969397937768846"><ele>281.5</ele><time>2026-04-26T09:32:33.999Z</time></trkpt><trkpt lat="43.1959522191543" lon="11.969445246657427"><ele>281.0</ele><time>2026-04-26T09:32:34.999Z</time></trkpt><trkpt lat="43.195850750119774" lon="11.969531847173078"><ele>281.00000000000006</ele><time>2026-04-26T09:32:36.999Z</time></trkpt><trkpt lat="43.195784973122834" lon="11.969567418297986"><ele>281.0</ele><time>2026-04-26T09:32:37.999Z</time></trkpt><trkpt lat="43.195724812412" lon="11.969620510408522"><ele>281.0</ele><time>2026-04-26T09:32:38.999Z</time></trkpt><trkpt lat="43.19566537689594" lon="11.969673822525287"><ele>281.0</ele><time>2026-04-26T09:32:39.999Z</time></trkpt><trkpt lat="43.19560650906605" lon="11.969727845239035"><ele>281.0</ele><time>2026-04-26T09:32:40.999Z</time></trkpt><trkpt lat="43.19554859723841" lon="11.969779904028021"><ele>281.00000000000006</ele><time>2026-04-26T09:32:41.999Z</time></trkpt><trkpt lat="43.19549252516808" lon="11.969832760151007"><ele>281.0</ele><time>2026-04-26T09:32:42.999Z</time></trkpt><trkpt lat="43.19542774973797" lon="11.969878978061137"><ele>281.33333333333337</ele><time>2026-04-26T09:32:43.999Z</time></trkpt><trkpt lat="43.19536596472946" lon="11.96992524672101"><ele>281.6666666666667</ele><time>2026-04-26T09:32:44.999Z</time></trkpt><trkpt lat="43.195308319573336" lon="11.969978271209808"><ele>282.0</ele><time>2026-04-26T09:32:45.999Z</time></trkpt><trkpt lat="43.195253709214576" lon="11.970031850295278"><ele>282.3333333333333</ele><time>2026-04-26T09:32:46.999Z</time></trkpt><trkpt lat="43.19515171864039" lon="11.970117210868539"><ele>282.66666666666663</ele><time>2026-04-26T09:32:48.999Z</time></trkpt><trkpt lat="43.195095288356534" lon="11.970163333370136"><ele>283.0</ele><time>2026-04-26T09:32:49.999Z</time></trkpt><trkpt lat="43.19504134532621" lon="11.970215242477659"><ele>283.16666666666663</ele><time>2026-04-26T09:32:50.999Z</time></trkpt><trkpt lat="43.19498464776123" lon="11.970265693180894"><ele>283.3333333333333</ele><time>2026-04-26T09:32:51.999Z</time></trkpt><trkpt lat="43.19492746841589" lon="11.970316976054438"><ele>283.5</ele><time>2026-04-26T09:32:52.999Z</time></trkpt><trkpt lat="43.194819615303764" lon="11.970413913904098"><ele>283.6666666666667</ele><time>2026-04-26T09:32:55Z</time></trkpt><trkpt lat="43.19475630437395" lon="11.97046018055188"><ele>283.83333333333337</ele><time>2026-04-26T09:32:56Z</time></trkpt><trkpt lat="43.194698102009426" lon="11.970502270747401"><ele>284.0</ele><time>2026-04-26T09:32:57Z</time></trkpt><trkpt lat="43.194601311884576" lon="11.970579015741862"><ele>285.0</ele><time>2026-04-26T09:32:59Z</time></trkpt><trkpt lat="43.194499991477215" lon="11.970659527074227"><ele>286.0</ele><time>2026-04-26T09:33:01Z</time></trkpt><trkpt lat="43.19441411086525" lon="11.970744470463131"><ele>287.0</ele><time>2026-04-26T09:33:03Z</time></trkpt><trkpt lat="43.19431123693315" lon="11.970823868592646"><ele>288.0</ele><time>2026-04-26T09:33:05Z</time></trkpt><trkpt lat="43.194205783572976" lon="11.970913302019822"><ele>288.2</ele><time>2026-04-26T09:33:07Z</time></trkpt><trkpt lat="43.19415529466899" lon="11.970966614040915"><ele>288.4</ele><time>2026-04-26T09:33:08Z</time></trkpt><trkpt lat="43.194104155946974" lon="11.971020665253164"><ele>288.59999999999997</ele><time>2026-04-26T09:33:09Z</time></trkpt><trkpt lat="43.19399831917244" lon="11.971114202619876"><ele>288.8</ele><time>2026-04-26T09:33:11Z</time></trkpt><trkpt lat="43.19391270551125" lon="11.971224240198067"><ele>289.0</ele><time>2026-04-26T09:33:13Z</time></trkpt><trkpt lat="43.1938429231666" lon="11.97133549530936"><ele>289.0</ele><time>2026-04-26T09:33:15Z</time></trkpt><trkpt lat="43.193778850818944" lon="11.971421995071147"><ele>289.0</ele><time>2026-04-26T09:33:17Z</time></trkpt><trkpt lat="43.19372525640186" lon="11.971495224998542"><ele>289.0</ele><time>2026-04-26T09:33:20Z</time></trkpt><trkpt lat="43.19367997450605" lon="11.971558102650121"><ele>289.0</ele><time>2026-04-26T09:33:23Z</time></trkpt><trkpt lat="43.193636198506866" lon="11.971644921389208"><ele>289.0</ele><time>2026-04-26T09:33:26Z</time></trkpt><trkpt lat="43.19358140771517" lon="11.971711546727702"><ele>289.0</ele><time>2026-04-26T09:33:28Z</time></trkpt><trkpt lat="43.19352910593598" lon="11.971770516857031"><ele>289.0</ele><time>2026-04-26T09:33:31Z</time></trkpt><trkpt lat="43.193479993026095" lon="11.971866595399137"><ele>289.0</ele><time>2026-04-26T09:33:34Z</time></trkpt><trkpt lat="43.19340392851859" lon="11.971970776415164"><ele>289.0</ele><time>2026-04-26T09:33:36Z</time></trkpt><trkpt lat="43.19332530680044" lon="11.972071262927058"><ele>289.0</ele><time>2026-04-26T09:33:38Z</time></trkpt><trkpt lat="43.1932529654242" lon="11.97219561774481"><ele>289.0</ele><time>2026-04-26T09:33:40Z</time></trkpt><trkpt lat="43.19316746094618" lon="11.972320106258028"><ele>288.4</ele><time>2026-04-26T09:33:42Z</time></trkpt><trkpt lat="43.193085557542226" lon="11.972446154864056"><ele>287.79999999999995</ele><time>2026-04-26T09:33:44Z</time></trkpt><trkpt lat="43.19301056216595" lon="11.972573448760938"><ele>287.20000000000005</ele><time>2026-04-26T09:33:46Z</time></trkpt><trkpt lat="43.19293192227379" lon="11.972700535046444"><ele>286.6</ele><time>2026-04-26T09:33:48Z</time></trkpt><trkpt lat="43.19289476924727" lon="11.972771618303877"><ele>286.0</ele><time>2026-04-26T09:33:49Z</time></trkpt><trkpt lat="43.19285831294855" lon="11.97284316256277"><ele>285.4285714285714</ele><time>2026-04-26T09:33:50Z</time></trkpt><trkpt lat="43.19281720853127" lon="11.97291483798473"><ele>284.85714285714283</ele><time>2026-04-26T09:33:51Z</time></trkpt><trkpt lat="43.192776980785275" lon="11.97298686770055"><ele>284.2857142857143</ele><time>2026-04-26T09:33:52Z</time></trkpt><trkpt lat="43.19273645628062" lon="11.973062382834014"><ele>283.71428571428567</ele><time>2026-04-26T09:33:53Z</time></trkpt><trkpt lat="43.192697971058074" lon="11.973142525777556"><ele>283.1428571428571</ele><time>2026-04-26T09:33:54Z</time></trkpt><trkpt lat="43.192657526554754" lon="11.973227004979897"><ele>282.57142857142856</ele><time>2026-04-26T09:33:55Z</time></trkpt><trkpt lat="43.19261357486958" lon="11.973313548234133"><ele>282.0</ele><time>2026-04-26T09:33:56Z</time></trkpt><trkpt lat="43.19256571036858" lon="11.973397277502938"><ele>281.3333333333333</ele><time>2026-04-26T09:33:57Z</time></trkpt><trkpt lat="43.192519040650694" lon="11.973483745805074"><ele>280.6666666666667</ele><time>2026-04-26T09:33:58Z</time></trkpt><trkpt lat="43.19247748371455" lon="11.973572103832845"><ele>280.0</ele><time>2026-04-26T09:33:59Z</time></trkpt><trkpt lat="43.19243985570459" lon="11.973662130234274"><ele>279.33333333333337</ele><time>2026-04-26T09:34:00Z</time></trkpt><trkpt lat="43.19239971120159" lon="11.973748878286004"><ele>278.6666666666667</ele><time>2026-04-26T09:34:01Z</time></trkpt><trkpt lat="43.1923544074593" lon="11.973835352845226"><ele>278.0</ele><time>2026-04-26T09:34:02Z</time></trkpt><trkpt lat="43.19230521804828" lon="11.973921411332745"><ele>278.0</ele><time>2026-04-26T09:34:03Z</time></trkpt><trkpt lat="43.19225198010913" lon="11.974003919105687"><ele>278.0</ele><time>2026-04-26T09:34:04Z</time></trkpt><trkpt lat="43.192197468339764" lon="11.974090025589216"><ele>278.0</ele><time>2026-04-26T09:34:05Z</time></trkpt><trkpt lat="43.192149252863224" lon="11.97418092116599"><ele>278.0</ele><time>2026-04-26T09:34:06Z</time></trkpt><trkpt lat="43.19210097484436" lon="11.974272982357453"><ele>278.0</ele><time>2026-04-26T09:34:07Z</time></trkpt><trkpt lat="43.19205234871301" lon="11.974367008408365"><ele>278.0</ele><time>2026-04-26T09:34:08Z</time></trkpt><trkpt lat="43.19200231240699" lon="11.974460158122245"><ele>277.6666666666667</ele><time>2026-04-26T09:34:09Z</time></trkpt><trkpt lat="43.191956548327774" lon="11.974560553286747"><ele>277.33333333333337</ele><time>2026-04-26T09:34:10Z</time></trkpt><trkpt lat="43.191910216091465" lon="11.974655589178772"><ele>277.0</ele><time>2026-04-26T09:34:11Z</time></trkpt><trkpt lat="43.1918662468768" lon="11.974748756665564"><ele>276.6666666666667</ele><time>2026-04-26T09:34:12Z</time></trkpt><trkpt lat="43.19182008642536" lon="11.974842673694004"><ele>276.3333333333333</ele><time>2026-04-26T09:34:13Z</time></trkpt><trkpt lat="43.19177157277102" lon="11.974937228896989"><ele>276.0</ele><time>2026-04-26T09:34:14Z</time></trkpt><trkpt lat="43.19171263245984" lon="11.975027189131458"><ele>275.8333333333333</ele><time>2026-04-26T09:34:15Z</time></trkpt><trkpt lat="43.19165820233166" lon="11.975111898508787"><ele>275.6666666666667</ele><time>2026-04-26T09:34:16Z</time></trkpt><trkpt lat="43.19161003060428" lon="11.975202304526672"><ele>275.5</ele><time>2026-04-26T09:34:17Z</time></trkpt><trkpt lat="43.19156820857289" lon="11.975295178891873"><ele>275.33333333333337</ele><time>2026-04-26T09:34:18Z</time></trkpt><trkpt lat="43.19152314521329" lon="11.975383043490284"><ele>275.1666666666667</ele><time>2026-04-26T09:34:19Z</time></trkpt><trkpt lat="43.191478303877965" lon="11.975468880589458"><ele>275.0</ele><time>2026-04-26T09:34:20Z</time></trkpt><trkpt lat="43.19143745865652" lon="11.975558706405403"><ele>274.83333333333337</ele><time>2026-04-26T09:34:21Z</time></trkpt><trkpt lat="43.19140009651532" lon="11.975650647804798"><ele>274.6666666666667</ele><time>2026-04-26T09:34:22Z</time></trkpt><trkpt lat="43.191371509319374" lon="11.975746820203971"><ele>274.5</ele><time>2026-04-26T09:34:23Z</time></trkpt><trkpt lat="43.19134721912549" lon="11.97584892368165"><ele>274.3333333333333</ele><time>2026-04-26T09:34:24Z</time></trkpt><trkpt lat="43.19132718593015" lon="11.975953279354632"><ele>274.16666666666663</ele><time>2026-04-26T09:34:25Z</time></trkpt><trkpt lat="43.19131177785842" lon="11.976059079137189"><ele>274.0</ele><time>2026-04-26T09:34:26Z</time></trkpt><trkpt lat="43.19129941134923" lon="11.97616660907585"><ele>273.66666666666663</ele><time>2026-04-26T09:34:27Z</time></trkpt><trkpt lat="43.1912838867233" lon="11.976269767261732"><ele>273.3333333333333</ele><time>2026-04-26T09:34:28Z</time></trkpt><trkpt lat="43.19127103464688" lon="11.97637547220311"><ele>273.0</ele><time>2026-04-26T09:34:29Z</time></trkpt><trkpt lat="43.19125856048581" lon="11.976479708489604"><ele>272.6666666666667</ele><time>2026-04-26T09:34:30Z</time></trkpt><trkpt lat="43.191246103257356" lon="11.976587237150977"><ele>272.33333333333337</ele><time>2026-04-26T09:34:31Z</time></trkpt><trkpt lat="43.19123432793289" lon="11.976699115071465"><ele>272.0</ele><time>2026-04-26T09:34:32Z</time></trkpt><trkpt lat="43.191218598383045" lon="11.9768160331286"><ele>271.5</ele><time>2026-04-26T09:34:33Z</time></trkpt><trkpt lat="43.19120129294617" lon="11.976934718425259"><ele>271.0</ele><time>2026-04-26T09:34:34Z</time></trkpt><trkpt lat="43.191194282449985" lon="11.977053357432073"><ele>270.5</ele><time>2026-04-26T09:34:35Z</time></trkpt><trkpt lat="43.19117898509678" lon="11.977167111024487"><ele>270.0</ele><time>2026-04-26T09:34:36Z</time></trkpt><trkpt lat="43.19116572634996" lon="11.97728201769731"><ele>269.5</ele><time>2026-04-26T09:34:37Z</time></trkpt><trkpt lat="43.19114936410084" lon="11.977396149257943"><ele>269.0</ele><time>2026-04-26T09:34:37.999Z</time></trkpt><trkpt lat="43.191132844877615" lon="11.977509541793902"><ele>269.2857142857143</ele><time>2026-04-26T09:34:38.999Z</time></trkpt><trkpt lat="43.19112046514943" lon="11.977620590012764"><ele>269.5714285714286</ele><time>2026-04-26T09:34:39.999Z</time></trkpt><trkpt lat="43.19110868613625" lon="11.977726441907672"><ele>269.8571428571429</ele><time>2026-04-26T09:34:40.999Z</time></trkpt><trkpt lat="43.19109579461453" lon="11.977825714415854"><ele>270.14285714285717</ele><time>2026-04-26T09:34:41.999Z</time></trkpt><trkpt lat="43.19108121245142" lon="11.977919010620017"><ele>270.42857142857144</ele><time>2026-04-26T09:34:42.999Z</time></trkpt><trkpt lat="43.19106994503536" lon="11.978014020190992"><ele>270.7142857142857</ele><time>2026-04-26T09:34:43.999Z</time></trkpt><trkpt lat="43.191054960863454" lon="11.978106709778013"><ele>271.0</ele><time>2026-04-26T09:34:44.999Z</time></trkpt><trkpt lat="43.19104408346001" lon="11.978201909597718"><ele>271.0</ele><time>2026-04-26T09:34:45.999Z</time></trkpt><trkpt lat="43.19102812962373" lon="11.978295347747869"><ele>271.0</ele><time>2026-04-26T09:34:46.999Z</time></trkpt><trkpt lat="43.19099099094029" lon="11.978387842658737"><ele>271.0</ele><time>2026-04-26T09:34:47.999Z</time></trkpt><trkpt lat="43.190933795076745" lon="11.978464650836264"><ele>271.0</ele><time>2026-04-26T09:34:48.999Z</time></trkpt><trkpt lat="43.19086258011226" lon="11.978526858075258"><ele>271.0</ele><time>2026-04-26T09:34:49.999Z</time></trkpt><trkpt lat="43.19079038705151" lon="11.978564748180393"><ele>271.0</ele><time>2026-04-26T09:34:50.999Z</time></trkpt><trkpt lat="43.19071457401196" lon="11.978596003368853"><ele>271.16666666666663</ele><time>2026-04-26T09:34:51.999Z</time></trkpt><trkpt lat="43.19063691132627" lon="11.978636673668925"><ele>271.3333333333333</ele><time>2026-04-26T09:34:52.999Z</time></trkpt><trkpt lat="43.19055823795388" lon="11.978675009558595"><ele>271.5</ele><time>2026-04-26T09:34:53.999Z</time></trkpt><trkpt lat="43.190483360587" lon="11.978721990734435"><ele>271.6666666666667</ele><time>2026-04-26T09:34:54.999Z</time></trkpt><trkpt lat="43.190408441638816" lon="11.978768096868977"><ele>271.83333333333337</ele><time>2026-04-26T09:34:55.999Z</time></trkpt><trkpt lat="43.19033731670336" lon="11.978816102895035"><ele>272.0</ele><time>2026-04-26T09:34:56.999Z</time></trkpt><trkpt lat="43.190267203995624" lon="11.978862941867364"><ele>272.0</ele><time>2026-04-26T09:34:57.999Z</time></trkpt><trkpt lat="43.190196617719536" lon="11.978909210641381"><ele>272.0</ele><time>2026-04-26T09:34:58.999Z</time></trkpt><trkpt lat="43.19012301947177" lon="11.978953204980622"><ele>272.0</ele><time>2026-04-26T09:34:59.999Z</time></trkpt><trkpt lat="43.1900507378542" lon="11.97899689395977"><ele>272.0</ele><time>2026-04-26T09:35:01Z</time></trkpt><trkpt lat="43.189979255046474" lon="11.979037924502089"><ele>272.0</ele><time>2026-04-26T09:35:02Z</time></trkpt><trkpt lat="43.18991239694338" lon="11.979081407863157"><ele>272.0</ele><time>2026-04-26T09:35:03Z</time></trkpt><trkpt lat="43.189800585261" lon="11.9791397060758"><ele>272.0</ele><time>2026-04-26T09:35:05Z</time></trkpt><trkpt lat="43.18971911183096" lon="11.97920245977128"><ele>272.0</ele><time>2026-04-26T09:35:07Z</time></trkpt><trkpt lat="43.189656748371846" lon="11.979233839495427"><ele>272.0</ele><time>2026-04-26T09:35:10Z</time></trkpt><trkpt lat="43.18956294242761" lon="11.979281638358488"><ele>272.0</ele><time>2026-04-26T09:35:12Z</time></trkpt><trkpt lat="43.189453212607724" lon="11.979360736692186"><ele>272.0</ele><time>2026-04-26T09:35:14Z</time></trkpt><trkpt lat="43.18939569786049" lon="11.979399529871031"><ele>272.0</ele><time>2026-04-26T09:35:15Z</time></trkpt><trkpt lat="43.18933353278638" lon="11.979446293426507"><ele>272.0</ele><time>2026-04-26T09:35:16Z</time></trkpt><trkpt lat="43.18926292319287" lon="11.979478563485983"><ele>272.0</ele><time>2026-04-26T09:35:17Z</time></trkpt><trkpt lat="43.18919273182729" lon="11.979519427596722"><ele>272.0</ele><time>2026-04-26T09:35:18Z</time></trkpt><trkpt lat="43.18911952095111" lon="11.979556692109771"><ele>272.0</ele><time>2026-04-26T09:35:19Z</time></trkpt><trkpt lat="43.18905088510693" lon="11.979603580286588"><ele>272.0</ele><time>2026-04-26T09:35:20Z</time></trkpt><trkpt lat="43.18898163994685" lon="11.979646066220424"><ele>272.0</ele><time>2026-04-26T09:35:21Z</time></trkpt><trkpt lat="43.18891320016853" lon="11.979685625240226"><ele>272.2857142857143</ele><time>2026-04-26T09:35:22Z</time></trkpt><trkpt lat="43.18884594356973" lon="11.97972802067981"><ele>272.57142857142856</ele><time>2026-04-26T09:35:23Z</time></trkpt><trkpt lat="43.18878214112234" lon="11.979770916730219"><ele>272.8571428571429</ele><time>2026-04-26T09:35:24Z</time></trkpt><trkpt lat="43.188714745613744" lon="11.979811774432362"><ele>273.1428571428571</ele><time>2026-04-26T09:35:25Z</time></trkpt><trkpt lat="43.18864667723936" lon="11.979849541906853"><ele>273.42857142857144</ele><time>2026-04-26T09:35:26Z</time></trkpt><trkpt lat="43.18857770857351" lon="11.979886599530065"><ele>273.7142857142857</ele><time>2026-04-26T09:35:27Z</time></trkpt><trkpt lat="43.188511237599336" lon="11.97992523006812"><ele>274.0</ele><time>2026-04-26T09:35:28Z</time></trkpt><trkpt lat="43.188443707026984" lon="11.97996986396512"><ele>273.66666666666663</ele><time>2026-04-26T09:35:29Z</time></trkpt><trkpt lat="43.18837763592488" lon="11.980018079597068"><ele>273.3333333333333</ele><time>2026-04-26T09:35:30Z</time></trkpt><trkpt lat="43.18830685109858" lon="11.980063989202296"><ele>273.0</ele><time>2026-04-26T09:35:31Z</time></trkpt><trkpt lat="43.1882322641016" lon="11.980107730695188"><ele>272.6666666666667</ele><time>2026-04-26T09:35:32Z</time></trkpt><trkpt lat="43.18815423890417" lon="11.98015443074005"><ele>272.33333333333337</ele><time>2026-04-26T09:35:33Z</time></trkpt><trkpt lat="43.18807926679224" lon="11.980201686101417"><ele>272.0</ele><time>2026-04-26T09:35:34Z</time></trkpt><trkpt lat="43.18800370671366" lon="11.980244429172819"><ele>272.0</ele><time>2026-04-26T09:35:35Z</time></trkpt><trkpt lat="43.18792673177249" lon="11.980291624283224"><ele>272.0</ele><time>2026-04-26T09:35:36Z</time></trkpt><trkpt lat="43.1878496222672" lon="11.98033917858691"><ele>272.0</ele><time>2026-04-26T09:35:37Z</time></trkpt><trkpt lat="43.18777229092316" lon="11.980382202695765"><ele>272.0</ele><time>2026-04-26T09:35:38Z</time></trkpt><trkpt lat="43.18769539047739" lon="11.980426564532689"><ele>272.0</ele><time>2026-04-26T09:35:39Z</time></trkpt><trkpt lat="43.187618828239046" lon="11.980475914438578"><ele>272.0</ele><time>2026-04-26T09:35:40Z</time></trkpt><trkpt lat="43.18754368685305" lon="11.9805240639866"><ele>271.99999999999994</ele><time>2026-04-26T09:35:41Z</time></trkpt><trkpt lat="43.187474939355546" lon="11.98057000380227"><ele>272.0</ele><time>2026-04-26T09:35:42Z</time></trkpt><trkpt lat="43.18740305417455" lon="11.980615277467509"><ele>272.0</ele><time>2026-04-26T09:35:43Z</time></trkpt><trkpt lat="43.18733277417676" lon="11.980656513958529"><ele>272.0</ele><time>2026-04-26T09:35:44Z</time></trkpt><trkpt lat="43.18726935994238" lon="11.980700317631523"><ele>272.0</ele><time>2026-04-26T09:35:45Z</time></trkpt><trkpt lat="43.18720243351918" lon="11.980740059254467"><ele>271.99999999999994</ele><time>2026-04-26T09:35:46Z</time></trkpt><trkpt lat="43.18713382667165" lon="11.980775677587694"><ele>272.0</ele><time>2026-04-26T09:35:47Z</time></trkpt><trkpt lat="43.18706528931586" lon="11.9808133714638"><ele>271.99999999999994</ele><time>2026-04-26T09:35:48Z</time></trkpt><trkpt lat="43.18700111727422" lon="11.980853964156307"><ele>272.0</ele><time>2026-04-26T09:35:49Z</time></trkpt><trkpt lat="43.18693617507056" lon="11.980897764711104"><ele>272.0</ele><time>2026-04-26T09:35:50Z</time></trkpt><trkpt lat="43.1868688814632" lon="11.980941589765836"><ele>272.0</ele><time>2026-04-26T09:35:51Z</time></trkpt><trkpt lat="43.18679996511539" lon="11.980980954814626"><ele>272.0</ele><time>2026-04-26T09:35:52Z</time></trkpt><trkpt lat="43.18673330156453" lon="11.981021869280152"><ele>271.99999999999994</ele><time>2026-04-26T09:35:53Z</time></trkpt><trkpt lat="43.186667094925376" lon="11.981061570315397"><ele>272.0</ele><time>2026-04-26T09:35:54Z</time></trkpt><trkpt lat="43.186598895515466" lon="11.981099362351273"><ele>272.0</ele><time>2026-04-26T09:35:55Z</time></trkpt><trkpt lat="43.1865354655568" lon="11.981132794111879"><ele>272.0</ele><time>2026-04-26T09:35:56Z</time></trkpt><trkpt lat="43.18646972214494" lon="11.981172254742905"><ele>272.0</ele><time>2026-04-26T09:35:57Z</time></trkpt><trkpt lat="43.1864009750351" lon="11.981217174190247"><ele>272.0</ele><time>2026-04-26T09:35:58Z</time></trkpt><trkpt lat="43.18633788502533" lon="11.981256222303687"><ele>272.0</ele><time>2026-04-26T09:35:59Z</time></trkpt><trkpt lat="43.18621056975411" lon="11.981334383812948"><ele>272.0</ele><time>2026-04-26T09:36:01Z</time></trkpt><trkpt lat="43.18614572499725" lon="11.981372476791924"><ele>272.4285714285714</ele><time>2026-04-26T09:36:02Z</time></trkpt><trkpt lat="43.18607979203876" lon="11.981411056365264"><ele>272.85714285714283</ele><time>2026-04-26T09:36:03Z</time></trkpt><trkpt lat="43.186017121292466" lon="11.981450952364934"><ele>273.2857142857143</ele><time>2026-04-26T09:36:04Z</time></trkpt><trkpt lat="43.18595284497264" lon="11.981485901982431"><ele>273.71428571428567</ele><time>2026-04-26T09:36:05Z</time></trkpt><trkpt lat="43.18588811821798" lon="11.981533487969614"><ele>274.1428571428571</ele><time>2026-04-26T09:36:06Z</time></trkpt><trkpt lat="43.1858212408801" lon="11.981570806780637"><ele>274.57142857142856</ele><time>2026-04-26T09:36:07Z</time></trkpt><trkpt lat="43.18575408775636" lon="11.981622278588938"><ele>275.0</ele><time>2026-04-26T09:36:08Z</time></trkpt><trkpt lat="43.18568331456404" lon="11.981660072706337"><ele>274.42857142857144</ele><time>2026-04-26T09:36:09Z</time></trkpt><trkpt lat="43.185617204886476" lon="11.981693193010596"><ele>273.85714285714283</ele><time>2026-04-26T09:36:10Z</time></trkpt><trkpt lat="43.18555187707182" lon="11.981735374926984"><ele>273.2857142857143</ele><time>2026-04-26T09:36:11Z</time></trkpt><trkpt lat="43.185491711965575" lon="11.981773505935532"><ele>272.7142857142857</ele><time>2026-04-26T09:36:12Z</time></trkpt><trkpt lat="43.18543122300423" lon="11.981811981924666"><ele>272.14285714285717</ele><time>2026-04-26T09:36:13Z</time></trkpt><trkpt lat="43.185369028763226" lon="11.98184773541276"><ele>271.57142857142856</ele><time>2026-04-26T09:36:14Z</time></trkpt><trkpt lat="43.18530428823011" lon="11.981880910315752"><ele>271.0</ele><time>2026-04-26T09:36:15Z</time></trkpt><trkpt lat="43.1852391000839" lon="11.981917242752397"><ele>271.0</ele><time>2026-04-26T09:36:16Z</time></trkpt><trkpt lat="43.185176517216895" lon="11.98195343908283"><ele>271.0</ele><time>2026-04-26T09:36:17Z</time></trkpt><trkpt lat="43.185113917704356" lon="11.98199760922613"><ele>271.0</ele><time>2026-04-26T09:36:18Z</time></trkpt><trkpt lat="43.185046845742335" lon="11.982039525175356"><ele>271.0</ele><time>2026-04-26T09:36:19Z</time></trkpt><trkpt lat="43.18498160023629" lon="11.982075401692526"><ele>271.0</ele><time>2026-04-26T09:36:20Z</time></trkpt><trkpt lat="43.184868857737285" lon="11.982142027532715"><ele>271.0</ele><time>2026-04-26T09:36:22Z</time></trkpt><trkpt lat="43.184808696233176" lon="11.982181059273119"><ele>271.1428571428571</ele><time>2026-04-26T09:36:23Z</time></trkpt><trkpt lat="43.184746298119215" lon="11.98222384053304"><ele>271.2857142857143</ele><time>2026-04-26T09:36:24Z</time></trkpt><trkpt lat="43.1846794242244" lon="11.982266367711992"><ele>271.42857142857144</ele><time>2026-04-26T09:36:25Z</time></trkpt><trkpt lat="43.18461639266409" lon="11.982304685350424"><ele>271.57142857142856</ele><time>2026-04-26T09:36:26Z</time></trkpt><trkpt lat="43.18455535911764" lon="11.982340576433867"><ele>271.7142857142857</ele><time>2026-04-26T09:36:27Z</time></trkpt><trkpt lat="43.184495211055456" lon="11.982374478790472"><ele>271.85714285714283</ele><time>2026-04-26T09:36:28Z</time></trkpt><trkpt lat="43.18443373303141" lon="11.982407542843614"><ele>272.0</ele><time>2026-04-26T09:36:29Z</time></trkpt><trkpt lat="43.184372238854955" lon="11.982441908348644"><ele>271.99999999999994</ele><time>2026-04-26T09:36:30Z</time></trkpt><trkpt lat="43.18431038666104" lon="11.982479262011438"><ele>272.0</ele><time>2026-04-26T09:36:31Z</time></trkpt><trkpt lat="43.18424902162295" lon="11.98251280252322"><ele>272.0</ele><time>2026-04-26T09:36:32Z</time></trkpt><trkpt lat="43.18418612041096" lon="11.982552406105922"><ele>272.0</ele><time>2026-04-26T09:36:33Z</time></trkpt><trkpt lat="43.18412341763009" lon="11.982591386593718"><ele>272.0</ele><time>2026-04-26T09:36:34Z</time></trkpt><trkpt lat="43.18406174611642" lon="11.982628019232665"><ele>271.99999999999994</ele><time>2026-04-26T09:36:35Z</time></trkpt><trkpt lat="43.18399775314936" lon="11.982667413353337"><ele>272.0</ele><time>2026-04-26T09:36:36Z</time></trkpt><trkpt lat="43.18393103282046" lon="11.982703578333965"><ele>272.2857142857143</ele><time>2026-04-26T09:36:37Z</time></trkpt><trkpt lat="43.18386738067004" lon="11.982744970847891"><ele>272.57142857142856</ele><time>2026-04-26T09:36:38Z</time></trkpt><trkpt lat="43.18380292433475" lon="11.982786810977357"><ele>272.8571428571429</ele><time>2026-04-26T09:36:39Z</time></trkpt><trkpt lat="43.18373496489783" lon="11.98282953759362"><ele>273.1428571428571</ele><time>2026-04-26T09:36:40Z</time></trkpt><trkpt lat="43.183669827736566" lon="11.982865728040425"><ele>273.42857142857144</ele><time>2026-04-26T09:36:41Z</time></trkpt><trkpt lat="43.18360787172284" lon="11.982901057078097"><ele>273.7142857142857</ele><time>2026-04-26T09:36:42Z</time></trkpt><trkpt lat="43.18354371183624" lon="11.982939539263802"><ele>274.0</ele><time>2026-04-26T09:36:43Z</time></trkpt><trkpt lat="43.18348019937406" lon="11.98297675163092"><ele>274.00000000000006</ele><time>2026-04-26T09:36:44Z</time></trkpt><trkpt lat="43.183418617487064" lon="11.983014845399255"><ele>274.0</ele><time>2026-04-26T09:36:45Z</time></trkpt><trkpt lat="43.18335961638576" lon="11.983053632707403"><ele>274.0</ele><time>2026-04-26T09:36:46Z</time></trkpt><trkpt lat="43.183301419574214" lon="11.983095432973105"><ele>274.0</ele><time>2026-04-26T09:36:47Z</time></trkpt><trkpt lat="43.18324106297402" lon="11.983133892786574"><ele>274.0</ele><time>2026-04-26T09:36:48Z</time></trkpt><trkpt lat="43.18317072485848" lon="11.983171098318211"><ele>274.00000000000006</ele><time>2026-04-26T09:36:49Z</time></trkpt><trkpt lat="43.18310490014916" lon="11.983209157218504"><ele>274.0</ele><time>2026-04-26T09:36:50Z</time></trkpt><trkpt lat="43.183040083947475" lon="11.983245822702843"><ele>274.00000000000006</ele><time>2026-04-26T09:36:51Z</time></trkpt><trkpt lat="43.182975429130906" lon="11.98328494946548"><ele>274.0</ele><time>2026-04-26T09:36:52Z</time></trkpt><trkpt lat="43.18290757965275" lon="11.983322287567528"><ele>274.0</ele><time>2026-04-26T09:36:53Z</time></trkpt><trkpt lat="43.182841929833685" lon="11.983364908912822"><ele>274.0</ele><time>2026-04-26T09:36:54Z</time></trkpt><trkpt lat="43.18277487135632" lon="11.983400508010055"><ele>274.0</ele><time>2026-04-26T09:36:55Z</time></trkpt><trkpt lat="43.18270949048909" lon="11.983436026143732"><ele>274.00000000000006</ele><time>2026-04-26T09:36:56Z</time></trkpt><trkpt lat="43.18264748804021" lon="11.983477837156151"><ele>274.0</ele><time>2026-04-26T09:36:57Z</time></trkpt><trkpt lat="43.182584075460476" lon="11.983519792405685"><ele>273.8571428571429</ele><time>2026-04-26T09:36:58Z</time></trkpt><trkpt lat="43.1825153379247" lon="11.983562923735388"><ele>273.7142857142857</ele><time>2026-04-26T09:36:59Z</time></trkpt><trkpt lat="43.18244550204968" lon="11.983604034623905"><ele>273.57142857142856</ele><time>2026-04-26T09:37:00Z</time></trkpt><trkpt lat="43.18237470281516" lon="11.983644565482676"><ele>273.42857142857144</ele><time>2026-04-26T09:37:01Z</time></trkpt><trkpt lat="43.18231076217663" lon="11.983686587162767"><ele>273.2857142857143</ele><time>2026-04-26T09:37:02Z</time></trkpt><trkpt lat="43.18224541231065" lon="11.98372918814126"><ele>273.14285714285717</ele><time>2026-04-26T09:37:03Z</time></trkpt><trkpt lat="43.182188281067056" lon="11.983766234104083"><ele>273.0</ele><time>2026-04-26T09:37:04Z</time></trkpt><trkpt lat="43.18212788161135" lon="11.983801285373936"><ele>273.2857142857143</ele><time>2026-04-26T09:37:05Z</time></trkpt><trkpt lat="43.182067870029" lon="11.983840234756205"><ele>273.57142857142856</ele><time>2026-04-26T09:37:06Z</time></trkpt><trkpt lat="43.18200668550473" lon="11.983879328945342"><ele>273.8571428571429</ele><time>2026-04-26T09:37:07Z</time></trkpt><trkpt lat="43.181943136758015" lon="11.983913961745516"><ele>274.1428571428571</ele><time>2026-04-26T09:37:08Z</time></trkpt><trkpt lat="43.18188271361986" lon="11.983947458151071"><ele>274.42857142857144</ele><time>2026-04-26T09:37:09Z</time></trkpt><trkpt lat="43.18182244504147" lon="11.983980915009305"><ele>274.7142857142857</ele><time>2026-04-26T09:37:10Z</time></trkpt><trkpt lat="43.18176295994624" lon="11.984015719543006"><ele>275.0</ele><time>2026-04-26T09:37:11Z</time></trkpt><trkpt lat="43.181704029532625" lon="11.984054852266521"><ele>275.0</ele><time>2026-04-26T09:37:12Z</time></trkpt><trkpt lat="43.18164549727027" lon="11.984093502357444"><ele>275.0</ele><time>2026-04-26T09:37:13Z</time></trkpt><trkpt lat="43.18158642345686" lon="11.984135933486892"><ele>275.0</ele><time>2026-04-26T09:37:14Z</time></trkpt><trkpt lat="43.18152221362566" lon="11.984168146968782"><ele>275.0</ele><time>2026-04-26T09:37:15Z</time></trkpt><trkpt lat="43.1814601158883" lon="11.984203651347306"><ele>275.0</ele><time>2026-04-26T09:37:16Z</time></trkpt><trkpt lat="43.181396985009414" lon="11.984245071934362"><ele>275.0</ele><time>2026-04-26T09:37:17Z</time></trkpt><trkpt lat="43.181338545451005" lon="11.984283016927453"><ele>275.0</ele><time>2026-04-26T09:37:18Z</time></trkpt><trkpt lat="43.18127698387882" lon="11.984319127432396"><ele>275.0</ele><time>2026-04-26T09:37:19Z</time></trkpt><trkpt lat="43.1812153448895" lon="11.984356321653078"><ele>275.0</ele><time>2026-04-26T09:37:20Z</time></trkpt><trkpt lat="43.18115377221011" lon="11.98439423786129"><ele>275.0</ele><time>2026-04-26T09:37:21Z</time></trkpt><trkpt lat="43.18109124022002" lon="11.984436554393643"><ele>275.0</ele><time>2026-04-26T09:37:22Z</time></trkpt><trkpt lat="43.180987391357846" lon="11.984497056488129"><ele>275.0</ele><time>2026-04-26T09:37:24Z</time></trkpt><trkpt lat="43.180877798601585" lon="11.984556066334832"><ele>275.0</ele><time>2026-04-26T09:37:26Z</time></trkpt><trkpt lat="43.18082123987574" lon="11.984599051033868"><ele>275.0</ele><time>2026-04-26T09:37:27Z</time></trkpt><trkpt lat="43.180707197641645" lon="11.984666093224517"><ele>275.0</ele><time>2026-04-26T09:37:29Z</time></trkpt><trkpt lat="43.180646413771505" lon="11.984701206149182"><ele>275.0</ele><time>2026-04-26T09:37:30Z</time></trkpt><trkpt lat="43.18058656119468" lon="11.98473771158938"><ele>275.0</ele><time>2026-04-26T09:37:31Z</time></trkpt><trkpt lat="43.18047730506514" lon="11.984804905512284"><ele>275.0</ele><time>2026-04-26T09:37:33Z</time></trkpt><trkpt lat="43.18036265601345" lon="11.984864222035867"><ele>275.33333333333337</ele><time>2026-04-26T09:37:35Z</time></trkpt><trkpt lat="43.18030403506002" lon="11.984902205158766"><ele>275.6666666666667</ele><time>2026-04-26T09:37:36Z</time></trkpt><trkpt lat="43.18024683059545" lon="11.984938816004098"><ele>276.0</ele><time>2026-04-26T09:37:37Z</time></trkpt><trkpt lat="43.18018971128709" lon="11.984975956464204"><ele>276.3333333333333</ele><time>2026-04-26T09:37:38Z</time></trkpt><trkpt lat="43.18007619654391" lon="11.985046527934855"><ele>276.66666666666663</ele><time>2026-04-26T09:37:40Z</time></trkpt><trkpt lat="43.17996410778728" lon="11.985118220841471"><ele>277.0</ele><time>2026-04-26T09:37:42Z</time></trkpt><trkpt lat="43.17985073462841" lon="11.985189585739857"><ele>277.2</ele><time>2026-04-26T09:37:44Z</time></trkpt><trkpt lat="43.179738992400026" lon="11.985251342920316"><ele>277.4</ele><time>2026-04-26T09:37:46Z</time></trkpt><trkpt lat="43.179635527445946" lon="11.985314752849119"><ele>277.6</ele><time>2026-04-26T09:37:48Z</time></trkpt><trkpt lat="43.17953848156453" lon="11.985362424662327"><ele>277.8</ele><time>2026-04-26T09:37:50Z</time></trkpt><trkpt lat="43.17946777150583" lon="11.985391829266545"><ele>278.0</ele><time>2026-04-26T09:37:52Z</time></trkpt><trkpt lat="43.17940332907155" lon="11.985403044294113"><ele>278.0</ele><time>2026-04-26T09:37:55Z</time></trkpt><trkpt lat="43.17930128057402" lon="11.985468781391285"><ele>278.0</ele><time>2026-04-26T09:37:58Z</time></trkpt><trkpt lat="43.179241847326765" lon="11.985525973610876"><ele>278.0</ele><time>2026-04-26T09:37:59Z</time></trkpt><trkpt lat="43.17914500038394" lon="11.985614571279747"><ele>278.0</ele><time>2026-04-26T09:38:01Z</time></trkpt><trkpt lat="43.17908159347565" lon="11.985648251252755"><ele>278.0</ele><time>2026-04-26T09:38:02Z</time></trkpt><trkpt lat="43.17902081028029" lon="11.985676347882604"><ele>278.0</ele><time>2026-04-26T09:38:03Z</time></trkpt><trkpt lat="43.1789614296913" lon="11.985706932466867"><ele>278.0</ele><time>2026-04-26T09:38:04Z</time></trkpt><trkpt lat="43.17885196769696" lon="11.985773133960926"><ele>278.0</ele><time>2026-04-26T09:38:06Z</time></trkpt><trkpt lat="43.17875620899975" lon="11.985844328483049"><ele>278.0</ele><time>2026-04-26T09:38:08Z</time></trkpt><trkpt lat="43.17865228231219" lon="11.9859085860373"><ele>278.0</ele><time>2026-04-26T09:38:10Z</time></trkpt><trkpt lat="43.178559465195875" lon="11.985964373791118"><ele>278.0</ele><time>2026-04-26T09:38:12Z</time></trkpt><trkpt lat="43.17845652841775" lon="11.986040253138327"><ele>277.8</ele><time>2026-04-26T09:38:14Z</time></trkpt><trkpt lat="43.17839922602102" lon="11.986079780374936"><ele>277.6</ele><time>2026-04-26T09:38:15Z</time></trkpt><trkpt lat="43.17828945415761" lon="11.986164791881635"><ele>277.4</ele><time>2026-04-26T09:38:17Z</time></trkpt><trkpt lat="43.17818808712703" lon="11.98621998670457"><ele>277.2</ele><time>2026-04-26T09:38:19Z</time></trkpt><trkpt lat="43.17810729582806" lon="11.986242930305155"><ele>277.0</ele><time>2026-04-26T09:38:21Z</time></trkpt><trkpt lat="43.17803023780786" lon="11.98627846061221"><ele>277.0</ele><time>2026-04-26T09:38:23Z</time></trkpt><trkpt lat="43.1779655673831" lon="11.986239829057304"><ele>277.0</ele><time>2026-04-26T09:38:24Z</time></trkpt><trkpt lat="43.177903371409194" lon="11.986216005982632"><ele>277.0</ele><time>2026-04-26T09:38:25Z</time></trkpt><trkpt lat="43.177798659411394" lon="11.98616381377277"><ele>277.0</ele><time>2026-04-26T09:38:27Z</time></trkpt><trkpt lat="43.177737272518094" lon="11.986133537113231"><ele>277.0</ele><time>2026-04-26T09:38:28Z</time></trkpt><trkpt lat="43.1776756569657" lon="11.986111930119248"><ele>277.0</ele><time>2026-04-26T09:38:29Z</time></trkpt><trkpt lat="43.177560802395966" lon="11.986043997493553"><ele>277.0</ele><time>2026-04-26T09:38:31Z</time></trkpt><trkpt lat="43.177448267279736" lon="11.985977807751727"><ele>277.0</ele><time>2026-04-26T09:38:33Z</time></trkpt><trkpt lat="43.177338343709444" lon="11.98591371681841"><ele>277.0</ele><time>2026-04-26T09:38:35Z</time></trkpt><trkpt lat="43.17727756899411" lon="11.98587878970749"><ele>277.0</ele><time>2026-04-26T09:38:36Z</time></trkpt><trkpt lat="43.17721977669072" lon="11.98583711613124"><ele>277.0</ele><time>2026-04-26T09:38:37Z</time></trkpt><trkpt lat="43.177161259734625" lon="11.985800148654144"><ele>277.0</ele><time>2026-04-26T09:38:38Z</time></trkpt><trkpt lat="43.17710464830197" lon="11.985756125825288"><ele>277.0</ele><time>2026-04-26T09:38:39Z</time></trkpt><trkpt lat="43.17704842185349" lon="11.98571382808443"><ele>277.0</ele><time>2026-04-26T09:38:40Z</time></trkpt><trkpt lat="43.17693842109569" lon="11.985639780563092"><ele>277.0</ele><time>2026-04-26T09:38:42Z</time></trkpt><trkpt lat="43.17682688510987" lon="11.985569387518584"><ele>277.0</ele><time>2026-04-26T09:38:44Z</time></trkpt><trkpt lat="43.17670850097622" lon="11.985513042525783"><ele>277.0</ele><time>2026-04-26T09:38:46Z</time></trkpt><trkpt lat="43.176648652145964" lon="11.985471248013832"><ele>277.0</ele><time>2026-04-26T09:38:47Z</time></trkpt><trkpt lat="43.176587939103285" lon="11.98543045768757"><ele>277.0</ele><time>2026-04-26T09:38:48Z</time></trkpt><trkpt lat="43.1765285903082" lon="11.985392547391545"><ele>277.0</ele><time>2026-04-26T09:38:49Z</time></trkpt><trkpt lat="43.176464720485036" lon="11.985349942108199"><ele>277.0</ele><time>2026-04-26T09:38:50Z</time></trkpt><trkpt lat="43.17639877543912" lon="11.985308641719596"><ele>277.0</ele><time>2026-04-26T09:38:51Z</time></trkpt><trkpt lat="43.17633188314744" lon="11.985265616139499"><ele>277.0</ele><time>2026-04-26T09:38:52Z</time></trkpt><trkpt lat="43.176264596220555" lon="11.98522756331935"><ele>277.0</ele><time>2026-04-26T09:38:53Z</time></trkpt><trkpt lat="43.17619984244922" lon="11.985184530998731"><ele>277.1428571428571</ele><time>2026-04-26T09:38:54Z</time></trkpt><trkpt lat="43.176131791525556" lon="11.985148868669105"><ele>277.2857142857143</ele><time>2026-04-26T09:38:55Z</time></trkpt><trkpt lat="43.176063486341356" lon="11.985105758517154"><ele>277.42857142857144</ele><time>2026-04-26T09:38:56Z</time></trkpt><trkpt lat="43.175998388428624" lon="11.98506872542808"><ele>277.57142857142856</ele><time>2026-04-26T09:38:57Z</time></trkpt><trkpt lat="43.17592858640354" lon="11.9850420408578"><ele>277.7142857142857</ele><time>2026-04-26T09:38:58Z</time></trkpt><trkpt lat="43.17586225794999" lon="11.985020756128447"><ele>277.85714285714283</ele><time>2026-04-26T09:38:59Z</time></trkpt><trkpt lat="43.175793739481335" lon="11.985019007629607"><ele>278.0</ele><time>2026-04-26T09:39:00Z</time></trkpt><trkpt lat="43.175724105075446" lon="11.985025827500063"><ele>278.0</ele><time>2026-04-26T09:39:01Z</time></trkpt><trkpt lat="43.17565753387262" lon="11.985034220225417"><ele>278.0</ele><time>2026-04-26T09:39:02Z</time></trkpt><trkpt lat="43.17558893324293" lon="11.985042010238065"><ele>278.0</ele><time>2026-04-26T09:39:03Z</time></trkpt><trkpt lat="43.175519052180775" lon="11.985062922762566"><ele>278.0</ele><time>2026-04-26T09:39:04Z</time></trkpt><trkpt lat="43.17539452138503" lon="11.9850919290946"><ele>278.0</ele><time>2026-04-26T09:39:06Z</time></trkpt><trkpt lat="43.175323364089664" lon="11.985107551563793"><ele>278.0</ele><time>2026-04-26T09:39:07Z</time></trkpt><trkpt lat="43.175254539556214" lon="11.98511519645133"><ele>278.0</ele><time>2026-04-26T09:39:08Z</time></trkpt><trkpt lat="43.17518432149219" lon="11.985116652965747"><ele>278.0</ele><time>2026-04-26T09:39:09Z</time></trkpt><trkpt lat="43.175115896744074" lon="11.985120044329435"><ele>278.0</ele><time>2026-04-26T09:39:10Z</time></trkpt><trkpt lat="43.175047916388934" lon="11.98513181525303"><ele>278.0</ele><time>2026-04-26T09:39:11Z</time></trkpt><trkpt lat="43.17498005237205" lon="11.98514361873735"><ele>278.0</ele><time>2026-04-26T09:39:12Z</time></trkpt><trkpt lat="43.17491492390299" lon="11.98515218330143"><ele>278.0</ele><time>2026-04-26T09:39:13.001Z</time></trkpt><trkpt lat="43.174848857952064" lon="11.985161294265096"><ele>278.0</ele><time>2026-04-26T09:39:14.001Z</time></trkpt><trkpt lat="43.17478414896209" lon="11.985170335302952"><ele>277.85714285714283</ele><time>2026-04-26T09:39:15.001Z</time></trkpt><trkpt lat="43.174721166113414" lon="11.985181372274232"><ele>277.7142857142857</ele><time>2026-04-26T09:39:16.001Z</time></trkpt><trkpt lat="43.17465780241727" lon="11.985188538554002"><ele>277.57142857142856</ele><time>2026-04-26T09:39:17.001Z</time></trkpt><trkpt lat="43.174593192254285" lon="11.9851930603255"><ele>277.42857142857144</ele><time>2026-04-26T09:39:18Z</time></trkpt><trkpt lat="43.174530482336316" lon="11.98520860088824"><ele>277.2857142857143</ele><time>2026-04-26T09:39:19Z</time></trkpt><trkpt lat="43.174465551622184" lon="11.985223037046612"><ele>277.1428571428571</ele><time>2026-04-26T09:39:20.001Z</time></trkpt><trkpt lat="43.17439912997869" lon="11.985233170094125"><ele>277.0</ele><time>2026-04-26T09:39:21Z</time></trkpt><trkpt lat="43.174331679866675" lon="11.985242795152738"><ele>277.0</ele><time>2026-04-26T09:39:22Z</time></trkpt><trkpt lat="43.17426395478966" lon="11.985257718574958"><ele>277.0</ele><time>2026-04-26T09:39:23Z</time></trkpt><trkpt lat="43.174190749453295" lon="11.985267318961919"><ele>277.0</ele><time>2026-04-26T09:39:24Z</time></trkpt><trkpt lat="43.174118372987536" lon="11.98527436645918"><ele>277.0</ele><time>2026-04-26T09:39:25Z</time></trkpt><trkpt lat="43.17404990928832" lon="11.985285505307267"><ele>277.0</ele><time>2026-04-26T09:39:26Z</time></trkpt><trkpt lat="43.173980677988176" lon="11.985297227766704"><ele>277.0</ele><time>2026-04-26T09:39:27Z</time></trkpt><trkpt lat="43.17391122778082" lon="11.985308211756974"><ele>277.0</ele><time>2026-04-26T09:39:28Z</time></trkpt><trkpt lat="43.17384177929918" lon="11.985317112299974"><ele>277.42857142857144</ele><time>2026-04-26T09:39:29Z</time></trkpt><trkpt lat="43.173772833051544" lon="11.985327265307665"><ele>277.85714285714283</ele><time>2026-04-26T09:39:30Z</time></trkpt><trkpt lat="43.17370392431277" lon="11.985338110395617"><ele>278.2857142857143</ele><time>2026-04-26T09:39:31Z</time></trkpt><trkpt lat="43.17363539085439" lon="11.985348163275003"><ele>278.7142857142857</ele><time>2026-04-26T09:39:32Z</time></trkpt><trkpt lat="43.173567334410464" lon="11.98535996326041"><ele>279.1428571428571</ele><time>2026-04-26T09:39:33Z</time></trkpt><trkpt lat="43.17349796553607" lon="11.985371557608891"><ele>279.57142857142856</ele><time>2026-04-26T09:39:34Z</time></trkpt><trkpt lat="43.17342853488612" lon="11.98538362204127"><ele>280.0</ele><time>2026-04-26T09:39:35Z</time></trkpt><trkpt lat="43.173358985406885" lon="11.985393158851732"><ele>280.0</ele><time>2026-04-26T09:39:36Z</time></trkpt><trkpt lat="43.17328973347609" lon="11.985403385244354"><ele>280.0</ele><time>2026-04-26T09:39:37Z</time></trkpt><trkpt lat="43.17322029797394" lon="11.985412534392985"><ele>280.0</ele><time>2026-04-26T09:39:38Z</time></trkpt><trkpt lat="43.17315171185562" lon="11.985422177769353"><ele>280.0</ele><time>2026-04-26T09:39:39Z</time></trkpt><trkpt lat="43.1730812887508" lon="11.98543326437959"><ele>280.0</ele><time>2026-04-26T09:39:40Z</time></trkpt><trkpt lat="43.17301105832482" lon="11.98544475953144"><ele>280.0</ele><time>2026-04-26T09:39:41Z</time></trkpt><trkpt lat="43.17294404809536" lon="11.985456310562181"><ele>280.0</ele><time>2026-04-26T09:39:42Z</time></trkpt><trkpt lat="43.17287400624251" lon="11.985467587796945"><ele>280.14285714285717</ele><time>2026-04-26T09:39:43Z</time></trkpt><trkpt lat="43.172804038092806" lon="11.98547895597434"><ele>280.2857142857143</ele><time>2026-04-26T09:39:44Z</time></trkpt><trkpt lat="43.17273534175407" lon="11.985488443120376"><ele>280.42857142857144</ele><time>2026-04-26T09:39:45Z</time></trkpt><trkpt lat="43.17266404955464" lon="11.985504156666124"><ele>280.57142857142856</ele><time>2026-04-26T09:39:46Z</time></trkpt><trkpt lat="43.17259076393399" lon="11.985501999322848"><ele>280.7142857142857</ele><time>2026-04-26T09:39:47Z</time></trkpt><trkpt lat="43.17252825710988" lon="11.985516684078748"><ele>280.8571428571429</ele><time>2026-04-26T09:39:48Z</time></trkpt><trkpt lat="43.172461216862416" lon="11.985531253668588"><ele>281.0</ele><time>2026-04-26T09:39:49Z</time></trkpt><trkpt lat="43.17239612430536" lon="11.985544699177641"><ele>280.8571428571429</ele><time>2026-04-26T09:39:50Z</time></trkpt><trkpt lat="43.17232887008029" lon="11.985554538654295"><ele>280.7142857142857</ele><time>2026-04-26T09:39:51Z</time></trkpt><trkpt lat="43.17225900162008" lon="11.98556867140837"><ele>280.57142857142856</ele><time>2026-04-26T09:39:52Z</time></trkpt><trkpt lat="43.172190845534594" lon="11.985577502013971"><ele>280.42857142857144</ele><time>2026-04-26T09:39:53Z</time></trkpt><trkpt lat="43.17212436899575" lon="11.985587177615809"><ele>280.2857142857143</ele><time>2026-04-26T09:39:54Z</time></trkpt><trkpt lat="43.172056846286694" lon="11.985596866376731"><ele>280.14285714285717</ele><time>2026-04-26T09:39:55Z</time></trkpt><trkpt lat="43.171989303574186" lon="11.985608493475354"><ele>280.0</ele><time>2026-04-26T09:39:56Z</time></trkpt><trkpt lat="43.17192434594233" lon="11.985624226495199"><ele>280.0</ele><time>2026-04-26T09:39:57Z</time></trkpt><trkpt lat="43.17185935485449" lon="11.985632643359134"><ele>280.0</ele><time>2026-04-26T09:39:58Z</time></trkpt><trkpt lat="43.171791439882185" lon="11.985643431371429"><ele>280.0</ele><time>2026-04-26T09:39:59Z</time></trkpt><trkpt lat="43.17172497206653" lon="11.985654014470072"><ele>280.0</ele><time>2026-04-26T09:40:00Z</time></trkpt><trkpt lat="43.171654315520996" lon="11.985641813061008"><ele>280.0</ele><time>2026-04-26T09:40:01Z</time></trkpt><trkpt lat="43.1715865063744" lon="11.985670953204174"><ele>280.0</ele><time>2026-04-26T09:40:02Z</time></trkpt><trkpt lat="43.17151763769109" lon="11.985677276220894"><ele>280.0</ele><time>2026-04-26T09:40:03Z</time></trkpt><trkpt lat="43.17144642943487" lon="11.985694883792501"><ele>279.42857142857144</ele><time>2026-04-26T09:40:04Z</time></trkpt><trkpt lat="43.17137634035484" lon="11.985701710487419"><ele>278.8571428571429</ele><time>2026-04-26T09:40:05Z</time></trkpt><trkpt lat="43.17130392372123" lon="11.985710825237264"><ele>278.2857142857143</ele><time>2026-04-26T09:40:06Z</time></trkpt><trkpt lat="43.17123596498565" lon="11.985723612072514"><ele>277.7142857142857</ele><time>2026-04-26T09:40:07Z</time></trkpt><trkpt lat="43.17116500143245" lon="11.98573985910715"><ele>277.14285714285717</ele><time>2026-04-26T09:40:08Z</time></trkpt><trkpt lat="43.17109328103335" lon="11.985752582896339"><ele>276.57142857142856</ele><time>2026-04-26T09:40:09Z</time></trkpt><trkpt lat="43.17101774422431" lon="11.985765341357991"><ele>276.0</ele><time>2026-04-26T09:40:10Z</time></trkpt><trkpt lat="43.17093862840071" lon="11.985775784877005"><ele>276.0</ele><time>2026-04-26T09:40:11Z</time></trkpt><trkpt lat="43.170860114020414" lon="11.985789261603776"><ele>276.0</ele><time>2026-04-26T09:40:12Z</time></trkpt><trkpt lat="43.17078060935857" lon="11.985801533855208"><ele>276.0</ele><time>2026-04-26T09:40:13Z</time></trkpt><trkpt lat="43.17070205009381" lon="11.985809802219508"><ele>276.0</ele><time>2026-04-26T09:40:14Z</time></trkpt><trkpt lat="43.17062206455319" lon="11.985819735150073"><ele>276.0</ele><time>2026-04-26T09:40:15Z</time></trkpt><trkpt lat="43.1705439782397" lon="11.985832749652468"><ele>276.0</ele><time>2026-04-26T09:40:16Z</time></trkpt><trkpt lat="43.170464086476514" lon="11.985842100610906"><ele>275.8333333333333</ele><time>2026-04-26T09:40:17Z</time></trkpt><trkpt lat="43.17038377574945" lon="11.98585301651316"><ele>275.6666666666667</ele><time>2026-04-26T09:40:18Z</time></trkpt><trkpt lat="43.17031019199214" lon="11.985863257566075"><ele>275.5</ele><time>2026-04-26T09:40:19Z</time></trkpt><trkpt lat="43.170234596887035" lon="11.985877084052838"><ele>275.33333333333337</ele><time>2026-04-26T09:40:20Z</time></trkpt><trkpt lat="43.17015570725998" lon="11.985885505621804"><ele>275.1666666666667</ele><time>2026-04-26T09:40:21Z</time></trkpt><trkpt lat="43.17008256703797" lon="11.985880163442271"><ele>275.0</ele><time>2026-04-26T09:40:22Z</time></trkpt><trkpt lat="43.170001046054864" lon="11.985899444719545"><ele>275.0</ele><time>2026-04-26T09:40:23Z</time></trkpt><trkpt lat="43.169920379823495" lon="11.985916907921126"><ele>275.0</ele><time>2026-04-26T09:40:24Z</time></trkpt><trkpt lat="43.16984263275563" lon="11.985926709733427"><ele>275.0</ele><time>2026-04-26T09:40:25Z</time></trkpt><trkpt lat="43.16976794865105" lon="11.985935249980077"><ele>275.0</ele><time>2026-04-26T09:40:26Z</time></trkpt><trkpt lat="43.169692117088374" lon="11.985947528885685"><ele>275.0</ele><time>2026-04-26T09:40:27Z</time></trkpt><trkpt lat="43.16961171710059" lon="11.985960839787428"><ele>275.0</ele><time>2026-04-26T09:40:28Z</time></trkpt><trkpt lat="43.16953304149428" lon="11.985968812794376"><ele>275.0</ele><time>2026-04-26T09:40:29Z</time></trkpt><trkpt lat="43.16945709749207" lon="11.985984548472862"><ele>275.0</ele><time>2026-04-26T09:40:30Z</time></trkpt><trkpt lat="43.16937936691168" lon="11.98599540627513"><ele>275.0</ele><time>2026-04-26T09:40:31Z</time></trkpt><trkpt lat="43.16930638367862" lon="11.986003861575776"><ele>275.0</ele><time>2026-04-26T09:40:32Z</time></trkpt><trkpt lat="43.16923523611743" lon="11.98601831026663"><ele>275.0</ele><time>2026-04-26T09:40:33Z</time></trkpt><trkpt lat="43.16916147160877" lon="11.98602857091266"><ele>275.0</ele><time>2026-04-26T09:40:34Z</time></trkpt><trkpt lat="43.169085606191004" lon="11.98603237030014"><ele>275.42857142857144</ele><time>2026-04-26T09:40:35Z</time></trkpt><trkpt lat="43.16901043933662" lon="11.986042447328744"><ele>275.85714285714283</ele><time>2026-04-26T09:40:36Z</time></trkpt><trkpt lat="43.16893930428632" lon="11.986056513627283"><ele>276.2857142857143</ele><time>2026-04-26T09:40:37Z</time></trkpt><trkpt lat="43.16886879545552" lon="11.986069838851382"><ele>276.7142857142857</ele><time>2026-04-26T09:40:38Z</time></trkpt><trkpt lat="43.16879747821165" lon="11.986081623409392"><ele>277.14285714285717</ele><time>2026-04-26T09:40:39Z</time></trkpt><trkpt lat="43.16872701814798" lon="11.986088738475814"><ele>277.57142857142856</ele><time>2026-04-26T09:40:40Z</time></trkpt><trkpt lat="43.16865666570528" lon="11.986099154808134"><ele>278.0</ele><time>2026-04-26T09:40:41Z</time></trkpt><trkpt lat="43.1685841156565" lon="11.986109545776564"><ele>278.0</ele><time>2026-04-26T09:40:42Z</time></trkpt><trkpt lat="43.16850980261193" lon="11.986122971110904"><ele>278.0</ele><time>2026-04-26T09:40:43Z</time></trkpt><trkpt lat="43.168435752220184" lon="11.986134320087352"><ele>278.0</ele><time>2026-04-26T09:40:44Z</time></trkpt><trkpt lat="43.16835927632851" lon="11.986147088607037"><ele>278.0</ele><time>2026-04-26T09:40:45Z</time></trkpt><trkpt lat="43.168285195472976" lon="11.986159215756087"><ele>278.0</ele><time>2026-04-26T09:40:46Z</time></trkpt><trkpt lat="43.168212242013134" lon="11.986167724868864"><ele>278.0</ele><time>2026-04-26T09:40:47Z</time></trkpt><trkpt lat="43.16814051432302" lon="11.986181556726278"><ele>278.0</ele><time>2026-04-26T09:40:48Z</time></trkpt><trkpt lat="43.16806976893461" lon="11.986194152143572"><ele>278.0</ele><time>2026-04-26T09:40:49Z</time></trkpt><trkpt lat="43.16799844061335" lon="11.986207624161763"><ele>278.0</ele><time>2026-04-26T09:40:50Z</time></trkpt><trkpt lat="43.16792949551014" lon="11.986217998362534"><ele>278.0</ele><time>2026-04-26T09:40:51Z</time></trkpt><trkpt lat="43.167858261236944" lon="11.986225808004349"><ele>278.0</ele><time>2026-04-26T09:40:52Z</time></trkpt><trkpt lat="43.16778661718292" lon="11.986234928112943"><ele>278.0</ele><time>2026-04-26T09:40:53Z</time></trkpt><trkpt lat="43.16771929622532" lon="11.98624666512173"><ele>278.0</ele><time>2026-04-26T09:40:54Z</time></trkpt><trkpt lat="43.16765130857512" lon="11.986256012377677"><ele>278.0</ele><time>2026-04-26T09:40:55Z</time></trkpt><trkpt lat="43.16758292240304" lon="11.986266478541149"><ele>278.0</ele><time>2026-04-26T09:40:56Z</time></trkpt><trkpt lat="43.16751284422746" lon="11.986274674270893"><ele>278.0</ele><time>2026-04-26T09:40:57Z</time></trkpt><trkpt lat="43.16744701794855" lon="11.986290068584038"><ele>278.0</ele><time>2026-04-26T09:40:58Z</time></trkpt><trkpt lat="43.16737967877494" lon="11.986302175923868"><ele>278.0</ele><time>2026-04-26T09:40:59Z</time></trkpt><trkpt lat="43.167312634605544" lon="11.986312033142893"><ele>278.0</ele><time>2026-04-26T09:41:00Z</time></trkpt><trkpt lat="43.1672430287903" lon="11.986321134079564"><ele>278.0</ele><time>2026-04-26T09:41:01Z</time></trkpt><trkpt lat="43.167173833880696" lon="11.98632992465777"><ele>278.0</ele><time>2026-04-26T09:41:02Z</time></trkpt><trkpt lat="43.16710444719411" lon="11.986340176719096"><ele>278.0</ele><time>2026-04-26T09:41:03Z</time></trkpt><trkpt lat="43.16703575889631" lon="11.986351632422572"><ele>278.0</ele><time>2026-04-26T09:41:04Z</time></trkpt><trkpt lat="43.166967496147336" lon="11.98636081625797"><ele>278.0</ele><time>2026-04-26T09:41:05Z</time></trkpt><trkpt lat="43.16690004084564" lon="11.986371466333807"><ele>278.0</ele><time>2026-04-26T09:41:06Z</time></trkpt><trkpt lat="43.16683073044942" lon="11.986377969716472"><ele>278.0</ele><time>2026-04-26T09:41:07Z</time></trkpt><trkpt lat="43.16676375118167" lon="11.986384524988516"><ele>278.0</ele><time>2026-04-26T09:41:08Z</time></trkpt><trkpt lat="43.166696438106094" lon="11.986397585821083"><ele>278.0</ele><time>2026-04-26T09:41:09Z</time></trkpt><trkpt lat="43.16662679548571" lon="11.986407287166532"><ele>278.0</ele><time>2026-04-26T09:41:10Z</time></trkpt><trkpt lat="43.16655608171122" lon="11.98641309186161"><ele>278.0</ele><time>2026-04-26T09:41:11Z</time></trkpt><trkpt lat="43.166486804310374" lon="11.98642751828095"><ele>278.0</ele><time>2026-04-26T09:41:12Z</time></trkpt><trkpt lat="43.16641604680169" lon="11.986439308897712"><ele>278.0</ele><time>2026-04-26T09:41:13Z</time></trkpt><trkpt lat="43.16634453376928" lon="11.986449609520943"><ele>278.0</ele><time>2026-04-26T09:41:14Z</time></trkpt><trkpt lat="43.16627134449537" lon="11.986460790910003"><ele>278.0</ele><time>2026-04-26T09:41:15Z</time></trkpt><trkpt lat="43.16619802617842" lon="11.98647796362605"><ele>278.0</ele><time>2026-04-26T09:41:16Z</time></trkpt><trkpt lat="43.166126469344235" lon="11.986494077008489"><ele>277.85714285714283</ele><time>2026-04-26T09:41:17Z</time></trkpt><trkpt lat="43.16605478813031" lon="11.986503336220386"><ele>277.7142857142857</ele><time>2026-04-26T09:41:18Z</time></trkpt><trkpt lat="43.16598177550913" lon="11.986512936908094"><ele>277.57142857142856</ele><time>2026-04-26T09:41:19.001Z</time></trkpt><trkpt lat="43.1659154650427" lon="11.98652558411681"><ele>277.42857142857144</ele><time>2026-04-26T09:41:20.001Z</time></trkpt><trkpt lat="43.16584752369728" lon="11.98653468064623"><ele>277.2857142857143</ele><time>2026-04-26T09:41:21.001Z</time></trkpt><trkpt lat="43.16577754842992" lon="11.986541815169378"><ele>277.1428571428571</ele><time>2026-04-26T09:41:22.001Z</time></trkpt><trkpt lat="43.1657088273643" lon="11.986550394728209"><ele>277.0</ele><time>2026-04-26T09:41:23.001Z</time></trkpt><trkpt lat="43.165640705808684" lon="11.986562234698338"><ele>277.2857142857143</ele><time>2026-04-26T09:41:24.001Z</time></trkpt><trkpt lat="43.16556942521389" lon="11.986571191283584"><ele>277.57142857142856</ele><time>2026-04-26T09:41:25.001Z</time></trkpt><trkpt lat="43.1654986082027" lon="11.986580931776107"><ele>277.85714285714283</ele><time>2026-04-26T09:41:26.001Z</time></trkpt><trkpt lat="43.16542892945978" lon="11.986589801874228"><ele>278.1428571428571</ele><time>2026-04-26T09:41:27.001Z</time></trkpt><trkpt lat="43.16535992773695" lon="11.986600166687822"><ele>278.42857142857144</ele><time>2026-04-26T09:41:28.001Z</time></trkpt><trkpt lat="43.165286486819554" lon="11.986609152708217"><ele>278.71428571428567</ele><time>2026-04-26T09:41:29.001Z</time></trkpt><trkpt lat="43.16521381464414" lon="11.98661570479003"><ele>279.0</ele><time>2026-04-26T09:41:30.001Z</time></trkpt><trkpt lat="43.165139805678805" lon="11.986617047890583"><ele>278.99999999999994</ele><time>2026-04-26T09:41:31.001Z</time></trkpt><trkpt lat="43.1650659906292" lon="11.986613148582297"><ele>279.0</ele><time>2026-04-26T09:41:32.001Z</time></trkpt><trkpt lat="43.164992977809874" lon="11.986603992761077"><ele>279.0</ele><time>2026-04-26T09:41:33.001Z</time></trkpt><trkpt lat="43.164924019034686" lon="11.986596746737668"><ele>279.0</ele><time>2026-04-26T09:41:34.001Z</time></trkpt><trkpt lat="43.16485928392347" lon="11.986592130280485"><ele>279.0</ele><time>2026-04-26T09:41:35.001Z</time></trkpt><trkpt lat="43.164790088973035" lon="11.98657814651311"><ele>278.99999999999994</ele><time>2026-04-26T09:41:36.001Z</time></trkpt><trkpt lat="43.16472103939339" lon="11.986566610595672"><ele>279.0</ele><time>2026-04-26T09:41:37Z</time></trkpt><trkpt lat="43.16465171896647" lon="11.986559429646462"><ele>279.2857142857143</ele><time>2026-04-26T09:41:38Z</time></trkpt><trkpt lat="43.16458390223149" lon="11.986557763636622"><ele>279.57142857142856</ele><time>2026-04-26T09:41:39Z</time></trkpt><trkpt lat="43.1645146959333" lon="11.98654852828761"><ele>279.8571428571429</ele><time>2026-04-26T09:41:40Z</time></trkpt><trkpt lat="43.16444347122285" lon="11.986535053794677"><ele>280.1428571428571</ele><time>2026-04-26T09:41:41Z</time></trkpt><trkpt lat="43.1643717536822" lon="11.986521605256426"><ele>280.42857142857144</ele><time>2026-04-26T09:41:42Z</time></trkpt><trkpt lat="43.16430297041708" lon="11.98650534794404"><ele>280.7142857142857</ele><time>2026-04-26T09:41:43Z</time></trkpt><trkpt lat="43.16423205852985" lon="11.986497925723953"><ele>281.0</ele><time>2026-04-26T09:41:44Z</time></trkpt><trkpt lat="43.16416291561597" lon="11.986484590547954"><ele>281.00000000000006</ele><time>2026-04-26T09:41:45Z</time></trkpt><trkpt lat="43.164094016017735" lon="11.986476077813169"><ele>281.0</ele><time>2026-04-26T09:41:46Z</time></trkpt><trkpt lat="43.164023079274536" lon="11.98646085857565"><ele>281.0</ele><time>2026-04-26T09:41:47Z</time></trkpt><trkpt lat="43.16395508379924" lon="11.986452074844662"><ele>281.0</ele><time>2026-04-26T09:41:48Z</time></trkpt><trkpt lat="43.16388583881542" lon="11.986443556415045"><ele>281.0</ele><time>2026-04-26T09:41:49Z</time></trkpt><trkpt lat="43.16381720263467" lon="11.986436311382736"><ele>281.00000000000006</ele><time>2026-04-26T09:41:50Z</time></trkpt><trkpt lat="43.16374597822126" lon="11.98642367901748"><ele>281.0</ele><time>2026-04-26T09:41:51Z</time></trkpt><trkpt lat="43.16367501822751" lon="11.986415840141609"><ele>281.14285714285717</ele><time>2026-04-26T09:41:52Z</time></trkpt><trkpt lat="43.16360458239506" lon="11.98640754065316"><ele>281.2857142857143</ele><time>2026-04-26T09:41:53Z</time></trkpt><trkpt lat="43.16353577324096" lon="11.986394064968474"><ele>281.42857142857144</ele><time>2026-04-26T09:41:54Z</time></trkpt><trkpt lat="43.16346707582575" lon="11.986387783553734"><ele>281.57142857142856</ele><time>2026-04-26T09:41:55Z</time></trkpt><trkpt lat="43.16339450121928" lon="11.98637294486057"><ele>281.7142857142857</ele><time>2026-04-26T09:41:56Z</time></trkpt><trkpt lat="43.163329346659395" lon="11.986366295596202"><ele>281.8571428571429</ele><time>2026-04-26T09:41:57Z</time></trkpt><trkpt lat="43.16325583660512" lon="11.986355626248185"><ele>282.0</ele><time>2026-04-26T09:41:58Z</time></trkpt><trkpt lat="43.16318608994808" lon="11.98634381177242"><ele>282.14285714285717</ele><time>2026-04-26T09:41:59Z</time></trkpt><trkpt lat="43.163116759099594" lon="11.986330972649137"><ele>282.2857142857143</ele><time>2026-04-26T09:42:00Z</time></trkpt><trkpt lat="43.16304418672966" lon="11.986323039722354"><ele>282.42857142857144</ele><time>2026-04-26T09:42:01Z</time></trkpt><trkpt lat="43.162973716246825" lon="11.986311737989533"><ele>282.57142857142856</ele><time>2026-04-26T09:42:02Z</time></trkpt><trkpt lat="43.162899631203565" lon="11.986295965433596"><ele>282.7142857142857</ele><time>2026-04-26T09:42:03Z</time></trkpt><trkpt lat="43.16282840939646" lon="11.986286706450784"><ele>282.8571428571429</ele><time>2026-04-26T09:42:04Z</time></trkpt><trkpt lat="43.16275291899999" lon="11.986273083084063"><ele>283.0</ele><time>2026-04-26T09:42:05Z</time></trkpt><trkpt lat="43.16267626906072" lon="11.986264659135376"><ele>283.0</ele><time>2026-04-26T09:42:06Z</time></trkpt><trkpt lat="43.162605123130135" lon="11.986251807326532"><ele>283.0</ele><time>2026-04-26T09:42:07Z</time></trkpt><trkpt lat="43.16253221374415" lon="11.986239286592472"><ele>283.0</ele><time>2026-04-26T09:42:08Z</time></trkpt><trkpt lat="43.162456548248755" lon="11.986228399964437"><ele>283.0</ele><time>2026-04-26T09:42:09Z</time></trkpt><trkpt lat="43.162383893658784" lon="11.986216676837635"><ele>283.0</ele><time>2026-04-26T09:42:10Z</time></trkpt><trkpt lat="43.162307146768725" lon="11.98620370077987"><ele>283.0</ele><time>2026-04-26T09:42:11Z</time></trkpt><trkpt lat="43.162232538592" lon="11.98619121651887"><ele>283.0</ele><time>2026-04-26T09:42:12Z</time></trkpt><trkpt lat="43.16215434273847" lon="11.986174359421938"><ele>283.0</ele><time>2026-04-26T09:42:13Z</time></trkpt><trkpt lat="43.16208062776187" lon="11.986161641730725"><ele>283.0</ele><time>2026-04-26T09:42:14Z</time></trkpt><trkpt lat="43.162008057734205" lon="11.98615419496081"><ele>283.0</ele><time>2026-04-26T09:42:15Z</time></trkpt><trkpt lat="43.161938373758474" lon="11.986147705531158"><ele>283.0</ele><time>2026-04-26T09:42:16Z</time></trkpt><trkpt lat="43.16187244485461" lon="11.986139536072946"><ele>283.0</ele><time>2026-04-26T09:42:17Z</time></trkpt><trkpt lat="43.16179534524591" lon="11.986125402316206"><ele>283.0</ele><time>2026-04-26T09:42:18Z</time></trkpt><trkpt lat="43.16171538530143" lon="11.986115721747046"><ele>283.0</ele><time>2026-04-26T09:42:19Z</time></trkpt><trkpt lat="43.161645058136195" lon="11.986110999282198"><ele>283.0</ele><time>2026-04-26T09:42:20Z</time></trkpt><trkpt lat="43.1615781645768" lon="11.986099212212363"><ele>283.0</ele><time>2026-04-26T09:42:21Z</time></trkpt><trkpt lat="43.16150691694448" lon="11.986094549399635"><ele>283.0</ele><time>2026-04-26T09:42:22Z</time></trkpt><trkpt lat="43.161432811471414" lon="11.986085188496563"><ele>283.0</ele><time>2026-04-26T09:42:23Z</time></trkpt><trkpt lat="43.16129498468649" lon="11.986064364403079"><ele>283.0</ele><time>2026-04-26T09:42:25Z</time></trkpt><trkpt lat="43.16122440893713" lon="11.98605499621749"><ele>283.0</ele><time>2026-04-26T09:42:26Z</time></trkpt><trkpt lat="43.16115503338237" lon="11.986046380486123"><ele>283.14285714285717</ele><time>2026-04-26T09:42:27Z</time></trkpt><trkpt lat="43.161084556956105" lon="11.986036781631233"><ele>283.28571428571433</ele><time>2026-04-26T09:42:28Z</time></trkpt><trkpt lat="43.16100768399381" lon="11.986033019306998"><ele>283.42857142857144</ele><time>2026-04-26T09:42:29Z</time></trkpt><trkpt lat="43.160937718749004" lon="11.98602358484239"><ele>283.57142857142856</ele><time>2026-04-26T09:42:30Z</time></trkpt><trkpt lat="43.160869201538624" lon="11.986018153851699"><ele>283.71428571428567</ele><time>2026-04-26T09:42:31Z</time></trkpt><trkpt lat="43.160798862403944" lon="11.986003000809117"><ele>283.85714285714283</ele><time>2026-04-26T09:42:32Z</time></trkpt><trkpt lat="43.160725966488805" lon="11.985998139446723"><ele>284.0</ele><time>2026-04-26T09:42:33Z</time></trkpt><trkpt lat="43.16064954703989" lon="11.985978662531583"><ele>284.1428571428571</ele><time>2026-04-26T09:42:34Z</time></trkpt><trkpt lat="43.16057401370985" lon="11.98596426640573"><ele>284.2857142857143</ele><time>2026-04-26T09:42:35Z</time></trkpt><trkpt lat="43.160501457305436" lon="11.985959629650178"><ele>284.42857142857144</ele><time>2026-04-26T09:42:36Z</time></trkpt><trkpt lat="43.16043757482078" lon="11.985951581728393"><ele>284.57142857142856</ele><time>2026-04-26T09:42:37Z</time></trkpt><trkpt lat="43.16037281046094" lon="11.985942251245278"><ele>284.7142857142857</ele><time>2026-04-26T09:42:38Z</time></trkpt><trkpt lat="43.16030331224041" lon="11.985930662138516"><ele>284.85714285714283</ele><time>2026-04-26T09:42:39Z</time></trkpt><trkpt lat="43.16022918231877" lon="11.98592137570487"><ele>285.0</ele><time>2026-04-26T09:42:40Z</time></trkpt><trkpt lat="43.16015604322825" lon="11.98590923587124"><ele>285.0</ele><time>2026-04-26T09:42:41Z</time></trkpt><trkpt lat="43.16008716931477" lon="11.985894943954522"><ele>285.0</ele><time>2026-04-26T09:42:42Z</time></trkpt><trkpt lat="43.160022065261174" lon="11.98588276653934"><ele>285.0</ele><time>2026-04-26T09:42:43Z</time></trkpt><trkpt lat="43.15995671640543" lon="11.98586940842813"><ele>285.0</ele><time>2026-04-26T09:42:44Z</time></trkpt><trkpt lat="43.159887756768754" lon="11.985860951679555"><ele>285.0</ele><time>2026-04-26T09:42:45Z</time></trkpt><trkpt lat="43.159812600518904" lon="11.985854951023402"><ele>285.0</ele><time>2026-04-26T09:42:46Z</time></trkpt><trkpt lat="43.15973726337485" lon="11.985847019601177"><ele>285.0</ele><time>2026-04-26T09:42:47Z</time></trkpt><trkpt lat="43.159658851835545" lon="11.985836951564174"><ele>285.5</ele><time>2026-04-26T09:42:48Z</time></trkpt><trkpt lat="43.159589528640325" lon="11.985827425869681"><ele>286.0</ele><time>2026-04-26T09:42:49Z</time></trkpt><trkpt lat="43.15951268369531" lon="11.98580753385657"><ele>286.5</ele><time>2026-04-26T09:42:50Z</time></trkpt><trkpt lat="43.15943786475248" lon="11.985795681681054"><ele>287.0</ele><time>2026-04-26T09:42:51Z</time></trkpt><trkpt lat="43.15935979394879" lon="11.985791022668868"><ele>287.5</ele><time>2026-04-26T09:42:52Z</time></trkpt><trkpt lat="43.15927937937628" lon="11.98577773640801"><ele>288.0</ele><time>2026-04-26T09:42:53Z</time></trkpt><trkpt lat="43.15920110736953" lon="11.985763497516006"><ele>288.0</ele><time>2026-04-26T09:42:54Z</time></trkpt><trkpt lat="43.15912067153356" lon="11.985745325931964"><ele>288.0</ele><time>2026-04-26T09:42:55Z</time></trkpt><trkpt lat="43.159043103558965" lon="11.985734608265764"><ele>288.0</ele><time>2026-04-26T09:42:56Z</time></trkpt><trkpt lat="43.158965945281686" lon="11.985724721948086"><ele>288.0</ele><time>2026-04-26T09:42:57Z</time></trkpt><trkpt lat="43.15888834956194" lon="11.985716922155135"><ele>288.0</ele><time>2026-04-26T09:42:58Z</time></trkpt><trkpt lat="43.15881179163632" lon="11.985702534890079"><ele>288.0</ele><time>2026-04-26T09:42:59Z</time></trkpt><trkpt lat="43.1587309207953" lon="11.985690614573395"><ele>288.1666666666667</ele><time>2026-04-26T09:43:00Z</time></trkpt><trkpt lat="43.158652049479905" lon="11.985677291966308"><ele>288.3333333333333</ele><time>2026-04-26T09:43:01Z</time></trkpt><trkpt lat="43.158570933634955" lon="11.985661233339929"><ele>288.5</ele><time>2026-04-26T09:43:02Z</time></trkpt><trkpt lat="43.158487501879144" lon="11.985650665499652"><ele>288.66666666666663</ele><time>2026-04-26T09:43:03Z</time></trkpt><trkpt lat="43.15840582003549" lon="11.985642671486767"><ele>288.8333333333333</ele><time>2026-04-26T09:43:04Z</time></trkpt><trkpt lat="43.15832322304182" lon="11.985629989068805"><ele>289.0</ele><time>2026-04-26T09:43:05Z</time></trkpt><trkpt lat="43.158240013107275" lon="11.98562070051518"><ele>288.66666666666663</ele><time>2026-04-26T09:43:06Z</time></trkpt><trkpt lat="43.15815974524151" lon="11.985608602329012"><ele>288.3333333333333</ele><time>2026-04-26T09:43:07Z</time></trkpt><trkpt lat="43.158079149519935" lon="11.985597828313729"><ele>288.0</ele><time>2026-04-26T09:43:08Z</time></trkpt><trkpt lat="43.15799328629311" lon="11.985582749279953"><ele>287.6666666666667</ele><time>2026-04-26T09:43:09Z</time></trkpt><trkpt lat="43.157907102838344" lon="11.985571542468442"><ele>287.33333333333337</ele><time>2026-04-26T09:43:10Z</time></trkpt><trkpt lat="43.15782395646871" lon="11.985568738443147"><ele>287.0</ele><time>2026-04-26T09:43:11Z</time></trkpt><trkpt lat="43.15774019606757" lon="11.985573977189315"><ele>287.0</ele><time>2026-04-26T09:43:12Z</time></trkpt><trkpt lat="43.157660913110426" lon="11.985578407074602"><ele>287.0</ele><time>2026-04-26T09:43:13Z</time></trkpt><trkpt lat="43.15758129001368" lon="11.98558295638059"><ele>287.0</ele><time>2026-04-26T09:43:14Z</time></trkpt><trkpt lat="43.15750583905876" lon="11.985595781511257"><ele>287.0</ele><time>2026-04-26T09:43:15Z</time></trkpt><trkpt lat="43.15743211010237" lon="11.985620163795591"><ele>287.0</ele><time>2026-04-26T09:43:16Z</time></trkpt><trkpt lat="43.15735885411433" lon="11.985639762591468"><ele>287.0</ele><time>2026-04-26T09:43:17Z</time></trkpt><trkpt lat="43.15728435863252" lon="11.985656274010111"><ele>286.1666666666667</ele><time>2026-04-26T09:43:18Z</time></trkpt><trkpt lat="43.157211728436046" lon="11.985679057294758"><ele>285.33333333333337</ele><time>2026-04-26T09:43:19Z</time></trkpt><trkpt lat="43.15714032180571" lon="11.985702682433383"><ele>284.5</ele><time>2026-04-26T09:43:20Z</time></trkpt><trkpt lat="43.15706650747024" lon="11.98572652464023"><ele>283.6666666666667</ele><time>2026-04-26T09:43:21Z</time></trkpt><trkpt lat="43.15699070583648" lon="11.985744791786592"><ele>282.8333333333333</ele><time>2026-04-26T09:43:22Z</time></trkpt><trkpt lat="43.15691495207752" lon="11.985764666681439"><ele>282.0</ele><time>2026-04-26T09:43:23Z</time></trkpt><trkpt lat="43.156836356570444" lon="11.985789077473534"><ele>282.0</ele><time>2026-04-26T09:43:24Z</time></trkpt><trkpt lat="43.15675794914704" lon="11.985812886282195"><ele>282.0</ele><time>2026-04-26T09:43:25.001Z</time></trkpt><trkpt lat="43.15667769491278" lon="11.985830490677719"><ele>282.0</ele><time>2026-04-26T09:43:26.001Z</time></trkpt><trkpt lat="43.15659711018029" lon="11.985847424608155"><ele>282.0</ele><time>2026-04-26T09:43:27.001Z</time></trkpt><trkpt lat="43.156519328311155" lon="11.98586328800289"><ele>282.0</ele><time>2026-04-26T09:43:28.001Z</time></trkpt><trkpt lat="43.15644276461829" lon="11.985885879429054"><ele>282.0</ele><time>2026-04-26T09:43:29.001Z</time></trkpt><trkpt lat="43.15636506381041" lon="11.985905579661024"><ele>281.7142857142857</ele><time>2026-04-26T09:43:30.001Z</time></trkpt><trkpt lat="43.15628520889249" lon="11.985922653766485"><ele>281.42857142857144</ele><time>2026-04-26T09:43:31.001Z</time></trkpt><trkpt lat="43.1562084290171" lon="11.985940643136278"><ele>281.1428571428571</ele><time>2026-04-26T09:43:32.001Z</time></trkpt><trkpt lat="43.15614184087335" lon="11.985959170267858"><ele>280.8571428571429</ele><time>2026-04-26T09:43:33.001Z</time></trkpt><trkpt lat="43.15607531686535" lon="11.985979124291923"><ele>280.57142857142856</ele><time>2026-04-26T09:43:34.001Z</time></trkpt><trkpt lat="43.15600804969275" lon="11.985998651328096"><ele>280.2857142857143</ele><time>2026-04-26T09:43:35.001Z</time></trkpt><trkpt lat="43.15594347760044" lon="11.986015475408387"><ele>280.0</ele><time>2026-04-26T09:43:36.001Z</time></trkpt><trkpt lat="43.155877987168594" lon="11.986032266822829"><ele>280.0</ele><time>2026-04-26T09:43:37.001Z</time></trkpt><trkpt lat="43.155815800400966" lon="11.98606925302175"><ele>280.0</ele><time>2026-04-26T09:43:38.001Z</time></trkpt><trkpt lat="43.155788792789735" lon="11.986150077042657"><ele>280.0</ele><time>2026-04-26T09:43:39.001Z</time></trkpt><trkpt lat="43.155756855663874" lon="11.986276380979845"><ele>280.0</ele><time>2026-04-26T09:43:41.001Z</time></trkpt><trkpt lat="43.1557476991583" lon="11.986442768835685"><ele>280.0</ele><time>2026-04-26T09:43:43.001Z</time></trkpt><trkpt lat="43.1557298395321" lon="11.986531529668104"><ele>280.0</ele><time>2026-04-26T09:43:44.001Z</time></trkpt><trkpt lat="43.15570897114972" lon="11.986624808140368"><ele>279.7142857142857</ele><time>2026-04-26T09:43:45.001Z</time></trkpt><trkpt lat="43.15568874878483" lon="11.986716198313859"><ele>279.42857142857144</ele><time>2026-04-26T09:43:46.001Z</time></trkpt><trkpt lat="43.15567334379532" lon="11.986806065507212"><ele>279.1428571428571</ele><time>2026-04-26T09:43:47.001Z</time></trkpt><trkpt lat="43.155657852468295" lon="11.98689524051884"><ele>278.8571428571429</ele><time>2026-04-26T09:43:48.001Z</time></trkpt><trkpt lat="43.15564124471331" lon="11.986986110766564"><ele>278.57142857142856</ele><time>2026-04-26T09:43:49.001Z</time></trkpt><trkpt lat="43.15562462015913" lon="11.987074640385783"><ele>278.2857142857143</ele><time>2026-04-26T09:43:50.001Z</time></trkpt><trkpt lat="43.155606952653" lon="11.987160642619376"><ele>278.0</ele><time>2026-04-26T09:43:51.001Z</time></trkpt><trkpt lat="43.155589671636186" lon="11.987249047335267"><ele>278.0</ele><time>2026-04-26T09:43:52.001Z</time></trkpt><trkpt lat="43.155569584463954" lon="11.987334357047038"><ele>278.0</ele><time>2026-04-26T09:43:53.001Z</time></trkpt><trkpt lat="43.15554897209329" lon="11.987419004067263"><ele>278.0</ele><time>2026-04-26T09:43:54.001Z</time></trkpt><trkpt lat="43.15551746242898" lon="11.98759336582667"><ele>278.0</ele><time>2026-04-26T09:43:56.001Z</time></trkpt><trkpt lat="43.155496675365676" lon="11.98768451984671"><ele>278.0</ele><time>2026-04-26T09:43:57.001Z</time></trkpt><trkpt lat="43.15547558054487" lon="11.987768069962563"><ele>278.0</ele><time>2026-04-26T09:43:58.001Z</time></trkpt><trkpt lat="43.15545359088568" lon="11.987850913780067"><ele>278.0</ele><time>2026-04-26T09:43:59.001Z</time></trkpt><trkpt lat="43.15542946318542" lon="11.98793637282574"><ele>278.0</ele><time>2026-04-26T09:44:00.001Z</time></trkpt><trkpt lat="43.155409680119575" lon="11.988021270925344"><ele>278.0</ele><time>2026-04-26T09:44:01Z</time></trkpt><trkpt lat="43.15537000879651" lon="11.988185185223358"><ele>278.0</ele><time>2026-04-26T09:44:03Z</time></trkpt><trkpt lat="43.15534634698317" lon="11.988266639387035"><ele>278.0</ele><time>2026-04-26T09:44:04Z</time></trkpt><trkpt lat="43.155321205199506" lon="11.98835230393485"><ele>278.0</ele><time>2026-04-26T09:44:05Z</time></trkpt><trkpt lat="43.155297368806025" lon="11.98843777794845"><ele>278.0</ele><time>2026-04-26T09:44:06Z</time></trkpt><trkpt lat="43.15527666631032" lon="11.988520727816852"><ele>278.0</ele><time>2026-04-26T09:44:07Z</time></trkpt><trkpt lat="43.155253970263686" lon="11.98860559058904"><ele>278.0</ele><time>2026-04-26T09:44:08Z</time></trkpt><trkpt lat="43.155229049672236" lon="11.988689598517615"><ele>278.0</ele><time>2026-04-26T09:44:09Z</time></trkpt><trkpt lat="43.155207083032685" lon="11.988773558592897"><ele>278.0</ele><time>2026-04-26T09:44:10Z</time></trkpt><trkpt lat="43.15518496725827" lon="11.988858699244402"><ele>278.0</ele><time>2026-04-26T09:44:11Z</time></trkpt><trkpt lat="43.155158708982164" lon="11.98894159568155"><ele>278.0</ele><time>2026-04-26T09:44:12Z</time></trkpt><trkpt lat="43.15513635417231" lon="11.989025450211948"><ele>278.0</ele><time>2026-04-26T09:44:13Z</time></trkpt><trkpt lat="43.15511554061162" lon="11.989111999782065"><ele>278.0</ele><time>2026-04-26T09:44:14Z</time></trkpt><trkpt lat="43.155095491098066" lon="11.989197518202719"><ele>278.0</ele><time>2026-04-26T09:44:15Z</time></trkpt><trkpt lat="43.15507404172259" lon="11.989285243030444"><ele>278.0</ele><time>2026-04-26T09:44:16Z</time></trkpt><trkpt lat="43.15504897781201" lon="11.989375184187736"><ele>278.0</ele><time>2026-04-26T09:44:17Z</time></trkpt><trkpt lat="43.155021518725626" lon="11.989463803080032"><ele>278.0</ele><time>2026-04-26T09:44:17.999Z</time></trkpt><trkpt lat="43.15500127477323" lon="11.989551458385566"><ele>278.0</ele><time>2026-04-26T09:44:18.999Z</time></trkpt><trkpt lat="43.154965633000465" lon="11.989708250615763"><ele>277.85714285714283</ele><time>2026-04-26T09:44:20.999Z</time></trkpt><trkpt lat="43.15493262321817" lon="11.989784147949997"><ele>277.7142857142857</ele><time>2026-04-26T09:44:21.999Z</time></trkpt><trkpt lat="43.15491648155135" lon="11.989877662910892"><ele>277.57142857142856</ele><time>2026-04-26T09:44:22.999Z</time></trkpt><trkpt lat="43.15488840256798" lon="11.98997284687508"><ele>277.42857142857144</ele><time>2026-04-26T09:44:23.999Z</time></trkpt><trkpt lat="43.15485846770694" lon="11.990067504751197"><ele>277.2857142857143</ele><time>2026-04-26T09:44:24.999Z</time></trkpt><trkpt lat="43.15483205916707" lon="11.99016784534124"><ele>277.1428571428571</ele><time>2026-04-26T09:44:25.999Z</time></trkpt><trkpt lat="43.154803318148964" lon="11.990268330387465"><ele>277.0</ele><time>2026-04-26T09:44:26.999Z</time></trkpt><trkpt lat="43.154780134643126" lon="11.990360626364598"><ele>276.8333333333333</ele><time>2026-04-26T09:44:27.999Z</time></trkpt><trkpt lat="43.15475629695671" lon="11.99045283355286"><ele>276.66666666666663</ele><time>2026-04-26T09:44:28.999Z</time></trkpt><trkpt lat="43.15470924888233" lon="11.990642381644484"><ele>276.5</ele><time>2026-04-26T09:44:30.999Z</time></trkpt><trkpt lat="43.15468697923468" lon="11.990737282978372"><ele>276.3333333333333</ele><time>2026-04-26T09:44:31.999Z</time></trkpt><trkpt lat="43.154661853243326" lon="11.99082578276978"><ele>276.1666666666667</ele><time>2026-04-26T09:44:32.999Z</time></trkpt><trkpt lat="43.15463791276219" lon="11.990914266888272"><ele>276.0</ele><time>2026-04-26T09:44:33.999Z</time></trkpt><trkpt lat="43.15461649894438" lon="11.991006591004808"><ele>276.0</ele><time>2026-04-26T09:44:34.999Z</time></trkpt><trkpt lat="43.15459094642961" lon="11.991095174959618"><ele>276.0</ele><time>2026-04-26T09:44:35.999Z</time></trkpt><trkpt lat="43.154572942832495" lon="11.991183043277845"><ele>276.0</ele><time>2026-04-26T09:44:36.999Z</time></trkpt><trkpt lat="43.15455187492704" lon="11.99126999168063"><ele>276.0</ele><time>2026-04-26T09:44:37.999Z</time></trkpt><trkpt lat="43.15453072453879" lon="11.991358113467182"><ele>276.0</ele><time>2026-04-26T09:44:38.999Z</time></trkpt><trkpt lat="43.1545057667931" lon="11.99144348720449"><ele>276.0</ele><time>2026-04-26T09:44:39.999Z</time></trkpt><trkpt lat="43.154476246630445" lon="11.991532999797542"><ele>276.0</ele><time>2026-04-26T09:44:40.999Z</time></trkpt><trkpt lat="43.15445037805073" lon="11.991627627375092"><ele>275.8333333333333</ele><time>2026-04-26T09:44:41.999Z</time></trkpt><trkpt lat="43.15442745084377" lon="11.991723997557381"><ele>275.6666666666667</ele><time>2026-04-26T09:44:42.999Z</time></trkpt><trkpt lat="43.15440378304124" lon="11.9918241189565"><ele>275.5</ele><time>2026-04-26T09:44:43.999Z</time></trkpt><trkpt lat="43.15437591112452" lon="11.991927809610146"><ele>275.33333333333337</ele><time>2026-04-26T09:44:44.999Z</time></trkpt><trkpt lat="43.15434510901726" lon="11.9920314702274"><ele>275.1666666666667</ele><time>2026-04-26T09:44:45.999Z</time></trkpt><trkpt lat="43.15431822127173" lon="11.992131133323216"><ele>275.0</ele><time>2026-04-26T09:44:46.999Z</time></trkpt><trkpt lat="43.15429433138651" lon="11.99223168926709"><ele>275.0</ele><time>2026-04-26T09:44:47.999Z</time></trkpt><trkpt lat="43.15426947643845" lon="11.992329318421364"><ele>275.0</ele><time>2026-04-26T09:44:48.999Z</time></trkpt><trkpt lat="43.154245654746546" lon="11.992426778529508"><ele>275.0</ele><time>2026-04-26T09:44:49.999Z</time></trkpt><trkpt lat="43.154219135483764" lon="11.992524323121113"><ele>275.0</ele><time>2026-04-26T09:44:50.999Z</time></trkpt><trkpt lat="43.15419183077888" lon="11.992616857929503"><ele>275.0</ele><time>2026-04-26T09:44:51.999Z</time></trkpt><trkpt lat="43.15416463962418" lon="11.992705776481175"><ele>275.0</ele><time>2026-04-26T09:44:52.999Z</time></trkpt><trkpt lat="43.15414059132057" lon="11.992795728893084"><ele>275.0</ele><time>2026-04-26T09:44:53.999Z</time></trkpt><trkpt lat="43.15412010885821" lon="11.992895486685118"><ele>275.0</ele><time>2026-04-26T09:44:54.999Z</time></trkpt><trkpt lat="43.15409962400043" lon="11.992980795128236"><ele>275.0</ele><time>2026-04-26T09:44:55.999Z</time></trkpt><trkpt lat="43.1540808477465" lon="11.993067663298975"><ele>275.0</ele><time>2026-04-26T09:44:56.999Z</time></trkpt><trkpt lat="43.154056016740604" lon="11.993159891411223"><ele>275.0</ele><time>2026-04-26T09:44:57.999Z</time></trkpt><trkpt lat="43.154031619152036" lon="11.99325166106559"><ele>275.0</ele><time>2026-04-26T09:44:58.999Z</time></trkpt><trkpt lat="43.154001827930486" lon="11.993338797895607"><ele>275.0</ele><time>2026-04-26T09:44:59.999Z</time></trkpt><trkpt lat="43.153972735464166" lon="11.993433094422635"><ele>275.0</ele><time>2026-04-26T09:45:00.999Z</time></trkpt><trkpt lat="43.15394893266443" lon="11.993530185713501"><ele>274.6666666666667</ele><time>2026-04-26T09:45:01.999Z</time></trkpt><trkpt lat="43.15392511237706" lon="11.993627089812948"><ele>274.33333333333337</ele><time>2026-04-26T09:45:02.999Z</time></trkpt><trkpt lat="43.15390096303711" lon="11.993724528747062"><ele>274.0</ele><time>2026-04-26T09:45:03.999Z</time></trkpt><trkpt lat="43.15387397293319" lon="11.993822171349965"><ele>273.6666666666667</ele><time>2026-04-26T09:45:04.999Z</time></trkpt><trkpt lat="43.153845609531636" lon="11.993919986283622"><ele>273.3333333333333</ele><time>2026-04-26T09:45:05.999Z</time></trkpt><trkpt lat="43.1538197065545" lon="11.9940163828234"><ele>273.0</ele><time>2026-04-26T09:45:06.999Z</time></trkpt><trkpt lat="43.15379372052507" lon="11.994116570740216"><ele>273.0</ele><time>2026-04-26T09:45:07.999Z</time></trkpt><trkpt lat="43.15376624652129" lon="11.994215320831755"><ele>273.0</ele><time>2026-04-26T09:45:08.999Z</time></trkpt><trkpt lat="43.15373836845755" lon="11.994311840726713"><ele>273.0</ele><time>2026-04-26T09:45:09.999Z</time></trkpt><trkpt lat="43.153712264175944" lon="11.99440789334845"><ele>273.0</ele><time>2026-04-26T09:45:10.999Z</time></trkpt><trkpt lat="43.15369455293416" lon="11.994504541056209"><ele>273.0</ele><time>2026-04-26T09:45:11.999Z</time></trkpt><trkpt lat="43.153666921330206" lon="11.99459360817447"><ele>273.0</ele><time>2026-04-26T09:45:12.999Z</time></trkpt><trkpt lat="43.15364661770404" lon="11.994684569190728"><ele>273.0</ele><time>2026-04-26T09:45:13.999Z</time></trkpt><trkpt lat="43.15362507048521" lon="11.994773519327007"><ele>273.0</ele><time>2026-04-26T09:45:14.999Z</time></trkpt><trkpt lat="43.15359966919287" lon="11.99486603455919"><ele>273.0</ele><time>2026-04-26T09:45:15.999Z</time></trkpt><trkpt lat="43.15357613281633" lon="11.99496039392433"><ele>273.0</ele><time>2026-04-26T09:45:16.999Z</time></trkpt><trkpt lat="43.15354632645572" lon="11.99505375037452"><ele>273.0</ele><time>2026-04-26T09:45:17.999Z</time></trkpt><trkpt lat="43.153519479317026" lon="11.995148870239671"><ele>273.0</ele><time>2026-04-26T09:45:18.999Z</time></trkpt><trkpt lat="43.15349412883182" lon="11.995245338680967"><ele>273.0</ele><time>2026-04-26T09:45:19.999Z</time></trkpt><trkpt lat="43.15346625262646" lon="11.995338627630804"><ele>273.0</ele><time>2026-04-26T09:45:20.999Z</time></trkpt><trkpt lat="43.15343895767368" lon="11.995438182826652"><ele>273.1666666666667</ele><time>2026-04-26T09:45:21.999Z</time></trkpt><trkpt lat="43.15340981863002" lon="11.995536367745913"><ele>273.3333333333333</ele><time>2026-04-26T09:45:22.999Z</time></trkpt><trkpt lat="43.15337581433406" lon="11.995634589399357"><ele>273.5</ele><time>2026-04-26T09:45:23.999Z</time></trkpt><trkpt lat="43.15334047002679" lon="11.99573192653405"><ele>273.66666666666663</ele><time>2026-04-26T09:45:24.999Z</time></trkpt><trkpt lat="43.153308923465886" lon="11.995823649341522"><ele>273.8333333333333</ele><time>2026-04-26T09:45:25.999Z</time></trkpt><trkpt lat="43.153282964568" lon="11.99591378237106"><ele>274.0</ele><time>2026-04-26T09:45:26.999Z</time></trkpt><trkpt lat="43.15324403985158" lon="11.995998092823264"><ele>274.5</ele><time>2026-04-26T09:45:27.999Z</time></trkpt><trkpt lat="43.1532097817798" lon="11.996087620198598"><ele>275.0</ele><time>2026-04-26T09:45:28.999Z</time></trkpt><trkpt lat="43.15317739552959" lon="11.996180156833113"><ele>275.5</ele><time>2026-04-26T09:45:29.999Z</time></trkpt><trkpt lat="43.15314177630022" lon="11.996275037506486"><ele>276.0</ele><time>2026-04-26T09:45:31Z</time></trkpt><trkpt lat="43.15311505228155" lon="11.996377199123872"><ele>276.5</ele><time>2026-04-26T09:45:32Z</time></trkpt><trkpt lat="43.15307470098887" lon="11.996473678385842"><ele>277.0</ele><time>2026-04-26T09:45:33Z</time></trkpt><trkpt lat="43.15303468886409" lon="11.996572491361924"><ele>277.0</ele><time>2026-04-26T09:45:34Z</time></trkpt><trkpt lat="43.15299925717033" lon="11.996665991370495"><ele>277.0</ele><time>2026-04-26T09:45:35Z</time></trkpt><trkpt lat="43.15296909695164" lon="11.996747203211976"><ele>277.0</ele><time>2026-04-26T09:45:36Z</time></trkpt><trkpt lat="43.15293617637" lon="11.996837227670355"><ele>277.0</ele><time>2026-04-26T09:45:37Z</time></trkpt><trkpt lat="43.15290004456598" lon="11.996928493960471"><ele>277.0</ele><time>2026-04-26T09:45:38Z</time></trkpt><trkpt lat="43.15286400967055" lon="11.997021336682973"><ele>277.0</ele><time>2026-04-26T09:45:39Z</time></trkpt><trkpt lat="43.15282923369143" lon="11.997110723877018"><ele>277.0</ele><time>2026-04-26T09:45:40Z</time></trkpt><trkpt lat="43.15279383205137" lon="11.99719729699671"><ele>277.1428571428571</ele><time>2026-04-26T09:45:41Z</time></trkpt><trkpt lat="43.15275771771693" lon="11.997283881738282"><ele>277.2857142857143</ele><time>2026-04-26T09:45:42Z</time></trkpt><trkpt lat="43.152716376005635" lon="11.997362712230693"><ele>277.42857142857144</ele><time>2026-04-26T09:45:43Z</time></trkpt><trkpt lat="43.152672140130846" lon="11.997436768014099"><ele>277.57142857142856</ele><time>2026-04-26T09:45:44Z</time></trkpt><trkpt lat="43.15262313426808" lon="11.997509581221356"><ele>277.7142857142857</ele><time>2026-04-26T09:45:45Z</time></trkpt><trkpt lat="43.15257287186525" lon="11.997579071523367"><ele>277.85714285714283</ele><time>2026-04-26T09:45:46Z</time></trkpt><trkpt lat="43.15252421581429" lon="11.997645843580075"><ele>278.0</ele><time>2026-04-26T09:45:47Z</time></trkpt><trkpt lat="43.15247635354377" lon="11.99771480397778"><ele>278.0</ele><time>2026-04-26T09:45:48Z</time></trkpt><trkpt lat="43.152428849927794" lon="11.997777533950305"><ele>278.0</ele><time>2026-04-26T09:45:49Z</time></trkpt><trkpt lat="43.152383285650714" lon="11.99784278145478"><ele>278.0</ele><time>2026-04-26T09:45:50Z</time></trkpt><trkpt lat="43.15233765244661" lon="11.997908164081059"><ele>278.0</ele><time>2026-04-26T09:45:51Z</time></trkpt><trkpt lat="43.15228947414977" lon="11.997972943336316"><ele>278.0</ele><time>2026-04-26T09:45:52Z</time></trkpt><trkpt lat="43.15224112046005" lon="11.99803479455879"><ele>278.0</ele><time>2026-04-26T09:45:53Z</time></trkpt><trkpt lat="43.15219522307377" lon="11.998096314146379"><ele>278.0</ele><time>2026-04-26T09:45:54Z</time></trkpt><trkpt lat="43.15214551938388" lon="11.998155055407155"><ele>277.7142857142857</ele><time>2026-04-26T09:45:55Z</time></trkpt><trkpt lat="43.15209320354725" lon="11.998212418567961"><ele>277.42857142857144</ele><time>2026-04-26T09:45:56Z</time></trkpt><trkpt lat="43.15204760637198" lon="11.998280988093637"><ele>277.14285714285717</ele><time>2026-04-26T09:45:57Z</time></trkpt><trkpt lat="43.15199977410415" lon="11.998345450769117"><ele>276.8571428571429</ele><time>2026-04-26T09:45:58Z</time></trkpt><trkpt lat="43.151951311666714" lon="11.998413803145361"><ele>276.5714285714286</ele><time>2026-04-26T09:45:59Z</time></trkpt><trkpt lat="43.15189842425264" lon="11.998475815012847"><ele>276.2857142857143</ele><time>2026-04-26T09:46:00Z</time></trkpt><trkpt lat="43.1518468121283" lon="11.998537293691191"><ele>276.0</ele><time>2026-04-26T09:46:01Z</time></trkpt><trkpt lat="43.151804549420255" lon="11.998606632449732"><ele>276.0</ele><time>2026-04-26T09:46:02Z</time></trkpt><trkpt lat="43.15175403689603" lon="11.998668986248031"><ele>276.0</ele><time>2026-04-26T09:46:03Z</time></trkpt><trkpt lat="43.151703671820755" lon="11.998735350995904"><ele>276.0</ele><time>2026-04-26T09:46:04Z</time></trkpt><trkpt lat="43.15165522543811" lon="11.998799209852336"><ele>276.0</ele><time>2026-04-26T09:46:05Z</time></trkpt><trkpt lat="43.151605428232095" lon="11.998863693324925"><ele>276.0</ele><time>2026-04-26T09:46:06Z</time></trkpt><trkpt lat="43.15155742307243" lon="11.998929218578976"><ele>276.0</ele><time>2026-04-26T09:46:07Z</time></trkpt><trkpt lat="43.151509420008175" lon="11.998993463930121"><ele>276.0</ele><time>2026-04-26T09:46:08Z</time></trkpt><trkpt lat="43.151459674594456" lon="11.999059652471988"><ele>276.0</ele><time>2026-04-26T09:46:09Z</time></trkpt><trkpt lat="43.15141423823886" lon="11.99913034212501"><ele>276.0</ele><time>2026-04-26T09:46:10Z</time></trkpt><trkpt lat="43.15136879269766" lon="11.999203839030644"><ele>276.0</ele><time>2026-04-26T09:46:10.999Z</time></trkpt><trkpt lat="43.15131542220839" lon="11.999263872411873"><ele>276.0</ele><time>2026-04-26T09:46:11.999Z</time></trkpt><trkpt lat="43.151261895982266" lon="11.999325136682893"><ele>276.0</ele><time>2026-04-26T09:46:12.999Z</time></trkpt><trkpt lat="43.151209953806" lon="11.999393669305798"><ele>276.0</ele><time>2026-04-26T09:46:13.999Z</time></trkpt><trkpt lat="43.15116579904967" lon="11.999460370076468"><ele>276.0</ele><time>2026-04-26T09:46:14.999Z</time></trkpt><trkpt lat="43.15112371906917" lon="11.999528254687492"><ele>276.14285714285717</ele><time>2026-04-26T09:46:15.999Z</time></trkpt><trkpt lat="43.151071637419506" lon="11.999588908775658"><ele>276.28571428571433</ele><time>2026-04-26T09:46:16.999Z</time></trkpt><trkpt lat="43.1510255726234" lon="11.999651717427508"><ele>276.42857142857144</ele><time>2026-04-26T09:46:17.999Z</time></trkpt><trkpt lat="43.15097780994609" lon="11.999713770631205"><ele>276.57142857142856</ele><time>2026-04-26T09:46:18.999Z</time></trkpt><trkpt lat="43.150924777762754" lon="11.999781062276192"><ele>276.71428571428567</ele><time>2026-04-26T09:46:19.999Z</time></trkpt><trkpt lat="43.15086712247309" lon="11.999836173121906"><ele>276.85714285714283</ele><time>2026-04-26T09:46:20.999Z</time></trkpt><trkpt lat="43.150806524556394" lon="11.999884715876469"><ele>277.0</ele><time>2026-04-26T09:46:21.999Z</time></trkpt><trkpt lat="43.150742842297284" lon="11.999928640544631"><ele>277.0</ele><time>2026-04-26T09:46:22.999Z</time></trkpt><trkpt lat="43.15067908870666" lon="11.999971021785731"><ele>277.0</ele><time>2026-04-26T09:46:23.999Z</time></trkpt><trkpt lat="43.15061491266325" lon="12.000004252527376"><ele>277.0</ele><time>2026-04-26T09:46:24.999Z</time></trkpt><trkpt lat="43.15054284925813" lon="12.000030025921303"><ele>277.0</ele><time>2026-04-26T09:46:25.999Z</time></trkpt><trkpt lat="43.15047744127195" lon="12.00005858528318"><ele>277.0</ele><time>2026-04-26T09:46:26.999Z</time></trkpt><trkpt lat="43.15036164717445" lon="12.00010953569839"><ele>277.0</ele><time>2026-04-26T09:46:28.999Z</time></trkpt><trkpt lat="43.15023421069668" lon="12.000158987964028"><ele>277.0</ele><time>2026-04-26T09:46:30.999Z</time></trkpt><trkpt lat="43.15012811992678" lon="12.000201665831632"><ele>277.0</ele><time>2026-04-26T09:46:32.999Z</time></trkpt><trkpt lat="43.15001550440815" lon="12.00024571378303"><ele>277.0</ele><time>2026-04-26T09:46:34.999Z</time></trkpt><trkpt lat="43.14994060200884" lon="12.00027274359838"><ele>277.0</ele><time>2026-04-26T09:46:36.999Z</time></trkpt><trkpt lat="43.15001254487527" lon="12.000320867851242"><ele>277.0</ele><time>2026-04-26T09:46:40.999Z</time></trkpt><trkpt lat="43.15010927700632" lon="12.000271118530623"><ele>277.0</ele><time>2026-04-26T09:46:42.999Z</time></trkpt><trkpt lat="43.15019507871722" lon="12.000207119486697"><ele>277.0</ele><time>2026-04-26T09:46:44.999Z</time></trkpt><trkpt lat="43.15027928734573" lon="12.000193040748387"><ele>277.0</ele><time>2026-04-26T09:46:46.999Z</time></trkpt><trkpt lat="43.15037032395184" lon="12.000262732043883"><ele>277.0</ele><time>2026-04-26T09:46:48.999Z</time></trkpt><trkpt lat="43.150455549482494" lon="12.000339633302486"><ele>277.0</ele><time>2026-04-26T09:46:50.999Z</time></trkpt><trkpt lat="43.15050215726877" lon="12.000419274795481"><ele>277.0</ele><time>2026-04-26T09:46:53.999Z</time></trkpt><trkpt lat="43.15043605523597" lon="12.000498400615252"><ele>277.0</ele><time>2026-04-26T09:46:56.999Z</time></trkpt><trkpt lat="43.150341507721926" lon="12.000598525969728"><ele>277.0</ele><time>2026-04-26T09:46:58.999Z</time></trkpt><trkpt lat="43.15029561854015" lon="12.000657605340301"><ele>277.0</ele><time>2026-04-26T09:46:59.999Z</time></trkpt><trkpt lat="43.15024889630855" lon="12.000717189550414"><ele>277.0</ele><time>2026-04-26T09:47:00.999Z</time></trkpt><trkpt lat="43.15019470795302" lon="12.000775104390618"><ele>277.0</ele><time>2026-04-26T09:47:01.999Z</time></trkpt><trkpt lat="43.150139588892834" lon="12.000831395815743"><ele>277.16666666666663</ele><time>2026-04-26T09:47:02.999Z</time></trkpt><trkpt lat="43.15008527203246" lon="12.000884800588697"><ele>277.3333333333333</ele><time>2026-04-26T09:47:03.999Z</time></trkpt><trkpt lat="43.15002927217635" lon="12.000939657156827"><ele>277.5</ele><time>2026-04-26T09:47:04.999Z</time></trkpt><trkpt lat="43.149980029573506" lon="12.000993527585402"><ele>277.6666666666667</ele><time>2026-04-26T09:47:05.999Z</time></trkpt><trkpt lat="43.14987985597057" lon="12.001103926236153"><ele>277.83333333333337</ele><time>2026-04-26T09:47:07.999Z</time></trkpt><trkpt lat="43.14983306219508" lon="12.001161695299775"><ele>278.0</ele><time>2026-04-26T09:47:08.999Z</time></trkpt><trkpt lat="43.149783764353124" lon="12.001218292292055"><ele>278.0</ele><time>2026-04-26T09:47:09.999Z</time></trkpt><trkpt lat="43.149730712672536" lon="12.00127822901386"><ele>278.0</ele><time>2026-04-26T09:47:10.999Z</time></trkpt><trkpt lat="43.14967608340368" lon="12.001336426758337"><ele>278.0</ele><time>2026-04-26T09:47:11.999Z</time></trkpt><trkpt lat="43.14961082490448" lon="12.00136089977147"><ele>278.0</ele><time>2026-04-26T09:47:12.999Z</time></trkpt><trkpt lat="43.149552733905274" lon="12.00140318603444"><ele>278.0</ele><time>2026-04-26T09:47:13.999Z</time></trkpt><trkpt lat="43.14949644437556" lon="12.001444161058155"><ele>278.0</ele><time>2026-04-26T09:47:14.999Z</time></trkpt><trkpt lat="43.14943501353269" lon="12.00142136179414"><ele>278.0</ele><time>2026-04-26T09:47:15.999Z</time></trkpt><trkpt lat="43.14937435679893" lon="12.001447154246303"><ele>278.5</ele><time>2026-04-26T09:47:16.999Z</time></trkpt><trkpt lat="43.14930335629701" lon="12.001714015740736"><ele>279.0</ele><time>2026-04-26T09:47:18.999Z</time></trkpt><trkpt lat="43.14925214162552" lon="12.001773221048392"><ele>279.5</ele><time>2026-04-26T09:47:19.999Z</time></trkpt><trkpt lat="43.149154157211946" lon="12.001882750723425"><ele>280.0</ele><time>2026-04-26T09:47:21.999Z</time></trkpt><trkpt lat="43.14910383723538" lon="12.001935942272176"><ele>279.5</ele><time>2026-04-26T09:47:22.999Z</time></trkpt><trkpt lat="43.14900439082262" lon="12.002042798070688"><ele>279.0</ele><time>2026-04-26T09:47:24.999Z</time></trkpt><trkpt lat="43.14890475466755" lon="12.002148277976223"><ele>278.5</ele><time>2026-04-26T09:47:26.999Z</time></trkpt><trkpt lat="43.14881550189002" lon="12.002250479352202"><ele>278.0</ele><time>2026-04-26T09:47:28.999Z</time></trkpt><trkpt lat="43.14873089082234" lon="12.002343793551516"><ele>278.0</ele><time>2026-04-26T09:47:30.999Z</time></trkpt><trkpt lat="43.14868533699769" lon="12.002404776061525"><ele>278.0</ele><time>2026-04-26T09:47:31.999Z</time></trkpt><trkpt lat="43.1486063052643" lon="12.002504257485144"><ele>278.0</ele><time>2026-04-26T09:47:33.999Z</time></trkpt><trkpt lat="43.14852465232302" lon="12.002594050378917"><ele>278.0</ele><time>2026-04-26T09:47:35.999Z</time></trkpt><trkpt lat="43.14844351337648" lon="12.002688813567854"><ele>278.0</ele><time>2026-04-26T09:47:38Z</time></trkpt><trkpt lat="43.14836292961947" lon="12.002792341487021"><ele>278.2</ele><time>2026-04-26T09:47:40Z</time></trkpt><trkpt lat="43.14828395628426" lon="12.002883464168004"><ele>278.4</ele><time>2026-04-26T09:47:42Z</time></trkpt><trkpt lat="43.148221835522996" lon="12.002990068756676"><ele>278.59999999999997</ele><time>2026-04-26T09:47:44Z</time></trkpt><trkpt lat="43.14814335765836" lon="12.003080442255806"><ele>278.8</ele><time>2026-04-26T09:47:46Z</time></trkpt><trkpt lat="43.148067481790044" lon="12.003175690046849"><ele>279.0</ele><time>2026-04-26T09:47:48Z</time></trkpt><trkpt lat="43.147986382944296" lon="12.003271321044258"><ele>279.4</ele><time>2026-04-26T09:47:50Z</time></trkpt><trkpt lat="43.14790489936003" lon="12.003373533617356"><ele>279.79999999999995</ele><time>2026-04-26T09:47:52Z</time></trkpt><trkpt lat="43.147854907769364" lon="12.003433610057364"><ele>280.20000000000005</ele><time>2026-04-26T09:47:53Z</time></trkpt><trkpt lat="43.14777005305893" lon="12.003528002269526"><ele>280.6</ele><time>2026-04-26T09:47:55Z</time></trkpt><trkpt lat="43.14768268993042" lon="12.003633363973117"><ele>281.0</ele><time>2026-04-26T09:47:56.999Z</time></trkpt><trkpt lat="43.14759463213431" lon="12.003738773868287"><ele>281.0</ele><time>2026-04-26T09:47:58.999Z</time></trkpt><trkpt lat="43.147507070405965" lon="12.003837651142105"><ele>281.0</ele><time>2026-04-26T09:48:00.999Z</time></trkpt><trkpt lat="43.14741932328998" lon="12.003936532911267"><ele>281.0</ele><time>2026-04-26T09:48:02.999Z</time></trkpt><trkpt lat="43.147361057621936" lon="12.003976494915625"><ele>281.0</ele><time>2026-04-26T09:48:03.999Z</time></trkpt><trkpt lat="43.14726891767385" lon="12.004088770044374"><ele>281.0</ele><time>2026-04-26T09:48:05.999Z</time></trkpt><trkpt lat="43.14720160337585" lon="12.004200715229087"><ele>281.0</ele><time>2026-04-26T09:48:07.999Z</time></trkpt><trkpt lat="43.14714613390546" lon="12.004319304078896"><ele>281.0</ele><time>2026-04-26T09:48:09.999Z</time></trkpt><trkpt lat="43.14707440060897" lon="12.004467461280854"><ele>281.0</ele><time>2026-04-26T09:48:12.999Z</time></trkpt><trkpt lat="43.147024886071435" lon="12.00461748992226"><ele>281.0</ele><time>2026-04-26T09:48:14.999Z</time></trkpt><trkpt lat="43.14696311122916" lon="12.004726849343005"><ele>281.0</ele><time>2026-04-26T09:48:16.999Z</time></trkpt><trkpt lat="43.146886000109866" lon="12.00482732176453"><ele>281.0</ele><time>2026-04-26T09:48:18.999Z</time></trkpt><trkpt lat="43.146809890016016" lon="12.004939647262992"><ele>281.0</ele><time>2026-04-26T09:48:20.999Z</time></trkpt><trkpt lat="43.14673946463984" lon="12.00503779141903"><ele>281.0</ele><time>2026-04-26T09:48:22.999Z</time></trkpt><trkpt lat="43.14667805599575" lon="12.00516074108511"><ele>281.0</ele><time>2026-04-26T09:48:24.999Z</time></trkpt><trkpt lat="43.14661870226128" lon="12.00529673310264"><ele>281.0</ele><time>2026-04-26T09:48:26.999Z</time></trkpt><trkpt lat="43.14655879347109" lon="12.00544769897578"><ele>281.0</ele><time>2026-04-26T09:48:28.999Z</time></trkpt><trkpt lat="43.14650813812494" lon="12.005599742498395"><ele>281.0</ele><time>2026-04-26T09:48:30.999Z</time></trkpt><trkpt lat="43.14644350595182" lon="12.005752005985775"><ele>281.0</ele><time>2026-04-26T09:48:32.999Z</time></trkpt><trkpt lat="43.146406061718054" lon="12.005829566270732"><ele>281.0</ele><time>2026-04-26T09:48:33.999Z</time></trkpt><trkpt lat="43.14635495455808" lon="12.005893760569446"><ele>282.0</ele><time>2026-04-26T09:48:34.999Z</time></trkpt><trkpt lat="43.14628222020455" lon="12.006018312335055"><ele>283.0</ele><time>2026-04-26T09:48:36.999Z</time></trkpt><trkpt lat="43.14620822935866" lon="12.006150347461118"><ele>284.0</ele><time>2026-04-26T09:48:38.999Z</time></trkpt><trkpt lat="43.14614100052229" lon="12.006270270506205"><ele>285.0</ele><time>2026-04-26T09:48:40.999Z</time></trkpt><trkpt lat="43.14606933971963" lon="12.006393397072445"><ele>285.0</ele><time>2026-04-26T09:48:42.999Z</time></trkpt><trkpt lat="43.14600346668136" lon="12.00651178852511"><ele>285.0</ele><time>2026-04-26T09:48:44.999Z</time></trkpt><trkpt lat="43.14592855439879" lon="12.006634739564419"><ele>285.0</ele><time>2026-04-26T09:48:46.999Z</time></trkpt><trkpt lat="43.14585661421782" lon="12.00677347192926"><ele>285.0</ele><time>2026-04-26T09:48:48.999Z</time></trkpt><trkpt lat="43.145806776825225" lon="12.006918219802024"><ele>284.0</ele><time>2026-04-26T09:48:50.999Z</time></trkpt><trkpt lat="43.145716641214285" lon="12.00702897417096"><ele>283.0</ele><time>2026-04-26T09:48:52.999Z</time></trkpt><trkpt lat="43.14565923055427" lon="12.007144724771068"><ele>282.0</ele><time>2026-04-26T09:48:54.999Z</time></trkpt><trkpt lat="43.14561446129853" lon="12.007234785950851"><ele>281.0</ele><time>2026-04-26T09:48:56.999Z</time></trkpt><trkpt lat="43.14556661102915" lon="12.00733145035071"><ele>280.0</ele><time>2026-04-26T09:48:59.999Z</time></trkpt><trkpt lat="43.14550154361989" lon="12.007498465932946"><ele>279.6</ele><time>2026-04-26T09:49:01.999Z</time></trkpt><trkpt lat="43.14545453656704" lon="12.007595145274363"><ele>279.2</ele><time>2026-04-26T09:49:03.999Z</time></trkpt><trkpt lat="43.145396021655955" lon="12.007718960190731"><ele>278.8</ele><time>2026-04-26T09:49:05.999Z</time></trkpt><trkpt lat="43.145340246674515" lon="12.007834182198119"><ele>278.4</ele><time>2026-04-26T09:49:07.999Z</time></trkpt><trkpt lat="43.14528397019282" lon="12.00794665837411"><ele>278.0</ele><time>2026-04-26T09:49:09.999Z</time></trkpt><trkpt lat="43.14522779246507" lon="12.008063890974862"><ele>278.0</ele><time>2026-04-26T09:49:11.999Z</time></trkpt><trkpt lat="43.145158942044425" lon="12.008192779270116"><ele>278.0</ele><time>2026-04-26T09:49:13.999Z</time></trkpt><trkpt lat="43.145090406439" lon="12.008312692698501"><ele>278.0</ele><time>2026-04-26T09:49:15.999Z</time></trkpt><trkpt lat="43.145012965813734" lon="12.008440037159922"><ele>278.0</ele><time>2026-04-26T09:49:17.999Z</time></trkpt><trkpt lat="43.14496056159786" lon="12.00851472347587"><ele>278.0</ele><time>2026-04-26T09:49:18.999Z</time></trkpt><trkpt lat="43.144922905965714" lon="12.008587742371368"><ele>278.2857142857143</ele><time>2026-04-26T09:49:19.999Z</time></trkpt><trkpt lat="43.14488277662487" lon="12.008661008597524"><ele>278.57142857142856</ele><time>2026-04-26T09:49:20.999Z</time></trkpt><trkpt lat="43.14484147548255" lon="12.008735215938431"><ele>278.8571428571429</ele><time>2026-04-26T09:49:21.999Z</time></trkpt><trkpt lat="43.14479531799848" lon="12.00881667620656"><ele>279.1428571428571</ele><time>2026-04-26T09:49:22.999Z</time></trkpt><trkpt lat="43.14474998867132" lon="12.008891224702456"><ele>279.42857142857144</ele><time>2026-04-26T09:49:23.999Z</time></trkpt><trkpt lat="43.144709809797504" lon="12.008968016607948"><ele>279.7142857142857</ele><time>2026-04-26T09:49:24.999Z</time></trkpt><trkpt lat="43.14466781404527" lon="12.009040438901987"><ele>280.0</ele><time>2026-04-26T09:49:25.999Z</time></trkpt><trkpt lat="43.14462714828776" lon="12.009112701406819"><ele>279.3333333333333</ele><time>2026-04-26T09:49:26.999Z</time></trkpt><trkpt lat="43.14458677896636" lon="12.00918746060145"><ele>278.66666666666663</ele><time>2026-04-26T09:49:27.999Z</time></trkpt><trkpt lat="43.144548342904734" lon="12.009256618544962"><ele>278.0</ele><time>2026-04-26T09:49:28.999Z</time></trkpt><trkpt lat="43.14450938066211" lon="12.009330061602302"><ele>277.3333333333333</ele><time>2026-04-26T09:49:29.999Z</time></trkpt><trkpt lat="43.14446979776352" lon="12.009398886920826"><ele>276.6666666666667</ele><time>2026-04-26T09:49:30.998Z</time></trkpt><trkpt lat="43.14442964909822" lon="12.00946754853532"><ele>276.0</ele><time>2026-04-26T09:49:31.998Z</time></trkpt><trkpt lat="43.14434703407069" lon="12.009595735658479"><ele>276.0</ele><time>2026-04-26T09:49:33.998Z</time></trkpt><trkpt lat="43.14430020090638" lon="12.009657421868337"><ele>276.0</ele><time>2026-04-26T09:49:34.998Z</time></trkpt><trkpt lat="43.14425125568569" lon="12.009717071368158"><ele>276.0</ele><time>2026-04-26T09:49:35.998Z</time></trkpt><trkpt lat="43.144199570819836" lon="12.009767840139908"><ele>276.0</ele><time>2026-04-26T09:49:36.998Z</time></trkpt><trkpt lat="43.1441446022176" lon="12.00981238293792"><ele>276.0</ele><time>2026-04-26T09:49:37.998Z</time></trkpt><trkpt lat="43.14408632220014" lon="12.00986177744725"><ele>276.0</ele><time>2026-04-26T09:49:38.998Z</time></trkpt><trkpt lat="43.1440247965843" lon="12.009910711369587"><ele>276.0</ele><time>2026-04-26T09:49:39.998Z</time></trkpt><trkpt lat="43.143964767763215" lon="12.009963880759464"><ele>276.2</ele><time>2026-04-26T09:49:40.998Z</time></trkpt><trkpt lat="43.14385500368207" lon="12.010050324165904"><ele>276.40000000000003</ele><time>2026-04-26T09:49:42.999Z</time></trkpt><trkpt lat="43.14379942163818" lon="12.01009208708875"><ele>276.6</ele><time>2026-04-26T09:49:43.999Z</time></trkpt><trkpt lat="43.14371406019883" lon="12.010195577215024"><ele>276.8</ele><time>2026-04-26T09:49:45.999Z</time></trkpt><trkpt lat="43.143627152154885" lon="12.010308657643142"><ele>277.0</ele><time>2026-04-26T09:49:47.999Z</time></trkpt><trkpt lat="43.14354948107285" lon="12.010446649002644"><ele>277.0</ele><time>2026-04-26T09:49:49.999Z</time></trkpt><trkpt lat="43.14352070250933" lon="12.010531114696594"><ele>277.0</ele><time>2026-04-26T09:49:50.999Z</time></trkpt><trkpt lat="43.14348822498234" lon="12.010613247024912"><ele>277.0</ele><time>2026-04-26T09:49:51.999Z</time></trkpt><trkpt lat="43.14345443236602" lon="12.010693991628566"><ele>277.0</ele><time>2026-04-26T09:49:52.999Z</time></trkpt><trkpt lat="43.14342091806226" lon="12.010773676295441"><ele>277.0</ele><time>2026-04-26T09:49:54Z</time></trkpt><trkpt lat="43.14338523177757" lon="12.010847927527893"><ele>277.0</ele><time>2026-04-26T09:49:55Z</time></trkpt><trkpt lat="43.143350261389486" lon="12.010928525002363"><ele>277.0</ele><time>2026-04-26T09:49:56Z</time></trkpt><trkpt lat="43.143321106366805" lon="12.011008561451469"><ele>276.85714285714283</ele><time>2026-04-26T09:49:57Z</time></trkpt><trkpt lat="43.143288347637785" lon="12.011087901516293"><ele>276.71428571428567</ele><time>2026-04-26T09:49:58Z</time></trkpt><trkpt lat="43.14325760994879" lon="12.011164885855758"><ele>276.57142857142856</ele><time>2026-04-26T09:49:59Z</time></trkpt><trkpt lat="43.14322981103575" lon="12.011242388538511"><ele>276.42857142857144</ele><time>2026-04-26T09:50:00Z</time></trkpt><trkpt lat="43.14319906748833" lon="12.011325498954633"><ele>276.28571428571433</ele><time>2026-04-26T09:50:01Z</time></trkpt><trkpt lat="43.143164521673455" lon="12.011407046594579"><ele>276.14285714285717</ele><time>2026-04-26T09:50:02Z</time></trkpt><trkpt lat="43.14313029690612" lon="12.011486652236"><ele>276.0</ele><time>2026-04-26T09:50:03Z</time></trkpt><trkpt lat="43.14309728570098" lon="12.011572151855281"><ele>275.8571428571429</ele><time>2026-04-26T09:50:04Z</time></trkpt><trkpt lat="43.143061807262825" lon="12.01165906555797"><ele>275.7142857142857</ele><time>2026-04-26T09:50:05Z</time></trkpt><trkpt lat="43.143023922012354" lon="12.01174342895376"><ele>275.57142857142856</ele><time>2026-04-26T09:50:06Z</time></trkpt><trkpt lat="43.14299108148905" lon="12.011827461684742"><ele>275.42857142857144</ele><time>2026-04-26T09:50:07Z</time></trkpt><trkpt lat="43.14295855459842" lon="12.011917759950956"><ele>275.2857142857143</ele><time>2026-04-26T09:50:08Z</time></trkpt><trkpt lat="43.14292247788446" lon="12.012004081143166"><ele>275.14285714285717</ele><time>2026-04-26T09:50:09Z</time></trkpt><trkpt lat="43.14288505445666" lon="12.012093926222011"><ele>275.0</ele><time>2026-04-26T09:50:10Z</time></trkpt><trkpt lat="43.14284895107362" lon="12.012187280180497"><ele>275.0</ele><time>2026-04-26T09:50:11Z</time></trkpt><trkpt lat="43.14281491688034" lon="12.012272737052514"><ele>275.0</ele><time>2026-04-26T09:50:12Z</time></trkpt><trkpt lat="43.14277990976402" lon="12.012357681026549"><ele>275.0</ele><time>2026-04-26T09:50:13Z</time></trkpt><trkpt lat="43.142747691848726" lon="12.01244096111125"><ele>275.0</ele><time>2026-04-26T09:50:14Z</time></trkpt><trkpt lat="43.14270952403921" lon="12.01252090759144"><ele>275.0</ele><time>2026-04-26T09:50:15Z</time></trkpt><trkpt lat="43.14267537750907" lon="12.01259999369166"><ele>275.0</ele><time>2026-04-26T09:50:16Z</time></trkpt><trkpt lat="43.14264400025349" lon="12.012682028003162"><ele>275.0</ele><time>2026-04-26T09:50:17Z</time></trkpt><trkpt lat="43.142612509688256" lon="12.012762561333131"><ele>275.0</ele><time>2026-04-26T09:50:18Z</time></trkpt><trkpt lat="43.142580159158285" lon="12.012843523525248"><ele>275.0</ele><time>2026-04-26T09:50:19Z</time></trkpt><trkpt lat="43.142549976495616" lon="12.01291990386145"><ele>275.0</ele><time>2026-04-26T09:50:20Z</time></trkpt><trkpt lat="43.142519359159" lon="12.012995821054323"><ele>275.0</ele><time>2026-04-26T09:50:21Z</time></trkpt><trkpt lat="43.142464357734475" lon="12.013139315804597"><ele>275.0</ele><time>2026-04-26T09:50:23Z</time></trkpt><trkpt lat="43.1424110717772" lon="12.013264329816625"><ele>275.0</ele><time>2026-04-26T09:50:25Z</time></trkpt><trkpt lat="43.14236576249151" lon="12.013405032452642"><ele>274.8</ele><time>2026-04-26T09:50:27Z</time></trkpt><trkpt lat="43.14230785489041" lon="12.013528386261708"><ele>274.6</ele><time>2026-04-26T09:50:29Z</time></trkpt><trkpt lat="43.142255834404395" lon="12.013658568443633"><ele>274.4</ele><time>2026-04-26T09:50:31Z</time></trkpt><trkpt lat="43.142202060378395" lon="12.013806108304761"><ele>274.2</ele><time>2026-04-26T09:50:33Z</time></trkpt><trkpt lat="43.142171176646585" lon="12.01388215502492"><ele>274.0</ele><time>2026-04-26T09:50:33.999Z</time></trkpt><trkpt lat="43.14213888942278" lon="12.01395746792535"><ele>274.00000000000006</ele><time>2026-04-26T09:50:34.999Z</time></trkpt><trkpt lat="43.14210479354158" lon="12.014035395443809"><ele>274.0</ele><time>2026-04-26T09:50:35.999Z</time></trkpt><trkpt lat="43.142072018842505" lon="12.014115345376712"><ele>274.0</ele><time>2026-04-26T09:50:36.999Z</time></trkpt><trkpt lat="43.14203921255702" lon="12.014196401002453"><ele>274.0</ele><time>2026-04-26T09:50:37.999Z</time></trkpt><trkpt lat="43.14200623689984" lon="12.014273481638803"><ele>274.0</ele><time>2026-04-26T09:50:38.999Z</time></trkpt><trkpt lat="43.141972338583116" lon="12.014351169941886"><ele>274.00000000000006</ele><time>2026-04-26T09:50:39.999Z</time></trkpt><trkpt lat="43.14194054693107" lon="12.014427756522197"><ele>274.0</ele><time>2026-04-26T09:50:40.999Z</time></trkpt><trkpt lat="43.141908498073754" lon="12.014507096400285"><ele>273.8333333333333</ele><time>2026-04-26T09:50:41.999Z</time></trkpt><trkpt lat="43.14187578053273" lon="12.014585184576152"><ele>273.66666666666663</ele><time>2026-04-26T09:50:42.999Z</time></trkpt><trkpt lat="43.14184122304486" lon="12.014663348559338"><ele>273.5</ele><time>2026-04-26T09:50:43.999Z</time></trkpt><trkpt lat="43.1418084188253" lon="12.014742781994865"><ele>273.3333333333333</ele><time>2026-04-26T09:50:44.999Z</time></trkpt><trkpt lat="43.141777095490376" lon="12.014819664094398"><ele>273.1666666666667</ele><time>2026-04-26T09:50:45.999Z</time></trkpt><trkpt lat="43.14174648755505" lon="12.014896346645"><ele>273.0</ele><time>2026-04-26T09:50:46.999Z</time></trkpt><trkpt lat="43.141688712249795" lon="12.015049706732626"><ele>273.0</ele><time>2026-04-26T09:50:48.999Z</time></trkpt><trkpt lat="43.14164994517621" lon="12.015204795496956"><ele>273.0</ele><time>2026-04-26T09:50:50.999Z</time></trkpt><trkpt lat="43.14160825618328" lon="12.015341040706238"><ele>273.0</ele><time>2026-04-26T09:50:52.999Z</time></trkpt><trkpt lat="43.14156751664061" lon="12.015441131870388"><ele>273.0</ele><time>2026-04-26T09:50:54.999Z</time></trkpt><trkpt lat="43.14155354722933" lon="12.015552307987313"><ele>273.0</ele><time>2026-04-26T09:50:58.999Z</time></trkpt><trkpt lat="43.14153051676381" lon="12.01564340874114"><ele>273.0</ele><time>2026-04-26T09:51:00.999Z</time></trkpt><trkpt lat="43.14148991474546" lon="12.015716886913829"><ele>273.0</ele><time>2026-04-26T09:51:03.999Z</time></trkpt><trkpt lat="43.14141819801053" lon="12.015648301745944"><ele>273.0</ele><time>2026-04-26T09:51:04.999Z</time></trkpt><trkpt lat="43.14133958069716" lon="12.015625252260234"><ele>273.0</ele><time>2026-04-26T09:51:06.999Z</time></trkpt><trkpt lat="43.14124644549388" lon="12.015605014544743"><ele>273.0</ele><time>2026-04-26T09:51:08.999Z</time></trkpt><trkpt lat="43.141145967866244" lon="12.015585214617708"><ele>273.0</ele><time>2026-04-26T09:51:10.999Z</time></trkpt><trkpt lat="43.141049418098575" lon="12.015587586612932"><ele>273.0</ele><time>2026-04-26T09:51:12.999Z</time></trkpt><trkpt lat="43.14094230898812" lon="12.01556664357698"><ele>273.0</ele><time>2026-04-26T09:51:14.999Z</time></trkpt><trkpt lat="43.14084614463996" lon="12.015556073189968"><ele>273.0</ele><time>2026-04-26T09:51:16.999Z</time></trkpt><trkpt lat="43.140747605185084" lon="12.015505246167455"><ele>273.0</ele><time>2026-04-26T09:51:18.999Z</time></trkpt><trkpt lat="43.14064098272749" lon="12.015481549570048"><ele>273.0</ele><time>2026-04-26T09:51:20.999Z</time></trkpt><trkpt lat="43.14053122779919" lon="12.01546351739203"><ele>272.5</ele><time>2026-04-26T09:51:22.999Z</time></trkpt><trkpt lat="43.14041732035783" lon="12.015447356404582"><ele>272.0</ele><time>2026-04-26T09:51:24.999Z</time></trkpt><trkpt lat="43.140303814463884" lon="12.015433456337632"><ele>271.5</ele><time>2026-04-26T09:51:26.999Z</time></trkpt><trkpt lat="43.14018910579616" lon="12.015420790747575"><ele>271.0</ele><time>2026-04-26T09:51:28.999Z</time></trkpt><trkpt lat="43.14006460407736" lon="12.015407043848754"><ele>271.0</ele><time>2026-04-26T09:51:30.999Z</time></trkpt><trkpt lat="43.14000039160037" lon="12.015400775764421"><ele>271.0</ele><time>2026-04-26T09:51:31.999Z</time></trkpt><trkpt lat="43.13993372136257" lon="12.015394481464284"><ele>271.0</ele><time>2026-04-26T09:51:32.999Z</time></trkpt><trkpt lat="43.13986754022178" lon="12.015388233344051"><ele>271.0</ele><time>2026-04-26T09:51:33.999Z</time></trkpt><trkpt lat="43.13980112462094" lon="12.015381963079678"><ele>271.0</ele><time>2026-04-26T09:51:34.999Z</time></trkpt><trkpt lat="43.13973549363414" lon="12.015376118718976"><ele>271.0</ele><time>2026-04-26T09:51:35.999Z</time></trkpt><trkpt lat="43.13966855673127" lon="12.015370311107105"><ele>271.0</ele><time>2026-04-26T09:51:36.999Z</time></trkpt><trkpt lat="43.13960215418298" lon="12.015364549852457"><ele>271.42857142857144</ele><time>2026-04-26T09:51:37.999Z</time></trkpt><trkpt lat="43.13953548277603" lon="12.015358765409047"><ele>271.8571428571429</ele><time>2026-04-26T09:51:38.999Z</time></trkpt><trkpt lat="43.13946673881612" lon="12.01535604977457"><ele>272.28571428571433</ele><time>2026-04-26T09:51:39.999Z</time></trkpt><trkpt lat="43.139399012211086" lon="12.01535237383828"><ele>272.7142857142857</ele><time>2026-04-26T09:51:40.999Z</time></trkpt><trkpt lat="43.139333031466315" lon="12.015348938673487"><ele>273.14285714285717</ele><time>2026-04-26T09:51:41.999Z</time></trkpt><trkpt lat="43.13926684076821" lon="12.015345492578223"><ele>273.5714285714286</ele><time>2026-04-26T09:51:42.999Z</time></trkpt><trkpt lat="43.13920013204046" lon="12.015342019511564"><ele>274.0</ele><time>2026-04-26T09:51:43.999Z</time></trkpt><trkpt lat="43.13913428336655" lon="12.015338591222323"><ele>274.00000000000006</ele><time>2026-04-26T09:51:44.999Z</time></trkpt><trkpt lat="43.13906653345411" lon="12.015334975297362"><ele>274.0</ele><time>2026-04-26T09:51:45.999Z</time></trkpt><trkpt lat="43.13899817650337" lon="12.015330975370263"><ele>274.0</ele><time>2026-04-26T09:51:46.999Z</time></trkpt><trkpt lat="43.13893123835507" lon="12.01532681863906"><ele>274.0</ele><time>2026-04-26T09:51:47.999Z</time></trkpt><trkpt lat="43.13886138033878" lon="12.015322246886766"><ele>274.0</ele><time>2026-04-26T09:51:49Z</time></trkpt><trkpt lat="43.13879198718027" lon="12.015317481345695"><ele>274.00000000000006</ele><time>2026-04-26T09:51:50Z</time></trkpt><trkpt lat="43.13872066585108" lon="12.015311296483441"><ele>274.0</ele><time>2026-04-26T09:51:51Z</time></trkpt><trkpt lat="43.138652318804574" lon="12.015305369551557"><ele>273.59999999999997</ele><time>2026-04-26T09:51:52Z</time></trkpt><trkpt lat="43.13858589835532" lon="12.01529960968373"><ele>273.2</ele><time>2026-04-26T09:51:53Z</time></trkpt><trkpt lat="43.138465234907244" lon="12.015288988409118"><ele>272.79999999999995</ele><time>2026-04-26T09:51:55Z</time></trkpt><trkpt lat="43.13834787150681" lon="12.015278132436688"><ele>272.4</ele><time>2026-04-26T09:51:57Z</time></trkpt><trkpt lat="43.13822154629309" lon="12.015265117142498"><ele>272.0</ele><time>2026-04-26T09:51:59Z</time></trkpt><trkpt lat="43.138155017002376" lon="12.015257319048173"><ele>271.99999999999994</ele><time>2026-04-26T09:52:00Z</time></trkpt><trkpt lat="43.13808613150431" lon="12.015249244784316"><ele>272.0</ele><time>2026-04-26T09:52:01Z</time></trkpt><trkpt lat="43.138015267051394" lon="12.015240938538913"><ele>272.0</ele><time>2026-04-26T09:52:02Z</time></trkpt><trkpt lat="43.137950412561985" lon="12.015233336740234"><ele>272.0</ele><time>2026-04-26T09:52:03Z</time></trkpt><trkpt lat="43.13788447350013" lon="12.015225841772669"><ele>272.0</ele><time>2026-04-26T09:52:04Z</time></trkpt><trkpt lat="43.1378180820754" lon="12.015218681296579"><ele>271.99999999999994</ele><time>2026-04-26T09:52:05Z</time></trkpt><trkpt lat="43.137752929143" lon="12.015211654397834"><ele>272.0</ele><time>2026-04-26T09:52:06Z</time></trkpt><trkpt lat="43.13768803688085" lon="12.015204754551352"><ele>271.99999999999994</ele><time>2026-04-26T09:52:07Z</time></trkpt><trkpt lat="43.13762221081702" lon="12.015198311999589"><ele>272.0</ele><time>2026-04-26T09:52:08Z</time></trkpt><trkpt lat="43.13755452361553" lon="12.015191687292747"><ele>272.0</ele><time>2026-04-26T09:52:09Z</time></trkpt><trkpt lat="43.13748613054334" lon="12.015186543541176"><ele>272.0</ele><time>2026-04-26T09:52:10Z</time></trkpt><trkpt lat="43.13741767768598" lon="12.015185560760257"><ele>272.0</ele><time>2026-04-26T09:52:11Z</time></trkpt><trkpt lat="43.137347977300614" lon="12.01518682392906"><ele>271.99999999999994</ele><time>2026-04-26T09:52:12Z</time></trkpt><trkpt lat="43.13727836585148" lon="12.01519169482231"><ele>272.0</ele><time>2026-04-26T09:52:13Z</time></trkpt><trkpt lat="43.137215214461456" lon="12.015196217814646"><ele>273.33333333333337</ele><time>2026-04-26T09:52:14Z</time></trkpt><trkpt lat="43.13715077128815" lon="12.015209178756251"><ele>274.6666666666667</ele><time>2026-04-26T09:52:15Z</time></trkpt><trkpt lat="43.137023638378864" lon="12.015232469583639"><ele>276.0</ele><time>2026-04-26T09:52:17Z</time></trkpt><trkpt lat="43.13695765915478" lon="12.015244460374358"><ele>277.3333333333333</ele><time>2026-04-26T09:52:18Z</time></trkpt><trkpt lat="43.1368942464292" lon="12.015255986538"><ele>278.66666666666663</ele><time>2026-04-26T09:52:19Z</time></trkpt><trkpt lat="43.136831034858794" lon="12.015267474356921"><ele>280.0</ele><time>2026-04-26T09:52:20Z</time></trkpt><trkpt lat="43.13671000772904" lon="12.015285305150567"><ele>280.0</ele><time>2026-04-26T09:52:22Z</time></trkpt><trkpt lat="43.136606481948505" lon="12.015293359322879"><ele>280.0</ele><time>2026-04-26T09:52:24Z</time></trkpt><trkpt lat="43.13654198303603" lon="12.015255122132857"><ele>280.0</ele><time>2026-04-26T09:52:31Z</time></trkpt><trkpt lat="43.136463245596474" lon="12.015288263125898"><ele>280.0</ele><time>2026-04-26T09:52:33Z</time></trkpt><trkpt lat="43.13640218386426" lon="12.015351381720109"><ele>280.0</ele><time>2026-04-26T09:52:35Z</time></trkpt><trkpt lat="43.13634908327204" lon="12.015454594317912"><ele>280.0</ele><time>2026-04-26T09:52:37Z</time></trkpt><trkpt lat="43.13622751455616" lon="12.015607596658226"><ele>280.25</ele><time>2026-04-26T09:52:40Z</time></trkpt><trkpt lat="43.13614535132389" lon="12.015728135395644"><ele>280.5</ele><time>2026-04-26T09:52:42Z</time></trkpt><trkpt lat="43.13605809104763" lon="12.015841735057009"><ele>280.75</ele><time>2026-04-26T09:52:44Z</time></trkpt><trkpt lat="43.13597367214068" lon="12.0159594924918"><ele>281.0</ele><time>2026-04-26T09:52:46Z</time></trkpt><trkpt lat="43.13588925931999" lon="12.016076402652729"><ele>280.1666666666667</ele><time>2026-04-26T09:52:48Z</time></trkpt><trkpt lat="43.13580354458306" lon="12.016201427190534"><ele>279.33333333333337</ele><time>2026-04-26T09:52:50Z</time></trkpt><trkpt lat="43.1357581708337" lon="12.016265762353589"><ele>278.5</ele><time>2026-04-26T09:52:50.999Z</time></trkpt><trkpt lat="43.13571172333848" lon="12.016333582620884"><ele>277.6666666666667</ele><time>2026-04-26T09:52:51.999Z</time></trkpt><trkpt lat="43.13566496107862" lon="12.01639917293153"><ele>276.8333333333333</ele><time>2026-04-26T09:52:52.999Z</time></trkpt><trkpt lat="43.13561778842696" lon="12.016473373891959"><ele>276.0</ele><time>2026-04-26T09:52:53.999Z</time></trkpt><trkpt lat="43.13557065192514" lon="12.016546127279655"><ele>276.0</ele><time>2026-04-26T09:52:54.999Z</time></trkpt><trkpt lat="43.13552263527248" lon="12.016620715146876"><ele>276.0</ele><time>2026-04-26T09:52:55.999Z</time></trkpt><trkpt lat="43.13547380514507" lon="12.016693894476939"><ele>276.0</ele><time>2026-04-26T09:52:56.999Z</time></trkpt><trkpt lat="43.135424401844006" lon="12.016765538992662"><ele>276.0</ele><time>2026-04-26T09:52:57.999Z</time></trkpt><trkpt lat="43.13537565084072" lon="12.016837172388474"><ele>276.0</ele><time>2026-04-26T09:52:58.999Z</time></trkpt><trkpt lat="43.135331217067105" lon="12.016916619463068"><ele>276.0</ele><time>2026-04-26T09:52:59.999Z</time></trkpt><trkpt lat="43.13528272744194" lon="12.016987794773138"><ele>276.0</ele><time>2026-04-26T09:53:00.999Z</time></trkpt><trkpt lat="43.13523252049959" lon="12.01706429680925"><ele>276.0</ele><time>2026-04-26T09:53:01.999Z</time></trkpt><trkpt lat="43.13518121424162" lon="12.01713472877131"><ele>276.0</ele><time>2026-04-26T09:53:02.999Z</time></trkpt><trkpt lat="43.135130017628164" lon="12.017209984123465"><ele>276.0</ele><time>2026-04-26T09:53:03.999Z</time></trkpt><trkpt lat="43.13508216345884" lon="12.017287001409631"><ele>276.0</ele><time>2026-04-26T09:53:04.999Z</time></trkpt><trkpt lat="43.13503588074415" lon="12.017361369445343"><ele>276.0</ele><time>2026-04-26T09:53:05.999Z</time></trkpt><trkpt lat="43.134983812239355" lon="12.017438182064291"><ele>276.0</ele><time>2026-04-26T09:53:06.999Z</time></trkpt><trkpt lat="43.13493653700292" lon="12.01751078712592"><ele>276.0</ele><time>2026-04-26T09:53:07.999Z</time></trkpt><trkpt lat="43.13488658485085" lon="12.017585275123759"><ele>275.7142857142857</ele><time>2026-04-26T09:53:08.999Z</time></trkpt><trkpt lat="43.13483854921846" lon="12.017662917726645"><ele>275.42857142857144</ele><time>2026-04-26T09:53:09.999Z</time></trkpt><trkpt lat="43.13478951596312" lon="12.017735120566483"><ele>275.14285714285717</ele><time>2026-04-26T09:53:10.999Z</time></trkpt><trkpt lat="43.13474223921868" lon="12.017811254640543"><ele>274.8571428571429</ele><time>2026-04-26T09:53:11.999Z</time></trkpt><trkpt lat="43.13468949496077" lon="12.017887186064073"><ele>274.57142857142856</ele><time>2026-04-26T09:53:12.999Z</time></trkpt><trkpt lat="43.13463729678469" lon="12.017962098898025"><ele>274.28571428571433</ele><time>2026-04-26T09:53:13.999Z</time></trkpt><trkpt lat="43.134588570978174" lon="12.018040397589827"><ele>274.0</ele><time>2026-04-26T09:53:14.999Z</time></trkpt><trkpt lat="43.13453857491619" lon="12.01811823948789"><ele>274.0</ele><time>2026-04-26T09:53:15.999Z</time></trkpt><trkpt lat="43.134488131393034" lon="12.018194225951001"><ele>274.0</ele><time>2026-04-26T09:53:16.999Z</time></trkpt><trkpt lat="43.13443665667308" lon="12.018273426791334"><ele>274.0</ele><time>2026-04-26T09:53:17.999Z</time></trkpt><trkpt lat="43.1343856986604" lon="12.01835149509532"><ele>274.0</ele><time>2026-04-26T09:53:18.999Z</time></trkpt><trkpt lat="43.13433693803514" lon="12.018432714710167"><ele>274.0</ele><time>2026-04-26T09:53:19.999Z</time></trkpt><trkpt lat="43.13428877010975" lon="12.018504282515853"><ele>274.0</ele><time>2026-04-26T09:53:20.999Z</time></trkpt><trkpt lat="43.13423345620374" lon="12.018585424496447"><ele>274.0</ele><time>2026-04-26T09:53:21.999Z</time></trkpt><trkpt lat="43.134184155522654" lon="12.018666683895056"><ele>274.0</ele><time>2026-04-26T09:53:22.999Z</time></trkpt><trkpt lat="43.13413438309457" lon="12.01874732603007"><ele>274.0</ele><time>2026-04-26T09:53:23.999Z</time></trkpt><trkpt lat="43.13408401119181" lon="12.018827980814564"><ele>274.0</ele><time>2026-04-26T09:53:24.999Z</time></trkpt><trkpt lat="43.13404013026196" lon="12.018919601763155"><ele>274.0</ele><time>2026-04-26T09:53:25.999Z</time></trkpt><trkpt lat="43.13399485974105" lon="12.019008463382068"><ele>274.0</ele><time>2026-04-26T09:53:26.999Z</time></trkpt><trkpt lat="43.13395064839671" lon="12.019097674040504"><ele>273.66666666666663</ele><time>2026-04-26T09:53:27.999Z</time></trkpt><trkpt lat="43.13390493058573" lon="12.01919204473492"><ele>273.3333333333333</ele><time>2026-04-26T09:53:28.999Z</time></trkpt><trkpt lat="43.13385643861891" lon="12.019283177712191"><ele>273.0</ele><time>2026-04-26T09:53:29.999Z</time></trkpt><trkpt lat="43.133809592705504" lon="12.019375014190514"><ele>272.6666666666667</ele><time>2026-04-26T09:53:30.999Z</time></trkpt><trkpt lat="43.13376336547363" lon="12.019465799530854"><ele>272.33333333333337</ele><time>2026-04-26T09:53:31.999Z</time></trkpt><trkpt lat="43.13371874102062" lon="12.019558460142596"><ele>272.0</ele><time>2026-04-26T09:53:32.999Z</time></trkpt><trkpt lat="43.13367437714152" lon="12.019648062105285"><ele>272.0</ele><time>2026-04-26T09:53:33.999Z</time></trkpt><trkpt lat="43.13363165241533" lon="12.019736847610366"><ele>272.0</ele><time>2026-04-26T09:53:34.999Z</time></trkpt><trkpt lat="43.133588683356265" lon="12.019826563207198"><ele>272.0</ele><time>2026-04-26T09:53:35.999Z</time></trkpt><trkpt lat="43.13354661960837" lon="12.019915504481085"><ele>272.0</ele><time>2026-04-26T09:53:36.999Z</time></trkpt><trkpt lat="43.133505436932886" lon="12.019998988928265"><ele>272.0</ele><time>2026-04-26T09:53:37.999Z</time></trkpt><trkpt lat="43.13346516185942" lon="12.020079747925816"><ele>272.0</ele><time>2026-04-26T09:53:38.999Z</time></trkpt><trkpt lat="43.13342569499876" lon="12.02016489446114"><ele>271.99999999999994</ele><time>2026-04-26T09:53:39.999Z</time></trkpt><trkpt lat="43.13338761370108" lon="12.020247668349462"><ele>272.0</ele><time>2026-04-26T09:53:40.999Z</time></trkpt><trkpt lat="43.13335121471017" lon="12.0203294741046"><ele>272.0</ele><time>2026-04-26T09:53:41.999Z</time></trkpt><trkpt lat="43.133312168135255" lon="12.020410758062399"><ele>272.0</ele><time>2026-04-26T09:53:42.999Z</time></trkpt><trkpt lat="43.13327546601635" lon="12.020494441912405"><ele>272.0</ele><time>2026-04-26T09:53:43.999Z</time></trkpt><trkpt lat="43.133235118996076" lon="12.02057702758486"><ele>271.99999999999994</ele><time>2026-04-26T09:53:44.999Z</time></trkpt><trkpt lat="43.13319484686071" lon="12.02065821478837"><ele>272.0</ele><time>2026-04-26T09:53:45.999Z</time></trkpt><trkpt lat="43.13315813702288" lon="12.020741258647684"><ele>271.85714285714283</ele><time>2026-04-26T09:53:46.999Z</time></trkpt><trkpt lat="43.133116654614746" lon="12.020824956569184"><ele>271.7142857142857</ele><time>2026-04-26T09:53:47.999Z</time></trkpt><trkpt lat="43.13307353321958" lon="12.020903546912608"><ele>271.57142857142856</ele><time>2026-04-26T09:53:48.999Z</time></trkpt><trkpt lat="43.13303102070268" lon="12.020987730975119"><ele>271.42857142857144</ele><time>2026-04-26T09:53:49.999Z</time></trkpt><trkpt lat="43.13299440513841" lon="12.021076455476011"><ele>271.2857142857143</ele><time>2026-04-26T09:53:50.999Z</time></trkpt><trkpt lat="43.1329558002817" lon="12.021167162698752"><ele>271.1428571428571</ele><time>2026-04-26T09:53:51.999Z</time></trkpt><trkpt lat="43.132920004091595" lon="12.021258597197816"><ele>271.0</ele><time>2026-04-26T09:53:52.999Z</time></trkpt><trkpt lat="43.13288885167792" lon="12.021354697348302"><ele>271.0</ele><time>2026-04-26T09:53:53.999Z</time></trkpt><trkpt lat="43.13285288160791" lon="12.021448792467007"><ele>271.0</ele><time>2026-04-26T09:53:55Z</time></trkpt><trkpt lat="43.13282058752909" lon="12.021542464199408"><ele>271.0</ele><time>2026-04-26T09:53:56Z</time></trkpt><trkpt lat="43.132788024858286" lon="12.021635309717748"><ele>271.0</ele><time>2026-04-26T09:53:57Z</time></trkpt><trkpt lat="43.132755611289696" lon="12.021730443660465"><ele>271.0</ele><time>2026-04-26T09:53:58Z</time></trkpt><trkpt lat="43.13272600263423" lon="12.021827180112313"><ele>271.0</ele><time>2026-04-26T09:53:59Z</time></trkpt><trkpt lat="43.132697305943275" lon="12.021922793863553"><ele>270.66666666666663</ele><time>2026-04-26T09:54:00Z</time></trkpt><trkpt lat="43.13266525568578" lon="12.02201826601297"><ele>270.3333333333333</ele><time>2026-04-26T09:54:01Z</time></trkpt><trkpt lat="43.132635129115194" lon="12.022114270407098"><ele>270.0</ele><time>2026-04-26T09:54:02Z</time></trkpt><trkpt lat="43.132600280674545" lon="12.02220804143994"><ele>269.6666666666667</ele><time>2026-04-26T09:54:03Z</time></trkpt><trkpt lat="43.132567774277184" lon="12.022301883005403"><ele>269.33333333333337</ele><time>2026-04-26T09:54:04Z</time></trkpt><trkpt lat="43.13253758784376" lon="12.022395275366861"><ele>269.0</ele><time>2026-04-26T09:54:05Z</time></trkpt><trkpt lat="43.13250930316991" lon="12.02248790374039"><ele>268.8571428571429</ele><time>2026-04-26T09:54:06Z</time></trkpt><trkpt lat="43.13247523989434" lon="12.022579424681904"><ele>268.7142857142857</ele><time>2026-04-26T09:54:07Z</time></trkpt><trkpt lat="43.13244587351989" lon="12.022669081753"><ele>268.57142857142856</ele><time>2026-04-26T09:54:08Z</time></trkpt><trkpt lat="43.13242005618344" lon="12.02276056479187"><ele>268.42857142857144</ele><time>2026-04-26T09:54:09Z</time></trkpt><trkpt lat="43.13238910407995" lon="12.022848500776199"><ele>268.2857142857143</ele><time>2026-04-26T09:54:10Z</time></trkpt><trkpt lat="43.13235950839486" lon="12.022939224064388"><ele>268.14285714285717</ele><time>2026-04-26T09:54:11Z</time></trkpt><trkpt lat="43.13233252754232" lon="12.023032646191039"><ele>268.0</ele><time>2026-04-26T09:54:12Z</time></trkpt><trkpt lat="43.13230442602135" lon="12.023122959951838"><ele>268.0</ele><time>2026-04-26T09:54:13Z</time></trkpt><trkpt lat="43.13227226552544" lon="12.023215450215641"><ele>268.0</ele><time>2026-04-26T09:54:14Z</time></trkpt><trkpt lat="43.13224106701783" lon="12.02331066660119"><ele>268.0</ele><time>2026-04-26T09:54:15Z</time></trkpt><trkpt lat="43.13220528888351" lon="12.023405727827832"><ele>268.0</ele><time>2026-04-26T09:54:16Z</time></trkpt><trkpt lat="43.13217740038228" lon="12.023502190050833"><ele>268.0</ele><time>2026-04-26T09:54:17Z</time></trkpt><trkpt lat="43.132145764197055" lon="12.023599431223765"><ele>268.0</ele><time>2026-04-26T09:54:18Z</time></trkpt><trkpt lat="43.13211640303182" lon="12.023698770444405"><ele>267.5</ele><time>2026-04-26T09:54:19Z</time></trkpt><trkpt lat="43.132087301054746" lon="12.023799657801755"><ele>267.0</ele><time>2026-04-26T09:54:20Z</time></trkpt><trkpt lat="43.13206103032454" lon="12.02390053712698"><ele>266.5</ele><time>2026-04-26T09:54:21Z</time></trkpt><trkpt lat="43.132036394583466" lon="12.024000566714278"><ele>266.0</ele><time>2026-04-26T09:54:22Z</time></trkpt><trkpt lat="43.132012287469124" lon="12.024097332742876"><ele>265.5</ele><time>2026-04-26T09:54:23Z</time></trkpt><trkpt lat="43.13198991223045" lon="12.02419865522554"><ele>265.0</ele><time>2026-04-26T09:54:24Z</time></trkpt><trkpt lat="43.13196969319874" lon="12.024297657242043"><ele>264.85714285714283</ele><time>2026-04-26T09:54:25Z</time></trkpt><trkpt lat="43.13194333541652" lon="12.024384931583244"><ele>264.7142857142857</ele><time>2026-04-26T09:54:26Z</time></trkpt><trkpt lat="43.13191912213302" lon="12.024474068230912"><ele>264.57142857142856</ele><time>2026-04-26T09:54:27Z</time></trkpt><trkpt lat="43.1319031056895" lon="12.024567983097105"><ele>264.42857142857144</ele><time>2026-04-26T09:54:28Z</time></trkpt><trkpt lat="43.131880832960434" lon="12.024665335048907"><ele>264.2857142857143</ele><time>2026-04-26T09:54:29Z</time></trkpt><trkpt lat="43.13185771093061" lon="12.02476256686014"><ele>264.1428571428571</ele><time>2026-04-26T09:54:30Z</time></trkpt><trkpt lat="43.131835979322595" lon="12.024858639689102"><ele>264.0</ele><time>2026-04-26T09:54:31Z</time></trkpt><trkpt lat="43.131812754476805" lon="12.024953875872542"><ele>263.85714285714283</ele><time>2026-04-26T09:54:32Z</time></trkpt><trkpt lat="43.13179387655168" lon="12.025049340207788"><ele>263.7142857142857</ele><time>2026-04-26T09:54:33Z</time></trkpt><trkpt lat="43.13177202956309" lon="12.02514541044238"><ele>263.57142857142856</ele><time>2026-04-26T09:54:34Z</time></trkpt><trkpt lat="43.131748890363944" lon="12.025241192987556"><ele>263.42857142857144</ele><time>2026-04-26T09:54:35Z</time></trkpt><trkpt lat="43.13172579966124" lon="12.025336262574562"><ele>263.2857142857143</ele><time>2026-04-26T09:54:36Z</time></trkpt><trkpt lat="43.13170428441685" lon="12.02543251839578"><ele>263.1428571428571</ele><time>2026-04-26T09:54:37Z</time></trkpt><trkpt lat="43.13168026073745" lon="12.025530249580747"><ele>263.0</ele><time>2026-04-26T09:54:38Z</time></trkpt><trkpt lat="43.13165722418169" lon="12.025625357367089"><ele>263.0</ele><time>2026-04-26T09:54:39Z</time></trkpt><trkpt lat="43.13163383006237" lon="12.025722010957105"><ele>263.0</ele><time>2026-04-26T09:54:40Z</time></trkpt><trkpt lat="43.13161083423978" lon="12.025821502583986"><ele>263.0</ele><time>2026-04-26T09:54:41Z</time></trkpt><trkpt lat="43.13159085080147" lon="12.025920075228505"><ele>263.0</ele><time>2026-04-26T09:54:42Z</time></trkpt><trkpt lat="43.131569939386125" lon="12.02601953745374"><ele>263.0</ele><time>2026-04-26T09:54:43Z</time></trkpt><trkpt lat="43.13154470404005" lon="12.026118341814529"><ele>263.0</ele><time>2026-04-26T09:54:44Z</time></trkpt><trkpt lat="43.13151855901938" lon="12.026215766368534"><ele>262.83333333333337</ele><time>2026-04-26T09:54:45Z</time></trkpt><trkpt lat="43.131496039772294" lon="12.026314657147484"><ele>262.6666666666667</ele><time>2026-04-26T09:54:46Z</time></trkpt><trkpt lat="43.1314747425006" lon="12.02641361098983"><ele>262.5</ele><time>2026-04-26T09:54:47Z</time></trkpt><trkpt lat="43.131450940320775" lon="12.026511823307647"><ele>262.3333333333333</ele><time>2026-04-26T09:54:48Z</time></trkpt><trkpt lat="43.13142836143335" lon="12.026611070658278"><ele>262.16666666666663</ele><time>2026-04-26T09:54:49Z</time></trkpt><trkpt lat="43.13140237530036" lon="12.026709831340536"><ele>262.0</ele><time>2026-04-26T09:54:50Z</time></trkpt><trkpt lat="43.13137976557794" lon="12.02680980698426"><ele>262.0</ele><time>2026-04-26T09:54:51Z</time></trkpt><trkpt lat="43.13135731793612" lon="12.026915976503595"><ele>262.0</ele><time>2026-04-26T09:54:52Z</time></trkpt><trkpt lat="43.1313335075293" lon="12.027012120110115"><ele>262.0</ele><time>2026-04-26T09:54:53Z</time></trkpt><trkpt lat="43.13131143385788" lon="12.027106466617134"><ele>262.0</ele><time>2026-04-26T09:54:54Z</time></trkpt><trkpt lat="43.13128940710905" lon="12.027202605144227"><ele>262.0</ele><time>2026-04-26T09:54:55Z</time></trkpt><trkpt lat="43.13126746054812" lon="12.027296918837726"><ele>262.0</ele><time>2026-04-26T09:54:56Z</time></trkpt><trkpt lat="43.131247946991834" lon="12.027390775333323"><ele>262.0</ele><time>2026-04-26T09:54:57Z</time></trkpt><trkpt lat="43.13122681320024" lon="12.027483981207784"><ele>262.0</ele><time>2026-04-26T09:54:58Z</time></trkpt><trkpt lat="43.13120192880773" lon="12.027574096980192"><ele>262.0</ele><time>2026-04-26T09:54:59Z</time></trkpt><trkpt lat="43.13117456880236" lon="12.02766257057076"><ele>262.0</ele><time>2026-04-26T09:55:00Z</time></trkpt><trkpt lat="43.13114972250062" lon="12.027751928689256"><ele>262.0</ele><time>2026-04-26T09:55:01Z</time></trkpt><trkpt lat="43.1311230997172" lon="12.027841664342457"><ele>262.0</ele><time>2026-04-26T09:55:02Z</time></trkpt><trkpt lat="43.13108978763412" lon="12.02792919840748"><ele>262.0</ele><time>2026-04-26T09:55:03Z</time></trkpt><trkpt lat="43.131051723292785" lon="12.02801388868804"><ele>262.0</ele><time>2026-04-26T09:55:04Z</time></trkpt><trkpt lat="43.13100559308685" lon="12.028091432041874"><ele>262.0</ele><time>2026-04-26T09:55:05Z</time></trkpt><trkpt lat="43.13095588628656" lon="12.028164257789069"><ele>262.0</ele><time>2026-04-26T09:55:06Z</time></trkpt><trkpt lat="43.130903342754635" lon="12.028229349799243"><ele>262.0</ele><time>2026-04-26T09:55:07Z</time></trkpt><trkpt lat="43.13083971537657" lon="12.02828326526577"><ele>262.0</ele><time>2026-04-26T09:55:08Z</time></trkpt><trkpt lat="43.130774444831204" lon="12.028334584999172"><ele>262.0</ele><time>2026-04-26T09:55:09Z</time></trkpt><trkpt lat="43.13071205242851" lon="12.028387231119948"><ele>262.0</ele><time>2026-04-26T09:55:10Z</time></trkpt><trkpt lat="43.13065221548352" lon="12.028441936859632"><ele>262.0</ele><time>2026-04-26T09:55:11Z</time></trkpt><trkpt lat="43.130593767932126" lon="12.028494546520813"><ele>262.0</ele><time>2026-04-26T09:55:12Z</time></trkpt><trkpt lat="43.13053143388364" lon="12.028546014071463"><ele>262.0</ele><time>2026-04-26T09:55:12.999Z</time></trkpt><trkpt lat="43.13046955334902" lon="12.028590314405715"><ele>262.0</ele><time>2026-04-26T09:55:13.999Z</time></trkpt><trkpt lat="43.13041031800718" lon="12.028635310256076"><ele>262.0</ele><time>2026-04-26T09:55:14.999Z</time></trkpt><trkpt lat="43.130348868120315" lon="12.028681006824707"><ele>262.0</ele><time>2026-04-26T09:55:15.999Z</time></trkpt><trkpt lat="43.130283475789405" lon="12.028718389468223"><ele>262.0</ele><time>2026-04-26T09:55:16.999Z</time></trkpt><trkpt lat="43.13022100346701" lon="12.028757648644541"><ele>262.0</ele><time>2026-04-26T09:55:17.999Z</time></trkpt><trkpt lat="43.13015943458564" lon="12.02879894556571"><ele>262.0</ele><time>2026-04-26T09:55:18.999Z</time></trkpt><trkpt lat="43.130094497612234" lon="12.028838487772239"><ele>262.0</ele><time>2026-04-26T09:55:19.999Z</time></trkpt><trkpt lat="43.130029833583436" lon="12.02887773945777"><ele>262.0</ele><time>2026-04-26T09:55:20.999Z</time></trkpt><trkpt lat="43.129957852243855" lon="12.028907353642401"><ele>262.0</ele><time>2026-04-26T09:55:21.999Z</time></trkpt><trkpt lat="43.129890416953046" lon="12.028943594821504"><ele>262.0</ele><time>2026-04-26T09:55:22.999Z</time></trkpt><trkpt lat="43.12982597673341" lon="12.028979012592298"><ele>262.0</ele><time>2026-04-26T09:55:23.999Z</time></trkpt><trkpt lat="43.129762368574575" lon="12.029013584665728"><ele>262.0</ele><time>2026-04-26T09:55:24.999Z</time></trkpt><trkpt lat="43.12969876464767" lon="12.029045384775838"><ele>262.14285714285717</ele><time>2026-04-26T09:55:25.999Z</time></trkpt><trkpt lat="43.129635470066766" lon="12.02907532676283"><ele>262.28571428571433</ele><time>2026-04-26T09:55:26.999Z</time></trkpt><trkpt lat="43.12957126336281" lon="12.029102213514477"><ele>262.42857142857144</ele><time>2026-04-26T09:55:27.999Z</time></trkpt><trkpt lat="43.129506517910364" lon="12.029131697476908"><ele>262.57142857142856</ele><time>2026-04-26T09:55:28.999Z</time></trkpt><trkpt lat="43.129442749253016" lon="12.029162712110995"><ele>262.71428571428567</ele><time>2026-04-26T09:55:29.999Z</time></trkpt><trkpt lat="43.12937794337302" lon="12.029190729772747"><ele>262.85714285714283</ele><time>2026-04-26T09:55:30.999Z</time></trkpt><trkpt lat="43.12931507071576" lon="12.029217690616655"><ele>263.0</ele><time>2026-04-26T09:55:31.999Z</time></trkpt><trkpt lat="43.129199493375395" lon="12.029266599548793"><ele>263.0</ele><time>2026-04-26T09:55:33.999Z</time></trkpt><trkpt lat="43.129111173858945" lon="12.029303568829867"><ele>263.0</ele><time>2026-04-26T09:55:35.999Z</time></trkpt><trkpt lat="43.129015246099456" lon="12.029286358282745"><ele>263.0</ele><time>2026-04-26T09:55:38.999Z</time></trkpt><trkpt lat="43.12893101003655" lon="12.029292568466245"><ele>263.0</ele><time>2026-04-26T09:55:40.999Z</time></trkpt><trkpt lat="43.12886671415644" lon="12.029305423709678"><ele>263.0</ele><time>2026-04-26T09:56:50Z</time></trkpt><trkpt lat="43.12880605917152" lon="12.029353782800325"><ele>263.0</ele><time>2026-04-26T09:56:52Z</time></trkpt><trkpt lat="43.1287551271112" lon="12.029473564592314"><ele>263.0</ele><time>2026-04-26T09:56:55Z</time></trkpt><trkpt lat="43.128666321017946" lon="12.029515512325961"><ele>263.0</ele><time>2026-04-26T09:56:57Z</time></trkpt><trkpt lat="43.12855659355732" lon="12.029557874065777"><ele>263.0</ele><time>2026-04-26T09:56:59Z</time></trkpt><trkpt lat="43.12844426786746" lon="12.029606295656377"><ele>263.0</ele><time>2026-04-26T09:57:01Z</time></trkpt><trkpt lat="43.12832378513998" lon="12.029658952694458"><ele>263.0</ele><time>2026-04-26T09:57:03Z</time></trkpt><trkpt lat="43.128262228903495" lon="12.029689188668838"><ele>263.0</ele><time>2026-04-26T09:57:04Z</time></trkpt><trkpt lat="43.12819701380649" lon="12.029715189475523"><ele>263.0</ele><time>2026-04-26T09:57:05Z</time></trkpt><trkpt lat="43.12813002114389" lon="12.029743426565213"><ele>263.0</ele><time>2026-04-26T09:57:06Z</time></trkpt><trkpt lat="43.12806172954167" lon="12.029771855143668"><ele>263.0</ele><time>2026-04-26T09:57:07Z</time></trkpt><trkpt lat="43.127993001182084" lon="12.02980179261862"><ele>263.0</ele><time>2026-04-26T09:57:08Z</time></trkpt><trkpt lat="43.127923613604615" lon="12.029831642186826"><ele>263.0</ele><time>2026-04-26T09:57:09Z</time></trkpt><trkpt lat="43.12785245524862" lon="12.029863542584753"><ele>263.0</ele><time>2026-04-26T09:57:10Z</time></trkpt><trkpt lat="43.127781227333706" lon="12.029894398589505"><ele>263.0</ele><time>2026-04-26T09:57:11Z</time></trkpt><trkpt lat="43.12771021061366" lon="12.029926716916439"><ele>263.0</ele><time>2026-04-26T09:57:12Z</time></trkpt><trkpt lat="43.12763976985195" lon="12.029955122398128"><ele>263.0</ele><time>2026-04-26T09:57:13Z</time></trkpt><trkpt lat="43.127569172986775" lon="12.029993303595623"><ele>263.0</ele><time>2026-04-26T09:57:14Z</time></trkpt><trkpt lat="43.12749762239408" lon="12.030026160076051"><ele>263.0</ele><time>2026-04-26T09:57:15Z</time></trkpt><trkpt lat="43.12735831535018" lon="12.030083766832517"><ele>262.85714285714283</ele><time>2026-04-26T09:57:17Z</time></trkpt><trkpt lat="43.127290125697755" lon="12.030110609782069"><ele>262.71428571428567</ele><time>2026-04-26T09:57:18Z</time></trkpt><trkpt lat="43.127221277105235" lon="12.03014271611698"><ele>262.57142857142856</ele><time>2026-04-26T09:57:19Z</time></trkpt><trkpt lat="43.12715188916053" lon="12.030169963712869"><ele>262.42857142857144</ele><time>2026-04-26T09:57:20Z</time></trkpt><trkpt lat="43.12708372034279" lon="12.030201851984254"><ele>262.28571428571433</ele><time>2026-04-26T09:57:21Z</time></trkpt><trkpt lat="43.127015968943724" lon="12.030233172315986"><ele>262.14285714285717</ele><time>2026-04-26T09:57:22Z</time></trkpt><trkpt lat="43.12694777160759" lon="12.030263134814023"><ele>262.0</ele><time>2026-04-26T09:57:23Z</time></trkpt><trkpt lat="43.126877804308165" lon="12.030293322980718"><ele>262.0</ele><time>2026-04-26T09:57:24Z</time></trkpt><trkpt lat="43.12680969126064" lon="12.030322949845525"><ele>262.0</ele><time>2026-04-26T09:57:25Z</time></trkpt><trkpt lat="43.12673965669132" lon="12.030356521044173"><ele>262.0</ele><time>2026-04-26T09:57:26Z</time></trkpt><trkpt lat="43.12660855288972" lon="12.030417115669065"><ele>262.0</ele><time>2026-04-26T09:57:28Z</time></trkpt><trkpt lat="43.12654013119639" lon="12.030444591567191"><ele>262.0</ele><time>2026-04-26T09:57:29Z</time></trkpt><trkpt lat="43.12646759376424" lon="12.030479392865457"><ele>262.0</ele><time>2026-04-26T09:57:30Z</time></trkpt><trkpt lat="43.12639894991356" lon="12.030510006308138"><ele>262.2857142857143</ele><time>2026-04-26T09:57:31Z</time></trkpt><trkpt lat="43.126328375119066" lon="12.030541565377062"><ele>262.5714285714286</ele><time>2026-04-26T09:57:32Z</time></trkpt><trkpt lat="43.12625996676255" lon="12.030568731766406"><ele>262.8571428571429</ele><time>2026-04-26T09:57:33Z</time></trkpt><trkpt lat="43.12619069121035" lon="12.03059694193669"><ele>263.14285714285717</ele><time>2026-04-26T09:57:34Z</time></trkpt><trkpt lat="43.12612233636282" lon="12.030624456897906"><ele>263.42857142857144</ele><time>2026-04-26T09:57:35Z</time></trkpt><trkpt lat="43.126050915155915" lon="12.03065488079083"><ele>263.7142857142857</ele><time>2026-04-26T09:57:36Z</time></trkpt><trkpt lat="43.125977668119646" lon="12.030689242097605"><ele>264.0</ele><time>2026-04-26T09:57:37Z</time></trkpt><trkpt lat="43.12591044628372" lon="12.03071602748393"><ele>264.0</ele><time>2026-04-26T09:57:38Z</time></trkpt><trkpt lat="43.1258410131216" lon="12.030747263228612"><ele>264.0</ele><time>2026-04-26T09:57:39Z</time></trkpt><trkpt lat="43.125776943135" lon="12.030772449459601"><ele>264.0</ele><time>2026-04-26T09:57:40Z</time></trkpt><trkpt lat="43.125713753097564" lon="12.030799750913385"><ele>264.0</ele><time>2026-04-26T09:57:41Z</time></trkpt><trkpt lat="43.12565041644935" lon="12.030822488540299"><ele>264.0</ele><time>2026-04-26T09:57:42Z</time></trkpt><trkpt lat="43.12558353359463" lon="12.030843480850226"><ele>264.0</ele><time>2026-04-26T09:57:43Z</time></trkpt><trkpt lat="43.12551287546182" lon="12.030868066937954"><ele>264.0</ele><time>2026-04-26T09:57:43.999Z</time></trkpt><trkpt lat="43.125436291361716" lon="12.030883415171544"><ele>264.0</ele><time>2026-04-26T09:57:44.999Z</time></trkpt><trkpt lat="43.12536149702562" lon="12.03089949907462"><ele>264.0</ele><time>2026-04-26T09:57:45.999Z</time></trkpt><trkpt lat="43.12528474753199" lon="12.03091419350608"><ele>264.0</ele><time>2026-04-26T09:57:46.999Z</time></trkpt><trkpt lat="43.12520797116511" lon="12.030933684572632"><ele>264.0</ele><time>2026-04-26T09:57:47.999Z</time></trkpt><trkpt lat="43.12512909748159" lon="12.030951887542393"><ele>264.0</ele><time>2026-04-26T09:57:48.999Z</time></trkpt><trkpt lat="43.12505168473977" lon="12.030968460778734"><ele>264.0</ele><time>2026-04-26T09:57:49.999Z</time></trkpt><trkpt lat="43.12497577164067" lon="12.030983446828621"><ele>264.0</ele><time>2026-04-26T09:57:50.999Z</time></trkpt><trkpt lat="43.12490148556694" lon="12.031000456257296"><ele>264.0</ele><time>2026-04-26T09:57:51.999Z</time></trkpt><trkpt lat="43.12482706897628" lon="12.031017465332342"><ele>264.0</ele><time>2026-04-26T09:57:52.999Z</time></trkpt><trkpt lat="43.12475787977018" lon="12.031024017844503"><ele>264.0</ele><time>2026-04-26T09:57:53.999Z</time></trkpt><trkpt lat="43.12469591746346" lon="12.030998366754176"><ele>264.0</ele><time>2026-04-26T09:57:54.999Z</time></trkpt><trkpt lat="43.12463575422557" lon="12.030845445570673"><ele>264.0</ele><time>2026-04-26T09:57:56.999Z</time></trkpt><trkpt lat="43.124624639303185" lon="12.030736359947797"><ele>263.7142857142857</ele><time>2026-04-26T09:57:57.999Z</time></trkpt><trkpt lat="43.12461675305558" lon="12.030635326808092"><ele>263.42857142857144</ele><time>2026-04-26T09:57:58.999Z</time></trkpt><trkpt lat="43.12461615744771" lon="12.03053479754125"><ele>263.14285714285717</ele><time>2026-04-26T09:57:59.999Z</time></trkpt><trkpt lat="43.1246117195987" lon="12.030438678486727"><ele>262.8571428571429</ele><time>2026-04-26T09:58:00.999Z</time></trkpt><trkpt lat="43.12460456121352" lon="12.030345264740303"><ele>262.5714285714286</ele><time>2026-04-26T09:58:01.999Z</time></trkpt><trkpt lat="43.12459779251024" lon="12.03025198759948"><ele>262.2857142857143</ele><time>2026-04-26T09:58:02.999Z</time></trkpt><trkpt lat="43.12459242336245" lon="12.030160007609114"><ele>262.0</ele><time>2026-04-26T09:58:03.999Z</time></trkpt><trkpt lat="43.12458405582389" lon="12.030070304314783"><ele>262.0</ele><time>2026-04-26T09:58:04.999Z</time></trkpt><trkpt lat="43.124579353211175" lon="12.02998386577395"><ele>262.0</ele><time>2026-04-26T09:58:05.999Z</time></trkpt><trkpt lat="43.12456328515759" lon="12.029823657769915"><ele>262.0</ele><time>2026-04-26T09:58:08Z</time></trkpt><trkpt lat="43.12448698304538" lon="12.029701491287323"><ele>262.0</ele><time>2026-04-26T09:58:10Z</time></trkpt><trkpt lat="43.1243819930541" lon="12.029677012499876"><ele>262.0</ele><time>2026-04-26T09:58:12Z</time></trkpt><trkpt lat="43.124317520991134" lon="12.029701429284822"><ele>262.0</ele><time>2026-04-26T09:58:14Z</time></trkpt><trkpt lat="43.124292143707216" lon="12.029887916331273"><ele>262.0</ele><time>2026-04-26T09:58:16Z</time></trkpt><trkpt lat="43.124297285777" lon="12.029978519334355"><ele>262.0</ele><time>2026-04-26T09:58:17Z</time></trkpt><trkpt lat="43.12428982021696" lon="12.030135470457795"><ele>262.0</ele><time>2026-04-26T09:58:19Z</time></trkpt><trkpt lat="43.124316896500915" lon="12.030289142866668"><ele>262.0</ele><time>2026-04-26T09:58:21Z</time></trkpt><trkpt lat="43.124337140000215" lon="12.030445840295002"><ele>262.0</ele><time>2026-04-26T09:58:23Z</time></trkpt><trkpt lat="43.124359098787636" lon="12.030610907804064"><ele>262.0</ele><time>2026-04-26T09:58:25Z</time></trkpt><trkpt lat="43.12436681482501" lon="12.030697808046577"><ele>262.0</ele><time>2026-04-26T09:58:26Z</time></trkpt><trkpt lat="43.12437491309243" lon="12.03078616163643"><ele>262.0</ele><time>2026-04-26T09:58:27Z</time></trkpt><trkpt lat="43.124405384473036" lon="12.030950502425734"><ele>262.0</ele><time>2026-04-26T09:58:29Z</time></trkpt><trkpt lat="43.12442257572287" lon="12.031090053068198"><ele>262.4</ele><time>2026-04-26T09:58:31Z</time></trkpt><trkpt lat="43.124436920376255" lon="12.031246575414315"><ele>262.79999999999995</ele><time>2026-04-26T09:58:33Z</time></trkpt><trkpt lat="43.12445743874191" lon="12.031394477127158"><ele>263.2</ele><time>2026-04-26T09:58:35Z</time></trkpt><trkpt lat="43.124481126342936" lon="12.031535715365292"><ele>263.59999999999997</ele><time>2026-04-26T09:58:37Z</time></trkpt><trkpt lat="43.124487392975205" lon="12.031655590891386"><ele>264.0</ele><time>2026-04-26T09:58:39Z</time></trkpt><trkpt lat="43.12450384311137" lon="12.031800313777984"><ele>264.0</ele><time>2026-04-26T09:58:41Z</time></trkpt><trkpt lat="43.12452255891435" lon="12.03194348393521"><ele>264.0</ele><time>2026-04-26T09:58:43Z</time></trkpt><trkpt lat="43.12453110474643" lon="12.032100174413523"><ele>264.0</ele><time>2026-04-26T09:58:45Z</time></trkpt><trkpt lat="43.12454649592356" lon="12.032238561955685"><ele>264.0</ele><time>2026-04-26T09:58:47Z</time></trkpt><trkpt lat="43.12456836494206" lon="12.032377664856414"><ele>264.0</ele><time>2026-04-26T09:58:49Z</time></trkpt><trkpt lat="43.1245839662425" lon="12.032527574556791"><ele>264.25</ele><time>2026-04-26T09:58:51Z</time></trkpt><trkpt lat="43.12460317169728" lon="12.032680449482427"><ele>264.5</ele><time>2026-04-26T09:58:53Z</time></trkpt><trkpt lat="43.124621044217456" lon="12.03283698378374"><ele>264.75</ele><time>2026-04-26T09:58:55Z</time></trkpt><trkpt lat="43.12463593053351" lon="12.032995247519473"><ele>265.0</ele><time>2026-04-26T09:58:57Z</time></trkpt><trkpt lat="43.12465848451479" lon="12.03316030311384"><ele>265.0</ele><time>2026-04-26T09:58:59Z</time></trkpt><trkpt lat="43.124679081177" lon="12.033324262787813"><ele>265.0</ele><time>2026-04-26T09:59:01Z</time></trkpt><trkpt lat="43.12469854753737" lon="12.033488154440585"><ele>265.0</ele><time>2026-04-26T09:59:03Z</time></trkpt><trkpt lat="43.124715853067784" lon="12.033653327353175"><ele>265.0</ele><time>2026-04-26T09:59:05Z</time></trkpt><trkpt lat="43.124737999232735" lon="12.03382070127179"><ele>265.0</ele><time>2026-04-26T09:59:07Z</time></trkpt><trkpt lat="43.1247575974791" lon="12.033984316684855"><ele>265.0</ele><time>2026-04-26T09:59:09Z</time></trkpt><trkpt lat="43.124772219492336" lon="12.034134412176154"><ele>265.0</ele><time>2026-04-26T09:59:11Z</time></trkpt><trkpt lat="43.124792951886754" lon="12.034287718582043"><ele>265.0</ele><time>2026-04-26T09:59:13Z</time></trkpt><trkpt lat="43.12481163764161" lon="12.034448573587092"><ele>265.0</ele><time>2026-04-26T09:59:15Z</time></trkpt><trkpt lat="43.12483249976885" lon="12.034618121676752"><ele>265.0</ele><time>2026-04-26T09:59:17Z</time></trkpt><trkpt lat="43.124841346046836" lon="12.034705002480576"><ele>265.0</ele><time>2026-04-26T09:59:18Z</time></trkpt><trkpt lat="43.12485543996689" lon="12.03485387339145"><ele>265.0</ele><time>2026-04-26T09:59:20Z</time></trkpt><trkpt lat="43.12487434256485" lon="12.034993902118485"><ele>265.0</ele><time>2026-04-26T09:59:22Z</time></trkpt><trkpt lat="43.124888486911935" lon="12.035116113500463"><ele>265.0</ele><time>2026-04-26T09:59:24Z</time></trkpt><trkpt lat="43.12490075942263" lon="12.035243288094325"><ele>265.0</ele><time>2026-04-26T09:59:26Z</time></trkpt><trkpt lat="43.12493305292775" lon="12.035385936391043"><ele>265.0</ele><time>2026-04-26T09:59:28Z</time></trkpt><trkpt lat="43.12494241051966" lon="12.035538044260244"><ele>265.0</ele><time>2026-04-26T09:59:30Z</time></trkpt><trkpt lat="43.12495910003691" lon="12.03567482990715"><ele>265.0</ele><time>2026-04-26T09:59:32Z</time></trkpt><trkpt lat="43.12497634260451" lon="12.0358330463717"><ele>265.0</ele><time>2026-04-26T09:59:34Z</time></trkpt><trkpt lat="43.124994753015145" lon="12.03599720328086"><ele>265.0</ele><time>2026-04-26T09:59:36Z</time></trkpt><trkpt lat="43.12501382194109" lon="12.03615735449569"><ele>265.0</ele><time>2026-04-26T09:59:38Z</time></trkpt><trkpt lat="43.12503382504428" lon="12.03632166052269"><ele>265.0</ele><time>2026-04-26T09:59:40Z</time></trkpt><trkpt lat="43.12505175825984" lon="12.036486915281127"><ele>265.0</ele><time>2026-04-26T09:59:42Z</time></trkpt><trkpt lat="43.125069775061476" lon="12.036649869294333"><ele>265.0</ele><time>2026-04-26T09:59:44Z</time></trkpt><trkpt lat="43.12508677587435" lon="12.036813241321074"><ele>265.0</ele><time>2026-04-26T09:59:46Z</time></trkpt><trkpt lat="43.125109545978944" lon="12.036968673133558"><ele>265.0</ele><time>2026-04-26T09:59:48Z</time></trkpt><trkpt lat="43.12512677702464" lon="12.037125152825716"><ele>265.0</ele><time>2026-04-26T09:59:50Z</time></trkpt><trkpt lat="43.12514359712776" lon="12.037284852957928"><ele>265.0</ele><time>2026-04-26T09:59:52Z</time></trkpt><trkpt lat="43.1251644516458" lon="12.037444221593516"><ele>265.0</ele><time>2026-04-26T09:59:54Z</time></trkpt><trkpt lat="43.12517975631259" lon="12.037608179674354"><ele>265.0</ele><time>2026-04-26T09:59:55.999Z</time></trkpt><trkpt lat="43.12519914852004" lon="12.037771231207552"><ele>265.25</ele><time>2026-04-26T09:59:57.999Z</time></trkpt><trkpt lat="43.12522067042477" lon="12.037926451757935"><ele>265.5</ele><time>2026-04-26T09:59:59.999Z</time></trkpt><trkpt lat="43.125239229122215" lon="12.038088503868998"><ele>265.75</ele><time>2026-04-26T10:00:01.999Z</time></trkpt><trkpt lat="43.125258968914956" lon="12.03824818126798"><ele>266.0</ele><time>2026-04-26T10:00:03.999Z</time></trkpt><trkpt lat="43.12527899792144" lon="12.038407139235732"><ele>266.0</ele><time>2026-04-26T10:00:05.999Z</time></trkpt><trkpt lat="43.125298421756376" lon="12.038565221030208"><ele>266.0</ele><time>2026-04-26T10:00:07.999Z</time></trkpt><trkpt lat="43.125319149528686" lon="12.038727782066594"><ele>266.0</ele><time>2026-04-26T10:00:09.999Z</time></trkpt><trkpt lat="43.125330680642996" lon="12.038816829188702"><ele>266.0</ele><time>2026-04-26T10:00:10.999Z</time></trkpt><trkpt lat="43.125331001441744" lon="12.038903755875106"><ele>266.0</ele><time>2026-04-26T10:00:11.999Z</time></trkpt><trkpt lat="43.12535064387722" lon="12.038991448691965"><ele>266.0</ele><time>2026-04-26T10:00:13Z</time></trkpt><trkpt lat="43.12536446308038" lon="12.039162014066687"><ele>265.8</ele><time>2026-04-26T10:00:15Z</time></trkpt><trkpt lat="43.12538475915215" lon="12.03933279257304"><ele>265.6</ele><time>2026-04-26T10:00:17Z</time></trkpt><trkpt lat="43.125400790849596" lon="12.039481587571316"><ele>265.4</ele><time>2026-04-26T10:00:19Z</time></trkpt><trkpt lat="43.1254157862282" lon="12.039610393469625"><ele>265.2</ele><time>2026-04-26T10:00:21Z</time></trkpt><trkpt lat="43.12543631658043" lon="12.039725187793454"><ele>265.0</ele><time>2026-04-26T10:00:23Z</time></trkpt><trkpt lat="43.12544926058718" lon="12.039842822304113"><ele>265.0</ele><time>2026-04-26T10:00:25Z</time></trkpt><trkpt lat="43.12545753184234" lon="12.03993787265116"><ele>265.0</ele><time>2026-04-26T10:00:28Z</time></trkpt><trkpt lat="43.12547278104886" lon="12.040045208800509"><ele>265.0</ele><time>2026-04-26T10:00:30Z</time></trkpt><trkpt lat="43.12548729085696" lon="12.040152364421614"><ele>265.0</ele><time>2026-04-26T10:00:34Z</time></trkpt><trkpt lat="43.12555162492701" lon="12.04007328838671"><ele>265.0</ele><time>2026-04-26T10:00:37Z</time></trkpt><trkpt lat="43.12559759757266" lon="12.040002231293839"><ele>265.0</ele><time>2026-04-26T10:00:39Z</time></trkpt><trkpt lat="43.125654686453196" lon="12.039954589897732"><ele>265.0</ele><time>2026-04-26T10:00:42Z</time></trkpt><trkpt lat="43.125589574049954" lon="12.040049130429285"><ele>265.0</ele><time>2026-04-26T10:01:31Z</time></trkpt><trkpt lat="43.125583964926136" lon="12.040152661657132"><ele>265.0</ele><time>2026-04-26T10:01:33Z</time></trkpt><trkpt lat="43.12560310669083" lon="12.040287618294037"><ele>265.0</ele><time>2026-04-26T10:01:35Z</time></trkpt><trkpt lat="43.125613224107305" lon="12.04042030713109"><ele>265.0</ele><time>2026-04-26T10:01:37Z</time></trkpt><trkpt lat="43.12562505512863" lon="12.040532243739074"><ele>265.0</ele><time>2026-04-26T10:01:39Z</time></trkpt><trkpt lat="43.12565447549632" lon="12.040620244366172"><ele>265.0</ele><time>2026-04-26T10:01:42Z</time></trkpt><trkpt lat="43.12574894571176" lon="12.04063668745298"><ele>265.0</ele><time>2026-04-26T10:01:45Z</time></trkpt><trkpt lat="43.125842656782794" lon="12.040607692030703"><ele>265.0</ele><time>2026-04-26T10:01:47Z</time></trkpt><trkpt lat="43.12594391536992" lon="12.040560386884898"><ele>265.0</ele><time>2026-04-26T10:01:49Z</time></trkpt><trkpt lat="43.1260534259883" lon="12.040526962667677"><ele>265.0</ele><time>2026-04-26T10:01:51Z</time></trkpt><trkpt lat="43.12615402413197" lon="12.040489705211488"><ele>265.0</ele><time>2026-04-26T10:01:53Z</time></trkpt><trkpt lat="43.12623507238151" lon="12.040434778935719"><ele>265.0</ele><time>2026-04-26T10:01:55Z</time></trkpt><trkpt lat="43.1263269998898" lon="12.040406670522366"><ele>265.0</ele><time>2026-04-26T10:01:58Z</time></trkpt><trkpt lat="43.12640966760767" lon="12.040386516880838"><ele>265.0</ele><time>2026-04-26T10:02:00.999Z</time></trkpt><trkpt lat="43.126581659701536" lon="12.040268754294608"><ele>265.5</ele><time>2026-04-26T10:02:02.999Z</time></trkpt><trkpt lat="43.12634650554413" lon="12.040332489744902"><ele>266.0</ele><time>2026-04-26T10:02:03.999Z</time></trkpt><trkpt lat="43.126286533375655" lon="12.040369598534427"><ele>266.5</ele><time>2026-04-26T10:02:04.999Z</time></trkpt><trkpt lat="43.12619676282073" lon="12.040414324038856"><ele>267.0</ele><time>2026-04-26T10:02:06.999Z</time></trkpt><trkpt lat="43.12627522854177" lon="12.040462472779982"><ele>267.0</ele><time>2026-04-26T10:02:10.999Z</time></trkpt><trkpt lat="43.126386277666114" lon="12.040424594456253"><ele>267.0</ele><time>2026-04-26T10:02:12.999Z</time></trkpt><trkpt lat="43.12646006805715" lon="12.040355931260857"><ele>267.0</ele><time>2026-04-26T10:02:14.999Z</time></trkpt><trkpt lat="43.126549642838015" lon="12.040329857851043"><ele>267.0</ele><time>2026-04-26T10:02:16.999Z</time></trkpt><trkpt lat="43.12663565488459" lon="12.040304821658706"><ele>267.0</ele><time>2026-04-26T10:02:19Z</time></trkpt><trkpt lat="43.12671947435138" lon="12.040280423842397"><ele>266.6</ele><time>2026-04-26T10:02:21Z</time></trkpt><trkpt lat="43.12679474923187" lon="12.040258513153164"><ele>266.2</ele><time>2026-04-26T10:02:23Z</time></trkpt><trkpt lat="43.12686414999455" lon="12.040238312279818"><ele>265.8</ele><time>2026-04-26T10:02:26Z</time></trkpt><trkpt lat="43.12691948128184" lon="12.040459108773046"><ele>265.4</ele><time>2026-04-26T10:02:28Z</time></trkpt><trkpt lat="43.12692848665273" lon="12.040594936765578"><ele>265.0</ele><time>2026-04-26T10:02:30Z</time></trkpt><trkpt lat="43.12694538125117" lon="12.040727137626813"><ele>264.8</ele><time>2026-04-26T10:02:32Z</time></trkpt><trkpt lat="43.12697610497231" lon="12.04089565955574"><ele>264.6</ele><time>2026-04-26T10:02:34Z</time></trkpt><trkpt lat="43.12698946597108" lon="12.040995998230779"><ele>264.4</ele><time>2026-04-26T10:02:35Z</time></trkpt><trkpt lat="43.12698908051738" lon="12.04109635777668"><ele>264.2</ele><time>2026-04-26T10:02:36Z</time></trkpt><trkpt lat="43.12697853345366" lon="12.041255126917893"><ele>264.0</ele><time>2026-04-26T10:02:38Z</time></trkpt><trkpt lat="43.12698493307329" lon="12.041413958159216"><ele>264.0</ele><time>2026-04-26T10:02:40Z</time></trkpt><trkpt lat="43.12699246075549" lon="12.041563940469306"><ele>264.0</ele><time>2026-04-26T10:02:42Z</time></trkpt><trkpt lat="43.12699448134222" lon="12.04170619978657"><ele>264.0</ele><time>2026-04-26T10:02:44Z</time></trkpt><trkpt lat="43.12699806758752" lon="12.041843596248144"><ele>264.0</ele><time>2026-04-26T10:02:46Z</time></trkpt><trkpt lat="43.12701625545069" lon="12.041941497359609"><ele>264.0</ele><time>2026-04-26T10:02:48Z</time></trkpt><trkpt lat="43.12710987021858" lon="12.042071172771594"><ele>263.8</ele><time>2026-04-26T10:02:55Z</time></trkpt><trkpt lat="43.127185873078126" lon="12.042060765184381"><ele>263.59999999999997</ele><time>2026-04-26T10:02:57Z</time></trkpt><trkpt lat="43.127265072063125" lon="12.042049027671167"><ele>263.4</ele><time>2026-04-26T10:02:59Z</time></trkpt><trkpt lat="43.127364406382256" lon="12.042033493908015"><ele>263.2</ele><time>2026-04-26T10:03:01Z</time></trkpt><trkpt lat="43.12746343388644" lon="12.04201748478637"><ele>263.0</ele><time>2026-04-26T10:03:03Z</time></trkpt><trkpt lat="43.12756324032904" lon="12.042002058055855"><ele>263.0</ele><time>2026-04-26T10:03:05Z</time></trkpt><trkpt lat="43.12765966474933" lon="12.04198766757441"><ele>263.0</ele><time>2026-04-26T10:03:07Z</time></trkpt><trkpt lat="43.12776336969959" lon="12.041975401005027"><ele>263.0</ele><time>2026-04-26T10:03:09Z</time></trkpt><trkpt lat="43.12786853626557" lon="12.0419622597215"><ele>263.0</ele><time>2026-04-26T10:03:11Z</time></trkpt><trkpt lat="43.127972938483936" lon="12.04194958828302"><ele>263.0</ele><time>2026-04-26T10:03:13Z</time></trkpt><trkpt lat="43.128068405338475" lon="12.041938342815827"><ele>263.0</ele><time>2026-04-26T10:03:15Z</time></trkpt><trkpt lat="43.12815220186886" lon="12.041790718804299"><ele>263.0</ele><time>2026-04-26T10:03:17Z</time></trkpt><trkpt lat="43.128249410897304" lon="12.041796877580495"><ele>263.0</ele><time>2026-04-26T10:03:19Z</time></trkpt><trkpt lat="43.128346386076885" lon="12.041796332905578"><ele>263.0</ele><time>2026-04-26T10:03:21Z</time></trkpt><trkpt lat="43.12844159444" lon="12.041786128000224"><ele>263.0</ele><time>2026-04-26T10:03:23Z</time></trkpt><trkpt lat="43.128505268873006" lon="12.04179862714997"><ele>263.0</ele><time>2026-04-26T10:03:25Z</time></trkpt><trkpt lat="43.128594282375595" lon="12.041835640288387"><ele>263.0</ele><time>2026-04-26T10:03:29Z</time></trkpt><trkpt lat="43.128637851167575" lon="12.041924209976138"><ele>263.0</ele><time>2026-04-26T10:03:30Z</time></trkpt><trkpt lat="43.128723449562884" lon="12.041943841594527"><ele>263.0</ele><time>2026-04-26T10:03:32Z</time></trkpt><trkpt lat="43.12882453140054" lon="12.041983109724052"><ele>263.0</ele><time>2026-04-26T10:03:34Z</time></trkpt><trkpt lat="43.12891270315466" lon="12.042035742170077"><ele>263.0</ele><time>2026-04-26T10:03:36Z</time></trkpt><trkpt lat="43.128987339829116" lon="12.04209684722671"><ele>263.0</ele><time>2026-04-26T10:03:38Z</time></trkpt><trkpt lat="43.12904665680714" lon="12.0421497363197"><ele>263.0</ele><time>2026-04-26T10:03:40Z</time></trkpt><trkpt lat="43.12914657294589" lon="12.042163170293918"><ele>263.0</ele><time>2026-04-26T10:03:42Z</time></trkpt><trkpt lat="43.129214432507005" lon="12.042234404441023"><ele>263.0</ele><time>2026-04-26T10:03:44Z</time></trkpt><trkpt lat="43.12927500724371" lon="12.042276697646507"><ele>263.0</ele><time>2026-04-26T10:03:47Z</time></trkpt><trkpt lat="43.12934804328904" lon="12.04234341764007"><ele>262.6666666666667</ele><time>2026-04-26T10:03:51Z</time></trkpt><trkpt lat="43.12940217308067" lon="12.042402324315637"><ele>262.33333333333337</ele><time>2026-04-26T10:03:53Z</time></trkpt><trkpt lat="43.12948733650842" lon="12.042442523713504"><ele>262.0</ele><time>2026-04-26T10:03:56Z</time></trkpt><trkpt lat="43.12956016743777" lon="12.042395918761946"><ele>261.6666666666667</ele><time>2026-04-26T10:03:59Z</time></trkpt><trkpt lat="43.12963789579096" lon="12.042398702309653"><ele>261.3333333333333</ele><time>2026-04-26T10:04:01Z</time></trkpt><trkpt lat="43.12966541120514" lon="12.04248874647251"><ele>261.0</ele><time>2026-04-26T10:04:04Z</time></trkpt><trkpt lat="43.12967366248305" lon="12.042588146024418"><ele>260.8571428571429</ele><time>2026-04-26T10:04:07Z</time></trkpt><trkpt lat="43.1297059656812" lon="12.042673865442865"><ele>260.7142857142857</ele><time>2026-04-26T10:04:10Z</time></trkpt><trkpt lat="43.12977395418144" lon="12.04271307514227"><ele>260.57142857142856</ele><time>2026-04-26T10:04:12Z</time></trkpt><trkpt lat="43.129850915715416" lon="12.04270449029986"><ele>260.42857142857144</ele><time>2026-04-26T10:04:13.999Z</time></trkpt><trkpt lat="43.12992377411522" lon="12.042677401168486"><ele>260.2857142857143</ele><time>2026-04-26T10:04:15.999Z</time></trkpt><trkpt lat="43.12999137930876" lon="12.042690681765134"><ele>260.14285714285717</ele><time>2026-04-26T10:04:17.999Z</time></trkpt><trkpt lat="43.13005255000487" lon="12.042724589170938"><ele>260.0</ele><time>2026-04-26T10:04:19.999Z</time></trkpt><trkpt lat="43.13011992824729" lon="12.042720311637403"><ele>260.0</ele><time>2026-04-26T10:04:22.999Z</time></trkpt><trkpt lat="43.13018095559901" lon="12.042674055016247"><ele>260.0</ele><time>2026-04-26T10:04:28Z</time></trkpt><trkpt lat="43.13023773637828" lon="12.042721749198698"><ele>260.0</ele><time>2026-04-26T10:04:32Z</time></trkpt><trkpt lat="43.13032835301082" lon="12.042737906036269"><ele>260.0</ele><time>2026-04-26T10:04:34Z</time></trkpt><trkpt lat="43.13040928839765" lon="12.042657302099736"><ele>260.0</ele><time>2026-04-26T10:04:36Z</time></trkpt><trkpt lat="43.13045706808408" lon="12.042551061681888"><ele>260.0</ele><time>2026-04-26T10:04:38Z</time></trkpt><trkpt lat="43.13050622469339" lon="12.04246441568371"><ele>259.8</ele><time>2026-04-26T10:04:40Z</time></trkpt><trkpt lat="43.130568569095466" lon="12.042352725765722"><ele>259.6</ele><time>2026-04-26T10:04:42Z</time></trkpt><trkpt lat="43.13063772095132" lon="12.042254881124805"><ele>259.4</ele><time>2026-04-26T10:04:44Z</time></trkpt><trkpt lat="43.130689796180704" lon="12.042137534500183"><ele>259.2</ele><time>2026-04-26T10:04:46Z</time></trkpt><trkpt lat="43.13073206121496" lon="12.042052351541669"><ele>259.0</ele><time>2026-04-26T10:04:48Z</time></trkpt><trkpt lat="43.13083107815221" lon="12.042027833667165"><ele>259.59999999999997</ele><time>2026-04-26T10:04:50Z</time></trkpt><trkpt lat="43.13089582748926" lon="12.042021349190788"><ele>260.2</ele><time>2026-04-26T10:04:51Z</time></trkpt><trkpt lat="43.13100031884337" lon="12.042054731106992"><ele>260.79999999999995</ele><time>2026-04-26T10:04:53Z</time></trkpt><trkpt lat="43.131103092171024" lon="12.04214901579938"><ele>261.4</ele><time>2026-04-26T10:04:55Z</time></trkpt><trkpt lat="43.131196028836285" lon="12.042233856147982"><ele>262.0</ele><time>2026-04-26T10:04:57Z</time></trkpt><trkpt lat="43.131273833765185" lon="12.042309347631344"><ele>262.0</ele><time>2026-04-26T10:04:59Z</time></trkpt><trkpt lat="43.131334613140766" lon="12.042333715344554"><ele>262.0</ele><time>2026-04-26T10:05:01Z</time></trkpt><trkpt lat="43.13139788811343" lon="12.04238674946271"><ele>262.0</ele><time>2026-04-26T10:05:07Z</time></trkpt><trkpt lat="43.13146178315931" lon="12.042459363324756"><ele>262.0</ele><time>2026-04-26T10:05:11Z</time></trkpt><trkpt lat="43.13154135552689" lon="12.042518175009473"><ele>262.0</ele><time>2026-04-26T10:05:13Z</time></trkpt><trkpt lat="43.131622487090816" lon="12.042573954961062"><ele>262.0</ele><time>2026-04-26T10:05:15Z</time></trkpt><trkpt lat="43.13169972033895" lon="12.042622092678513"><ele>262.0</ele><time>2026-04-26T10:05:17Z</time></trkpt><trkpt lat="43.13178518300954" lon="12.042662902207125"><ele>262.0</ele><time>2026-04-26T10:05:19Z</time></trkpt><trkpt lat="43.13186117106529" lon="12.042746075496833"><ele>262.0</ele><time>2026-04-26T10:05:21Z</time></trkpt><trkpt lat="43.13192671626262" lon="12.042792061462183"><ele>262.0</ele><time>2026-04-26T10:05:23Z</time></trkpt><trkpt lat="43.13199748981962" lon="12.042855401132277"><ele>262.0</ele><time>2026-04-26T10:05:26Z</time></trkpt><trkpt lat="43.13206803750852" lon="12.042908877509863"><ele>262.0</ele><time>2026-04-26T10:05:29Z</time></trkpt><trkpt lat="43.132126942009265" lon="12.042966412125526"><ele>262.0</ele><time>2026-04-26T10:05:31Z</time></trkpt><trkpt lat="43.132181309453145" lon="12.043023397388836"><ele>262.0</ele><time>2026-04-26T10:05:33Z</time></trkpt><trkpt lat="43.13225509350941" lon="12.0430593389433"><ele>262.0</ele><time>2026-04-26T10:05:35Z</time></trkpt><trkpt lat="43.13231622655353" lon="12.043119703157487"><ele>262.0</ele><time>2026-04-26T10:05:37Z</time></trkpt><trkpt lat="43.132367788660204" lon="12.043193961313738"><ele>262.0</ele><time>2026-04-26T10:05:40Z</time></trkpt><trkpt lat="43.132430918085596" lon="12.043241863505564"><ele>262.0</ele><time>2026-04-26T10:05:42Z</time></trkpt><trkpt lat="43.13249888379674" lon="12.043297388774711"><ele>262.0</ele><time>2026-04-26T10:05:44Z</time></trkpt><trkpt lat="43.13259299374728" lon="12.043347607837473"><ele>262.0</ele><time>2026-04-26T10:05:46Z</time></trkpt><trkpt lat="43.132691944688254" lon="12.04342069510557"><ele>262.0</ele><time>2026-04-26T10:05:48Z</time></trkpt><trkpt lat="43.13270523894164" lon="12.043547320383391"><ele>262.0</ele><time>2026-04-26T10:05:49Z</time></trkpt><trkpt lat="43.13281183143915" lon="12.043636688125154"><ele>262.0</ele><time>2026-04-26T10:05:51Z</time></trkpt><trkpt lat="43.13292545601165" lon="12.043731951563144"><ele>262.0</ele><time>2026-04-26T10:05:53Z</time></trkpt><trkpt lat="43.1329878035511" lon="12.043784224127691"><ele>262.0</ele><time>2026-04-26T10:05:54Z</time></trkpt><trkpt lat="43.13304578798192" lon="12.043832838525777"><ele>262.0</ele><time>2026-04-26T10:05:55Z</time></trkpt><trkpt lat="43.13313317794225" lon="12.04390199301728"><ele>262.0</ele><time>2026-04-26T10:05:57Z</time></trkpt><trkpt lat="43.1332104879723" lon="12.043996478841203"><ele>262.0</ele><time>2026-04-26T10:05:59Z</time></trkpt><trkpt lat="43.133264702348725" lon="12.044041339581327"><ele>262.0</ele><time>2026-04-26T10:06:00Z</time></trkpt><trkpt lat="43.13332061037797" lon="12.044087601788705"><ele>261.8333333333333</ele><time>2026-04-26T10:06:01Z</time></trkpt><trkpt lat="43.133417620849066" lon="12.044167875059912"><ele>261.66666666666663</ele><time>2026-04-26T10:06:03Z</time></trkpt><trkpt lat="43.133493614565396" lon="12.044230757578958"><ele>261.5</ele><time>2026-04-26T10:06:05Z</time></trkpt><trkpt lat="43.13353581277929" lon="12.04431426898145"><ele>261.3333333333333</ele><time>2026-04-26T10:06:07Z</time></trkpt><trkpt lat="43.13360891568708" lon="12.04437713198275"><ele>261.1666666666667</ele><time>2026-04-26T10:06:09Z</time></trkpt><trkpt lat="43.13367305045288" lon="12.044304245615928"><ele>261.0</ele><time>2026-04-26T10:06:11Z</time></trkpt><trkpt lat="43.1337397288014" lon="12.044343567713167"><ele>261.0</ele><time>2026-04-26T10:06:13Z</time></trkpt><trkpt lat="43.13378924962029" lon="12.044424033495448"><ele>261.0</ele><time>2026-04-26T10:06:15Z</time></trkpt><trkpt lat="43.13384768412861" lon="12.044546813208417"><ele>261.0</ele><time>2026-04-26T10:06:17Z</time></trkpt><trkpt lat="43.13389255681984" lon="12.044638898160178"><ele>261.0</ele><time>2026-04-26T10:06:19Z</time></trkpt><trkpt lat="43.13387471652379" lon="12.044757976256824"><ele>261.0</ele><time>2026-04-26T10:06:23Z</time></trkpt><trkpt lat="43.13379850006256" lon="12.044850004044317"><ele>261.0</ele><time>2026-04-26T10:06:25Z</time></trkpt><trkpt lat="43.13371022241509" lon="12.044943674991723"><ele>261.0</ele><time>2026-04-26T10:06:26.999Z</time></trkpt><trkpt lat="43.133621667955715" lon="12.04501247596177"><ele>261.0</ele><time>2026-04-26T10:06:28.999Z</time></trkpt><trkpt lat="43.13354988404953" lon="12.045095454981153"><ele>261.0</ele><time>2026-04-26T10:06:31Z</time></trkpt><trkpt lat="43.13348727480613" lon="12.045175787087864"><ele>261.0</ele><time>2026-04-26T10:06:33Z</time></trkpt><trkpt lat="43.133404862316915" lon="12.045248069927323"><ele>261.0</ele><time>2026-04-26T10:06:35Z</time></trkpt><trkpt lat="43.13332498418403" lon="12.045330526057498"><ele>261.0</ele><time>2026-04-26T10:06:37Z</time></trkpt><trkpt lat="43.13324982141888" lon="12.045413722747007"><ele>261.0</ele><time>2026-04-26T10:06:39Z</time></trkpt><trkpt lat="43.133178198697394" lon="12.045490839465874"><ele>261.0</ele><time>2026-04-26T10:06:41Z</time></trkpt><trkpt lat="43.13311203451224" lon="12.045580221038625"><ele>261.0</ele><time>2026-04-26T10:06:43Z</time></trkpt><trkpt lat="43.13303981299638" lon="12.045668911964546"><ele>261.0</ele><time>2026-04-26T10:06:45Z</time></trkpt><trkpt lat="43.132967196093276" lon="12.045759956947343"><ele>261.0</ele><time>2026-04-26T10:06:47Z</time></trkpt><trkpt lat="43.13291246560756" lon="12.045841652034515"><ele>261.0</ele><time>2026-04-26T10:06:49Z</time></trkpt><trkpt lat="43.13295348510877" lon="12.045937625666209"><ele>261.0</ele><time>2026-04-26T10:06:50.999Z</time></trkpt><trkpt lat="43.13297573949127" lon="12.046034797337533"><ele>261.0</ele><time>2026-04-26T10:06:52.999Z</time></trkpt><trkpt lat="43.13303711464774" lon="12.046141485213262"><ele>261.0</ele><time>2026-04-26T10:06:54.999Z</time></trkpt><trkpt lat="43.13305091624024" lon="12.046275890645946"><ele>260.8333333333333</ele><time>2026-04-26T10:06:56.999Z</time></trkpt><trkpt lat="43.133062551759465" lon="12.04639616136229"><ele>260.6666666666667</ele><time>2026-04-26T10:06:58.999Z</time></trkpt><trkpt lat="43.133077926719615" lon="12.046481960505464"><ele>260.5</ele><time>2026-04-26T10:07:00.999Z</time></trkpt><trkpt lat="43.1330208029419" lon="12.04658076836084"><ele>260.33333333333337</ele><time>2026-04-26T10:07:03.999Z</time></trkpt><trkpt lat="43.13296604772968" lon="12.046641286198817"><ele>260.1666666666667</ele><time>2026-04-26T10:07:05.999Z</time></trkpt><trkpt lat="43.132913805699964" lon="12.046701695929455"><ele>260.0</ele><time>2026-04-26T10:07:07.999Z</time></trkpt><trkpt lat="43.13286048445076" lon="12.046764993417375"><ele>259.6666666666667</ele><time>2026-04-26T10:07:09.999Z</time></trkpt><trkpt lat="43.132809871162046" lon="12.046820929530018"><ele>259.33333333333337</ele><time>2026-04-26T10:07:11.999Z</time></trkpt><trkpt lat="43.132749647160786" lon="12.04690903944411"><ele>259.0</ele><time>2026-04-26T10:07:14.999Z</time></trkpt><trkpt lat="43.13266452922267" lon="12.04696728962676"><ele>258.6666666666667</ele><time>2026-04-26T10:07:17.999Z</time></trkpt><trkpt lat="43.13259797372335" lon="12.046998194373563"><ele>258.3333333333333</ele><time>2026-04-26T10:07:19.999Z</time></trkpt><trkpt lat="43.13256722808913" lon="12.047085932820766"><ele>258.0</ele><time>2026-04-26T10:07:21.999Z</time></trkpt><trkpt lat="43.132560789693166" lon="12.047177710501858"><ele>258.0</ele><time>2026-04-26T10:07:23.999Z</time></trkpt><trkpt lat="43.132507856520064" lon="12.047260577030263"><ele>258.0</ele><time>2026-04-26T10:07:26.999Z</time></trkpt><trkpt lat="43.13245510701948" lon="12.047312686159461"><ele>258.0</ele><time>2026-04-26T10:07:30.999Z</time></trkpt><trkpt lat="43.13240504890642" lon="12.047378211695255"><ele>258.0</ele><time>2026-04-26T10:07:34.999Z</time></trkpt><trkpt lat="43.132323915348074" lon="12.047330946034574"><ele>258.0</ele><time>2026-04-26T10:07:41.999Z</time></trkpt><trkpt lat="43.13225621899135" lon="12.047287083286081"><ele>258.0</ele><time>2026-04-26T10:07:44.999Z</time></trkpt><trkpt lat="43.13219484768299" lon="12.047342159925751"><ele>258.1428571428571</ele><time>2026-04-26T10:07:46.999Z</time></trkpt><trkpt lat="43.1321410430268" lon="12.047392006749"><ele>258.2857142857143</ele><time>2026-04-26T10:07:48.999Z</time></trkpt><trkpt lat="43.13208467657722" lon="12.047444349217468"><ele>258.42857142857144</ele><time>2026-04-26T10:07:50.999Z</time></trkpt><trkpt lat="43.132038362918614" lon="12.0475093494488"><ele>258.57142857142856</ele><time>2026-04-26T10:07:52.999Z</time></trkpt><trkpt lat="43.1320031180495" lon="12.047585077331615"><ele>258.7142857142857</ele><time>2026-04-26T10:07:54.999Z</time></trkpt><trkpt lat="43.13194605269276" lon="12.047650340080803"><ele>258.85714285714283</ele><time>2026-04-26T10:07:56.999Z</time></trkpt><trkpt lat="43.13188009502986" lon="12.047715112497983"><ele>259.0</ele><time>2026-04-26T10:07:58.999Z</time></trkpt><trkpt lat="43.131827195371706" lon="12.047781300974275"><ele>259.0</ele><time>2026-04-26T10:08:00.999Z</time></trkpt><trkpt lat="43.13178944718922" lon="12.047859577611678"><ele>259.0</ele><time>2026-04-26T10:08:02.999Z</time></trkpt><trkpt lat="43.13180592644055" lon="12.047943400971654"><ele>259.0</ele><time>2026-04-26T10:08:04.999Z</time></trkpt><trkpt lat="43.13183204959077" lon="12.048056975297133"><ele>259.0</ele><time>2026-04-26T10:08:07.999Z</time></trkpt><trkpt lat="43.13176435622444" lon="12.048151783858852"><ele>259.0</ele><time>2026-04-26T10:08:10.999Z</time></trkpt><trkpt lat="43.13171465060696" lon="12.048218210294309"><ele>259.0</ele><time>2026-04-26T10:08:12.999Z</time></trkpt><trkpt lat="43.13166341914021" lon="12.04829080513014"><ele>258.8333333333333</ele><time>2026-04-26T10:08:14.999Z</time></trkpt><trkpt lat="43.13161416310346" lon="12.048354803508596"><ele>258.66666666666663</ele><time>2026-04-26T10:08:16.999Z</time></trkpt><trkpt lat="43.13155804384955" lon="12.04842573921189"><ele>258.5</ele><time>2026-04-26T10:08:18.999Z</time></trkpt><trkpt lat="43.13150166706401" lon="12.048505927612785"><ele>258.3333333333333</ele><time>2026-04-26T10:08:20.999Z</time></trkpt><trkpt lat="43.131441603005236" lon="12.048584614404126"><ele>258.1666666666667</ele><time>2026-04-26T10:08:22.999Z</time></trkpt><trkpt lat="43.1313838569934" lon="12.048660465886845"><ele>258.0</ele><time>2026-04-26T10:08:24.999Z</time></trkpt><trkpt lat="43.131325698038566" lon="12.048730611723293"><ele>257.99999999999994</ele><time>2026-04-26T10:08:26.999Z</time></trkpt><trkpt lat="43.13126533115664" lon="12.048791234167512"><ele>258.0</ele><time>2026-04-26T10:08:28.999Z</time></trkpt><trkpt lat="43.131193482295274" lon="12.048811949163762"><ele>258.0</ele><time>2026-04-26T10:08:30.999Z</time></trkpt><trkpt lat="43.131131154591365" lon="12.048855014294533"><ele>258.0</ele><time>2026-04-26T10:08:33.999Z</time></trkpt><trkpt lat="43.131084201376" lon="12.048929220178454"><ele>258.0</ele><time>2026-04-26T10:08:37Z</time></trkpt><trkpt lat="43.13101632632372" lon="12.04901139858126"><ele>257.99999999999994</ele><time>2026-04-26T10:08:40Z</time></trkpt><trkpt lat="43.13096627890488" lon="12.049076347033765"><ele>258.0</ele><time>2026-04-26T10:08:42Z</time></trkpt><trkpt lat="43.130915885253145" lon="12.049137811050555"><ele>258.0</ele><time>2026-04-26T10:08:44Z</time></trkpt><trkpt lat="43.130868684640674" lon="12.049211498657439"><ele>258.0</ele><time>2026-04-26T10:08:46Z</time></trkpt><trkpt lat="43.13081788719501" lon="12.049280975196535"><ele>258.0</ele><time>2026-04-26T10:08:48Z</time></trkpt><trkpt lat="43.13074979904472" lon="12.049357346156725"><ele>258.0</ele><time>2026-04-26T10:08:50Z</time></trkpt><trkpt lat="43.130682689517855" lon="12.049434843208907"><ele>258.0</ele><time>2026-04-26T10:08:52Z</time></trkpt><trkpt lat="43.130616751937474" lon="12.049504761886542"><ele>258.0</ele><time>2026-04-26T10:08:54Z</time></trkpt><trkpt lat="43.13055754909664" lon="12.04957792486842"><ele>258.0</ele><time>2026-04-26T10:08:56Z</time></trkpt><trkpt lat="43.130511569379514" lon="12.049649628272093"><ele>258.0</ele><time>2026-04-26T10:08:58Z</time></trkpt><trkpt lat="43.130459533534015" lon="12.049731515243705"><ele>258.0</ele><time>2026-04-26T10:09:00Z</time></trkpt><trkpt lat="43.13040211925584" lon="12.049818720852347"><ele>258.0</ele><time>2026-04-26T10:09:02Z</time></trkpt><trkpt lat="43.13034648829797" lon="12.049889367787609"><ele>258.0</ele><time>2026-04-26T10:09:04Z</time></trkpt><trkpt lat="43.13028747117909" lon="12.049949614895931"><ele>258.0</ele><time>2026-04-26T10:09:05.999Z</time></trkpt><trkpt lat="43.13022459396772" lon="12.05002190191345"><ele>257.85714285714283</ele><time>2026-04-26T10:09:07.999Z</time></trkpt><trkpt lat="43.13019068633868" lon="12.050099811803566"><ele>257.7142857142857</ele><time>2026-04-26T10:09:09.999Z</time></trkpt><trkpt lat="43.130167597427814" lon="12.050183657494642"><ele>257.57142857142856</ele><time>2026-04-26T10:09:11.999Z</time></trkpt><trkpt lat="43.13013814822026" lon="12.050274057968732"><ele>257.42857142857144</ele><time>2026-04-26T10:09:13.999Z</time></trkpt><trkpt lat="43.130099117894645" lon="12.050342234931206"><ele>257.2857142857143</ele><time>2026-04-26T10:09:15.999Z</time></trkpt><trkpt lat="43.13003890017556" lon="12.050371339228787"><ele>257.1428571428571</ele><time>2026-04-26T10:09:17.999Z</time></trkpt><trkpt lat="43.12999400783653" lon="12.050447372053615"><ele>257.0</ele><time>2026-04-26T10:09:19.999Z</time></trkpt><trkpt lat="43.12995206522037" lon="12.050544532206374"><ele>257.6666666666667</ele><time>2026-04-26T10:09:21.999Z</time></trkpt><trkpt lat="43.12988680811699" lon="12.050623867647092"><ele>258.33333333333337</ele><time>2026-04-26T10:09:23.999Z</time></trkpt><trkpt lat="43.12980831824108" lon="12.050678049275481"><ele>259.0</ele><time>2026-04-26T10:09:25.999Z</time></trkpt><trkpt lat="43.12974627789185" lon="12.050742441078828"><ele>259.6666666666667</ele><time>2026-04-26T10:09:27.999Z</time></trkpt><trkpt lat="43.129724250158496" lon="12.050833919632456"><ele>260.3333333333333</ele><time>2026-04-26T10:09:29.999Z</time></trkpt><trkpt lat="43.12971111047703" lon="12.050922986850809"><ele>261.0</ele><time>2026-04-26T10:09:31.999Z</time></trkpt><trkpt lat="43.1296821258087" lon="12.051035043006948"><ele>261.0</ele><time>2026-04-26T10:09:34.999Z</time></trkpt><trkpt lat="43.12964347258948" lon="12.051152860464255"><ele>261.0</ele><time>2026-04-26T10:09:36.999Z</time></trkpt><trkpt lat="43.12962067337226" lon="12.051266279660629"><ele>261.0</ele><time>2026-04-26T10:09:38.999Z</time></trkpt><trkpt lat="43.12959437646379" lon="12.05138305942012"><ele>261.0</ele><time>2026-04-26T10:09:40.999Z</time></trkpt><trkpt lat="43.129554963016375" lon="12.051488835179123"><ele>261.0</ele><time>2026-04-26T10:09:42.999Z</time></trkpt><trkpt lat="43.12952897268063" lon="12.051591735039962"><ele>261.0</ele><time>2026-04-26T10:09:44.999Z</time></trkpt><trkpt lat="43.129501235393455" lon="12.051700087641214"><ele>261.0</ele><time>2026-04-26T10:09:46.999Z</time></trkpt><trkpt lat="43.12948271362109" lon="12.051800261987973"><ele>261.0</ele><time>2026-04-26T10:09:48.999Z</time></trkpt><trkpt lat="43.12944427911635" lon="12.051898864341982"><ele>261.0</ele><time>2026-04-26T10:09:50.999Z</time></trkpt><trkpt lat="43.12942348274912" lon="12.052006755742562"><ele>261.0</ele><time>2026-04-26T10:09:52.999Z</time></trkpt><trkpt lat="43.1294141086097" lon="12.052105150728428"><ele>261.0</ele><time>2026-04-26T10:09:54.999Z</time></trkpt><trkpt lat="43.12940335035244" lon="12.052190995467521"><ele>261.0</ele><time>2026-04-26T10:09:56.999Z</time></trkpt><trkpt lat="43.12940333835083" lon="12.05231239532935"><ele>261.0</ele><time>2026-04-26T10:09:59.999Z</time></trkpt><trkpt lat="43.12941143009801" lon="12.052425331560233"><ele>261.0</ele><time>2026-04-26T10:10:01.999Z</time></trkpt><trkpt lat="43.12941036385334" lon="12.0525399574835"><ele>261.0</ele><time>2026-04-26T10:10:03.999Z</time></trkpt><trkpt lat="43.129415123433496" lon="12.052638407054973"><ele>261.0</ele><time>2026-04-26T10:10:05.999Z</time></trkpt><trkpt lat="43.12942977881097" lon="12.052724387450027"><ele>261.0</ele><time>2026-04-26T10:10:08.999Z</time></trkpt><trkpt lat="43.129452822901804" lon="12.05284162324623"><ele>261.0</ele><time>2026-04-26T10:10:11.999Z</time></trkpt><trkpt lat="43.129452529836" lon="12.052929410979228"><ele>261.42857142857144</ele><time>2026-04-26T10:10:13.999Z</time></trkpt><trkpt lat="43.12943970596091" lon="12.053026016760043"><ele>261.85714285714283</ele><time>2026-04-26T10:10:15.999Z</time></trkpt><trkpt lat="43.12941973017217" lon="12.053120206292355"><ele>262.2857142857143</ele><time>2026-04-26T10:10:17.999Z</time></trkpt><trkpt lat="43.129403502104" lon="12.053212013362216"><ele>262.7142857142857</ele><time>2026-04-26T10:10:19.999Z</time></trkpt><trkpt lat="43.12939695999489" lon="12.053304393568508"><ele>263.14285714285717</ele><time>2026-04-26T10:10:21.999Z</time></trkpt><trkpt lat="43.12938928371479" lon="12.053400263064992"><ele>263.57142857142856</ele><time>2026-04-26T10:10:23.999Z</time></trkpt><trkpt lat="43.12938418639223" lon="12.053531026405908"><ele>264.0</ele><time>2026-04-26T10:10:26.999Z</time></trkpt><trkpt lat="43.12941362389646" lon="12.05361732019532"><ele>264.0</ele><time>2026-04-26T10:10:28.999Z</time></trkpt><trkpt lat="43.129447864254324" lon="12.053696800226506"><ele>264.0</ele><time>2026-04-26T10:10:30.999Z</time></trkpt><trkpt lat="43.129480409403044" lon="12.05378628683424"><ele>264.0</ele><time>2026-04-26T10:10:32.999Z</time></trkpt><trkpt lat="43.12948951295935" lon="12.053875745122419"><ele>264.0</ele><time>2026-04-26T10:10:34.999Z</time></trkpt><trkpt lat="43.12952383144215" lon="12.053948949582693"><ele>264.0</ele><time>2026-04-26T10:10:36.999Z</time></trkpt><trkpt lat="43.12954202080848" lon="12.054060690448257"><ele>264.0</ele><time>2026-04-26T10:10:41Z</time></trkpt></trkseg><trkseg><trkpt lat="43.12955044099647" lon="12.053995747280613"><ele>264.0</ele><time>2026-04-26T11:11:03Z</time></trkpt><trkpt lat="43.12955942109439" lon="12.053887303799943"><ele>264.0</ele><time>2026-04-26T11:11:06Z</time></trkpt><trkpt lat="43.129517578428356" lon="12.053804547792785"><ele>264.0</ele><time>2026-04-26T11:11:09Z</time></trkpt><trkpt lat="43.12947632869097" lon="12.053708462497434"><ele>264.0</ele><time>2026-04-26T11:11:12Z</time></trkpt><trkpt lat="43.129434042512585" lon="12.053639649071922"><ele>264.0</ele><time>2026-04-26T11:11:14Z</time></trkpt><trkpt lat="43.129416779858374" lon="12.053544844718022"><ele>264.0</ele><time>2026-04-26T11:11:16Z</time></trkpt><trkpt lat="43.12939485466326" lon="12.053420417550543"><ele>264.0</ele><time>2026-04-26T11:11:19Z</time></trkpt><trkpt lat="43.12939710125802" lon="12.053300621752678"><ele>264.0</ele><time>2026-04-26T11:11:22Z</time></trkpt><trkpt lat="43.12937942579892" lon="12.053188466108612"><ele>264.0</ele><time>2026-04-26T11:11:25Z</time></trkpt><trkpt lat="43.12931498231859" lon="12.053158127040948"><ele>264.0</ele><time>2026-04-26T11:11:27Z</time></trkpt><trkpt lat="43.129243080105326" lon="12.053131031912525"><ele>264.0</ele><time>2026-04-26T11:11:30Z</time></trkpt><trkpt lat="43.12924149665409" lon="12.053042333672218"><ele>264.0</ele><time>2026-04-26T11:11:32Z</time></trkpt><trkpt lat="43.12923890663583" lon="12.052932911149641"><ele>264.0</ele><time>2026-04-26T11:11:34Z</time></trkpt><trkpt lat="43.12922195967159" lon="12.052832266425531"><ele>264.0</ele><time>2026-04-26T11:11:36Z</time></trkpt><trkpt lat="43.12919837414745" lon="12.052704930410078"><ele>264.0</ele><time>2026-04-26T11:11:38Z</time></trkpt><trkpt lat="43.12920595141253" lon="12.05260372959371"><ele>264.0</ele><time>2026-04-26T11:11:39Z</time></trkpt><trkpt lat="43.12920885794762" lon="12.052513983928707"><ele>264.0</ele><time>2026-04-26T11:11:40Z</time></trkpt><trkpt lat="43.12919770783925" lon="12.052336012042275"><ele>264.0</ele><time>2026-04-26T11:11:42Z</time></trkpt><trkpt lat="43.12918666228811" lon="12.052243659990475"><ele>263.85714285714283</ele><time>2026-04-26T11:11:43Z</time></trkpt><trkpt lat="43.12918532611514" lon="12.05214760499606"><ele>263.7142857142857</ele><time>2026-04-26T11:11:44Z</time></trkpt><trkpt lat="43.129184756230146" lon="12.05204949857437"><ele>263.57142857142856</ele><time>2026-04-26T11:11:45Z</time></trkpt><trkpt lat="43.129185394911474" lon="12.051951650279321"><ele>263.42857142857144</ele><time>2026-04-26T11:11:46Z</time></trkpt><trkpt lat="43.12918123358414" lon="12.051855998415656"><ele>263.2857142857143</ele><time>2026-04-26T11:11:47Z</time></trkpt><trkpt lat="43.1291590292908" lon="12.051774900990775"><ele>263.1428571428571</ele><time>2026-04-26T11:11:48Z</time></trkpt><trkpt lat="43.129167888667" lon="12.051675720125125"><ele>263.0</ele><time>2026-04-26T11:11:49Z</time></trkpt><trkpt lat="43.129166589973416" lon="12.05152435886921"><ele>263.0</ele><time>2026-04-26T11:11:51Z</time></trkpt><trkpt lat="43.12916526259512" lon="12.051425358845043"><ele>263.0</ele><time>2026-04-26T11:11:53Z</time></trkpt><trkpt lat="43.12916013591442" lon="12.051307432137751"><ele>263.0</ele><time>2026-04-26T11:11:56Z</time></trkpt><trkpt lat="43.12915927611056" lon="12.05118333212846"><ele>263.0</ele><time>2026-04-26T11:11:58Z</time></trkpt><trkpt lat="43.129162185195895" lon="12.051030152436509"><ele>263.0</ele><time>2026-04-26T11:12:00Z</time></trkpt><trkpt lat="43.129161018852436" lon="12.050942867399968"><ele>263.0</ele><time>2026-04-26T11:12:01Z</time></trkpt><trkpt lat="43.12915817666666" lon="12.050853338066311"><ele>262.7142857142857</ele><time>2026-04-26T11:12:02Z</time></trkpt><trkpt lat="43.129156603318535" lon="12.050754756136834"><ele>262.4285714285714</ele><time>2026-04-26T11:12:03Z</time></trkpt><trkpt lat="43.12916390878965" lon="12.050658718675123"><ele>262.1428571428571</ele><time>2026-04-26T11:12:04Z</time></trkpt><trkpt lat="43.12917198654373" lon="12.050562824629761"><ele>261.85714285714283</ele><time>2026-04-26T11:12:05Z</time></trkpt><trkpt lat="43.129178064231766" lon="12.050471686227759"><ele>261.57142857142856</ele><time>2026-04-26T11:12:06Z</time></trkpt><trkpt lat="43.12918769658429" lon="12.050380418932514"><ele>261.2857142857143</ele><time>2026-04-26T11:12:07Z</time></trkpt><trkpt lat="43.129203240187366" lon="12.050288576724892"><ele>261.0</ele><time>2026-04-26T11:12:08Z</time></trkpt><trkpt lat="43.129219174096896" lon="12.050197186421174"><ele>261.0</ele><time>2026-04-26T11:12:09Z</time></trkpt><trkpt lat="43.12923220878713" lon="12.05010726458926"><ele>261.0</ele><time>2026-04-26T11:12:10Z</time></trkpt><trkpt lat="43.129242148158745" lon="12.05002050719343"><ele>261.0</ele><time>2026-04-26T11:12:11Z</time></trkpt><trkpt lat="43.12926329266482" lon="12.049858442283151"><ele>261.0</ele><time>2026-04-26T11:12:13Z</time></trkpt><trkpt lat="43.12929170841662" lon="12.04972576477238"><ele>261.0</ele><time>2026-04-26T11:12:15Z</time></trkpt><trkpt lat="43.12929862299862" lon="12.049618736520895"><ele>261.0</ele><time>2026-04-26T11:12:17Z</time></trkpt><trkpt lat="43.12948829784894" lon="12.049675477614782"><ele>261.0</ele><time>2026-04-26T11:12:20Z</time></trkpt><trkpt lat="43.12951110153039" lon="12.049850596312014"><ele>261.0</ele><time>2026-04-26T11:12:22Z</time></trkpt><trkpt lat="43.129581278817234" lon="12.049974722528571"><ele>261.0</ele><time>2026-04-26T11:12:24Z</time></trkpt><trkpt lat="43.12966670247156" lon="12.050059845782396"><ele>261.0</ele><time>2026-04-26T11:12:26Z</time></trkpt><trkpt lat="43.129750921228876" lon="12.050026612424574"><ele>261.0</ele><time>2026-04-26T11:12:28Z</time></trkpt><trkpt lat="43.129851883724804" lon="12.049967224829311"><ele>260.5</ele><time>2026-04-26T11:12:29.999Z</time></trkpt><trkpt lat="43.129936323889325" lon="12.04983261205449"><ele>260.0</ele><time>2026-04-26T11:12:31.999Z</time></trkpt><trkpt lat="43.12998404928881" lon="12.049766571124273"><ele>259.5</ele><time>2026-04-26T11:12:32.999Z</time></trkpt><trkpt lat="43.130038761469855" lon="12.04970297084649"><ele>259.0</ele><time>2026-04-26T11:12:33.999Z</time></trkpt><trkpt lat="43.13008947958607" lon="12.049634861051302"><ele>258.5</ele><time>2026-04-26T11:12:34.999Z</time></trkpt><trkpt lat="43.13014030311691" lon="12.049560764752266"><ele>258.0</ele><time>2026-04-26T11:12:35.999Z</time></trkpt><trkpt lat="43.13019063746087" lon="12.049491876162717"><ele>257.99999999999994</ele><time>2026-04-26T11:12:36.999Z</time></trkpt><trkpt lat="43.13024232825952" lon="12.04942905363108"><ele>258.0</ele><time>2026-04-26T11:12:37.999Z</time></trkpt><trkpt lat="43.13029420829347" lon="12.049366779217301"><ele>258.0</ele><time>2026-04-26T11:12:38.999Z</time></trkpt><trkpt lat="43.13034415333592" lon="12.049303339636506"><ele>258.0</ele><time>2026-04-26T11:12:39.999Z</time></trkpt><trkpt lat="43.130389034539434" lon="12.04923742054958"><ele>258.0</ele><time>2026-04-26T11:12:40.999Z</time></trkpt><trkpt lat="43.13043467526389" lon="12.049169580343632"><ele>257.99999999999994</ele><time>2026-04-26T11:12:41.999Z</time></trkpt><trkpt lat="43.130486042367366" lon="12.049099724347904"><ele>258.0</ele><time>2026-04-26T11:12:42.999Z</time></trkpt><trkpt lat="43.1305322550451" lon="12.049037890916082"><ele>258.0</ele><time>2026-04-26T11:12:43.999Z</time></trkpt><trkpt lat="43.13057720122844" lon="12.048977378920405"><ele>258.0</ele><time>2026-04-26T11:12:44.999Z</time></trkpt><trkpt lat="43.13065757299613" lon="12.048855012868007"><ele>258.0</ele><time>2026-04-26T11:12:46.999Z</time></trkpt><trkpt lat="43.13073063332573" lon="12.048728476964174"><ele>258.0</ele><time>2026-04-26T11:12:48.999Z</time></trkpt><trkpt lat="43.130804767269844" lon="12.048622107786677"><ele>258.0</ele><time>2026-04-26T11:12:50.999Z</time></trkpt><trkpt lat="43.13087908010012" lon="12.048524779253114"><ele>258.0</ele><time>2026-04-26T11:12:52.999Z</time></trkpt><trkpt lat="43.13095907637156" lon="12.048403348825804"><ele>258.0</ele><time>2026-04-26T11:12:54.999Z</time></trkpt><trkpt lat="43.13105161539285" lon="12.048277697232697"><ele>258.0</ele><time>2026-04-26T11:12:56.999Z</time></trkpt><trkpt lat="43.13110390740241" lon="12.04821791740396"><ele>258.0</ele><time>2026-04-26T11:12:57.999Z</time></trkpt><trkpt lat="43.131156362633824" lon="12.048152758554899"><ele>258.0</ele><time>2026-04-26T11:12:58.999Z</time></trkpt><trkpt lat="43.13121181982417" lon="12.048091127209"><ele>258.3333333333333</ele><time>2026-04-26T11:12:59.999Z</time></trkpt><trkpt lat="43.131262932675334" lon="12.048024398461639"><ele>258.6666666666667</ele><time>2026-04-26T11:13:00.999Z</time></trkpt><trkpt lat="43.13131281993185" lon="12.047955776121627"><ele>259.0</ele><time>2026-04-26T11:13:01.999Z</time></trkpt><trkpt lat="43.131365133135425" lon="12.0478923414437"><ele>259.33333333333337</ele><time>2026-04-26T11:13:02.999Z</time></trkpt><trkpt lat="43.13141092314799" lon="12.047824062576886"><ele>259.6666666666667</ele><time>2026-04-26T11:13:03.999Z</time></trkpt><trkpt lat="43.13147859921805" lon="12.047730353180885"><ele>260.0</ele><time>2026-04-26T11:13:05.999Z</time></trkpt><trkpt lat="43.13154754146466" lon="12.047646474695846"><ele>260.00000000000006</ele><time>2026-04-26T11:13:08.999Z</time></trkpt><trkpt lat="43.13159531794471" lon="12.047580608643376"><ele>260.0</ele><time>2026-04-26T11:13:09.999Z</time></trkpt><trkpt lat="43.13165320975544" lon="12.047501156986497"><ele>260.0</ele><time>2026-04-26T11:13:10.999Z</time></trkpt><trkpt lat="43.131700151313765" lon="12.047436856809473"><ele>260.0</ele><time>2026-04-26T11:13:11.999Z</time></trkpt><trkpt lat="43.131746264747356" lon="12.047373691021745"><ele>260.0</ele><time>2026-04-26T11:13:12.999Z</time></trkpt><trkpt lat="43.13179650940722" lon="12.04730486634305"><ele>260.00000000000006</ele><time>2026-04-26T11:13:13.999Z</time></trkpt><trkpt lat="43.131849851867685" lon="12.0472317982508"><ele>260.0</ele><time>2026-04-26T11:13:14.999Z</time></trkpt><trkpt lat="43.13190438264898" lon="12.047157102451227"><ele>260.0</ele><time>2026-04-26T11:13:15.999Z</time></trkpt><trkpt lat="43.131958949517895" lon="12.047082372103558"><ele>260.0</ele><time>2026-04-26T11:13:16.999Z</time></trkpt><trkpt lat="43.1320117082441" lon="12.047011006076596"><ele>260.0</ele><time>2026-04-26T11:13:17.999Z</time></trkpt><trkpt lat="43.13206308839847" lon="12.046941504847895"><ele>260.0</ele><time>2026-04-26T11:13:18.999Z</time></trkpt><trkpt lat="43.132112813372686" lon="12.046874242559582"><ele>260.0</ele><time>2026-04-26T11:13:19.999Z</time></trkpt><trkpt lat="43.132191864762696" lon="12.046767310871559"><ele>260.0</ele><time>2026-04-26T11:13:21.999Z</time></trkpt><trkpt lat="43.13227238686754" lon="12.046678879984887"><ele>260.0</ele><time>2026-04-26T11:13:23.999Z</time></trkpt><trkpt lat="43.13236103572888" lon="12.046567151177577"><ele>260.0</ele><time>2026-04-26T11:13:25.999Z</time></trkpt><trkpt lat="43.13240671719519" lon="12.046494530300675"><ele>260.0</ele><time>2026-04-26T11:13:26.999Z</time></trkpt><trkpt lat="43.13245462732757" lon="12.046422158018954"><ele>260.0</ele><time>2026-04-26T11:13:27.999Z</time></trkpt><trkpt lat="43.13250569346032" lon="12.046347633250186"><ele>260.0</ele><time>2026-04-26T11:13:28.999Z</time></trkpt><trkpt lat="43.13256736035235" lon="12.046283673033017"><ele>260.0</ele><time>2026-04-26T11:13:29.999Z</time></trkpt><trkpt lat="43.13262825234896" lon="12.046222519038809"><ele>260.0</ele><time>2026-04-26T11:13:30.999Z</time></trkpt><trkpt lat="43.13268564749981" lon="12.046157469303052"><ele>260.0</ele><time>2026-04-26T11:13:31.999Z</time></trkpt><trkpt lat="43.132745566642626" lon="12.04610072787836"><ele>260.0</ele><time>2026-04-26T11:13:32.999Z</time></trkpt><trkpt lat="43.13284214957352" lon="12.046011733272568"><ele>260.0</ele><time>2026-04-26T11:13:34.999Z</time></trkpt><trkpt lat="43.132951669913204" lon="12.045933746832807"><ele>260.0</ele><time>2026-04-26T11:13:36.999Z</time></trkpt><trkpt lat="43.133009787882514" lon="12.045866801170034"><ele>260.0</ele><time>2026-04-26T11:13:37.999Z</time></trkpt><trkpt lat="43.13306485465686" lon="12.045796027531543"><ele>260.0</ele><time>2026-04-26T11:13:38.999Z</time></trkpt><trkpt lat="43.13312138222898" lon="12.04572809390736"><ele>260.0</ele><time>2026-04-26T11:13:39.999Z</time></trkpt><trkpt lat="43.13318380134966" lon="12.045664478478955"><ele>260.0</ele><time>2026-04-26T11:13:40.999Z</time></trkpt><trkpt lat="43.133245075175516" lon="12.045602539858708"><ele>260.0</ele><time>2026-04-26T11:13:41.999Z</time></trkpt><trkpt lat="43.133305732994494" lon="12.045538356700769"><ele>260.0</ele><time>2026-04-26T11:13:42.999Z</time></trkpt><trkpt lat="43.133364294577305" lon="12.045479946704967"><ele>259.83333333333337</ele><time>2026-04-26T11:13:43.999Z</time></trkpt><trkpt lat="43.133417710019366" lon="12.045421213024019"><ele>259.6666666666667</ele><time>2026-04-26T11:13:44.999Z</time></trkpt><trkpt lat="43.13348874800723" lon="12.045319348667975"><ele>259.5</ele><time>2026-04-26T11:13:46.999Z</time></trkpt><trkpt lat="43.13352508287282" lon="12.045229899118482"><ele>259.3333333333333</ele><time>2026-04-26T11:13:48.999Z</time></trkpt><trkpt lat="43.133579677095966" lon="12.045143633476805"><ele>259.16666666666663</ele><time>2026-04-26T11:13:50.999Z</time></trkpt><trkpt lat="43.1336782329407" lon="12.04506348201081"><ele>259.0</ele><time>2026-04-26T11:13:53Z</time></trkpt><trkpt lat="43.13372669439305" lon="12.045003460447642"><ele>259.3333333333333</ele><time>2026-04-26T11:13:54Z</time></trkpt><trkpt lat="43.13377973142175" lon="12.044940019840913"><ele>259.66666666666663</ele><time>2026-04-26T11:13:55Z</time></trkpt><trkpt lat="43.13382866967676" lon="12.044877373765718"><ele>260.0</ele><time>2026-04-26T11:13:56Z</time></trkpt><trkpt lat="43.13388321045682" lon="12.044826100755271"><ele>260.3333333333333</ele><time>2026-04-26T11:13:57Z</time></trkpt><trkpt lat="43.13395876016525" lon="12.044731699910686"><ele>260.6666666666667</ele><time>2026-04-26T11:13:59Z</time></trkpt><trkpt lat="43.13395330642627" lon="12.044604922651429"><ele>261.0</ele><time>2026-04-26T11:14:01Z</time></trkpt><trkpt lat="43.13391122954055" lon="12.044540088510786"><ele>261.0</ele><time>2026-04-26T11:14:02Z</time></trkpt><trkpt lat="43.133868096186845" lon="12.044472762009585"><ele>261.0</ele><time>2026-04-26T11:14:03Z</time></trkpt><trkpt lat="43.13383717464955" lon="12.044394848029233"><ele>261.0</ele><time>2026-04-26T11:14:04Z</time></trkpt><trkpt lat="43.13376913541131" lon="12.044288665290024"><ele>261.0</ele><time>2026-04-26T11:14:06Z</time></trkpt><trkpt lat="43.13370436391966" lon="12.044229573191902"><ele>261.0</ele><time>2026-04-26T11:14:08Z</time></trkpt><trkpt lat="43.13370372127495" lon="12.044115463659013"><ele>261.0</ele><time>2026-04-26T11:14:12Z</time></trkpt><trkpt lat="43.13370675492897" lon="12.044025261100467"><ele>260.8333333333333</ele><time>2026-04-26T11:14:13Z</time></trkpt><trkpt lat="43.133706833684045" lon="12.043854437288049"><ele>260.6666666666667</ele><time>2026-04-26T11:14:15Z</time></trkpt><trkpt lat="43.1337078970316" lon="12.043755201945146"><ele>260.5</ele><time>2026-04-26T11:14:16Z</time></trkpt><trkpt lat="43.13370806423636" lon="12.043652952609577"><ele>260.33333333333337</ele><time>2026-04-26T11:14:16.999Z</time></trkpt><trkpt lat="43.13370791138004" lon="12.04356201102775"><ele>260.1666666666667</ele><time>2026-04-26T11:14:17.999Z</time></trkpt><trkpt lat="43.13371220551101" lon="12.043470838576278"><ele>260.0</ele><time>2026-04-26T11:14:18.999Z</time></trkpt><trkpt lat="43.133712712945524" lon="12.043376621342965"><ele>260.1666666666667</ele><time>2026-04-26T11:14:19.999Z</time></trkpt><trkpt lat="43.13371542505786" lon="12.043282253736502"><ele>260.33333333333337</ele><time>2026-04-26T11:14:20.999Z</time></trkpt><trkpt lat="43.13371529275517" lon="12.0431885773846"><ele>260.5</ele><time>2026-04-26T11:14:21.999Z</time></trkpt><trkpt lat="43.13371557431954" lon="12.043097492649402"><ele>260.6666666666667</ele><time>2026-04-26T11:14:22.999Z</time></trkpt><trkpt lat="43.13371867091583" lon="12.043009489119399"><ele>260.8333333333333</ele><time>2026-04-26T11:14:23.999Z</time></trkpt><trkpt lat="43.13371750190152" lon="12.042857746551816"><ele>261.0</ele><time>2026-04-26T11:14:25.999Z</time></trkpt><trkpt lat="43.13371715778337" lon="12.042718628637333"><ele>261.0</ele><time>2026-04-26T11:14:27.999Z</time></trkpt><trkpt lat="43.133717440195994" lon="12.042584929228823"><ele>261.0</ele><time>2026-04-26T11:14:29.999Z</time></trkpt><trkpt lat="43.13373944329736" lon="12.042482778388512"><ele>261.0</ele><time>2026-04-26T11:14:31.999Z</time></trkpt><trkpt lat="43.133742508041244" lon="12.04233020135607"><ele>261.0</ele><time>2026-04-26T11:14:33.999Z</time></trkpt><trkpt lat="43.13375769190532" lon="12.042192896149801"><ele>261.0</ele><time>2026-04-26T11:14:35.999Z</time></trkpt><trkpt lat="43.13376124485923" lon="12.042043463479649"><ele>261.0</ele><time>2026-04-26T11:14:37.999Z</time></trkpt><trkpt lat="43.133763519404496" lon="12.041877661813777"><ele>261.0</ele><time>2026-04-26T11:14:39.999Z</time></trkpt><trkpt lat="43.13377332290056" lon="12.041708735946003"><ele>261.0</ele><time>2026-04-26T11:14:41.999Z</time></trkpt><trkpt lat="43.13377621525224" lon="12.041540497993832"><ele>261.0</ele><time>2026-04-26T11:14:43.999Z</time></trkpt><trkpt lat="43.13377269770931" lon="12.041384179903003"><ele>261.40000000000003</ele><time>2026-04-26T11:14:45.999Z</time></trkpt><trkpt lat="43.13378252130672" lon="12.041241449916754"><ele>261.8</ele><time>2026-04-26T11:14:47.999Z</time></trkpt><trkpt lat="43.133805920744976" lon="12.041086222411057"><ele>262.20000000000005</ele><time>2026-04-26T11:14:49.999Z</time></trkpt><trkpt lat="43.13383819407851" lon="12.040929797471751"><ele>262.6</ele><time>2026-04-26T11:14:51.999Z</time></trkpt><trkpt lat="43.13387072768138" lon="12.040795133373118"><ele>263.0</ele><time>2026-04-26T11:14:53.999Z</time></trkpt><trkpt lat="43.13394567458315" lon="12.040714678271256"><ele>263.6</ele><time>2026-04-26T11:14:55.999Z</time></trkpt><trkpt lat="43.13404688969881" lon="12.04063113636022"><ele>264.20000000000005</ele><time>2026-04-26T11:14:57.999Z</time></trkpt><trkpt lat="43.134144429469565" lon="12.040529716125464"><ele>264.8</ele><time>2026-04-26T11:14:59.999Z</time></trkpt><trkpt lat="43.13423246549471" lon="12.040443244848394"><ele>265.40000000000003</ele><time>2026-04-26T11:15:01.999Z</time></trkpt><trkpt lat="43.13429320131007" lon="12.040379557183885"><ele>266.0</ele><time>2026-04-26T11:15:03.999Z</time></trkpt><trkpt lat="43.134367641815544" lon="12.040311687626579"><ele>266.1666666666667</ele><time>2026-04-26T11:15:05.999Z</time></trkpt><trkpt lat="43.13446584595918" lon="12.04021883257927"><ele>266.33333333333337</ele><time>2026-04-26T11:15:07.999Z</time></trkpt><trkpt lat="43.13451972115946" lon="12.040173133755346"><ele>266.5</ele><time>2026-04-26T11:15:08.999Z</time></trkpt><trkpt lat="43.13458911572021" lon="12.04010520594039"><ele>266.6666666666667</ele><time>2026-04-26T11:15:09.999Z</time></trkpt><trkpt lat="43.13467469329886" lon="12.04003727749585"><ele>266.8333333333333</ele><time>2026-04-26T11:15:10.999Z</time></trkpt><trkpt lat="43.13474469016933" lon="12.039982513263917"><ele>267.0</ele><time>2026-04-26T11:15:11.999Z</time></trkpt><trkpt lat="43.13479928903198" lon="12.03992917493502"><ele>267.0</ele><time>2026-04-26T11:15:12.999Z</time></trkpt><trkpt lat="43.1348757533936" lon="12.039801743681922"><ele>267.0</ele><time>2026-04-26T11:15:14.999Z</time></trkpt><trkpt lat="43.13491128825792" lon="12.039670452897713"><ele>267.0</ele><time>2026-04-26T11:15:16.999Z</time></trkpt><trkpt lat="43.13495404152784" lon="12.039556970393384"><ele>267.0</ele><time>2026-04-26T11:15:18.999Z</time></trkpt><trkpt lat="43.13497437874943" lon="12.039433314584853"><ele>267.0</ele><time>2026-04-26T11:15:20.999Z</time></trkpt><trkpt lat="43.13497209449207" lon="12.039292511384016"><ele>266.0</ele><time>2026-04-26T11:15:22.999Z</time></trkpt><trkpt lat="43.13502225346244" lon="12.039174610239172"><ele>265.0</ele><time>2026-04-26T11:15:24.999Z</time></trkpt><trkpt lat="43.135048084727885" lon="12.039072076295207"><ele>264.0</ele><time>2026-04-26T11:15:26.999Z</time></trkpt><trkpt lat="43.135093421987904" lon="12.038951824337891"><ele>263.0</ele><time>2026-04-26T11:15:28.999Z</time></trkpt><trkpt lat="43.13517287693973" lon="12.038844632055076"><ele>262.0</ele><time>2026-04-26T11:15:30.999Z</time></trkpt><trkpt lat="43.13522988023935" lon="12.038712182718571"><ele>261.2</ele><time>2026-04-26T11:15:32.999Z</time></trkpt><trkpt lat="43.135292703548146" lon="12.0385777371308"><ele>260.4</ele><time>2026-04-26T11:15:34.999Z</time></trkpt><trkpt lat="43.13535876973988" lon="12.038441632657324"><ele>259.6</ele><time>2026-04-26T11:15:36.999Z</time></trkpt><trkpt lat="43.13540902189768" lon="12.038320013759199"><ele>258.8</ele><time>2026-04-26T11:15:38.999Z</time></trkpt><trkpt lat="43.13546248472587" lon="12.038198096601768"><ele>258.0</ele><time>2026-04-26T11:15:40.999Z</time></trkpt><trkpt lat="43.13551473107286" lon="12.038069066125223"><ele>257.75</ele><time>2026-04-26T11:15:42.999Z</time></trkpt><trkpt lat="43.13556889966001" lon="12.037944482927916"><ele>257.5</ele><time>2026-04-26T11:15:44.999Z</time></trkpt><trkpt lat="43.135620559167464" lon="12.037815854359666"><ele>257.25</ele><time>2026-04-26T11:15:46.999Z</time></trkpt><trkpt lat="43.13568399063002" lon="12.03767829306379"><ele>257.0</ele><time>2026-04-26T11:15:48.999Z</time></trkpt><trkpt lat="43.135744007900016" lon="12.037535843966158"><ele>257.0</ele><time>2026-04-26T11:15:50.999Z</time></trkpt><trkpt lat="43.135809505069965" lon="12.037393010063498"><ele>257.0</ele><time>2026-04-26T11:15:52.999Z</time></trkpt><trkpt lat="43.13586679199578" lon="12.037248363629159"><ele>257.0</ele><time>2026-04-26T11:15:54.999Z</time></trkpt><trkpt lat="43.13593040848945" lon="12.037101739675212"><ele>257.0</ele><time>2026-04-26T11:15:56.999Z</time></trkpt><trkpt lat="43.13596442844389" lon="12.037028343099966"><ele>257.0</ele><time>2026-04-26T11:15:57.999Z</time></trkpt><trkpt lat="43.13600019431589" lon="12.036951338167288"><ele>257.0</ele><time>2026-04-26T11:15:59Z</time></trkpt><trkpt lat="43.1360326237467" lon="12.036874320248067"><ele>257.0</ele><time>2026-04-26T11:16:00Z</time></trkpt><trkpt lat="43.13606552414319" lon="12.036794363064075"><ele>257.0</ele><time>2026-04-26T11:16:01Z</time></trkpt><trkpt lat="43.13609976916988" lon="12.036716956965353"><ele>257.0</ele><time>2026-04-26T11:16:02Z</time></trkpt><trkpt lat="43.13613502597137" lon="12.036638386865569"><ele>257.0</ele><time>2026-04-26T11:16:03Z</time></trkpt><trkpt lat="43.13616507787536" lon="12.036562528085566"><ele>257.0</ele><time>2026-04-26T11:16:04Z</time></trkpt><trkpt lat="43.13619936330721" lon="12.036483374816262"><ele>257.0</ele><time>2026-04-26T11:16:05Z</time></trkpt><trkpt lat="43.13623029421499" lon="12.03640711138365"><ele>257.1428571428571</ele><time>2026-04-26T11:16:06Z</time></trkpt><trkpt lat="43.13626238894614" lon="12.036330920006497"><ele>257.2857142857143</ele><time>2026-04-26T11:16:07Z</time></trkpt><trkpt lat="43.13629629772101" lon="12.0362545002881"><ele>257.42857142857144</ele><time>2026-04-26T11:16:08Z</time></trkpt><trkpt lat="43.13639011916626" lon="12.036147327983345"><ele>257.57142857142856</ele><time>2026-04-26T11:16:10Z</time></trkpt><trkpt lat="43.13644632199645" lon="12.03610830231806"><ele>257.7142857142857</ele><time>2026-04-26T11:16:11Z</time></trkpt><trkpt lat="43.136511948098644" lon="12.036090694172426"><ele>257.85714285714283</ele><time>2026-04-26T11:16:12Z</time></trkpt><trkpt lat="43.13657757636041" lon="12.036089093261584"><ele>258.0</ele><time>2026-04-26T11:16:13Z</time></trkpt><trkpt lat="43.13664143564715" lon="12.036085692032259"><ele>258.0</ele><time>2026-04-26T11:16:14Z</time></trkpt><trkpt lat="43.13676598168505" lon="12.036075390656062"><ele>258.0</ele><time>2026-04-26T11:16:16Z</time></trkpt><trkpt lat="43.13683075960441" lon="12.036070668993897"><ele>258.0</ele><time>2026-04-26T11:16:17Z</time></trkpt><trkpt lat="43.13689452408577" lon="12.036061423792615"><ele>258.0</ele><time>2026-04-26T11:16:18Z</time></trkpt><trkpt lat="43.137020187745264" lon="12.036052253200483"><ele>258.0</ele><time>2026-04-26T11:16:20Z</time></trkpt><trkpt lat="43.13708416649478" lon="12.036043436292497"><ele>258.0</ele><time>2026-04-26T11:16:21Z</time></trkpt><trkpt lat="43.13714758417116" lon="12.036036458321467"><ele>258.0</ele><time>2026-04-26T11:16:22Z</time></trkpt><trkpt lat="43.137211647977225" lon="12.03603070327695"><ele>258.0</ele><time>2026-04-26T11:16:23Z</time></trkpt><trkpt lat="43.137275574689475" lon="12.036022939624386"><ele>258.0</ele><time>2026-04-26T11:16:24Z</time></trkpt><trkpt lat="43.13733909424987" lon="12.036020304392398"><ele>258.0</ele><time>2026-04-26T11:16:25Z</time></trkpt><trkpt lat="43.13746319291658" lon="12.03600670072374"><ele>258.0</ele><time>2026-04-26T11:16:27Z</time></trkpt><trkpt lat="43.137578671128495" lon="12.035991344902664"><ele>258.0</ele><time>2026-04-26T11:16:29Z</time></trkpt><trkpt lat="43.13769890828955" lon="12.035977981475893"><ele>257.6666666666667</ele><time>2026-04-26T11:16:31Z</time></trkpt><trkpt lat="43.13782084020507" lon="12.035957366309473"><ele>257.3333333333333</ele><time>2026-04-26T11:16:33Z</time></trkpt><trkpt lat="43.13788511187121" lon="12.035952308686088"><ele>257.0</ele><time>2026-04-26T11:16:34Z</time></trkpt><trkpt lat="43.13795202422218" lon="12.035946132759532"><ele>256.66666666666663</ele><time>2026-04-26T11:16:35Z</time></trkpt><trkpt lat="43.138017199556565" lon="12.035939939006708"><ele>256.3333333333333</ele><time>2026-04-26T11:16:36Z</time></trkpt><trkpt lat="43.138082381605386" lon="12.03593086518987"><ele>256.0</ele><time>2026-04-26T11:16:37Z</time></trkpt><trkpt lat="43.13814683505198" lon="12.035922287897327"><ele>255.99999999999997</ele><time>2026-04-26T11:16:38Z</time></trkpt><trkpt lat="43.138211233468354" lon="12.035914830659175"><ele>256.0</ele><time>2026-04-26T11:16:39Z</time></trkpt><trkpt lat="43.13827423766412" lon="12.035906879016608"><ele>256.0</ele><time>2026-04-26T11:16:40Z</time></trkpt><trkpt lat="43.13833825005217" lon="12.035901946189934"><ele>256.0</ele><time>2026-04-26T11:16:41Z</time></trkpt><trkpt lat="43.13846109193218" lon="12.03588815793521"><ele>255.99999999999997</ele><time>2026-04-26T11:16:43Z</time></trkpt><trkpt lat="43.138586335223586" lon="12.035882362095942"><ele>256.0</ele><time>2026-04-26T11:16:44.999Z</time></trkpt><trkpt lat="43.13870527550549" lon="12.035865145055999"><ele>256.0</ele><time>2026-04-26T11:16:46.999Z</time></trkpt><trkpt lat="43.13879877941718" lon="12.035846513264898"><ele>256.0</ele><time>2026-04-26T11:16:48.999Z</time></trkpt><trkpt lat="43.13890728801997" lon="12.03583815498371"><ele>256.0</ele><time>2026-04-26T11:16:50.999Z</time></trkpt><trkpt lat="43.13901682023236" lon="12.03581787844963"><ele>256.0</ele><time>2026-04-26T11:16:52.999Z</time></trkpt><trkpt lat="43.13912266558751" lon="12.035805011474341"><ele>256.0</ele><time>2026-04-26T11:16:54.999Z</time></trkpt><trkpt lat="43.13923228878724" lon="12.035800807350299"><ele>256.0</ele><time>2026-04-26T11:16:56.999Z</time></trkpt><trkpt lat="43.13932378180599" lon="12.035790922456464"><ele>256.0</ele><time>2026-04-26T11:16:58.999Z</time></trkpt><trkpt lat="43.13942458714687" lon="12.03577370358662"><ele>256.0</ele><time>2026-04-26T11:17:00.999Z</time></trkpt><trkpt lat="43.13952742408935" lon="12.03576305534401"><ele>256.0</ele><time>2026-04-26T11:17:02.999Z</time></trkpt><trkpt lat="43.13962306195711" lon="12.035826902749928"><ele>256.0</ele><time>2026-04-26T11:17:04.999Z</time></trkpt><trkpt lat="43.139676080459246" lon="12.03594164058829"><ele>256.40000000000003</ele><time>2026-04-26T11:17:06.999Z</time></trkpt><trkpt lat="43.139738164386536" lon="12.036060342333132"><ele>256.8</ele><time>2026-04-26T11:17:08.999Z</time></trkpt><trkpt lat="43.139801908755736" lon="12.036164740450731"><ele>257.20000000000005</ele><time>2026-04-26T11:17:10.999Z</time></trkpt><trkpt lat="43.13988672207248" lon="12.036174361931886"><ele>257.6</ele><time>2026-04-26T11:17:12.999Z</time></trkpt><trkpt lat="43.13997140592871" lon="12.036089758705128"><ele>258.0</ele><time>2026-04-26T11:17:14.999Z</time></trkpt><trkpt lat="43.140024939072745" lon="12.035965531774755"><ele>258.0</ele><time>2026-04-26T11:17:16.999Z</time></trkpt><trkpt lat="43.140060004504974" lon="12.035828334316637"><ele>258.0</ele><time>2026-04-26T11:17:18.999Z</time></trkpt><trkpt lat="43.14009870632337" lon="12.035687166427516"><ele>258.0</ele><time>2026-04-26T11:17:20.999Z</time></trkpt><trkpt lat="43.14011855589251" lon="12.035530728049364"><ele>258.0</ele><time>2026-04-26T11:17:22.999Z</time></trkpt><trkpt lat="43.14012304395604" lon="12.035371469076686"><ele>258.0</ele><time>2026-04-26T11:17:24.999Z</time></trkpt><trkpt lat="43.14013093860627" lon="12.035221469698211"><ele>258.0</ele><time>2026-04-26T11:17:26.999Z</time></trkpt><trkpt lat="43.14015386565643" lon="12.035075348566739"><ele>258.0</ele><time>2026-04-26T11:17:28.999Z</time></trkpt><trkpt lat="43.14018544637508" lon="12.034925974953442"><ele>258.0</ele><time>2026-04-26T11:17:30.999Z</time></trkpt><trkpt lat="43.14022040139748" lon="12.034804557176868"><ele>258.0</ele><time>2026-04-26T11:17:32.999Z</time></trkpt><trkpt lat="43.140266067177976" lon="12.034668841986544"><ele>258.0</ele><time>2026-04-26T11:17:34.999Z</time></trkpt><trkpt lat="43.140311987703384" lon="12.034535504487474"><ele>257.8</ele><time>2026-04-26T11:17:36.999Z</time></trkpt><trkpt lat="43.14035388220916" lon="12.034390871268803"><ele>257.6</ele><time>2026-04-26T11:17:38.999Z</time></trkpt><trkpt lat="43.140399790677485" lon="12.034246010142061"><ele>257.4</ele><time>2026-04-26T11:17:40.999Z</time></trkpt><trkpt lat="43.140444039252955" lon="12.034108471206501"><ele>257.2</ele><time>2026-04-26T11:17:42.999Z</time></trkpt><trkpt lat="43.14049143212321" lon="12.033973635630444"><ele>257.0</ele><time>2026-04-26T11:17:44.999Z</time></trkpt><trkpt lat="43.14053834580423" lon="12.03384752130981"><ele>257.0</ele><time>2026-04-26T11:17:46.999Z</time></trkpt><trkpt lat="43.14057765959887" lon="12.033722052964684"><ele>257.0</ele><time>2026-04-26T11:17:48.999Z</time></trkpt><trkpt lat="43.140621114915106" lon="12.033588940648965"><ele>257.0</ele><time>2026-04-26T11:17:50.999Z</time></trkpt><trkpt lat="43.14066213730695" lon="12.03345948602687"><ele>257.0</ele><time>2026-04-26T11:17:52.999Z</time></trkpt><trkpt lat="43.14070719951548" lon="12.033328441598139"><ele>257.0</ele><time>2026-04-26T11:17:54.999Z</time></trkpt><trkpt lat="43.14074888954908" lon="12.033195733602302"><ele>257.0</ele><time>2026-04-26T11:17:56.999Z</time></trkpt><trkpt lat="43.14079548601662" lon="12.033065173127863"><ele>257.0</ele><time>2026-04-26T11:17:58.999Z</time></trkpt><trkpt lat="43.14084217586034" lon="12.032925851926795"><ele>257.0</ele><time>2026-04-26T11:18:00.999Z</time></trkpt><trkpt lat="43.140884012659235" lon="12.032793013476038"><ele>257.0</ele><time>2026-04-26T11:18:02.999Z</time></trkpt><trkpt lat="43.140929884017865" lon="12.032661883539562"><ele>257.0</ele><time>2026-04-26T11:18:05Z</time></trkpt><trkpt lat="43.140975265537776" lon="12.032533183117286"><ele>256.8</ele><time>2026-04-26T11:18:07Z</time></trkpt><trkpt lat="43.14100973451003" lon="12.032412752871542"><ele>256.6</ele><time>2026-04-26T11:18:09Z</time></trkpt><trkpt lat="43.14105232669794" lon="12.032277705097902"><ele>256.40000000000003</ele><time>2026-04-26T11:18:11Z</time></trkpt><trkpt lat="43.14109442263697" lon="12.032142033318591"><ele>256.2</ele><time>2026-04-26T11:18:13Z</time></trkpt><trkpt lat="43.141139160784284" lon="12.032008565726594"><ele>256.0</ele><time>2026-04-26T11:18:15Z</time></trkpt><trkpt lat="43.14118566837012" lon="12.031884707562508"><ele>256.0</ele><time>2026-04-26T11:18:17Z</time></trkpt><trkpt lat="43.14124406538397" lon="12.031765855337483"><ele>256.0</ele><time>2026-04-26T11:18:19Z</time></trkpt><trkpt lat="43.14132480857181" lon="12.031667209458845"><ele>256.0</ele><time>2026-04-26T11:18:21Z</time></trkpt><trkpt lat="43.141415672964136" lon="12.031579396543169"><ele>256.0</ele><time>2026-04-26T11:18:23Z</time></trkpt><trkpt lat="43.141508406055074" lon="12.031490492311484"><ele>256.0</ele><time>2026-04-26T11:18:25Z</time></trkpt><trkpt lat="43.141600562465726" lon="12.031407196628455"><ele>256.40000000000003</ele><time>2026-04-26T11:18:27Z</time></trkpt><trkpt lat="43.14170400117052" lon="12.031314375669496"><ele>256.8</ele><time>2026-04-26T11:18:29Z</time></trkpt><trkpt lat="43.14175761154644" lon="12.031268117954095"><ele>257.20000000000005</ele><time>2026-04-26T11:18:30Z</time></trkpt><trkpt lat="43.1418594195596" lon="12.031174454306559"><ele>257.6</ele><time>2026-04-26T11:18:32Z</time></trkpt><trkpt lat="43.141967102851076" lon="12.031069037314388"><ele>258.0</ele><time>2026-04-26T11:18:34Z</time></trkpt><trkpt lat="43.142070411140274" lon="12.030984194669896"><ele>258.0</ele><time>2026-04-26T11:18:36Z</time></trkpt><trkpt lat="43.14216270374811" lon="12.030898841065541"><ele>258.0</ele><time>2026-04-26T11:18:38Z</time></trkpt><trkpt lat="43.1422546849286" lon="12.03081900125041"><ele>258.0</ele><time>2026-04-26T11:18:40Z</time></trkpt><trkpt lat="43.14234765626383" lon="12.030735252374972"><ele>258.0</ele><time>2026-04-26T11:18:42Z</time></trkpt><trkpt lat="43.14244433315797" lon="12.030659829338186"><ele>258.0</ele><time>2026-04-26T11:18:44Z</time></trkpt><trkpt lat="43.142533375779394" lon="12.030583121147185"><ele>258.0</ele><time>2026-04-26T11:18:46Z</time></trkpt><trkpt lat="43.14262272028741" lon="12.030509765763362"><ele>258.0</ele><time>2026-04-26T11:18:48Z</time></trkpt><trkpt lat="43.14271266715621" lon="12.030440841717148"><ele>258.0</ele><time>2026-04-26T11:18:50Z</time></trkpt><trkpt lat="43.142797134535655" lon="12.030364741545618"><ele>258.0</ele><time>2026-04-26T11:18:52Z</time></trkpt><trkpt lat="43.142884899435195" lon="12.030297491485722"><ele>258.0</ele><time>2026-04-26T11:18:54Z</time></trkpt><trkpt lat="43.1429745703037" lon="12.030232129285702"><ele>258.0</ele><time>2026-04-26T11:18:56Z</time></trkpt><trkpt lat="43.143069635047745" lon="12.03016019179002"><ele>258.0</ele><time>2026-04-26T11:18:58Z</time></trkpt><trkpt lat="43.14316891154537" lon="12.030089155751993"><ele>258.0</ele><time>2026-04-26T11:19:00Z</time></trkpt><trkpt lat="43.143269000492104" lon="12.03003101445381"><ele>258.0</ele><time>2026-04-26T11:19:02Z</time></trkpt><trkpt lat="43.14336182826165" lon="12.030051089337155"><ele>258.0</ele><time>2026-04-26T11:19:04Z</time></trkpt><trkpt lat="43.143439366216704" lon="12.030138619988332"><ele>257.8</ele><time>2026-04-26T11:19:06Z</time></trkpt><trkpt lat="43.143480470922476" lon="12.030265817225072"><ele>257.6</ele><time>2026-04-26T11:19:08Z</time></trkpt><trkpt lat="43.143530163916026" lon="12.030392054261052"><ele>257.4</ele><time>2026-04-26T11:19:09.999Z</time></trkpt><trkpt lat="43.14357587477028" lon="12.03050842772676"><ele>257.2</ele><time>2026-04-26T11:19:11.999Z</time></trkpt><trkpt lat="43.143633734534745" lon="12.030660651913216"><ele>257.0</ele><time>2026-04-26T11:19:13.999Z</time></trkpt><trkpt lat="43.14370411287311" lon="12.030801447343793"><ele>256.83333333333337</ele><time>2026-04-26T11:19:15.999Z</time></trkpt><trkpt lat="43.1437364896724" lon="12.030875942770685"><ele>256.6666666666667</ele><time>2026-04-26T11:19:16.999Z</time></trkpt><trkpt lat="43.14376755727888" lon="12.030956216808399"><ele>256.5</ele><time>2026-04-26T11:19:17.999Z</time></trkpt><trkpt lat="43.14379430323878" lon="12.031035193085005"><ele>256.3333333333333</ele><time>2026-04-26T11:19:18.999Z</time></trkpt><trkpt lat="43.14385237292691" lon="12.031169304052112"><ele>256.16666666666663</ele><time>2026-04-26T11:19:20.999Z</time></trkpt><trkpt lat="43.14390798383739" lon="12.031310532332652"><ele>256.0</ele><time>2026-04-26T11:19:22.999Z</time></trkpt><trkpt lat="43.143973406908394" lon="12.031453587172676"><ele>256.40000000000003</ele><time>2026-04-26T11:19:24.999Z</time></trkpt><trkpt lat="43.14407098762907" lon="12.031525458052306"><ele>256.8</ele><time>2026-04-26T11:19:26.999Z</time></trkpt><trkpt lat="43.144177056616776" lon="12.031464192033264"><ele>257.20000000000005</ele><time>2026-04-26T11:19:28.999Z</time></trkpt><trkpt lat="43.14426414268757" lon="12.031428361623547"><ele>257.6</ele><time>2026-04-26T11:19:30.999Z</time></trkpt><trkpt lat="43.14431543115061" lon="12.031532504527531"><ele>258.0</ele><time>2026-04-26T11:19:32.999Z</time></trkpt><trkpt lat="43.144392923941105" lon="12.031611459681564"><ele>258.0</ele><time>2026-04-26T11:19:34.999Z</time></trkpt><trkpt lat="43.144456413177515" lon="12.031611148209763"><ele>258.0</ele><time>2026-04-26T11:19:35.999Z</time></trkpt><trkpt lat="43.14456341528616" lon="12.03153374093701"><ele>258.0</ele><time>2026-04-26T11:19:37.999Z</time></trkpt><trkpt lat="43.14464247578346" lon="12.03141534585936"><ele>258.0</ele><time>2026-04-26T11:19:39.999Z</time></trkpt><trkpt lat="43.14474518918022" lon="12.03132132819021"><ele>258.0</ele><time>2026-04-26T11:19:41.999Z</time></trkpt><trkpt lat="43.14479431063749" lon="12.03126340436024"><ele>257.99999999999994</ele><time>2026-04-26T11:19:42.999Z</time></trkpt><trkpt lat="43.14482657216914" lon="12.031186883074572"><ele>258.0</ele><time>2026-04-26T11:19:43.999Z</time></trkpt><trkpt lat="43.144862241245015" lon="12.031115540253454"><ele>258.0</ele><time>2026-04-26T11:19:44.999Z</time></trkpt><trkpt lat="43.144912191239364" lon="12.031059986566028"><ele>258.0</ele><time>2026-04-26T11:19:45.999Z</time></trkpt><trkpt lat="43.14496877238657" lon="12.03101302974072"><ele>258.0</ele><time>2026-04-26T11:19:46.999Z</time></trkpt><trkpt lat="43.14502127170586" lon="12.030959060616023"><ele>257.99999999999994</ele><time>2026-04-26T11:19:47.999Z</time></trkpt><trkpt lat="43.14506770162126" lon="12.03090004760659"><ele>258.0</ele><time>2026-04-26T11:19:48.999Z</time></trkpt><trkpt lat="43.14516683997694" lon="12.030813960982755"><ele>258.25</ele><time>2026-04-26T11:19:50.999Z</time></trkpt><trkpt lat="43.14528127250501" lon="12.030748129470746"><ele>258.5</ele><time>2026-04-26T11:19:52.999Z</time></trkpt><trkpt lat="43.14536522534763" lon="12.030628511606295"><ele>258.75</ele><time>2026-04-26T11:19:54.999Z</time></trkpt><trkpt lat="43.14544191300254" lon="12.030508081306332"><ele>259.0</ele><time>2026-04-26T11:19:56.999Z</time></trkpt><trkpt lat="43.14554997870935" lon="12.03044041619067"><ele>259.0</ele><time>2026-04-26T11:19:58.999Z</time></trkpt><trkpt lat="43.14563120581445" lon="12.030319286027893"><ele>259.0</ele><time>2026-04-26T11:20:00.999Z</time></trkpt><trkpt lat="43.145665412068155" lon="12.030153540798151"><ele>259.0</ele><time>2026-04-26T11:20:02.999Z</time></trkpt><trkpt lat="43.1457404955071" lon="12.030028075647131"><ele>259.0</ele><time>2026-04-26T11:20:04.999Z</time></trkpt><trkpt lat="43.14585968558353" lon="12.02997445028225"><ele>259.42857142857144</ele><time>2026-04-26T11:20:06.999Z</time></trkpt><trkpt lat="43.1459187810314" lon="12.02993812008297"><ele>259.8571428571429</ele><time>2026-04-26T11:20:07.999Z</time></trkpt><trkpt lat="43.1460089863059" lon="12.029816328689954"><ele>260.2857142857143</ele><time>2026-04-26T11:20:09.999Z</time></trkpt><trkpt lat="43.146044573671645" lon="12.02974383810552"><ele>260.7142857142857</ele><time>2026-04-26T11:20:11Z</time></trkpt><trkpt lat="43.14608063888331" lon="12.029669309197724"><ele>261.14285714285717</ele><time>2026-04-26T11:20:12Z</time></trkpt><trkpt lat="43.14611833029008" lon="12.029599281195836"><ele>261.57142857142856</ele><time>2026-04-26T11:20:13Z</time></trkpt><trkpt lat="43.14616093747638" lon="12.02953358616313"><ele>262.0</ele><time>2026-04-26T11:20:14Z</time></trkpt><trkpt lat="43.14620699000473" lon="12.029470213245295"><ele>262.0</ele><time>2026-04-26T11:20:15Z</time></trkpt><trkpt lat="43.146254593486525" lon="12.02941018807252"><ele>262.0</ele><time>2026-04-26T11:20:16Z</time></trkpt><trkpt lat="43.1463118381359" lon="12.029364818145883"><ele>262.0</ele><time>2026-04-26T11:20:17Z</time></trkpt><trkpt lat="43.146373450691044" lon="12.029331458042456"><ele>262.0</ele><time>2026-04-26T11:20:18Z</time></trkpt><trkpt lat="43.14642976188541" lon="12.029289980400833"><ele>262.0</ele><time>2026-04-26T11:20:19Z</time></trkpt><trkpt lat="43.146486696274316" lon="12.029241371229169"><ele>262.0</ele><time>2026-04-26T11:20:20Z</time></trkpt><trkpt lat="43.146567409876546" lon="12.02914451178106"><ele>262.0</ele><time>2026-04-26T11:20:22Z</time></trkpt><trkpt lat="43.146607929078954" lon="12.029076172258408"><ele>261.8571428571429</ele><time>2026-04-26T11:20:23Z</time></trkpt><trkpt lat="43.14664973215967" lon="12.02900672071519"><ele>261.7142857142857</ele><time>2026-04-26T11:20:24Z</time></trkpt><trkpt lat="43.146698156155985" lon="12.028948541192205"><ele>261.57142857142856</ele><time>2026-04-26T11:20:25Z</time></trkpt><trkpt lat="43.14675104963909" lon="12.028892739528187"><ele>261.42857142857144</ele><time>2026-04-26T11:20:26Z</time></trkpt><trkpt lat="43.14680789744245" lon="12.028848552333024"><ele>261.2857142857143</ele><time>2026-04-26T11:20:27Z</time></trkpt><trkpt lat="43.14686965209399" lon="12.028816620694693"><ele>261.14285714285717</ele><time>2026-04-26T11:20:28Z</time></trkpt><trkpt lat="43.146933662496856" lon="12.028803916951414"><ele>261.0</ele><time>2026-04-26T11:20:29Z</time></trkpt><trkpt lat="43.14700078675594" lon="12.028801793411954"><ele>261.0</ele><time>2026-04-26T11:20:30Z</time></trkpt><trkpt lat="43.147062774001064" lon="12.028770054563148"><ele>261.0</ele><time>2026-04-26T11:20:31Z</time></trkpt><trkpt lat="43.14711731069759" lon="12.028716279503747"><ele>261.0</ele><time>2026-04-26T11:20:32Z</time></trkpt><trkpt lat="43.14716285772522" lon="12.02865127465166"><ele>261.0</ele><time>2026-04-26T11:20:33Z</time></trkpt><trkpt lat="43.14720535422154" lon="12.02858107220491"><ele>261.0</ele><time>2026-04-26T11:20:34Z</time></trkpt><trkpt lat="43.14723804788568" lon="12.028506327075531"><ele>261.0</ele><time>2026-04-26T11:20:35Z</time></trkpt><trkpt lat="43.1472633131591" lon="12.02842586461979"><ele>261.0</ele><time>2026-04-26T11:20:36Z</time></trkpt><trkpt lat="43.14735493696792" lon="12.028317656683654"><ele>261.0</ele><time>2026-04-26T11:20:38Z</time></trkpt><trkpt lat="43.14741594262366" lon="12.028282736784798"><ele>261.0</ele><time>2026-04-26T11:20:39Z</time></trkpt><trkpt lat="43.1474807164874" lon="12.028257653234721"><ele>261.0</ele><time>2026-04-26T11:20:40Z</time></trkpt><trkpt lat="43.147544555858296" lon="12.028223769651953"><ele>261.0</ele><time>2026-04-26T11:20:41Z</time></trkpt><trkpt lat="43.147609876360086" lon="12.028194705891503"><ele>261.0</ele><time>2026-04-26T11:20:42Z</time></trkpt><trkpt lat="43.14767645417374" lon="12.028161947742964"><ele>261.0</ele><time>2026-04-26T11:20:43Z</time></trkpt><trkpt lat="43.14774324803612" lon="12.028125576455441"><ele>261.0</ele><time>2026-04-26T11:20:44Z</time></trkpt><trkpt lat="43.14781105501879" lon="12.028085049904588"><ele>261.0</ele><time>2026-04-26T11:20:45Z</time></trkpt><trkpt lat="43.14793108246437" lon="12.028018408494669"><ele>261.0</ele><time>2026-04-26T11:20:47Z</time></trkpt><trkpt lat="43.148050648443665" lon="12.027963338874343"><ele>261.0</ele><time>2026-04-26T11:20:49Z</time></trkpt><trkpt lat="43.1481109324277" lon="12.027932689157037"><ele>261.0</ele><time>2026-04-26T11:20:50Z</time></trkpt><trkpt lat="43.148171567836926" lon="12.027900580707279"><ele>261.0</ele><time>2026-04-26T11:20:51Z</time></trkpt><trkpt lat="43.14823250053033" lon="12.027863618510114"><ele>260.8571428571429</ele><time>2026-04-26T11:20:52Z</time></trkpt><trkpt lat="43.14829498965186" lon="12.027823073100578"><ele>260.7142857142857</ele><time>2026-04-26T11:20:53Z</time></trkpt><trkpt lat="43.14835710087529" lon="12.027784269385725"><ele>260.57142857142856</ele><time>2026-04-26T11:20:54Z</time></trkpt><trkpt lat="43.14841412574025" lon="12.027737665687026"><ele>260.42857142857144</ele><time>2026-04-26T11:20:55Z</time></trkpt><trkpt lat="43.14846157568264" lon="12.027674128308123"><ele>260.2857142857143</ele><time>2026-04-26T11:20:56Z</time></trkpt><trkpt lat="43.14849541775715" lon="12.027592947131728"><ele>260.14285714285717</ele><time>2026-04-26T11:20:57Z</time></trkpt><trkpt lat="43.14852086683746" lon="12.02750575604991"><ele>260.0</ele><time>2026-04-26T11:20:58Z</time></trkpt><trkpt lat="43.14855883516974" lon="12.027428220468812"><ele>260.00000000000006</ele><time>2026-04-26T11:20:59Z</time></trkpt><trkpt lat="43.1486079167185" lon="12.027363107819955"><ele>260.0</ele><time>2026-04-26T11:21:00Z</time></trkpt><trkpt lat="43.14866283678352" lon="12.027300827884858"><ele>260.0</ele><time>2026-04-26T11:21:01Z</time></trkpt><trkpt lat="43.14871033434867" lon="12.027229448563107"><ele>260.0</ele><time>2026-04-26T11:21:02Z</time></trkpt><trkpt lat="43.14875272002463" lon="12.027148896432056"><ele>260.0</ele><time>2026-04-26T11:21:03Z</time></trkpt><trkpt lat="43.14879025733241" lon="12.02707114386554"><ele>260.00000000000006</ele><time>2026-04-26T11:21:04Z</time></trkpt><trkpt lat="43.14882501987873" lon="12.026992923178222"><ele>260.0</ele><time>2026-04-26T11:21:05Z</time></trkpt><trkpt lat="43.14891393038184" lon="12.02686913466625"><ele>260.0</ele><time>2026-04-26T11:21:07Z</time></trkpt><trkpt lat="43.149015411978205" lon="12.026773573369844"><ele>260.0</ele><time>2026-04-26T11:21:09Z</time></trkpt><trkpt lat="43.14906715024276" lon="12.026724180080219"><ele>260.0</ele><time>2026-04-26T11:21:10Z</time></trkpt><trkpt lat="43.149120406650724" lon="12.02666090166067"><ele>260.0</ele><time>2026-04-26T11:21:11Z</time></trkpt><trkpt lat="43.14917305345118" lon="12.026600363891534"><ele>260.0</ele><time>2026-04-26T11:21:12Z</time></trkpt><trkpt lat="43.1492273275514" lon="12.026549775550219"><ele>260.0</ele><time>2026-04-26T11:21:13Z</time></trkpt><trkpt lat="43.14928099367674" lon="12.026500324560063"><ele>260.8</ele><time>2026-04-26T11:21:14Z</time></trkpt><trkpt lat="43.14933565211992" lon="12.026449604863155"><ele>261.6</ele><time>2026-04-26T11:21:15Z</time></trkpt><trkpt lat="43.149442759606046" lon="12.026374781244913"><ele>262.4</ele><time>2026-04-26T11:21:17Z</time></trkpt><trkpt lat="43.149540262481146" lon="12.026292136163958"><ele>263.2</ele><time>2026-04-26T11:21:19Z</time></trkpt><trkpt lat="43.14960085236154" lon="12.026231457757408"><ele>264.0</ele><time>2026-04-26T11:21:21Z</time></trkpt><trkpt lat="43.14955773617579" lon="12.026011771780537"><ele>264.0</ele><time>2026-04-26T11:21:24Z</time></trkpt><trkpt lat="43.14951319788862" lon="12.025862915630778"><ele>264.0</ele><time>2026-04-26T11:21:25.999Z</time></trkpt><trkpt lat="43.14947076516602" lon="12.025793189840503"><ele>264.0</ele><time>2026-04-26T11:21:26.999Z</time></trkpt><trkpt lat="43.14944511642397" lon="12.025708898727208"><ele>264.0</ele><time>2026-04-26T11:21:27.999Z</time></trkpt><trkpt lat="43.14941348394682" lon="12.02562764303179"><ele>264.0</ele><time>2026-04-26T11:21:28.999Z</time></trkpt><trkpt lat="43.149381093579706" lon="12.025547413632596"><ele>264.0</ele><time>2026-04-26T11:21:29.999Z</time></trkpt><trkpt lat="43.14932338772662" lon="12.025407417875"><ele>264.1666666666667</ele><time>2026-04-26T11:21:31.999Z</time></trkpt><trkpt lat="43.149323003607215" lon="12.025302707946855"><ele>264.3333333333333</ele><time>2026-04-26T11:21:33.999Z</time></trkpt><trkpt lat="43.14926751927729" lon="12.025232118148203"><ele>264.5</ele><time>2026-04-26T11:21:37.999Z</time></trkpt><trkpt lat="43.149215057082074" lon="12.025136245475265"><ele>264.66666666666663</ele><time>2026-04-26T11:21:39.999Z</time></trkpt><trkpt lat="43.14921095383311" lon="12.025049371482512"><ele>264.8333333333333</ele><time>2026-04-26T11:21:42.999Z</time></trkpt><trkpt lat="43.14926642534269" lon="12.024994254438607"><ele>265.0</ele><time>2026-04-26T11:21:43.999Z</time></trkpt><trkpt lat="43.149349488945205" lon="12.024928743216723"><ele>264.25</ele><time>2026-04-26T11:21:45.999Z</time></trkpt><trkpt lat="43.14945148896261" lon="12.024855359504917"><ele>263.5</ele><time>2026-04-26T11:21:47.999Z</time></trkpt><trkpt lat="43.14955595752118" lon="12.024788593711552"><ele>262.75</ele><time>2026-04-26T11:21:49.999Z</time></trkpt><trkpt lat="43.149646922379475" lon="12.024695552914917"><ele>262.0</ele><time>2026-04-26T11:21:51.999Z</time></trkpt><trkpt lat="43.149644527687464" lon="12.024542559483042"><ele>262.0</ele><time>2026-04-26T11:21:53.999Z</time></trkpt><trkpt lat="43.149630330610854" lon="12.024455083068503"><ele>262.0</ele><time>2026-04-26T11:21:55.999Z</time></trkpt><trkpt lat="43.14973703750281" lon="12.024386596119305"><ele>262.0</ele><time>2026-04-26T11:21:57.999Z</time></trkpt><trkpt lat="43.14984597522062" lon="12.024315880016971"><ele>262.0</ele><time>2026-04-26T11:21:59.999Z</time></trkpt><trkpt lat="43.14995071153563" lon="12.0242460794744"><ele>262.0</ele><time>2026-04-26T11:22:01.999Z</time></trkpt><trkpt lat="43.150006430532336" lon="12.024202805517454"><ele>262.0</ele><time>2026-04-26T11:22:02.999Z</time></trkpt><trkpt lat="43.15006444804882" lon="12.024161262379746"><ele>262.0</ele><time>2026-04-26T11:22:03.999Z</time></trkpt><trkpt lat="43.15012126822767" lon="12.02412300260093"><ele>262.0</ele><time>2026-04-26T11:22:04.999Z</time></trkpt><trkpt lat="43.150179784263244" lon="12.02408282570236"><ele>262.0</ele><time>2026-04-26T11:22:05.999Z</time></trkpt><trkpt lat="43.15028639185326" lon="12.024006706542103"><ele>262.0</ele><time>2026-04-26T11:22:07.999Z</time></trkpt><trkpt lat="43.15034723689075" lon="12.023967612291328"><ele>262.0</ele><time>2026-04-26T11:22:08.999Z</time></trkpt><trkpt lat="43.150407381459296" lon="12.023923591450062"><ele>261.6</ele><time>2026-04-26T11:22:09.999Z</time></trkpt><trkpt lat="43.15046578415748" lon="12.0238846845402"><ele>261.2</ele><time>2026-04-26T11:22:10.999Z</time></trkpt><trkpt lat="43.15057281681503" lon="12.02380321625006"><ele>260.8</ele><time>2026-04-26T11:22:12.999Z</time></trkpt><trkpt lat="43.15068349680593" lon="12.023725161896138"><ele>260.4</ele><time>2026-04-26T11:22:14.999Z</time></trkpt><trkpt lat="43.150742637857284" lon="12.023684843271134"><ele>260.0</ele><time>2026-04-26T11:22:15.999Z</time></trkpt><trkpt lat="43.15085557988174" lon="12.023613815061681"><ele>260.0</ele><time>2026-04-26T11:22:18Z</time></trkpt><trkpt lat="43.150964159245305" lon="12.023534646711234"><ele>260.0</ele><time>2026-04-26T11:22:20Z</time></trkpt><trkpt lat="43.15102485964644" lon="12.023495586853826"><ele>260.0</ele><time>2026-04-26T11:22:21Z</time></trkpt><trkpt lat="43.15108788205086" lon="12.023452701213166"><ele>260.0</ele><time>2026-04-26T11:22:22Z</time></trkpt><trkpt lat="43.1511997274275" lon="12.023372865038485"><ele>260.0</ele><time>2026-04-26T11:22:24Z</time></trkpt><trkpt lat="43.15125741042409" lon="12.02333338451441"><ele>260.0</ele><time>2026-04-26T11:22:25Z</time></trkpt><trkpt lat="43.1513153576524" lon="12.023294171002906"><ele>260.0</ele><time>2026-04-26T11:22:26Z</time></trkpt><trkpt lat="43.15137367381587" lon="12.02325344189309"><ele>260.0</ele><time>2026-04-26T11:22:27Z</time></trkpt><trkpt lat="43.15142828398152" lon="12.023207961464797"><ele>260.0</ele><time>2026-04-26T11:22:28Z</time></trkpt><trkpt lat="43.15153995885158" lon="12.023135871408119"><ele>260.0</ele><time>2026-04-26T11:22:30Z</time></trkpt><trkpt lat="43.151635249744686" lon="12.023155238345195"><ele>260.0</ele><time>2026-04-26T11:22:32Z</time></trkpt><trkpt lat="43.151666157570126" lon="12.023298663246994"><ele>260.33333333333337</ele><time>2026-04-26T11:22:34Z</time></trkpt><trkpt lat="43.15171151842651" lon="12.023445912081455"><ele>260.6666666666667</ele><time>2026-04-26T11:22:36Z</time></trkpt><trkpt lat="43.151772377025246" lon="12.02359588175848"><ele>261.0</ele><time>2026-04-26T11:22:38Z</time></trkpt><trkpt lat="43.15179894126404" lon="12.023674994370547"><ele>261.3333333333333</ele><time>2026-04-26T11:22:39Z</time></trkpt><trkpt lat="43.15182926101427" lon="12.023752156022473"><ele>261.66666666666663</ele><time>2026-04-26T11:22:40Z</time></trkpt><trkpt lat="43.15185707045957" lon="12.023835575491843"><ele>262.0</ele><time>2026-04-26T11:22:41Z</time></trkpt><trkpt lat="43.15188849455554" lon="12.023913666525832"><ele>262.0</ele><time>2026-04-26T11:22:42Z</time></trkpt><trkpt lat="43.15191807907881" lon="12.023990225313742"><ele>262.0</ele><time>2026-04-26T11:22:43Z</time></trkpt><trkpt lat="43.15194696352879" lon="12.024073517566206"><ele>262.0</ele><time>2026-04-26T11:22:44Z</time></trkpt><trkpt lat="43.151973482984154" lon="12.02415829769223"><ele>262.0</ele><time>2026-04-26T11:22:45Z</time></trkpt><trkpt lat="43.15200284705747" lon="12.024238111522777"><ele>262.0</ele><time>2026-04-26T11:22:46Z</time></trkpt><trkpt lat="43.15203055872701" lon="12.024316160605785"><ele>262.0</ele><time>2026-04-26T11:22:47Z</time></trkpt><trkpt lat="43.152115363080775" lon="12.024439790178128"><ele>262.14285714285717</ele><time>2026-04-26T11:22:49Z</time></trkpt><trkpt lat="43.15217883022194" lon="12.0244666178451"><ele>262.28571428571433</ele><time>2026-04-26T11:22:50Z</time></trkpt><trkpt lat="43.15224586526611" lon="12.024470216263234"><ele>262.42857142857144</ele><time>2026-04-26T11:22:51Z</time></trkpt><trkpt lat="43.152314529193696" lon="12.024489102734154"><ele>262.57142857142856</ele><time>2026-04-26T11:22:52Z</time></trkpt><trkpt lat="43.152382325586665" lon="12.024507056883369"><ele>262.71428571428567</ele><time>2026-04-26T11:22:53Z</time></trkpt><trkpt lat="43.152448899259305" lon="12.024524172121307"><ele>262.85714285714283</ele><time>2026-04-26T11:22:54Z</time></trkpt><trkpt lat="43.152518808375234" lon="12.024547082151281"><ele>263.0</ele><time>2026-04-26T11:22:55Z</time></trkpt><trkpt lat="43.152585900665024" lon="12.024564303604327"><ele>262.7142857142857</ele><time>2026-04-26T11:22:56Z</time></trkpt><trkpt lat="43.15264919215437" lon="12.024580040382476"><ele>262.4285714285714</ele><time>2026-04-26T11:22:57Z</time></trkpt><trkpt lat="43.152715048227016" lon="12.024562798106636"><ele>262.1428571428571</ele><time>2026-04-26T11:22:58Z</time></trkpt><trkpt lat="43.15277660572273" lon="12.024518066599315"><ele>261.85714285714283</ele><time>2026-04-26T11:22:59Z</time></trkpt><trkpt lat="43.15283829836194" lon="12.024472833626954"><ele>261.57142857142856</ele><time>2026-04-26T11:23:00Z</time></trkpt><trkpt lat="43.152896299875465" lon="12.02441828544162"><ele>261.2857142857143</ele><time>2026-04-26T11:23:01Z</time></trkpt><trkpt lat="43.15295205954132" lon="12.024368934283729"><ele>261.0</ele><time>2026-04-26T11:23:02Z</time></trkpt><trkpt lat="43.15301280322999" lon="12.02432050954532"><ele>261.0</ele><time>2026-04-26T11:23:03Z</time></trkpt><trkpt lat="43.153072880296925" lon="12.024273957204485"><ele>261.0</ele><time>2026-04-26T11:23:04Z</time></trkpt><trkpt lat="43.15313113553617" lon="12.02422699882094"><ele>261.0</ele><time>2026-04-26T11:23:05Z</time></trkpt><trkpt lat="43.15318766946659" lon="12.024177485289217"><ele>261.0</ele><time>2026-04-26T11:23:06Z</time></trkpt><trkpt lat="43.153225359388145" lon="12.024099667143526"><ele>261.0</ele><time>2026-04-26T11:23:07Z</time></trkpt><trkpt lat="43.153240973853705" lon="12.024002971212608"><ele>261.0</ele><time>2026-04-26T11:23:08Z</time></trkpt><trkpt lat="43.153234219972504" lon="12.023906427235787"><ele>261.0</ele><time>2026-04-26T11:23:09Z</time></trkpt><trkpt lat="43.15322635207178" lon="12.02380167804689"><ele>260.8571428571429</ele><time>2026-04-26T11:23:10Z</time></trkpt><trkpt lat="43.15322952383012" lon="12.023708831377531"><ele>260.7142857142857</ele><time>2026-04-26T11:23:11Z</time></trkpt><trkpt lat="43.15326625854374" lon="12.023576367288"><ele>260.57142857142856</ele><time>2026-04-26T11:23:13Z</time></trkpt><trkpt lat="43.153326619251196" lon="12.02355048202759"><ele>260.42857142857144</ele><time>2026-04-26T11:23:14Z</time></trkpt><trkpt lat="43.153393068263526" lon="12.023533821800743"><ele>260.2857142857143</ele><time>2026-04-26T11:23:15Z</time></trkpt><trkpt lat="43.15345632331091" lon="12.023514276975176"><ele>260.14285714285717</ele><time>2026-04-26T11:23:16Z</time></trkpt><trkpt lat="43.15352188235574" lon="12.02349447806636"><ele>260.0</ele><time>2026-04-26T11:23:17Z</time></trkpt><trkpt lat="43.15358893250952" lon="12.02347719562055"><ele>260.00000000000006</ele><time>2026-04-26T11:23:18Z</time></trkpt><trkpt lat="43.15365295218045" lon="12.02345610975389"><ele>260.0</ele><time>2026-04-26T11:23:19Z</time></trkpt><trkpt lat="43.15371769943176" lon="12.023440878209112"><ele>260.0</ele><time>2026-04-26T11:23:20Z</time></trkpt><trkpt lat="43.15378054256004" lon="12.023419327016006"><ele>260.0</ele><time>2026-04-26T11:23:21Z</time></trkpt><trkpt lat="43.153848929410685" lon="12.023409999394234"><ele>260.0</ele><time>2026-04-26T11:23:22Z</time></trkpt><trkpt lat="43.15391594996423" lon="12.023382235612688"><ele>260.00000000000006</ele><time>2026-04-26T11:23:23Z</time></trkpt><trkpt lat="43.15397996701682" lon="12.023353040009056"><ele>260.0</ele><time>2026-04-26T11:23:24Z</time></trkpt><trkpt lat="43.15404504250019" lon="12.023319775263417"><ele>259.6666666666667</ele><time>2026-04-26T11:23:25Z</time></trkpt><trkpt lat="43.15410278899201" lon="12.023276524830752"><ele>259.33333333333337</ele><time>2026-04-26T11:23:26Z</time></trkpt><trkpt lat="43.154148418573854" lon="12.023208091977576"><ele>259.0</ele><time>2026-04-26T11:23:27Z</time></trkpt><trkpt lat="43.15418203931195" lon="12.023123730077984"><ele>258.6666666666667</ele><time>2026-04-26T11:23:28Z</time></trkpt><trkpt lat="43.15419594940729" lon="12.023028086430756"><ele>258.3333333333333</ele><time>2026-04-26T11:23:29Z</time></trkpt><trkpt lat="43.15422382924184" lon="12.022947513799894"><ele>258.0</ele><time>2026-04-26T11:23:30Z</time></trkpt><trkpt lat="43.154336412983795" lon="12.022849128824426"><ele>258.0</ele><time>2026-04-26T11:23:32Z</time></trkpt><trkpt lat="43.15439820248768" lon="12.0228160145997"><ele>258.0</ele><time>2026-04-26T11:23:33Z</time></trkpt><trkpt lat="43.15450109486303" lon="12.022738178524333"><ele>258.0</ele><time>2026-04-26T11:23:35Z</time></trkpt><trkpt lat="43.15459757932929" lon="12.022674972087698"><ele>258.0</ele><time>2026-04-26T11:23:37Z</time></trkpt><trkpt lat="43.154656351644036" lon="12.02263045623188"><ele>258.0</ele><time>2026-04-26T11:23:39Z</time></trkpt><trkpt lat="43.15472304138299" lon="12.02257152948507"><ele>258.0</ele><time>2026-04-26T11:23:42Z</time></trkpt><trkpt lat="43.1547801665598" lon="12.022499257267773"><ele>258.0</ele><time>2026-04-26T11:23:44Z</time></trkpt><trkpt lat="43.15482748128283" lon="12.02244071320376"><ele>258.0</ele><time>2026-04-26T11:23:45.999Z</time></trkpt><trkpt lat="43.15489199862806" lon="12.022352571751636"><ele>258.0</ele><time>2026-04-26T11:23:47.999Z</time></trkpt><trkpt lat="43.15493348259945" lon="12.022283589980596"><ele>258.0</ele><time>2026-04-26T11:23:48.999Z</time></trkpt><trkpt lat="43.155007273504935" lon="12.022241096998275"><ele>258.0</ele><time>2026-04-26T11:23:49.999Z</time></trkpt><trkpt lat="43.1550838440731" lon="12.02221289521221"><ele>258.0</ele><time>2026-04-26T11:23:50.999Z</time></trkpt><trkpt lat="43.155152609829926" lon="12.022186280275422"><ele>258.0</ele><time>2026-04-26T11:23:51.999Z</time></trkpt><trkpt lat="43.15521759622002" lon="12.022155297072045"><ele>258.0</ele><time>2026-04-26T11:23:52.999Z</time></trkpt><trkpt lat="43.1552791953337" lon="12.0221189438277"><ele>258.0</ele><time>2026-04-26T11:23:53.999Z</time></trkpt><trkpt lat="43.155397522739115" lon="12.02206267507696"><ele>258.0</ele><time>2026-04-26T11:23:55.999Z</time></trkpt><trkpt lat="43.15549578434079" lon="12.022013782267681"><ele>258.0</ele><time>2026-04-26T11:23:57.999Z</time></trkpt><trkpt lat="43.15557603379748" lon="12.022077697043827"><ele>258.0</ele><time>2026-04-26T11:24:00.999Z</time></trkpt><trkpt lat="43.15567035938546" lon="12.022107687160442"><ele>258.0</ele><time>2026-04-26T11:24:02.999Z</time></trkpt><trkpt lat="43.155786074498266" lon="12.02205814644687"><ele>258.0</ele><time>2026-04-26T11:24:04.999Z</time></trkpt><trkpt lat="43.1558623146493" lon="12.022024226360877"><ele>258.0</ele><time>2026-04-26T11:24:05.999Z</time></trkpt><trkpt lat="43.15594097303494" lon="12.021974201954546"><ele>258.0</ele><time>2026-04-26T11:24:06.999Z</time></trkpt><trkpt lat="43.15601505562634" lon="12.021927130437621"><ele>258.1666666666667</ele><time>2026-04-26T11:24:07.999Z</time></trkpt><trkpt lat="43.15608887889936" lon="12.021884866931808"><ele>258.3333333333333</ele><time>2026-04-26T11:24:08.999Z</time></trkpt><trkpt lat="43.15615497034038" lon="12.021846866678802"><ele>258.5</ele><time>2026-04-26T11:24:09.999Z</time></trkpt><trkpt lat="43.156219914956914" lon="12.021828643641983"><ele>258.66666666666663</ele><time>2026-04-26T11:24:10.999Z</time></trkpt><trkpt lat="43.15631853362748" lon="12.0218452998535"><ele>258.8333333333333</ele><time>2026-04-26T11:24:12.999Z</time></trkpt><trkpt lat="43.156412588076954" lon="12.021960973114648"><ele>259.0</ele><time>2026-04-26T11:24:14.999Z</time></trkpt><trkpt lat="43.1565206782319" lon="12.022007123020664"><ele>259.0</ele><time>2026-04-26T11:24:16.999Z</time></trkpt><trkpt lat="43.1566285624996" lon="12.02192300093604"><ele>259.0</ele><time>2026-04-26T11:24:18.999Z</time></trkpt><trkpt lat="43.15673531208299" lon="12.021820976848183"><ele>259.0</ele><time>2026-04-26T11:24:20.999Z</time></trkpt><trkpt lat="43.15679380288678" lon="12.02176151238934"><ele>259.0</ele><time>2026-04-26T11:24:21.999Z</time></trkpt><trkpt lat="43.156850852870036" lon="12.021698156512544"><ele>259.0</ele><time>2026-04-26T11:24:23Z</time></trkpt><trkpt lat="43.156906736284135" lon="12.021639948805916"><ele>259.0</ele><time>2026-04-26T11:24:24Z</time></trkpt><trkpt lat="43.15695873603562" lon="12.021578545221724"><ele>259.0</ele><time>2026-04-26T11:24:25Z</time></trkpt><trkpt lat="43.157047377615164" lon="12.02151596784535"><ele>259.0</ele><time>2026-04-26T11:24:27Z</time></trkpt><trkpt lat="43.15713391731085" lon="12.021603554951051"><ele>259.0</ele><time>2026-04-26T11:24:29Z</time></trkpt><trkpt lat="43.157170058412035" lon="12.021674481896866"><ele>259.0</ele><time>2026-04-26T11:24:30Z</time></trkpt><trkpt lat="43.157218890125286" lon="12.021741271767876"><ele>259.0</ele><time>2026-04-26T11:24:31Z</time></trkpt><trkpt lat="43.1572775086699" lon="12.021793290964794"><ele>259.0</ele><time>2026-04-26T11:24:32Z</time></trkpt><trkpt lat="43.15734799307556" lon="12.021821217794804"><ele>259.0</ele><time>2026-04-26T11:24:33Z</time></trkpt><trkpt lat="43.15741685096595" lon="12.021831424302114"><ele>259.0</ele><time>2026-04-26T11:24:34Z</time></trkpt><trkpt lat="43.157484563110486" lon="12.02182991020617"><ele>259.0</ele><time>2026-04-26T11:24:35Z</time></trkpt><trkpt lat="43.157546878437515" lon="12.021815007591801"><ele>259.0</ele><time>2026-04-26T11:24:36Z</time></trkpt><trkpt lat="43.15761195123776" lon="12.02178149510931"><ele>259.0</ele><time>2026-04-26T11:24:37Z</time></trkpt><trkpt lat="43.15766629798292" lon="12.02173221416414"><ele>259.0</ele><time>2026-04-26T11:24:38Z</time></trkpt><trkpt lat="43.1577197220023" lon="12.02166787510953"><ele>259.14285714285717</ele><time>2026-04-26T11:24:39Z</time></trkpt><trkpt lat="43.15776469968115" lon="12.02159636827062"><ele>259.2857142857143</ele><time>2026-04-26T11:24:40Z</time></trkpt><trkpt lat="43.15779215776862" lon="12.021513416954166"><ele>259.42857142857144</ele><time>2026-04-26T11:24:41Z</time></trkpt><trkpt lat="43.15780046693311" lon="12.021411638554392"><ele>259.57142857142856</ele><time>2026-04-26T11:24:42Z</time></trkpt><trkpt lat="43.157806507764256" lon="12.021316944861915"><ele>259.7142857142857</ele><time>2026-04-26T11:24:43Z</time></trkpt><trkpt lat="43.15781039698136" lon="12.021218772866654"><ele>259.8571428571429</ele><time>2026-04-26T11:24:44Z</time></trkpt><trkpt lat="43.15782287093755" lon="12.021124728957298"><ele>260.0</ele><time>2026-04-26T11:24:45Z</time></trkpt><trkpt lat="43.15785182143939" lon="12.021033803960915"><ele>260.00000000000006</ele><time>2026-04-26T11:24:46Z</time></trkpt><trkpt lat="43.157888047465065" lon="12.020946459258186"><ele>260.0</ele><time>2026-04-26T11:24:47Z</time></trkpt><trkpt lat="43.15792871945753" lon="12.020863999107771"><ele>260.0</ele><time>2026-04-26T11:24:48Z</time></trkpt><trkpt lat="43.15797522697813" lon="12.020794001584719"><ele>260.0</ele><time>2026-04-26T11:24:49Z</time></trkpt><trkpt lat="43.158029714873365" lon="12.02073734709885"><ele>260.0</ele><time>2026-04-26T11:24:50Z</time></trkpt><trkpt lat="43.15809300983578" lon="12.02069593416311"><ele>260.00000000000006</ele><time>2026-04-26T11:24:51Z</time></trkpt><trkpt lat="43.158161975155316" lon="12.020669333872256"><ele>260.0</ele><time>2026-04-26T11:24:52Z</time></trkpt><trkpt lat="43.15823024393013" lon="12.020645460287822"><ele>260.4</ele><time>2026-04-26T11:24:53Z</time></trkpt><trkpt lat="43.15829308869872" lon="12.020611925218935"><ele>260.8</ele><time>2026-04-26T11:24:54Z</time></trkpt><trkpt lat="43.15839381776021" lon="12.020519613920687"><ele>261.2</ele><time>2026-04-26T11:24:56Z</time></trkpt><trkpt lat="43.158489215797715" lon="12.020431200628737"><ele>261.6</ele><time>2026-04-26T11:24:58Z</time></trkpt><trkpt lat="43.15861107552496" lon="12.020353834683664"><ele>262.0</ele><time>2026-04-26T11:25:00Z</time></trkpt><trkpt lat="43.15867501514046" lon="12.020307145886278"><ele>262.0</ele><time>2026-04-26T11:25:01Z</time></trkpt><trkpt lat="43.15873598301062" lon="12.020265042050056"><ele>262.0</ele><time>2026-04-26T11:25:02Z</time></trkpt><trkpt lat="43.1587937084922" lon="12.020226495363202"><ele>262.0</ele><time>2026-04-26T11:25:03Z</time></trkpt><trkpt lat="43.15885470190871" lon="12.020192072530183"><ele>262.0</ele><time>2026-04-26T11:25:04Z</time></trkpt><trkpt lat="43.158916068136854" lon="12.020156048682443"><ele>262.0</ele><time>2026-04-26T11:25:05Z</time></trkpt><trkpt lat="43.159038356158824" lon="12.02009563352383"><ele>262.0</ele><time>2026-04-26T11:25:07Z</time></trkpt><trkpt lat="43.159106893790664" lon="12.020068317421329"><ele>261.57142857142856</ele><time>2026-04-26T11:25:08Z</time></trkpt><trkpt lat="43.159173772345476" lon="12.020041416232342"><ele>261.14285714285717</ele><time>2026-04-26T11:25:09Z</time></trkpt><trkpt lat="43.1592392786877" lon="12.02001533767852"><ele>260.7142857142857</ele><time>2026-04-26T11:25:10Z</time></trkpt><trkpt lat="43.159302533819556" lon="12.019988873204136"><ele>260.2857142857143</ele><time>2026-04-26T11:25:11Z</time></trkpt><trkpt lat="43.15936388052742" lon="12.019962198462041"><ele>259.8571428571429</ele><time>2026-04-26T11:25:12Z</time></trkpt><trkpt lat="43.15942517713624" lon="12.019939058520361"><ele>259.42857142857144</ele><time>2026-04-26T11:25:13Z</time></trkpt><trkpt lat="43.15948703983337" lon="12.01991890141203"><ele>259.0</ele><time>2026-04-26T11:25:14Z</time></trkpt><trkpt lat="43.15960191519938" lon="12.019858346569313"><ele>259.0</ele><time>2026-04-26T11:25:16Z</time></trkpt><trkpt lat="43.15966517657749" lon="12.019829877198289"><ele>259.0</ele><time>2026-04-26T11:25:17Z</time></trkpt><trkpt lat="43.159726201563984" lon="12.019799470169463"><ele>259.0</ele><time>2026-04-26T11:25:18Z</time></trkpt><trkpt lat="43.15978575983033" lon="12.019759567631574"><ele>259.0</ele><time>2026-04-26T11:25:19Z</time></trkpt><trkpt lat="43.15984874458202" lon="12.019716302996517"><ele>259.0</ele><time>2026-04-26T11:25:20Z</time></trkpt><trkpt lat="43.159913422365264" lon="12.019677614744875"><ele>259.0</ele><time>2026-04-26T11:25:21Z</time></trkpt><trkpt lat="43.15997749947017" lon="12.019638263734963"><ele>259.0</ele><time>2026-04-26T11:25:22Z</time></trkpt><trkpt lat="43.160042972425465" lon="12.019600295236074"><ele>259.14285714285717</ele><time>2026-04-26T11:25:23Z</time></trkpt><trkpt lat="43.160103524993325" lon="12.019573387686664"><ele>259.2857142857143</ele><time>2026-04-26T11:25:24Z</time></trkpt><trkpt lat="43.16016576512359" lon="12.019554581864151"><ele>259.42857142857144</ele><time>2026-04-26T11:25:25Z</time></trkpt><trkpt lat="43.16023559006629" lon="12.019550665230703"><ele>259.57142857142856</ele><time>2026-04-26T11:25:26Z</time></trkpt><trkpt lat="43.16030316260412" lon="12.019569142568024"><ele>259.7142857142857</ele><time>2026-04-26T11:25:27Z</time></trkpt><trkpt lat="43.16037362513508" lon="12.019595889575516"><ele>259.8571428571429</ele><time>2026-04-26T11:25:28Z</time></trkpt><trkpt lat="43.16044132780745" lon="12.019591464391075"><ele>260.0</ele><time>2026-04-26T11:25:29Z</time></trkpt><trkpt lat="43.16050434170484" lon="12.019550614759131"><ele>260.0</ele><time>2026-04-26T11:25:30Z</time></trkpt><trkpt lat="43.16056246603363" lon="12.019483978649891"><ele>260.0</ele><time>2026-04-26T11:25:31Z</time></trkpt><trkpt lat="43.16062262596617" lon="12.019416978329875"><ele>260.0</ele><time>2026-04-26T11:25:32Z</time></trkpt><trkpt lat="43.16068566541989" lon="12.01935481829949"><ele>260.0</ele><time>2026-04-26T11:25:33Z</time></trkpt><trkpt lat="43.16075207528804" lon="12.01930772035104"><ele>260.0</ele><time>2026-04-26T11:25:34Z</time></trkpt><trkpt lat="43.160821765171946" lon="12.01927507249373"><ele>260.0</ele><time>2026-04-26T11:25:35Z</time></trkpt><trkpt lat="43.160896934514135" lon="12.019265554047193"><ele>259.8571428571429</ele><time>2026-04-26T11:25:36Z</time></trkpt><trkpt lat="43.1609690881519" lon="12.019278415316592"><ele>259.7142857142857</ele><time>2026-04-26T11:25:37Z</time></trkpt><trkpt lat="43.16103896532746" lon="12.019303235808666"><ele>259.57142857142856</ele><time>2026-04-26T11:25:38Z</time></trkpt><trkpt lat="43.16111022626224" lon="12.019334959469782"><ele>259.42857142857144</ele><time>2026-04-26T11:25:39Z</time></trkpt><trkpt lat="43.16118423838032" lon="12.019337060072578"><ele>259.2857142857143</ele><time>2026-04-26T11:25:40Z</time></trkpt><trkpt lat="43.161256663156834" lon="12.019299681811615"><ele>259.14285714285717</ele><time>2026-04-26T11:25:41Z</time></trkpt><trkpt lat="43.16132114949765" lon="12.019247681020856"><ele>259.0</ele><time>2026-04-26T11:25:42Z</time></trkpt><trkpt lat="43.161384204888996" lon="12.019198307925361"><ele>259.2</ele><time>2026-04-26T11:25:43Z</time></trkpt><trkpt lat="43.16148419023658" lon="12.019097745617751"><ele>259.4</ele><time>2026-04-26T11:25:45Z</time></trkpt><trkpt lat="43.16156379067598" lon="12.019030413329475"><ele>259.6</ele><time>2026-04-26T11:25:47Z</time></trkpt><trkpt lat="43.16164941891049" lon="12.018981939242677"><ele>259.8</ele><time>2026-04-26T11:25:49Z</time></trkpt><trkpt lat="43.16176289322798" lon="12.018965881871688"><ele>260.0</ele><time>2026-04-26T11:25:51Z</time></trkpt><trkpt lat="43.16182689677069" lon="12.01896886678051"><ele>259.8571428571429</ele><time>2026-04-26T11:25:52Z</time></trkpt><trkpt lat="43.16189242114114" lon="12.018970309572122"><ele>259.7142857142857</ele><time>2026-04-26T11:25:53Z</time></trkpt><trkpt lat="43.161961400187494" lon="12.018973535397489"><ele>259.57142857142856</ele><time>2026-04-26T11:25:54Z</time></trkpt><trkpt lat="43.16203570825466" lon="12.018983498275436"><ele>259.42857142857144</ele><time>2026-04-26T11:25:55Z</time></trkpt><trkpt lat="43.162106530516134" lon="12.019005376179656"><ele>259.2857142857143</ele><time>2026-04-26T11:25:56Z</time></trkpt><trkpt lat="43.16217232918188" lon="12.019037894273744"><ele>259.14285714285717</ele><time>2026-04-26T11:25:57Z</time></trkpt><trkpt lat="43.16223353243842" lon="12.019092638804958"><ele>259.0</ele><time>2026-04-26T11:25:58Z</time></trkpt><trkpt lat="43.16228012354871" lon="12.019168461532404"><ele>259.0</ele><time>2026-04-26T11:25:59Z</time></trkpt><trkpt lat="43.16232303159095" lon="12.019240713149964"><ele>259.0</ele><time>2026-04-26T11:26:00Z</time></trkpt><trkpt lat="43.16240729421109" lon="12.019271433933902"><ele>259.0</ele><time>2026-04-26T11:26:02Z</time></trkpt><trkpt lat="43.162468464587675" lon="12.019224217538582"><ele>259.0</ele><time>2026-04-26T11:26:03.999Z</time></trkpt><trkpt lat="43.16255985350142" lon="12.019207133119387"><ele>259.0</ele><time>2026-04-26T11:26:05.999Z</time></trkpt><trkpt lat="43.162627826154484" lon="12.019184435784748"><ele>259.0</ele><time>2026-04-26T11:26:06.999Z</time></trkpt><trkpt lat="43.16270641471169" lon="12.01915968778494"><ele>259.0</ele><time>2026-04-26T11:26:07.999Z</time></trkpt><trkpt lat="43.16278010254034" lon="12.019130674133466"><ele>259.0</ele><time>2026-04-26T11:26:08.999Z</time></trkpt><trkpt lat="43.162851035675935" lon="12.019101268893035"><ele>259.0</ele><time>2026-04-26T11:26:09.999Z</time></trkpt><trkpt lat="43.16291993753851" lon="12.019067847908005"><ele>259.0</ele><time>2026-04-26T11:26:10.999Z</time></trkpt><trkpt lat="43.16298433389804" lon="12.019026680521328"><ele>259.0</ele><time>2026-04-26T11:26:11.999Z</time></trkpt><trkpt lat="43.16304289213745" lon="12.01898228352457"><ele>259.0</ele><time>2026-04-26T11:26:12.999Z</time></trkpt><trkpt lat="43.163095235825104" lon="12.01893432895546"><ele>259.0</ele><time>2026-04-26T11:26:13.999Z</time></trkpt><trkpt lat="43.16319415559445" lon="12.018836558320203"><ele>259.16666666666663</ele><time>2026-04-26T11:26:15.999Z</time></trkpt><trkpt lat="43.163253659174224" lon="12.018695058813456"><ele>259.3333333333333</ele><time>2026-04-26T11:26:17.999Z</time></trkpt><trkpt lat="43.1632507537527" lon="12.018607256075315"><ele>259.5</ele><time>2026-04-26T11:26:18.999Z</time></trkpt><trkpt lat="43.163240991737396" lon="12.018515923725767"><ele>259.6666666666667</ele><time>2026-04-26T11:26:19.999Z</time></trkpt><trkpt lat="43.16325187450989" lon="12.018420762117898"><ele>259.83333333333337</ele><time>2026-04-26T11:26:20.999Z</time></trkpt><trkpt lat="43.16327281582313" lon="12.018325889174381"><ele>260.0</ele><time>2026-04-26T11:26:21.999Z</time></trkpt><trkpt lat="43.16330707729843" lon="12.018235921860933"><ele>260.00000000000006</ele><time>2026-04-26T11:26:22.999Z</time></trkpt><trkpt lat="43.16334595634291" lon="12.018156436414767"><ele>260.0</ele><time>2026-04-26T11:26:23.999Z</time></trkpt><trkpt lat="43.16339117825251" lon="12.018092551840942"><ele>260.0</ele><time>2026-04-26T11:26:24.999Z</time></trkpt><trkpt lat="43.16344402156743" lon="12.018036144011273"><ele>260.0</ele><time>2026-04-26T11:26:25.999Z</time></trkpt><trkpt lat="43.1635039729566" lon="12.017996065789536"><ele>260.0</ele><time>2026-04-26T11:26:26.999Z</time></trkpt><trkpt lat="43.163569883860674" lon="12.01796320329495"><ele>260.00000000000006</ele><time>2026-04-26T11:26:28Z</time></trkpt><trkpt lat="43.163638632277184" lon="12.017942774322085"><ele>260.0</ele><time>2026-04-26T11:26:29Z</time></trkpt><trkpt lat="43.16370769421095" lon="12.017937285046711"><ele>260.0</ele><time>2026-04-26T11:26:30Z</time></trkpt><trkpt lat="43.16377211402362" lon="12.017953838507124"><ele>260.0</ele><time>2026-04-26T11:26:31Z</time></trkpt><trkpt lat="43.16382873520492" lon="12.018008965799048"><ele>260.0</ele><time>2026-04-26T11:26:32Z</time></trkpt><trkpt lat="43.163874306692264" lon="12.018080230089828"><ele>260.0</ele><time>2026-04-26T11:26:33Z</time></trkpt><trkpt lat="43.16392550752024" lon="12.018134369043137"><ele>260.0</ele><time>2026-04-26T11:26:34Z</time></trkpt><trkpt lat="43.16404512826253" lon="12.018117637668636"><ele>260.0</ele><time>2026-04-26T11:26:36Z</time></trkpt><trkpt lat="43.164159417269495" lon="12.018063361371688"><ele>260.00000000000006</ele><time>2026-04-26T11:26:38Z</time></trkpt><trkpt lat="43.16422335672218" lon="12.018038491889227"><ele>260.0</ele><time>2026-04-26T11:26:39Z</time></trkpt><trkpt lat="43.164289096905335" lon="12.018013863689381"><ele>260.0</ele><time>2026-04-26T11:26:40Z</time></trkpt><trkpt lat="43.164352925927965" lon="12.017986954730977"><ele>260.0</ele><time>2026-04-26T11:26:41Z</time></trkpt><trkpt lat="43.16441636220976" lon="12.017964184015138"><ele>260.0</ele><time>2026-04-26T11:26:42Z</time></trkpt><trkpt lat="43.16448429627193" lon="12.017941107678084"><ele>260.00000000000006</ele><time>2026-04-26T11:26:43Z</time></trkpt><trkpt lat="43.1645487771907" lon="12.017912106043749"><ele>260.0</ele><time>2026-04-26T11:26:44Z</time></trkpt><trkpt lat="43.164613355110895" lon="12.017884753144815"><ele>260.00000000000006</ele><time>2026-04-26T11:26:45Z</time></trkpt><trkpt lat="43.16467713785264" lon="12.017860126977999"><ele>260.0</ele><time>2026-04-26T11:26:46Z</time></trkpt><trkpt lat="43.1647454415746" lon="12.017833390298847"><ele>260.0</ele><time>2026-04-26T11:26:47Z</time></trkpt><trkpt lat="43.164812808670725" lon="12.017811351002038"><ele>260.0</ele><time>2026-04-26T11:26:48Z</time></trkpt><trkpt lat="43.16488409087766" lon="12.017790089490282"><ele>260.0</ele><time>2026-04-26T11:26:49Z</time></trkpt><trkpt lat="43.16495558460343" lon="12.01776337733986"><ele>260.00000000000006</ele><time>2026-04-26T11:26:50Z</time></trkpt><trkpt lat="43.165024635387994" lon="12.017746408946657"><ele>260.0</ele><time>2026-04-26T11:26:51Z</time></trkpt><trkpt lat="43.16509433064277" lon="12.017731604869764"><ele>260.2</ele><time>2026-04-26T11:26:52Z</time></trkpt><trkpt lat="43.16515901401777" lon="12.017706000801914"><ele>260.4</ele><time>2026-04-26T11:26:53Z</time></trkpt><trkpt lat="43.1652705642537" lon="12.017644811274446"><ele>260.6</ele><time>2026-04-26T11:26:55Z</time></trkpt><trkpt lat="43.16529903818816" lon="12.017499614840574"><ele>260.8</ele><time>2026-04-26T11:26:57Z</time></trkpt><trkpt lat="43.16532696852049" lon="12.017353207362946"><ele>261.0</ele><time>2026-04-26T11:26:59Z</time></trkpt><trkpt lat="43.16543241936768" lon="12.017327945359625"><ele>261.0</ele><time>2026-04-26T11:27:01Z</time></trkpt><trkpt lat="43.16549412354045" lon="12.017346925372252"><ele>261.0</ele><time>2026-04-26T11:27:03Z</time></trkpt><trkpt lat="43.1654958143013" lon="12.017243434947986"><ele>261.0</ele><time>2026-04-26T11:27:06Z</time></trkpt><trkpt lat="43.165481533437735" lon="12.017124865214463"><ele>261.0</ele><time>2026-04-26T11:27:08Z</time></trkpt><trkpt lat="43.16546390888715" lon="12.01700390676076"><ele>261.0</ele><time>2026-04-26T11:27:10Z</time></trkpt><trkpt lat="43.16544390459514" lon="12.016886124952958"><ele>261.0</ele><time>2026-04-26T11:27:12Z</time></trkpt><trkpt lat="43.16541798006702" lon="12.016778347128078"><ele>260.8333333333333</ele><time>2026-04-26T11:27:14Z</time></trkpt><trkpt lat="43.165412167997566" lon="12.016651660982653"><ele>260.6666666666667</ele><time>2026-04-26T11:27:16Z</time></trkpt><trkpt lat="43.16539941602411" lon="12.0165285173475"><ele>260.5</ele><time>2026-04-26T11:27:18Z</time></trkpt><trkpt lat="43.165378970558066" lon="12.016408318294834"><ele>260.33333333333337</ele><time>2026-04-26T11:27:20Z</time></trkpt><trkpt lat="43.165366321076135" lon="12.016293927675392"><ele>260.1666666666667</ele><time>2026-04-26T11:27:22Z</time></trkpt><trkpt lat="43.16533959492544" lon="12.016179843899277"><ele>260.0</ele><time>2026-04-26T11:27:24Z</time></trkpt><trkpt lat="43.16533482817692" lon="12.01605740427053"><ele>260.0</ele><time>2026-04-26T11:27:26Z</time></trkpt><trkpt lat="43.16531048485321" lon="12.015928343992659"><ele>260.0</ele><time>2026-04-26T11:27:28Z</time></trkpt><trkpt lat="43.16528262999318" lon="12.01579004496826"><ele>260.0</ele><time>2026-04-26T11:27:30Z</time></trkpt><trkpt lat="43.16526429312788" lon="12.015631092868361"><ele>260.0</ele><time>2026-04-26T11:27:32Z</time></trkpt><trkpt lat="43.165253606512465" lon="12.01547807105689"><ele>260.0</ele><time>2026-04-26T11:27:34Z</time></trkpt><trkpt lat="43.16522777333576" lon="12.015341270222313"><ele>260.33333333333337</ele><time>2026-04-26T11:27:36Z</time></trkpt><trkpt lat="43.16521422651929" lon="12.015232383636716"><ele>260.6666666666667</ele><time>2026-04-26T11:27:38Z</time></trkpt><trkpt lat="43.165142506255236" lon="12.015210364797799"><ele>261.0</ele><time>2026-04-26T11:27:39Z</time></trkpt><trkpt lat="43.165123091467926" lon="12.01509663945314"><ele>261.3333333333333</ele><time>2026-04-26T11:27:43Z</time></trkpt><trkpt lat="43.16510599853792" lon="12.014996514809171"><ele>261.66666666666663</ele><time>2026-04-26T11:27:45Z</time></trkpt><trkpt lat="43.165072995610984" lon="12.014881820646485"><ele>262.0</ele><time>2026-04-26T11:27:47Z</time></trkpt><trkpt lat="43.16503597159071" lon="12.014731331462055"><ele>262.3333333333333</ele><time>2026-04-26T11:27:49Z</time></trkpt><trkpt lat="43.16502310124458" lon="12.014645959217155"><ele>262.66666666666663</ele><time>2026-04-26T11:27:50Z</time></trkpt><trkpt lat="43.165002945841664" lon="12.014561494143823"><ele>263.0</ele><time>2026-04-26T11:27:51Z</time></trkpt><trkpt lat="43.164987596648366" lon="12.014473447623589"><ele>263.3333333333333</ele><time>2026-04-26T11:27:52Z</time></trkpt><trkpt lat="43.16497222488" lon="12.014381702106283"><ele>263.6666666666667</ele><time>2026-04-26T11:27:53Z</time></trkpt><trkpt lat="43.1649603293294" lon="12.014294617058656"><ele>264.0</ele><time>2026-04-26T11:27:54Z</time></trkpt><trkpt lat="43.16492145900489" lon="12.01413260861481"><ele>264.2</ele><time>2026-04-26T11:27:56Z</time></trkpt><trkpt lat="43.164898323659074" lon="12.013965913237286"><ele>264.4</ele><time>2026-04-26T11:27:58Z</time></trkpt><trkpt lat="43.164873966866274" lon="12.013798207938269"><ele>264.6</ele><time>2026-04-26T11:28:00Z</time></trkpt><trkpt lat="43.16484447196528" lon="12.013632012557425"><ele>264.8</ele><time>2026-04-26T11:28:02Z</time></trkpt><trkpt lat="43.16482708386923" lon="12.013549056233407"><ele>265.0</ele><time>2026-04-26T11:28:03Z</time></trkpt><trkpt lat="43.16480465443423" lon="12.013465708334191"><ele>264.85714285714283</ele><time>2026-04-26T11:28:04Z</time></trkpt><trkpt lat="43.164767744479434" lon="12.013303573577566"><ele>264.7142857142857</ele><time>2026-04-26T11:28:06Z</time></trkpt><trkpt lat="43.16475886271276" lon="12.013213857148438"><ele>264.57142857142856</ele><time>2026-04-26T11:28:07Z</time></trkpt><trkpt lat="43.16473921237945" lon="12.013130375767245"><ele>264.42857142857144</ele><time>2026-04-26T11:28:08Z</time></trkpt><trkpt lat="43.16471800753246" lon="12.013046762982816"><ele>264.2857142857143</ele><time>2026-04-26T11:28:09Z</time></trkpt><trkpt lat="43.16469658719528" lon="12.01296230049714"><ele>264.1428571428571</ele><time>2026-04-26T11:28:10Z</time></trkpt><trkpt lat="43.16467537958527" lon="12.01287867681264"><ele>264.0</ele><time>2026-04-26T11:28:11Z</time></trkpt><trkpt lat="43.16465419201336" lon="12.012795132142394"><ele>264.0</ele><time>2026-04-26T11:28:12Z</time></trkpt><trkpt lat="43.16463228001773" lon="12.012708730974907"><ele>264.0</ele><time>2026-04-26T11:28:13Z</time></trkpt><trkpt lat="43.164610217134445" lon="12.012621734826181"><ele>264.0</ele><time>2026-04-26T11:28:14Z</time></trkpt><trkpt lat="43.164564872707736" lon="12.012549433980487"><ele>264.0</ele><time>2026-04-26T11:28:15Z</time></trkpt><trkpt lat="43.16454148568334" lon="12.012465827762512"><ele>264.0</ele><time>2026-04-26T11:28:16Z</time></trkpt><trkpt lat="43.16449820543592" lon="12.012306069526629"><ele>264.0</ele><time>2026-04-26T11:28:18Z</time></trkpt><trkpt lat="43.164441181063495" lon="12.01214707541642"><ele>264.1428571428571</ele><time>2026-04-26T11:28:19.999Z</time></trkpt><trkpt lat="43.16441692268315" lon="12.012064106353533"><ele>264.2857142857143</ele><time>2026-04-26T11:28:20.999Z</time></trkpt><trkpt lat="43.164392486455355" lon="12.01198141052241"><ele>264.42857142857144</ele><time>2026-04-26T11:28:21.999Z</time></trkpt><trkpt lat="43.16436372537777" lon="12.011900354046428"><ele>264.57142857142856</ele><time>2026-04-26T11:28:22.999Z</time></trkpt><trkpt lat="43.16432994183888" lon="12.011823153469022"><ele>264.7142857142857</ele><time>2026-04-26T11:28:23.999Z</time></trkpt><trkpt lat="43.164299547176164" lon="12.011742287387733"><ele>264.85714285714283</ele><time>2026-04-26T11:28:24.999Z</time></trkpt><trkpt lat="43.164273270703326" lon="12.011661618732136"><ele>265.0</ele><time>2026-04-26T11:28:25.999Z</time></trkpt><trkpt lat="43.16421688101477" lon="12.011509209149194"><ele>265.16666666666663</ele><time>2026-04-26T11:28:27.999Z</time></trkpt><trkpt lat="43.16420080623226" lon="12.011424582321219"><ele>265.3333333333333</ele><time>2026-04-26T11:28:28.999Z</time></trkpt><trkpt lat="43.16417099902015" lon="12.011345134274318"><ele>265.5</ele><time>2026-04-26T11:28:29.999Z</time></trkpt><trkpt lat="43.16414047866245" lon="12.01126378540917"><ele>265.6666666666667</ele><time>2026-04-26T11:28:30.999Z</time></trkpt><trkpt lat="43.16411066816532" lon="12.01118432860772"><ele>265.83333333333337</ele><time>2026-04-26T11:28:31.999Z</time></trkpt><trkpt lat="43.16408055037578" lon="12.011103755228499"><ele>266.0</ele><time>2026-04-26T11:28:32.999Z</time></trkpt><trkpt lat="43.164024751857355" lon="12.010953002792911"><ele>266.0</ele><time>2026-04-26T11:28:35Z</time></trkpt><trkpt lat="43.16399257939003" lon="12.010866081532338"><ele>266.0</ele><time>2026-04-26T11:28:36Z</time></trkpt><trkpt lat="43.163962976903655" lon="12.010786103660983"><ele>266.0</ele><time>2026-04-26T11:28:37Z</time></trkpt><trkpt lat="43.16393317539457" lon="12.010705588080684"><ele>266.0</ele><time>2026-04-26T11:28:38Z</time></trkpt><trkpt lat="43.16390339863578" lon="12.010625139372989"><ele>266.0</ele><time>2026-04-26T11:28:39Z</time></trkpt><trkpt lat="43.16387325842285" lon="12.010543708714279"><ele>266.0</ele><time>2026-04-26T11:28:40Z</time></trkpt><trkpt lat="43.163828879110596" lon="12.01047417496617"><ele>266.0</ele><time>2026-04-26T11:28:41Z</time></trkpt><trkpt lat="43.16379940256379" lon="12.010391930137189"><ele>266.5</ele><time>2026-04-26T11:28:42Z</time></trkpt><trkpt lat="43.163772607809456" lon="12.010310122141483"><ele>267.0</ele><time>2026-04-26T11:28:43Z</time></trkpt><trkpt lat="43.163753254972626" lon="12.010219480474824"><ele>267.5</ele><time>2026-04-26T11:28:44Z</time></trkpt><trkpt lat="43.16370838634815" lon="12.010147312136628"><ele>268.0</ele><time>2026-04-26T11:28:45Z</time></trkpt><trkpt lat="43.16368003739706" lon="12.010070142641208"><ele>268.5</ele><time>2026-04-26T11:28:46Z</time></trkpt><trkpt lat="43.163651543705505" lon="12.009988298197511"><ele>269.0</ele><time>2026-04-26T11:28:47Z</time></trkpt><trkpt lat="43.163589946646916" lon="12.009831772847141"><ele>269.2</ele><time>2026-04-26T11:28:49Z</time></trkpt><trkpt lat="43.16356166656992" lon="12.009753311662648"><ele>269.4</ele><time>2026-04-26T11:28:50Z</time></trkpt><trkpt lat="43.16350518842021" lon="12.009602196711397"><ele>269.6</ele><time>2026-04-26T11:28:52Z</time></trkpt><trkpt lat="43.16347110885316" lon="12.009454855488029"><ele>269.8</ele><time>2026-04-26T11:28:54Z</time></trkpt><trkpt lat="43.16341982249105" lon="12.009307856150519"><ele>270.0</ele><time>2026-04-26T11:28:56Z</time></trkpt><trkpt lat="43.163355628148956" lon="12.009160326858357"><ele>270.0</ele><time>2026-04-26T11:28:58Z</time></trkpt><trkpt lat="43.16327375885941" lon="12.009036530493454"><ele>270.0</ele><time>2026-04-26T11:29:00Z</time></trkpt><trkpt lat="43.163235746353834" lon="12.008966438960558"><ele>270.0</ele><time>2026-04-26T11:29:01Z</time></trkpt><trkpt lat="43.16315959900881" lon="12.008826401322008"><ele>270.0</ele><time>2026-04-26T11:29:03Z</time></trkpt><trkpt lat="43.16308251513912" lon="12.008691331507377"><ele>270.0</ele><time>2026-04-26T11:29:05Z</time></trkpt><trkpt lat="43.16301091463423" lon="12.008545261715131"><ele>270.0</ele><time>2026-04-26T11:29:07Z</time></trkpt><trkpt lat="43.16295799488334" lon="12.00849102977274"><ele>270.0</ele><time>2026-04-26T11:29:08Z</time></trkpt><trkpt lat="43.16291161346973" lon="12.008418946577871"><ele>270.0</ele><time>2026-04-26T11:29:09Z</time></trkpt><trkpt lat="43.162867924267566" lon="12.008348124171787"><ele>270.0</ele><time>2026-04-26T11:29:10Z</time></trkpt><trkpt lat="43.162822428769594" lon="12.008275880751489"><ele>270.0</ele><time>2026-04-26T11:29:11Z</time></trkpt><trkpt lat="43.162789032491226" lon="12.008191381596633"><ele>270.0</ele><time>2026-04-26T11:29:12Z</time></trkpt><trkpt lat="43.162744627064264" lon="12.008119718244473"><ele>270.0</ele><time>2026-04-26T11:29:13Z</time></trkpt><trkpt lat="43.16269902300211" lon="12.008046120487585"><ele>270.0</ele><time>2026-04-26T11:29:14Z</time></trkpt><trkpt lat="43.16264109822212" lon="12.007984996243792"><ele>270.0</ele><time>2026-04-26T11:29:15Z</time></trkpt><trkpt lat="43.16260007279262" lon="12.007904419591789"><ele>270.0</ele><time>2026-04-26T11:29:16Z</time></trkpt><trkpt lat="43.16255506281733" lon="12.00782614420385"><ele>270.0</ele><time>2026-04-26T11:29:17Z</time></trkpt><trkpt lat="43.162509411025084" lon="12.007752088964425"><ele>270.0</ele><time>2026-04-26T11:29:18Z</time></trkpt><trkpt lat="43.162459302970504" lon="12.007679566763322"><ele>270.0</ele><time>2026-04-26T11:29:19Z</time></trkpt><trkpt lat="43.16241418484812" lon="12.007608676233707"><ele>270.0</ele><time>2026-04-26T11:29:20Z</time></trkpt><trkpt lat="43.16236854179803" lon="12.007534422755713"><ele>270.57142857142856</ele><time>2026-04-26T11:29:21Z</time></trkpt><trkpt lat="43.162324258804965" lon="12.007462820377638"><ele>271.1428571428571</ele><time>2026-04-26T11:29:22Z</time></trkpt><trkpt lat="43.162282438843164" lon="12.00739813591989"><ele>271.7142857142857</ele><time>2026-04-26T11:29:23Z</time></trkpt><trkpt lat="43.16224106692865" lon="12.007327051684456"><ele>272.2857142857143</ele><time>2026-04-26T11:29:24Z</time></trkpt><trkpt lat="43.16219858236554" lon="12.007256118586946"><ele>272.8571428571429</ele><time>2026-04-26T11:29:25Z</time></trkpt><trkpt lat="43.162154008201895" lon="12.007188284402277"><ele>273.42857142857144</ele><time>2026-04-26T11:29:26Z</time></trkpt><trkpt lat="43.16210952401478" lon="12.007120439462094"><ele>274.0</ele><time>2026-04-26T11:29:27Z</time></trkpt><trkpt lat="43.16207178666501" lon="12.007050411244608"><ele>274.00000000000006</ele><time>2026-04-26T11:29:28Z</time></trkpt><trkpt lat="43.1620302288747" lon="12.006974034376354"><ele>274.0</ele><time>2026-04-26T11:29:29Z</time></trkpt><trkpt lat="43.16198564592607" lon="12.00690820199872"><ele>274.0</ele><time>2026-04-26T11:29:30Z</time></trkpt><trkpt lat="43.16194082383149" lon="12.00683956183722"><ele>274.0</ele><time>2026-04-26T11:29:31Z</time></trkpt><trkpt lat="43.16189656816806" lon="12.006772030949262"><ele>274.0</ele><time>2026-04-26T11:29:32Z</time></trkpt><trkpt lat="43.16185194433251" lon="12.006700121523014"><ele>274.00000000000006</ele><time>2026-04-26T11:29:33Z</time></trkpt><trkpt lat="43.161809858767896" lon="12.006629877838455"><ele>274.0</ele><time>2026-04-26T11:29:34Z</time></trkpt><trkpt lat="43.16176664347001" lon="12.006561250075421"><ele>274.14285714285717</ele><time>2026-04-26T11:29:35Z</time></trkpt><trkpt lat="43.16172098887962" lon="12.006490247681157"><ele>274.2857142857143</ele><time>2026-04-26T11:29:36Z</time></trkpt><trkpt lat="43.16167534420471" lon="12.006425945798895"><ele>274.42857142857144</ele><time>2026-04-26T11:29:37Z</time></trkpt><trkpt lat="43.161632733519305" lon="12.006353055674118"><ele>274.57142857142856</ele><time>2026-04-26T11:29:38Z</time></trkpt><trkpt lat="43.16158790948845" lon="12.006285625343759"><ele>274.7142857142857</ele><time>2026-04-26T11:29:39Z</time></trkpt><trkpt lat="43.16154392341898" lon="12.006216434632194"><ele>274.8571428571429</ele><time>2026-04-26T11:29:40Z</time></trkpt><trkpt lat="43.161502903734004" lon="12.006146568080515"><ele>275.0</ele><time>2026-04-26T11:29:41Z</time></trkpt><trkpt lat="43.161462058659794" lon="12.006074247183264"><ele>275.42857142857144</ele><time>2026-04-26T11:29:42Z</time></trkpt><trkpt lat="43.16142746287606" lon="12.005997123295181"><ele>275.85714285714283</ele><time>2026-04-26T11:29:43Z</time></trkpt><trkpt lat="43.16139434704341" lon="12.005917613559006"><ele>276.2857142857143</ele><time>2026-04-26T11:29:44Z</time></trkpt><trkpt lat="43.16136702931522" lon="12.00583511922574"><ele>276.7142857142857</ele><time>2026-04-26T11:29:45Z</time></trkpt><trkpt lat="43.16134080609988" lon="12.00574770232862"><ele>277.14285714285717</ele><time>2026-04-26T11:29:46Z</time></trkpt><trkpt lat="43.161311134637614" lon="12.0056649675072"><ele>277.57142857142856</ele><time>2026-04-26T11:29:47Z</time></trkpt><trkpt lat="43.161285522791864" lon="12.005577873085949"><ele>278.0</ele><time>2026-04-26T11:29:48Z</time></trkpt><trkpt lat="43.161262775820724" lon="12.005490767681717"><ele>278.0</ele><time>2026-04-26T11:29:49Z</time></trkpt><trkpt lat="43.161240793789034" lon="12.005400798619965"><ele>278.0</ele><time>2026-04-26T11:29:50Z</time></trkpt><trkpt lat="43.161220145429155" lon="12.005312434650724"><ele>278.0</ele><time>2026-04-26T11:29:51Z</time></trkpt><trkpt lat="43.16119663918618" lon="12.005224335909187"><ele>278.0</ele><time>2026-04-26T11:29:52Z</time></trkpt><trkpt lat="43.16115887755283" lon="12.005076465892238"><ele>278.0</ele><time>2026-04-26T11:29:54Z</time></trkpt><trkpt lat="43.16112331201032" lon="12.004925550881536"><ele>278.0</ele><time>2026-04-26T11:29:56Z</time></trkpt><trkpt lat="43.161093401184054" lon="12.004770796068193"><ele>278.0</ele><time>2026-04-26T11:29:58Z</time></trkpt><trkpt lat="43.1610560425711" lon="12.004609691686296"><ele>278.0</ele><time>2026-04-26T11:30:00Z</time></trkpt><trkpt lat="43.16102201693318" lon="12.004445629431038"><ele>278.0</ele><time>2026-04-26T11:30:02Z</time></trkpt><trkpt lat="43.16100395569492" lon="12.004362895961764"><ele>278.0</ele><time>2026-04-26T11:30:03Z</time></trkpt><trkpt lat="43.16096435483069" lon="12.004197862386249"><ele>278.0</ele><time>2026-04-26T11:30:05Z</time></trkpt><trkpt lat="43.1609199432259" lon="12.004040700264552"><ele>278.0</ele><time>2026-04-26T11:30:07Z</time></trkpt><trkpt lat="43.160865710808906" lon="12.003989488041931"><ele>278.0</ele><time>2026-04-26T11:30:08Z</time></trkpt><trkpt lat="43.16080132214449" lon="12.0038626044488"><ele>278.0</ele><time>2026-04-26T11:30:10Z</time></trkpt><trkpt lat="43.160847591499554" lon="12.003725214425128"><ele>278.0</ele><time>2026-04-26T11:30:11Z</time></trkpt><trkpt lat="43.1608116160752" lon="12.003569857002393"><ele>278.0</ele><time>2026-04-26T11:30:13Z</time></trkpt><trkpt lat="43.160778068612586" lon="12.003412114212173"><ele>277.85714285714283</ele><time>2026-04-26T11:30:15Z</time></trkpt><trkpt lat="43.16075515587255" lon="12.003330210970878"><ele>277.7142857142857</ele><time>2026-04-26T11:30:16Z</time></trkpt><trkpt lat="43.16072405566483" lon="12.003168479088435"><ele>277.57142857142856</ele><time>2026-04-26T11:30:18Z</time></trkpt><trkpt lat="43.16070559852102" lon="12.003083623887427"><ele>277.42857142857144</ele><time>2026-04-26T11:30:19Z</time></trkpt><trkpt lat="43.160685596608126" lon="12.002997235342352"><ele>277.2857142857143</ele><time>2026-04-26T11:30:20Z</time></trkpt><trkpt lat="43.16066684166581" lon="12.002909907804748"><ele>277.1428571428571</ele><time>2026-04-26T11:30:21Z</time></trkpt><trkpt lat="43.16064920887601" lon="12.002826426913547"><ele>277.0</ele><time>2026-04-26T11:30:22Z</time></trkpt><trkpt lat="43.16062880112926" lon="12.002744363874505"><ele>277.8</ele><time>2026-04-26T11:30:23Z</time></trkpt><trkpt lat="43.1606114260368" lon="12.002657226132671"><ele>278.6</ele><time>2026-04-26T11:30:24Z</time></trkpt><trkpt lat="43.16057702343435" lon="12.002497291146184"><ele>279.40000000000003</ele><time>2026-04-26T11:30:26Z</time></trkpt><trkpt lat="43.160541242239496" lon="12.00234016370465"><ele>280.2</ele><time>2026-04-26T11:30:28Z</time></trkpt><trkpt lat="43.1605315902705" lon="12.00225187746805"><ele>281.0</ele><time>2026-04-26T11:30:29Z</time></trkpt><trkpt lat="43.1605127097317" lon="12.002089113888838"><ele>281.0</ele><time>2026-04-26T11:30:31Z</time></trkpt><trkpt lat="43.16049640450041" lon="12.001934856389992"><ele>281.0</ele><time>2026-04-26T11:30:32.999Z</time></trkpt><trkpt lat="43.160476670475816" lon="12.001781481216527"><ele>281.0</ele><time>2026-04-26T11:30:34.999Z</time></trkpt><trkpt lat="43.1604559932166" lon="12.001628900526676"><ele>281.0</ele><time>2026-04-26T11:30:36.999Z</time></trkpt><trkpt lat="43.16043922433882" lon="12.001485821924065"><ele>281.0</ele><time>2026-04-26T11:30:38.999Z</time></trkpt><trkpt lat="43.16042682467711" lon="12.001329952596507"><ele>280.8</ele><time>2026-04-26T11:30:41Z</time></trkpt><trkpt lat="43.16040770058106" lon="12.00117501612933"><ele>280.6</ele><time>2026-04-26T11:30:43Z</time></trkpt><trkpt lat="43.160392976359645" lon="12.001078542094737"><ele>280.4</ele><time>2026-04-26T11:30:45Z</time></trkpt><trkpt lat="43.16039368705806" lon="12.000982868339548"><ele>280.2</ele><time>2026-04-26T11:30:47Z</time></trkpt><trkpt lat="43.160365186236135" lon="12.000831997394775"><ele>280.0</ele><time>2026-04-26T11:30:49Z</time></trkpt><trkpt lat="43.16035604434797" lon="12.000693781375885"><ele>279.6</ele><time>2026-04-26T11:30:51Z</time></trkpt><trkpt lat="43.16033568296448" lon="12.000555721614605"><ele>279.2</ele><time>2026-04-26T11:30:53Z</time></trkpt><trkpt lat="43.16032122688746" lon="12.000425345756712"><ele>278.8</ele><time>2026-04-26T11:30:55Z</time></trkpt><trkpt lat="43.160306971508234" lon="12.000277177459692"><ele>278.4</ele><time>2026-04-26T11:30:57Z</time></trkpt><trkpt lat="43.160289955467526" lon="12.000155844009637"><ele>278.0</ele><time>2026-04-26T11:30:59Z</time></trkpt><trkpt lat="43.160287429833154" lon="12.000045332357843"><ele>278.0</ele><time>2026-04-26T11:31:02Z</time></trkpt><trkpt lat="43.160268742228915" lon="11.999928473178347"><ele>278.0</ele><time>2026-04-26T11:31:06Z</time></trkpt><trkpt lat="43.16025850697123" lon="11.999814973843636"><ele>278.0</ele><time>2026-04-26T11:31:08Z</time></trkpt><trkpt lat="43.16024448046884" lon="11.999693054826185"><ele>278.0</ele><time>2026-04-26T11:31:10Z</time></trkpt><trkpt lat="43.160234294167104" lon="11.999572852369447"><ele>278.0</ele><time>2026-04-26T11:31:12Z</time></trkpt><trkpt lat="43.160231730824826" lon="11.999463695446192"><ele>278.0</ele><time>2026-04-26T11:31:14Z</time></trkpt><trkpt lat="43.16021978459174" lon="11.999339214144745"><ele>278.0</ele><time>2026-04-26T11:31:16Z</time></trkpt><trkpt lat="43.160214171031164" lon="11.99920794466231"><ele>278.0</ele><time>2026-04-26T11:31:18Z</time></trkpt><trkpt lat="43.16019574476943" lon="11.99907993168205"><ele>278.0</ele><time>2026-04-26T11:31:20Z</time></trkpt><trkpt lat="43.16018145699612" lon="11.998968792215491"><ele>278.0</ele><time>2026-04-26T11:31:22Z</time></trkpt><trkpt lat="43.16017187029322" lon="11.998865528945712"><ele>278.0</ele><time>2026-04-26T11:31:24Z</time></trkpt><trkpt lat="43.16015267556013" lon="11.998748959066125"><ele>278.0</ele><time>2026-04-26T11:31:26Z</time></trkpt><trkpt lat="43.16014058902831" lon="11.998605282365046"><ele>277.83333333333337</ele><time>2026-04-26T11:31:28Z</time></trkpt><trkpt lat="43.16012228759593" lon="11.998472013253908"><ele>277.6666666666667</ele><time>2026-04-26T11:31:30Z</time></trkpt><trkpt lat="43.16010676599866" lon="11.998343094622292"><ele>277.5</ele><time>2026-04-26T11:31:32Z</time></trkpt><trkpt lat="43.160094126537345" lon="11.99823124411471"><ele>277.3333333333333</ele><time>2026-04-26T11:31:34Z</time></trkpt><trkpt lat="43.16007592896294" lon="11.998113037389059"><ele>277.16666666666663</ele><time>2026-04-26T11:31:36Z</time></trkpt><trkpt lat="43.16008946377505" lon="11.99800081604758"><ele>277.0</ele><time>2026-04-26T11:31:38Z</time></trkpt><trkpt lat="43.160090941144325" lon="11.997901935602139"><ele>276.8333333333333</ele><time>2026-04-26T11:31:40Z</time></trkpt><trkpt lat="43.16009912598214" lon="11.997794719593056"><ele>276.66666666666663</ele><time>2026-04-26T11:31:42Z</time></trkpt><trkpt lat="43.160107099523984" lon="11.997658821272355"><ele>276.5</ele><time>2026-04-26T11:31:44Z</time></trkpt><trkpt lat="43.16011097184949" lon="11.997536504446778"><ele>276.3333333333333</ele><time>2026-04-26T11:31:46Z</time></trkpt><trkpt lat="43.1600652064967" lon="11.997459543548162"><ele>276.1666666666667</ele><time>2026-04-26T11:31:48Z</time></trkpt><trkpt lat="43.16001923361161" lon="11.997351183499076"><ele>276.0</ele><time>2026-04-26T11:31:50Z</time></trkpt><trkpt lat="43.15995487739241" lon="11.997275426954726"><ele>276.0</ele><time>2026-04-26T11:31:52Z</time></trkpt><trkpt lat="43.15988216467854" lon="11.997263567739168"><ele>276.0</ele><time>2026-04-26T11:31:54Z</time></trkpt><trkpt lat="43.15981392926941" lon="11.997214143253785"><ele>276.0</ele><time>2026-04-26T11:31:56Z</time></trkpt><trkpt lat="43.15971779916875" lon="11.997157484847525"><ele>276.0</ele><time>2026-04-26T11:31:58Z</time></trkpt><trkpt lat="43.15961624912863" lon="11.997095416761503"><ele>276.0</ele><time>2026-04-26T11:32:00Z</time></trkpt><trkpt lat="43.159517157127624" lon="11.997015852049495"><ele>276.25</ele><time>2026-04-26T11:32:02Z</time></trkpt><trkpt lat="43.15941837025399" lon="11.996929596427192"><ele>276.5</ele><time>2026-04-26T11:32:04Z</time></trkpt><trkpt lat="43.15932266614931" lon="11.99683708979644"><ele>276.75</ele><time>2026-04-26T11:32:06Z</time></trkpt><trkpt lat="43.15922608734889" lon="11.996744106440566"><ele>277.0</ele><time>2026-04-26T11:32:08Z</time></trkpt><trkpt lat="43.15913395279741" lon="11.996646968710884"><ele>277.0</ele><time>2026-04-26T11:32:10Z</time></trkpt><trkpt lat="43.15903816551971" lon="11.996555678596462"><ele>277.0</ele><time>2026-04-26T11:32:12Z</time></trkpt><trkpt lat="43.15894301543049" lon="11.996457109098905"><ele>277.0</ele><time>2026-04-26T11:32:14Z</time></trkpt><trkpt lat="43.1588457852756" lon="11.996359982222689"><ele>277.0</ele><time>2026-04-26T11:32:16Z</time></trkpt><trkpt lat="43.15874832104696" lon="11.996257479518867"><ele>276.8</ele><time>2026-04-26T11:32:18Z</time></trkpt><trkpt lat="43.15865324719294" lon="11.996165165510517"><ele>276.6</ele><time>2026-04-26T11:32:20Z</time></trkpt><trkpt lat="43.15856768053107" lon="11.996082431281698"><ele>276.40000000000003</ele><time>2026-04-26T11:32:22Z</time></trkpt><trkpt lat="43.15848238941383" lon="11.99601279657656"><ele>276.2</ele><time>2026-04-26T11:32:24Z</time></trkpt><trkpt lat="43.158415272800546" lon="11.99595684894795"><ele>276.0</ele><time>2026-04-26T11:32:26Z</time></trkpt><trkpt lat="43.1584181137795" lon="11.995859693885446"><ele>275.6666666666667</ele><time>2026-04-26T11:32:29Z</time></trkpt><trkpt lat="43.15845925788033" lon="11.995775359009123"><ele>275.3333333333333</ele><time>2026-04-26T11:32:32Z</time></trkpt><trkpt lat="43.15850492798846" lon="11.995687527984428"><ele>275.0</ele><time>2026-04-26T11:32:33Z</time></trkpt><trkpt lat="43.15856238403968" lon="11.995580301180995"><ele>274.66666666666663</ele><time>2026-04-26T11:32:35Z</time></trkpt><trkpt lat="43.15861590226532" lon="11.995476476453977"><ele>274.3333333333333</ele><time>2026-04-26T11:32:37Z</time></trkpt><trkpt lat="43.1586738187243" lon="11.995389041346153"><ele>274.0</ele><time>2026-04-26T11:32:39Z</time></trkpt><trkpt lat="43.15873440970587" lon="11.995292721123723"><ele>274.0</ele><time>2026-04-26T11:32:41Z</time></trkpt><trkpt lat="43.15878418421431" lon="11.995200417626078"><ele>274.0</ele><time>2026-04-26T11:32:43Z</time></trkpt><trkpt lat="43.15884968522129" lon="11.99510565603756"><ele>274.0</ele><time>2026-04-26T11:32:44.999Z</time></trkpt><trkpt lat="43.158904698762356" lon="11.995022376005952"><ele>274.0</ele><time>2026-04-26T11:32:47.001Z</time></trkpt><trkpt lat="43.158964182251665" lon="11.994926432416237"><ele>274.0</ele><time>2026-04-26T11:32:49.001Z</time></trkpt><trkpt lat="43.159026387675276" lon="11.994830580265782"><ele>274.0</ele><time>2026-04-26T11:32:51.001Z</time></trkpt><trkpt lat="43.15909872001391" lon="11.994713831840615"><ele>274.25</ele><time>2026-04-26T11:32:53.001Z</time></trkpt><trkpt lat="43.15917108117511" lon="11.994591555595806"><ele>274.5</ele><time>2026-04-26T11:32:55.001Z</time></trkpt><trkpt lat="43.15924816421667" lon="11.99449897763445"><ele>274.75</ele><time>2026-04-26T11:32:57.001Z</time></trkpt><trkpt lat="43.15931933185852" lon="11.994373127710796"><ele>275.0</ele><time>2026-04-26T11:32:59.001Z</time></trkpt><trkpt lat="43.159336114496405" lon="11.994209804302477"><ele>275.0</ele><time>2026-04-26T11:33:01.001Z</time></trkpt><trkpt lat="43.15930580632926" lon="11.994130036904851"><ele>275.0</ele><time>2026-04-26T11:33:02Z</time></trkpt><trkpt lat="43.1592690838229" lon="11.993983925132568"><ele>275.0</ele><time>2026-04-26T11:33:04Z</time></trkpt><trkpt lat="43.15919219355333" lon="11.993849259599322"><ele>275.0</ele><time>2026-04-26T11:33:06Z</time></trkpt><trkpt lat="43.15915343311397" lon="11.993774939987523"><ele>275.0</ele><time>2026-04-26T11:33:07Z</time></trkpt><trkpt lat="43.15910841864759" lon="11.993709144151936"><ele>275.0</ele><time>2026-04-26T11:33:08Z</time></trkpt><trkpt lat="43.15906349545394" lon="11.99364541863884"><ele>274.6</ele><time>2026-04-26T11:33:09Z</time></trkpt><trkpt lat="43.15897739893864" lon="11.993522465772392"><ele>274.2</ele><time>2026-04-26T11:33:11Z</time></trkpt><trkpt lat="43.158893129710144" lon="11.993402143234086"><ele>273.8</ele><time>2026-04-26T11:33:13Z</time></trkpt><trkpt lat="43.158802429817364" lon="11.993275775760809"><ele>273.4</ele><time>2026-04-26T11:33:15Z</time></trkpt><trkpt lat="43.158757186384534" lon="11.993214928374625"><ele>273.0</ele><time>2026-04-26T11:33:16Z</time></trkpt><trkpt lat="43.15870898547615" lon="11.993152858877616"><ele>273.0</ele><time>2026-04-26T11:33:17Z</time></trkpt><trkpt lat="43.158661971648286" lon="11.993092682145267"><ele>273.0</ele><time>2026-04-26T11:33:18Z</time></trkpt><trkpt lat="43.15860248540801" lon="11.99304526881623"><ele>273.0</ele><time>2026-04-26T11:33:19Z</time></trkpt><trkpt lat="43.15855532111528" lon="11.99297671263551"><ele>273.0</ele><time>2026-04-26T11:33:20Z</time></trkpt><trkpt lat="43.15850606576476" lon="11.992903729572223"><ele>273.0</ele><time>2026-04-26T11:33:21Z</time></trkpt><trkpt lat="43.158459272073266" lon="11.992843933205497"><ele>273.0</ele><time>2026-04-26T11:33:22Z</time></trkpt><trkpt lat="43.158411510439976" lon="11.992783750825573"><ele>273.0</ele><time>2026-04-26T11:33:23Z</time></trkpt><trkpt lat="43.158308056291716" lon="11.992664802493943"><ele>273.0</ele><time>2026-04-26T11:33:25Z</time></trkpt><trkpt lat="43.15824976216391" lon="11.992601102658961"><ele>273.0</ele><time>2026-04-26T11:33:26Z</time></trkpt><trkpt lat="43.15817151710998" lon="11.99257984341109"><ele>273.0</ele><time>2026-04-26T11:33:27Z</time></trkpt><trkpt lat="43.15809011202982" lon="11.992613603194762"><ele>273.0</ele><time>2026-04-26T11:33:28Z</time></trkpt><trkpt lat="43.15801512517637" lon="11.992667203033772"><ele>273.0</ele><time>2026-04-26T11:33:29Z</time></trkpt><trkpt lat="43.157954988099874" lon="11.992716544097702"><ele>273.0</ele><time>2026-04-26T11:33:30Z</time></trkpt><trkpt lat="43.1578935273911" lon="11.99276707050684"><ele>273.1666666666667</ele><time>2026-04-26T11:33:31Z</time></trkpt><trkpt lat="43.15783400439034" lon="11.99280765898616"><ele>273.3333333333333</ele><time>2026-04-26T11:33:32Z</time></trkpt><trkpt lat="43.15777433509069" lon="11.99285296527256"><ele>273.5</ele><time>2026-04-26T11:33:33Z</time></trkpt><trkpt lat="43.157714850939335" lon="11.99289118556223"><ele>273.66666666666663</ele><time>2026-04-26T11:33:34Z</time></trkpt><trkpt lat="43.15759287141574" lon="11.992971421334396"><ele>273.8333333333333</ele><time>2026-04-26T11:33:36Z</time></trkpt><trkpt lat="43.157532630826836" lon="11.993018643704064"><ele>274.0</ele><time>2026-04-26T11:33:37Z</time></trkpt><trkpt lat="43.15746885549361" lon="11.993051294783521"><ele>274.0</ele><time>2026-04-26T11:33:38Z</time></trkpt><trkpt lat="43.15740318184249" lon="11.993097402316183"><ele>274.0</ele><time>2026-04-26T11:33:39Z</time></trkpt><trkpt lat="43.15734101561096" lon="11.993142666118596"><ele>274.0</ele><time>2026-04-26T11:33:40Z</time></trkpt><trkpt lat="43.15723188752962" lon="11.993212279685919"><ele>274.0</ele><time>2026-04-26T11:33:42Z</time></trkpt><trkpt lat="43.15711996734831" lon="11.99328458749016"><ele>274.0</ele><time>2026-04-26T11:33:44Z</time></trkpt><trkpt lat="43.157002795538816" lon="11.993361700827814"><ele>274.0</ele><time>2026-04-26T11:33:46Z</time></trkpt><trkpt lat="43.15688823552608" lon="11.993431780221314"><ele>274.0</ele><time>2026-04-26T11:33:48Z</time></trkpt><trkpt lat="43.15683102178146" lon="11.993468330804554"><ele>274.0</ele><time>2026-04-26T11:33:49Z</time></trkpt><trkpt lat="43.15677174959145" lon="11.993508166292546"><ele>274.0</ele><time>2026-04-26T11:33:50Z</time></trkpt><trkpt lat="43.156707817164936" lon="11.993549146188672"><ele>274.0</ele><time>2026-04-26T11:33:51Z</time></trkpt><trkpt lat="43.156650360624816" lon="11.993588245376039"><ele>274.0</ele><time>2026-04-26T11:33:52Z</time></trkpt><trkpt lat="43.15659284425729" lon="11.993627170084359"><ele>273.8333333333333</ele><time>2026-04-26T11:33:53Z</time></trkpt><trkpt lat="43.156532606914894" lon="11.993664385134784"><ele>273.66666666666663</ele><time>2026-04-26T11:33:54Z</time></trkpt><trkpt lat="43.15647142615713" lon="11.993705485820298"><ele>273.5</ele><time>2026-04-26T11:33:55Z</time></trkpt><trkpt lat="43.15641252981148" lon="11.993742833773242"><ele>273.3333333333333</ele><time>2026-04-26T11:33:56Z</time></trkpt><trkpt lat="43.156301140576524" lon="11.993817121568673"><ele>273.1666666666667</ele><time>2026-04-26T11:33:58Z</time></trkpt><trkpt lat="43.1562363012894" lon="11.993850092528069"><ele>273.0</ele><time>2026-04-26T11:33:59Z</time></trkpt><trkpt lat="43.156122743362026" lon="11.99392768005795"><ele>273.0</ele><time>2026-04-26T11:34:01Z</time></trkpt><trkpt lat="43.15601532132257" lon="11.993999898312799"><ele>273.0</ele><time>2026-04-26T11:34:03Z</time></trkpt><trkpt lat="43.15591737662595" lon="11.994060642317768"><ele>273.0</ele><time>2026-04-26T11:34:05Z</time></trkpt><trkpt lat="43.155821138780475" lon="11.994121432270852"><ele>273.0</ele><time>2026-04-26T11:34:07Z</time></trkpt><trkpt lat="43.155728288586026" lon="11.99418010106964"><ele>273.0</ele><time>2026-04-26T11:34:09Z</time></trkpt><trkpt lat="43.15563584441901" lon="11.994240763406362"><ele>273.0</ele><time>2026-04-26T11:34:11Z</time></trkpt><trkpt lat="43.15554275747092" lon="11.994296568239251"><ele>273.0</ele><time>2026-04-26T11:34:13Z</time></trkpt><trkpt lat="43.15544491470755" lon="11.99435912979019"><ele>273.0</ele><time>2026-04-26T11:34:15Z</time></trkpt><trkpt lat="43.15534848882464" lon="11.99442581241639"><ele>273.0</ele><time>2026-04-26T11:34:17Z</time></trkpt><trkpt lat="43.15524868960335" lon="11.994483388868774"><ele>273.0</ele><time>2026-04-26T11:34:18.999Z</time></trkpt><trkpt lat="43.15515295297195" lon="11.994552467590985"><ele>273.0</ele><time>2026-04-26T11:34:20.999Z</time></trkpt><trkpt lat="43.15505636915246" lon="11.994615390896477"><ele>273.0</ele><time>2026-04-26T11:34:22.999Z</time></trkpt><trkpt lat="43.154952687979005" lon="11.994686208629446"><ele>273.0</ele><time>2026-04-26T11:34:24.999Z</time></trkpt><trkpt lat="43.1548491585905" lon="11.99475451375446"><ele>273.0</ele><time>2026-04-26T11:34:26.999Z</time></trkpt><trkpt lat="43.15475824107552" lon="11.994810296227167"><ele>273.0</ele><time>2026-04-26T11:34:28.999Z</time></trkpt><trkpt lat="43.15467504739885" lon="11.994866444132157"><ele>273.1666666666667</ele><time>2026-04-26T11:34:30.999Z</time></trkpt><trkpt lat="43.15459903831569" lon="11.99491591899611"><ele>273.3333333333333</ele><time>2026-04-26T11:34:32.999Z</time></trkpt><trkpt lat="43.15452655108203" lon="11.994962603057715"><ele>273.5</ele><time>2026-04-26T11:34:34.999Z</time></trkpt><trkpt lat="43.154450507671214" lon="11.995010772821434"><ele>273.66666666666663</ele><time>2026-04-26T11:34:36.999Z</time></trkpt><trkpt lat="43.154369481323876" lon="11.99505732579783"><ele>273.8333333333333</ele><time>2026-04-26T11:34:38.999Z</time></trkpt><trkpt lat="43.15428068849594" lon="11.995111087536003"><ele>274.0</ele><time>2026-04-26T11:34:40.999Z</time></trkpt><trkpt lat="43.15418970279689" lon="11.995170549789798"><ele>274.0</ele><time>2026-04-26T11:34:42.999Z</time></trkpt><trkpt lat="43.15409845045828" lon="11.995233548471685"><ele>274.0</ele><time>2026-04-26T11:34:44.999Z</time></trkpt><trkpt lat="43.154002990402006" lon="11.9952947576439"><ele>274.0</ele><time>2026-04-26T11:34:46.999Z</time></trkpt><trkpt lat="43.15391005151576" lon="11.995350817061022"><ele>274.0</ele><time>2026-04-26T11:34:48.999Z</time></trkpt><trkpt lat="43.15382450398408" lon="11.995409610518177"><ele>274.0</ele><time>2026-04-26T11:34:50.999Z</time></trkpt><trkpt lat="43.153736895511116" lon="11.995458119117869"><ele>274.0</ele><time>2026-04-26T11:34:52.999Z</time></trkpt><trkpt lat="43.153653420764" lon="11.995510102343154"><ele>274.0</ele><time>2026-04-26T11:34:54.999Z</time></trkpt><trkpt lat="43.153559075112334" lon="11.99557294562372"><ele>274.0</ele><time>2026-04-26T11:34:56.999Z</time></trkpt><trkpt lat="43.15347338363085" lon="11.995608786726494"><ele>274.0</ele><time>2026-04-26T11:34:59.999Z</time></trkpt><trkpt lat="43.15346637106421" lon="11.99544765178942"><ele>274.0</ele><time>2026-04-26T11:35:03.999Z</time></trkpt><trkpt lat="43.15350928482217" lon="11.995309306512011"><ele>274.0</ele><time>2026-04-26T11:35:05.999Z</time></trkpt><trkpt lat="43.15354332452329" lon="11.995175195165498"><ele>274.0</ele><time>2026-04-26T11:35:07.999Z</time></trkpt><trkpt lat="43.1535909894201" lon="11.995043671241461"><ele>274.0</ele><time>2026-04-26T11:35:09.999Z</time></trkpt><trkpt lat="43.15361521061558" lon="11.994904431200649"><ele>274.0</ele><time>2026-04-26T11:35:11.999Z</time></trkpt><trkpt lat="43.15364854397048" lon="11.994759569347794"><ele>274.0</ele><time>2026-04-26T11:35:13.999Z</time></trkpt><trkpt lat="43.15368835734816" lon="11.994613427357663"><ele>273.75</ele><time>2026-04-26T11:35:15.999Z</time></trkpt><trkpt lat="43.153726664506856" lon="11.994469776273817"><ele>273.5</ele><time>2026-04-26T11:35:17.999Z</time></trkpt><trkpt lat="43.15377846700505" lon="11.99432931997314"><ele>273.25</ele><time>2026-04-26T11:35:19.999Z</time></trkpt><trkpt lat="43.15381707281211" lon="11.994183762485218"><ele>273.0</ele><time>2026-04-26T11:35:21.999Z</time></trkpt><trkpt lat="43.15385596653417" lon="11.994037119394058"><ele>273.0</ele><time>2026-04-26T11:35:23.999Z</time></trkpt><trkpt lat="43.15389706249015" lon="11.993882304103323"><ele>273.0</ele><time>2026-04-26T11:35:25.999Z</time></trkpt><trkpt lat="43.15392400878908" lon="11.993717903756348"><ele>273.0</ele><time>2026-04-26T11:35:27.999Z</time></trkpt><trkpt lat="43.15396035459381" lon="11.993647096968457"><ele>273.0</ele><time>2026-04-26T11:35:28.999Z</time></trkpt><trkpt lat="43.15400197595209" lon="11.993492423017011"><ele>273.0</ele><time>2026-04-26T11:35:30.999Z</time></trkpt><trkpt lat="43.1540441028179" lon="11.993337758986744"><ele>273.5</ele><time>2026-04-26T11:35:32.999Z</time></trkpt><trkpt lat="43.154086694175284" lon="11.993182067552825"><ele>274.0</ele><time>2026-04-26T11:35:34.999Z</time></trkpt><trkpt lat="43.1541291413261" lon="11.993026903248264"><ele>274.5</ele><time>2026-04-26T11:35:36.999Z</time></trkpt><trkpt lat="43.15417274708981" lon="11.992867503666155"><ele>275.0</ele><time>2026-04-26T11:35:38.999Z</time></trkpt><trkpt lat="43.15421659580088" lon="11.99270721600629"><ele>275.0</ele><time>2026-04-26T11:35:40.999Z</time></trkpt><trkpt lat="43.154259577414734" lon="11.992546219793054"><ele>275.0</ele><time>2026-04-26T11:35:42.999Z</time></trkpt><trkpt lat="43.15430247163499" lon="11.992385061125242"><ele>275.0</ele><time>2026-04-26T11:35:44.999Z</time></trkpt><trkpt lat="43.15434584922326" lon="11.992222086398579"><ele>275.0</ele><time>2026-04-26T11:35:46.999Z</time></trkpt><trkpt lat="43.15438850133732" lon="11.992061837363755"><ele>275.0</ele><time>2026-04-26T11:35:48.999Z</time></trkpt><trkpt lat="43.15441016882655" lon="11.991980430011834"><ele>275.0</ele><time>2026-04-26T11:35:49.999Z</time></trkpt><trkpt lat="43.15443174602168" lon="11.991899361936424"><ele>275.0</ele><time>2026-04-26T11:35:50.999Z</time></trkpt><trkpt lat="43.154475012941596" lon="11.991736802968923"><ele>275.0</ele><time>2026-04-26T11:35:52.999Z</time></trkpt><trkpt lat="43.154517858833806" lon="11.991575825904496"><ele>275.0</ele><time>2026-04-26T11:35:54.999Z</time></trkpt><trkpt lat="43.154539585701286" lon="11.991494195472121"><ele>275.0</ele><time>2026-04-26T11:35:55.999Z</time></trkpt><trkpt lat="43.154582020691166" lon="11.991334762210457"><ele>275.0</ele><time>2026-04-26T11:35:57.999Z</time></trkpt><trkpt lat="43.1545878556313" lon="11.991248707049653"><ele>275.0</ele><time>2026-04-26T11:35:58.999Z</time></trkpt><trkpt lat="43.15464349077555" lon="11.9911041337345"><ele>275.0</ele><time>2026-04-26T11:36:00.999Z</time></trkpt><trkpt lat="43.154683310448576" lon="11.990955676377718"><ele>275.0</ele><time>2026-04-26T11:36:02.999Z</time></trkpt><trkpt lat="43.154711005783604" lon="11.990797493243571"><ele>275.0</ele><time>2026-04-26T11:36:04.999Z</time></trkpt><trkpt lat="43.15475103512504" lon="11.990642299327455"><ele>275.0</ele><time>2026-04-26T11:36:06.999Z</time></trkpt><trkpt lat="43.15480681431246" lon="11.99049721945399"><ele>275.0</ele><time>2026-04-26T11:36:08.999Z</time></trkpt><trkpt lat="43.15483405268835" lon="11.990336396669901"><ele>275.0</ele><time>2026-04-26T11:36:10.999Z</time></trkpt><trkpt lat="43.15487683712452" lon="11.990181105952376"><ele>275.0</ele><time>2026-04-26T11:36:12.999Z</time></trkpt><trkpt lat="43.15491774010936" lon="11.990023232829506"><ele>275.4</ele><time>2026-04-26T11:36:14.999Z</time></trkpt><trkpt lat="43.154954139070554" lon="11.989952707149692"><ele>275.8</ele><time>2026-04-26T11:36:15.999Z</time></trkpt><trkpt lat="43.154981121055954" lon="11.98978844141822"><ele>276.2</ele><time>2026-04-26T11:36:17.999Z</time></trkpt><trkpt lat="43.15502558112849" lon="11.989633855195775"><ele>276.6</ele><time>2026-04-26T11:36:19.999Z</time></trkpt><trkpt lat="43.15506855434974" lon="11.989477396419035"><ele>277.0</ele><time>2026-04-26T11:36:21.999Z</time></trkpt><trkpt lat="43.1551072483317" lon="11.989318764621183"><ele>277.0</ele><time>2026-04-26T11:36:23.999Z</time></trkpt><trkpt lat="43.15512885982184" lon="11.989236213101925"><ele>277.0</ele><time>2026-04-26T11:36:24.999Z</time></trkpt><trkpt lat="43.15517411808292" lon="11.98907383579083"><ele>277.0</ele><time>2026-04-26T11:36:26.999Z</time></trkpt><trkpt lat="43.155197184617634" lon="11.988993357812374"><ele>277.0</ele><time>2026-04-26T11:36:27.999Z</time></trkpt><trkpt lat="43.155218646890745" lon="11.988908911842865"><ele>277.0</ele><time>2026-04-26T11:36:28.999Z</time></trkpt><trkpt lat="43.155240013635535" lon="11.988824262152846"><ele>277.0</ele><time>2026-04-26T11:36:29.999Z</time></trkpt><trkpt lat="43.155261889944605" lon="11.988741523534651"><ele>277.0</ele><time>2026-04-26T11:36:30.999Z</time></trkpt><trkpt lat="43.15528286348923" lon="11.988656678783164"><ele>277.0</ele><time>2026-04-26T11:36:31.999Z</time></trkpt><trkpt lat="43.15530397212779" lon="11.988573336365752"><ele>277.0</ele><time>2026-04-26T11:36:32.999Z</time></trkpt><trkpt lat="43.15532684683061" lon="11.988490254983335"><ele>277.0</ele><time>2026-04-26T11:36:33.999Z</time></trkpt><trkpt lat="43.15535070702202" lon="11.988407167411351"><ele>277.0</ele><time>2026-04-26T11:36:34.999Z</time></trkpt><trkpt lat="43.15537366367536" lon="11.988324785302092"><ele>277.0</ele><time>2026-04-26T11:36:35.999Z</time></trkpt><trkpt lat="43.15539631090269" lon="11.988243038784574"><ele>277.0</ele><time>2026-04-26T11:36:36.999Z</time></trkpt><trkpt lat="43.15541800597871" lon="11.988160934765073"><ele>277.0</ele><time>2026-04-26T11:36:37.999Z</time></trkpt><trkpt lat="43.15544031752139" lon="11.988079482680432"><ele>277.0</ele><time>2026-04-26T11:36:38.999Z</time></trkpt><trkpt lat="43.155461148100436" lon="11.987997947334803"><ele>277.0</ele><time>2026-04-26T11:36:39.999Z</time></trkpt><trkpt lat="43.15549823196347" lon="11.98783827476681"><ele>277.0</ele><time>2026-04-26T11:36:41.999Z</time></trkpt><trkpt lat="43.15553149026721" lon="11.987681541421818"><ele>277.0</ele><time>2026-04-26T11:36:43.999Z</time></trkpt><trkpt lat="43.155566880064846" lon="11.987525468080696"><ele>277.0</ele><time>2026-04-26T11:36:45.999Z</time></trkpt><trkpt lat="43.15559929156119" lon="11.987373564667072"><ele>277.25</ele><time>2026-04-26T11:36:47.999Z</time></trkpt><trkpt lat="43.15563054914546" lon="11.987216479888213"><ele>277.5</ele><time>2026-04-26T11:36:49.999Z</time></trkpt><trkpt lat="43.15566602572715" lon="11.98706271495768"><ele>277.75</ele><time>2026-04-26T11:36:51.999Z</time></trkpt><trkpt lat="43.15569406308412" lon="11.986912006780853"><ele>278.0</ele><time>2026-04-26T11:36:53.999Z</time></trkpt><trkpt lat="43.15572321392717" lon="11.986757800150485"><ele>278.4</ele><time>2026-04-26T11:36:55.999Z</time></trkpt><trkpt lat="43.15575360087881" lon="11.98661070604927"><ele>278.8</ele><time>2026-04-26T11:36:57.999Z</time></trkpt><trkpt lat="43.15577948798701" lon="11.986466006475966"><ele>279.2</ele><time>2026-04-26T11:36:59.999Z</time></trkpt><trkpt lat="43.15580117166242" lon="11.986323905758073"><ele>279.6</ele><time>2026-04-26T11:37:01.999Z</time></trkpt><trkpt lat="43.155841182038934" lon="11.986193950829582"><ele>280.0</ele><time>2026-04-26T11:37:03.999Z</time></trkpt><trkpt lat="43.15581062633715" lon="11.986038223939538"><ele>280.0</ele><time>2026-04-26T11:37:05.999Z</time></trkpt><trkpt lat="43.15577988822096" lon="11.985894508547798"><ele>280.0</ele><time>2026-04-26T11:37:08Z</time></trkpt><trkpt lat="43.15574979349907" lon="11.985753529798956"><ele>280.0</ele><time>2026-04-26T11:37:10Z</time></trkpt><trkpt lat="43.155731349155595" lon="11.985600396530913"><ele>280.0</ele><time>2026-04-26T11:37:12Z</time></trkpt><trkpt lat="43.155718841178725" lon="11.985444363265538"><ele>280.0</ele><time>2026-04-26T11:37:14Z</time></trkpt><trkpt lat="43.15571142576345" lon="11.985284161803383"><ele>280.2</ele><time>2026-04-26T11:37:15.999Z</time></trkpt><trkpt lat="43.15570659648763" lon="11.985129116431612"><ele>280.4</ele><time>2026-04-26T11:37:17.999Z</time></trkpt><trkpt lat="43.15569782681635" lon="11.984976229232558"><ele>280.6</ele><time>2026-04-26T11:37:19.999Z</time></trkpt><trkpt lat="43.15568571521023" lon="11.984831206415091"><ele>280.8</ele><time>2026-04-26T11:37:21.999Z</time></trkpt><trkpt lat="43.155677767384894" lon="11.984688317706011"><ele>281.0</ele><time>2026-04-26T11:37:23.999Z</time></trkpt><trkpt lat="43.1556751006529" lon="11.984545594170834"><ele>280.40000000000003</ele><time>2026-04-26T11:37:25.999Z</time></trkpt><trkpt lat="43.15566630885011" lon="11.984400902559788"><ele>279.8</ele><time>2026-04-26T11:37:27.999Z</time></trkpt><trkpt lat="43.15565579546189" lon="11.98425890009205"><ele>279.20000000000005</ele><time>2026-04-26T11:37:29.999Z</time></trkpt><trkpt lat="43.15564498436397" lon="11.984114367965251"><ele>278.6</ele><time>2026-04-26T11:37:31.999Z</time></trkpt><trkpt lat="43.15564430733787" lon="11.98396588322988"><ele>278.0</ele><time>2026-04-26T11:37:33.999Z</time></trkpt><trkpt lat="43.15563581660149" lon="11.983820329366848"><ele>278.0</ele><time>2026-04-26T11:37:35.999Z</time></trkpt><trkpt lat="43.15562835497817" lon="11.983673140867882"><ele>278.0</ele><time>2026-04-26T11:37:37.999Z</time></trkpt><trkpt lat="43.155625538458416" lon="11.983527997816703"><ele>278.0</ele><time>2026-04-26T11:37:39.999Z</time></trkpt><trkpt lat="43.155618983559556" lon="11.983376514982483"><ele>278.0</ele><time>2026-04-26T11:37:41.999Z</time></trkpt><trkpt lat="43.15560908528407" lon="11.98322056555237"><ele>278.0</ele><time>2026-04-26T11:37:43.999Z</time></trkpt><trkpt lat="43.15559934922051" lon="11.98306746071827"><ele>278.0</ele><time>2026-04-26T11:37:45.999Z</time></trkpt><trkpt lat="43.155593104813335" lon="11.982916157076893"><ele>278.0</ele><time>2026-04-26T11:37:47.999Z</time></trkpt><trkpt lat="43.15558412285511" lon="11.98276878973807"><ele>278.0</ele><time>2026-04-26T11:37:49.999Z</time></trkpt><trkpt lat="43.15557814596708" lon="11.982616764700076"><ele>278.0</ele><time>2026-04-26T11:37:51.999Z</time></trkpt><trkpt lat="43.15557242905837" lon="11.982462176067507"><ele>278.0</ele><time>2026-04-26T11:37:53.999Z</time></trkpt><trkpt lat="43.155570717945594" lon="11.982305529253006"><ele>278.0</ele><time>2026-04-26T11:37:55.999Z</time></trkpt><trkpt lat="43.15556695990732" lon="11.982145601757505"><ele>278.0</ele><time>2026-04-26T11:37:57.999Z</time></trkpt><trkpt lat="43.15556774602651" lon="11.981987533717838"><ele>278.0</ele><time>2026-04-26T11:37:59.999Z</time></trkpt><trkpt lat="43.15555173657391" lon="11.981828619432992"><ele>278.0</ele><time>2026-04-26T11:38:01.999Z</time></trkpt><trkpt lat="43.15551449826592" lon="11.981678620518707"><ele>278.0</ele><time>2026-04-26T11:38:03.999Z</time></trkpt><trkpt lat="43.15543200694607" lon="11.981564234219702"><ele>278.0</ele><time>2026-04-26T11:38:05.999Z</time></trkpt><trkpt lat="43.15533270183188" lon="11.981471041660232"><ele>278.0</ele><time>2026-04-26T11:38:07.999Z</time></trkpt><trkpt lat="43.15522381704017" lon="11.981398568991496"><ele>278.0</ele><time>2026-04-26T11:38:09.999Z</time></trkpt><trkpt lat="43.15511103896744" lon="11.981333999684455"><ele>278.0</ele><time>2026-04-26T11:38:11.999Z</time></trkpt><trkpt lat="43.155002472099866" lon="11.981264803358556"><ele>278.0</ele><time>2026-04-26T11:38:13.999Z</time></trkpt><trkpt lat="43.15489411659522" lon="11.981194315000808"><ele>278.0</ele><time>2026-04-26T11:38:15.999Z</time></trkpt><trkpt lat="43.154781724108595" lon="11.98113333465096"><ele>278.0</ele><time>2026-04-26T11:38:17.999Z</time></trkpt><trkpt lat="43.15467239552546" lon="11.981061085444436"><ele>278.0</ele><time>2026-04-26T11:38:19.999Z</time></trkpt><trkpt lat="43.15455926416742" lon="11.980996083770943"><ele>278.0</ele><time>2026-04-26T11:38:21.999Z</time></trkpt><trkpt lat="43.15439335646538" lon="11.980891031990353"><ele>278.0</ele><time>2026-04-26T11:38:24.999Z</time></trkpt><trkpt lat="43.154286008090935" lon="11.98082776220158"><ele>278.0</ele><time>2026-04-26T11:38:26.999Z</time></trkpt><trkpt lat="43.154181658283676" lon="11.980755285268417"><ele>278.0</ele><time>2026-04-26T11:38:28.999Z</time></trkpt><trkpt lat="43.154069785176084" lon="11.980681896271099"><ele>278.0</ele><time>2026-04-26T11:38:30.999Z</time></trkpt><trkpt lat="43.15401583244752" lon="11.98063714914301"><ele>278.0</ele><time>2026-04-26T11:38:31.999Z</time></trkpt><trkpt lat="43.15391862198175" lon="11.98053295602283"><ele>278.0</ele><time>2026-04-26T11:38:33.999Z</time></trkpt><trkpt lat="43.15382011119098" lon="11.980434339067182"><ele>278.0</ele><time>2026-04-26T11:38:35.999Z</time></trkpt><trkpt lat="43.15372941410867" lon="11.980316723609228"><ele>277.85714285714283</ele><time>2026-04-26T11:38:37.999Z</time></trkpt><trkpt lat="43.15367890715966" lon="11.980261415355145"><ele>277.7142857142857</ele><time>2026-04-26T11:38:38.999Z</time></trkpt><trkpt lat="43.15362570956199" lon="11.980203421986253"><ele>277.57142857142856</ele><time>2026-04-26T11:38:39.999Z</time></trkpt><trkpt lat="43.15357552875332" lon="11.98014486790997"><ele>277.42857142857144</ele><time>2026-04-26T11:38:40.999Z</time></trkpt><trkpt lat="43.153526056759866" lon="11.980087232937063"><ele>277.2857142857143</ele><time>2026-04-26T11:38:41.999Z</time></trkpt><trkpt lat="43.15347725291698" lon="11.980029994211835"><ele>277.1428571428571</ele><time>2026-04-26T11:38:42.999Z</time></trkpt><trkpt lat="43.153428553000126" lon="11.97997130629218"><ele>277.0</ele><time>2026-04-26T11:38:43.999Z</time></trkpt><trkpt lat="43.153378941134854" lon="11.979917357754944"><ele>277.0</ele><time>2026-04-26T11:38:44.999Z</time></trkpt><trkpt lat="43.15332534513204" lon="11.979870797268227"><ele>277.0</ele><time>2026-04-26T11:38:45.999Z</time></trkpt><trkpt lat="43.15326525334827" lon="11.979838295942514"><ele>277.0</ele><time>2026-04-26T11:38:46.999Z</time></trkpt><trkpt lat="43.153203532055066" lon="11.979817712521744"><ele>277.0</ele><time>2026-04-26T11:38:47.999Z</time></trkpt><trkpt lat="43.153140175391414" lon="11.979809287146091"><ele>277.0</ele><time>2026-04-26T11:38:48.999Z</time></trkpt><trkpt lat="43.15307457795391" lon="11.979821767193926"><ele>277.0</ele><time>2026-04-26T11:38:49.999Z</time></trkpt><trkpt lat="43.15301087756" lon="11.979844835604851"><ele>277.0</ele><time>2026-04-26T11:38:50.999Z</time></trkpt><trkpt lat="43.15294704868685" lon="11.979874781261534"><ele>277.0</ele><time>2026-04-26T11:38:51.999Z</time></trkpt><trkpt lat="43.15288625889516" lon="11.979911513622184"><ele>277.0</ele><time>2026-04-26T11:38:52.999Z</time></trkpt><trkpt lat="43.152825752135044" lon="11.979951201574195"><ele>277.0</ele><time>2026-04-26T11:38:53.999Z</time></trkpt><trkpt lat="43.15276775191638" lon="11.979995839153618"><ele>277.0</ele><time>2026-04-26T11:38:54.999Z</time></trkpt><trkpt lat="43.15271037966557" lon="11.980040959106143"><ele>277.0</ele><time>2026-04-26T11:38:55.999Z</time></trkpt><trkpt lat="43.152652064900344" lon="11.980084266067005"><ele>277.0</ele><time>2026-04-26T11:38:56.999Z</time></trkpt><trkpt lat="43.15259693812987" lon="11.980130035779299"><ele>277.0</ele><time>2026-04-26T11:38:57.999Z</time></trkpt><trkpt lat="43.15249006964081" lon="11.980214791691774"><ele>277.0</ele><time>2026-04-26T11:38:59.999Z</time></trkpt><trkpt lat="43.152380444420515" lon="11.98030023152615"><ele>277.0</ele><time>2026-04-26T11:39:01.999Z</time></trkpt><trkpt lat="43.15232548040586" lon="11.980343167644211"><ele>277.0</ele><time>2026-04-26T11:39:02.999Z</time></trkpt><trkpt lat="43.15226894657652" lon="11.980384016782558"><ele>277.0</ele><time>2026-04-26T11:39:03.999Z</time></trkpt><trkpt lat="43.15221301719656" lon="11.980426741747168"><ele>277.0</ele><time>2026-04-26T11:39:04.999Z</time></trkpt><trkpt lat="43.15215848995496" lon="11.980473735126743"><ele>277.0</ele><time>2026-04-26T11:39:05.999Z</time></trkpt><trkpt lat="43.152102897356606" lon="11.980520678215395"><ele>277.0</ele><time>2026-04-26T11:39:06.999Z</time></trkpt><trkpt lat="43.15204413868017" lon="11.980563391092778"><ele>277.42857142857144</ele><time>2026-04-26T11:39:07.999Z</time></trkpt><trkpt lat="43.151985298564405" lon="11.980606182489701"><ele>277.85714285714283</ele><time>2026-04-26T11:39:08.999Z</time></trkpt><trkpt lat="43.151927442326745" lon="11.980649419516693"><ele>278.2857142857143</ele><time>2026-04-26T11:39:09.999Z</time></trkpt><trkpt lat="43.15186929791759" lon="11.980693788482057"><ele>278.7142857142857</ele><time>2026-04-26T11:39:10.999Z</time></trkpt><trkpt lat="43.1518121098867" lon="11.980739515003668"><ele>279.1428571428571</ele><time>2026-04-26T11:39:11.999Z</time></trkpt><trkpt lat="43.15175509487913" lon="11.980783169090849"><ele>279.57142857142856</ele><time>2026-04-26T11:39:12.999Z</time></trkpt><trkpt lat="43.15169633029308" lon="11.980826541069423"><ele>280.0</ele><time>2026-04-26T11:39:13.999Z</time></trkpt><trkpt lat="43.151638682557646" lon="11.980869919663181"><ele>280.0</ele><time>2026-04-26T11:39:14.999Z</time></trkpt><trkpt lat="43.15158076642176" lon="11.980916530673278"><ele>280.0</ele><time>2026-04-26T11:39:15.999Z</time></trkpt><trkpt lat="43.1515258503511" lon="11.98096255769441"><ele>280.0</ele><time>2026-04-26T11:39:16.999Z</time></trkpt><trkpt lat="43.15146974198255" lon="11.981009477839907"><ele>280.0</ele><time>2026-04-26T11:39:17.999Z</time></trkpt><trkpt lat="43.15141346283228" lon="11.981053613963955"><ele>280.0</ele><time>2026-04-26T11:39:18.999Z</time></trkpt><trkpt lat="43.15135790525273" lon="11.98109791091986"><ele>280.0</ele><time>2026-04-26T11:39:19.999Z</time></trkpt><trkpt lat="43.151301884728994" lon="11.981141225605194"><ele>280.0</ele><time>2026-04-26T11:39:20.999Z</time></trkpt><trkpt lat="43.15119572306402" lon="11.981225942984274"><ele>281.25</ele><time>2026-04-26T11:39:22.999Z</time></trkpt><trkpt lat="43.15109361528013" lon="11.98131112685148"><ele>282.5</ele><time>2026-04-26T11:39:24.999Z</time></trkpt><trkpt lat="43.1509913968013" lon="11.98139330375919"><ele>283.75</ele><time>2026-04-26T11:39:26.999Z</time></trkpt><trkpt lat="43.15089221949424" lon="11.981469427464958"><ele>285.0</ele><time>2026-04-26T11:39:28.999Z</time></trkpt><trkpt lat="43.15079161433721" lon="11.981538763002971"><ele>285.4</ele><time>2026-04-26T11:39:30.999Z</time></trkpt><trkpt lat="43.150697509059945" lon="11.981620647408972"><ele>285.8</ele><time>2026-04-26T11:39:32.999Z</time></trkpt><trkpt lat="43.150599288450735" lon="11.981692543127519"><ele>286.2</ele><time>2026-04-26T11:39:34.999Z</time></trkpt><trkpt lat="43.150500109664634" lon="11.981768787009809"><ele>286.6</ele><time>2026-04-26T11:39:36.999Z</time></trkpt><trkpt lat="43.15040302919606" lon="11.981844812262386"><ele>287.0</ele><time>2026-04-26T11:39:38.999Z</time></trkpt><trkpt lat="43.15030618787463" lon="11.981918588008151"><ele>287.0</ele><time>2026-04-26T11:39:40.999Z</time></trkpt><trkpt lat="43.150212376954975" lon="11.981995636822607"><ele>287.0</ele><time>2026-04-26T11:39:42.999Z</time></trkpt><trkpt lat="43.150115995753836" lon="11.982068309265818"><ele>287.0</ele><time>2026-04-26T11:39:44.999Z</time></trkpt><trkpt lat="43.15001789794242" lon="11.982131785339874"><ele>287.0</ele><time>2026-04-26T11:39:46.999Z</time></trkpt><trkpt lat="43.1499201413767" lon="11.982187734798913"><ele>287.0</ele><time>2026-04-26T11:39:48.999Z</time></trkpt><trkpt lat="43.14981819899099" lon="11.98221986377518"><ele>288.0</ele><time>2026-04-26T11:39:50.999Z</time></trkpt><trkpt lat="43.14972008782402" lon="11.98225639858195"><ele>289.0</ele><time>2026-04-26T11:39:52.999Z</time></trkpt><trkpt lat="43.149662380018306" lon="11.982217837122318"><ele>290.0</ele><time>2026-04-26T11:39:53.999Z</time></trkpt><trkpt lat="43.149561716463644" lon="11.982186097331427"><ele>291.0</ele><time>2026-04-26T11:39:55.999Z</time></trkpt><trkpt lat="43.14946542880695" lon="11.982137153831012"><ele>292.0</ele><time>2026-04-26T11:39:57.999Z</time></trkpt><trkpt lat="43.149367936076715" lon="11.982089649185223"><ele>292.0</ele><time>2026-04-26T11:39:59.999Z</time></trkpt><trkpt lat="43.14927075640975" lon="11.9820311570628"><ele>292.0</ele><time>2026-04-26T11:40:01.999Z</time></trkpt><trkpt lat="43.14917228780984" lon="11.981975090319672"><ele>292.0</ele><time>2026-04-26T11:40:03.999Z</time></trkpt><trkpt lat="43.1490771356439" lon="11.981918018351736"><ele>292.0</ele><time>2026-04-26T11:40:05.999Z</time></trkpt><trkpt lat="43.14898210607894" lon="11.981859263406024"><ele>292.0</ele><time>2026-04-26T11:40:07.999Z</time></trkpt><trkpt lat="43.14888275383169" lon="11.981811362576842"><ele>292.8</ele><time>2026-04-26T11:40:09.999Z</time></trkpt><trkpt lat="43.14878060040281" lon="11.981758335561297"><ele>293.6</ele><time>2026-04-26T11:40:11.999Z</time></trkpt><trkpt lat="43.148676228077974" lon="11.981702227732086"><ele>294.40000000000003</ele><time>2026-04-26T11:40:13.999Z</time></trkpt><trkpt lat="43.148570596550336" lon="11.981645160480781"><ele>295.2</ele><time>2026-04-26T11:40:15.999Z</time></trkpt><trkpt lat="43.14846439306621" lon="11.98159375401656"><ele>296.0</ele><time>2026-04-26T11:40:17.999Z</time></trkpt><trkpt lat="43.14836095888699" lon="11.981538607001333"><ele>296.0</ele><time>2026-04-26T11:40:19.999Z</time></trkpt><trkpt lat="43.148260039252655" lon="11.98148907877126"><ele>296.0</ele><time>2026-04-26T11:40:21.999Z</time></trkpt><trkpt lat="43.14816037916954" lon="11.9814342419546"><ele>296.0</ele><time>2026-04-26T11:40:23.999Z</time></trkpt><trkpt lat="43.14806025467626" lon="11.981379351110705"><ele>296.0</ele><time>2026-04-26T11:40:25.999Z</time></trkpt><trkpt lat="43.14796172517616" lon="11.981324801412343"><ele>296.0</ele><time>2026-04-26T11:40:27.999Z</time></trkpt><trkpt lat="43.14786066075822" lon="11.981271171001225"><ele>297.5</ele><time>2026-04-26T11:40:29.999Z</time></trkpt><trkpt lat="43.147758240130585" lon="11.981214323479186"><ele>299.0</ele><time>2026-04-26T11:40:31.999Z</time></trkpt><trkpt lat="43.14765471851637" lon="11.981146127842061"><ele>300.5</ele><time>2026-04-26T11:40:33.999Z</time></trkpt><trkpt lat="43.14755176390367" lon="11.9810731148684"><ele>302.0</ele><time>2026-04-26T11:40:35.999Z</time></trkpt><trkpt lat="43.147450372057996" lon="11.980989717880702"><ele>302.25</ele><time>2026-04-26T11:40:37.999Z</time></trkpt><trkpt lat="43.14735269492643" lon="11.980894864164394"><ele>302.5</ele><time>2026-04-26T11:40:39.999Z</time></trkpt><trkpt lat="43.147261551811155" lon="11.98078163183569"><ele>302.75</ele><time>2026-04-26T11:40:41.999Z</time></trkpt><trkpt lat="43.14717108127992" lon="11.980665982401927"><ele>303.0</ele><time>2026-04-26T11:40:43.999Z</time></trkpt><trkpt lat="43.14708385511826" lon="11.980548908368524"><ele>303.2</ele><time>2026-04-26T11:40:45.999Z</time></trkpt><trkpt lat="43.14703885252991" lon="11.980483720843289"><ele>303.4</ele><time>2026-04-26T11:40:46.999Z</time></trkpt><trkpt lat="43.14696507682943" lon="11.980346870328027"><ele>303.59999999999997</ele><time>2026-04-26T11:40:48.999Z</time></trkpt><trkpt lat="43.14689495607841" lon="11.980212560733142"><ele>303.8</ele><time>2026-04-26T11:40:50.999Z</time></trkpt><trkpt lat="43.14681874655479" lon="11.980087365312547"><ele>304.0</ele><time>2026-04-26T11:40:52.999Z</time></trkpt><trkpt lat="43.14674838564679" lon="11.979954772780458"><ele>304.0</ele><time>2026-04-26T11:40:54.999Z</time></trkpt><trkpt lat="43.14667727150936" lon="11.979816256990873"><ele>304.0</ele><time>2026-04-26T11:40:56.999Z</time></trkpt><trkpt lat="43.14660427504368" lon="11.979674450327362"><ele>304.0</ele><time>2026-04-26T11:40:58.999Z</time></trkpt><trkpt lat="43.1465662847176" lon="11.979604296265324"><ele>304.0</ele><time>2026-04-26T11:40:59.999Z</time></trkpt><trkpt lat="43.14652936812696" lon="11.979533867522914"><ele>304.0</ele><time>2026-04-26T11:41:00.999Z</time></trkpt><trkpt lat="43.14648989435756" lon="11.979463274738047"><ele>304.0</ele><time>2026-04-26T11:41:01.999Z</time></trkpt><trkpt lat="43.146451046407925" lon="11.979390427324795"><ele>303.85714285714283</ele><time>2026-04-26T11:41:02.999Z</time></trkpt><trkpt lat="43.14641389790441" lon="11.979319486031438"><ele>303.7142857142857</ele><time>2026-04-26T11:41:03.999Z</time></trkpt><trkpt lat="43.146376812445276" lon="11.979247876517498"><ele>303.57142857142856</ele><time>2026-04-26T11:41:04.999Z</time></trkpt><trkpt lat="43.14633895481837" lon="11.979175216491413"><ele>303.42857142857144</ele><time>2026-04-26T11:41:05.999Z</time></trkpt><trkpt lat="43.14630064621568" lon="11.979102758850793"><ele>303.2857142857143</ele><time>2026-04-26T11:41:06.999Z</time></trkpt><trkpt lat="43.146262264645515" lon="11.97902990092958"><ele>303.14285714285717</ele><time>2026-04-26T11:41:07.999Z</time></trkpt><trkpt lat="43.146222981219374" lon="11.978957169434313"><ele>303.0</ele><time>2026-04-26T11:41:08.999Z</time></trkpt><trkpt lat="43.14618418409343" lon="11.978883409212237"><ele>303.2857142857143</ele><time>2026-04-26T11:41:10Z</time></trkpt><trkpt lat="43.14614474708838" lon="11.978809611319233"><ele>303.57142857142856</ele><time>2026-04-26T11:41:11Z</time></trkpt><trkpt lat="43.14610448157345" lon="11.978735208514733"><ele>303.8571428571429</ele><time>2026-04-26T11:41:12Z</time></trkpt><trkpt lat="43.14606396541067" lon="11.978659694736725"><ele>304.1428571428571</ele><time>2026-04-26T11:41:13Z</time></trkpt><trkpt lat="43.14602321432841" lon="11.9785829850121"><ele>304.4285714285714</ele><time>2026-04-26T11:41:14Z</time></trkpt><trkpt lat="43.14598320066467" lon="11.978505755526418"><ele>304.7142857142857</ele><time>2026-04-26T11:41:15Z</time></trkpt><trkpt lat="43.14594252695674" lon="11.978428082034705"><ele>305.0</ele><time>2026-04-26T11:41:16Z</time></trkpt><trkpt lat="43.14590120817138" lon="11.978352130341618"><ele>304.7142857142857</ele><time>2026-04-26T11:41:17Z</time></trkpt><trkpt lat="43.14585993670007" lon="11.97827658722648"><ele>304.4285714285714</ele><time>2026-04-26T11:41:18Z</time></trkpt><trkpt lat="43.145819227693025" lon="11.978200287520071"><ele>304.1428571428571</ele><time>2026-04-26T11:41:19Z</time></trkpt><trkpt lat="43.14577860111564" lon="11.978124452544948"><ele>303.8571428571429</ele><time>2026-04-26T11:41:20Z</time></trkpt><trkpt lat="43.14573858837962" lon="11.978049957132356"><ele>303.57142857142856</ele><time>2026-04-26T11:41:21Z</time></trkpt><trkpt lat="43.145698049443844" lon="11.977975477133928"><ele>303.2857142857143</ele><time>2026-04-26T11:41:22Z</time></trkpt><trkpt lat="43.145658334833406" lon="11.977902474357673"><ele>303.0</ele><time>2026-04-26T11:41:23Z</time></trkpt><trkpt lat="43.1456172002706" lon="11.977829065754808"><ele>303.57142857142856</ele><time>2026-04-26T11:41:24Z</time></trkpt><trkpt lat="43.145575895640526" lon="11.977755566259763"><ele>304.1428571428571</ele><time>2026-04-26T11:41:25Z</time></trkpt><trkpt lat="43.14553594801349" lon="11.97768229227563"><ele>304.71428571428567</ele><time>2026-04-26T11:41:26Z</time></trkpt><trkpt lat="43.14549796869857" lon="11.977608548943339"><ele>305.2857142857143</ele><time>2026-04-26T11:41:27Z</time></trkpt><trkpt lat="43.145459622764086" lon="11.977534262708753"><ele>305.85714285714283</ele><time>2026-04-26T11:41:28Z</time></trkpt><trkpt lat="43.14542027179176" lon="11.977461162385547"><ele>306.4285714285714</ele><time>2026-04-26T11:41:29Z</time></trkpt><trkpt lat="43.145379412859825" lon="11.977389950810485"><ele>307.0</ele><time>2026-04-26T11:41:30Z</time></trkpt><trkpt lat="43.145338736648554" lon="11.977318060486272"><ele>307.1428571428571</ele><time>2026-04-26T11:41:31Z</time></trkpt><trkpt lat="43.14529896998886" lon="11.977247858617687"><ele>307.2857142857143</ele><time>2026-04-26T11:41:32Z</time></trkpt><trkpt lat="43.14525865876786" lon="11.977176964884025"><ele>307.42857142857144</ele><time>2026-04-26T11:41:33Z</time></trkpt><trkpt lat="43.1452182799991" lon="11.977106700416723"><ele>307.57142857142856</ele><time>2026-04-26T11:41:34Z</time></trkpt><trkpt lat="43.14517676739511" lon="11.97703691028041"><ele>307.7142857142857</ele><time>2026-04-26T11:41:35Z</time></trkpt><trkpt lat="43.145135740863374" lon="11.976968622142712"><ele>307.85714285714283</ele><time>2026-04-26T11:41:36Z</time></trkpt><trkpt lat="43.14508872379549" lon="11.976905576742556"><ele>308.0</ele><time>2026-04-26T11:41:37Z</time></trkpt><trkpt lat="43.14503744248852" lon="11.976845704545282"><ele>308.0</ele><time>2026-04-26T11:41:38Z</time></trkpt><trkpt lat="43.14498711335255" lon="11.97678587671283"><ele>308.0</ele><time>2026-04-26T11:41:39Z</time></trkpt><trkpt lat="43.1449350124719" lon="11.976725064305707"><ele>308.0</ele><time>2026-04-26T11:41:40Z</time></trkpt><trkpt lat="43.14488272523092" lon="11.976662451883769"><ele>308.0</ele><time>2026-04-26T11:41:41Z</time></trkpt><trkpt lat="43.14483201409227" lon="11.97659805450876"><ele>308.0</ele><time>2026-04-26T11:41:42Z</time></trkpt><trkpt lat="43.14478079017163" lon="11.976537436002546"><ele>308.0</ele><time>2026-04-26T11:41:43Z</time></trkpt><trkpt lat="43.144727271777604" lon="11.976480523283684"><ele>308.0</ele><time>2026-04-26T11:41:44Z</time></trkpt><trkpt lat="43.14467326564927" lon="11.976423015190026"><ele>308.14285714285717</ele><time>2026-04-26T11:41:45Z</time></trkpt><trkpt lat="43.144619368972805" lon="11.976364369402978"><ele>308.2857142857143</ele><time>2026-04-26T11:41:46Z</time></trkpt><trkpt lat="43.1445706073045" lon="11.976299598270064"><ele>308.42857142857144</ele><time>2026-04-26T11:41:47Z</time></trkpt><trkpt lat="43.144521166238384" lon="11.97623605651863"><ele>308.57142857142856</ele><time>2026-04-26T11:41:48Z</time></trkpt><trkpt lat="43.14447230315695" lon="11.976175372995819"><ele>308.7142857142857</ele><time>2026-04-26T11:41:49Z</time></trkpt><trkpt lat="43.144424889240675" lon="11.976112913123183"><ele>308.8571428571429</ele><time>2026-04-26T11:41:50Z</time></trkpt><trkpt lat="43.14437864968707" lon="11.976050630626707"><ele>309.0</ele><time>2026-04-26T11:41:51Z</time></trkpt><trkpt lat="43.144333905141124" lon="11.975986202166183"><ele>309.00000000000006</ele><time>2026-04-26T11:41:52Z</time></trkpt><trkpt lat="43.14428783554838" lon="11.975921864688154"><ele>309.0</ele><time>2026-04-26T11:41:53Z</time></trkpt><trkpt lat="43.14423895127613" lon="11.975858735255944"><ele>309.0</ele><time>2026-04-26T11:41:53.999Z</time></trkpt><trkpt lat="43.14419166006905" lon="11.975796294929339"><ele>309.0</ele><time>2026-04-26T11:41:54.999Z</time></trkpt><trkpt lat="43.14414023788307" lon="11.975739885369045"><ele>309.0</ele><time>2026-04-26T11:41:55.999Z</time></trkpt><trkpt lat="43.14408842870416" lon="11.975686037756631"><ele>309.00000000000006</ele><time>2026-04-26T11:41:56.999Z</time></trkpt><trkpt lat="43.14403450030235" lon="11.975634539009294"><ele>309.0</ele><time>2026-04-26T11:41:57.999Z</time></trkpt><trkpt lat="43.143979510590206" lon="11.97558015095955"><ele>308.42857142857144</ele><time>2026-04-26T11:41:58.999Z</time></trkpt><trkpt lat="43.14392417376503" lon="11.97552677718708"><ele>307.8571428571429</ele><time>2026-04-26T11:41:59.999Z</time></trkpt><trkpt lat="43.14386714897224" lon="11.975475935036268"><ele>307.28571428571433</ele><time>2026-04-26T11:42:00.999Z</time></trkpt><trkpt lat="43.14380589133915" lon="11.975429787198957"><ele>306.7142857142857</ele><time>2026-04-26T11:42:01.999Z</time></trkpt><trkpt lat="43.143744112676316" lon="11.975384277210775"><ele>306.1428571428571</ele><time>2026-04-26T11:42:02.999Z</time></trkpt><trkpt lat="43.14368664432467" lon="11.975337759893334"><ele>305.5714285714286</ele><time>2026-04-26T11:42:03.999Z</time></trkpt><trkpt lat="43.14362435763866" lon="11.975294872744987"><ele>305.0</ele><time>2026-04-26T11:42:04.999Z</time></trkpt><trkpt lat="43.14356099173782" lon="11.97525429894159"><ele>305.0</ele><time>2026-04-26T11:42:05.999Z</time></trkpt><trkpt lat="43.143500964797774" lon="11.975209441090822"><ele>305.0</ele><time>2026-04-26T11:42:06.999Z</time></trkpt><trkpt lat="43.14344381114443" lon="11.975160460547363"><ele>305.0</ele><time>2026-04-26T11:42:07.999Z</time></trkpt><trkpt lat="43.14338608266861" lon="11.975114536353859"><ele>305.0</ele><time>2026-04-26T11:42:08.999Z</time></trkpt><trkpt lat="43.143327365189045" lon="11.975070417703634"><ele>305.0</ele><time>2026-04-26T11:42:09.999Z</time></trkpt><trkpt lat="43.1432699141834" lon="11.975027516950972"><ele>305.0</ele><time>2026-04-26T11:42:10.999Z</time></trkpt><trkpt lat="43.143213130626826" lon="11.97498583277788"><ele>305.0</ele><time>2026-04-26T11:42:11.999Z</time></trkpt><trkpt lat="43.14315667831059" lon="11.974942505339712"><ele>305.5</ele><time>2026-04-26T11:42:12.999Z</time></trkpt><trkpt lat="43.14310086060563" lon="11.974899960367832"><ele>306.0</ele><time>2026-04-26T11:42:13.999Z</time></trkpt><trkpt lat="43.14304360514424" lon="11.974861089235883"><ele>306.5</ele><time>2026-04-26T11:42:14.999Z</time></trkpt><trkpt lat="43.142986433295626" lon="11.974823311289583"><ele>307.0</ele><time>2026-04-26T11:42:15.999Z</time></trkpt><trkpt lat="43.14293011192368" lon="11.974783907516965"><ele>307.5</ele><time>2026-04-26T11:42:16.999Z</time></trkpt><trkpt lat="43.14287476110701" lon="11.974741678823046"><ele>308.0</ele><time>2026-04-26T11:42:17.999Z</time></trkpt><trkpt lat="43.14281778778396" lon="11.974698974877125"><ele>308.5</ele><time>2026-04-26T11:42:18.999Z</time></trkpt><trkpt lat="43.14276029692292" lon="11.974657069760715"><ele>309.0</ele><time>2026-04-26T11:42:19.999Z</time></trkpt><trkpt lat="43.14270147057034" lon="11.974613642439751"><ele>309.00000000000006</ele><time>2026-04-26T11:42:20.999Z</time></trkpt><trkpt lat="43.142644048581175" lon="11.974567066425582"><ele>309.0</ele><time>2026-04-26T11:42:21.999Z</time></trkpt><trkpt lat="43.142585582574114" lon="11.974522617215017"><ele>309.0</ele><time>2026-04-26T11:42:22.999Z</time></trkpt><trkpt lat="43.14252634779864" lon="11.974479272542998"><ele>309.0</ele><time>2026-04-26T11:42:23.999Z</time></trkpt><trkpt lat="43.142468523991504" lon="11.97443457163444"><ele>309.0</ele><time>2026-04-26T11:42:24.999Z</time></trkpt><trkpt lat="43.142409874149656" lon="11.974392064659176"><ele>309.00000000000006</ele><time>2026-04-26T11:42:25.999Z</time></trkpt><trkpt lat="43.142352285046954" lon="11.97435034542296"><ele>309.0</ele><time>2026-04-26T11:42:26.999Z</time></trkpt><trkpt lat="43.14229338960867" lon="11.974308859061606"><ele>309.00000000000006</ele><time>2026-04-26T11:42:27.999Z</time></trkpt><trkpt lat="43.142234918704" lon="11.974267306796733"><ele>309.0</ele><time>2026-04-26T11:42:28.999Z</time></trkpt><trkpt lat="43.14217650592645" lon="11.97422500286337"><ele>309.0</ele><time>2026-04-26T11:42:29.999Z</time></trkpt><trkpt lat="43.142116869899226" lon="11.974182364703369"><ele>309.0</ele><time>2026-04-26T11:42:30.999Z</time></trkpt><trkpt lat="43.14205769026939" lon="11.974139571477856"><ele>309.0</ele><time>2026-04-26T11:42:31.999Z</time></trkpt><trkpt lat="43.141999546719866" lon="11.97409758488256"><ele>309.00000000000006</ele><time>2026-04-26T11:42:32.999Z</time></trkpt><trkpt lat="43.141941533178674" lon="11.974054534246703"><ele>309.0</ele><time>2026-04-26T11:42:33.999Z</time></trkpt><trkpt lat="43.14188585734991" lon="11.974011061338002"><ele>309.0</ele><time>2026-04-26T11:42:34.999Z</time></trkpt><trkpt lat="43.14183083505042" lon="11.973968122378489"><ele>309.0</ele><time>2026-04-26T11:42:35.999Z</time></trkpt><trkpt lat="43.141721182916825" lon="11.973888622647786"><ele>309.0</ele><time>2026-04-26T11:42:37.999Z</time></trkpt><trkpt lat="43.141610063292354" lon="11.973806311575052"><ele>309.0</ele><time>2026-04-26T11:42:39.999Z</time></trkpt><trkpt lat="43.14155493839057" lon="11.973763519946603"><ele>309.0</ele><time>2026-04-26T11:42:40.999Z</time></trkpt><trkpt lat="43.14149707963155" lon="11.973723163398226"><ele>309.0</ele><time>2026-04-26T11:42:41.999Z</time></trkpt><trkpt lat="43.14143755739125" lon="11.973680897674766"><ele>309.14285714285717</ele><time>2026-04-26T11:42:42.999Z</time></trkpt><trkpt lat="43.14137734614402" lon="11.973636900749685"><ele>309.2857142857143</ele><time>2026-04-26T11:42:43.999Z</time></trkpt><trkpt lat="43.1413169069012" lon="11.97359232818122"><ele>309.42857142857144</ele><time>2026-04-26T11:42:44.999Z</time></trkpt><trkpt lat="43.141258728252595" lon="11.973548119906267"><ele>309.57142857142856</ele><time>2026-04-26T11:42:45.999Z</time></trkpt><trkpt lat="43.14120011410072" lon="11.973503258721701"><ele>309.7142857142857</ele><time>2026-04-26T11:42:46.999Z</time></trkpt><trkpt lat="43.14114355377249" lon="11.973456544291523"><ele>309.8571428571429</ele><time>2026-04-26T11:42:47.999Z</time></trkpt><trkpt lat="43.141087125307166" lon="11.973410184849135"><ele>310.0</ele><time>2026-04-26T11:42:48.999Z</time></trkpt><trkpt lat="43.1410330136864" lon="11.973364255417563"><ele>310.2</ele><time>2026-04-26T11:42:49.999Z</time></trkpt><trkpt lat="43.1409792717063" lon="11.973317071936735"><ele>310.4</ele><time>2026-04-26T11:42:50.999Z</time></trkpt><trkpt lat="43.14087614441201" lon="11.973225574965305"><ele>310.6</ele><time>2026-04-26T11:42:52.999Z</time></trkpt><trkpt lat="43.14077520408193" lon="11.973131407981247"><ele>310.8</ele><time>2026-04-26T11:42:54.999Z</time></trkpt><trkpt lat="43.14067567862207" lon="11.973032761534197"><ele>311.0</ele><time>2026-04-26T11:42:56.999Z</time></trkpt><trkpt lat="43.14062457423005" lon="11.972981662432563"><ele>311.2857142857143</ele><time>2026-04-26T11:42:57.999Z</time></trkpt><trkpt lat="43.14057504460596" lon="11.972924888735802"><ele>311.5714285714286</ele><time>2026-04-26T11:42:58.999Z</time></trkpt><trkpt lat="43.14052279481413" lon="11.97286978144726"><ele>311.8571428571429</ele><time>2026-04-26T11:42:59.999Z</time></trkpt><trkpt lat="43.14046976399746" lon="11.972820017458627"><ele>312.1428571428571</ele><time>2026-04-26T11:43:00.999Z</time></trkpt><trkpt lat="43.14041619243868" lon="11.972772437046519"><ele>312.42857142857144</ele><time>2026-04-26T11:43:01.999Z</time></trkpt><trkpt lat="43.140363476142994" lon="11.972724160615181"><ele>312.7142857142857</ele><time>2026-04-26T11:43:02.999Z</time></trkpt><trkpt lat="43.14026320521833" lon="11.972621527212157"><ele>313.0</ele><time>2026-04-26T11:43:04.999Z</time></trkpt><trkpt lat="43.14016133779837" lon="11.972527243038096"><ele>313.4</ele><time>2026-04-26T11:43:06.999Z</time></trkpt><trkpt lat="43.14006692580326" lon="11.972436887928765"><ele>313.8</ele><time>2026-04-26T11:43:08.999Z</time></trkpt><trkpt lat="43.139975197871856" lon="11.972352982510307"><ele>314.2</ele><time>2026-04-26T11:43:10.999Z</time></trkpt><trkpt lat="43.13988813255479" lon="11.972239460034181"><ele>314.6</ele><time>2026-04-26T11:43:12.999Z</time></trkpt><trkpt lat="43.139837519794554" lon="11.972187654854196"><ele>315.0</ele><time>2026-04-26T11:43:13.999Z</time></trkpt><trkpt lat="43.13978423623367" lon="11.97213311593533"><ele>315.0</ele><time>2026-04-26T11:43:14.999Z</time></trkpt><trkpt lat="43.139726186435745" lon="11.972073698446984"><ele>315.0</ele><time>2026-04-26T11:43:16Z</time></trkpt><trkpt lat="43.1396642934693" lon="11.972033280528137"><ele>315.0</ele><time>2026-04-26T11:43:17Z</time></trkpt><trkpt lat="43.13961219707283" lon="11.971974519491292"><ele>315.0</ele><time>2026-04-26T11:43:18Z</time></trkpt><trkpt lat="43.13950640461737" lon="11.971873745100481"><ele>315.0</ele><time>2026-04-26T11:43:20Z</time></trkpt><trkpt lat="43.13945126947181" lon="11.971823905553883"><ele>315.0</ele><time>2026-04-26T11:43:21Z</time></trkpt><trkpt lat="43.139411079520855" lon="11.97175718136812"><ele>315.0</ele><time>2026-04-26T11:43:22Z</time></trkpt><trkpt lat="43.13935036663777" lon="11.971716227211326"><ele>315.0</ele><time>2026-04-26T11:43:23Z</time></trkpt><trkpt lat="43.13929547071762" lon="11.971668089551148"><ele>315.0</ele><time>2026-04-26T11:43:24Z</time></trkpt><trkpt lat="43.139245968611625" lon="11.97161215149795"><ele>315.0</ele><time>2026-04-26T11:43:25Z</time></trkpt><trkpt lat="43.13919845697254" lon="11.971545262837"><ele>315.0</ele><time>2026-04-26T11:43:26Z</time></trkpt><trkpt lat="43.139141805077685" lon="11.97148852457409"><ele>315.0</ele><time>2026-04-26T11:43:27Z</time></trkpt><trkpt lat="43.139079753876885" lon="11.971447935542068"><ele>315.0</ele><time>2026-04-26T11:43:28Z</time></trkpt><trkpt lat="43.139025762302396" lon="11.971389547761717"><ele>314.85714285714283</ele><time>2026-04-26T11:43:29Z</time></trkpt><trkpt lat="43.138972331363355" lon="11.971330423298673"><ele>314.7142857142857</ele><time>2026-04-26T11:43:30Z</time></trkpt><trkpt lat="43.13891901459737" lon="11.971274023005932"><ele>314.57142857142856</ele><time>2026-04-26T11:43:31Z</time></trkpt><trkpt lat="43.138867825426495" lon="11.971213928097306"><ele>314.42857142857144</ele><time>2026-04-26T11:43:32Z</time></trkpt><trkpt lat="43.13880925873655" lon="11.971158548334142"><ele>314.2857142857143</ele><time>2026-04-26T11:43:33Z</time></trkpt><trkpt lat="43.138756421161865" lon="11.97110616308256"><ele>314.1428571428571</ele><time>2026-04-26T11:43:34Z</time></trkpt><trkpt lat="43.138705896245106" lon="11.971050655634583"><ele>314.0</ele><time>2026-04-26T11:43:35Z</time></trkpt><trkpt lat="43.138664124044645" lon="11.970980209560771"><ele>314.0</ele><time>2026-04-26T11:43:36Z</time></trkpt><trkpt lat="43.138568137696126" lon="11.970873591082475"><ele>314.0</ele><time>2026-04-26T11:43:38Z</time></trkpt><trkpt lat="43.138516054229264" lon="11.970811864826617"><ele>314.0</ele><time>2026-04-26T11:43:39Z</time></trkpt><trkpt lat="43.138467983371314" lon="11.97074961288941"><ele>314.0</ele><time>2026-04-26T11:43:40Z</time></trkpt><trkpt lat="43.13841773941742" lon="11.970677535747823"><ele>314.0</ele><time>2026-04-26T11:43:41Z</time></trkpt><trkpt lat="43.138369510630504" lon="11.970597408009052"><ele>314.0</ele><time>2026-04-26T11:43:42Z</time></trkpt><trkpt lat="43.13832164916523" lon="11.970515477744424"><ele>313.85714285714283</ele><time>2026-04-26T11:43:43Z</time></trkpt><trkpt lat="43.13827476465935" lon="11.970433228939873"><ele>313.7142857142857</ele><time>2026-04-26T11:43:44Z</time></trkpt><trkpt lat="43.13822770491976" lon="11.970350672714508"><ele>313.57142857142856</ele><time>2026-04-26T11:43:45Z</time></trkpt><trkpt lat="43.13818146412475" lon="11.970269989565335"><ele>313.42857142857144</ele><time>2026-04-26T11:43:46Z</time></trkpt><trkpt lat="43.13813663109687" lon="11.970193148342528"><ele>313.2857142857143</ele><time>2026-04-26T11:43:47Z</time></trkpt><trkpt lat="43.138090995142896" lon="11.970114930927673"><ele>313.1428571428571</ele><time>2026-04-26T11:43:48Z</time></trkpt><trkpt lat="43.1380490843696" lon="11.970043098287489"><ele>313.0</ele><time>2026-04-26T11:43:49Z</time></trkpt><trkpt lat="43.13800755939784" lon="11.969971926862003"><ele>313.0</ele><time>2026-04-26T11:43:50Z</time></trkpt><trkpt lat="43.137927643879095" lon="11.9698354400049"><ele>313.0</ele><time>2026-04-26T11:43:52Z</time></trkpt><trkpt lat="43.13783034370816" lon="11.969707449318411"><ele>313.0</ele><time>2026-04-26T11:43:54Z</time></trkpt><trkpt lat="43.13778959074287" lon="11.96963622688974"><ele>313.0</ele><time>2026-04-26T11:43:55Z</time></trkpt><trkpt lat="43.13774409860836" lon="11.969561945772043"><ele>313.0</ele><time>2026-04-26T11:43:56Z</time></trkpt><trkpt lat="43.13770637346145" lon="11.969468363195546"><ele>313.0</ele><time>2026-04-26T11:43:57Z</time></trkpt><trkpt lat="43.137655870571706" lon="11.969385551225333"><ele>313.0</ele><time>2026-04-26T11:43:58Z</time></trkpt><trkpt lat="43.13760104006999" lon="11.969295644240173"><ele>313.0</ele><time>2026-04-26T11:43:59Z</time></trkpt><trkpt lat="43.13754668706127" lon="11.969202837804428"><ele>313.0</ele><time>2026-04-26T11:44:00Z</time></trkpt><trkpt lat="43.13748934878264" lon="11.969104621686197"><ele>313.0</ele><time>2026-04-26T11:44:01Z</time></trkpt><trkpt lat="43.13743009183215" lon="11.969003119031514"><ele>313.0</ele><time>2026-04-26T11:44:02Z</time></trkpt><trkpt lat="43.13737465211439" lon="11.96890815499746"><ele>312.3333333333333</ele><time>2026-04-26T11:44:03Z</time></trkpt><trkpt lat="43.13730675070596" lon="11.968826696393332"><ele>311.66666666666663</ele><time>2026-04-26T11:44:04Z</time></trkpt><trkpt lat="43.13725840528591" lon="11.968730174745726"><ele>311.0</ele><time>2026-04-26T11:44:05Z</time></trkpt><trkpt lat="43.13720601381968" lon="11.968639909050191"><ele>310.3333333333333</ele><time>2026-04-26T11:44:06Z</time></trkpt><trkpt lat="43.137153921466705" lon="11.968551322202568"><ele>309.6666666666667</ele><time>2026-04-26T11:44:07Z</time></trkpt><trkpt lat="43.13710131351765" lon="11.96846153975342"><ele>309.0</ele><time>2026-04-26T11:44:08Z</time></trkpt><trkpt lat="43.137050347383294" lon="11.9683752704047"><ele>309.5</ele><time>2026-04-26T11:44:09Z</time></trkpt><trkpt lat="43.136999283247754" lon="11.968287807357298"><ele>310.0</ele><time>2026-04-26T11:44:10Z</time></trkpt><trkpt lat="43.13694626965474" lon="11.968203421038735"><ele>310.5</ele><time>2026-04-26T11:44:11Z</time></trkpt><trkpt lat="43.136894358110226" lon="11.968125373422607"><ele>311.0</ele><time>2026-04-26T11:44:12Z</time></trkpt><trkpt lat="43.13684449478387" lon="11.968041238200568"><ele>311.5</ele><time>2026-04-26T11:44:13Z</time></trkpt><trkpt lat="43.13679449377599" lon="11.967958862767846"><ele>312.0</ele><time>2026-04-26T11:44:14Z</time></trkpt><trkpt lat="43.13674123981834" lon="11.96787612643003"><ele>312.0</ele><time>2026-04-26T11:44:15Z</time></trkpt><trkpt lat="43.1366895971481" lon="11.967792115665391"><ele>312.0</ele><time>2026-04-26T11:44:16Z</time></trkpt><trkpt lat="43.13663783031844" lon="11.967705526828848"><ele>312.0</ele><time>2026-04-26T11:44:17Z</time></trkpt><trkpt lat="43.13658803324526" lon="11.96762021542824"><ele>312.0</ele><time>2026-04-26T11:44:18Z</time></trkpt><trkpt lat="43.136539619045564" lon="11.967530893831304"><ele>312.0</ele><time>2026-04-26T11:44:19Z</time></trkpt><trkpt lat="43.136494920805795" lon="11.967438227700589"><ele>312.0</ele><time>2026-04-26T11:44:20Z</time></trkpt><trkpt lat="43.13647132649006" lon="11.967331985490631"><ele>311.8333333333333</ele><time>2026-04-26T11:44:21Z</time></trkpt><trkpt lat="43.13642454312661" lon="11.967246497158207"><ele>311.6666666666667</ele><time>2026-04-26T11:44:22Z</time></trkpt><trkpt lat="43.13639626100127" lon="11.967147173304204"><ele>311.5</ele><time>2026-04-26T11:44:23Z</time></trkpt><trkpt lat="43.136371018619826" lon="11.967043361385858"><ele>311.33333333333337</ele><time>2026-04-26T11:44:24Z</time></trkpt><trkpt lat="43.13634010329311" lon="11.966944591240997"><ele>311.1666666666667</ele><time>2026-04-26T11:44:25Z</time></trkpt><trkpt lat="43.136327563622274" lon="11.966838244841435"><ele>311.0</ele><time>2026-04-26T11:44:26Z</time></trkpt><trkpt lat="43.136300280743676" lon="11.966732809695904"><ele>311.6666666666667</ele><time>2026-04-26T11:44:27Z</time></trkpt><trkpt lat="43.13625951717092" lon="11.966632996875553"><ele>312.33333333333337</ele><time>2026-04-26T11:44:28Z</time></trkpt><trkpt lat="43.136232083652" lon="11.966523588035344"><ele>313.0</ele><time>2026-04-26T11:44:29Z</time></trkpt><trkpt lat="43.136202836718894" lon="11.966416660089529"><ele>313.6666666666667</ele><time>2026-04-26T11:44:30Z</time></trkpt><trkpt lat="43.13617230469095" lon="11.966317601593225"><ele>314.3333333333333</ele><time>2026-04-26T11:44:31Z</time></trkpt><trkpt lat="43.13614351098738" lon="11.966220331351119"><ele>315.0</ele><time>2026-04-26T11:44:32Z</time></trkpt><trkpt lat="43.136116494914184" lon="11.966123086308112"><ele>315.0</ele><time>2026-04-26T11:44:33Z</time></trkpt><trkpt lat="43.13608996248182" lon="11.966027419711418"><ele>315.0</ele><time>2026-04-26T11:44:34Z</time></trkpt><trkpt lat="43.13606276769624" lon="11.965933400412128"><ele>315.0</ele><time>2026-04-26T11:44:35Z</time></trkpt><trkpt lat="43.13603700785763" lon="11.965835029670616"><ele>315.0</ele><time>2026-04-26T11:44:36Z</time></trkpt><trkpt lat="43.136012257321" lon="11.965736818650134"><ele>315.0</ele><time>2026-04-26T11:44:36.999Z</time></trkpt><trkpt lat="43.13599009379173" lon="11.96563160969175"><ele>315.0</ele><time>2026-04-26T11:44:37.999Z</time></trkpt><trkpt lat="43.13596841100172" lon="11.965534948083379"><ele>315.5</ele><time>2026-04-26T11:44:38.999Z</time></trkpt><trkpt lat="43.135945459201814" lon="11.965437434426125"><ele>316.0</ele><time>2026-04-26T11:44:39.999Z</time></trkpt><trkpt lat="43.13592129712485" lon="11.965340906595925"><ele>316.5</ele><time>2026-04-26T11:44:40.999Z</time></trkpt><trkpt lat="43.135898768823324" lon="11.96524116283762"><ele>317.0</ele><time>2026-04-26T11:44:41.999Z</time></trkpt><trkpt lat="43.13587283269648" lon="11.965147410168074"><ele>317.5</ele><time>2026-04-26T11:44:42.999Z</time></trkpt><trkpt lat="43.135846498012675" lon="11.965038323679547"><ele>318.0</ele><time>2026-04-26T11:44:43.999Z</time></trkpt><trkpt lat="43.13582245526289" lon="11.964935868368825"><ele>318.1666666666667</ele><time>2026-04-26T11:44:44.999Z</time></trkpt><trkpt lat="43.13579443740379" lon="11.964836747068412"><ele>318.3333333333333</ele><time>2026-04-26T11:44:45.999Z</time></trkpt><trkpt lat="43.135764260618636" lon="11.964737961147422"><ele>318.5</ele><time>2026-04-26T11:44:46.999Z</time></trkpt><trkpt lat="43.13573594526616" lon="11.964633911165311"><ele>318.66666666666663</ele><time>2026-04-26T11:44:47.999Z</time></trkpt><trkpt lat="43.135707823427424" lon="11.96453457391252"><ele>318.8333333333333</ele><time>2026-04-26T11:44:48.999Z</time></trkpt><trkpt lat="43.13567937780293" lon="11.964435366020345"><ele>319.0</ele><time>2026-04-26T11:44:49.999Z</time></trkpt><trkpt lat="43.135650494133856" lon="11.964342444042149"><ele>318.8571428571429</ele><time>2026-04-26T11:44:50.999Z</time></trkpt><trkpt lat="43.135621630179" lon="11.964246892814689"><ele>318.71428571428567</ele><time>2026-04-26T11:44:51.999Z</time></trkpt><trkpt lat="43.13559260984682" lon="11.964150750294358"><ele>318.57142857142856</ele><time>2026-04-26T11:44:52.999Z</time></trkpt><trkpt lat="43.135562375236354" lon="11.964057569089409"><ele>318.42857142857144</ele><time>2026-04-26T11:44:53.999Z</time></trkpt><trkpt lat="43.13553045548998" lon="11.963968418612433"><ele>318.28571428571433</ele><time>2026-04-26T11:44:54.999Z</time></trkpt><trkpt lat="43.13550371012633" lon="11.963868490566517"><ele>318.1428571428571</ele><time>2026-04-26T11:44:55.999Z</time></trkpt><trkpt lat="43.13547690195255" lon="11.96377669632026"><ele>318.0</ele><time>2026-04-26T11:44:56.999Z</time></trkpt><trkpt lat="43.13544228047576" lon="11.963685156787932"><ele>318.0</ele><time>2026-04-26T11:44:57.999Z</time></trkpt><trkpt lat="43.13540928022305" lon="11.963590420589421"><ele>318.0</ele><time>2026-04-26T11:44:58.999Z</time></trkpt><trkpt lat="43.135377863413204" lon="11.963496363357256"><ele>318.0</ele><time>2026-04-26T11:44:59.999Z</time></trkpt><trkpt lat="43.13534443873797" lon="11.963407045997949"><ele>318.0</ele><time>2026-04-26T11:45:00.999Z</time></trkpt><trkpt lat="43.13531281314602" lon="11.96331248267306"><ele>318.0</ele><time>2026-04-26T11:45:01.999Z</time></trkpt><trkpt lat="43.135280687810486" lon="11.963221741899844"><ele>318.0</ele><time>2026-04-26T11:45:02.999Z</time></trkpt><trkpt lat="43.13524879565771" lon="11.963126681236355"><ele>318.7142857142857</ele><time>2026-04-26T11:45:03.999Z</time></trkpt><trkpt lat="43.135216548865586" lon="11.963036152739114"><ele>319.42857142857144</ele><time>2026-04-26T11:45:04.999Z</time></trkpt><trkpt lat="43.135180860873135" lon="11.962943671176765"><ele>320.14285714285717</ele><time>2026-04-26T11:45:05.999Z</time></trkpt><trkpt lat="43.135147019241664" lon="11.962856945644223"><ele>320.8571428571429</ele><time>2026-04-26T11:45:06.999Z</time></trkpt><trkpt lat="43.135113708082876" lon="11.962761887103007"><ele>321.57142857142856</ele><time>2026-04-26T11:45:07.999Z</time></trkpt><trkpt lat="43.13507862094975" lon="11.962671143423806"><ele>322.28571428571433</ele><time>2026-04-26T11:45:08.999Z</time></trkpt><trkpt lat="43.13506060051622" lon="11.96257235678031"><ele>323.0</ele><time>2026-04-26T11:45:09.999Z</time></trkpt><trkpt lat="43.13502936517862" lon="11.962478054607356"><ele>323.33333333333337</ele><time>2026-04-26T11:45:10.999Z</time></trkpt><trkpt lat="43.1349990329017" lon="11.96238057767331"><ele>323.6666666666667</ele><time>2026-04-26T11:45:11.999Z</time></trkpt><trkpt lat="43.134968353005966" lon="11.962278283111608"><ele>324.0</ele><time>2026-04-26T11:45:12.999Z</time></trkpt><trkpt lat="43.13494053963422" lon="11.962184969239397"><ele>324.3333333333333</ele><time>2026-04-26T11:45:13.999Z</time></trkpt><trkpt lat="43.134912435619626" lon="11.962087745614141"><ele>324.66666666666663</ele><time>2026-04-26T11:45:14.999Z</time></trkpt><trkpt lat="43.13487109688987" lon="11.961995851115505"><ele>325.0</ele><time>2026-04-26T11:45:15.999Z</time></trkpt><trkpt lat="43.13484645190225" lon="11.961901441898469"><ele>324.5</ele><time>2026-04-26T11:45:16.999Z</time></trkpt><trkpt lat="43.134818226038675" lon="11.961808550908838"><ele>324.0</ele><time>2026-04-26T11:45:17.999Z</time></trkpt><trkpt lat="43.134793769306086" lon="11.961714537054542"><ele>323.5</ele><time>2026-04-26T11:45:18.999Z</time></trkpt><trkpt lat="43.13476627110682" lon="11.961614495406454"><ele>323.0</ele><time>2026-04-26T11:45:19.999Z</time></trkpt><trkpt lat="43.13473610936517" lon="11.961515006800669"><ele>322.5</ele><time>2026-04-26T11:45:20.999Z</time></trkpt><trkpt lat="43.13470590842675" lon="11.961419593852204"><ele>322.0</ele><time>2026-04-26T11:45:22Z</time></trkpt><trkpt lat="43.13467768074848" lon="11.961317794647382"><ele>322.0</ele><time>2026-04-26T11:45:23Z</time></trkpt><trkpt lat="43.13464805385858" lon="11.96121076932797"><ele>322.0</ele><time>2026-04-26T11:45:24Z</time></trkpt><trkpt lat="43.134622290910976" lon="11.961104817860848"><ele>322.0</ele><time>2026-04-26T11:45:25Z</time></trkpt><trkpt lat="43.134597267032774" lon="11.961000677290135"><ele>322.0</ele><time>2026-04-26T11:45:26Z</time></trkpt><trkpt lat="43.134571555793094" lon="11.960894449087645"><ele>322.0</ele><time>2026-04-26T11:45:27Z</time></trkpt><trkpt lat="43.134545960716025" lon="11.960787968662174"><ele>322.0</ele><time>2026-04-26T11:45:28Z</time></trkpt><trkpt lat="43.1345228803783" lon="11.96068064232148"><ele>322.66666666666663</ele><time>2026-04-26T11:45:29Z</time></trkpt><trkpt lat="43.134498812843525" lon="11.96057521889883"><ele>323.3333333333333</ele><time>2026-04-26T11:45:30Z</time></trkpt><trkpt lat="43.13447496691747" lon="11.960472138728212"><ele>324.0</ele><time>2026-04-26T11:45:31Z</time></trkpt><trkpt lat="43.13445251258321" lon="11.960367030453822"><ele>324.6666666666667</ele><time>2026-04-26T11:45:32Z</time></trkpt><trkpt lat="43.134429884134164" lon="11.96025964301328"><ele>325.33333333333337</ele><time>2026-04-26T11:45:33Z</time></trkpt><trkpt lat="43.13440723608372" lon="11.960157180707233"><ele>326.0</ele><time>2026-04-26T11:45:34Z</time></trkpt><trkpt lat="43.13438546070478" lon="11.960052360041022"><ele>326.33333333333337</ele><time>2026-04-26T11:45:35Z</time></trkpt><trkpt lat="43.13436700870657" lon="11.959946647627145"><ele>326.6666666666667</ele><time>2026-04-26T11:45:36Z</time></trkpt><trkpt lat="43.13434333593423" lon="11.959842107300886"><ele>327.0</ele><time>2026-04-26T11:45:37Z</time></trkpt><trkpt lat="43.13432263231106" lon="11.95973445390729"><ele>327.3333333333333</ele><time>2026-04-26T11:45:38Z</time></trkpt><trkpt lat="43.13431498369822" lon="11.959625864181454"><ele>327.66666666666663</ele><time>2026-04-26T11:45:39Z</time></trkpt><trkpt lat="43.13428147804825" lon="11.959527390630738"><ele>328.0</ele><time>2026-04-26T11:45:40Z</time></trkpt><trkpt lat="43.134259102887135" lon="11.95942448805833"><ele>328.0</ele><time>2026-04-26T11:45:41Z</time></trkpt><trkpt lat="43.13423905058227" lon="11.959320997539335"><ele>328.0</ele><time>2026-04-26T11:45:42Z</time></trkpt><trkpt lat="43.134218116969755" lon="11.95921780229502"><ele>328.0</ele><time>2026-04-26T11:45:43Z</time></trkpt><trkpt lat="43.134196377771055" lon="11.959114263461576"><ele>328.0</ele><time>2026-04-26T11:45:44Z</time></trkpt><trkpt lat="43.13417349241005" lon="11.959011523539099"><ele>328.0</ele><time>2026-04-26T11:45:45Z</time></trkpt><trkpt lat="43.13416738257373" lon="11.958904167164512"><ele>328.0</ele><time>2026-04-26T11:45:46Z</time></trkpt><trkpt lat="43.134129383962666" lon="11.958801557343145"><ele>327.8333333333333</ele><time>2026-04-26T11:45:47Z</time></trkpt><trkpt lat="43.134108118016805" lon="11.958687856137812"><ele>327.66666666666663</ele><time>2026-04-26T11:45:48Z</time></trkpt><trkpt lat="43.13408896742486" lon="11.958580600552072"><ele>327.5</ele><time>2026-04-26T11:45:49Z</time></trkpt><trkpt lat="43.13406878805283" lon="11.958475179889371"><ele>327.3333333333333</ele><time>2026-04-26T11:45:50Z</time></trkpt><trkpt lat="43.13404589149931" lon="11.958365769162828"><ele>327.1666666666667</ele><time>2026-04-26T11:45:51Z</time></trkpt><trkpt lat="43.13402285306154" lon="11.95825894990309"><ele>327.0</ele><time>2026-04-26T11:45:52Z</time></trkpt><trkpt lat="43.13399971436586" lon="11.958148461303974"><ele>327.0</ele><time>2026-04-26T11:45:53Z</time></trkpt><trkpt lat="43.13397794216847" lon="11.958039026108995"><ele>327.0</ele><time>2026-04-26T11:45:54Z</time></trkpt><trkpt lat="43.13395444103624" lon="11.95792726116932"><ele>327.0</ele><time>2026-04-26T11:45:55Z</time></trkpt><trkpt lat="43.133932183778" lon="11.957817376969984"><ele>327.0</ele><time>2026-04-26T11:45:56Z</time></trkpt><trkpt lat="43.133906812713775" lon="11.957704096778636"><ele>327.0</ele><time>2026-04-26T11:45:57Z</time></trkpt><trkpt lat="43.13388229761166" lon="11.957586892319572"><ele>327.0</ele><time>2026-04-26T11:45:58Z</time></trkpt><trkpt lat="43.133856732449274" lon="11.957468914875838"><ele>327.5</ele><time>2026-04-26T11:45:59Z</time></trkpt><trkpt lat="43.13383183964763" lon="11.957355855314065"><ele>328.0</ele><time>2026-04-26T11:46:00Z</time></trkpt><trkpt lat="43.133807767272415" lon="11.957243647791325"><ele>328.5</ele><time>2026-04-26T11:46:01Z</time></trkpt><trkpt lat="43.13378205625543" lon="11.957131256576284"><ele>329.0</ele><time>2026-04-26T11:46:02Z</time></trkpt><trkpt lat="43.13375733284856" lon="11.957018985417186"><ele>329.5</ele><time>2026-04-26T11:46:03Z</time></trkpt><trkpt lat="43.13373277981654" lon="11.956900433592331"><ele>330.0</ele><time>2026-04-26T11:46:04Z</time></trkpt><trkpt lat="43.133710320161406" lon="11.956789714639411"><ele>330.8333333333333</ele><time>2026-04-26T11:46:05Z</time></trkpt><trkpt lat="43.133687456646115" lon="11.956678238323994"><ele>331.6666666666667</ele><time>2026-04-26T11:46:06Z</time></trkpt><trkpt lat="43.13366557869933" lon="11.95656802572996"><ele>332.5</ele><time>2026-04-26T11:46:07Z</time></trkpt><trkpt lat="43.133642290116654" lon="11.956458186176384"><ele>333.33333333333337</ele><time>2026-04-26T11:46:08Z</time></trkpt><trkpt lat="43.13362046963745" lon="11.956349583583"><ele>334.1666666666667</ele><time>2026-04-26T11:46:09Z</time></trkpt><trkpt lat="43.1335969269136" lon="11.956242957847847"><ele>335.0</ele><time>2026-04-26T11:46:10Z</time></trkpt><trkpt lat="43.1335718704918" lon="11.956132188598493"><ele>335.0</ele><time>2026-04-26T11:46:11Z</time></trkpt><trkpt lat="43.13354826400332" lon="11.956020512390744"><ele>335.0</ele><time>2026-04-26T11:46:12Z</time></trkpt><trkpt lat="43.133528412413916" lon="11.955907491727498"><ele>335.0</ele><time>2026-04-26T11:46:13Z</time></trkpt><trkpt lat="43.13350510074758" lon="11.955802626669247"><ele>335.0</ele><time>2026-04-26T11:46:14Z</time></trkpt><trkpt lat="43.13348416621038" lon="11.955697574837188"><ele>335.0</ele><time>2026-04-26T11:46:15Z</time></trkpt><trkpt lat="43.13346297811479" lon="11.95559206090711"><ele>335.0</ele><time>2026-04-26T11:46:16Z</time></trkpt><trkpt lat="43.13344177140614" lon="11.955488562389158"><ele>335.83333333333337</ele><time>2026-04-26T11:46:17Z</time></trkpt><trkpt lat="43.13341964502879" lon="11.955384664068035"><ele>336.6666666666667</ele><time>2026-04-26T11:46:18Z</time></trkpt><trkpt lat="43.13339760004113" lon="11.955274690721241"><ele>337.5</ele><time>2026-04-26T11:46:19Z</time></trkpt><trkpt lat="43.133373959562896" lon="11.955171426037907"><ele>338.3333333333333</ele><time>2026-04-26T11:46:20Z</time></trkpt><trkpt lat="43.13334981215893" lon="11.95506053706357"><ele>339.16666666666663</ele><time>2026-04-26T11:46:21Z</time></trkpt><trkpt lat="43.13332650148776" lon="11.954960175495486"><ele>340.0</ele><time>2026-04-26T11:46:22Z</time></trkpt><trkpt lat="43.13330825031693" lon="11.954824937628409"><ele>340.5</ele><time>2026-04-26T11:46:24Z</time></trkpt><trkpt lat="43.13327111713651" lon="11.954738895206143"><ele>341.0</ele><time>2026-04-26T11:46:26Z</time></trkpt><trkpt lat="43.1332265554675" lon="11.954671777972903"><ele>341.5</ele><time>2026-04-26T11:46:28Z</time></trkpt><trkpt lat="43.13315714669158" lon="11.95458374067572"><ele>342.0</ele><time>2026-04-26T11:46:31Z</time></trkpt><trkpt lat="43.133104464394734" lon="11.954527496619018"><ele>342.5</ele><time>2026-04-26T11:46:33Z</time></trkpt><trkpt lat="43.13304599565079" lon="11.954468611785392"><ele>343.0</ele><time>2026-04-26T11:46:35Z</time></trkpt><trkpt lat="43.132965511570376" lon="11.954408682595853"><ele>343.0</ele><time>2026-04-26T11:46:37Z</time></trkpt><trkpt lat="43.132858827482146" lon="11.954325574078702"><ele>343.0</ele><time>2026-04-26T11:46:39Z</time></trkpt><trkpt lat="43.13280793558507" lon="11.954274368059448"><ele>343.0</ele><time>2026-04-26T11:46:40Z</time></trkpt><trkpt lat="43.13275874129147" lon="11.95421705551979"><ele>343.0</ele><time>2026-04-26T11:46:41Z</time></trkpt><trkpt lat="43.13266625844961" lon="11.954104797601502"><ele>343.0</ele><time>2026-04-26T11:46:43Z</time></trkpt><trkpt lat="43.13258246390059" lon="11.954017666771461"><ele>343.25</ele><time>2026-04-26T11:46:45Z</time></trkpt><trkpt lat="43.13250537251821" lon="11.953921938091716"><ele>343.5</ele><time>2026-04-26T11:46:47Z</time></trkpt><trkpt lat="43.132424320434964" lon="11.953820544869105"><ele>343.75</ele><time>2026-04-26T11:46:49Z</time></trkpt><trkpt lat="43.132338861922356" lon="11.95371289100964"><ele>344.0</ele><time>2026-04-26T11:46:51Z</time></trkpt><trkpt lat="43.1322565456363" lon="11.953590397714027"><ele>344.75</ele><time>2026-04-26T11:46:53Z</time></trkpt><trkpt lat="43.13218119323461" lon="11.953477330643475"><ele>345.5</ele><time>2026-04-26T11:46:55Z</time></trkpt><trkpt lat="43.132096554023235" lon="11.95336597252443"><ele>346.25</ele><time>2026-04-26T11:46:56.999Z</time></trkpt><trkpt lat="43.1320149496329" lon="11.95325350451576"><ele>347.0</ele><time>2026-04-26T11:46:58.999Z</time></trkpt><trkpt lat="43.13193265817083" lon="11.953142386584874"><ele>347.25</ele><time>2026-04-26T11:47:00.999Z</time></trkpt><trkpt lat="43.13185361232255" lon="11.953028137366797"><ele>347.5</ele><time>2026-04-26T11:47:02.999Z</time></trkpt><trkpt lat="43.13177888540614" lon="11.952908851376577"><ele>347.75</ele><time>2026-04-26T11:47:04.999Z</time></trkpt><trkpt lat="43.13169949834727" lon="11.952797768387006"><ele>348.0</ele><time>2026-04-26T11:47:06.999Z</time></trkpt><trkpt lat="43.131614967942284" lon="11.952693777895064"><ele>348.0</ele><time>2026-04-26T11:47:08.999Z</time></trkpt><trkpt lat="43.13153587562861" lon="11.95257696116035"><ele>348.0</ele><time>2026-04-26T11:47:10.999Z</time></trkpt><trkpt lat="43.131447691848315" lon="11.952469179921485"><ele>348.0</ele><time>2026-04-26T11:47:12.999Z</time></trkpt><trkpt lat="43.13135949747668" lon="11.952353822561772"><ele>348.0</ele><time>2026-04-26T11:47:14.999Z</time></trkpt><trkpt lat="43.13127273555094" lon="11.952238721701924"><ele>348.4</ele><time>2026-04-26T11:47:16.999Z</time></trkpt><trkpt lat="43.1311859791945" lon="11.952126245125678"><ele>348.79999999999995</ele><time>2026-04-26T11:47:18.999Z</time></trkpt><trkpt lat="43.13110032208177" lon="11.952016862898356"><ele>349.2</ele><time>2026-04-26T11:47:20.999Z</time></trkpt><trkpt lat="43.131053264660544" lon="11.951951870114316"><ele>349.6</ele><time>2026-04-26T11:47:21.999Z</time></trkpt><trkpt lat="43.130971309717324" lon="11.951830471756487"><ele>350.0</ele><time>2026-04-26T11:47:23.999Z</time></trkpt><trkpt lat="43.13087583990853" lon="11.951722108320933"><ele>349.4</ele><time>2026-04-26T11:47:25.999Z</time></trkpt><trkpt lat="43.13079324865133" lon="11.95160018690582"><ele>348.8</ele><time>2026-04-26T11:47:28Z</time></trkpt><trkpt lat="43.13074264023681" lon="11.951540506161647"><ele>348.20000000000005</ele><time>2026-04-26T11:47:29Z</time></trkpt><trkpt lat="43.13066467121194" lon="11.951431092950815"><ele>347.6</ele><time>2026-04-26T11:47:31Z</time></trkpt><trkpt lat="43.13058299920614" lon="11.951309540977325"><ele>347.0</ele><time>2026-04-26T11:47:33Z</time></trkpt><trkpt lat="43.1304995175185" lon="11.951184707405256"><ele>347.0</ele><time>2026-04-26T11:47:35Z</time></trkpt><trkpt lat="43.1304111664607" lon="11.951080850691005"><ele>347.0</ele><time>2026-04-26T11:47:37Z</time></trkpt><trkpt lat="43.13034475287227" lon="11.950959304715383"><ele>347.0</ele><time>2026-04-26T11:47:39Z</time></trkpt><trkpt lat="43.13029148475365" lon="11.950856408329336"><ele>347.0</ele><time>2026-04-26T11:47:41Z</time></trkpt><trkpt lat="43.13023012151729" lon="11.950799332393906"><ele>347.0</ele><time>2026-04-26T11:47:43Z</time></trkpt><trkpt lat="43.130131420420994" lon="11.950790793858127"><ele>347.1666666666667</ele><time>2026-04-26T11:47:45Z</time></trkpt><trkpt lat="43.13001344162389" lon="11.950808820150181"><ele>347.33333333333337</ele><time>2026-04-26T11:47:47Z</time></trkpt><trkpt lat="43.1298893074049" lon="11.950775960483323"><ele>347.5</ele><time>2026-04-26T11:47:49Z</time></trkpt><trkpt lat="43.12982665875018" lon="11.95074543602273"><ele>347.6666666666667</ele><time>2026-04-26T11:47:50Z</time></trkpt><trkpt lat="43.129764716451" lon="11.950713899753405"><ele>347.8333333333333</ele><time>2026-04-26T11:47:51Z</time></trkpt><trkpt lat="43.129699809833554" lon="11.950679491065491"><ele>348.0</ele><time>2026-04-26T11:47:52Z</time></trkpt><trkpt lat="43.1296355267336" lon="11.950645065979463"><ele>348.0</ele><time>2026-04-26T11:47:53Z</time></trkpt><trkpt lat="43.12956887680812" lon="11.950616220648076"><ele>348.0</ele><time>2026-04-26T11:47:54Z</time></trkpt><trkpt lat="43.12950298783018" lon="11.950585022810818"><ele>348.0</ele><time>2026-04-26T11:47:55Z</time></trkpt><trkpt lat="43.12943519314246" lon="11.950551435575607"><ele>348.0</ele><time>2026-04-26T11:47:56Z</time></trkpt><trkpt lat="43.129369076019174" lon="11.950518001366822"><ele>348.0</ele><time>2026-04-26T11:47:57Z</time></trkpt><trkpt lat="43.12930369997734" lon="11.95048387408641"><ele>348.0</ele><time>2026-04-26T11:47:58Z</time></trkpt><trkpt lat="43.129236597317174" lon="11.950453662253674"><ele>348.0</ele><time>2026-04-26T11:47:59Z</time></trkpt><trkpt lat="43.12916871354893" lon="11.950421669164136"><ele>348.0</ele><time>2026-04-26T11:48:00Z</time></trkpt><trkpt lat="43.12910177754307" lon="11.950388880522988"><ele>348.0</ele><time>2026-04-26T11:48:01Z</time></trkpt><trkpt lat="43.12903534362198" lon="11.950352464308043"><ele>348.0</ele><time>2026-04-26T11:48:02Z</time></trkpt><trkpt lat="43.12896945686386" lon="11.950318345848256"><ele>348.0</ele><time>2026-04-26T11:48:03Z</time></trkpt><trkpt lat="43.12890244638749" lon="11.95028396480765"><ele>348.0</ele><time>2026-04-26T11:48:04Z</time></trkpt><trkpt lat="43.12883479271174" lon="11.950250204876921"><ele>348.0</ele><time>2026-04-26T11:48:05Z</time></trkpt><trkpt lat="43.12876837887245" lon="11.950211655610646"><ele>348.0</ele><time>2026-04-26T11:48:06Z</time></trkpt><trkpt lat="43.128700941460174" lon="11.950173432550176"><ele>348.2857142857143</ele><time>2026-04-26T11:48:07Z</time></trkpt><trkpt lat="43.12863235156475" lon="11.950137727588782"><ele>348.57142857142856</ele><time>2026-04-26T11:48:08Z</time></trkpt><trkpt lat="43.128563093332815" lon="11.95010208867983"><ele>348.8571428571429</ele><time>2026-04-26T11:48:09Z</time></trkpt><trkpt lat="43.12849415946393" lon="11.950068029840855"><ele>349.1428571428571</ele><time>2026-04-26T11:48:10Z</time></trkpt><trkpt lat="43.12842463625818" lon="11.950032358224458"><ele>349.42857142857144</ele><time>2026-04-26T11:48:11Z</time></trkpt><trkpt lat="43.12835527577003" lon="11.949996601933572"><ele>349.7142857142857</ele><time>2026-04-26T11:48:12Z</time></trkpt><trkpt lat="43.12828517774011" lon="11.94996208456139"><ele>350.0</ele><time>2026-04-26T11:48:13Z</time></trkpt><trkpt lat="43.12821714888955" lon="11.949925093438852"><ele>349.2857142857143</ele><time>2026-04-26T11:48:14Z</time></trkpt><trkpt lat="43.12814948336776" lon="11.949889180247023"><ele>348.57142857142856</ele><time>2026-04-26T11:48:15Z</time></trkpt><trkpt lat="43.12808221204601" lon="11.949853637344633"><ele>347.8571428571429</ele><time>2026-04-26T11:48:16Z</time></trkpt><trkpt lat="43.1280150972474" lon="11.949816999363707"><ele>347.1428571428571</ele><time>2026-04-26T11:48:17Z</time></trkpt><trkpt lat="43.12794711892536" lon="11.949784223351346"><ele>346.42857142857144</ele><time>2026-04-26T11:48:18Z</time></trkpt><trkpt lat="43.127881206472715" lon="11.949749938014595"><ele>345.7142857142857</ele><time>2026-04-26T11:48:19Z</time></trkpt><trkpt lat="43.12781545375156" lon="11.94971758705566"><ele>345.0</ele><time>2026-04-26T11:48:20Z</time></trkpt><trkpt lat="43.12774940262351" lon="11.94968373895446"><ele>345.0</ele><time>2026-04-26T11:48:21Z</time></trkpt><trkpt lat="43.12768331645178" lon="11.949652099133052"><ele>345.0</ele><time>2026-04-26T11:48:22Z</time></trkpt><trkpt lat="43.127616619976045" lon="11.949618379559375"><ele>345.0</ele><time>2026-04-26T11:48:23Z</time></trkpt><trkpt lat="43.12755157147213" lon="11.94958536972905"><ele>345.0</ele><time>2026-04-26T11:48:24Z</time></trkpt><trkpt lat="43.127487720520264" lon="11.949552836487404"><ele>345.0</ele><time>2026-04-26T11:48:25Z</time></trkpt><trkpt lat="43.127425859785646" lon="11.949520367245665"><ele>345.0</ele><time>2026-04-26T11:48:26Z</time></trkpt><trkpt lat="43.127363642282006" lon="11.949490397093275"><ele>345.0</ele><time>2026-04-26T11:48:27Z</time></trkpt><trkpt lat="43.12730135728492" lon="11.949462857521658"><ele>345.0</ele><time>2026-04-26T11:48:28Z</time></trkpt><trkpt lat="43.12724158966729" lon="11.949432986969697"><ele>345.0</ele><time>2026-04-26T11:48:29Z</time></trkpt><trkpt lat="43.12712652753837" lon="11.949368899442465"><ele>345.0</ele><time>2026-04-26T11:48:31Z</time></trkpt><trkpt lat="43.1270229996228" lon="11.949291092864508"><ele>345.0</ele><time>2026-04-26T11:48:33Z</time></trkpt><trkpt lat="43.126957896454115" lon="11.949174869070571"><ele>345.0</ele><time>2026-04-26T11:48:35Z</time></trkpt><trkpt lat="43.12694564918939" lon="11.94904244586396"><ele>346.0</ele><time>2026-04-26T11:48:37Z</time></trkpt><trkpt lat="43.1269911757894" lon="11.948917376501308"><ele>347.0</ele><time>2026-04-26T11:48:39Z</time></trkpt><trkpt lat="43.127042201985894" lon="11.948797365172029"><ele>348.0</ele><time>2026-04-26T11:48:41Z</time></trkpt><trkpt lat="43.12709557558036" lon="11.948653545485625"><ele>349.0</ele><time>2026-04-26T11:48:43Z</time></trkpt><trkpt lat="43.127148032661154" lon="11.94849884980216"><ele>350.0</ele><time>2026-04-26T11:48:45Z</time></trkpt><trkpt lat="43.12717267328411" lon="11.94841551215357"><ele>349.0</ele><time>2026-04-26T11:48:46Z</time></trkpt><trkpt lat="43.12719860954387" lon="11.948332196725055"><ele>348.0</ele><time>2026-04-26T11:48:47Z</time></trkpt><trkpt lat="43.12722712501689" lon="11.948246644679662"><ele>347.0</ele><time>2026-04-26T11:48:48Z</time></trkpt><trkpt lat="43.12725475747428" lon="11.948158922449313"><ele>346.0</ele><time>2026-04-26T11:48:49Z</time></trkpt><trkpt lat="43.12728177663954" lon="11.948072652084008"><ele>345.0</ele><time>2026-04-26T11:48:50Z</time></trkpt><trkpt lat="43.12730829106148" lon="11.947988656442641"><ele>344.0</ele><time>2026-04-26T11:48:51Z</time></trkpt><trkpt lat="43.12733479947495" lon="11.947903809197943"><ele>343.0</ele><time>2026-04-26T11:48:52Z</time></trkpt><trkpt lat="43.12736166527926" lon="11.947818419722106"><ele>343.0</ele><time>2026-04-26T11:48:53Z</time></trkpt><trkpt lat="43.12738952653069" lon="11.947732436770721"><ele>343.0</ele><time>2026-04-26T11:48:54Z</time></trkpt><trkpt lat="43.12741731264603" lon="11.947645339711558"><ele>343.0</ele><time>2026-04-26T11:48:55Z</time></trkpt><trkpt lat="43.12744581618178" lon="11.947557824092936"><ele>343.0</ele><time>2026-04-26T11:48:56Z</time></trkpt><trkpt lat="43.12747273164497" lon="11.947469060758413"><ele>343.0</ele><time>2026-04-26T11:48:57Z</time></trkpt><trkpt lat="43.1274958610782" lon="11.947375404237771"><ele>343.0</ele><time>2026-04-26T11:48:58Z</time></trkpt><trkpt lat="43.127509201216434" lon="11.947278436174877"><ele>343.0</ele><time>2026-04-26T11:48:59Z</time></trkpt><trkpt lat="43.12751854892976" lon="11.947180717826107"><ele>342.42857142857144</ele><time>2026-04-26T11:49:00Z</time></trkpt><trkpt lat="43.12752392166667" lon="11.947083034295897"><ele>341.8571428571429</ele><time>2026-04-26T11:49:01Z</time></trkpt><trkpt lat="43.12751482943887" lon="11.94698548238841"><ele>341.2857142857143</ele><time>2026-04-26T11:49:02Z</time></trkpt><trkpt lat="43.12750363072145" lon="11.946888339906096"><ele>340.7142857142857</ele><time>2026-04-26T11:49:03Z</time></trkpt><trkpt lat="43.12748775906694" lon="11.946792029273979"><ele>340.14285714285717</ele><time>2026-04-26T11:49:04Z</time></trkpt><trkpt lat="43.12746690446753" lon="11.946697378224977"><ele>339.57142857142856</ele><time>2026-04-26T11:49:05Z</time></trkpt><trkpt lat="43.12744724210642" lon="11.946605027045077"><ele>339.0</ele><time>2026-04-26T11:49:06Z</time></trkpt><trkpt lat="43.127424232278194" lon="11.946511559677958"><ele>338.4285714285714</ele><time>2026-04-26T11:49:07Z</time></trkpt><trkpt lat="43.12740312664453" lon="11.946415490294385"><ele>337.8571428571429</ele><time>2026-04-26T11:49:08Z</time></trkpt><trkpt lat="43.127385035566995" lon="11.946318135894616"><ele>337.2857142857143</ele><time>2026-04-26T11:49:09Z</time></trkpt><trkpt lat="43.12737273451431" lon="11.946217481492505"><ele>336.71428571428567</ele><time>2026-04-26T11:49:10Z</time></trkpt><trkpt lat="43.127365254174336" lon="11.94611449999767"><ele>336.1428571428571</ele><time>2026-04-26T11:49:11Z</time></trkpt><trkpt lat="43.12736080864045" lon="11.94601184431685"><ele>335.57142857142856</ele><time>2026-04-26T11:49:12Z</time></trkpt><trkpt lat="43.12736002848084" lon="11.945905877971276"><ele>335.0</ele><time>2026-04-26T11:49:13Z</time></trkpt><trkpt lat="43.127360457728585" lon="11.945799916358558"><ele>334.0</ele><time>2026-04-26T11:49:14Z</time></trkpt><trkpt lat="43.12736490350706" lon="11.945693540633638"><ele>333.0</ele><time>2026-04-26T11:49:15Z</time></trkpt><trkpt lat="43.127369029963226" lon="11.94558853520108"><ele>332.0</ele><time>2026-04-26T11:49:16Z</time></trkpt><trkpt lat="43.12737181733276" lon="11.945482097002825"><ele>331.0</ele><time>2026-04-26T11:49:17Z</time></trkpt><trkpt lat="43.12737758447229" lon="11.945376597639296"><ele>330.0</ele><time>2026-04-26T11:49:17.999Z</time></trkpt><trkpt lat="43.12739101307725" lon="11.945272308946018"><ele>329.0</ele><time>2026-04-26T11:49:18.999Z</time></trkpt><trkpt lat="43.127415827643645" lon="11.945170002720147"><ele>329.0</ele><time>2026-04-26T11:49:19.999Z</time></trkpt><trkpt lat="43.127446302340594" lon="11.945072078062674"><ele>329.0</ele><time>2026-04-26T11:49:20.999Z</time></trkpt><trkpt lat="43.12748546279029" lon="11.94497754084903"><ele>329.0</ele><time>2026-04-26T11:49:21.999Z</time></trkpt><trkpt lat="43.127536055306564" lon="11.944894115792147"><ele>329.0</ele><time>2026-04-26T11:49:22.999Z</time></trkpt><trkpt lat="43.12759640054393" lon="11.944819909651283"><ele>329.0</ele><time>2026-04-26T11:49:23.999Z</time></trkpt><trkpt lat="43.127663162721994" lon="11.94475757570901"><ele>329.0</ele><time>2026-04-26T11:49:24.999Z</time></trkpt><trkpt lat="43.127731613110676" lon="11.94469810317099"><ele>328.1666666666667</ele><time>2026-04-26T11:49:25.999Z</time></trkpt><trkpt lat="43.12779959873012" lon="11.944642709239085"><ele>327.33333333333337</ele><time>2026-04-26T11:49:26.999Z</time></trkpt><trkpt lat="43.127870170949244" lon="11.9445929664914"><ele>326.5</ele><time>2026-04-26T11:49:27.999Z</time></trkpt><trkpt lat="43.12794012570311" lon="11.944538526505733"><ele>325.6666666666667</ele><time>2026-04-26T11:49:28.999Z</time></trkpt><trkpt lat="43.12800818710217" lon="11.944481127798428"><ele>324.8333333333333</ele><time>2026-04-26T11:49:29.999Z</time></trkpt><trkpt lat="43.128073520142664" lon="11.944416556058076"><ele>324.0</ele><time>2026-04-26T11:49:30.999Z</time></trkpt><trkpt lat="43.12813318053651" lon="11.9443432522479"><ele>324.0</ele><time>2026-04-26T11:49:31.999Z</time></trkpt><trkpt lat="43.1281854059239" lon="11.944259350494429"><ele>324.0</ele><time>2026-04-26T11:49:32.999Z</time></trkpt><trkpt lat="43.128231815099234" lon="11.944165554695116"><ele>324.0</ele><time>2026-04-26T11:49:34Z</time></trkpt><trkpt lat="43.128271556016074" lon="11.944064921079606"><ele>324.0</ele><time>2026-04-26T11:49:35Z</time></trkpt><trkpt lat="43.128302203944806" lon="11.943960392667448"><ele>324.0</ele><time>2026-04-26T11:49:36Z</time></trkpt><trkpt lat="43.12832639798079" lon="11.943852587317553"><ele>324.0</ele><time>2026-04-26T11:49:37Z</time></trkpt><trkpt lat="43.12834157587387" lon="11.943741910086557"><ele>323.1666666666667</ele><time>2026-04-26T11:49:38Z</time></trkpt><trkpt lat="43.12835407380226" lon="11.943637117421613"><ele>322.3333333333333</ele><time>2026-04-26T11:49:39Z</time></trkpt><trkpt lat="43.12836527128504" lon="11.943527855389387"><ele>321.5</ele><time>2026-04-26T11:49:40Z</time></trkpt><trkpt lat="43.1283712730558" lon="11.943414813247546"><ele>320.66666666666663</ele><time>2026-04-26T11:49:41Z</time></trkpt><trkpt lat="43.12837641428195" lon="11.943302632989933"><ele>319.8333333333333</ele><time>2026-04-26T11:49:42Z</time></trkpt><trkpt lat="43.12837902190719" lon="11.943190861085318"><ele>319.0</ele><time>2026-04-26T11:49:43Z</time></trkpt><trkpt lat="43.12837891806242" lon="11.943081121815494"><ele>318.5</ele><time>2026-04-26T11:49:44Z</time></trkpt><trkpt lat="43.1283809639328" lon="11.942972417323153"><ele>318.0</ele><time>2026-04-26T11:49:45Z</time></trkpt><trkpt lat="43.12838298411265" lon="11.942865062682856"><ele>317.5</ele><time>2026-04-26T11:49:46Z</time></trkpt><trkpt lat="43.12838422342888" lon="11.942758890989822"><ele>317.0</ele><time>2026-04-26T11:49:47Z</time></trkpt><trkpt lat="43.12838378194976" lon="11.942653907304216"><ele>316.5</ele><time>2026-04-26T11:49:48Z</time></trkpt><trkpt lat="43.12837765665226" lon="11.942549996012202"><ele>316.0</ele><time>2026-04-26T11:49:49Z</time></trkpt><trkpt lat="43.128361632042356" lon="11.94244713017184"><ele>316.0</ele><time>2026-04-26T11:49:50Z</time></trkpt><trkpt lat="43.12834087765887" lon="11.942348856122893"><ele>316.0</ele><time>2026-04-26T11:49:51Z</time></trkpt><trkpt lat="43.12831216232238" lon="11.94225388849882"><ele>316.0</ele><time>2026-04-26T11:49:52Z</time></trkpt><trkpt lat="43.128274255675166" lon="11.942165450991196"><ele>316.0</ele><time>2026-04-26T11:49:53Z</time></trkpt><trkpt lat="43.12823286228243" lon="11.942078947430282"><ele>316.0</ele><time>2026-04-26T11:49:54Z</time></trkpt><trkpt lat="43.128186493129135" lon="11.941996650690838"><ele>316.0</ele><time>2026-04-26T11:49:55Z</time></trkpt><trkpt lat="43.1281270124797" lon="11.941926021513096"><ele>316.3333333333333</ele><time>2026-04-26T11:49:56Z</time></trkpt><trkpt lat="43.12807030103252" lon="11.94185337913612"><ele>316.66666666666663</ele><time>2026-04-26T11:49:57Z</time></trkpt><trkpt lat="43.128015099451204" lon="11.941781003923689"><ele>317.0</ele><time>2026-04-26T11:49:58Z</time></trkpt><trkpt lat="43.12796051209501" lon="11.941704984972887"><ele>317.3333333333333</ele><time>2026-04-26T11:49:59Z</time></trkpt><trkpt lat="43.127906986907334" lon="11.941631535066286"><ele>317.6666666666667</ele><time>2026-04-26T11:50:00Z</time></trkpt><trkpt lat="43.12785032732386" lon="11.941565638270616"><ele>318.0</ele><time>2026-04-26T11:50:01Z</time></trkpt><trkpt lat="43.12779245597921" lon="11.941499958823824"><ele>318.0</ele><time>2026-04-26T11:50:02Z</time></trkpt><trkpt lat="43.12773975080105" lon="11.94142574571991"><ele>318.0</ele><time>2026-04-26T11:50:03Z</time></trkpt><trkpt lat="43.12768747309234" lon="11.941352762388417"><ele>318.0</ele><time>2026-04-26T11:50:04Z</time></trkpt><trkpt lat="43.127631920652576" lon="11.941283324440668"><ele>318.0</ele><time>2026-04-26T11:50:05Z</time></trkpt><trkpt lat="43.127577326677304" lon="11.941213503340181"><ele>318.0</ele><time>2026-04-26T11:50:06Z</time></trkpt><trkpt lat="43.127525205390924" lon="11.94114199925723"><ele>318.0</ele><time>2026-04-26T11:50:07Z</time></trkpt><trkpt lat="43.12747263524071" lon="11.94107218587458"><ele>318.0</ele><time>2026-04-26T11:50:08Z</time></trkpt><trkpt lat="43.12742000139107" lon="11.941002666741664"><ele>318.2857142857143</ele><time>2026-04-26T11:50:09Z</time></trkpt><trkpt lat="43.127366339990814" lon="11.940933000091597"><ele>318.5714285714286</ele><time>2026-04-26T11:50:10Z</time></trkpt><trkpt lat="43.12731286296559" lon="11.940861787031581"><ele>318.8571428571429</ele><time>2026-04-26T11:50:11Z</time></trkpt><trkpt lat="43.127258478919295" lon="11.94079145291074"><ele>319.1428571428571</ele><time>2026-04-26T11:50:12Z</time></trkpt><trkpt lat="43.12720243250157" lon="11.940721599574468"><ele>319.42857142857144</ele><time>2026-04-26T11:50:13Z</time></trkpt><trkpt lat="43.12714591289576" lon="11.940653441229419"><ele>319.7142857142857</ele><time>2026-04-26T11:50:14Z</time></trkpt><trkpt lat="43.12709108720673" lon="11.940583351341576"><ele>320.0</ele><time>2026-04-26T11:50:15Z</time></trkpt><trkpt lat="43.12703951665184" lon="11.940509211668221"><ele>320.0</ele><time>2026-04-26T11:50:16Z</time></trkpt><trkpt lat="43.12699060321764" lon="11.940433752876954"><ele>320.0</ele><time>2026-04-26T11:50:17Z</time></trkpt><trkpt lat="43.12694181075487" lon="11.940357656046249"><ele>320.0</ele><time>2026-04-26T11:50:18Z</time></trkpt><trkpt lat="43.126891230396325" lon="11.940283731076558"><ele>320.0</ele><time>2026-04-26T11:50:19Z</time></trkpt><trkpt lat="43.126842118148105" lon="11.940207679957236"><ele>320.0</ele><time>2026-04-26T11:50:20Z</time></trkpt><trkpt lat="43.126792635102824" lon="11.940130740651162"><ele>320.0</ele><time>2026-04-26T11:50:21Z</time></trkpt><trkpt lat="43.12674420386864" lon="11.940051009132915"><ele>320.0</ele><time>2026-04-26T11:50:22Z</time></trkpt><trkpt lat="43.12669591829535" lon="11.939970296612957"><ele>320.1428571428571</ele><time>2026-04-26T11:50:23Z</time></trkpt><trkpt lat="43.12664620306865" lon="11.939890586051208"><ele>320.2857142857143</ele><time>2026-04-26T11:50:24Z</time></trkpt><trkpt lat="43.12660137844658" lon="11.93981095294361"><ele>320.42857142857144</ele><time>2026-04-26T11:50:25Z</time></trkpt><trkpt lat="43.12655538098964" lon="11.93973196501137"><ele>320.57142857142856</ele><time>2026-04-26T11:50:26Z</time></trkpt><trkpt lat="43.12650986497053" lon="11.939653563327623"><ele>320.7142857142857</ele><time>2026-04-26T11:50:27Z</time></trkpt><trkpt lat="43.12646686229219" lon="11.93957693618252"><ele>320.85714285714283</ele><time>2026-04-26T11:50:28Z</time></trkpt><trkpt lat="43.12642108660779" lon="11.93949856536122"><ele>321.0</ele><time>2026-04-26T11:50:29Z</time></trkpt><trkpt lat="43.12637324803221" lon="11.939417930782705"><ele>321.0</ele><time>2026-04-26T11:50:30Z</time></trkpt><trkpt lat="43.126323894151334" lon="11.93933808543105"><ele>321.0</ele><time>2026-04-26T11:50:31Z</time></trkpt><trkpt lat="43.126273197747075" lon="11.939260308256403"><ele>321.0</ele><time>2026-04-26T11:50:32Z</time></trkpt><trkpt lat="43.12622338919285" lon="11.93918106032747"><ele>321.0</ele><time>2026-04-26T11:50:33Z</time></trkpt><trkpt lat="43.1261722227008" lon="11.939104165571987"><ele>321.0</ele><time>2026-04-26T11:50:34Z</time></trkpt><trkpt lat="43.126119759049104" lon="11.939031907862889"><ele>321.0</ele><time>2026-04-26T11:50:35Z</time></trkpt><trkpt lat="43.12606678743107" lon="11.938959257765985"><ele>321.3333333333333</ele><time>2026-04-26T11:50:36Z</time></trkpt><trkpt lat="43.12601775831492" lon="11.938882971961355"><ele>321.6666666666667</ele><time>2026-04-26T11:50:37Z</time></trkpt><trkpt lat="43.12596472751754" lon="11.938807811178226"><ele>322.0</ele><time>2026-04-26T11:50:38Z</time></trkpt><trkpt lat="43.12591480498326" lon="11.938734532647356"><ele>322.33333333333337</ele><time>2026-04-26T11:50:39Z</time></trkpt><trkpt lat="43.125861850877506" lon="11.93866202808285"><ele>322.6666666666667</ele><time>2026-04-26T11:50:40Z</time></trkpt><trkpt lat="43.125807572250054" lon="11.938589930532128"><ele>323.0</ele><time>2026-04-26T11:50:41Z</time></trkpt><trkpt lat="43.12575200882943" lon="11.938518584734142"><ele>322.5</ele><time>2026-04-26T11:50:42Z</time></trkpt><trkpt lat="43.12569656429053" lon="11.938445627016392"><ele>322.0</ele><time>2026-04-26T11:50:43Z</time></trkpt><trkpt lat="43.125640690793524" lon="11.938370739373699"><ele>321.5</ele><time>2026-04-26T11:50:44Z</time></trkpt><trkpt lat="43.12558482868689" lon="11.938295596703203"><ele>321.0</ele><time>2026-04-26T11:50:45Z</time></trkpt><trkpt lat="43.125530629830756" lon="11.938220073069814"><ele>320.5</ele><time>2026-04-26T11:50:46Z</time></trkpt><trkpt lat="43.125479683393024" lon="11.938145612363462"><ele>320.0</ele><time>2026-04-26T11:50:47Z</time></trkpt><trkpt lat="43.12542870925253" lon="11.938072389969024"><ele>320.0</ele><time>2026-04-26T11:50:48Z</time></trkpt><trkpt lat="43.125380774364764" lon="11.937992666979872"><ele>320.0</ele><time>2026-04-26T11:50:49Z</time></trkpt><trkpt lat="43.125336252796984" lon="11.937909083240765"><ele>320.0</ele><time>2026-04-26T11:50:50Z</time></trkpt><trkpt lat="43.12529606000153" lon="11.937822283411203"><ele>320.0</ele><time>2026-04-26T11:50:51Z</time></trkpt><trkpt lat="43.12525416296202" lon="11.937733123053468"><ele>320.0</ele><time>2026-04-26T11:50:52Z</time></trkpt><trkpt lat="43.125213025780994" lon="11.93764479697664"><ele>320.0</ele><time>2026-04-26T11:50:53Z</time></trkpt><trkpt lat="43.12517329511151" lon="11.937555171447288"><ele>319.6666666666667</ele><time>2026-04-26T11:50:54Z</time></trkpt><trkpt lat="43.125132168664685" lon="11.93746217906879"><ele>319.33333333333337</ele><time>2026-04-26T11:50:55Z</time></trkpt><trkpt lat="43.125092760215345" lon="11.937370415752353"><ele>319.0</ele><time>2026-04-26T11:50:56Z</time></trkpt><trkpt lat="43.12504831557993" lon="11.9372808245911"><ele>318.6666666666667</ele><time>2026-04-26T11:50:57Z</time></trkpt><trkpt lat="43.125006345922415" lon="11.937194112195975"><ele>318.3333333333333</ele><time>2026-04-26T11:50:58Z</time></trkpt><trkpt lat="43.12496171812704" lon="11.937106777990946"><ele>318.0</ele><time>2026-04-26T11:50:59Z</time></trkpt><trkpt lat="43.12491781404724" lon="11.937020532304368"><ele>317.5</ele><time>2026-04-26T11:51:00Z</time></trkpt><trkpt lat="43.12487157533555" lon="11.936934413856832"><ele>317.0</ele><time>2026-04-26T11:51:01Z</time></trkpt><trkpt lat="43.124825887894815" lon="11.936851234292693"><ele>316.5</ele><time>2026-04-26T11:51:02Z</time></trkpt><trkpt lat="43.124778087517036" lon="11.936768693269835"><ele>316.0</ele><time>2026-04-26T11:51:03Z</time></trkpt><trkpt lat="43.12473283615386" lon="11.936687428145659"><ele>315.5</ele><time>2026-04-26T11:51:04Z</time></trkpt><trkpt lat="43.12468690227368" lon="11.936607316454312"><ele>315.0</ele><time>2026-04-26T11:51:05Z</time></trkpt><trkpt lat="43.124636782873694" lon="11.93652904750067"><ele>315.0</ele><time>2026-04-26T11:51:06Z</time></trkpt><trkpt lat="43.124582001287415" lon="11.936453980673853"><ele>315.0</ele><time>2026-04-26T11:51:07Z</time></trkpt><trkpt lat="43.124527152284976" lon="11.936379387738553"><ele>315.0</ele><time>2026-04-26T11:51:08Z</time></trkpt><trkpt lat="43.12447016170167" lon="11.936310302329433"><ele>315.0</ele><time>2026-04-26T11:51:09Z</time></trkpt><trkpt lat="43.12440950103347" lon="11.936244689404926"><ele>315.0</ele><time>2026-04-26T11:51:10Z</time></trkpt><trkpt lat="43.12434651094131" lon="11.936180867872222"><ele>315.0</ele><time>2026-04-26T11:51:11Z</time></trkpt><trkpt lat="43.124285282115025" lon="11.936120821038227"><ele>315.0</ele><time>2026-04-26T11:51:12Z</time></trkpt><trkpt lat="43.12421865360116" lon="11.93606532898845"><ele>315.0</ele><time>2026-04-26T11:51:13Z</time></trkpt><trkpt lat="43.12415098616562" lon="11.936012270022758"><ele>315.0</ele><time>2026-04-26T11:51:14Z</time></trkpt><trkpt lat="43.12407818456814" lon="11.935964865668161"><ele>315.0</ele><time>2026-04-26T11:51:15Z</time></trkpt><trkpt lat="43.124000037354" lon="11.935937144169825"><ele>315.0</ele><time>2026-04-26T11:51:16Z</time></trkpt><trkpt lat="43.12392304274073" lon="11.935903817355998"><ele>315.0</ele><time>2026-04-26T11:51:17Z</time></trkpt><trkpt lat="43.12385016435199" lon="11.935861315972483"><ele>313.1666666666667</ele><time>2026-04-26T11:51:18Z</time></trkpt><trkpt lat="43.12376756637168" lon="11.935833744500272"><ele>311.3333333333333</ele><time>2026-04-26T11:51:19Z</time></trkpt><trkpt lat="43.12368855630333" lon="11.935801745229888"><ele>309.5</ele><time>2026-04-26T11:51:20Z</time></trkpt><trkpt lat="43.123613016727" lon="11.93576897192266"><ele>307.66666666666663</ele><time>2026-04-26T11:51:21Z</time></trkpt><trkpt lat="43.12353775995127" lon="11.935739267781774"><ele>305.8333333333333</ele><time>2026-04-26T11:51:22Z</time></trkpt><trkpt lat="43.12346284744271" lon="11.935708717592078"><ele>304.0</ele><time>2026-04-26T11:51:23Z</time></trkpt><trkpt lat="43.123388260396766" lon="11.935676173730355"><ele>304.0</ele><time>2026-04-26T11:51:24Z</time></trkpt><trkpt lat="43.12331416196925" lon="11.935644850074041"><ele>304.0</ele><time>2026-04-26T11:51:25Z</time></trkpt><trkpt lat="43.123239382595635" lon="11.935612529773195"><ele>304.0</ele><time>2026-04-26T11:51:26Z</time></trkpt><trkpt lat="43.12316773538975" lon="11.935582560836014"><ele>304.0</ele><time>2026-04-26T11:51:27Z</time></trkpt><trkpt lat="43.12309624151247" lon="11.935549701300792"><ele>304.0</ele><time>2026-04-26T11:51:28Z</time></trkpt><trkpt lat="43.12302333123826" lon="11.935515317989468"><ele>304.0</ele><time>2026-04-26T11:51:29Z</time></trkpt><trkpt lat="43.12294712899816" lon="11.935480608291789"><ele>303.8333333333333</ele><time>2026-04-26T11:51:30Z</time></trkpt><trkpt lat="43.12287250221052" lon="11.935445712080858"><ele>303.66666666666663</ele><time>2026-04-26T11:51:31Z</time></trkpt><trkpt lat="43.12279854767772" lon="11.935410055156431"><ele>303.5</ele><time>2026-04-26T11:51:32Z</time></trkpt><trkpt lat="43.12272360645206" lon="11.935372201821746"><ele>303.3333333333333</ele><time>2026-04-26T11:51:33Z</time></trkpt><trkpt lat="43.12264954867899" lon="11.935338171802773"><ele>303.1666666666667</ele><time>2026-04-26T11:51:34Z</time></trkpt><trkpt lat="43.122571929804494" lon="11.93529722493579"><ele>303.0</ele><time>2026-04-26T11:51:35Z</time></trkpt><trkpt lat="43.12249461558242" lon="11.935258475714653"><ele>303.0</ele><time>2026-04-26T11:51:36Z</time></trkpt><trkpt lat="43.12241820087584" lon="11.935222274590759"><ele>303.0</ele><time>2026-04-26T11:51:36.999Z</time></trkpt><trkpt lat="43.12234311917563" lon="11.935182451564796"><ele>303.0</ele><time>2026-04-26T11:51:37.999Z</time></trkpt><trkpt lat="43.12226385786874" lon="11.935142663349788"><ele>303.0</ele><time>2026-04-26T11:51:38.999Z</time></trkpt><trkpt lat="43.12218229579208" lon="11.935096855754093"><ele>303.0</ele><time>2026-04-26T11:51:40Z</time></trkpt><trkpt lat="43.122104219538734" lon="11.935061106704902"><ele>303.0</ele><time>2026-04-26T11:51:41Z</time></trkpt><trkpt lat="43.12202665472071" lon="11.935018537259522"><ele>300.8333333333333</ele><time>2026-04-26T11:51:42Z</time></trkpt><trkpt lat="43.12195019805683" lon="11.934970944125348"><ele>298.6666666666667</ele><time>2026-04-26T11:51:43Z</time></trkpt><trkpt lat="43.121869723181234" lon="11.934925778847795"><ele>296.5</ele><time>2026-04-26T11:51:44Z</time></trkpt><trkpt lat="43.121792193394676" lon="11.934876614732206"><ele>294.33333333333337</ele><time>2026-04-26T11:51:45Z</time></trkpt><trkpt lat="43.12171959755455" lon="11.934816411913497"><ele>292.1666666666667</ele><time>2026-04-26T11:51:46Z</time></trkpt><trkpt lat="43.121642891366186" lon="11.934761356379282"><ele>290.0</ele><time>2026-04-26T11:51:47Z</time></trkpt><trkpt lat="43.12156664412701" lon="11.934708264427753"><ele>291.0</ele><time>2026-04-26T11:51:48Z</time></trkpt><trkpt lat="43.121489641709374" lon="11.934656072160722"><ele>292.0</ele><time>2026-04-26T11:51:49Z</time></trkpt><trkpt lat="43.121413095272146" lon="11.934603210341564"><ele>293.0</ele><time>2026-04-26T11:51:50Z</time></trkpt><trkpt lat="43.121336783101434" lon="11.934545773838138"><ele>294.0</ele><time>2026-04-26T11:51:51Z</time></trkpt><trkpt lat="43.1212596563883" lon="11.934486293927812"><ele>295.0</ele><time>2026-04-26T11:51:52Z</time></trkpt><trkpt lat="43.12118065458191" lon="11.934429047123956"><ele>296.0</ele><time>2026-04-26T11:51:53Z</time></trkpt><trkpt lat="43.12110165763688" lon="11.934371892009716"><ele>296.0</ele><time>2026-04-26T11:51:54Z</time></trkpt><trkpt lat="43.121022816677815" lon="11.934317495969516"><ele>296.0</ele><time>2026-04-26T11:51:55Z</time></trkpt><trkpt lat="43.1209428116489" lon="11.934267976958166"><ele>296.0</ele><time>2026-04-26T11:51:56Z</time></trkpt><trkpt lat="43.12086118228572" lon="11.934225484400946"><ele>296.0</ele><time>2026-04-26T11:51:57Z</time></trkpt><trkpt lat="43.12077717541866" lon="11.934193406968587"><ele>296.0</ele><time>2026-04-26T11:51:58Z</time></trkpt><trkpt lat="43.120693580214194" lon="11.93416604714677"><ele>296.0</ele><time>2026-04-26T11:51:59Z</time></trkpt><trkpt lat="43.120611691459715" lon="11.934137799969015"><ele>294.6666666666667</ele><time>2026-04-26T11:52:00Z</time></trkpt><trkpt lat="43.12052840087752" lon="11.93411398038748"><ele>293.33333333333337</ele><time>2026-04-26T11:52:01Z</time></trkpt><trkpt lat="43.12044628363411" lon="11.93408642291389"><ele>292.0</ele><time>2026-04-26T11:52:02Z</time></trkpt><trkpt lat="43.12036334580714" lon="11.934063066965788"><ele>290.6666666666667</ele><time>2026-04-26T11:52:03Z</time></trkpt><trkpt lat="43.12028205605114" lon="11.934034806569578"><ele>289.3333333333333</ele><time>2026-04-26T11:52:04Z</time></trkpt><trkpt lat="43.120204701371925" lon="11.934006197375378"><ele>288.0</ele><time>2026-04-26T11:52:05Z</time></trkpt><trkpt lat="43.12012886059978" lon="11.93397252020938"><ele>288.0</ele><time>2026-04-26T11:52:06Z</time></trkpt><trkpt lat="43.12005430836366" lon="11.933927055083595"><ele>288.0</ele><time>2026-04-26T11:52:07Z</time></trkpt><trkpt lat="43.11998324975915" lon="11.933867766755291"><ele>288.0</ele><time>2026-04-26T11:52:08Z</time></trkpt><trkpt lat="43.119914546457146" lon="11.93379922128041"><ele>288.0</ele><time>2026-04-26T11:52:09Z</time></trkpt><trkpt lat="43.119847695143676" lon="11.933726376908714"><ele>288.0</ele><time>2026-04-26T11:52:10Z</time></trkpt><trkpt lat="43.11978755638588" lon="11.93364690453639"><ele>288.0</ele><time>2026-04-26T11:52:11Z</time></trkpt><trkpt lat="43.11973562079502" lon="11.933552044619008"><ele>288.8333333333333</ele><time>2026-04-26T11:52:12Z</time></trkpt><trkpt lat="43.11968590311841" lon="11.933454317034279"><ele>289.6666666666667</ele><time>2026-04-26T11:52:13Z</time></trkpt><trkpt lat="43.11964212897807" lon="11.933351214886661"><ele>290.5</ele><time>2026-04-26T11:52:14Z</time></trkpt><trkpt lat="43.11959919292425" lon="11.933246230660188"><ele>291.33333333333337</ele><time>2026-04-26T11:52:15Z</time></trkpt><trkpt lat="43.119556519597644" lon="11.933152657077684"><ele>292.1666666666667</ele><time>2026-04-26T11:52:16Z</time></trkpt><trkpt lat="43.11951760217563" lon="11.933053500914653"><ele>293.0</ele><time>2026-04-26T11:52:17Z</time></trkpt><trkpt lat="43.119476524666254" lon="11.932957080627022"><ele>291.33333333333337</ele><time>2026-04-26T11:52:18Z</time></trkpt><trkpt lat="43.119438169163196" lon="11.932859039267145"><ele>289.6666666666667</ele><time>2026-04-26T11:52:19Z</time></trkpt><trkpt lat="43.11940010618314" lon="11.932760916306453"><ele>288.0</ele><time>2026-04-26T11:52:20Z</time></trkpt><trkpt lat="43.119365978127426" lon="11.932658572242984"><ele>286.3333333333333</ele><time>2026-04-26T11:52:21Z</time></trkpt><trkpt lat="43.11933201785067" lon="11.932554403079045"><ele>284.66666666666663</ele><time>2026-04-26T11:52:22Z</time></trkpt><trkpt lat="43.11929739396795" lon="11.932446476307474"><ele>283.0</ele><time>2026-04-26T11:52:23Z</time></trkpt><trkpt lat="43.11926023734367" lon="11.932339107655954"><ele>282.5</ele><time>2026-04-26T11:52:24Z</time></trkpt><trkpt lat="43.11922594329138" lon="11.932230997820948"><ele>282.0</ele><time>2026-04-26T11:52:25Z</time></trkpt><trkpt lat="43.119191270353994" lon="11.932121630006554"><ele>281.5</ele><time>2026-04-26T11:52:26Z</time></trkpt><trkpt lat="43.11915400050411" lon="11.932013080569163"><ele>281.0</ele><time>2026-04-26T11:52:27Z</time></trkpt><trkpt lat="43.119118199339" lon="11.931903935650215"><ele>280.5</ele><time>2026-04-26T11:52:28Z</time></trkpt><trkpt lat="43.11908343899236" lon="11.931794139364671"><ele>280.0</ele><time>2026-04-26T11:52:29Z</time></trkpt><trkpt lat="43.11904674868355" lon="11.931685170841197"><ele>281.0</ele><time>2026-04-26T11:52:30Z</time></trkpt><trkpt lat="43.11901056985853" lon="11.931578752848464"><ele>282.0</ele><time>2026-04-26T11:52:31Z</time></trkpt><trkpt lat="43.11897524764388" lon="11.931470223644357"><ele>283.0</ele><time>2026-04-26T11:52:32Z</time></trkpt><trkpt lat="43.11893856094506" lon="11.931362890937754"><ele>284.0</ele><time>2026-04-26T11:52:33Z</time></trkpt><trkpt lat="43.118903063466746" lon="11.931254885311601"><ele>285.0</ele><time>2026-04-26T11:52:34Z</time></trkpt><trkpt lat="43.118868245457065" lon="11.931146278172216"><ele>286.0</ele><time>2026-04-26T11:52:35Z</time></trkpt><trkpt lat="43.118831193508754" lon="11.931037230901762"><ele>286.0</ele><time>2026-04-26T11:52:36Z</time></trkpt><trkpt lat="43.11879360363262" lon="11.93092702669646"><ele>286.0</ele><time>2026-04-26T11:52:37Z</time></trkpt><trkpt lat="43.11875706657009" lon="11.93081578078228"><ele>286.0</ele><time>2026-04-26T11:52:38Z</time></trkpt><trkpt lat="43.11871856970391" lon="11.9307055371421"><ele>286.0</ele><time>2026-04-26T11:52:39Z</time></trkpt><trkpt lat="43.118680480797316" lon="11.930594859667258"><ele>286.0</ele><time>2026-04-26T11:52:40Z</time></trkpt><trkpt lat="43.11864355876555" lon="11.930483512735053"><ele>286.0</ele><time>2026-04-26T11:52:41Z</time></trkpt><trkpt lat="43.1186071483329" lon="11.930372901665123"><ele>284.40000000000003</ele><time>2026-04-26T11:52:42Z</time></trkpt><trkpt lat="43.118570594995674" lon="11.93026014580602"><ele>282.8</ele><time>2026-04-26T11:52:43Z</time></trkpt><trkpt lat="43.11853054452239" lon="11.930149026642317"><ele>281.20000000000005</ele><time>2026-04-26T11:52:44Z</time></trkpt><trkpt lat="43.1184933383095" lon="11.930036798187077"><ele>279.6</ele><time>2026-04-26T11:52:45Z</time></trkpt><trkpt lat="43.1184525263452" lon="11.929926105953506"><ele>278.0</ele><time>2026-04-26T11:52:46Z</time></trkpt><trkpt lat="43.1184127166601" lon="11.929813538781264"><ele>278.8</ele><time>2026-04-26T11:52:47Z</time></trkpt><trkpt lat="43.118373081325586" lon="11.92970189808952"><ele>279.6</ele><time>2026-04-26T11:52:48Z</time></trkpt><trkpt lat="43.11833383719517" lon="11.929590576729078"><ele>280.4</ele><time>2026-04-26T11:52:49Z</time></trkpt><trkpt lat="43.11829469274964" lon="11.929479663469511"><ele>281.2</ele><time>2026-04-26T11:52:50Z</time></trkpt><trkpt lat="43.11825381040172" lon="11.929368450132031"><ele>282.0</ele><time>2026-04-26T11:52:51Z</time></trkpt><trkpt lat="43.118210938201486" lon="11.929261154039297"><ele>279.8</ele><time>2026-04-26T11:52:52Z</time></trkpt><trkpt lat="43.118163181743355" lon="11.929155432757073"><ele>277.6</ele><time>2026-04-26T11:52:53Z</time></trkpt><trkpt lat="43.118109036569756" lon="11.929052876697183"><ele>275.40000000000003</ele><time>2026-04-26T11:52:54Z</time></trkpt><trkpt lat="43.11805211243247" lon="11.928953043412639"><ele>273.2</ele><time>2026-04-26T11:52:55Z</time></trkpt><trkpt lat="43.11799203245632" lon="11.92885603139598"><ele>271.0</ele><time>2026-04-26T11:52:56Z</time></trkpt><trkpt lat="43.11792975284573" lon="11.928762363744136"><ele>271.0</ele><time>2026-04-26T11:52:57Z</time></trkpt><trkpt lat="43.11786489623362" lon="11.928672374699461"><ele>271.0</ele><time>2026-04-26T11:52:58Z</time></trkpt><trkpt lat="43.11779682673901" lon="11.92858782810966"><ele>271.0</ele><time>2026-04-26T11:52:59Z</time></trkpt><trkpt lat="43.11772643693292" lon="11.928509620530646"><ele>271.0</ele><time>2026-04-26T11:53:00Z</time></trkpt><trkpt lat="43.11765529713971" lon="11.928435631558528"><ele>271.0</ele><time>2026-04-26T11:53:01Z</time></trkpt><trkpt lat="43.11758382925016" lon="11.928366374819"><ele>269.16666666666663</ele><time>2026-04-26T11:53:02Z</time></trkpt><trkpt lat="43.117513367696965" lon="11.928295750563194"><ele>267.3333333333333</ele><time>2026-04-26T11:53:03Z</time></trkpt><trkpt lat="43.11744226498196" lon="11.928230414198588"><ele>265.5</ele><time>2026-04-26T11:53:04Z</time></trkpt><trkpt lat="43.11737334289032" lon="11.928158084482456"><ele>263.6666666666667</ele><time>2026-04-26T11:53:05Z</time></trkpt><trkpt lat="43.117307848911466" lon="11.928083188976908"><ele>261.83333333333337</ele><time>2026-04-26T11:53:06Z</time></trkpt><trkpt lat="43.11723871383547" lon="11.928004945873845"><ele>260.0</ele><time>2026-04-26T11:53:07Z</time></trkpt><trkpt lat="43.11716897680033" lon="11.927930144455068"><ele>259.33333333333337</ele><time>2026-04-26T11:53:08Z</time></trkpt><trkpt lat="43.11710544858545" lon="11.92784890249958"><ele>258.6666666666667</ele><time>2026-04-26T11:53:09Z</time></trkpt><trkpt lat="43.117042321054505" lon="11.927770200832487"><ele>258.0</ele><time>2026-04-26T11:53:10Z</time></trkpt><trkpt lat="43.116980081733885" lon="11.927692816957686"><ele>257.3333333333333</ele><time>2026-04-26T11:53:11Z</time></trkpt><trkpt lat="43.11691688503482" lon="11.927619164236757"><ele>256.66666666666663</ele><time>2026-04-26T11:53:12Z</time></trkpt><trkpt lat="43.116856106214" lon="11.92754480058535"><ele>256.0</ele><time>2026-04-26T11:53:13Z</time></trkpt><trkpt lat="43.11679453404613" lon="11.927464224829603"><ele>255.49999999999997</ele><time>2026-04-26T11:53:14Z</time></trkpt><trkpt lat="43.11673201907023" lon="11.927386342389466"><ele>255.0</ele><time>2026-04-26T11:53:15Z</time></trkpt><trkpt lat="43.11666860074781" lon="11.927309332728933"><ele>254.5</ele><time>2026-04-26T11:53:16Z</time></trkpt><trkpt lat="43.11660659865172" lon="11.927228089801147"><ele>254.0</ele><time>2026-04-26T11:53:17Z</time></trkpt><trkpt lat="43.11654326477018" lon="11.92714687820718"><ele>253.49999999999997</ele><time>2026-04-26T11:53:18Z</time></trkpt><trkpt lat="43.11647845482607" lon="11.927068633565746"><ele>253.0</ele><time>2026-04-26T11:53:19Z</time></trkpt><trkpt lat="43.11641368700217" lon="11.926991325109324"><ele>252.99999999999997</ele><time>2026-04-26T11:53:20Z</time></trkpt><trkpt lat="43.11634729133955" lon="11.926911735561728"><ele>253.0</ele><time>2026-04-26T11:53:21Z</time></trkpt><trkpt lat="43.11628259779314" lon="11.926828831239092"><ele>253.0</ele><time>2026-04-26T11:53:22Z</time></trkpt><trkpt lat="43.116218766971485" lon="11.92674719738273"><ele>253.0</ele><time>2026-04-26T11:53:23Z</time></trkpt><trkpt lat="43.1161559845293" lon="11.926666715064822"><ele>252.99999999999997</ele><time>2026-04-26T11:53:24Z</time></trkpt><trkpt lat="43.11609579322036" lon="11.926593844665572"><ele>253.0</ele><time>2026-04-26T11:53:25Z</time></trkpt><trkpt lat="43.11603752213665" lon="11.926524134290082"><ele>252.83333333333331</ele><time>2026-04-26T11:53:26Z</time></trkpt><trkpt lat="43.11597998383031" lon="11.926453522350242"><ele>252.66666666666666</ele><time>2026-04-26T11:53:27Z</time></trkpt><trkpt lat="43.11592396786513" lon="11.926382929893537"><ele>252.5</ele><time>2026-04-26T11:53:28Z</time></trkpt><trkpt lat="43.11586671107653" lon="11.926310426950284"><ele>252.33333333333331</ele><time>2026-04-26T11:53:29Z</time></trkpt><trkpt lat="43.11580777476528" lon="11.92623824772222"><ele>252.16666666666666</ele><time>2026-04-26T11:53:30Z</time></trkpt><trkpt lat="43.115751468146115" lon="11.92616626134022"><ele>252.0</ele><time>2026-04-26T11:53:31Z</time></trkpt><trkpt lat="43.11569637518227" lon="11.92609271149507"><ele>252.0</ele><time>2026-04-26T11:53:32Z</time></trkpt><trkpt lat="43.11563736630469" lon="11.926019829807368"><ele>252.0</ele><time>2026-04-26T11:53:33Z</time></trkpt><trkpt lat="43.11557807688025" lon="11.92595271446441"><ele>252.0</ele><time>2026-04-26T11:53:34Z</time></trkpt><trkpt lat="43.115522891061815" lon="11.925883947198425"><ele>252.0</ele><time>2026-04-26T11:53:35Z</time></trkpt><trkpt lat="43.11546874911185" lon="11.925813107717659"><ele>252.0</ele><time>2026-04-26T11:53:36Z</time></trkpt><trkpt lat="43.11541450027912" lon="11.925740946877617"><ele>252.0</ele><time>2026-04-26T11:53:37Z</time></trkpt><trkpt lat="43.115359218894106" lon="11.925670868241687"><ele>252.0</ele><time>2026-04-26T11:53:38Z</time></trkpt><trkpt lat="43.11530215536624" lon="11.925600503831872"><ele>252.0</ele><time>2026-04-26T11:53:39Z</time></trkpt><trkpt lat="43.11524430346882" lon="11.925534036498414"><ele>252.0</ele><time>2026-04-26T11:53:40Z</time></trkpt><trkpt lat="43.115187802486574" lon="11.92545882914243"><ele>252.0</ele><time>2026-04-26T11:53:41Z</time></trkpt><trkpt lat="43.11513031575329" lon="11.925385822040903"><ele>252.0</ele><time>2026-04-26T11:53:42Z</time></trkpt><trkpt lat="43.11507357715047" lon="11.925315381620097"><ele>252.0</ele><time>2026-04-26T11:53:43Z</time></trkpt><trkpt lat="43.1150152760244" lon="11.925244317692803"><ele>252.0</ele><time>2026-04-26T11:53:44Z</time></trkpt><trkpt lat="43.1149594510568" lon="11.925173653462508"><ele>252.0</ele><time>2026-04-26T11:53:45Z</time></trkpt><trkpt lat="43.114902978752035" lon="11.925103952146976"><ele>252.0</ele><time>2026-04-26T11:53:46Z</time></trkpt><trkpt lat="43.114845306773894" lon="11.925034345906422"><ele>252.0</ele><time>2026-04-26T11:53:47Z</time></trkpt><trkpt lat="43.114787341907565" lon="11.924964099863702"><ele>252.0</ele><time>2026-04-26T11:53:48Z</time></trkpt><trkpt lat="43.11473185319552" lon="11.924892271158464"><ele>252.0</ele><time>2026-04-26T11:53:49Z</time></trkpt><trkpt lat="43.11467753074077" lon="11.924820139131285"><ele>252.0</ele><time>2026-04-26T11:53:50.001Z</time></trkpt><trkpt lat="43.114621285377936" lon="11.92474760944663"><ele>252.0</ele><time>2026-04-26T11:53:51Z</time></trkpt><trkpt lat="43.11456344481894" lon="11.924676574061289"><ele>252.0</ele><time>2026-04-26T11:53:52.001Z</time></trkpt><trkpt lat="43.114507171741806" lon="11.924606285437605"><ele>252.0</ele><time>2026-04-26T11:53:53.001Z</time></trkpt><trkpt lat="43.114452495878766" lon="11.924537615347294"><ele>252.0</ele><time>2026-04-26T11:53:54.001Z</time></trkpt><trkpt lat="43.11439816380686" lon="11.9244659816104"><ele>252.0</ele><time>2026-04-26T11:53:55.001Z</time></trkpt><trkpt lat="43.11434829762956" lon="11.924384013877235"><ele>252.0</ele><time>2026-04-26T11:53:56.001Z</time></trkpt><trkpt lat="43.114304351800044" lon="11.924304139906708"><ele>252.0</ele><time>2026-04-26T11:53:57Z</time></trkpt><trkpt lat="43.11426780527368" lon="11.9242187390729"><ele>252.0</ele><time>2026-04-26T11:53:58.001Z</time></trkpt><trkpt lat="43.114244095994" lon="11.924119707187392"><ele>252.0</ele><time>2026-04-26T11:53:59.001Z</time></trkpt><trkpt lat="43.114225152969084" lon="11.924017915363997"><ele>252.0</ele><time>2026-04-26T11:54:00.001Z</time></trkpt><trkpt lat="43.11421881196338" lon="11.923913310917886"><ele>252.0</ele><time>2026-04-26T11:54:01Z</time></trkpt><trkpt lat="43.11422914733379" lon="11.923812346484363"><ele>252.0</ele><time>2026-04-26T11:54:02Z</time></trkpt><trkpt lat="43.11425268845536" lon="11.923715923808263"><ele>252.0</ele><time>2026-04-26T11:54:03Z</time></trkpt><trkpt lat="43.11428757146004" lon="11.923628472165463"><ele>252.0</ele><time>2026-04-26T11:54:04Z</time></trkpt><trkpt lat="43.11432902790359" lon="11.923543375749604"><ele>252.0</ele><time>2026-04-26T11:54:05Z</time></trkpt><trkpt lat="43.11437958520453" lon="11.923471676493309"><ele>252.0</ele><time>2026-04-26T11:54:06Z</time></trkpt><trkpt lat="43.11443931771146" lon="11.923412452682859"><ele>252.0</ele><time>2026-04-26T11:54:07Z</time></trkpt><trkpt lat="43.11450130095294" lon="11.923363814734879"><ele>252.0</ele><time>2026-04-26T11:54:08Z</time></trkpt><trkpt lat="43.114567246054044" lon="11.923319612581201"><ele>252.0</ele><time>2026-04-26T11:54:09Z</time></trkpt><trkpt lat="43.1146299828195" lon="11.92327693221163"><ele>252.0</ele><time>2026-04-26T11:54:10Z</time></trkpt><trkpt lat="43.11469531085255" lon="11.92323379354864"><ele>252.0</ele><time>2026-04-26T11:54:11Z</time></trkpt><trkpt lat="43.11475921022541" lon="11.92318711487315"><ele>252.0</ele><time>2026-04-26T11:54:12Z</time></trkpt><trkpt lat="43.114824273053415" lon="11.923135527299742"><ele>252.0</ele><time>2026-04-26T11:54:13Z</time></trkpt><trkpt lat="43.114889701066026" lon="11.923090437661145"><ele>252.0</ele><time>2026-04-26T11:54:14Z</time></trkpt><trkpt lat="43.114955814559444" lon="11.923040396102953"><ele>252.0</ele><time>2026-04-26T11:54:15Z</time></trkpt><trkpt lat="43.11501736804726" lon="11.923010324763073"><ele>252.0</ele><time>2026-04-26T11:54:16Z</time></trkpt><trkpt lat="43.115085458466055" lon="11.922962018236916"><ele>252.5</ele><time>2026-04-26T11:54:17Z</time></trkpt><trkpt lat="43.11514254556866" lon="11.92291233522525"><ele>253.0</ele><time>2026-04-26T11:54:18Z</time></trkpt><trkpt lat="43.115212686160724" lon="11.922851578751159"><ele>253.5</ele><time>2026-04-26T11:54:19Z</time></trkpt><trkpt lat="43.1152753601755" lon="11.922798589253853"><ele>254.0</ele><time>2026-04-26T11:54:20Z</time></trkpt><trkpt lat="43.11533800284647" lon="11.922750326310863"><ele>254.5</ele><time>2026-04-26T11:54:21Z</time></trkpt><trkpt lat="43.1153960526899" lon="11.922697086488002"><ele>255.0</ele><time>2026-04-26T11:54:22Z</time></trkpt><trkpt lat="43.11547833124365" lon="11.92258896159027"><ele>254.66666666666666</ele><time>2026-04-26T11:54:24Z</time></trkpt><trkpt lat="43.11552339390631" lon="11.922517703109309"><ele>254.33333333333331</ele><time>2026-04-26T11:54:26Z</time></trkpt><trkpt lat="43.11557442383855" lon="11.922451229924848"><ele>254.0</ele><time>2026-04-26T11:54:30Z</time></trkpt><trkpt lat="43.11565599484944" lon="11.922426507272153"><ele>253.66666666666666</ele><time>2026-04-26T11:54:49Z</time></trkpt><trkpt lat="43.11572831706189" lon="11.922482109394927"><ele>253.33333333333331</ele><time>2026-04-26T11:54:51Z</time></trkpt><trkpt lat="43.11582006771587" lon="11.922504966543135"><ele>253.0</ele><time>2026-04-26T11:54:53Z</time></trkpt><trkpt lat="43.11592875141135" lon="11.922483126141833"><ele>253.0</ele><time>2026-04-26T11:54:55Z</time></trkpt><trkpt lat="43.11604146235609" lon="11.922463134281175"><ele>253.0</ele><time>2026-04-26T11:54:57Z</time></trkpt><trkpt lat="43.116149099365394" lon="11.92241118827589"><ele>253.0</ele><time>2026-04-26T11:54:59Z</time></trkpt><trkpt lat="43.11625722394818" lon="11.922358506349134"><ele>253.0</ele><time>2026-04-26T11:55:01Z</time></trkpt><trkpt lat="43.116355316547114" lon="11.922290033717927"><ele>253.0</ele><time>2026-04-26T11:55:03Z</time></trkpt><trkpt lat="43.11646559479572" lon="11.922257669630575"><ele>253.0</ele><time>2026-04-26T11:55:05Z</time></trkpt><trkpt lat="43.11657553638743" lon="11.922206382349096"><ele>253.0</ele><time>2026-04-26T11:55:07Z</time></trkpt><trkpt lat="43.11668201027143" lon="11.9221351816399"><ele>253.0</ele><time>2026-04-26T11:55:09Z</time></trkpt><trkpt lat="43.11680098013385" lon="11.922098325367594"><ele>253.28571428571433</ele><time>2026-04-26T11:55:11Z</time></trkpt><trkpt lat="43.11686181713589" lon="11.92206810394633"><ele>253.57142857142858</ele><time>2026-04-26T11:55:12Z</time></trkpt><trkpt lat="43.1169250383255" lon="11.922036698161486"><ele>253.8571428571429</ele><time>2026-04-26T11:55:13Z</time></trkpt><trkpt lat="43.11698352826226" lon="11.921984642541986"><ele>254.14285714285717</ele><time>2026-04-26T11:55:14Z</time></trkpt><trkpt lat="43.11704854233802" lon="11.92195666890382"><ele>254.42857142857144</ele><time>2026-04-26T11:55:15Z</time></trkpt><trkpt lat="43.11711469522277" lon="11.92192604191385"><ele>254.71428571428572</ele><time>2026-04-26T11:55:16Z</time></trkpt><trkpt lat="43.117181484237044" lon="11.921894559981311"><ele>255.0</ele><time>2026-04-26T11:55:17Z</time></trkpt><trkpt lat="43.11724857593915" lon="11.921864574467731"><ele>255.0</ele><time>2026-04-26T11:55:18Z</time></trkpt><trkpt lat="43.1173864200073" lon="11.921813641944304"><ele>255.0</ele><time>2026-04-26T11:55:20Z</time></trkpt><trkpt lat="43.117455350848736" lon="11.921781784307997"><ele>255.0</ele><time>2026-04-26T11:55:21Z</time></trkpt><trkpt lat="43.1175212359031" lon="11.921764584562942"><ele>255.0</ele><time>2026-04-26T11:55:22Z</time></trkpt><trkpt lat="43.11758996663786" lon="11.921747666945452"><ele>255.0</ele><time>2026-04-26T11:55:23Z</time></trkpt><trkpt lat="43.11765785235068" lon="11.921737433236176"><ele>255.0</ele><time>2026-04-26T11:55:24Z</time></trkpt><trkpt lat="43.11772675253015" lon="11.921728100019177"><ele>255.0</ele><time>2026-04-26T11:55:25Z</time></trkpt><trkpt lat="43.11779636823584" lon="11.921720499822019"><ele>255.00000000000003</ele><time>2026-04-26T11:55:26Z</time></trkpt><trkpt lat="43.117868272821674" lon="11.921716903837511"><ele>255.0</ele><time>2026-04-26T11:55:27Z</time></trkpt><trkpt lat="43.117937464573956" lon="11.92171256565723"><ele>255.0</ele><time>2026-04-26T11:55:28Z</time></trkpt><trkpt lat="43.11800901923938" lon="11.92171153594782"><ele>255.00000000000003</ele><time>2026-04-26T11:55:29Z</time></trkpt><trkpt lat="43.11807838951916" lon="11.921702328283207"><ele>255.0</ele><time>2026-04-26T11:55:30Z</time></trkpt><trkpt lat="43.118150508339" lon="11.92170830230747"><ele>255.0</ele><time>2026-04-26T11:55:31Z</time></trkpt><trkpt lat="43.11822266903851" lon="11.921702571813501"><ele>255.0</ele><time>2026-04-26T11:55:32Z</time></trkpt><trkpt lat="43.118296229501624" lon="11.92170484570753"><ele>255.0</ele><time>2026-04-26T11:55:33Z</time></trkpt><trkpt lat="43.11836269963425" lon="11.921697656423829"><ele>255.0</ele><time>2026-04-26T11:55:34Z</time></trkpt><trkpt lat="43.11842909630521" lon="11.921689698081984"><ele>255.0</ele><time>2026-04-26T11:55:35Z</time></trkpt><trkpt lat="43.11849591822944" lon="11.921682346964174"><ele>255.0</ele><time>2026-04-26T11:55:36Z</time></trkpt><trkpt lat="43.118559564131246" lon="11.921681661297516"><ele>255.0</ele><time>2026-04-26T11:55:37Z</time></trkpt><trkpt lat="43.11868359120535" lon="11.921680229360053"><ele>255.0</ele><time>2026-04-26T11:55:39Z</time></trkpt><trkpt lat="43.118753345433646" lon="11.921682213521324"><ele>255.00000000000003</ele><time>2026-04-26T11:55:40Z</time></trkpt><trkpt lat="43.11882189259347" lon="11.921682920209255"><ele>255.0</ele><time>2026-04-26T11:55:41Z</time></trkpt><trkpt lat="43.11888844635994" lon="11.921680753151836"><ele>255.0</ele><time>2026-04-26T11:55:42Z</time></trkpt><trkpt lat="43.118955725942435" lon="11.921678753847491"><ele>255.00000000000003</ele><time>2026-04-26T11:55:43Z</time></trkpt><trkpt lat="43.11902531305976" lon="11.921676111494744"><ele>255.0</ele><time>2026-04-26T11:55:44Z</time></trkpt><trkpt lat="43.11909152446753" lon="11.9216709976484"><ele>255.0</ele><time>2026-04-26T11:55:45Z</time></trkpt><trkpt lat="43.11921576872931" lon="11.921669057270096"><ele>255.33333333333334</ele><time>2026-04-26T11:55:47Z</time></trkpt><trkpt lat="43.11933856704347" lon="11.921666625128893"><ele>255.66666666666669</ele><time>2026-04-26T11:55:48.999Z</time></trkpt><trkpt lat="43.119405631961946" lon="11.921661676795383"><ele>256.0</ele><time>2026-04-26T11:55:49.999Z</time></trkpt><trkpt lat="43.119475555221" lon="11.921659954690702"><ele>256.33333333333337</ele><time>2026-04-26T11:55:50.999Z</time></trkpt><trkpt lat="43.119549522857945" lon="11.921661783264593"><ele>256.6666666666667</ele><time>2026-04-26T11:55:51.999Z</time></trkpt><trkpt lat="43.11962299501226" lon="11.921660434750864"><ele>257.0</ele><time>2026-04-26T11:55:52.999Z</time></trkpt><trkpt lat="43.11969766315642" lon="11.921655726748606"><ele>257.0</ele><time>2026-04-26T11:55:53.999Z</time></trkpt><trkpt lat="43.11977287613818" lon="11.921648213745284"><ele>257.0</ele><time>2026-04-26T11:55:54.999Z</time></trkpt><trkpt lat="43.119849191573486" lon="11.921648043935201"><ele>257.0</ele><time>2026-04-26T11:55:55.999Z</time></trkpt><trkpt lat="43.11992399948466" lon="11.921648870125646"><ele>257.0</ele><time>2026-04-26T11:55:56.999Z</time></trkpt><trkpt lat="43.1200005883214" lon="11.921644305731183"><ele>257.0</ele><time>2026-04-26T11:55:57.999Z</time></trkpt><trkpt lat="43.12008059922702" lon="11.921641594301654"><ele>257.0</ele><time>2026-04-26T11:55:58.999Z</time></trkpt><trkpt lat="43.12016098228045" lon="11.921637140280708"><ele>257.83333333333337</ele><time>2026-04-26T11:55:59.999Z</time></trkpt><trkpt lat="43.12024075016922" lon="11.92163308148521"><ele>258.6666666666667</ele><time>2026-04-26T11:56:00.999Z</time></trkpt><trkpt lat="43.12031793887547" lon="11.921632219491949"><ele>259.5</ele><time>2026-04-26T11:56:01.999Z</time></trkpt><trkpt lat="43.12039734343142" lon="11.921631727675972"><ele>260.3333333333333</ele><time>2026-04-26T11:56:02.999Z</time></trkpt><trkpt lat="43.12047295361656" lon="11.921627682694714"><ele>261.16666666666663</ele><time>2026-04-26T11:56:03.999Z</time></trkpt><trkpt lat="43.12054826968427" lon="11.921622908472585"><ele>262.0</ele><time>2026-04-26T11:56:04.999Z</time></trkpt><trkpt lat="43.120622666214004" lon="11.921616033451725"><ele>262.0</ele><time>2026-04-26T11:56:05.999Z</time></trkpt><trkpt lat="43.12070050567707" lon="11.921608824143945"><ele>262.0</ele><time>2026-04-26T11:56:06.999Z</time></trkpt><trkpt lat="43.12078093451583" lon="11.921608952858623"><ele>262.0</ele><time>2026-04-26T11:56:07.999Z</time></trkpt><trkpt lat="43.12085775740602" lon="11.921606298929065"><ele>262.0</ele><time>2026-04-26T11:56:08.999Z</time></trkpt><trkpt lat="43.12093703527418" lon="11.921607421283069"><ele>262.0</ele><time>2026-04-26T11:56:09.999Z</time></trkpt><trkpt lat="43.12101830821496" lon="11.921605422265065"><ele>262.0</ele><time>2026-04-26T11:56:10.999Z</time></trkpt><trkpt lat="43.12109683561077" lon="11.921596971781938"><ele>261.8333333333333</ele><time>2026-04-26T11:56:11.999Z</time></trkpt><trkpt lat="43.12117794331992" lon="11.921592181973564"><ele>261.66666666666663</ele><time>2026-04-26T11:56:12.999Z</time></trkpt><trkpt lat="43.121254121685794" lon="11.921591919489845"><ele>261.5</ele><time>2026-04-26T11:56:13.999Z</time></trkpt><trkpt lat="43.12133287575083" lon="11.921584342910847"><ele>261.3333333333333</ele><time>2026-04-26T11:56:14.999Z</time></trkpt><trkpt lat="43.12141142986656" lon="11.921580718257148"><ele>261.1666666666667</ele><time>2026-04-26T11:56:15.999Z</time></trkpt><trkpt lat="43.12148955578386" lon="11.921582348658829"><ele>261.0</ele><time>2026-04-26T11:56:16.999Z</time></trkpt><trkpt lat="43.12157081516993" lon="11.921580756490954"><ele>261.0</ele><time>2026-04-26T11:56:17.999Z</time></trkpt><trkpt lat="43.12165374262849" lon="11.921583062944354"><ele>261.0</ele><time>2026-04-26T11:56:18.999Z</time></trkpt><trkpt lat="43.12173273669027" lon="11.921585358066661"><ele>261.0</ele><time>2026-04-26T11:56:19.999Z</time></trkpt><trkpt lat="43.12181439439378" lon="11.92158230622657"><ele>261.0</ele><time>2026-04-26T11:56:20.999Z</time></trkpt><trkpt lat="43.12189182589591" lon="11.921568965464234"><ele>261.0</ele><time>2026-04-26T11:56:21.999Z</time></trkpt><trkpt lat="43.12197084392287" lon="11.921557553822666"><ele>261.0</ele><time>2026-04-26T11:56:22.999Z</time></trkpt><trkpt lat="43.122046488535965" lon="11.92154517641106"><ele>261.0</ele><time>2026-04-26T11:56:23.999Z</time></trkpt><trkpt lat="43.12212031745911" lon="11.92152724228365"><ele>261.0</ele><time>2026-04-26T11:56:24.999Z</time></trkpt><trkpt lat="43.122187437085614" lon="11.9214928155918"><ele>261.0</ele><time>2026-04-26T11:56:25.999Z</time></trkpt><trkpt lat="43.12225213064908" lon="11.921451543568937"><ele>261.0</ele><time>2026-04-26T11:56:26.999Z</time></trkpt><trkpt lat="43.12231769815129" lon="11.9214089172131"><ele>261.0</ele><time>2026-04-26T11:56:27.999Z</time></trkpt><trkpt lat="43.12238284695373" lon="11.921366135550999"><ele>261.0</ele><time>2026-04-26T11:56:28.999Z</time></trkpt><trkpt lat="43.12244556181401" lon="11.921315789546593"><ele>261.0</ele><time>2026-04-26T11:56:29.999Z</time></trkpt><trkpt lat="43.122508735906514" lon="11.921257424708816"><ele>260.0</ele><time>2026-04-26T11:56:30.999Z</time></trkpt><trkpt lat="43.122565541248974" lon="11.92119267168621"><ele>259.0</ele><time>2026-04-26T11:56:31.999Z</time></trkpt><trkpt lat="43.12262176464395" lon="11.921115748918863"><ele>258.0</ele><time>2026-04-26T11:56:32.999Z</time></trkpt><trkpt lat="43.12267303120947" lon="11.921041874182684"><ele>257.0</ele><time>2026-04-26T11:56:33.999Z</time></trkpt><trkpt lat="43.12271914916988" lon="11.920962162518002"><ele>256.0</ele><time>2026-04-26T11:56:34.999Z</time></trkpt><trkpt lat="43.122762406485286" lon="11.920878736100672"><ele>255.0</ele><time>2026-04-26T11:56:35.999Z</time></trkpt><trkpt lat="43.12280315760484" lon="11.9207876867726"><ele>254.33333333333334</ele><time>2026-04-26T11:56:36.999Z</time></trkpt><trkpt lat="43.12284217440266" lon="11.92069801419375"><ele>253.66666666666669</ele><time>2026-04-26T11:56:37.999Z</time></trkpt><trkpt lat="43.122883154330744" lon="11.920606000635512"><ele>253.0</ele><time>2026-04-26T11:56:38.999Z</time></trkpt><trkpt lat="43.12292203487543" lon="11.920518435166768"><ele>252.33333333333334</ele><time>2026-04-26T11:56:39.999Z</time></trkpt><trkpt lat="43.122960712076896" lon="11.920426990707641"><ele>251.66666666666669</ele><time>2026-04-26T11:56:40.999Z</time></trkpt><trkpt lat="43.12299866220817" lon="11.920334862389064"><ele>251.0</ele><time>2026-04-26T11:56:41.999Z</time></trkpt><trkpt lat="43.12303393445509" lon="11.920243153840547"><ele>251.00000000000003</ele><time>2026-04-26T11:56:42.999Z</time></trkpt><trkpt lat="43.12306764534832" lon="11.920149112942909"><ele>251.0</ele><time>2026-04-26T11:56:43.999Z</time></trkpt><trkpt lat="43.12310460922519" lon="11.92005527593263"><ele>251.0</ele><time>2026-04-26T11:56:44.999Z</time></trkpt><trkpt lat="43.123143154676015" lon="11.91996541028458"><ele>251.0</ele><time>2026-04-26T11:56:45.999Z</time></trkpt><trkpt lat="43.12318264760466" lon="11.919870994236211"><ele>251.00000000000003</ele><time>2026-04-26T11:56:46.999Z</time></trkpt><trkpt lat="43.123218711355655" lon="11.919781006621605"><ele>251.0</ele><time>2026-04-26T11:56:47.999Z</time></trkpt><trkpt lat="43.12325637554938" lon="11.919686003123712"><ele>250.83333333333334</ele><time>2026-04-26T11:56:48.999Z</time></trkpt><trkpt lat="43.12329694409063" lon="11.919592566648017"><ele>250.66666666666669</ele><time>2026-04-26T11:56:49.999Z</time></trkpt><trkpt lat="43.12333651636751" lon="11.919496710770579"><ele>250.5</ele><time>2026-04-26T11:56:50.999Z</time></trkpt><trkpt lat="43.12337938053597" lon="11.91940135398468"><ele>250.33333333333331</ele><time>2026-04-26T11:56:51.999Z</time></trkpt><trkpt lat="43.123420505901215" lon="11.91930706263473"><ele>250.16666666666666</ele><time>2026-04-26T11:56:52.999Z</time></trkpt><trkpt lat="43.12345930384939" lon="11.919214227403941"><ele>250.0</ele><time>2026-04-26T11:56:53.999Z</time></trkpt><trkpt lat="43.12349648940248" lon="11.91912543500378"><ele>249.99999999999997</ele><time>2026-04-26T11:56:54.999Z</time></trkpt><trkpt lat="43.12353305835027" lon="11.919031923696359"><ele>250.0</ele><time>2026-04-26T11:56:55.999Z</time></trkpt><trkpt lat="43.1235694058072" lon="11.918944542310637"><ele>250.0</ele><time>2026-04-26T11:56:56.999Z</time></trkpt><trkpt lat="43.123609343865354" lon="11.918854736699132"><ele>250.0</ele><time>2026-04-26T11:56:57.999Z</time></trkpt><trkpt lat="43.12364776986007" lon="11.918766248872352"><ele>249.99999999999997</ele><time>2026-04-26T11:56:58.999Z</time></trkpt><trkpt lat="43.123686666699705" lon="11.918675772749541"><ele>250.0</ele><time>2026-04-26T11:56:59.999Z</time></trkpt><trkpt lat="43.12372731261661" lon="11.91859028394493"><ele>249.99999999999997</ele><time>2026-04-26T11:57:00.999Z</time></trkpt><trkpt lat="43.12377320448828" lon="11.91850667202617"><ele>250.0</ele><time>2026-04-26T11:57:01.999Z</time></trkpt><trkpt lat="43.12382477498132" lon="11.91842878327748"><ele>250.0</ele><time>2026-04-26T11:57:02.999Z</time></trkpt><trkpt lat="43.12388096394746" lon="11.918356968455855"><ele>250.0</ele><time>2026-04-26T11:57:03.999Z</time></trkpt><trkpt lat="43.12394028776465" lon="11.918293683094488"><ele>249.99999999999997</ele><time>2026-04-26T11:57:04.999Z</time></trkpt><trkpt lat="43.12400490649939" lon="11.918236239094403"><ele>250.0</ele><time>2026-04-26T11:57:05.999Z</time></trkpt><trkpt lat="43.12407054693299" lon="11.918181308918514"><ele>250.49999999999997</ele><time>2026-04-26T11:57:06.999Z</time></trkpt><trkpt lat="43.124137943580436" lon="11.91813299501613"><ele>251.0</ele><time>2026-04-26T11:57:07.999Z</time></trkpt><trkpt lat="43.12420917977036" lon="11.918086426556044"><ele>251.5</ele><time>2026-04-26T11:57:08.999Z</time></trkpt><trkpt lat="43.124277929615616" lon="11.918046501592519"><ele>252.0</ele><time>2026-04-26T11:57:09.999Z</time></trkpt><trkpt lat="43.12434960255807" lon="11.918004625152996"><ele>252.49999999999997</ele><time>2026-04-26T11:57:10.999Z</time></trkpt><trkpt lat="43.12442377956072" lon="11.917964349940661"><ele>253.0</ele><time>2026-04-26T11:57:11.999Z</time></trkpt><trkpt lat="43.124496098103904" lon="11.917919038274057"><ele>252.99999999999997</ele><time>2026-04-26T11:57:12.999Z</time></trkpt><trkpt lat="43.124568560649834" lon="11.91787375215524"><ele>253.0</ele><time>2026-04-26T11:57:13.999Z</time></trkpt><trkpt lat="43.1246450006559" lon="11.917834481624611"><ele>253.0</ele><time>2026-04-26T11:57:14.999Z</time></trkpt><trkpt lat="43.124720629199174" lon="11.917791754940575"><ele>253.0</ele><time>2026-04-26T11:57:15.999Z</time></trkpt><trkpt lat="43.1247946232841" lon="11.917744313538524"><ele>252.99999999999997</ele><time>2026-04-26T11:57:16.999Z</time></trkpt><trkpt lat="43.12486987480769" lon="11.91769925960391"><ele>253.0</ele><time>2026-04-26T11:57:17.999Z</time></trkpt><trkpt lat="43.12494413705906" lon="11.917650742735004"><ele>253.16666666666666</ele><time>2026-04-26T11:57:18.999Z</time></trkpt><trkpt lat="43.12501604399435" lon="11.917606122749252"><ele>253.33333333333331</ele><time>2026-04-26T11:57:19.999Z</time></trkpt><trkpt lat="43.12508487467091" lon="11.917565626831854"><ele>253.5</ele><time>2026-04-26T11:57:20.999Z</time></trkpt><trkpt lat="43.1251528874823" lon="11.917524491940627"><ele>253.66666666666669</ele><time>2026-04-26T11:57:21.999Z</time></trkpt><trkpt lat="43.125221460783884" lon="11.917485617254869"><ele>253.83333333333334</ele><time>2026-04-26T11:57:22.999Z</time></trkpt><trkpt lat="43.12529082053271" lon="11.917444145679411"><ele>254.0</ele><time>2026-04-26T11:57:23.999Z</time></trkpt><trkpt lat="43.12536027004008" lon="11.917396549463763"><ele>254.0</ele><time>2026-04-26T11:57:24.999Z</time></trkpt><trkpt lat="43.12542922903623" lon="11.91735351058723"><ele>254.0</ele><time>2026-04-26T11:57:25.999Z</time></trkpt><trkpt lat="43.12549772862144" lon="11.917320109812637"><ele>254.0</ele><time>2026-04-26T11:57:26.999Z</time></trkpt><trkpt lat="43.125563017993436" lon="11.917278270094306"><ele>254.0</ele><time>2026-04-26T11:57:27.999Z</time></trkpt><trkpt lat="43.12562913454496" lon="11.91723523809512"><ele>254.0</ele><time>2026-04-26T11:57:28.999Z</time></trkpt><trkpt lat="43.12569394575716" lon="11.917194076491999"><ele>254.0</ele><time>2026-04-26T11:57:29.999Z</time></trkpt><trkpt lat="43.12576264500181" lon="11.917150058225834"><ele>254.0</ele><time>2026-04-26T11:57:30.999Z</time></trkpt><trkpt lat="43.1258336096366" lon="11.917130279848958"><ele>254.83333333333334</ele><time>2026-04-26T11:57:31.999Z</time></trkpt><trkpt lat="43.12590190795542" lon="11.917090208603321"><ele>255.66666666666669</ele><time>2026-04-26T11:57:32.999Z</time></trkpt><trkpt lat="43.12596865169556" lon="11.917034001633526"><ele>256.5</ele><time>2026-04-26T11:57:33.999Z</time></trkpt><trkpt lat="43.126040167787174" lon="11.916995752608065"><ele>257.3333333333333</ele><time>2026-04-26T11:57:34.999Z</time></trkpt><trkpt lat="43.12611153653254" lon="11.916954048935736"><ele>258.16666666666663</ele><time>2026-04-26T11:57:35.999Z</time></trkpt><trkpt lat="43.12618090454241" lon="11.916912818030193"><ele>259.0</ele><time>2026-04-26T11:57:36.999Z</time></trkpt><trkpt lat="43.12624898427019" lon="11.91687060969549"><ele>259.0</ele><time>2026-04-26T11:57:37.999Z</time></trkpt><trkpt lat="43.12631664367308" lon="11.916829091285166"><ele>259.0</ele><time>2026-04-26T11:57:38.999Z</time></trkpt><trkpt lat="43.12638642062542" lon="11.916787979095952"><ele>259.0</ele><time>2026-04-26T11:57:39.999Z</time></trkpt><trkpt lat="43.12645462200763" lon="11.916753230481362"><ele>259.0</ele><time>2026-04-26T11:57:40.999Z</time></trkpt><trkpt lat="43.126523905441964" lon="11.916716128604747"><ele>259.0</ele><time>2026-04-26T11:57:41.999Z</time></trkpt><trkpt lat="43.126595369087234" lon="11.916677432226678"><ele>259.0</ele><time>2026-04-26T11:57:42.999Z</time></trkpt><trkpt lat="43.126665846412045" lon="11.916628404767284"><ele>258.3333333333333</ele><time>2026-04-26T11:57:43.999Z</time></trkpt><trkpt lat="43.12673423399223" lon="11.916585652649298"><ele>257.66666666666663</ele><time>2026-04-26T11:57:44.999Z</time></trkpt><trkpt lat="43.12680161567619" lon="11.916541136481852"><ele>257.0</ele><time>2026-04-26T11:57:45.999Z</time></trkpt><trkpt lat="43.12687184505031" lon="11.916500374154747"><ele>256.3333333333333</ele><time>2026-04-26T11:57:46.999Z</time></trkpt><trkpt lat="43.12694565604898" lon="11.916462252201917"><ele>255.66666666666666</ele><time>2026-04-26T11:57:47.999Z</time></trkpt><trkpt lat="43.12701706625805" lon="11.916419856781776"><ele>255.0</ele><time>2026-04-26T11:57:48.999Z</time></trkpt><trkpt lat="43.127091208444256" lon="11.916375273543208"><ele>255.0</ele><time>2026-04-26T11:57:49.999Z</time></trkpt><trkpt lat="43.12716493146502" lon="11.916329859285934"><ele>255.0</ele><time>2026-04-26T11:57:50.999Z</time></trkpt><trkpt lat="43.127235953553814" lon="11.91628560544073"><ele>255.0</ele><time>2026-04-26T11:57:51.999Z</time></trkpt><trkpt lat="43.12731098574593" lon="11.916245552437658"><ele>255.0</ele><time>2026-04-26T11:57:52.999Z</time></trkpt><trkpt lat="43.12738485971934" lon="11.916206542098905"><ele>255.0</ele><time>2026-04-26T11:57:53.999Z</time></trkpt><trkpt lat="43.12745766664625" lon="11.916162311777308"><ele>255.0</ele><time>2026-04-26T11:57:54.999Z</time></trkpt><trkpt lat="43.12753366121589" lon="11.916116231712504"><ele>254.83333333333334</ele><time>2026-04-26T11:57:55.999Z</time></trkpt><trkpt lat="43.12760714063468" lon="11.916068678542505"><ele>254.66666666666669</ele><time>2026-04-26T11:57:56.999Z</time></trkpt><trkpt lat="43.12767915133444" lon="11.916023650544327"><ele>254.5</ele><time>2026-04-26T11:57:58Z</time></trkpt><trkpt lat="43.12775067287603" lon="11.91597964003168"><ele>254.33333333333334</ele><time>2026-04-26T11:57:59Z</time></trkpt><trkpt lat="43.127823049123606" lon="11.915932376615872"><ele>254.16666666666669</ele><time>2026-04-26T11:58:00Z</time></trkpt><trkpt lat="43.127891707719414" lon="11.915890253145161"><ele>254.0</ele><time>2026-04-26T11:58:01Z</time></trkpt><trkpt lat="43.127962681533816" lon="11.915852038457098"><ele>254.0</ele><time>2026-04-26T11:58:02Z</time></trkpt><trkpt lat="43.128034494819296" lon="11.915813279935367"><ele>254.0</ele><time>2026-04-26T11:58:03Z</time></trkpt><trkpt lat="43.128104766439066" lon="11.915764995814602"><ele>254.0</ele><time>2026-04-26T11:58:04Z</time></trkpt><trkpt lat="43.128174600882886" lon="11.91572894408431"><ele>254.0</ele><time>2026-04-26T11:58:05Z</time></trkpt><trkpt lat="43.1282409565049" lon="11.915687619817403"><ele>254.0</ele><time>2026-04-26T11:58:06Z</time></trkpt><trkpt lat="43.12830548085778" lon="11.915645895083204"><ele>254.0</ele><time>2026-04-26T11:58:07Z</time></trkpt><trkpt lat="43.12837062862285" lon="11.915612168666216"><ele>254.0</ele><time>2026-04-26T11:58:08Z</time></trkpt><trkpt lat="43.12843702156876" lon="11.915572729604804"><ele>254.28571428571428</ele><time>2026-04-26T11:58:09Z</time></trkpt><trkpt lat="43.1285012230917" lon="11.915528127898089"><ele>254.57142857142856</ele><time>2026-04-26T11:58:10Z</time></trkpt><trkpt lat="43.12856732570801" lon="11.915482849808814"><ele>254.85714285714283</ele><time>2026-04-26T11:58:11Z</time></trkpt><trkpt lat="43.12863245601983" lon="11.915430521725215"><ele>255.14285714285714</ele><time>2026-04-26T11:58:12Z</time></trkpt><trkpt lat="43.12869583642591" lon="11.915375007475117"><ele>255.4285714285714</ele><time>2026-04-26T11:58:13Z</time></trkpt><trkpt lat="43.12875767487401" lon="11.915320419218594"><ele>255.7142857142857</ele><time>2026-04-26T11:58:14Z</time></trkpt><trkpt lat="43.128816852027214" lon="11.915258767610661"><ele>256.0</ele><time>2026-04-26T11:58:15Z</time></trkpt><trkpt lat="43.12887372309808" lon="11.915190615832607"><ele>256.0</ele><time>2026-04-26T11:58:16Z</time></trkpt><trkpt lat="43.12892931919635" lon="11.915125647216188"><ele>255.99999999999997</ele><time>2026-04-26T11:58:17Z</time></trkpt><trkpt lat="43.12898256973152" lon="11.915056511366389"><ele>256.0</ele><time>2026-04-26T11:58:17.999Z</time></trkpt><trkpt lat="43.12903128074406" lon="11.914986372727666"><ele>256.0</ele><time>2026-04-26T11:58:18.999Z</time></trkpt><trkpt lat="43.12908141082899" lon="11.914913213255348"><ele>255.99999999999997</ele><time>2026-04-26T11:58:19.999Z</time></trkpt><trkpt lat="43.12912760230415" lon="11.914837085277993"><ele>256.0</ele><time>2026-04-26T11:58:20.999Z</time></trkpt><trkpt lat="43.129175157949476" lon="11.914756214512856"><ele>256.0</ele><time>2026-04-26T11:58:21.999Z</time></trkpt><trkpt lat="43.12922181921241" lon="11.914683971148465"><ele>256.66666666666663</ele><time>2026-04-26T11:58:22.999Z</time></trkpt><trkpt lat="43.129268515049915" lon="11.91460893862102"><ele>257.3333333333333</ele><time>2026-04-26T11:58:23.999Z</time></trkpt><trkpt lat="43.12931645250207" lon="11.914525217324783"><ele>258.0</ele><time>2026-04-26T11:58:24.999Z</time></trkpt><trkpt lat="43.12936336355729" lon="11.91444509486848"><ele>258.6666666666667</ele><time>2026-04-26T11:58:25.999Z</time></trkpt><trkpt lat="43.12941690051718" lon="11.9143612080828"><ele>259.33333333333337</ele><time>2026-04-26T11:58:26.999Z</time></trkpt><trkpt lat="43.12947590593285" lon="11.9142737177629"><ele>260.0</ele><time>2026-04-26T11:58:27.999Z</time></trkpt><trkpt lat="43.129529702212224" lon="11.914185757090703"><ele>258.6666666666667</ele><time>2026-04-26T11:58:28.999Z</time></trkpt><trkpt lat="43.12958331604093" lon="11.91410074852769"><ele>257.33333333333337</ele><time>2026-04-26T11:58:29.999Z</time></trkpt><trkpt lat="43.129632559057924" lon="11.914014653444298"><ele>256.0</ele><time>2026-04-26T11:58:30.999Z</time></trkpt><trkpt lat="43.1296847469313" lon="11.913928425964984"><ele>254.66666666666669</ele><time>2026-04-26T11:58:31.999Z</time></trkpt><trkpt lat="43.12973481772952" lon="11.913847665769062"><ele>253.33333333333334</ele><time>2026-04-26T11:58:32.999Z</time></trkpt><trkpt lat="43.129786016052456" lon="11.913766597438164"><ele>252.0</ele><time>2026-04-26T11:58:33.999Z</time></trkpt><trkpt lat="43.129837494245955" lon="11.913679695956889"><ele>252.0</ele><time>2026-04-26T11:58:34.999Z</time></trkpt><trkpt lat="43.12989023761955" lon="11.913594244364415"><ele>252.0</ele><time>2026-04-26T11:58:35.999Z</time></trkpt><trkpt lat="43.129938600911444" lon="11.913512718697358"><ele>252.0</ele><time>2026-04-26T11:58:36.999Z</time></trkpt><trkpt lat="43.12999292856794" lon="11.91343541733326"><ele>252.0</ele><time>2026-04-26T11:58:37.999Z</time></trkpt><trkpt lat="43.1300478376089" lon="11.913361826088114"><ele>252.0</ele><time>2026-04-26T11:58:38.999Z</time></trkpt><trkpt lat="43.13010010076763" lon="11.913290014554581"><ele>252.0</ele><time>2026-04-26T11:58:39.999Z</time></trkpt><trkpt lat="43.13015102210075" lon="11.913225952223987"><ele>252.14285714285714</ele><time>2026-04-26T11:58:40.999Z</time></trkpt><trkpt lat="43.130206841432184" lon="11.913158884931287"><ele>252.28571428571428</ele><time>2026-04-26T11:58:41.999Z</time></trkpt><trkpt lat="43.13025987432009" lon="11.913096895509126"><ele>252.42857142857144</ele><time>2026-04-26T11:58:42.999Z</time></trkpt><trkpt lat="43.13031438685322" lon="11.913032212089865"><ele>252.57142857142858</ele><time>2026-04-26T11:58:43.999Z</time></trkpt><trkpt lat="43.13037409024157" lon="11.912970830601573"><ele>252.71428571428572</ele><time>2026-04-26T11:58:44.999Z</time></trkpt><trkpt lat="43.130434438893666" lon="11.912906830790627"><ele>252.8571428571429</ele><time>2026-04-26T11:58:45.999Z</time></trkpt><trkpt lat="43.1304939544351" lon="11.912838543321977"><ele>253.00000000000003</ele><time>2026-04-26T11:58:46.999Z</time></trkpt><trkpt lat="43.1305512335748" lon="11.912775400558006"><ele>253.0</ele><time>2026-04-26T11:58:47.999Z</time></trkpt><trkpt lat="43.130641915000155" lon="11.912677556056558"><ele>253.0</ele><time>2026-04-26T11:58:49.999Z</time></trkpt><trkpt lat="43.13072164617818" lon="11.912593217168515"><ele>253.0</ele><time>2026-04-26T11:58:51.999Z</time></trkpt><trkpt lat="43.13080041638373" lon="11.912516258690355"><ele>253.0</ele><time>2026-04-26T11:58:53.999Z</time></trkpt><trkpt lat="43.130872760458594" lon="11.91242744017346"><ele>253.0</ele><time>2026-04-26T11:58:55.999Z</time></trkpt><trkpt lat="43.130957308039676" lon="11.912337954044537"><ele>253.4</ele><time>2026-04-26T11:58:57.999Z</time></trkpt><trkpt lat="43.13104620420671" lon="11.912253187326964"><ele>253.8</ele><time>2026-04-26T11:58:59.999Z</time></trkpt><trkpt lat="43.13113422975516" lon="11.91215444527805"><ele>254.2</ele><time>2026-04-26T11:59:01.999Z</time></trkpt><trkpt lat="43.13122577596259" lon="11.912056749441064"><ele>254.6</ele><time>2026-04-26T11:59:03.999Z</time></trkpt><trkpt lat="43.13127496160128" lon="11.91199964582571"><ele>255.0</ele><time>2026-04-26T11:59:04.999Z</time></trkpt><trkpt lat="43.131327899582686" lon="11.911943206384546"><ele>255.0</ele><time>2026-04-26T11:59:05.999Z</time></trkpt><trkpt lat="43.1313810912888" lon="11.911886567182494"><ele>255.00000000000003</ele><time>2026-04-26T11:59:06.999Z</time></trkpt><trkpt lat="43.131435252652054" lon="11.911833025907303"><ele>255.0</ele><time>2026-04-26T11:59:07.999Z</time></trkpt><trkpt lat="43.131487380127226" lon="11.911773102231773"><ele>255.0</ele><time>2026-04-26T11:59:08.999Z</time></trkpt><trkpt lat="43.13153882133325" lon="11.911713729599835"><ele>255.00000000000003</ele><time>2026-04-26T11:59:09.999Z</time></trkpt><trkpt lat="43.13159154987711" lon="11.911654519665154"><ele>255.0</ele><time>2026-04-26T11:59:10.999Z</time></trkpt><trkpt lat="43.13164487417486" lon="11.911595169863242"><ele>255.0</ele><time>2026-04-26T11:59:11.999Z</time></trkpt><trkpt lat="43.13170370258192" lon="11.91153681889282"><ele>255.0</ele><time>2026-04-26T11:59:12.999Z</time></trkpt><trkpt lat="43.13176226548255" lon="11.911475641680159"><ele>255.00000000000003</ele><time>2026-04-26T11:59:13.999Z</time></trkpt><trkpt lat="43.131818187600835" lon="11.911411124328216"><ele>255.0</ele><time>2026-04-26T11:59:14.999Z</time></trkpt><trkpt lat="43.1318731807157" lon="11.91134753120835"><ele>255.0</ele><time>2026-04-26T11:59:15.999Z</time></trkpt><trkpt lat="43.13193199786431" lon="11.911283872080935"><ele>255.00000000000003</ele><time>2026-04-26T11:59:16.999Z</time></trkpt><trkpt lat="43.13198855437085" lon="11.911225145431693"><ele>255.0</ele><time>2026-04-26T11:59:17.999Z</time></trkpt><trkpt lat="43.132049212855094" lon="11.911163367263"><ele>255.0</ele><time>2026-04-26T11:59:18.999Z</time></trkpt><trkpt lat="43.132100939161845" lon="11.911099082810447"><ele>255.0</ele><time>2026-04-26T11:59:19.999Z</time></trkpt><trkpt lat="43.13215720198336" lon="11.911038895703424"><ele>255.00000000000003</ele><time>2026-04-26T11:59:20.999Z</time></trkpt><trkpt lat="43.13221314154014" lon="11.910978620657245"><ele>255.0</ele><time>2026-04-26T11:59:21.999Z</time></trkpt><trkpt lat="43.132268028998176" lon="11.910920830335389"><ele>255.0</ele><time>2026-04-26T11:59:22.999Z</time></trkpt><trkpt lat="43.13231937505734" lon="11.910864626280048"><ele>255.00000000000003</ele><time>2026-04-26T11:59:23.999Z</time></trkpt><trkpt lat="43.13237359008844" lon="11.910807266682248"><ele>255.0</ele><time>2026-04-26T11:59:24.999Z</time></trkpt><trkpt lat="43.132428059859585" lon="11.9107453275794"><ele>255.0</ele><time>2026-04-26T11:59:25.999Z</time></trkpt><trkpt lat="43.13248329954205" lon="11.910686395392935"><ele>255.0</ele><time>2026-04-26T11:59:26.999Z</time></trkpt><trkpt lat="43.13253863451935" lon="11.910625779676618"><ele>255.00000000000003</ele><time>2026-04-26T11:59:27.999Z</time></trkpt><trkpt lat="43.13259639759074" lon="11.910565191149734"><ele>255.0</ele><time>2026-04-26T11:59:28.999Z</time></trkpt><trkpt lat="43.13264817698473" lon="11.910506180489229"><ele>255.0</ele><time>2026-04-26T11:59:29.999Z</time></trkpt><trkpt lat="43.13270404809966" lon="11.910445748140301"><ele>255.00000000000003</ele><time>2026-04-26T11:59:30.999Z</time></trkpt><trkpt lat="43.132759398678004" lon="11.910384194134648"><ele>255.0</ele><time>2026-04-26T11:59:31.999Z</time></trkpt><trkpt lat="43.13281846777485" lon="11.910315800532928"><ele>255.0</ele><time>2026-04-26T11:59:32.999Z</time></trkpt><trkpt lat="43.132879173385234" lon="11.910253249299032"><ele>255.0</ele><time>2026-04-26T11:59:33.999Z</time></trkpt><trkpt lat="43.132939318995014" lon="11.910189361019462"><ele>255.00000000000003</ele><time>2026-04-26T11:59:34.999Z</time></trkpt><trkpt lat="43.133002698070825" lon="11.910128137325179"><ele>255.0</ele><time>2026-04-26T11:59:35.999Z</time></trkpt><trkpt lat="43.133060697083664" lon="11.910067706761398"><ele>255.0</ele><time>2026-04-26T11:59:36.999Z</time></trkpt><trkpt lat="43.13312115498514" lon="11.910011752853535"><ele>255.00000000000003</ele><time>2026-04-26T11:59:37.999Z</time></trkpt><trkpt lat="43.133186396075224" lon="11.909971680075774"><ele>255.0</ele><time>2026-04-26T11:59:38.999Z</time></trkpt><trkpt lat="43.133250783162744" lon="11.909933303015071"><ele>255.0</ele><time>2026-04-26T11:59:39.999Z</time></trkpt><trkpt lat="43.13331574880629" lon="11.909895961004121"><ele>254.14285714285717</ele><time>2026-04-26T11:59:40.999Z</time></trkpt><trkpt lat="43.133380308311246" lon="11.90986460735377"><ele>253.2857142857143</ele><time>2026-04-26T11:59:41.999Z</time></trkpt><trkpt lat="43.13344830623492" lon="11.9098409652778"><ele>252.42857142857144</ele><time>2026-04-26T11:59:42.999Z</time></trkpt><trkpt lat="43.13351899820457" lon="11.909828456514134"><ele>251.57142857142856</ele><time>2026-04-26T11:59:43.999Z</time></trkpt><trkpt lat="43.13359184338819" lon="11.909816953550878"><ele>250.7142857142857</ele><time>2026-04-26T11:59:44.999Z</time></trkpt><trkpt lat="43.13366638430541" lon="11.909805614714092"><ele>249.85714285714283</ele><time>2026-04-26T11:59:45.999Z</time></trkpt><trkpt lat="43.13374342719933" lon="11.909797926460456"><ele>249.0</ele><time>2026-04-26T11:59:46.999Z</time></trkpt><trkpt lat="43.133820389275314" lon="11.909792906031816"><ele>249.0</ele><time>2026-04-26T11:59:47.999Z</time></trkpt><trkpt lat="43.13389745118883" lon="11.909786905458871"><ele>249.0</ele><time>2026-04-26T11:59:48.999Z</time></trkpt><trkpt lat="43.133976831209246" lon="11.909778335455112"><ele>249.0</ele><time>2026-04-26T11:59:49.999Z</time></trkpt><trkpt lat="43.134055084341746" lon="11.909771508946779"><ele>249.0</ele><time>2026-04-26T11:59:50.999Z</time></trkpt><trkpt lat="43.13413057893274" lon="11.909756409037504"><ele>249.0</ele><time>2026-04-26T11:59:51.999Z</time></trkpt><trkpt lat="43.134208183019" lon="11.909734251668468"><ele>249.0</ele><time>2026-04-26T11:59:52.999Z</time></trkpt><trkpt lat="43.13428013979963" lon="11.909710875577696"><ele>249.5</ele><time>2026-04-26T11:59:53.999Z</time></trkpt><trkpt lat="43.13435345259874" lon="11.90967794076536"><ele>250.0</ele><time>2026-04-26T11:59:54.999Z</time></trkpt><trkpt lat="43.13442387712864" lon="11.909637625540292"><ele>250.5</ele><time>2026-04-26T11:59:55.999Z</time></trkpt><trkpt lat="43.13449299295883" lon="11.90958918596758"><ele>251.0</ele><time>2026-04-26T11:59:56.999Z</time></trkpt><trkpt lat="43.13455583920994" lon="11.909530710244594"><ele>251.5</ele><time>2026-04-26T11:59:57.999Z</time></trkpt><trkpt lat="43.134620146701124" lon="11.909470935729926"><ele>252.0</ele><time>2026-04-26T11:59:58.999Z</time></trkpt><trkpt lat="43.134674950779214" lon="11.909406376549907"><ele>252.0</ele><time>2026-04-26T11:59:59.999Z</time></trkpt><trkpt lat="43.13472398802458" lon="11.909338220993313"><ele>252.0</ele><time>2026-04-26T12:00:00.999Z</time></trkpt><trkpt lat="43.13477257357401" lon="11.909268088459111"><ele>252.0</ele><time>2026-04-26T12:00:01.999Z</time></trkpt><trkpt lat="43.13481778712425" lon="11.90919386476814"><ele>252.0</ele><time>2026-04-26T12:00:02.999Z</time></trkpt><trkpt lat="43.13486334534998" lon="11.909113910292861"><ele>252.0</ele><time>2026-04-26T12:00:04Z</time></trkpt><trkpt lat="43.13490538548985" lon="11.90903333996172"><ele>252.0</ele><time>2026-04-26T12:00:05Z</time></trkpt><trkpt lat="43.13494340378169" lon="11.908949676137802"><ele>252.0</ele><time>2026-04-26T12:00:06Z</time></trkpt><trkpt lat="43.134981630803516" lon="11.90886669007522"><ele>252.14285714285714</ele><time>2026-04-26T12:00:07Z</time></trkpt><trkpt lat="43.135016976055574" lon="11.908780817923919"><ele>252.28571428571428</ele><time>2026-04-26T12:00:08Z</time></trkpt><trkpt lat="43.13505081396024" lon="11.908692139651773"><ele>252.42857142857144</ele><time>2026-04-26T12:00:09Z</time></trkpt><trkpt lat="43.13508264218803" lon="11.908604406755481"><ele>252.57142857142858</ele><time>2026-04-26T12:00:10Z</time></trkpt><trkpt lat="43.135115254300935" lon="11.908514981204643"><ele>252.71428571428572</ele><time>2026-04-26T12:00:11Z</time></trkpt><trkpt lat="43.135148246804846" lon="11.908423887415282"><ele>252.8571428571429</ele><time>2026-04-26T12:00:12Z</time></trkpt><trkpt lat="43.135176908894444" lon="11.908328950136799"><ele>253.00000000000003</ele><time>2026-04-26T12:00:13Z</time></trkpt><trkpt lat="43.135202511509924" lon="11.908234405126647"><ele>252.71428571428575</ele><time>2026-04-26T12:00:14Z</time></trkpt><trkpt lat="43.135230249249226" lon="11.908141197215077"><ele>252.42857142857144</ele><time>2026-04-26T12:00:15Z</time></trkpt><trkpt lat="43.1352593584133" lon="11.908049730674852"><ele>252.14285714285714</ele><time>2026-04-26T12:00:16Z</time></trkpt><trkpt lat="43.13528872013013" lon="11.90796514857143"><ele>251.85714285714286</ele><time>2026-04-26T12:00:17Z</time></trkpt><trkpt lat="43.135316204910026" lon="11.907877596839933"><ele>251.57142857142856</ele><time>2026-04-26T12:00:18Z</time></trkpt><trkpt lat="43.135337275117806" lon="11.907790432475043"><ele>251.28571428571425</ele><time>2026-04-26T12:00:19Z</time></trkpt><trkpt lat="43.135368218632536" lon="11.9076956339622"><ele>250.99999999999997</ele><time>2026-04-26T12:00:20Z</time></trkpt><trkpt lat="43.13541071436521" lon="11.907530785582752"><ele>250.99999999999997</ele><time>2026-04-26T12:00:22Z</time></trkpt><trkpt lat="43.135436864873185" lon="11.907441909923888"><ele>251.0</ele><time>2026-04-26T12:00:23Z</time></trkpt><trkpt lat="43.13546369108359" lon="11.907350354863933"><ele>250.99999999999997</ele><time>2026-04-26T12:00:24Z</time></trkpt><trkpt lat="43.135488673360214" lon="11.907255117298327"><ele>250.99999999999997</ele><time>2026-04-26T12:00:25Z</time></trkpt><trkpt lat="43.135519498961635" lon="11.90715996338546"><ele>251.0</ele><time>2026-04-26T12:00:26Z</time></trkpt><trkpt lat="43.13555055632149" lon="11.907066546321607"><ele>250.99999999999997</ele><time>2026-04-26T12:00:27Z</time></trkpt><trkpt lat="43.13557817305399" lon="11.906972602800037"><ele>250.99999999999997</ele><time>2026-04-26T12:00:28Z</time></trkpt><trkpt lat="43.135604915632385" lon="11.9068836625553"><ele>251.00000000000003</ele><time>2026-04-26T12:00:29Z</time></trkpt><trkpt lat="43.13563250354003" lon="11.906799952863178"><ele>251.0</ele><time>2026-04-26T12:00:30Z</time></trkpt><trkpt lat="43.13566834612719" lon="11.90663349893275"><ele>251.0</ele><time>2026-04-26T12:00:32Z</time></trkpt><trkpt lat="43.13568839564795" lon="11.906544987857476"><ele>251.0</ele><time>2026-04-26T12:00:33Z</time></trkpt><trkpt lat="43.135714336153725" lon="11.906459561441546"><ele>251.00000000000003</ele><time>2026-04-26T12:00:34Z</time></trkpt><trkpt lat="43.135738039976076" lon="11.90637000799703"><ele>251.0</ele><time>2026-04-26T12:00:35Z</time></trkpt><trkpt lat="43.13576304035103" lon="11.90628244075513"><ele>250.99999999999997</ele><time>2026-04-26T12:00:36Z</time></trkpt><trkpt lat="43.1357951153952" lon="11.906196383633832"><ele>251.0</ele><time>2026-04-26T12:00:37Z</time></trkpt><trkpt lat="43.1358396608913" lon="11.906121632955513"><ele>250.99999999999997</ele><time>2026-04-26T12:00:38Z</time></trkpt><trkpt lat="43.13589619067129" lon="11.906060763416068"><ele>250.99999999999997</ele><time>2026-04-26T12:00:39Z</time></trkpt><trkpt lat="43.13596156313306" lon="11.906011138611987"><ele>251.0</ele><time>2026-04-26T12:00:40Z</time></trkpt><trkpt lat="43.13603138206685" lon="11.905975521965845"><ele>250.99999999999997</ele><time>2026-04-26T12:00:41Z</time></trkpt><trkpt lat="43.13610250629022" lon="11.90593788344726"><ele>250.99999999999997</ele><time>2026-04-26T12:00:42Z</time></trkpt><trkpt lat="43.136174335888306" lon="11.905900775625621"><ele>251.00000000000003</ele><time>2026-04-26T12:00:43Z</time></trkpt><trkpt lat="43.136245459327874" lon="11.905862595120444"><ele>251.0</ele><time>2026-04-26T12:00:44Z</time></trkpt><trkpt lat="43.1363152795122" lon="11.90582787215578"><ele>251.0</ele><time>2026-04-26T12:00:45Z</time></trkpt><trkpt lat="43.13638792440754" lon="11.905788274575727"><ele>251.0</ele><time>2026-04-26T12:00:46Z</time></trkpt><trkpt lat="43.13645556651724" lon="11.905736956289516"><ele>251.00000000000003</ele><time>2026-04-26T12:00:47Z</time></trkpt><trkpt lat="43.13652690208816" lon="11.905688707987046"><ele>251.0</ele><time>2026-04-26T12:00:48Z</time></trkpt><trkpt lat="43.13660099115832" lon="11.905655986599903"><ele>250.66666666666669</ele><time>2026-04-26T12:00:49Z</time></trkpt><trkpt lat="43.13667331197574" lon="11.905617895806163"><ele>250.33333333333334</ele><time>2026-04-26T12:00:50Z</time></trkpt><trkpt lat="43.13674331384344" lon="11.905579298568126"><ele>250.0</ele><time>2026-04-26T12:00:51Z</time></trkpt><trkpt lat="43.13681278223406" lon="11.905538006071692"><ele>249.66666666666669</ele><time>2026-04-26T12:00:52Z</time></trkpt><trkpt lat="43.13688342108184" lon="11.90549766404956"><ele>249.33333333333334</ele><time>2026-04-26T12:00:53Z</time></trkpt><trkpt lat="43.13694998738007" lon="11.905458506262113"><ele>249.0</ele><time>2026-04-26T12:00:54Z</time></trkpt><trkpt lat="43.13701775326692" lon="11.90541644027554"><ele>249.0</ele><time>2026-04-26T12:00:55Z</time></trkpt><trkpt lat="43.13708247732493" lon="11.905375416856518"><ele>249.0</ele><time>2026-04-26T12:00:56Z</time></trkpt><trkpt lat="43.137154855975375" lon="11.905341859459957"><ele>249.0</ele><time>2026-04-26T12:00:56.999Z</time></trkpt><trkpt lat="43.13722889281595" lon="11.905311566775737"><ele>249.0</ele><time>2026-04-26T12:00:57.999Z</time></trkpt><trkpt lat="43.13729806297242" lon="11.905276177104607"><ele>249.0</ele><time>2026-04-26T12:00:58.999Z</time></trkpt><trkpt lat="43.13736799379404" lon="11.905233107937189"><ele>249.0</ele><time>2026-04-26T12:00:59.999Z</time></trkpt><trkpt lat="43.13743895396186" lon="11.905186565762564"><ele>249.33333333333334</ele><time>2026-04-26T12:01:00.999Z</time></trkpt><trkpt lat="43.13751136969151" lon="11.90514201580794"><ele>249.66666666666669</ele><time>2026-04-26T12:01:01.999Z</time></trkpt><trkpt lat="43.13758401093025" lon="11.905100179473136"><ele>250.0</ele><time>2026-04-26T12:01:02.999Z</time></trkpt><trkpt lat="43.13764879846348" lon="11.905054976201377"><ele>250.33333333333334</ele><time>2026-04-26T12:01:03.999Z</time></trkpt><trkpt lat="43.137715076057724" lon="11.904998992406137"><ele>250.66666666666669</ele><time>2026-04-26T12:01:04.999Z</time></trkpt><trkpt lat="43.13777790034152" lon="11.904941357064263"><ele>251.0</ele><time>2026-04-26T12:01:05.999Z</time></trkpt><trkpt lat="43.13784039620131" lon="11.9048819233583"><ele>251.00000000000003</ele><time>2026-04-26T12:01:06.999Z</time></trkpt><trkpt lat="43.13790245524012" lon="11.904818162406745"><ele>251.0</ele><time>2026-04-26T12:01:07.999Z</time></trkpt><trkpt lat="43.13795975270315" lon="11.904749769498235"><ele>251.0</ele><time>2026-04-26T12:01:08.999Z</time></trkpt><trkpt lat="43.13801773065983" lon="11.904676543350028"><ele>251.0</ele><time>2026-04-26T12:01:09.999Z</time></trkpt><trkpt lat="43.138070673356886" lon="11.904600162823304"><ele>251.00000000000003</ele><time>2026-04-26T12:01:10.999Z</time></trkpt><trkpt lat="43.13812270910122" lon="11.90452078167481"><ele>251.0</ele><time>2026-04-26T12:01:11.999Z</time></trkpt><trkpt lat="43.1381738710521" lon="11.90443993177347"><ele>251.83333333333334</ele><time>2026-04-26T12:01:12.999Z</time></trkpt><trkpt lat="43.13822351609921" lon="11.904356272515386"><ele>252.66666666666669</ele><time>2026-04-26T12:01:13.999Z</time></trkpt><trkpt lat="43.13827060123387" lon="11.904272173413585"><ele>253.5</ele><time>2026-04-26T12:01:14.999Z</time></trkpt><trkpt lat="43.13831425291261" lon="11.904182517384585"><ele>254.33333333333331</ele><time>2026-04-26T12:01:15.999Z</time></trkpt><trkpt lat="43.138354687265995" lon="11.904092014209766"><ele>255.16666666666666</ele><time>2026-04-26T12:01:16.999Z</time></trkpt><trkpt lat="43.138394764150824" lon="11.904001105469533"><ele>256.0</ele><time>2026-04-26T12:01:17.999Z</time></trkpt><trkpt lat="43.13843428180179" lon="11.903913045307435"><ele>255.99999999999997</ele><time>2026-04-26T12:01:18.999Z</time></trkpt><trkpt lat="43.138476313638165" lon="11.903822397050487"><ele>256.0</ele><time>2026-04-26T12:01:19.999Z</time></trkpt><trkpt lat="43.13851598745543" lon="11.903731644699725"><ele>256.0</ele><time>2026-04-26T12:01:20.999Z</time></trkpt><trkpt lat="43.13855469838552" lon="11.903638636271573"><ele>256.0</ele><time>2026-04-26T12:01:21.999Z</time></trkpt><trkpt lat="43.13859513488815" lon="11.903548173178288"><ele>255.99999999999997</ele><time>2026-04-26T12:01:22.999Z</time></trkpt><trkpt lat="43.13863523717591" lon="11.903458744552921"><ele>256.0</ele><time>2026-04-26T12:01:23.999Z</time></trkpt><trkpt lat="43.138674012113384" lon="11.903370226022878"><ele>255.42857142857142</ele><time>2026-04-26T12:01:24.999Z</time></trkpt><trkpt lat="43.138713739607375" lon="11.903282944646051"><ele>254.85714285714283</ele><time>2026-04-26T12:01:25.999Z</time></trkpt><trkpt lat="43.13875252317166" lon="11.90320130498824"><ele>254.28571428571428</ele><time>2026-04-26T12:01:26.999Z</time></trkpt><trkpt lat="43.138790783766396" lon="11.903116551557906"><ele>253.71428571428572</ele><time>2026-04-26T12:01:27.999Z</time></trkpt><trkpt lat="43.1388306680859" lon="11.903032976988156"><ele>253.14285714285714</ele><time>2026-04-26T12:01:28.999Z</time></trkpt><trkpt lat="43.138870971709935" lon="11.902947946985769"><ele>252.57142857142856</ele><time>2026-04-26T12:01:29.999Z</time></trkpt><trkpt lat="43.13890868059485" lon="11.902863688934655"><ele>252.0</ele><time>2026-04-26T12:01:30.999Z</time></trkpt><trkpt lat="43.13895163286383" lon="11.90277595716777"><ele>252.0</ele><time>2026-04-26T12:01:31.999Z</time></trkpt><trkpt lat="43.138991289470134" lon="11.902692431169946"><ele>252.0</ele><time>2026-04-26T12:01:32.999Z</time></trkpt><trkpt lat="43.13903031787339" lon="11.902606689287158"><ele>252.0</ele><time>2026-04-26T12:01:33.999Z</time></trkpt><trkpt lat="43.139071439767314" lon="11.902521181120699"><ele>252.0</ele><time>2026-04-26T12:01:34.999Z</time></trkpt><trkpt lat="43.13911411783398" lon="11.902433331795061"><ele>252.0</ele><time>2026-04-26T12:01:35.999Z</time></trkpt><trkpt lat="43.139153053913816" lon="11.902343602364244"><ele>252.0</ele><time>2026-04-26T12:01:36.999Z</time></trkpt><trkpt lat="43.139189680743705" lon="11.902258195909269"><ele>252.0</ele><time>2026-04-26T12:01:37.999Z</time></trkpt><trkpt lat="43.139228364030515" lon="11.902171168973796"><ele>252.0</ele><time>2026-04-26T12:01:38.999Z</time></trkpt><trkpt lat="43.13927017624201" lon="11.902082776561391"><ele>252.0</ele><time>2026-04-26T12:01:39.999Z</time></trkpt><trkpt lat="43.13931051863778" lon="11.90199649559309"><ele>252.0</ele><time>2026-04-26T12:01:40.999Z</time></trkpt><trkpt lat="43.139351604094756" lon="11.901906876045377"><ele>252.0</ele><time>2026-04-26T12:01:41.999Z</time></trkpt><trkpt lat="43.13939107456661" lon="11.901820912152473"><ele>252.0</ele><time>2026-04-26T12:01:42.999Z</time></trkpt><trkpt lat="43.13943263237523" lon="11.90173414816627"><ele>252.0</ele><time>2026-04-26T12:01:43.999Z</time></trkpt><trkpt lat="43.13947277249961" lon="11.901646121804632"><ele>252.0</ele><time>2026-04-26T12:01:44.999Z</time></trkpt><trkpt lat="43.13951374850256" lon="11.901558459689152"><ele>252.0</ele><time>2026-04-26T12:01:45.999Z</time></trkpt><trkpt lat="43.139556465334906" lon="11.901473490259493"><ele>252.0</ele><time>2026-04-26T12:01:46.999Z</time></trkpt><trkpt lat="43.13959937646053" lon="11.901397624597045"><ele>252.0</ele><time>2026-04-26T12:01:47.999Z</time></trkpt><trkpt lat="43.13964148928734" lon="11.901321539422426"><ele>252.0</ele><time>2026-04-26T12:01:48.999Z</time></trkpt><trkpt lat="43.13968717903861" lon="11.901246197399255"><ele>252.0</ele><time>2026-04-26T12:01:49.999Z</time></trkpt><trkpt lat="43.1397346241812" lon="11.90117552400255"><ele>252.0</ele><time>2026-04-26T12:01:50.999Z</time></trkpt><trkpt lat="43.13978731733636" lon="11.901107614857466"><ele>252.0</ele><time>2026-04-26T12:01:51.999Z</time></trkpt><trkpt lat="43.13983842490264" lon="11.901042957293713"><ele>252.0</ele><time>2026-04-26T12:01:52.999Z</time></trkpt><trkpt lat="43.13989676425661" lon="11.900979264212818"><ele>252.0</ele><time>2026-04-26T12:01:53.999Z</time></trkpt><trkpt lat="43.13994813723712" lon="11.900918259639703"><ele>252.0</ele><time>2026-04-26T12:01:54.999Z</time></trkpt><trkpt lat="43.14000791292942" lon="11.900863945927274"><ele>252.0</ele><time>2026-04-26T12:01:55.999Z</time></trkpt><trkpt lat="43.14006806516105" lon="11.900814306893068"><ele>252.0</ele><time>2026-04-26T12:01:56.999Z</time></trkpt><trkpt lat="43.14012584255215" lon="11.900763012266024"><ele>252.0</ele><time>2026-04-26T12:01:57.999Z</time></trkpt><trkpt lat="43.14018345800089" lon="11.900710128823368"><ele>252.42857142857144</ele><time>2026-04-26T12:01:58.999Z</time></trkpt><trkpt lat="43.14024035055083" lon="11.900655791609962"><ele>252.85714285714286</ele><time>2026-04-26T12:01:59.999Z</time></trkpt><trkpt lat="43.14029805704171" lon="11.900602609984572"><ele>253.28571428571428</ele><time>2026-04-26T12:02:00.999Z</time></trkpt><trkpt lat="43.140360049789614" lon="11.900549031471504"><ele>253.71428571428572</ele><time>2026-04-26T12:02:01.999Z</time></trkpt><trkpt lat="43.140420181006185" lon="11.900496100352838"><ele>254.14285714285717</ele><time>2026-04-26T12:02:02.999Z</time></trkpt><trkpt lat="43.14048005297492" lon="11.900441070234706"><ele>254.57142857142858</ele><time>2026-04-26T12:02:03.999Z</time></trkpt><trkpt lat="43.14054075739145" lon="11.90038563238098"><ele>255.0</ele><time>2026-04-26T12:02:04.999Z</time></trkpt><trkpt lat="43.140598579051556" lon="11.900328726016362"><ele>255.0</ele><time>2026-04-26T12:02:05.999Z</time></trkpt><trkpt lat="43.140655138111086" lon="11.900277460662663"><ele>255.00000000000003</ele><time>2026-04-26T12:02:06.999Z</time></trkpt><trkpt lat="43.14070956501886" lon="11.900226787170963"><ele>255.0</ele><time>2026-04-26T12:02:07.999Z</time></trkpt><trkpt lat="43.140767022531406" lon="11.90017849111269"><ele>255.0</ele><time>2026-04-26T12:02:08.999Z</time></trkpt><trkpt lat="43.14082317844866" lon="11.900134205195773"><ele>255.00000000000003</ele><time>2026-04-26T12:02:10Z</time></trkpt><trkpt lat="43.140878980752234" lon="11.900073602079045"><ele>255.0</ele><time>2026-04-26T12:02:11Z</time></trkpt><trkpt lat="43.1409400636538" lon="11.90001792472138"><ele>255.0</ele><time>2026-04-26T12:02:12Z</time></trkpt><trkpt lat="43.14099803906543" lon="11.89995574615691"><ele>254.83333333333334</ele><time>2026-04-26T12:02:13Z</time></trkpt><trkpt lat="43.14105922250157" lon="11.899894518440052"><ele>254.66666666666669</ele><time>2026-04-26T12:02:14Z</time></trkpt><trkpt lat="43.141119061885014" lon="11.899837537991772"><ele>254.5</ele><time>2026-04-26T12:02:15Z</time></trkpt><trkpt lat="43.141180900280474" lon="11.89977614380421"><ele>254.33333333333334</ele><time>2026-04-26T12:02:16Z</time></trkpt><trkpt lat="43.14124165036586" lon="11.899708838546081"><ele>254.16666666666669</ele><time>2026-04-26T12:02:17Z</time></trkpt><trkpt lat="43.14131825655652" lon="11.899644553713273"><ele>254.0</ele><time>2026-04-26T12:02:18Z</time></trkpt><trkpt lat="43.141376225459524" lon="11.899586918753362"><ele>254.0</ele><time>2026-04-26T12:02:19Z</time></trkpt><trkpt lat="43.141423784028376" lon="11.899520756920667"><ele>254.0</ele><time>2026-04-26T12:02:20Z</time></trkpt><trkpt lat="43.141478133235104" lon="11.899467518030278"><ele>254.0</ele><time>2026-04-26T12:02:21Z</time></trkpt><trkpt lat="43.141536236538784" lon="11.899407965524919"><ele>254.0</ele><time>2026-04-26T12:02:22Z</time></trkpt><trkpt lat="43.141597087030654" lon="11.899349872944008"><ele>254.0</ele><time>2026-04-26T12:02:23Z</time></trkpt><trkpt lat="43.14165784612791" lon="11.899295477069114"><ele>254.0</ele><time>2026-04-26T12:02:24Z</time></trkpt><trkpt lat="43.14171474966199" lon="11.899238105110872"><ele>254.0</ele><time>2026-04-26T12:02:25Z</time></trkpt><trkpt lat="43.14177179176279" lon="11.899181962452536"><ele>254.14285714285717</ele><time>2026-04-26T12:02:26Z</time></trkpt><trkpt lat="43.14183035618002" lon="11.899128394601513"><ele>254.28571428571428</ele><time>2026-04-26T12:02:27Z</time></trkpt><trkpt lat="43.1418897175411" lon="11.899076766863852"><ele>254.42857142857144</ele><time>2026-04-26T12:02:28Z</time></trkpt><trkpt lat="43.14195072734354" lon="11.899029582214135"><ele>254.57142857142858</ele><time>2026-04-26T12:02:29Z</time></trkpt><trkpt lat="43.14201333807293" lon="11.898978599621776"><ele>254.71428571428572</ele><time>2026-04-26T12:02:30Z</time></trkpt><trkpt lat="43.142077225948334" lon="11.898933607098217"><ele>254.85714285714286</ele><time>2026-04-26T12:02:31Z</time></trkpt><trkpt lat="43.14213993721413" lon="11.898892682617983"><ele>255.0</ele><time>2026-04-26T12:02:32Z</time></trkpt><trkpt lat="43.14220568786815" lon="11.898854917475564"><ele>255.0</ele><time>2026-04-26T12:02:33Z</time></trkpt><trkpt lat="43.142268724582856" lon="11.898821186358935"><ele>255.00000000000003</ele><time>2026-04-26T12:02:34Z</time></trkpt><trkpt lat="43.142334936570094" lon="11.898787797175217"><ele>255.0</ele><time>2026-04-26T12:02:35Z</time></trkpt><trkpt lat="43.14240153198249" lon="11.89876095752209"><ele>255.0</ele><time>2026-04-26T12:02:36Z</time></trkpt><trkpt lat="43.1424668774126" lon="11.898736201789394"><ele>255.00000000000003</ele><time>2026-04-26T12:02:37Z</time></trkpt><trkpt lat="43.14253676478909" lon="11.898712024410086"><ele>255.0</ele><time>2026-04-26T12:02:38Z</time></trkpt><trkpt lat="43.14260643917887" lon="11.898689466994583"><ele>255.0</ele><time>2026-04-26T12:02:39Z</time></trkpt><trkpt lat="43.14267896130152" lon="11.898662972645344"><ele>256.7142857142857</ele><time>2026-04-26T12:02:40Z</time></trkpt><trkpt lat="43.14274818869577" lon="11.898636115147555"><ele>258.42857142857144</ele><time>2026-04-26T12:02:41Z</time></trkpt><trkpt lat="43.14281709583642" lon="11.898609391430718"><ele>260.14285714285717</ele><time>2026-04-26T12:02:42Z</time></trkpt><trkpt lat="43.142888068049814" lon="11.898589643138518"><ele>261.8571428571429</ele><time>2026-04-26T12:02:43Z</time></trkpt><trkpt lat="43.14295870209613" lon="11.89856330531124"><ele>263.57142857142856</ele><time>2026-04-26T12:02:44Z</time></trkpt><trkpt lat="43.14302746160672" lon="11.89853702432977"><ele>265.28571428571433</ele><time>2026-04-26T12:02:45Z</time></trkpt><trkpt lat="43.14310025884717" lon="11.898507337221508"><ele>267.0</ele><time>2026-04-26T12:02:46Z</time></trkpt><trkpt lat="43.14317352234694" lon="11.89848175706789"><ele>267.6666666666667</ele><time>2026-04-26T12:02:47Z</time></trkpt><trkpt lat="43.14324967405304" lon="11.898454770677017"><ele>268.3333333333333</ele><time>2026-04-26T12:02:48Z</time></trkpt><trkpt lat="43.143322513227744" lon="11.898431046573755"><ele>269.0</ele><time>2026-04-26T12:02:49Z</time></trkpt><trkpt lat="43.143397608982326" lon="11.898404989720609"><ele>269.66666666666663</ele><time>2026-04-26T12:02:50Z</time></trkpt><trkpt lat="43.143470299716355" lon="11.898374634446682"><ele>270.3333333333333</ele><time>2026-04-26T12:02:51Z</time></trkpt><trkpt lat="43.143540980110046" lon="11.89834652529585"><ele>271.0</ele><time>2026-04-26T12:02:52Z</time></trkpt><trkpt lat="43.14361228283801" lon="11.898315164239808"><ele>269.1428571428571</ele><time>2026-04-26T12:02:53Z</time></trkpt><trkpt lat="43.143681429041045" lon="11.898280934753506"><ele>267.2857142857143</ele><time>2026-04-26T12:02:54Z</time></trkpt><trkpt lat="43.14374967065086" lon="11.898243105513508"><ele>265.42857142857144</ele><time>2026-04-26T12:02:55Z</time></trkpt><trkpt lat="43.14381661582807" lon="11.898207327008585"><ele>263.57142857142856</ele><time>2026-04-26T12:02:56Z</time></trkpt><trkpt lat="43.1438836488872" lon="11.898166267711169"><ele>261.7142857142857</ele><time>2026-04-26T12:02:57Z</time></trkpt><trkpt lat="43.143951798469644" lon="11.898121928772118"><ele>259.85714285714283</ele><time>2026-04-26T12:02:58Z</time></trkpt><trkpt lat="43.14401800722098" lon="11.898077030010821"><ele>258.0</ele><time>2026-04-26T12:02:59Z</time></trkpt><trkpt lat="43.14408270402155" lon="11.898028765316408"><ele>257.99999999999994</ele><time>2026-04-26T12:03:00Z</time></trkpt><trkpt lat="43.144146595766394" lon="11.897974505034421"><ele>258.0</ele><time>2026-04-26T12:03:01Z</time></trkpt><trkpt lat="43.144210398428385" lon="11.89792189693899"><ele>258.0</ele><time>2026-04-26T12:03:02Z</time></trkpt><trkpt lat="43.144272090209036" lon="11.897867566149118"><ele>258.0</ele><time>2026-04-26T12:03:03Z</time></trkpt><trkpt lat="43.144329526515975" lon="11.897813299685032"><ele>258.0</ele><time>2026-04-26T12:03:04Z</time></trkpt><trkpt lat="43.144386258522246" lon="11.897752811542794"><ele>257.99999999999994</ele><time>2026-04-26T12:03:05Z</time></trkpt><trkpt lat="43.14444783234036" lon="11.89769640578017"><ele>258.0</ele><time>2026-04-26T12:03:06Z</time></trkpt><trkpt lat="43.144509462379325" lon="11.897641810121751"><ele>257.1428571428571</ele><time>2026-04-26T12:03:07Z</time></trkpt><trkpt lat="43.144566106420754" lon="11.897581163398074"><ele>256.2857142857143</ele><time>2026-04-26T12:03:08Z</time></trkpt><trkpt lat="43.14462008488135" lon="11.897513883516623"><ele>255.42857142857142</ele><time>2026-04-26T12:03:09Z</time></trkpt><trkpt lat="43.14467832585187" lon="11.897456117281997"><ele>254.57142857142856</ele><time>2026-04-26T12:03:10Z</time></trkpt><trkpt lat="43.14473399406704" lon="11.897397916818031"><ele>253.71428571428572</ele><time>2026-04-26T12:03:11Z</time></trkpt><trkpt lat="43.14478863746662" lon="11.897333680336331"><ele>252.85714285714286</ele><time>2026-04-26T12:03:12Z</time></trkpt><trkpt lat="43.14484729308666" lon="11.897270952422849"><ele>252.0</ele><time>2026-04-26T12:03:13Z</time></trkpt><trkpt lat="43.144907423325364" lon="11.897214389647818"><ele>252.0</ele><time>2026-04-26T12:03:14Z</time></trkpt><trkpt lat="43.14496519318891" lon="11.897152678441623"><ele>252.0</ele><time>2026-04-26T12:03:15Z</time></trkpt><trkpt lat="43.14502044982797" lon="11.897091735725569"><ele>252.0</ele><time>2026-04-26T12:03:16Z</time></trkpt><trkpt lat="43.145076984518916" lon="11.897028430109135"><ele>252.0</ele><time>2026-04-26T12:03:17Z</time></trkpt><trkpt lat="43.14513566540348" lon="11.89697316073605"><ele>252.0</ele><time>2026-04-26T12:03:18Z</time></trkpt><trkpt lat="43.14522479661075" lon="11.896872260881974"><ele>252.0</ele><time>2026-04-26T12:03:19.999Z</time></trkpt><trkpt lat="43.14527692161721" lon="11.896805322521155"><ele>251.6</ele><time>2026-04-26T12:03:21.999Z</time></trkpt><trkpt lat="43.14532618141802" lon="11.89673922795259"><ele>251.2</ele><time>2026-04-26T12:03:24.999Z</time></trkpt><trkpt lat="43.145262563609045" lon="11.896617478187366"><ele>250.8</ele><time>2026-04-26T12:03:25.999Z</time></trkpt><trkpt lat="43.145198142692344" lon="11.89650138898353"><ele>250.4</ele><time>2026-04-26T12:03:27.999Z</time></trkpt><trkpt lat="43.145124760759714" lon="11.896373636611449"><ele>250.0</ele><time>2026-04-26T12:03:29.999Z</time></trkpt><trkpt lat="43.14505469436352" lon="11.896247299340084"><ele>250.0</ele><time>2026-04-26T12:03:31.999Z</time></trkpt><trkpt lat="43.144990391827115" lon="11.896137355111293"><ele>250.0</ele><time>2026-04-26T12:03:33.999Z</time></trkpt><trkpt lat="43.14492274805301" lon="11.896026223244334"><ele>250.0</ele><time>2026-04-26T12:03:35.999Z</time></trkpt><trkpt lat="43.144854843014784" lon="11.89590432090213"><ele>250.0</ele><time>2026-04-26T12:03:37.999Z</time></trkpt><trkpt lat="43.14478431619986" lon="11.895783049929802"><ele>250.0</ele><time>2026-04-26T12:03:39.999Z</time></trkpt><trkpt lat="43.14471761739643" lon="11.89565732614984"><ele>249.66666666666666</ele><time>2026-04-26T12:03:41.999Z</time></trkpt><trkpt lat="43.14465174858345" lon="11.89554919944001"><ele>249.33333333333331</ele><time>2026-04-26T12:03:43.999Z</time></trkpt><trkpt lat="43.14461696404466" lon="11.895476758237942"><ele>249.0</ele><time>2026-04-26T12:03:45.999Z</time></trkpt><trkpt lat="43.14459740719711" lon="11.89539458351227"><ele>248.66666666666669</ele><time>2026-04-26T12:03:49.999Z</time></trkpt><trkpt lat="43.1445773942982" lon="11.895312703884855"><ele>248.33333333333334</ele><time>2026-04-26T12:03:51.999Z</time></trkpt><trkpt lat="43.14454206441678" lon="11.895238640472208"><ele>248.0</ele><time>2026-04-26T12:03:54.999Z</time></trkpt><trkpt lat="43.14468428295819" lon="11.895155996458437"><ele>248.0</ele><time>2026-04-26T12:03:57.999Z</time></trkpt><trkpt lat="43.1447529107954" lon="11.895122511261892"><ele>248.0</ele><time>2026-04-26T12:03:59.999Z</time></trkpt><trkpt lat="43.144832001476495" lon="11.895078367886088"><ele>248.0</ele><time>2026-04-26T12:04:01.999Z</time></trkpt><trkpt lat="43.144915840355424" lon="11.895024681475995"><ele>248.0</ele><time>2026-04-26T12:04:03.999Z</time></trkpt><trkpt lat="43.14500723125827" lon="11.894969406097237"><ele>248.0</ele><time>2026-04-26T12:04:05.999Z</time></trkpt><trkpt lat="43.14510458464183" lon="11.894914610879642"><ele>248.2</ele><time>2026-04-26T12:04:07.999Z</time></trkpt><trkpt lat="43.14520394807669" lon="11.894857658582003"><ele>248.4</ele><time>2026-04-26T12:04:09.999Z</time></trkpt><trkpt lat="43.14530283779233" lon="11.89480179600941"><ele>248.59999999999997</ele><time>2026-04-26T12:04:11.999Z</time></trkpt><trkpt lat="43.14540622025375" lon="11.894740334730137"><ele>248.79999999999998</ele><time>2026-04-26T12:04:13.999Z</time></trkpt><trkpt lat="43.14551562793613" lon="11.894676155236485"><ele>249.0</ele><time>2026-04-26T12:04:16Z</time></trkpt><trkpt lat="43.14562614886867" lon="11.894610521093846"><ele>248.39999999999998</ele><time>2026-04-26T12:04:18Z</time></trkpt><trkpt lat="43.14574068958723" lon="11.894548348780585"><ele>247.79999999999998</ele><time>2026-04-26T12:04:20Z</time></trkpt><trkpt lat="43.14585488086797" lon="11.894481917293767"><ele>247.20000000000002</ele><time>2026-04-26T12:04:22Z</time></trkpt><trkpt lat="43.145912789926506" lon="11.894447156222622"><ele>246.60000000000002</ele><time>2026-04-26T12:04:23Z</time></trkpt><trkpt lat="43.14602053901296" lon="11.894387888091492"><ele>246.0</ele><time>2026-04-26T12:04:25Z</time></trkpt><trkpt lat="43.14612267777363" lon="11.894328790249741"><ele>246.0</ele><time>2026-04-26T12:04:27Z</time></trkpt><trkpt lat="43.14623055981706" lon="11.894266983401511"><ele>246.00000000000003</ele><time>2026-04-26T12:04:29Z</time></trkpt><trkpt lat="43.14634254312189" lon="11.894200286758743"><ele>246.00000000000003</ele><time>2026-04-26T12:04:31Z</time></trkpt><trkpt lat="43.14645813780551" lon="11.894131944892738"><ele>246.0</ele><time>2026-04-26T12:04:33Z</time></trkpt><trkpt lat="43.146518779255956" lon="11.894097284710677"><ele>246.0</ele><time>2026-04-26T12:04:34Z</time></trkpt><trkpt lat="43.14662787633569" lon="11.894034944060312"><ele>246.25</ele><time>2026-04-26T12:04:36Z</time></trkpt><trkpt lat="43.146737113993886" lon="11.893969150272522"><ele>246.5</ele><time>2026-04-26T12:04:38Z</time></trkpt><trkpt lat="43.146843139371384" lon="11.89390878526964"><ele>246.75</ele><time>2026-04-26T12:04:40Z</time></trkpt><trkpt lat="43.14695125340907" lon="11.893843628147382"><ele>247.0</ele><time>2026-04-26T12:04:42Z</time></trkpt><trkpt lat="43.147060586994165" lon="11.893780729294182"><ele>247.0</ele><time>2026-04-26T12:04:44Z</time></trkpt><trkpt lat="43.14717466519984" lon="11.893712804222247"><ele>247.0</ele><time>2026-04-26T12:04:46Z</time></trkpt><trkpt lat="43.14728743993792" lon="11.893643250714119"><ele>247.0</ele><time>2026-04-26T12:04:48Z</time></trkpt><trkpt lat="43.147401410894965" lon="11.893574870524901"><ele>247.0</ele><time>2026-04-26T12:04:50Z</time></trkpt><trkpt lat="43.14751468534768" lon="11.893504453614883"><ele>247.25</ele><time>2026-04-26T12:04:52Z</time></trkpt><trkpt lat="43.14762592296531" lon="11.893438122714365"><ele>247.5</ele><time>2026-04-26T12:04:54Z</time></trkpt><trkpt lat="43.14773078304465" lon="11.893376869301227"><ele>247.75</ele><time>2026-04-26T12:04:56Z</time></trkpt><trkpt lat="43.14783289827328" lon="11.893317615742557"><ele>248.0</ele><time>2026-04-26T12:04:58Z</time></trkpt><trkpt lat="43.14794165480308" lon="11.89325166767501"><ele>248.0</ele><time>2026-04-26T12:05:00Z</time></trkpt><trkpt lat="43.14805597504922" lon="11.893187140838283"><ele>248.0</ele><time>2026-04-26T12:05:02Z</time></trkpt><trkpt lat="43.148169869882544" lon="11.89312141384072"><ele>248.0</ele><time>2026-04-26T12:05:04Z</time></trkpt><trkpt lat="43.14827935066281" lon="11.893053661843652"><ele>248.0</ele><time>2026-04-26T12:05:06Z</time></trkpt><trkpt lat="43.14838265940035" lon="11.892994935182365"><ele>247.66666666666669</ele><time>2026-04-26T12:05:08Z</time></trkpt><trkpt lat="43.148494170064005" lon="11.89292981167866"><ele>247.33333333333334</ele><time>2026-04-26T12:05:10Z</time></trkpt><trkpt lat="43.14855376177242" lon="11.892894324942647"><ele>247.0</ele><time>2026-04-26T12:05:11Z</time></trkpt><trkpt lat="43.148669771016934" lon="11.892826800043629"><ele>246.66666666666669</ele><time>2026-04-26T12:05:13Z</time></trkpt><trkpt lat="43.14872793113391" lon="11.892791701919124"><ele>246.33333333333334</ele><time>2026-04-26T12:05:14Z</time></trkpt><trkpt lat="43.14878717878512" lon="11.892756512686777"><ele>246.0</ele><time>2026-04-26T12:05:15Z</time></trkpt><trkpt lat="43.148846257732494" lon="11.89271997773559"><ele>246.00000000000003</ele><time>2026-04-26T12:05:16Z</time></trkpt><trkpt lat="43.14890555699789" lon="11.892684381553886"><ele>246.0</ele><time>2026-04-26T12:05:17Z</time></trkpt><trkpt lat="43.148964999911996" lon="11.892646980791952"><ele>246.00000000000003</ele><time>2026-04-26T12:05:18Z</time></trkpt><trkpt lat="43.14902612939515" lon="11.892609562058492"><ele>246.00000000000003</ele><time>2026-04-26T12:05:19Z</time></trkpt><trkpt lat="43.14908756059595" lon="11.892570723093131"><ele>246.0</ele><time>2026-04-26T12:05:20Z</time></trkpt><trkpt lat="43.14914885123441" lon="11.892531095026861"><ele>246.00000000000003</ele><time>2026-04-26T12:05:21Z</time></trkpt><trkpt lat="43.14921087225889" lon="11.892492548307143"><ele>246.00000000000003</ele><time>2026-04-26T12:05:22Z</time></trkpt><trkpt lat="43.14927012532144" lon="11.892452800647265"><ele>246.14285714285717</ele><time>2026-04-26T12:05:23Z</time></trkpt><trkpt lat="43.149330748125884" lon="11.892415690530873"><ele>246.28571428571428</ele><time>2026-04-26T12:05:24Z</time></trkpt><trkpt lat="43.14939124451351" lon="11.892378445416274"><ele>246.42857142857144</ele><time>2026-04-26T12:05:25Z</time></trkpt><trkpt lat="43.14945272729256" lon="11.892342619221573"><ele>246.57142857142858</ele><time>2026-04-26T12:05:26Z</time></trkpt><trkpt lat="43.14951218595515" lon="11.892306891133167"><ele>246.71428571428572</ele><time>2026-04-26T12:05:27Z</time></trkpt><trkpt lat="43.14957211961073" lon="11.892269844770853"><ele>246.85714285714286</ele><time>2026-04-26T12:05:28Z</time></trkpt><trkpt lat="43.14963337316533" lon="11.892233972825212"><ele>247.0</ele><time>2026-04-26T12:05:29Z</time></trkpt><trkpt lat="43.14969463219252" lon="11.892194976376155"><ele>246.99999999999997</ele><time>2026-04-26T12:05:30Z</time></trkpt><trkpt lat="43.14975810756765" lon="11.892156094257112"><ele>247.0</ele><time>2026-04-26T12:05:31Z</time></trkpt><trkpt lat="43.149816792530935" lon="11.892120772090857"><ele>247.0</ele><time>2026-04-26T12:05:32Z</time></trkpt><trkpt lat="43.14987554785473" lon="11.892083052482402"><ele>247.0</ele><time>2026-04-26T12:05:33Z</time></trkpt><trkpt lat="43.14993609468799" lon="11.892046954592821"><ele>246.99999999999997</ele><time>2026-04-26T12:05:34Z</time></trkpt><trkpt lat="43.15004690520116" lon="11.891978563153513"><ele>247.0</ele><time>2026-04-26T12:05:36Z</time></trkpt><trkpt lat="43.150149832131156" lon="11.891916675799983"><ele>247.0</ele><time>2026-04-26T12:05:38Z</time></trkpt><trkpt lat="43.150246484286804" lon="11.891853754002005"><ele>247.0</ele><time>2026-04-26T12:05:39.999Z</time></trkpt><trkpt lat="43.15034627840256" lon="11.891795852886888"><ele>247.0</ele><time>2026-04-26T12:05:41.999Z</time></trkpt><trkpt lat="43.15044855539986" lon="11.891744860619688"><ele>247.0</ele><time>2026-04-26T12:05:43.999Z</time></trkpt><trkpt lat="43.15056072006458" lon="11.891688134379375"><ele>247.0</ele><time>2026-04-26T12:05:45.999Z</time></trkpt><trkpt lat="43.150623022458944" lon="11.891653343685235"><ele>247.28571428571428</ele><time>2026-04-26T12:05:46.999Z</time></trkpt><trkpt lat="43.15068176631819" lon="11.891618465197947"><ele>247.57142857142856</ele><time>2026-04-26T12:05:47.999Z</time></trkpt><trkpt lat="43.15076645146317" lon="11.891566008798462"><ele>247.85714285714283</ele><time>2026-04-26T12:05:49.999Z</time></trkpt><trkpt lat="43.15083387624469" lon="11.891537365348656"><ele>248.14285714285714</ele><time>2026-04-26T12:05:52.999Z</time></trkpt><trkpt lat="43.15089728901199" lon="11.891505069191476"><ele>248.4285714285714</ele><time>2026-04-26T12:05:56.999Z</time></trkpt><trkpt lat="43.150950641144476" lon="11.891424055973076"><ele>248.7142857142857</ele><time>2026-04-26T12:05:59.999Z</time></trkpt><trkpt lat="43.151021338802856" lon="11.89139129919256"><ele>249.0</ele><time>2026-04-26T12:06:01.999Z</time></trkpt><trkpt lat="43.151113826518916" lon="11.891353209103078"><ele>249.0</ele><time>2026-04-26T12:06:03.999Z</time></trkpt><trkpt lat="43.15121679812019" lon="11.891292141717765"><ele>248.99999999999997</ele><time>2026-04-26T12:06:05.999Z</time></trkpt><trkpt lat="43.15132103794323" lon="11.891228458505978"><ele>248.99999999999997</ele><time>2026-04-26T12:06:07.999Z</time></trkpt><trkpt lat="43.15141753483312" lon="11.891161142868304"><ele>249.0</ele><time>2026-04-26T12:06:09.999Z</time></trkpt><trkpt lat="43.15152039192442" lon="11.891094068949172"><ele>249.0</ele><time>2026-04-26T12:06:11.999Z</time></trkpt><trkpt lat="43.1516260726701" lon="11.891024961985691"><ele>249.0</ele><time>2026-04-26T12:06:13.999Z</time></trkpt><trkpt lat="43.151733251903885" lon="11.890954650823213"><ele>248.99999999999997</ele><time>2026-04-26T12:06:15.999Z</time></trkpt><trkpt lat="43.15179397465707" lon="11.890921164183757"><ele>249.0</ele><time>2026-04-26T12:06:16.999Z</time></trkpt><trkpt lat="43.15185244100453" lon="11.890885006715784"><ele>249.0</ele><time>2026-04-26T12:06:17.999Z</time></trkpt><trkpt lat="43.15191137720144" lon="11.89084897006393"><ele>248.99999999999997</ele><time>2026-04-26T12:06:18.999Z</time></trkpt><trkpt lat="43.1519725935621" lon="11.890812122575914"><ele>249.0</ele><time>2026-04-26T12:06:19.999Z</time></trkpt><trkpt lat="43.1520304305539" lon="11.89077580464914"><ele>249.0</ele><time>2026-04-26T12:06:20.999Z</time></trkpt><trkpt lat="43.152088948532125" lon="11.890738830762226"><ele>249.0</ele><time>2026-04-26T12:06:22Z</time></trkpt><trkpt lat="43.15214900649292" lon="11.890706227022054"><ele>248.99999999999997</ele><time>2026-04-26T12:06:23Z</time></trkpt><trkpt lat="43.152265323266484" lon="11.890633469079178"><ele>248.99999999999997</ele><time>2026-04-26T12:06:25Z</time></trkpt><trkpt lat="43.15232323825455" lon="11.890599193556683"><ele>249.0</ele><time>2026-04-26T12:06:26Z</time></trkpt><trkpt lat="43.15243003042755" lon="11.890530778648463"><ele>249.0</ele><time>2026-04-26T12:06:28Z</time></trkpt><trkpt lat="43.152535638066794" lon="11.890466878891592"><ele>248.25</ele><time>2026-04-26T12:06:30Z</time></trkpt><trkpt lat="43.152639396713894" lon="11.89040426907418"><ele>247.5</ele><time>2026-04-26T12:06:32Z</time></trkpt><trkpt lat="43.152749305395275" lon="11.890336441442122"><ele>246.75</ele><time>2026-04-26T12:06:34Z</time></trkpt><trkpt lat="43.15285877165037" lon="11.890267392132104"><ele>246.0</ele><time>2026-04-26T12:06:36Z</time></trkpt><trkpt lat="43.152967056215736" lon="11.890201316750373"><ele>246.0</ele><time>2026-04-26T12:06:38Z</time></trkpt><trkpt lat="43.15307172504688" lon="11.890135436849702"><ele>246.00000000000003</ele><time>2026-04-26T12:06:40Z</time></trkpt><trkpt lat="43.15317170963202" lon="11.890072930585294"><ele>246.00000000000003</ele><time>2026-04-26T12:06:42Z</time></trkpt><trkpt lat="43.15324769340254" lon="11.89002342910489"><ele>246.0</ele><time>2026-04-26T12:06:44Z</time></trkpt><trkpt lat="43.153316411532" lon="11.889983191073533"><ele>246.0</ele><time>2026-04-26T12:06:47Z</time></trkpt><trkpt lat="43.153381043423906" lon="11.889942255153661"><ele>246.16666666666666</ele><time>2026-04-26T12:06:50Z</time></trkpt><trkpt lat="43.15345205171359" lon="11.889896366082905"><ele>246.33333333333331</ele><time>2026-04-26T12:06:53Z</time></trkpt><trkpt lat="43.15351852608151" lon="11.88985384149008"><ele>246.5</ele><time>2026-04-26T12:06:55Z</time></trkpt><trkpt lat="43.15358915834589" lon="11.889811552616282"><ele>246.66666666666666</ele><time>2026-04-26T12:06:57Z</time></trkpt><trkpt lat="43.15366360160887" lon="11.88976577884748"><ele>246.83333333333331</ele><time>2026-04-26T12:06:59Z</time></trkpt><trkpt lat="43.153738028665046" lon="11.889722097864496"><ele>247.0</ele><time>2026-04-26T12:07:01Z</time></trkpt><trkpt lat="43.153821475962424" lon="11.889673739356883"><ele>247.0</ele><time>2026-04-26T12:07:03Z</time></trkpt><trkpt lat="43.153903390953374" lon="11.889620390952656"><ele>247.0</ele><time>2026-04-26T12:07:05Z</time></trkpt><trkpt lat="43.15399328772187" lon="11.889564808337726"><ele>247.0</ele><time>2026-04-26T12:07:07Z</time></trkpt><trkpt lat="43.15408352896818" lon="11.88950651074106"><ele>247.0</ele><time>2026-04-26T12:07:09Z</time></trkpt><trkpt lat="43.15417230617456" lon="11.889453689825917"><ele>247.0</ele><time>2026-04-26T12:07:11Z</time></trkpt><trkpt lat="43.15425970076771" lon="11.889401357240883"><ele>247.0</ele><time>2026-04-26T12:07:13Z</time></trkpt><trkpt lat="43.154355357346276" lon="11.889339297987238"><ele>247.0</ele><time>2026-04-26T12:07:15Z</time></trkpt><trkpt lat="43.15445784500286" lon="11.889275332748035"><ele>247.0</ele><time>2026-04-26T12:07:17Z</time></trkpt><trkpt lat="43.15456036690774" lon="11.889210249721069"><ele>247.0</ele><time>2026-04-26T12:07:19Z</time></trkpt><trkpt lat="43.15465696495549" lon="11.8891472781364"><ele>247.0</ele><time>2026-04-26T12:07:21Z</time></trkpt><trkpt lat="43.15476346727647" lon="11.889084933201097"><ele>247.0</ele><time>2026-04-26T12:07:23Z</time></trkpt><trkpt lat="43.15487122177944" lon="11.889020113757933"><ele>247.0</ele><time>2026-04-26T12:07:25Z</time></trkpt><trkpt lat="43.154980024103125" lon="11.888954461071336"><ele>247.0</ele><time>2026-04-26T12:07:27Z</time></trkpt><trkpt lat="43.15508723011395" lon="11.888887427366496"><ele>247.0</ele><time>2026-04-26T12:07:29Z</time></trkpt><trkpt lat="43.155198777012416" lon="11.888820541674441"><ele>247.0</ele><time>2026-04-26T12:07:31Z</time></trkpt><trkpt lat="43.15531019423772" lon="11.888753448178932"><ele>247.0</ele><time>2026-04-26T12:07:33Z</time></trkpt><trkpt lat="43.15536784643243" lon="11.888718662841919"><ele>247.0</ele><time>2026-04-26T12:07:34Z</time></trkpt><trkpt lat="43.15548053456119" lon="11.888651592909063"><ele>247.0</ele><time>2026-04-26T12:07:36Z</time></trkpt><trkpt lat="43.1555932556486" lon="11.888581593278769"><ele>247.0</ele><time>2026-04-26T12:07:38Z</time></trkpt><trkpt lat="43.15570864970755" lon="11.888509833685184"><ele>247.16666666666666</ele><time>2026-04-26T12:07:40Z</time></trkpt><trkpt lat="43.155823283069594" lon="11.888436806340751"><ele>247.33333333333331</ele><time>2026-04-26T12:07:42Z</time></trkpt><trkpt lat="43.15588310543022" lon="11.888401391294508"><ele>247.5</ele><time>2026-04-26T12:07:43Z</time></trkpt><trkpt lat="43.155942160965346" lon="11.888361908681588"><ele>247.66666666666669</ele><time>2026-04-26T12:07:44Z</time></trkpt><trkpt lat="43.1560020983544" lon="11.888324022764616"><ele>247.83333333333334</ele><time>2026-04-26T12:07:45Z</time></trkpt><trkpt lat="43.15606107131931" lon="11.88828531514659"><ele>248.0</ele><time>2026-04-26T12:07:46Z</time></trkpt><trkpt lat="43.15612188996784" lon="11.888248160227414"><ele>247.66666666666669</ele><time>2026-04-26T12:07:47Z</time></trkpt><trkpt lat="43.15618268472889" lon="11.888212734453852"><ele>247.33333333333334</ele><time>2026-04-26T12:07:48Z</time></trkpt><trkpt lat="43.156242939824374" lon="11.888173546281418"><ele>247.0</ele><time>2026-04-26T12:07:49Z</time></trkpt><trkpt lat="43.15630255129362" lon="11.88813672660654"><ele>246.66666666666669</ele><time>2026-04-26T12:07:50Z</time></trkpt><trkpt lat="43.156412574343314" lon="11.888066020536378"><ele>246.33333333333334</ele><time>2026-04-26T12:07:51.999Z</time></trkpt><trkpt lat="43.15652415797455" lon="11.8879976876048"><ele>246.0</ele><time>2026-04-26T12:07:53.999Z</time></trkpt><trkpt lat="43.15663712706423" lon="11.887924831928041"><ele>246.0</ele><time>2026-04-26T12:07:55.999Z</time></trkpt><trkpt lat="43.156698369387236" lon="11.887885166375094"><ele>246.0</ele><time>2026-04-26T12:07:56.999Z</time></trkpt><trkpt lat="43.156757014186304" lon="11.887847444216483"><ele>246.0</ele><time>2026-04-26T12:07:57.999Z</time></trkpt><trkpt lat="43.15681757935623" lon="11.887811656662187"><ele>246.0</ele><time>2026-04-26T12:07:58.999Z</time></trkpt><trkpt lat="43.15693296947659" lon="11.88773516806647"><ele>246.0</ele><time>2026-04-26T12:08:00.999Z</time></trkpt><trkpt lat="43.15699231146558" lon="11.88769525693018"><ele>246.0</ele><time>2026-04-26T12:08:01.999Z</time></trkpt><trkpt lat="43.15705539869736" lon="11.887655677818305"><ele>246.00000000000003</ele><time>2026-04-26T12:08:02.999Z</time></trkpt><trkpt lat="43.15711760132653" lon="11.887619632658275"><ele>246.0</ele><time>2026-04-26T12:08:03.999Z</time></trkpt><trkpt lat="43.15717762938604" lon="11.887580496461132"><ele>246.00000000000003</ele><time>2026-04-26T12:08:04.999Z</time></trkpt><trkpt lat="43.157238075637544" lon="11.887540306274634"><ele>246.00000000000003</ele><time>2026-04-26T12:08:05.999Z</time></trkpt><trkpt lat="43.15729738380865" lon="11.887501737923797"><ele>246.0</ele><time>2026-04-26T12:08:06.999Z</time></trkpt><trkpt lat="43.157358366310646" lon="11.88746461286282"><ele>246.00000000000003</ele><time>2026-04-26T12:08:07.999Z</time></trkpt><trkpt lat="43.15741782967745" lon="11.88742424433733"><ele>246.00000000000003</ele><time>2026-04-26T12:08:08.999Z</time></trkpt><trkpt lat="43.15748015757825" lon="11.887383118681276"><ele>246.28571428571433</ele><time>2026-04-26T12:08:09.999Z</time></trkpt><trkpt lat="43.15754054039302" lon="11.887343179551173"><ele>246.57142857142858</ele><time>2026-04-26T12:08:10.999Z</time></trkpt><trkpt lat="43.157599604769956" lon="11.88730370026368"><ele>246.8571428571429</ele><time>2026-04-26T12:08:11.999Z</time></trkpt><trkpt lat="43.15766158081239" lon="11.887260287500963"><ele>247.14285714285717</ele><time>2026-04-26T12:08:12.999Z</time></trkpt><trkpt lat="43.15772253131839" lon="11.887217322776873"><ele>247.42857142857144</ele><time>2026-04-26T12:08:13.999Z</time></trkpt><trkpt lat="43.15778698876736" lon="11.887174409660371"><ele>247.71428571428572</ele><time>2026-04-26T12:08:14.999Z</time></trkpt><trkpt lat="43.15784716248758" lon="11.887135676999845"><ele>248.0</ele><time>2026-04-26T12:08:15.999Z</time></trkpt><trkpt lat="43.15791003801995" lon="11.887095270492907"><ele>248.0</ele><time>2026-04-26T12:08:16.999Z</time></trkpt><trkpt lat="43.15797046947077" lon="11.887053539755662"><ele>248.00000000000003</ele><time>2026-04-26T12:08:17.999Z</time></trkpt><trkpt lat="43.15803036781146" lon="11.887009836523637"><ele>248.0</ele><time>2026-04-26T12:08:18.999Z</time></trkpt><trkpt lat="43.1580902442762" lon="11.886967781356566"><ele>248.0</ele><time>2026-04-26T12:08:19.999Z</time></trkpt><trkpt lat="43.15815258432486" lon="11.88692240085619"><ele>248.00000000000003</ele><time>2026-04-26T12:08:20.999Z</time></trkpt><trkpt lat="43.15821672345321" lon="11.88687625968764"><ele>248.0</ele><time>2026-04-26T12:08:21.999Z</time></trkpt><trkpt lat="43.15827681712923" lon="11.88682806982446"><ele>248.0</ele><time>2026-04-26T12:08:22.999Z</time></trkpt><trkpt lat="43.1583399155499" lon="11.886778439442262"><ele>248.0</ele><time>2026-04-26T12:08:23.999Z</time></trkpt><trkpt lat="43.158400125327276" lon="11.886725637916841"><ele>248.00000000000003</ele><time>2026-04-26T12:08:24.999Z</time></trkpt><trkpt lat="43.15846164292948" lon="11.88667010063125"><ele>248.0</ele><time>2026-04-26T12:08:25.999Z</time></trkpt><trkpt lat="43.15851922184003" lon="11.886613077325391"><ele>248.0</ele><time>2026-04-26T12:08:26.999Z</time></trkpt><trkpt lat="43.15857471877945" lon="11.886555741072607"><ele>248.00000000000003</ele><time>2026-04-26T12:08:28Z</time></trkpt><trkpt lat="43.15863032184117" lon="11.886496984455942"><ele>248.0</ele><time>2026-04-26T12:08:29Z</time></trkpt><trkpt lat="43.158686333567" lon="11.88643518678517"><ele>248.0</ele><time>2026-04-26T12:08:30Z</time></trkpt><trkpt lat="43.158740041218586" lon="11.886374718196286"><ele>248.0</ele><time>2026-04-26T12:08:31Z</time></trkpt><trkpt lat="43.158789934355504" lon="11.88631570865543"><ele>248.00000000000003</ele><time>2026-04-26T12:08:32Z</time></trkpt><trkpt lat="43.158843855143765" lon="11.886256817416115"><ele>248.0</ele><time>2026-04-26T12:08:33Z</time></trkpt><trkpt lat="43.1588961455599" lon="11.886198360604622"><ele>248.0</ele><time>2026-04-26T12:08:34Z</time></trkpt><trkpt lat="43.15895073144293" lon="11.886140707983893"><ele>248.00000000000003</ele><time>2026-04-26T12:08:35Z</time></trkpt><trkpt lat="43.158999819127224" lon="11.88608204730944"><ele>248.0</ele><time>2026-04-26T12:08:36Z</time></trkpt><trkpt lat="43.15905077329431" lon="11.886023318535987"><ele>248.0</ele><time>2026-04-26T12:08:37Z</time></trkpt><trkpt lat="43.15910126836491" lon="11.8859625770929"><ele>248.0</ele><time>2026-04-26T12:08:38Z</time></trkpt><trkpt lat="43.1591514539973" lon="11.885898571795044"><ele>248.00000000000003</ele><time>2026-04-26T12:08:39Z</time></trkpt><trkpt lat="43.159201963960044" lon="11.885839434792079"><ele>248.0</ele><time>2026-04-26T12:08:40Z</time></trkpt><trkpt lat="43.15924996504263" lon="11.885778907346122"><ele>248.0</ele><time>2026-04-26T12:08:41Z</time></trkpt><trkpt lat="43.15930159145336" lon="11.885717140442198"><ele>248.00000000000003</ele><time>2026-04-26T12:08:42Z</time></trkpt><trkpt lat="43.15935186188145" lon="11.885653483836727"><ele>248.0</ele><time>2026-04-26T12:08:43Z</time></trkpt><trkpt lat="43.15940242443707" lon="11.885594737832971"><ele>248.0</ele><time>2026-04-26T12:08:44Z</time></trkpt><trkpt lat="43.15945342109903" lon="11.885529966117987"><ele>248.0</ele><time>2026-04-26T12:08:45Z</time></trkpt><trkpt lat="43.15950464304865" lon="11.885465033679068"><ele>248.00000000000003</ele><time>2026-04-26T12:08:46Z</time></trkpt><trkpt lat="43.159554935348986" lon="11.885403449821549"><ele>248.0</ele><time>2026-04-26T12:08:47Z</time></trkpt><trkpt lat="43.15960414618726" lon="11.885341292592127"><ele>248.0</ele><time>2026-04-26T12:08:48Z</time></trkpt><trkpt lat="43.15965129825042" lon="11.885281684879036"><ele>248.00000000000003</ele><time>2026-04-26T12:08:49Z</time></trkpt><trkpt lat="43.159702997770786" lon="11.88522242928958"><ele>248.0</ele><time>2026-04-26T12:08:50Z</time></trkpt><trkpt lat="43.159751494857254" lon="11.885162119135169"><ele>248.0</ele><time>2026-04-26T12:08:51Z</time></trkpt><trkpt lat="43.15980095030517" lon="11.885099482715512"><ele>247.85714285714286</ele><time>2026-04-26T12:08:52Z</time></trkpt><trkpt lat="43.159845893946546" lon="11.885033698479038"><ele>247.71428571428572</ele><time>2026-04-26T12:08:53Z</time></trkpt><trkpt lat="43.15988799492548" lon="11.884967719341596"><ele>247.57142857142858</ele><time>2026-04-26T12:08:54Z</time></trkpt><trkpt lat="43.159929613844575" lon="11.884899530657242"><ele>247.42857142857144</ele><time>2026-04-26T12:08:55Z</time></trkpt><trkpt lat="43.15997409225948" lon="11.8848359443741"><ele>247.28571428571428</ele><time>2026-04-26T12:08:56Z</time></trkpt><trkpt lat="43.160015159620535" lon="11.884769441660605"><ele>247.14285714285717</ele><time>2026-04-26T12:08:57Z</time></trkpt><trkpt lat="43.16006034929838" lon="11.884700500564156"><ele>247.0</ele><time>2026-04-26T12:08:58Z</time></trkpt><trkpt lat="43.160099810586004" lon="11.8846300253611"><ele>246.99999999999997</ele><time>2026-04-26T12:08:59Z</time></trkpt><trkpt lat="43.16017639296125" lon="11.884491660207269"><ele>247.0</ele><time>2026-04-26T12:09:01Z</time></trkpt><trkpt lat="43.16021853558322" lon="11.884413260918915"><ele>247.0</ele><time>2026-04-26T12:09:02Z</time></trkpt><trkpt lat="43.16025942032767" lon="11.884337045570998"><ele>247.0</ele><time>2026-04-26T12:09:03Z</time></trkpt><trkpt lat="43.16029888172509" lon="11.884265555239775"><ele>246.99999999999997</ele><time>2026-04-26T12:09:04Z</time></trkpt><trkpt lat="43.160336449265195" lon="11.88418735516296"><ele>247.0</ele><time>2026-04-26T12:09:05Z</time></trkpt><trkpt lat="43.16037705193082" lon="11.884117336679479"><ele>246.83333333333331</ele><time>2026-04-26T12:09:06Z</time></trkpt><trkpt lat="43.16045224100462" lon="11.88397628818289"><ele>246.66666666666666</ele><time>2026-04-26T12:09:08Z</time></trkpt><trkpt lat="43.16049062417072" lon="11.883906582632312"><ele>246.5</ele><time>2026-04-26T12:09:09Z</time></trkpt><trkpt lat="43.16052800345737" lon="11.883836980599375"><ele>246.33333333333331</ele><time>2026-04-26T12:09:10Z</time></trkpt><trkpt lat="43.160566556046625" lon="11.883765527404307"><ele>246.16666666666666</ele><time>2026-04-26T12:09:11Z</time></trkpt><trkpt lat="43.1606060589803" lon="11.88369190643273"><ele>246.0</ele><time>2026-04-26T12:09:12Z</time></trkpt><trkpt lat="43.16064621406386" lon="11.883618453872408"><ele>246.0</ele><time>2026-04-26T12:09:13Z</time></trkpt><trkpt lat="43.16068360744235" lon="11.883548179100623"><ele>246.0</ele><time>2026-04-26T12:09:14Z</time></trkpt><trkpt lat="43.160723001938464" lon="11.883474306680656"><ele>246.0</ele><time>2026-04-26T12:09:15Z</time></trkpt><trkpt lat="43.16076299684711" lon="11.88340110219924"><ele>246.0</ele><time>2026-04-26T12:09:16Z</time></trkpt><trkpt lat="43.160837636241354" lon="11.883255567790039"><ele>246.0</ele><time>2026-04-26T12:09:18Z</time></trkpt><trkpt lat="43.16087744661427" lon="11.883182052028237"><ele>246.0</ele><time>2026-04-26T12:09:19Z</time></trkpt><trkpt lat="43.160952133071" lon="11.883039857318556"><ele>246.33333333333334</ele><time>2026-04-26T12:09:21Z</time></trkpt><trkpt lat="43.16102367854409" lon="11.88290025450547"><ele>246.66666666666669</ele><time>2026-04-26T12:09:23Z</time></trkpt><trkpt lat="43.16106339616315" lon="11.882826429106105"><ele>247.0</ele><time>2026-04-26T12:09:24Z</time></trkpt><trkpt lat="43.16113528107665" lon="11.882690883756856"><ele>247.33333333333334</ele><time>2026-04-26T12:09:26Z</time></trkpt><trkpt lat="43.16117149012129" lon="11.882617993424343"><ele>247.66666666666669</ele><time>2026-04-26T12:09:27Z</time></trkpt><trkpt lat="43.16121069000006" lon="11.882545781923545"><ele>248.0</ele><time>2026-04-26T12:09:28Z</time></trkpt><trkpt lat="43.16124573937701" lon="11.882472615282445"><ele>248.0</ele><time>2026-04-26T12:09:29Z</time></trkpt><trkpt lat="43.16128557958192" lon="11.882403325159544"><ele>248.00000000000003</ele><time>2026-04-26T12:09:30Z</time></trkpt><trkpt lat="43.16132289749433" lon="11.88233317813903"><ele>248.0</ele><time>2026-04-26T12:09:31Z</time></trkpt><trkpt lat="43.161362034351924" lon="11.882260046497525"><ele>248.0</ele><time>2026-04-26T12:09:32Z</time></trkpt><trkpt lat="43.16139945118786" lon="11.882184859257631"><ele>248.00000000000003</ele><time>2026-04-26T12:09:33Z</time></trkpt><trkpt lat="43.16143798791522" lon="11.882110272202699"><ele>248.0</ele><time>2026-04-26T12:09:34Z</time></trkpt><trkpt lat="43.16147786647408" lon="11.882034997380202"><ele>248.0</ele><time>2026-04-26T12:09:35Z</time></trkpt><trkpt lat="43.16151624522815" lon="11.881959697620225"><ele>248.0</ele><time>2026-04-26T12:09:36Z</time></trkpt><trkpt lat="43.16155804641683" lon="11.881881765880566"><ele>248.00000000000003</ele><time>2026-04-26T12:09:37Z</time></trkpt><trkpt lat="43.16159588084468" lon="11.881805996407406"><ele>248.0</ele><time>2026-04-26T12:09:38Z</time></trkpt><trkpt lat="43.161638776886" lon="11.881730555124282"><ele>248.0</ele><time>2026-04-26T12:09:39Z</time></trkpt><trkpt lat="43.161680301150646" lon="11.881655521721447"><ele>248.00000000000003</ele><time>2026-04-26T12:09:40Z</time></trkpt><trkpt lat="43.16172438854599" lon="11.881578698751603"><ele>248.0</ele><time>2026-04-26T12:09:41Z</time></trkpt><trkpt lat="43.16176851845085" lon="11.881505709025594"><ele>248.0</ele><time>2026-04-26T12:09:42Z</time></trkpt><trkpt lat="43.161812700332966" lon="11.88143859801773"><ele>247.83333333333334</ele><time>2026-04-26T12:09:43Z</time></trkpt><trkpt lat="43.161857135786406" lon="11.88137115950976"><ele>247.66666666666669</ele><time>2026-04-26T12:09:44Z</time></trkpt><trkpt lat="43.161902611407506" lon="11.881310494959422"><ele>247.5</ele><time>2026-04-26T12:09:45Z</time></trkpt><trkpt lat="43.16199327763237" lon="11.881190904363908"><ele>247.33333333333331</ele><time>2026-04-26T12:09:47Z</time></trkpt><trkpt lat="43.162039314062746" lon="11.881127969776982"><ele>247.16666666666666</ele><time>2026-04-26T12:09:48Z</time></trkpt><trkpt lat="43.16208804731828" lon="11.881065689242485"><ele>247.0</ele><time>2026-04-26T12:09:49Z</time></trkpt><trkpt lat="43.16213701893985" lon="11.88100349834002"><ele>247.0</ele><time>2026-04-26T12:09:50Z</time></trkpt><trkpt lat="43.16218762658842" lon="11.880940400393584"><ele>247.0</ele><time>2026-04-26T12:09:51Z</time></trkpt><trkpt lat="43.1622405803134" lon="11.880879100427363"><ele>247.0</ele><time>2026-04-26T12:09:52Z</time></trkpt><trkpt lat="43.162291226818006" lon="11.88081967068206"><ele>247.0</ele><time>2026-04-26T12:09:53Z</time></trkpt><trkpt lat="43.162384865529305" lon="11.880708389809321"><ele>247.0</ele><time>2026-04-26T12:09:55Z</time></trkpt><trkpt lat="43.16248377677975" lon="11.880602034607072"><ele>247.0</ele><time>2026-04-26T12:09:57Z</time></trkpt><trkpt lat="43.162532957473765" lon="11.880547227862476"><ele>247.0</ele><time>2026-04-26T12:09:58Z</time></trkpt><trkpt lat="43.16258121747867" lon="11.880491007884357"><ele>247.0</ele><time>2026-04-26T12:09:59Z</time></trkpt><trkpt lat="43.16263906890891" lon="11.880438687923343"><ele>247.0</ele><time>2026-04-26T12:10:00Z</time></trkpt><trkpt lat="43.16269535348076" lon="11.880387064903193"><ele>247.0</ele><time>2026-04-26T12:10:01Z</time></trkpt><trkpt lat="43.162754839557344" lon="11.880335069388906"><ele>247.0</ele><time>2026-04-26T12:10:02Z</time></trkpt><trkpt lat="43.16281368498052" lon="11.880288368179814"><ele>247.0</ele><time>2026-04-26T12:10:02.999Z</time></trkpt><trkpt lat="43.162868262812914" lon="11.880240245970352"><ele>246.99999999999997</ele><time>2026-04-26T12:10:03.999Z</time></trkpt><trkpt lat="43.1629250111795" lon="11.88019244354063"><ele>247.0</ele><time>2026-04-26T12:10:04.999Z</time></trkpt><trkpt lat="43.16303146434558" lon="11.880101188710608"><ele>247.0</ele><time>2026-04-26T12:10:06.999Z</time></trkpt><trkpt lat="43.16309228089761" lon="11.88004809016951"><ele>247.0</ele><time>2026-04-26T12:10:07.999Z</time></trkpt><trkpt lat="43.163151745260045" lon="11.879995672748715"><ele>246.99999999999997</ele><time>2026-04-26T12:10:08.999Z</time></trkpt><trkpt lat="43.163213481519655" lon="11.879944596703973"><ele>247.0</ele><time>2026-04-26T12:10:09.999Z</time></trkpt><trkpt lat="43.16327265073318" lon="11.879891962435295"><ele>246.66666666666666</ele><time>2026-04-26T12:10:10.999Z</time></trkpt><trkpt lat="43.16333378339732" lon="11.879837005162237"><ele>246.33333333333331</ele><time>2026-04-26T12:10:11.999Z</time></trkpt><trkpt lat="43.163392442785586" lon="11.8797858932576"><ele>246.0</ele><time>2026-04-26T12:10:12.999Z</time></trkpt><trkpt lat="43.163450538039385" lon="11.87973353671142"><ele>245.66666666666669</ele><time>2026-04-26T12:10:13.999Z</time></trkpt><trkpt lat="43.1635056069251" lon="11.879684736073072"><ele>245.33333333333334</ele><time>2026-04-26T12:10:14.999Z</time></trkpt><trkpt lat="43.16361244839832" lon="11.879596895515437"><ele>245.0</ele><time>2026-04-26T12:10:16.999Z</time></trkpt><trkpt lat="43.163669632176635" lon="11.879547408176954"><ele>245.0</ele><time>2026-04-26T12:10:17.999Z</time></trkpt><trkpt lat="43.16372730171846" lon="11.879496651491953"><ele>245.0</ele><time>2026-04-26T12:10:18.999Z</time></trkpt><trkpt lat="43.163786309973865" lon="11.879446488923797"><ele>245.0</ele><time>2026-04-26T12:10:19.999Z</time></trkpt><trkpt lat="43.16384232073061" lon="11.879398846249963"><ele>245.0</ele><time>2026-04-26T12:10:20.999Z</time></trkpt><trkpt lat="43.16390064854018" lon="11.879347825391344"><ele>245.0</ele><time>2026-04-26T12:10:21.999Z</time></trkpt><trkpt lat="43.163958756501174" lon="11.879298027532302"><ele>245.0</ele><time>2026-04-26T12:10:22.999Z</time></trkpt><trkpt lat="43.164015606083034" lon="11.879248460927432"><ele>245.0</ele><time>2026-04-26T12:10:23.999Z</time></trkpt><trkpt lat="43.16407252230975" lon="11.879200088842863"><ele>245.28571428571428</ele><time>2026-04-26T12:10:24.999Z</time></trkpt><trkpt lat="43.16412989512195" lon="11.879150039254576"><ele>245.57142857142856</ele><time>2026-04-26T12:10:25.999Z</time></trkpt><trkpt lat="43.16418925115082" lon="11.879099041355323"><ele>245.85714285714286</ele><time>2026-04-26T12:10:26.999Z</time></trkpt><trkpt lat="43.164246371848215" lon="11.879046405032717"><ele>246.14285714285714</ele><time>2026-04-26T12:10:27.999Z</time></trkpt><trkpt lat="43.16430753937945" lon="11.878992051201424"><ele>246.42857142857142</ele><time>2026-04-26T12:10:28.999Z</time></trkpt><trkpt lat="43.164368576660614" lon="11.878934698936085"><ele>246.71428571428572</ele><time>2026-04-26T12:10:29.999Z</time></trkpt><trkpt lat="43.16442827186249" lon="11.878879053376933"><ele>247.0</ele><time>2026-04-26T12:10:30.999Z</time></trkpt><trkpt lat="43.1644868723542" lon="11.878820844131912"><ele>247.0</ele><time>2026-04-26T12:10:31.999Z</time></trkpt><trkpt lat="43.16454345244632" lon="11.878759694120657"><ele>247.0</ele><time>2026-04-26T12:10:32.999Z</time></trkpt><trkpt lat="43.16460277092039" lon="11.878702809637659"><ele>247.0</ele><time>2026-04-26T12:10:34Z</time></trkpt><trkpt lat="43.1646598378816" lon="11.878643035186057"><ele>247.0</ele><time>2026-04-26T12:10:35Z</time></trkpt><trkpt lat="43.16471476797478" lon="11.878585086378015"><ele>247.0</ele><time>2026-04-26T12:10:36Z</time></trkpt><trkpt lat="43.164768497512576" lon="11.878524736199452"><ele>247.0</ele><time>2026-04-26T12:10:37Z</time></trkpt><trkpt lat="43.16482646920269" lon="11.878464312419279"><ele>247.0</ele><time>2026-04-26T12:10:38Z</time></trkpt><trkpt lat="43.16488031606674" lon="11.878406957022575"><ele>247.0</ele><time>2026-04-26T12:10:39Z</time></trkpt><trkpt lat="43.16493281862898" lon="11.87834959805031"><ele>247.0</ele><time>2026-04-26T12:10:40Z</time></trkpt><trkpt lat="43.164986915916074" lon="11.878296641636714"><ele>247.0</ele><time>2026-04-26T12:10:41Z</time></trkpt><trkpt lat="43.16504047426663" lon="11.878239813378972"><ele>247.0</ele><time>2026-04-26T12:10:42Z</time></trkpt><trkpt lat="43.16509206883458" lon="11.878187636070427"><ele>247.0</ele><time>2026-04-26T12:10:43Z</time></trkpt><trkpt lat="43.16514313306005" lon="11.878132925119974"><ele>247.0</ele><time>2026-04-26T12:10:44Z</time></trkpt><trkpt lat="43.165197653353644" lon="11.878072974017357"><ele>247.0</ele><time>2026-04-26T12:10:45Z</time></trkpt><trkpt lat="43.165252729982875" lon="11.878013527474838"><ele>247.0</ele><time>2026-04-26T12:10:46Z</time></trkpt><trkpt lat="43.16530619248765" lon="11.877954359622406"><ele>247.0</ele><time>2026-04-26T12:10:47Z</time></trkpt><trkpt lat="43.16535975959762" lon="11.877895643115846"><ele>247.0</ele><time>2026-04-26T12:10:48Z</time></trkpt><trkpt lat="43.165413005621886" lon="11.877840626628258"><ele>247.0</ele><time>2026-04-26T12:10:49Z</time></trkpt><trkpt lat="43.165464655099875" lon="11.877786848918634"><ele>247.0</ele><time>2026-04-26T12:10:50Z</time></trkpt><trkpt lat="43.165515857973546" lon="11.877727967694936"><ele>247.0</ele><time>2026-04-26T12:10:51Z</time></trkpt><trkpt lat="43.16556375463868" lon="11.877666909093984"><ele>247.0</ele><time>2026-04-26T12:10:52Z</time></trkpt><trkpt lat="43.165612201361334" lon="11.877603425126745"><ele>247.0</ele><time>2026-04-26T12:10:53Z</time></trkpt><trkpt lat="43.165658483472704" lon="11.877533989015049"><ele>247.0</ele><time>2026-04-26T12:10:54Z</time></trkpt><trkpt lat="43.16570379218706" lon="11.877457064110686"><ele>247.0</ele><time>2026-04-26T12:10:55Z</time></trkpt><trkpt lat="43.16574874436427" lon="11.877378650733512"><ele>247.0</ele><time>2026-04-26T12:10:56Z</time></trkpt><trkpt lat="43.16579234176816" lon="11.877299963616844"><ele>247.0</ele><time>2026-04-26T12:10:57Z</time></trkpt><trkpt lat="43.16583467733789" lon="11.877226114690087"><ele>247.0</ele><time>2026-04-26T12:10:58Z</time></trkpt><trkpt lat="43.16587685372432" lon="11.877149182322205"><ele>247.0</ele><time>2026-04-26T12:10:59Z</time></trkpt><trkpt lat="43.16591788643754" lon="11.87707629112245"><ele>246.99999999999997</ele><time>2026-04-26T12:11:00Z</time></trkpt><trkpt lat="43.165957538064475" lon="11.877003325065743"><ele>247.0</ele><time>2026-04-26T12:11:01Z</time></trkpt><trkpt lat="43.1659978654411" lon="11.876931232375364"><ele>247.0</ele><time>2026-04-26T12:11:02Z</time></trkpt><trkpt lat="43.16603741618953" lon="11.876855322497438"><ele>247.0</ele><time>2026-04-26T12:11:03Z</time></trkpt><trkpt lat="43.1660773671589" lon="11.876783740016595"><ele>246.99999999999997</ele><time>2026-04-26T12:11:04Z</time></trkpt><trkpt lat="43.16612092020222" lon="11.876705630980833"><ele>247.0</ele><time>2026-04-26T12:11:05Z</time></trkpt><trkpt lat="43.16619726180919" lon="11.87656425407412"><ele>246.83333333333331</ele><time>2026-04-26T12:11:07Z</time></trkpt><trkpt lat="43.166236383313006" lon="11.876490634935365"><ele>246.66666666666666</ele><time>2026-04-26T12:11:08Z</time></trkpt><trkpt lat="43.166275848313234" lon="11.876420759208862"><ele>246.5</ele><time>2026-04-26T12:11:09Z</time></trkpt><trkpt lat="43.16635141546607" lon="11.876278732081014"><ele>246.33333333333331</ele><time>2026-04-26T12:11:11Z</time></trkpt><trkpt lat="43.16639358262866" lon="11.876205380339133"><ele>246.16666666666666</ele><time>2026-04-26T12:11:12Z</time></trkpt><trkpt lat="43.166432885854256" lon="11.876132807056297"><ele>246.0</ele><time>2026-04-26T12:11:13Z</time></trkpt><trkpt lat="43.16647367219809" lon="11.876055646217596"><ele>246.00000000000003</ele><time>2026-04-26T12:11:14Z</time></trkpt><trkpt lat="43.16651568097799" lon="11.875980379441975"><ele>246.0</ele><time>2026-04-26T12:11:15Z</time></trkpt><trkpt lat="43.16655414159683" lon="11.875907804947209"><ele>246.00000000000003</ele><time>2026-04-26T12:11:16Z</time></trkpt><trkpt lat="43.16659621994067" lon="11.875833895480447"><ele>246.00000000000003</ele><time>2026-04-26T12:11:17Z</time></trkpt><trkpt lat="43.16663396379019" lon="11.875761260784499"><ele>246.0</ele><time>2026-04-26T12:11:18Z</time></trkpt><trkpt lat="43.16667422764601" lon="11.875689673526312"><ele>246.00000000000003</ele><time>2026-04-26T12:11:19Z</time></trkpt><trkpt lat="43.16671480213283" lon="11.875613468509531"><ele>246.00000000000003</ele><time>2026-04-26T12:11:20Z</time></trkpt><trkpt lat="43.16675912795785" lon="11.875539594218857"><ele>246.0</ele><time>2026-04-26T12:11:21Z</time></trkpt><trkpt lat="43.16679636658071" lon="11.875468333889328"><ele>246.0</ele><time>2026-04-26T12:11:22Z</time></trkpt><trkpt lat="43.16683593722584" lon="11.875392412596716"><ele>246.0</ele><time>2026-04-26T12:11:23Z</time></trkpt><trkpt lat="43.166880818723165" lon="11.875313765006036"><ele>246.0</ele><time>2026-04-26T12:11:24Z</time></trkpt><trkpt lat="43.16692179700689" lon="11.8752408537174"><ele>246.0</ele><time>2026-04-26T12:11:25Z</time></trkpt><trkpt lat="43.16696579905143" lon="11.87516444062978"><ele>246.0</ele><time>2026-04-26T12:11:26Z</time></trkpt><trkpt lat="43.16704393852456" lon="11.875027386650384"><ele>246.14285714285717</ele><time>2026-04-26T12:11:28Z</time></trkpt><trkpt lat="43.16708833612359" lon="11.874959908243857"><ele>246.28571428571428</ele><time>2026-04-26T12:11:29Z</time></trkpt><trkpt lat="43.16713224137766" lon="11.874893922546836"><ele>246.42857142857144</ele><time>2026-04-26T12:11:30Z</time></trkpt><trkpt lat="43.167179851293675" lon="11.874831861983665"><ele>246.57142857142858</ele><time>2026-04-26T12:11:31Z</time></trkpt><trkpt lat="43.167226337094235" lon="11.874772159367357"><ele>246.71428571428572</ele><time>2026-04-26T12:11:32Z</time></trkpt><trkpt lat="43.167279050606616" lon="11.87471499037747"><ele>246.85714285714286</ele><time>2026-04-26T12:11:33Z</time></trkpt><trkpt lat="43.167333170132665" lon="11.874657172259006"><ele>247.0</ele><time>2026-04-26T12:11:34Z</time></trkpt><trkpt lat="43.1674380667052" lon="11.874547407643636"><ele>247.0</ele><time>2026-04-26T12:11:36Z</time></trkpt><trkpt lat="43.1674960868038" lon="11.874491991068483"><ele>247.0</ele><time>2026-04-26T12:11:37Z</time></trkpt><trkpt lat="43.167551713716186" lon="11.874438421344308"><ele>247.0</ele><time>2026-04-26T12:11:38Z</time></trkpt><trkpt lat="43.167607072966696" lon="11.87438335868241"><ele>247.0</ele><time>2026-04-26T12:11:39Z</time></trkpt><trkpt lat="43.16766145841962" lon="11.874330091491244"><ele>247.0</ele><time>2026-04-26T12:11:40Z</time></trkpt><trkpt lat="43.1677174267768" lon="11.874277281749107"><ele>247.0</ele><time>2026-04-26T12:11:41Z</time></trkpt><trkpt lat="43.16777422800566" lon="11.874224774501537"><ele>247.0</ele><time>2026-04-26T12:11:42Z</time></trkpt><trkpt lat="43.167829338022685" lon="11.874171428784797"><ele>246.99999999999997</ele><time>2026-04-26T12:11:43Z</time></trkpt><trkpt lat="43.16788595251404" lon="11.874118109105048"><ele>247.0</ele><time>2026-04-26T12:11:44Z</time></trkpt><trkpt lat="43.1679366240724" lon="11.874064282269076"><ele>247.0</ele><time>2026-04-26T12:11:45Z</time></trkpt><trkpt lat="43.16798950480218" lon="11.87401184659984"><ele>247.0</ele><time>2026-04-26T12:11:46Z</time></trkpt><trkpt lat="43.168090355334165" lon="11.87391064045926"><ele>246.99999999999997</ele><time>2026-04-26T12:11:48Z</time></trkpt><trkpt lat="43.16814253934126" lon="11.873862022940001"><ele>247.0</ele><time>2026-04-26T12:11:49Z</time></trkpt><trkpt lat="43.168243818803894" lon="11.873760652550242"><ele>247.14285714285717</ele><time>2026-04-26T12:11:51Z</time></trkpt><trkpt lat="43.168297905094406" lon="11.873708932586624"><ele>247.28571428571428</ele><time>2026-04-26T12:11:52Z</time></trkpt><trkpt lat="43.1683513744215" lon="11.873657882664588"><ele>247.42857142857144</ele><time>2026-04-26T12:11:53Z</time></trkpt><trkpt lat="43.168403924909946" lon="11.873606149935135"><ele>247.57142857142858</ele><time>2026-04-26T12:11:54Z</time></trkpt><trkpt lat="43.16845855856202" lon="11.873551514069227"><ele>247.71428571428572</ele><time>2026-04-26T12:11:55Z</time></trkpt><trkpt lat="43.16851128680952" lon="11.873497274600394"><ele>247.85714285714286</ele><time>2026-04-26T12:11:56Z</time></trkpt><trkpt lat="43.16856406596932" lon="11.873436471635896"><ele>248.0</ele><time>2026-04-26T12:11:57Z</time></trkpt><trkpt lat="43.16861180690158" lon="11.873370326680863"><ele>248.0</ele><time>2026-04-26T12:11:58Z</time></trkpt><trkpt lat="43.168656968082864" lon="11.87329756280528"><ele>248.00000000000003</ele><time>2026-04-26T12:11:59Z</time></trkpt><trkpt lat="43.16869922235602" lon="11.873218241411418"><ele>248.0</ele><time>2026-04-26T12:12:00Z</time></trkpt><trkpt lat="43.1687391705548" lon="11.873138781379428"><ele>248.0</ele><time>2026-04-26T12:12:01Z</time></trkpt><trkpt lat="43.16877586362117" lon="11.873057130750627"><ele>248.00000000000003</ele><time>2026-04-26T12:12:02Z</time></trkpt><trkpt lat="43.16881357744771" lon="11.872975566161637"><ele>248.0</ele><time>2026-04-26T12:12:03Z</time></trkpt><trkpt lat="43.168851541590044" lon="11.872897835040485"><ele>248.0</ele><time>2026-04-26T12:12:04Z</time></trkpt><trkpt lat="43.168889260357915" lon="11.872816200873142"><ele>248.0</ele><time>2026-04-26T12:12:05Z</time></trkpt><trkpt lat="43.168925958385906" lon="11.872736148836562"><ele>248.00000000000003</ele><time>2026-04-26T12:12:06Z</time></trkpt><trkpt lat="43.16896347537779" lon="11.87265819510421"><ele>248.0</ele><time>2026-04-26T12:12:07Z</time></trkpt><trkpt lat="43.16900103029869" lon="11.872578190954034"><ele>248.0</ele><time>2026-04-26T12:12:08Z</time></trkpt><trkpt lat="43.16903992223326" lon="11.872498543048513"><ele>248.00000000000003</ele><time>2026-04-26T12:12:09Z</time></trkpt><trkpt lat="43.169077264107216" lon="11.872421258312881"><ele>248.0</ele><time>2026-04-26T12:12:10Z</time></trkpt><trkpt lat="43.16911379620943" lon="11.872341476193885"><ele>248.0</ele><time>2026-04-26T12:12:11Z</time></trkpt><trkpt lat="43.1691490037238" lon="11.87226508382212"><ele>248.14285714285717</ele><time>2026-04-26T12:12:12Z</time></trkpt><trkpt lat="43.169186555798895" lon="11.872184903712906"><ele>248.2857142857143</ele><time>2026-04-26T12:12:13Z</time></trkpt><trkpt lat="43.16922462251994" lon="11.872106195887543"><ele>248.42857142857144</ele><time>2026-04-26T12:12:14Z</time></trkpt><trkpt lat="43.16926269257591" lon="11.872033925924105"><ele>248.57142857142856</ele><time>2026-04-26T12:12:15Z</time></trkpt><trkpt lat="43.16930204314799" lon="11.871958759916877"><ele>248.7142857142857</ele><time>2026-04-26T12:12:16Z</time></trkpt><trkpt lat="43.16933607749873" lon="11.871884912904394"><ele>248.85714285714283</ele><time>2026-04-26T12:12:16.999Z</time></trkpt><trkpt lat="43.169371815093655" lon="11.87180883571905"><ele>249.0</ele><time>2026-04-26T12:12:17.999Z</time></trkpt><trkpt lat="43.16940929460218" lon="11.871734165760119"><ele>249.14285714285714</ele><time>2026-04-26T12:12:18.999Z</time></trkpt><trkpt lat="43.169442663179034" lon="11.871659699742803"><ele>249.28571428571428</ele><time>2026-04-26T12:12:19.999Z</time></trkpt><trkpt lat="43.16947882573247" lon="11.87158395775918"><ele>249.42857142857142</ele><time>2026-04-26T12:12:20.999Z</time></trkpt><trkpt lat="43.16951497593964" lon="11.871510315702738"><ele>249.57142857142856</ele><time>2026-04-26T12:12:21.999Z</time></trkpt><trkpt lat="43.16954932645139" lon="11.871430590592825"><ele>249.71428571428572</ele><time>2026-04-26T12:12:22.999Z</time></trkpt><trkpt lat="43.16958739948436" lon="11.871355744804179"><ele>249.85714285714283</ele><time>2026-04-26T12:12:23.999Z</time></trkpt><trkpt lat="43.169624229023015" lon="11.871278824676807"><ele>250.0</ele><time>2026-04-26T12:12:24.999Z</time></trkpt><trkpt lat="43.16966088267698" lon="11.87119925644145"><ele>250.0</ele><time>2026-04-26T12:12:25.999Z</time></trkpt><trkpt lat="43.16969919604515" lon="11.871123039006239"><ele>250.0</ele><time>2026-04-26T12:12:26.999Z</time></trkpt><trkpt lat="43.16973492315686" lon="11.871048080389988"><ele>250.0</ele><time>2026-04-26T12:12:27.999Z</time></trkpt><trkpt lat="43.16976882632926" lon="11.8709719254018"><ele>250.0</ele><time>2026-04-26T12:12:28.999Z</time></trkpt><trkpt lat="43.16980344827033" lon="11.870897093896012"><ele>250.0</ele><time>2026-04-26T12:12:29.999Z</time></trkpt><trkpt lat="43.169839448989606" lon="11.870820634779855"><ele>250.0</ele><time>2026-04-26T12:12:30.999Z</time></trkpt><trkpt lat="43.16987475501864" lon="11.870745262775154"><ele>250.0</ele><time>2026-04-26T12:12:31.999Z</time></trkpt><trkpt lat="43.169913895611714" lon="11.870666885117908"><ele>249.57142857142856</ele><time>2026-04-26T12:12:32.999Z</time></trkpt><trkpt lat="43.169947992930325" lon="11.870592747138115"><ele>249.14285714285717</ele><time>2026-04-26T12:12:33.999Z</time></trkpt><trkpt lat="43.169983248692965" lon="11.87051627176064"><ele>248.71428571428572</ele><time>2026-04-26T12:12:34.999Z</time></trkpt><trkpt lat="43.17002133188061" lon="11.870436879438053"><ele>248.28571428571428</ele><time>2026-04-26T12:12:35.999Z</time></trkpt><trkpt lat="43.170056397057216" lon="11.870363813200159"><ele>247.85714285714283</ele><time>2026-04-26T12:12:36.999Z</time></trkpt><trkpt lat="43.17009071117089" lon="11.870291380506975"><ele>247.42857142857144</ele><time>2026-04-26T12:12:37.999Z</time></trkpt><trkpt lat="43.17012549189707" lon="11.87021726673103"><ele>247.0</ele><time>2026-04-26T12:12:38.999Z</time></trkpt><trkpt lat="43.17016049895198" lon="11.87014349744168"><ele>247.0</ele><time>2026-04-26T12:12:40Z</time></trkpt><trkpt lat="43.17019590843759" lon="11.870069964867008"><ele>247.0</ele><time>2026-04-26T12:12:41Z</time></trkpt><trkpt lat="43.17023426726539" lon="11.869991431105012"><ele>247.0</ele><time>2026-04-26T12:12:42Z</time></trkpt><trkpt lat="43.170269762509015" lon="11.869916894110364"><ele>247.0</ele><time>2026-04-26T12:12:43Z</time></trkpt><trkpt lat="43.1703040633856" lon="11.869842394814746"><ele>247.0</ele><time>2026-04-26T12:12:44Z</time></trkpt><trkpt lat="43.17034095238087" lon="11.869767546114879"><ele>247.0</ele><time>2026-04-26T12:12:45Z</time></trkpt><trkpt lat="43.170380622153225" lon="11.869687394259387"><ele>247.0</ele><time>2026-04-26T12:12:46Z</time></trkpt><trkpt lat="43.170416745110536" lon="11.86960867135735"><ele>246.99999999999997</ele><time>2026-04-26T12:12:47Z</time></trkpt><trkpt lat="43.17045714109596" lon="11.869530681981267"><ele>247.0</ele><time>2026-04-26T12:12:48Z</time></trkpt><trkpt lat="43.17049336315419" lon="11.869451798214595"><ele>247.0</ele><time>2026-04-26T12:12:49Z</time></trkpt><trkpt lat="43.170533484071896" lon="11.86937222076878"><ele>247.0</ele><time>2026-04-26T12:12:50Z</time></trkpt><trkpt lat="43.170566180438264" lon="11.869295894289504"><ele>246.99999999999997</ele><time>2026-04-26T12:12:51Z</time></trkpt><trkpt lat="43.170635481646585" lon="11.869142030364335"><ele>247.0</ele><time>2026-04-26T12:12:53Z</time></trkpt><trkpt lat="43.17067284997361" lon="11.869066477026424"><ele>247.14285714285717</ele><time>2026-04-26T12:12:54Z</time></trkpt><trkpt lat="43.17070440024367" lon="11.868987497685856"><ele>247.28571428571428</ele><time>2026-04-26T12:12:55Z</time></trkpt><trkpt lat="43.17074577048784" lon="11.868909160658042"><ele>247.42857142857144</ele><time>2026-04-26T12:12:56Z</time></trkpt><trkpt lat="43.17078201554168" lon="11.868833932644986"><ele>247.57142857142858</ele><time>2026-04-26T12:12:57Z</time></trkpt><trkpt lat="43.17081330351299" lon="11.868754488013524"><ele>247.71428571428572</ele><time>2026-04-26T12:12:58Z</time></trkpt><trkpt lat="43.17084353641117" lon="11.868669334469635"><ele>247.85714285714286</ele><time>2026-04-26T12:12:59Z</time></trkpt><trkpt lat="43.17088097908023" lon="11.86858973972685"><ele>248.0</ele><time>2026-04-26T12:13:00Z</time></trkpt><trkpt lat="43.17091757276846" lon="11.868512847794673"><ele>248.0</ele><time>2026-04-26T12:13:01Z</time></trkpt><trkpt lat="43.17095539679654" lon="11.868436079104098"><ele>248.00000000000003</ele><time>2026-04-26T12:13:02Z</time></trkpt><trkpt lat="43.170995843898126" lon="11.868355545846667"><ele>248.0</ele><time>2026-04-26T12:13:03Z</time></trkpt><trkpt lat="43.17103605320064" lon="11.868277409398784"><ele>248.0</ele><time>2026-04-26T12:13:04Z</time></trkpt><trkpt lat="43.17107631764629" lon="11.868201406421399"><ele>248.00000000000003</ele><time>2026-04-26T12:13:05Z</time></trkpt><trkpt lat="43.17111523587721" lon="11.868128369480047"><ele>248.0</ele><time>2026-04-26T12:13:06Z</time></trkpt><trkpt lat="43.171153506382915" lon="11.86805379485747"><ele>248.0</ele><time>2026-04-26T12:13:07Z</time></trkpt><trkpt lat="43.17119028460493" lon="11.867979453673566"><ele>248.0</ele><time>2026-04-26T12:13:08Z</time></trkpt><trkpt lat="43.17126242763601" lon="11.867851956004001"><ele>248.0</ele><time>2026-04-26T12:13:10Z</time></trkpt><trkpt lat="43.17133672258683" lon="11.867735922830141"><ele>248.0</ele><time>2026-04-26T12:13:12Z</time></trkpt><trkpt lat="43.17139843763693" lon="11.867617770055451"><ele>248.0</ele><time>2026-04-26T12:13:14Z</time></trkpt><trkpt lat="43.171463189543616" lon="11.867495327896048"><ele>248.0</ele><time>2026-04-26T12:13:16Z</time></trkpt><trkpt lat="43.17153372539424" lon="11.867357880520345"><ele>248.0</ele><time>2026-04-26T12:13:18Z</time></trkpt><trkpt lat="43.171598896176334" lon="11.867232347613541"><ele>248.0</ele><time>2026-04-26T12:13:20Z</time></trkpt><trkpt lat="43.171669912217794" lon="11.86709682237248"><ele>248.0</ele><time>2026-04-26T12:13:22Z</time></trkpt><trkpt lat="43.17174985596113" lon="11.866966276067654"><ele>248.0</ele><time>2026-04-26T12:13:24Z</time></trkpt><trkpt lat="43.17182878818683" lon="11.866839417199525"><ele>248.0</ele><time>2026-04-26T12:13:26Z</time></trkpt><trkpt lat="43.171913148414724" lon="11.866716329526007"><ele>248.0</ele><time>2026-04-26T12:13:28Z</time></trkpt><trkpt lat="43.171990442621016" lon="11.866598086609235"><ele>248.0</ele><time>2026-04-26T12:13:30Z</time></trkpt><trkpt lat="43.17203327987625" lon="11.866530801669475"><ele>248.0</ele><time>2026-04-26T12:13:31Z</time></trkpt><trkpt lat="43.17212498200598" lon="11.866400692008831"><ele>248.0</ele><time>2026-04-26T12:13:33Z</time></trkpt><trkpt lat="43.17216996734164" lon="11.866339433062919"><ele>248.0</ele><time>2026-04-26T12:13:34Z</time></trkpt><trkpt lat="43.1722192009847" lon="11.866275336546057"><ele>248.00000000000003</ele><time>2026-04-26T12:13:35Z</time></trkpt><trkpt lat="43.172265582030995" lon="11.86620864598103"><ele>248.0</ele><time>2026-04-26T12:13:36Z</time></trkpt><trkpt lat="43.172316509852635" lon="11.866147618904112"><ele>248.0</ele><time>2026-04-26T12:13:37Z</time></trkpt><trkpt lat="43.172364958202266" lon="11.866083594924051"><ele>248.00000000000003</ele><time>2026-04-26T12:13:38Z</time></trkpt><trkpt lat="43.17241038794719" lon="11.866018720652681"><ele>248.0</ele><time>2026-04-26T12:13:39Z</time></trkpt><trkpt lat="43.17245755984085" lon="11.865951453721289"><ele>248.0</ele><time>2026-04-26T12:13:40Z</time></trkpt><trkpt lat="43.17250934008768" lon="11.865894565903794"><ele>247.8</ele><time>2026-04-26T12:13:41Z</time></trkpt><trkpt lat="43.17255879213679" lon="11.865836524194812"><ele>247.60000000000002</ele><time>2026-04-26T12:13:42Z</time></trkpt><trkpt lat="43.17260626287712" lon="11.865777864521919"><ele>247.39999999999998</ele><time>2026-04-26T12:13:43Z</time></trkpt><trkpt lat="43.17265610771192" lon="11.865719821028323"><ele>247.2</ele><time>2026-04-26T12:13:44Z</time></trkpt><trkpt lat="43.17279650832802" lon="11.865550442687189"><ele>247.0</ele><time>2026-04-26T12:13:47Z</time></trkpt><trkpt lat="43.172885123134655" lon="11.865433420777446"><ele>247.0</ele><time>2026-04-26T12:13:49Z</time></trkpt><trkpt lat="43.17293136086426" lon="11.86537257165813"><ele>247.0</ele><time>2026-04-26T12:13:50Z</time></trkpt><trkpt lat="43.17297619885636" lon="11.865306464974337"><ele>247.0</ele><time>2026-04-26T12:13:51Z</time></trkpt><trkpt lat="43.1730205748955" lon="11.86523857244544"><ele>247.0</ele><time>2026-04-26T12:13:52Z</time></trkpt><trkpt lat="43.1730660978701" lon="11.865174505314917"><ele>247.0</ele><time>2026-04-26T12:13:53Z</time></trkpt><trkpt lat="43.173110983447884" lon="11.86510726989471"><ele>247.0</ele><time>2026-04-26T12:13:54Z</time></trkpt><trkpt lat="43.173157150586384" lon="11.865043163005335"><ele>247.0</ele><time>2026-04-26T12:13:55Z</time></trkpt><trkpt lat="43.173203641583825" lon="11.864978743873479"><ele>247.39999999999998</ele><time>2026-04-26T12:13:56Z</time></trkpt><trkpt lat="43.173248663680056" lon="11.864918351527525"><ele>247.79999999999998</ele><time>2026-04-26T12:13:57Z</time></trkpt><trkpt lat="43.17333287261083" lon="11.864793745354605"><ele>248.2</ele><time>2026-04-26T12:13:59Z</time></trkpt><trkpt lat="43.17341896612896" lon="11.864669590465114"><ele>248.6</ele><time>2026-04-26T12:14:01Z</time></trkpt><trkpt lat="43.173463708352834" lon="11.86460867804845"><ele>249.0</ele><time>2026-04-26T12:14:02Z</time></trkpt><trkpt lat="43.173549570235494" lon="11.864485903228202"><ele>249.0</ele><time>2026-04-26T12:14:04Z</time></trkpt><trkpt lat="43.173634563736734" lon="11.864367785543166"><ele>248.99999999999997</ele><time>2026-04-26T12:14:06Z</time></trkpt><trkpt lat="43.17371950681443" lon="11.86424945321103"><ele>248.99999999999997</ele><time>2026-04-26T12:14:08Z</time></trkpt><trkpt lat="43.173763685151364" lon="11.864187587060767"><ele>249.0</ele><time>2026-04-26T12:14:09Z</time></trkpt><trkpt lat="43.17385030766262" lon="11.864067467638506"><ele>249.0</ele><time>2026-04-26T12:14:11Z</time></trkpt><trkpt lat="43.17393647894265" lon="11.86395107839053"><ele>249.0</ele><time>2026-04-26T12:14:13Z</time></trkpt><trkpt lat="43.17401660368428" lon="11.863832206173917"><ele>249.0</ele><time>2026-04-26T12:14:15Z</time></trkpt><trkpt lat="43.1740937045555" lon="11.86370733737771"><ele>249.0</ele><time>2026-04-26T12:14:17Z</time></trkpt><trkpt lat="43.17417993247874" lon="11.863596266467322"><ele>249.0</ele><time>2026-04-26T12:14:19Z</time></trkpt><trkpt lat="43.174267772776396" lon="11.86347680984218"><ele>248.2</ele><time>2026-04-26T12:14:21Z</time></trkpt><trkpt lat="43.174310180112734" lon="11.863412069706825"><ele>247.39999999999998</ele><time>2026-04-26T12:14:22Z</time></trkpt><trkpt lat="43.174391243477366" lon="11.863292246857856"><ele>246.6</ele><time>2026-04-26T12:14:24Z</time></trkpt><trkpt lat="43.17447274574327" lon="11.863171899892066"><ele>245.8</ele><time>2026-04-26T12:14:26Z</time></trkpt><trkpt lat="43.174556579551535" lon="11.863049268937706"><ele>245.0</ele><time>2026-04-26T12:14:27.999Z</time></trkpt><trkpt lat="43.174640769512315" lon="11.862927317361345"><ele>245.00000000000003</ele><time>2026-04-26T12:14:29.999Z</time></trkpt><trkpt lat="43.1747261247737" lon="11.862812540716096"><ele>245.0</ele><time>2026-04-26T12:14:31.999Z</time></trkpt><trkpt lat="43.17476874425385" lon="11.862745741563904"><ele>245.0</ele><time>2026-04-26T12:14:32.999Z</time></trkpt><trkpt lat="43.174812137519865" lon="11.862681528789377"><ele>245.0</ele><time>2026-04-26T12:14:33.999Z</time></trkpt><trkpt lat="43.17485734773314" lon="11.862617354372688"><ele>245.00000000000003</ele><time>2026-04-26T12:14:34.999Z</time></trkpt><trkpt lat="43.17490384534118" lon="11.86254973501576"><ele>245.0</ele><time>2026-04-26T12:14:35.999Z</time></trkpt><trkpt lat="43.17499357954959" lon="11.862427100640597"><ele>245.16666666666669</ele><time>2026-04-26T12:14:37.999Z</time></trkpt><trkpt lat="43.17503840170857" lon="11.862361752770838"><ele>245.33333333333334</ele><time>2026-04-26T12:14:38.999Z</time></trkpt><trkpt lat="43.17508211300681" lon="11.862295010427246"><ele>245.5</ele><time>2026-04-26T12:14:39.999Z</time></trkpt><trkpt lat="43.17512785942485" lon="11.862231031651065"><ele>245.66666666666669</ele><time>2026-04-26T12:14:40.999Z</time></trkpt><trkpt lat="43.175212218056565" lon="11.862110050501148"><ele>245.83333333333334</ele><time>2026-04-26T12:14:42.999Z</time></trkpt><trkpt lat="43.17529563715289" lon="11.861992857356327"><ele>246.0</ele><time>2026-04-26T12:14:44.999Z</time></trkpt><trkpt lat="43.17538007415" lon="11.861870688317815"><ele>246.33333333333334</ele><time>2026-04-26T12:14:47Z</time></trkpt><trkpt lat="43.175464649820576" lon="11.861749957864275"><ele>246.66666666666669</ele><time>2026-04-26T12:14:49Z</time></trkpt><trkpt lat="43.17554790023079" lon="11.861623565445116"><ele>247.0</ele><time>2026-04-26T12:14:51Z</time></trkpt><trkpt lat="43.17559405052313" lon="11.861562507095716"><ele>247.33333333333334</ele><time>2026-04-26T12:14:52Z</time></trkpt><trkpt lat="43.1756398447801" lon="11.861500694176128"><ele>247.66666666666669</ele><time>2026-04-26T12:14:53Z</time></trkpt><trkpt lat="43.175684647820006" lon="11.861437843652288"><ele>248.0</ele><time>2026-04-26T12:14:54Z</time></trkpt><trkpt lat="43.175764820310796" lon="11.86131413587519"><ele>248.16666666666669</ele><time>2026-04-26T12:14:56Z</time></trkpt><trkpt lat="43.17584809797862" lon="11.861203306183068"><ele>248.33333333333334</ele><time>2026-04-26T12:14:58Z</time></trkpt><trkpt lat="43.17593411117107" lon="11.861082208996043"><ele>248.5</ele><time>2026-04-26T12:15:00Z</time></trkpt><trkpt lat="43.175981156002706" lon="11.86101717254819"><ele>248.66666666666669</ele><time>2026-04-26T12:15:01Z</time></trkpt><trkpt lat="43.17603145818277" lon="11.860948291017213"><ele>248.83333333333334</ele><time>2026-04-26T12:15:02Z</time></trkpt><trkpt lat="43.17607460759323" lon="11.860883846410342"><ele>249.0</ele><time>2026-04-26T12:15:03Z</time></trkpt><trkpt lat="43.176160823252886" lon="11.860758066020376"><ele>248.57142857142856</ele><time>2026-04-26T12:15:05Z</time></trkpt><trkpt lat="43.17620787522872" lon="11.860692705989099"><ele>248.1428571428571</ele><time>2026-04-26T12:15:06Z</time></trkpt><trkpt lat="43.17625425456934" lon="11.860627149760363"><ele>247.71428571428572</ele><time>2026-04-26T12:15:07Z</time></trkpt><trkpt lat="43.1762999636707" lon="11.860561376676316"><ele>247.28571428571428</ele><time>2026-04-26T12:15:08Z</time></trkpt><trkpt lat="43.17634473150995" lon="11.86049619985747"><ele>246.85714285714286</ele><time>2026-04-26T12:15:09Z</time></trkpt><trkpt lat="43.17638872560544" lon="11.860431926469682"><ele>246.42857142857144</ele><time>2026-04-26T12:15:10Z</time></trkpt><trkpt lat="43.17643587406915" lon="11.860369250042545"><ele>246.00000000000003</ele><time>2026-04-26T12:15:11Z</time></trkpt><trkpt lat="43.17648247583282" lon="11.860307683397359"><ele>246.28571428571433</ele><time>2026-04-26T12:15:12Z</time></trkpt><trkpt lat="43.176529274320714" lon="11.860243841341573"><ele>246.57142857142858</ele><time>2026-04-26T12:15:13Z</time></trkpt><trkpt lat="43.17657591029935" lon="11.860178591126473"><ele>246.8571428571429</ele><time>2026-04-26T12:15:14Z</time></trkpt><trkpt lat="43.17662295283851" lon="11.860111648363016"><ele>247.14285714285717</ele><time>2026-04-26T12:15:15Z</time></trkpt><trkpt lat="43.17666728647258" lon="11.860047069147829"><ele>247.42857142857144</ele><time>2026-04-26T12:15:16Z</time></trkpt><trkpt lat="43.17671554892578" lon="11.85998062654561"><ele>247.71428571428572</ele><time>2026-04-26T12:15:17Z</time></trkpt><trkpt lat="43.176761893988036" lon="11.859915859654263"><ele>248.0</ele><time>2026-04-26T12:15:18Z</time></trkpt><trkpt lat="43.176808617694434" lon="11.859848972686098"><ele>248.0</ele><time>2026-04-26T12:15:19Z</time></trkpt><trkpt lat="43.17685159389705" lon="11.859784711942945"><ele>248.00000000000003</ele><time>2026-04-26T12:15:20Z</time></trkpt><trkpt lat="43.17689834174125" lon="11.859721961097502"><ele>248.0</ele><time>2026-04-26T12:15:21Z</time></trkpt><trkpt lat="43.176941987236326" lon="11.859657011899994"><ele>248.0</ele><time>2026-04-26T12:15:22Z</time></trkpt><trkpt lat="43.17698725283217" lon="11.859590676238781"><ele>248.00000000000003</ele><time>2026-04-26T12:15:23Z</time></trkpt><trkpt lat="43.17703363330311" lon="11.85952678680436"><ele>248.0</ele><time>2026-04-26T12:15:24Z</time></trkpt><trkpt lat="43.17707873607662" lon="11.859460599427598"><ele>248.0</ele><time>2026-04-26T12:15:25Z</time></trkpt><trkpt lat="43.17712617547393" lon="11.859396378184606"><ele>248.0</ele><time>2026-04-26T12:15:26Z</time></trkpt><trkpt lat="43.1771725652833" lon="11.859328558429898"><ele>248.00000000000003</ele><time>2026-04-26T12:15:27Z</time></trkpt><trkpt lat="43.17721908263743" lon="11.859262351187862"><ele>248.0</ele><time>2026-04-26T12:15:28Z</time></trkpt><trkpt lat="43.1772656132373" lon="11.859197478355357"><ele>248.0</ele><time>2026-04-26T12:15:29Z</time></trkpt><trkpt lat="43.17731560967786" lon="11.859130771216234"><ele>248.00000000000003</ele><time>2026-04-26T12:15:30Z</time></trkpt><trkpt lat="43.17736375666161" lon="11.85906561076274"><ele>248.0</ele><time>2026-04-26T12:15:31Z</time></trkpt><trkpt lat="43.177410856607885" lon="11.858997902740244"><ele>248.0</ele><time>2026-04-26T12:15:32Z</time></trkpt><trkpt lat="43.17745688629518" lon="11.858933946251977"><ele>248.00000000000003</ele><time>2026-04-26T12:15:33Z</time></trkpt><trkpt lat="43.17750352286129" lon="11.858866394858277"><ele>248.0</ele><time>2026-04-26T12:15:34Z</time></trkpt><trkpt lat="43.177551108197775" lon="11.858801335622584"><ele>248.0</ele><time>2026-04-26T12:15:35Z</time></trkpt><trkpt lat="43.177597214240734" lon="11.85873569036886"><ele>248.0</ele><time>2026-04-26T12:15:36Z</time></trkpt><trkpt lat="43.17768277392208" lon="11.858610787635914"><ele>248.00000000000003</ele><time>2026-04-26T12:15:38Z</time></trkpt><trkpt lat="43.17772472620101" lon="11.858544548591166"><ele>248.0</ele><time>2026-04-26T12:15:39Z</time></trkpt><trkpt lat="43.17780622390853" lon="11.858422725437"><ele>248.0</ele><time>2026-04-26T12:15:41Z</time></trkpt><trkpt lat="43.17788777999002" lon="11.858310397447331"><ele>248.0</ele><time>2026-04-26T12:15:43Z</time></trkpt><trkpt lat="43.17796343087824" lon="11.858197655149997"><ele>248.0</ele><time>2026-04-26T12:15:45Z</time></trkpt><trkpt lat="43.17809125575676" lon="11.858025219792287"><ele>248.0</ele><time>2026-04-26T12:15:48Z</time></trkpt><trkpt lat="43.17818016304337" lon="11.85792399875488"><ele>248.0</ele><time>2026-04-26T12:15:50Z</time></trkpt><trkpt lat="43.178273581392226" lon="11.857834118407032"><ele>248.0</ele><time>2026-04-26T12:15:52Z</time></trkpt><trkpt lat="43.17837654779983" lon="11.857735681328911"><ele>248.0</ele><time>2026-04-26T12:15:54Z</time></trkpt><trkpt lat="43.17848365317847" lon="11.857632671756958"><ele>248.0</ele><time>2026-04-26T12:15:56Z</time></trkpt><trkpt lat="43.17853584662861" lon="11.857575297150136"><ele>248.0</ele><time>2026-04-26T12:15:57Z</time></trkpt><trkpt lat="43.1785849164694" lon="11.857517428714846"><ele>247.8</ele><time>2026-04-26T12:15:58Z</time></trkpt><trkpt lat="43.178638455027134" lon="11.857465760104695"><ele>247.60000000000002</ele><time>2026-04-26T12:15:59Z</time></trkpt><trkpt lat="43.17869364996473" lon="11.857418131934828"><ele>247.39999999999998</ele><time>2026-04-26T12:16:00Z</time></trkpt><trkpt lat="43.178786860172806" lon="11.85733067973331"><ele>247.2</ele><time>2026-04-26T12:16:02Z</time></trkpt><trkpt lat="43.17888149473977" lon="11.85723116034035"><ele>247.0</ele><time>2026-04-26T12:16:04Z</time></trkpt><trkpt lat="43.17897916558344" lon="11.857138764755856"><ele>247.2</ele><time>2026-04-26T12:16:06Z</time></trkpt><trkpt lat="43.179080145233634" lon="11.857039834025407"><ele>247.39999999999998</ele><time>2026-04-26T12:16:08Z</time></trkpt><trkpt lat="43.179180781716454" lon="11.856953444906468"><ele>247.60000000000002</ele><time>2026-04-26T12:16:10Z</time></trkpt><trkpt lat="43.17923683441934" lon="11.856910762854916"><ele>247.8</ele><time>2026-04-26T12:16:11Z</time></trkpt><trkpt lat="43.17934987442217" lon="11.856834583474862"><ele>248.0</ele><time>2026-04-26T12:16:13Z</time></trkpt><trkpt lat="43.17946395216391" lon="11.85676325675369"><ele>247.83333333333334</ele><time>2026-04-26T12:16:15Z</time></trkpt><trkpt lat="43.179522102033594" lon="11.856727405921148"><ele>247.66666666666669</ele><time>2026-04-26T12:16:16Z</time></trkpt><trkpt lat="43.17958226044142" lon="11.856693406219176"><ele>247.5</ele><time>2026-04-26T12:16:17Z</time></trkpt><trkpt lat="43.179699707803785" lon="11.856624592161694"><ele>247.33333333333331</ele><time>2026-04-26T12:16:19Z</time></trkpt><trkpt lat="43.17976086292623" lon="11.856595095733741"><ele>247.16666666666666</ele><time>2026-04-26T12:16:20Z</time></trkpt><trkpt lat="43.17982273749036" lon="11.85656342619909"><ele>247.0</ele><time>2026-04-26T12:16:21Z</time></trkpt><trkpt lat="43.17988806441207" lon="11.85652747902455"><ele>246.99999999999997</ele><time>2026-04-26T12:16:22Z</time></trkpt><trkpt lat="43.17995324535889" lon="11.856491357203533"><ele>247.0</ele><time>2026-04-26T12:16:23Z</time></trkpt><trkpt lat="43.18001541284871" lon="11.85645860364376"><ele>247.0</ele><time>2026-04-26T12:16:24Z</time></trkpt><trkpt lat="43.18012431509224" lon="11.856394522357663"><ele>247.0</ele><time>2026-04-26T12:16:26Z</time></trkpt><trkpt lat="43.180184273939794" lon="11.856358793220016"><ele>246.99999999999997</ele><time>2026-04-26T12:16:27Z</time></trkpt><trkpt lat="43.18029764552628" lon="11.856279083204573"><ele>247.0</ele><time>2026-04-26T12:16:29Z</time></trkpt><trkpt lat="43.18035694194024" lon="11.856239730093774"><ele>247.0</ele><time>2026-04-26T12:16:30Z</time></trkpt><trkpt lat="43.180470437625566" lon="11.856162387402719"><ele>247.0</ele><time>2026-04-26T12:16:32Z</time></trkpt><trkpt lat="43.1805896246123" lon="11.856096256606632"><ele>247.0</ele><time>2026-04-26T12:16:33.999Z</time></trkpt><trkpt lat="43.18069999251012" lon="11.856033241351474"><ele>247.0</ele><time>2026-04-26T12:16:35.999Z</time></trkpt><trkpt lat="43.18081448261965" lon="11.855971888580447"><ele>246.75</ele><time>2026-04-26T12:16:37.999Z</time></trkpt><trkpt lat="43.180923191103645" lon="11.855912405208095"><ele>246.5</ele><time>2026-04-26T12:16:39.999Z</time></trkpt><trkpt lat="43.1810340682633" lon="11.855847967909904"><ele>246.25</ele><time>2026-04-26T12:16:41.999Z</time></trkpt><trkpt lat="43.18114503055776" lon="11.855787048471266"><ele>246.0</ele><time>2026-04-26T12:16:43.999Z</time></trkpt><trkpt lat="43.18125858831084" lon="11.855722714361324"><ele>246.0</ele><time>2026-04-26T12:16:45.999Z</time></trkpt><trkpt lat="43.1813719643704" lon="11.85566036635787"><ele>246.00000000000003</ele><time>2026-04-26T12:16:47.999Z</time></trkpt><trkpt lat="43.181432465145576" lon="11.855630909271063"><ele>246.00000000000003</ele><time>2026-04-26T12:16:48.999Z</time></trkpt><trkpt lat="43.18155342962967" lon="11.85557092662747"><ele>246.0</ele><time>2026-04-26T12:16:50.999Z</time></trkpt><trkpt lat="43.18166185989054" lon="11.855508813924525"><ele>246.0</ele><time>2026-04-26T12:16:53Z</time></trkpt><trkpt lat="43.18177650092623" lon="11.855443340779468"><ele>246.0</ele><time>2026-04-26T12:16:55Z</time></trkpt><trkpt lat="43.181887603311964" lon="11.855380216106935"><ele>246.0</ele><time>2026-04-26T12:16:57Z</time></trkpt><trkpt lat="43.18199780744095" lon="11.855316738063646"><ele>246.0</ele><time>2026-04-26T12:16:59Z</time></trkpt><trkpt lat="43.182105412321" lon="11.85525495410184"><ele>246.0</ele><time>2026-04-26T12:17:01Z</time></trkpt><trkpt lat="43.18222175864236" lon="11.855189093466425"><ele>246.0</ele><time>2026-04-26T12:17:03Z</time></trkpt><trkpt lat="43.18228255983119" lon="11.855154021279017"><ele>246.00000000000003</ele><time>2026-04-26T12:17:04Z</time></trkpt><trkpt lat="43.18240100564692" lon="11.855090432803257"><ele>246.00000000000003</ele><time>2026-04-26T12:17:06Z</time></trkpt><trkpt lat="43.18251523910951" lon="11.85502564254181"><ele>246.0</ele><time>2026-04-26T12:17:08Z</time></trkpt><trkpt lat="43.182628064527925" lon="11.854959431810698"><ele>246.0</ele><time>2026-04-26T12:17:10Z</time></trkpt><trkpt lat="43.18273911847818" lon="11.85489843555438"><ele>245.5</ele><time>2026-04-26T12:17:12Z</time></trkpt><trkpt lat="43.18284527191791" lon="11.854839580698439"><ele>245.0</ele><time>2026-04-26T12:17:14Z</time></trkpt><trkpt lat="43.18295423641735" lon="11.854779244071155"><ele>244.5</ele><time>2026-04-26T12:17:16Z</time></trkpt><trkpt lat="43.183062906528576" lon="11.854717093684712"><ele>244.0</ele><time>2026-04-26T12:17:18Z</time></trkpt><trkpt lat="43.183165511346566" lon="11.85465896465962"><ele>244.75</ele><time>2026-04-26T12:17:20Z</time></trkpt><trkpt lat="43.1832705988525" lon="11.854596258715851"><ele>245.5</ele><time>2026-04-26T12:17:22Z</time></trkpt><trkpt lat="43.18337665298988" lon="11.85453267274237"><ele>246.25</ele><time>2026-04-26T12:17:24Z</time></trkpt><trkpt lat="43.183487701252886" lon="11.854470362806957"><ele>247.0</ele><time>2026-04-26T12:17:26Z</time></trkpt><trkpt lat="43.183594704158274" lon="11.854393106203785"><ele>247.0</ele><time>2026-04-26T12:17:28Z</time></trkpt><trkpt lat="43.18369369910198" lon="11.85431703129362"><ele>247.0</ele><time>2026-04-26T12:17:30Z</time></trkpt><trkpt lat="43.183790047602926" lon="11.854227305522283"><ele>247.0</ele><time>2026-04-26T12:17:32Z</time></trkpt><trkpt lat="43.18385632153811" lon="11.85408915943398"><ele>247.0</ele><time>2026-04-26T12:17:34Z</time></trkpt><trkpt lat="43.183903479167704" lon="11.854029268927889"><ele>247.0</ele><time>2026-04-26T12:17:35Z</time></trkpt><trkpt lat="43.18395557181842" lon="11.853977127387717"><ele>247.0</ele><time>2026-04-26T12:17:35.999Z</time></trkpt><trkpt lat="43.184008847775864" lon="11.853927529987189"><ele>247.0</ele><time>2026-04-26T12:17:36.999Z</time></trkpt><trkpt lat="43.18410799535767" lon="11.853832703580597"><ele>247.0</ele><time>2026-04-26T12:17:38.999Z</time></trkpt><trkpt lat="43.184205721039596" lon="11.853730660920311"><ele>247.0</ele><time>2026-04-26T12:17:40.999Z</time></trkpt><trkpt lat="43.18429590564183" lon="11.85362377743361"><ele>247.0</ele><time>2026-04-26T12:17:42.999Z</time></trkpt><trkpt lat="43.184390307724776" lon="11.853513375710195"><ele>246.6</ele><time>2026-04-26T12:17:44.999Z</time></trkpt><trkpt lat="43.18448983067845" lon="11.853409762094904"><ele>246.2</ele><time>2026-04-26T12:17:46.999Z</time></trkpt><trkpt lat="43.18459130307763" lon="11.853313566142438"><ele>245.8</ele><time>2026-04-26T12:17:48.999Z</time></trkpt><trkpt lat="43.1846890390838" lon="11.85322151661151"><ele>245.4</ele><time>2026-04-26T12:17:50.999Z</time></trkpt><trkpt lat="43.184742689886185" lon="11.853173218584264"><ele>245.0</ele><time>2026-04-26T12:17:51.999Z</time></trkpt><trkpt lat="43.18484106202929" lon="11.853079082266355"><ele>245.25</ele><time>2026-04-26T12:17:53.999Z</time></trkpt><trkpt lat="43.184946311567266" lon="11.852978482692455"><ele>245.5</ele><time>2026-04-26T12:17:55.999Z</time></trkpt><trkpt lat="43.1850450820141" lon="11.852877733295099"><ele>245.75</ele><time>2026-04-26T12:17:57.999Z</time></trkpt><trkpt lat="43.18514605721832" lon="11.852773725253844"><ele>246.0</ele><time>2026-04-26T12:17:59.999Z</time></trkpt><trkpt lat="43.1852466417307" lon="11.852669969530147"><ele>246.0</ele><time>2026-04-26T12:18:01.999Z</time></trkpt><trkpt lat="43.1853439408402" lon="11.852570141342737"><ele>246.0</ele><time>2026-04-26T12:18:03.999Z</time></trkpt><trkpt lat="43.18544314898481" lon="11.852467054341565"><ele>246.0</ele><time>2026-04-26T12:18:05.999Z</time></trkpt><trkpt lat="43.185538225584295" lon="11.85236904269054"><ele>246.0</ele><time>2026-04-26T12:18:07.999Z</time></trkpt><trkpt lat="43.18562714771016" lon="11.852270986599216"><ele>246.0</ele><time>2026-04-26T12:18:09.999Z</time></trkpt><trkpt lat="43.18572260673588" lon="11.852172026612646"><ele>246.0</ele><time>2026-04-26T12:18:11.999Z</time></trkpt><trkpt lat="43.185816752426916" lon="11.852074130360236"><ele>246.0</ele><time>2026-04-26T12:18:13.999Z</time></trkpt><trkpt lat="43.18590478590243" lon="11.851981433653792"><ele>246.0</ele><time>2026-04-26T12:18:15.999Z</time></trkpt><trkpt lat="43.18599813029904" lon="11.851881908151897"><ele>245.8</ele><time>2026-04-26T12:18:17.999Z</time></trkpt><trkpt lat="43.18609335799345" lon="11.85178713080533"><ele>245.60000000000002</ele><time>2026-04-26T12:18:19.999Z</time></trkpt><trkpt lat="43.18614333073521" lon="11.851733414808384"><ele>245.4</ele><time>2026-04-26T12:18:20.999Z</time></trkpt><trkpt lat="43.18623225845123" lon="11.851636312318563"><ele>245.2</ele><time>2026-04-26T12:18:22.999Z</time></trkpt><trkpt lat="43.186285242355595" lon="11.851582707965408"><ele>245.0</ele><time>2026-04-26T12:18:23.999Z</time></trkpt><trkpt lat="43.18637812194087" lon="11.851479017472734"><ele>245.0</ele><time>2026-04-26T12:18:25.999Z</time></trkpt><trkpt lat="43.18647030077079" lon="11.851378885304543"><ele>245.0</ele><time>2026-04-26T12:18:27.999Z</time></trkpt><trkpt lat="43.18656090086264" lon="11.851275007448146"><ele>245.0</ele><time>2026-04-26T12:18:29.999Z</time></trkpt><trkpt lat="43.186648986003945" lon="11.851175835846963"><ele>245.0</ele><time>2026-04-26T12:18:31.999Z</time></trkpt><trkpt lat="43.18670073538495" lon="11.85112387897656"><ele>245.0</ele><time>2026-04-26T12:18:32.999Z</time></trkpt><trkpt lat="43.18675095585104" lon="11.851066253202259"><ele>245.2</ele><time>2026-04-26T12:18:33.999Z</time></trkpt><trkpt lat="43.18679936606755" lon="11.851008050321541"><ele>245.4</ele><time>2026-04-26T12:18:34.999Z</time></trkpt><trkpt lat="43.186893134579236" lon="11.850901622873023"><ele>245.60000000000002</ele><time>2026-04-26T12:18:36.999Z</time></trkpt><trkpt lat="43.186987944045526" lon="11.850792294912175"><ele>245.8</ele><time>2026-04-26T12:18:38.999Z</time></trkpt><trkpt lat="43.18707544993493" lon="11.850684875924776"><ele>246.0</ele><time>2026-04-26T12:18:40.999Z</time></trkpt><trkpt lat="43.1871668341576" lon="11.850577334546323"><ele>246.0</ele><time>2026-04-26T12:18:42.999Z</time></trkpt><trkpt lat="43.18725677100394" lon="11.850472663418287"><ele>246.0</ele><time>2026-04-26T12:18:44.999Z</time></trkpt><trkpt lat="43.18734763908643" lon="11.85037604790602"><ele>246.0</ele><time>2026-04-26T12:18:46.999Z</time></trkpt><trkpt lat="43.1874446441397" lon="11.850277482572418"><ele>246.0</ele><time>2026-04-26T12:18:48.999Z</time></trkpt><trkpt lat="43.187527839412475" lon="11.850160613531193"><ele>246.0</ele><time>2026-04-26T12:18:50.999Z</time></trkpt><trkpt lat="43.18760821617347" lon="11.850040608370087"><ele>246.0</ele><time>2026-04-26T12:18:52.998Z</time></trkpt><trkpt lat="43.18769866003695" lon="11.849931691515888"><ele>246.0</ele><time>2026-04-26T12:18:54.998Z</time></trkpt><trkpt lat="43.18778257959557" lon="11.849819062857085"><ele>246.0</ele><time>2026-04-26T12:18:56.998Z</time></trkpt><trkpt lat="43.18787196148416" lon="11.849703074060017"><ele>246.00000000000003</ele><time>2026-04-26T12:18:58.999Z</time></trkpt><trkpt lat="43.187917344498395" lon="11.849642433747315"><ele>246.0</ele><time>2026-04-26T12:18:59.999Z</time></trkpt><trkpt lat="43.18796288105328" lon="11.849575747717834"><ele>246.00000000000003</ele><time>2026-04-26T12:19:00.999Z</time></trkpt><trkpt lat="43.18800650464982" lon="11.849507081786923"><ele>246.00000000000003</ele><time>2026-04-26T12:19:01.999Z</time></trkpt><trkpt lat="43.18805256560684" lon="11.849439065615307"><ele>246.0</ele><time>2026-04-26T12:19:02.999Z</time></trkpt><trkpt lat="43.18809851792374" lon="11.849376042004153"><ele>246.00000000000003</ele><time>2026-04-26T12:19:03.999Z</time></trkpt><trkpt lat="43.18814646190116" lon="11.849312238204105"><ele>246.00000000000003</ele><time>2026-04-26T12:19:04.999Z</time></trkpt><trkpt lat="43.18819111975317" lon="11.84924995141431"><ele>246.16666666666666</ele><time>2026-04-26T12:19:05.999Z</time></trkpt><trkpt lat="43.18823652025143" lon="11.849188630305482"><ele>246.33333333333331</ele><time>2026-04-26T12:19:06.999Z</time></trkpt><trkpt lat="43.188328141790144" lon="11.849074579358527"><ele>246.5</ele><time>2026-04-26T12:19:08.999Z</time></trkpt><trkpt lat="43.18842195357983" lon="11.848952433181976"><ele>246.66666666666666</ele><time>2026-04-26T12:19:10.999Z</time></trkpt><trkpt lat="43.188468596123236" lon="11.848893248929143"><ele>246.83333333333331</ele><time>2026-04-26T12:19:11.999Z</time></trkpt><trkpt lat="43.188516855372995" lon="11.84883143396723"><ele>247.0</ele><time>2026-04-26T12:19:12.999Z</time></trkpt><trkpt lat="43.188566544855604" lon="11.848765673355146"><ele>247.0</ele><time>2026-04-26T12:19:13.999Z</time></trkpt><trkpt lat="43.18861796634892" lon="11.848703119598948"><ele>247.0</ele><time>2026-04-26T12:19:14.999Z</time></trkpt><trkpt lat="43.18866895240693" lon="11.84863885208444"><ele>247.0</ele><time>2026-04-26T12:19:15.999Z</time></trkpt><trkpt lat="43.18872036813443" lon="11.848577131158825"><ele>247.0</ele><time>2026-04-26T12:19:16.999Z</time></trkpt><trkpt lat="43.18877489664764" lon="11.848515447894048"><ele>247.0</ele><time>2026-04-26T12:19:17.999Z</time></trkpt><trkpt lat="43.18883076983414" lon="11.848457445659326"><ele>247.0</ele><time>2026-04-26T12:19:18.999Z</time></trkpt><trkpt lat="43.1888895054962" lon="11.848403194948785"><ele>247.0</ele><time>2026-04-26T12:19:19.999Z</time></trkpt><trkpt lat="43.18895107440478" lon="11.848354768755314"><ele>246.85714285714286</ele><time>2026-04-26T12:19:20.999Z</time></trkpt><trkpt lat="43.18901085691128" lon="11.84831159268156"><ele>246.71428571428572</ele><time>2026-04-26T12:19:21.999Z</time></trkpt><trkpt lat="43.18906636335519" lon="11.848269819861038"><ele>246.57142857142858</ele><time>2026-04-26T12:19:22.999Z</time></trkpt><trkpt lat="43.18912521553172" lon="11.848234676808461"><ele>246.42857142857144</ele><time>2026-04-26T12:19:23.999Z</time></trkpt><trkpt lat="43.189184446847435" lon="11.848200688192449"><ele>246.28571428571428</ele><time>2026-04-26T12:19:24.999Z</time></trkpt><trkpt lat="43.18924580097337" lon="11.848167176123662"><ele>246.14285714285717</ele><time>2026-04-26T12:19:25.999Z</time></trkpt><trkpt lat="43.18930592293268" lon="11.848127912501942"><ele>246.00000000000003</ele><time>2026-04-26T12:19:26.999Z</time></trkpt><trkpt lat="43.18942545882611" lon="11.848060277926521"><ele>246.0</ele><time>2026-04-26T12:19:28.999Z</time></trkpt><trkpt lat="43.189489305600716" lon="11.84803353637539"><ele>246.0</ele><time>2026-04-26T12:19:29.999Z</time></trkpt><trkpt lat="43.18954960738696" lon="11.848000450889579"><ele>246.0</ele><time>2026-04-26T12:19:30.999Z</time></trkpt><trkpt lat="43.189611383763804" lon="11.847968389766582"><ele>246.0</ele><time>2026-04-26T12:19:31.999Z</time></trkpt><trkpt lat="43.18967342245292" lon="11.847934900361508"><ele>246.0</ele><time>2026-04-26T12:19:32.999Z</time></trkpt><trkpt lat="43.189735109750195" lon="11.84790283090531"><ele>246.0</ele><time>2026-04-26T12:19:33.999Z</time></trkpt><trkpt lat="43.18984718465517" lon="11.847840256197149"><ele>246.00000000000003</ele><time>2026-04-26T12:19:35.999Z</time></trkpt><trkpt lat="43.18996207436608" lon="11.847779117830799"><ele>246.0</ele><time>2026-04-26T12:19:37.999Z</time></trkpt><trkpt lat="43.1900233802175" lon="11.847747385097552"><ele>246.00000000000003</ele><time>2026-04-26T12:19:38.999Z</time></trkpt><trkpt lat="43.19008468605168" lon="11.847713204972209"><ele>246.00000000000003</ele><time>2026-04-26T12:19:39.999Z</time></trkpt><trkpt lat="43.19014510947872" lon="11.84768127298341"><ele>246.0</ele><time>2026-04-26T12:19:40.999Z</time></trkpt><trkpt lat="43.19020580542389" lon="11.84765085906067"><ele>246.00000000000003</ele><time>2026-04-26T12:19:41.999Z</time></trkpt><trkpt lat="43.190264910762934" lon="11.847618692041737"><ele>246.00000000000003</ele><time>2026-04-26T12:19:42.999Z</time></trkpt><trkpt lat="43.19038036198099" lon="11.847555621316449"><ele>246.14285714285717</ele><time>2026-04-26T12:19:44.999Z</time></trkpt><trkpt lat="43.19043937974477" lon="11.847522777610072"><ele>246.28571428571428</ele><time>2026-04-26T12:19:45.999Z</time></trkpt><trkpt lat="43.1905022862868" lon="11.847493184476022"><ele>246.42857142857144</ele><time>2026-04-26T12:19:46.999Z</time></trkpt><trkpt lat="43.19056608187814" lon="11.847468421371808"><ele>246.57142857142858</ele><time>2026-04-26T12:19:47.999Z</time></trkpt><trkpt lat="43.19062709581094" lon="11.847436784349876"><ele>246.71428571428572</ele><time>2026-04-26T12:19:48.999Z</time></trkpt><trkpt lat="43.190688084769526" lon="11.847405594469425"><ele>246.85714285714286</ele><time>2026-04-26T12:19:49.999Z</time></trkpt><trkpt lat="43.1907497197742" lon="11.847375930266363"><ele>247.0</ele><time>2026-04-26T12:19:50.999Z</time></trkpt><trkpt lat="43.19087134416742" lon="11.847317914407135"><ele>247.0</ele><time>2026-04-26T12:19:52.999Z</time></trkpt><trkpt lat="43.19093221385839" lon="11.847295314887957"><ele>247.0</ele><time>2026-04-26T12:19:53.999Z</time></trkpt><trkpt lat="43.19099437439186" lon="11.847276533202976"><ele>247.0</ele><time>2026-04-26T12:19:54.999Z</time></trkpt><trkpt lat="43.19105849638975" lon="11.847263433818256"><ele>247.0</ele><time>2026-04-26T12:19:55.999Z</time></trkpt><trkpt lat="43.19112319965789" lon="11.847253604291845"><ele>247.0</ele><time>2026-04-26T12:19:56.999Z</time></trkpt><trkpt lat="43.191188185519884" lon="11.84724755818155"><ele>247.0</ele><time>2026-04-26T12:19:57.999Z</time></trkpt><trkpt lat="43.19125301243664" lon="11.847242576088107"><ele>247.0</ele><time>2026-04-26T12:19:58.999Z</time></trkpt><trkpt lat="43.19131725445293" lon="11.84723706132306"><ele>246.99999999999997</ele><time>2026-04-26T12:19:59.999Z</time></trkpt><trkpt lat="43.19138141706587" lon="11.847234617190326"><ele>247.0</ele><time>2026-04-26T12:20:00.999Z</time></trkpt><trkpt lat="43.1915104589074" lon="11.84722419527776"><ele>247.0</ele><time>2026-04-26T12:20:02.999Z</time></trkpt><trkpt lat="43.191576109224066" lon="11.847219329690507"><ele>247.0</ele><time>2026-04-26T12:20:03.999Z</time></trkpt><trkpt lat="43.191644392298485" lon="11.847214010815152"><ele>246.99999999999997</ele><time>2026-04-26T12:20:04.999Z</time></trkpt><trkpt lat="43.191711722775636" lon="11.847208518274476"><ele>247.0</ele><time>2026-04-26T12:20:05.999Z</time></trkpt><trkpt lat="43.19177805633055" lon="11.847202159685843"><ele>247.0</ele><time>2026-04-26T12:20:06.999Z</time></trkpt><trkpt lat="43.19184387567949" lon="11.847200720362302"><ele>247.0</ele><time>2026-04-26T12:20:07.999Z</time></trkpt><trkpt lat="43.19190818974529" lon="11.847196316490876"><ele>247.0</ele><time>2026-04-26T12:20:08.999Z</time></trkpt><trkpt lat="43.19197390184345" lon="11.847190678849824"><ele>247.0</ele><time>2026-04-26T12:20:09.999Z</time></trkpt><trkpt lat="43.192039905511955" lon="11.847186791212293"><ele>247.0</ele><time>2026-04-26T12:20:10.999Z</time></trkpt><trkpt lat="43.19210487589686" lon="11.847178991011935"><ele>247.0</ele><time>2026-04-26T12:20:11.999Z</time></trkpt><trkpt lat="43.19216866336802" lon="11.847173301162895"><ele>247.0</ele><time>2026-04-26T12:20:12.999Z</time></trkpt><trkpt lat="43.19223713193102" lon="11.84716864351786"><ele>246.99999999999997</ele><time>2026-04-26T12:20:13.999Z</time></trkpt><trkpt lat="43.19230075194012" lon="11.847162543788212"><ele>247.0</ele><time>2026-04-26T12:20:14.999Z</time></trkpt><trkpt lat="43.19236387447484" lon="11.847155338623846"><ele>247.0</ele><time>2026-04-26T12:20:15.999Z</time></trkpt><trkpt lat="43.19248826303757" lon="11.847138452198447"><ele>247.0</ele><time>2026-04-26T12:20:17.999Z</time></trkpt><trkpt lat="43.1925550988969" lon="11.847127646581008"><ele>246.99999999999997</ele><time>2026-04-26T12:20:18.999Z</time></trkpt><trkpt lat="43.19261891314097" lon="11.847102664757095"><ele>247.0</ele><time>2026-04-26T12:20:19.999Z</time></trkpt><trkpt lat="43.19268934995637" lon="11.847078989688775"><ele>247.0</ele><time>2026-04-26T12:20:20.999Z</time></trkpt><trkpt lat="43.192753115682216" lon="11.847049140382936"><ele>247.0</ele><time>2026-04-26T12:20:21.999Z</time></trkpt><trkpt lat="43.19281869602706" lon="11.847014763414023"><ele>247.0</ele><time>2026-04-26T12:20:22.999Z</time></trkpt><trkpt lat="43.1928801841086" lon="11.846969631842242"><ele>247.0</ele><time>2026-04-26T12:20:23.999Z</time></trkpt><trkpt lat="43.19293808781626" lon="11.846922219782071"><ele>247.0</ele><time>2026-04-26T12:20:24.999Z</time></trkpt><trkpt lat="43.19299833032314" lon="11.846870736001929"><ele>247.0</ele><time>2026-04-26T12:20:25.999Z</time></trkpt><trkpt lat="43.19305617668523" lon="11.84681778643911"><ele>247.0</ele><time>2026-04-26T12:20:26.999Z</time></trkpt><trkpt lat="43.193113586640216" lon="11.846768464375236"><ele>246.85714285714286</ele><time>2026-04-26T12:20:27.999Z</time></trkpt><trkpt lat="43.193172988920985" lon="11.846716100217247"><ele>246.71428571428572</ele><time>2026-04-26T12:20:28.999Z</time></trkpt><trkpt lat="43.19322902784023" lon="11.846665274238191"><ele>246.57142857142858</ele><time>2026-04-26T12:20:29.999Z</time></trkpt><trkpt lat="43.19328709166499" lon="11.846610418731041"><ele>246.42857142857144</ele><time>2026-04-26T12:20:30.999Z</time></trkpt><trkpt lat="43.19334647204195" lon="11.846555844937972"><ele>246.28571428571428</ele><time>2026-04-26T12:20:31.999Z</time></trkpt><trkpt lat="43.193402840291284" lon="11.84650192695652"><ele>246.14285714285717</ele><time>2026-04-26T12:20:32.999Z</time></trkpt><trkpt lat="43.19346183293389" lon="11.846443614247557"><ele>246.00000000000003</ele><time>2026-04-26T12:20:33.999Z</time></trkpt><trkpt lat="43.193516377027166" lon="11.846389532529386"><ele>246.0</ele><time>2026-04-26T12:20:34.999Z</time></trkpt><trkpt lat="43.19357779774797" lon="11.8463356784641"><ele>246.0</ele><time>2026-04-26T12:20:35.999Z</time></trkpt><trkpt lat="43.193634536098116" lon="11.846284771377945"><ele>246.0</ele><time>2026-04-26T12:20:36.999Z</time></trkpt><trkpt lat="43.193694725102326" lon="11.846237933278244"><ele>246.0</ele><time>2026-04-26T12:20:37.999Z</time></trkpt><trkpt lat="43.19380827040497" lon="11.846156315416211"><ele>246.0</ele><time>2026-04-26T12:20:39.999Z</time></trkpt><trkpt lat="43.19386584521362" lon="11.846119183603285"><ele>246.0</ele><time>2026-04-26T12:20:40.999Z</time></trkpt><trkpt lat="43.193974913903034" lon="11.846065319981323"><ele>246.25</ele><time>2026-04-26T12:20:42.999Z</time></trkpt><trkpt lat="43.19408833566068" lon="11.84601462011922"><ele>246.5</ele><time>2026-04-26T12:20:44.999Z</time></trkpt><trkpt lat="43.194196520138355" lon="11.845971638628377"><ele>246.75</ele><time>2026-04-26T12:20:46.999Z</time></trkpt><trkpt lat="43.19430727178847" lon="11.845943911695883"><ele>247.0</ele><time>2026-04-26T12:20:48.999Z</time></trkpt><trkpt lat="43.194420054572056" lon="11.845915589399201"><ele>247.0</ele><time>2026-04-26T12:20:50.999Z</time></trkpt><trkpt lat="43.194482022396336" lon="11.845899764746967"><ele>247.0</ele><time>2026-04-26T12:20:51.999Z</time></trkpt><trkpt lat="43.194604546098084" lon="11.845871888385055"><ele>247.0</ele><time>2026-04-26T12:20:53.999Z</time></trkpt><trkpt lat="43.19472932632907" lon="11.845839440589934"><ele>247.0</ele><time>2026-04-26T12:20:55.999Z</time></trkpt><trkpt lat="43.19485130534628" lon="11.845804213260969"><ele>247.0</ele><time>2026-04-26T12:20:57.999Z</time></trkpt><trkpt lat="43.19491803689735" lon="11.845790869114367"><ele>246.6</ele><time>2026-04-26T12:20:58.999Z</time></trkpt><trkpt lat="43.1949825225508" lon="11.845775565301548"><ele>246.2</ele><time>2026-04-26T12:20:59.999Z</time></trkpt><trkpt lat="43.19510359258599" lon="11.845748660345784"><ele>245.8</ele><time>2026-04-26T12:21:01.999Z</time></trkpt><trkpt lat="43.1952236802034" lon="11.845717304122035"><ele>245.4</ele><time>2026-04-26T12:21:04Z</time></trkpt><trkpt lat="43.19534440474699" lon="11.845687362295465"><ele>245.0</ele><time>2026-04-26T12:21:06Z</time></trkpt><trkpt lat="43.195467201511555" lon="11.845659389524963"><ele>245.00000000000003</ele><time>2026-04-26T12:21:08Z</time></trkpt><trkpt lat="43.19559052630446" lon="11.845628989842035"><ele>245.0</ele><time>2026-04-26T12:21:10Z</time></trkpt><trkpt lat="43.195656163347074" lon="11.84561734135187"><ele>245.0</ele><time>2026-04-26T12:21:11Z</time></trkpt><trkpt lat="43.19571896224346" lon="11.845607722470513"><ele>245.0</ele><time>2026-04-26T12:21:12Z</time></trkpt><trkpt lat="43.195781126596" lon="11.84559194942953"><ele>245.00000000000003</ele><time>2026-04-26T12:21:13Z</time></trkpt><trkpt lat="43.1958466062269" lon="11.84558525756323"><ele>245.0</ele><time>2026-04-26T12:21:14Z</time></trkpt><trkpt lat="43.19591251821673" lon="11.845580196802308"><ele>245.00000000000003</ele><time>2026-04-26T12:21:15Z</time></trkpt><trkpt lat="43.19597772720838" lon="11.845573525962187"><ele>245.0</ele><time>2026-04-26T12:21:16Z</time></trkpt><trkpt lat="43.196044867009554" lon="11.84556626320944"><ele>245.0</ele><time>2026-04-26T12:21:17Z</time></trkpt><trkpt lat="43.196172324739045" lon="11.845540422454668"><ele>245.0</ele><time>2026-04-26T12:21:19Z</time></trkpt><trkpt lat="43.19623395961705" lon="11.845514011417283"><ele>245.00000000000003</ele><time>2026-04-26T12:21:20Z</time></trkpt><trkpt lat="43.19629788852351" lon="11.845486630102382"><ele>245.0</ele><time>2026-04-26T12:21:21Z</time></trkpt><trkpt lat="43.196357147781484" lon="11.845452104404476"><ele>245.0</ele><time>2026-04-26T12:21:22Z</time></trkpt><trkpt lat="43.19641663003578" lon="11.845415024141735"><ele>245.0</ele><time>2026-04-26T12:21:23Z</time></trkpt><trkpt lat="43.196478366779175" lon="11.845373486334404"><ele>245.0</ele><time>2026-04-26T12:21:24Z</time></trkpt><trkpt lat="43.19653750979112" lon="11.845330437685789"><ele>245.0</ele><time>2026-04-26T12:21:25Z</time></trkpt><trkpt lat="43.19659684939873" lon="11.845289340114588"><ele>245.0</ele><time>2026-04-26T12:21:26Z</time></trkpt><trkpt lat="43.196656388659264" lon="11.845248861940947"><ele>245.0</ele><time>2026-04-26T12:21:27Z</time></trkpt><trkpt lat="43.19671403335438" lon="11.845210027643196"><ele>245.0</ele><time>2026-04-26T12:21:28Z</time></trkpt><trkpt lat="43.19677271446802" lon="11.845171675179905"><ele>245.16666666666669</ele><time>2026-04-26T12:21:29Z</time></trkpt><trkpt lat="43.19682979033476" lon="11.845132345895298"><ele>245.33333333333334</ele><time>2026-04-26T12:21:30Z</time></trkpt><trkpt lat="43.196888813885984" lon="11.845095571361732"><ele>245.5</ele><time>2026-04-26T12:21:31Z</time></trkpt><trkpt lat="43.19694546170571" lon="11.845056439997549"><ele>245.66666666666669</ele><time>2026-04-26T12:21:32Z</time></trkpt><trkpt lat="43.197058572406995" lon="11.844980057795466"><ele>245.83333333333334</ele><time>2026-04-26T12:21:34Z</time></trkpt><trkpt lat="43.197168278957506" lon="11.844906117586936"><ele>246.0</ele><time>2026-04-26T12:21:36Z</time></trkpt><trkpt lat="43.197278089084335" lon="11.844834481872567"><ele>246.14285714285717</ele><time>2026-04-26T12:21:38Z</time></trkpt><trkpt lat="43.197333356081884" lon="11.844792143558717"><ele>246.28571428571428</ele><time>2026-04-26T12:21:39Z</time></trkpt><trkpt lat="43.19739584163844" lon="11.844758840551393"><ele>246.42857142857144</ele><time>2026-04-26T12:21:40Z</time></trkpt><trkpt lat="43.19745432638893" lon="11.844719903749969"><ele>246.57142857142858</ele><time>2026-04-26T12:21:41Z</time></trkpt><trkpt lat="43.197513008102504" lon="11.844677528853934"><ele>246.71428571428572</ele><time>2026-04-26T12:21:42Z</time></trkpt><trkpt lat="43.19757088776454" lon="11.84463823579144"><ele>246.85714285714286</ele><time>2026-04-26T12:21:43Z</time></trkpt><trkpt lat="43.197629943011734" lon="11.844603371188606"><ele>247.0</ele><time>2026-04-26T12:21:44Z</time></trkpt><trkpt lat="43.19774187558318" lon="11.844528659240545"><ele>246.83333333333331</ele><time>2026-04-26T12:21:46Z</time></trkpt><trkpt lat="43.19779934533181" lon="11.844491367463174"><ele>246.66666666666666</ele><time>2026-04-26T12:21:47Z</time></trkpt><trkpt lat="43.197913300954916" lon="11.844414719324556"><ele>246.5</ele><time>2026-04-26T12:21:49Z</time></trkpt><trkpt lat="43.19802495231882" lon="11.844338282084683"><ele>246.33333333333331</ele><time>2026-04-26T12:21:50.999Z</time></trkpt><trkpt lat="43.19808105934212" lon="11.844298188025641"><ele>246.16666666666666</ele><time>2026-04-26T12:21:51.999Z</time></trkpt><trkpt lat="43.198140072065556" lon="11.844259277585076"><ele>246.0</ele><time>2026-04-26T12:21:52.999Z</time></trkpt><trkpt lat="43.19819577526241" lon="11.844216073632161"><ele>245.60000000000002</ele><time>2026-04-26T12:21:53.999Z</time></trkpt><trkpt lat="43.19825236851323" lon="11.844171878891123"><ele>245.20000000000002</ele><time>2026-04-26T12:21:54.999Z</time></trkpt><trkpt lat="43.19830904714981" lon="11.844128975427182"><ele>244.79999999999998</ele><time>2026-04-26T12:21:55.999Z</time></trkpt><trkpt lat="43.198416315238006" lon="11.844046129167397"><ele>244.39999999999998</ele><time>2026-04-26T12:21:57.999Z</time></trkpt><trkpt lat="43.198518176497956" lon="11.8439475284038"><ele>244.0</ele><time>2026-04-26T12:21:59.999Z</time></trkpt><trkpt lat="43.19861605102697" lon="11.843852556932344"><ele>244.0</ele><time>2026-04-26T12:22:01.999Z</time></trkpt><trkpt lat="43.19871413527816" lon="11.843754606200617"><ele>243.99999999999997</ele><time>2026-04-26T12:22:03.999Z</time></trkpt><trkpt lat="43.19881245719534" lon="11.843655457057494"><ele>243.99999999999997</ele><time>2026-04-26T12:22:05.999Z</time></trkpt><trkpt lat="43.198863942529854" lon="11.843603850837596"><ele>244.0</ele><time>2026-04-26T12:22:06.999Z</time></trkpt><trkpt lat="43.198952233201766" lon="11.843489278532262"><ele>244.0</ele><time>2026-04-26T12:22:08.999Z</time></trkpt><trkpt lat="43.199004260905916" lon="11.843434230461366"><ele>244.16666666666666</ele><time>2026-04-26T12:22:09.999Z</time></trkpt><trkpt lat="43.19905905473282" lon="11.843386842460184"><ele>244.33333333333331</ele><time>2026-04-26T12:22:10.999Z</time></trkpt><trkpt lat="43.19911299150044" lon="11.843335168759825"><ele>244.5</ele><time>2026-04-26T12:22:11.999Z</time></trkpt><trkpt lat="43.19916485020602" lon="11.843282548126794"><ele>244.66666666666669</ele><time>2026-04-26T12:22:12.999Z</time></trkpt><trkpt lat="43.19921550278849" lon="11.843230478094307"><ele>244.83333333333334</ele><time>2026-04-26T12:22:13.999Z</time></trkpt><trkpt lat="43.1993169200335" lon="11.843133949766028"><ele>245.0</ele><time>2026-04-26T12:22:15.999Z</time></trkpt><trkpt lat="43.19941040010295" lon="11.843035815889683"><ele>245.0</ele><time>2026-04-26T12:22:17.999Z</time></trkpt><trkpt lat="43.19951333871785" lon="11.842934466961522"><ele>245.0</ele><time>2026-04-26T12:22:19.999Z</time></trkpt><trkpt lat="43.199615900045366" lon="11.842831044042198"><ele>245.0</ele><time>2026-04-26T12:22:21.999Z</time></trkpt><trkpt lat="43.199718575128145" lon="11.842729480322905"><ele>245.0</ele><time>2026-04-26T12:22:23.999Z</time></trkpt><trkpt lat="43.199770387722715" lon="11.842678425841706"><ele>245.0</ele><time>2026-04-26T12:22:24.999Z</time></trkpt><trkpt lat="43.19987006354146" lon="11.842580706412468"><ele>245.00000000000003</ele><time>2026-04-26T12:22:26.999Z</time></trkpt><trkpt lat="43.19996941274882" lon="11.842478210292844"><ele>245.0</ele><time>2026-04-26T12:22:28.999Z</time></trkpt><trkpt lat="43.20002342624813" lon="11.842425676544424"><ele>245.0</ele><time>2026-04-26T12:22:29.999Z</time></trkpt><trkpt lat="43.200074117007176" lon="11.84237301510308"><ele>245.0</ele><time>2026-04-26T12:22:30.999Z</time></trkpt><trkpt lat="43.20012876738285" lon="11.842322461599455"><ele>245.00000000000003</ele><time>2026-04-26T12:22:31.999Z</time></trkpt><trkpt lat="43.200229963035696" lon="11.842218477160102"><ele>245.0</ele><time>2026-04-26T12:22:33.999Z</time></trkpt><trkpt lat="43.20028310680304" lon="11.842166331800923"><ele>245.0</ele><time>2026-04-26T12:22:34.999Z</time></trkpt><trkpt lat="43.200336838364144" lon="11.842113171716186"><ele>245.0</ele><time>2026-04-26T12:22:35.999Z</time></trkpt><trkpt lat="43.200389118401596" lon="11.842058287515455"><ele>245.0</ele><time>2026-04-26T12:22:36.999Z</time></trkpt><trkpt lat="43.20043978538927" lon="11.842004338683788"><ele>245.0</ele><time>2026-04-26T12:22:37.999Z</time></trkpt><trkpt lat="43.20049141499451" lon="11.841953683857332"><ele>245.0</ele><time>2026-04-26T12:22:38.999Z</time></trkpt><trkpt lat="43.20054242251047" lon="11.841902005703677"><ele>245.0</ele><time>2026-04-26T12:22:39.999Z</time></trkpt><trkpt lat="43.200627463590344" lon="11.841828707379573"><ele>245.0</ele><time>2026-04-26T12:22:41.999Z</time></trkpt><trkpt lat="43.20069535237561" lon="11.841806999478386"><ele>245.0</ele><time>2026-04-26T12:22:43.999Z</time></trkpt><trkpt lat="43.20076816345508" lon="11.841762594800368"><ele>245.0</ele><time>2026-04-26T12:22:45.999Z</time></trkpt><trkpt lat="43.200868170108784" lon="11.841698980924328"><ele>245.0</ele><time>2026-04-26T12:22:47.999Z</time></trkpt><trkpt lat="43.20092788499198" lon="11.841666788338475"><ele>245.0</ele><time>2026-04-26T12:22:48.999Z</time></trkpt><trkpt lat="43.20098848012202" lon="11.841633232628414"><ele>245.0</ele><time>2026-04-26T12:22:49.999Z</time></trkpt><trkpt lat="43.20104723500168" lon="11.841601958866018"><ele>245.0</ele><time>2026-04-26T12:22:50.999Z</time></trkpt><trkpt lat="43.201108341941875" lon="11.841573342514627"><ele>245.0</ele><time>2026-04-26T12:22:51.999Z</time></trkpt><trkpt lat="43.20122693774386" lon="11.84150024345125"><ele>245.0</ele><time>2026-04-26T12:22:53.999Z</time></trkpt><trkpt lat="43.20128382676645" lon="11.841462650174982"><ele>245.0</ele><time>2026-04-26T12:22:54.999Z</time></trkpt><trkpt lat="43.2013457773002" lon="11.841431322835582"><ele>245.0</ele><time>2026-04-26T12:22:55.999Z</time></trkpt><trkpt lat="43.20140628638791" lon="11.841399676550983"><ele>245.0</ele><time>2026-04-26T12:22:56.999Z</time></trkpt><trkpt lat="43.20146536534758" lon="11.841368848162752"><ele>245.0</ele><time>2026-04-26T12:22:57.999Z</time></trkpt><trkpt lat="43.20152495704592" lon="11.841330576584108"><ele>245.0</ele><time>2026-04-26T12:22:58.999Z</time></trkpt><trkpt lat="43.201583571686534" lon="11.84129187923541"><ele>245.0</ele><time>2026-04-26T12:22:59.999Z</time></trkpt><trkpt lat="43.20164223352548" lon="11.841255822210798"><ele>245.0</ele><time>2026-04-26T12:23:00.999Z</time></trkpt><trkpt lat="43.20169925942876" lon="11.841214639287509"><ele>245.0</ele><time>2026-04-26T12:23:01.999Z</time></trkpt><trkpt lat="43.20180912600551" lon="11.84115670099811"><ele>245.0</ele><time>2026-04-26T12:23:03.999Z</time></trkpt><trkpt lat="43.2018675782493" lon="11.841116066911578"><ele>245.0</ele><time>2026-04-26T12:23:04.999Z</time></trkpt><trkpt lat="43.20192304058669" lon="11.841070471479737"><ele>245.0</ele><time>2026-04-26T12:23:05.999Z</time></trkpt><trkpt lat="43.20197795478359" lon="11.841024068770235"><ele>245.0</ele><time>2026-04-26T12:23:06.999Z</time></trkpt><trkpt lat="43.20203231181193" lon="11.84097766643439"><ele>245.0</ele><time>2026-04-26T12:23:07.999Z</time></trkpt><trkpt lat="43.20208726590205" lon="11.840929574721178"><ele>245.0</ele><time>2026-04-26T12:23:08.999Z</time></trkpt><trkpt lat="43.202142857252035" lon="11.840883781124994"><ele>245.0</ele><time>2026-04-26T12:23:10Z</time></trkpt><trkpt lat="43.20220009629608" lon="11.840840129589377"><ele>245.0</ele><time>2026-04-26T12:23:11Z</time></trkpt><trkpt lat="43.202256058268325" lon="11.840793509533958"><ele>245.0</ele><time>2026-04-26T12:23:12Z</time></trkpt><trkpt lat="43.20231435312971" lon="11.840745047601342"><ele>245.0</ele><time>2026-04-26T12:23:13Z</time></trkpt><trkpt lat="43.20237435487" lon="11.840698899256912"><ele>245.0</ele><time>2026-04-26T12:23:14Z</time></trkpt><trkpt lat="43.202430554852455" lon="11.840647388946891"><ele>245.0</ele><time>2026-04-26T12:23:15Z</time></trkpt><trkpt lat="43.20248852702485" lon="11.840597291268779"><ele>245.0</ele><time>2026-04-26T12:23:16Z</time></trkpt><trkpt lat="43.202546980178475" lon="11.840554338550875"><ele>245.0</ele><time>2026-04-26T12:23:17Z</time></trkpt><trkpt lat="43.20260636927064" lon="11.840510080508514"><ele>245.0</ele><time>2026-04-26T12:23:18Z</time></trkpt><trkpt lat="43.20266327095353" lon="11.840464154471464"><ele>245.0</ele><time>2026-04-26T12:23:19Z</time></trkpt><trkpt lat="43.202722990937126" lon="11.840417028085511"><ele>245.0</ele><time>2026-04-26T12:23:20Z</time></trkpt><trkpt lat="43.202780789462985" lon="11.840372440654047"><ele>245.0</ele><time>2026-04-26T12:23:21Z</time></trkpt><trkpt lat="43.202837598728074" lon="11.840325955959184"><ele>245.0</ele><time>2026-04-26T12:23:22Z</time></trkpt><trkpt lat="43.202893812112194" lon="11.840286269071482"><ele>245.00000000000003</ele><time>2026-04-26T12:23:23Z</time></trkpt><trkpt lat="43.202950914958535" lon="11.840241091530366"><ele>245.0</ele><time>2026-04-26T12:23:24Z</time></trkpt><trkpt lat="43.20300862579575" lon="11.840196658873431"><ele>245.0</ele><time>2026-04-26T12:23:25Z</time></trkpt><trkpt lat="43.20311893487989" lon="11.840111547763597"><ele>245.0</ele><time>2026-04-26T12:23:27Z</time></trkpt><trkpt lat="43.20317980566781" lon="11.840070241975269"><ele>245.00000000000003</ele><time>2026-04-26T12:23:28Z</time></trkpt><trkpt lat="43.20323908611292" lon="11.840024002594294"><ele>245.0</ele><time>2026-04-26T12:23:29Z</time></trkpt><trkpt lat="43.203302431098756" lon="11.839982091211345"><ele>244.83333333333334</ele><time>2026-04-26T12:23:30Z</time></trkpt><trkpt lat="43.20336493464523" lon="11.839943056808648"><ele>244.66666666666669</ele><time>2026-04-26T12:23:31Z</time></trkpt><trkpt lat="43.20342664402461" lon="11.839900787123899"><ele>244.5</ele><time>2026-04-26T12:23:32Z</time></trkpt><trkpt lat="43.20348561513969" lon="11.839858993002453"><ele>244.33333333333331</ele><time>2026-04-26T12:23:33Z</time></trkpt><trkpt lat="43.2035443380851" lon="11.839819959155596"><ele>244.16666666666666</ele><time>2026-04-26T12:23:34Z</time></trkpt><trkpt lat="43.20365289306188" lon="11.839753845493313"><ele>244.0</ele><time>2026-04-26T12:23:36Z</time></trkpt><trkpt lat="43.20376673134586" lon="11.839677285697064"><ele>243.99999999999997</ele><time>2026-04-26T12:23:38Z</time></trkpt><trkpt lat="43.2038284039308" lon="11.839637742574066"><ele>244.0</ele><time>2026-04-26T12:23:39Z</time></trkpt><trkpt lat="43.20388797467215" lon="11.839599331664717"><ele>243.99999999999997</ele><time>2026-04-26T12:23:40Z</time></trkpt><trkpt lat="43.203948185057605" lon="11.83956265785326"><ele>243.99999999999997</ele><time>2026-04-26T12:23:41Z</time></trkpt><trkpt lat="43.20400764231118" lon="11.839527764721446"><ele>244.0</ele><time>2026-04-26T12:23:42Z</time></trkpt><trkpt lat="43.20406627491613" lon="11.839490193733635"><ele>243.99999999999997</ele><time>2026-04-26T12:23:43Z</time></trkpt><trkpt lat="43.204126224762845" lon="11.839448443027944"><ele>243.99999999999997</ele><time>2026-04-26T12:23:44Z</time></trkpt><trkpt lat="43.204184061861575" lon="11.839405381313636"><ele>244.1428571428571</ele><time>2026-04-26T12:23:45Z</time></trkpt><trkpt lat="43.20424216847478" lon="11.839363217369801"><ele>244.28571428571428</ele><time>2026-04-26T12:23:46Z</time></trkpt><trkpt lat="43.20430241839599" lon="11.839320965245358"><ele>244.42857142857142</ele><time>2026-04-26T12:23:47Z</time></trkpt><trkpt lat="43.20436146178343" lon="11.839286339882296"><ele>244.57142857142856</ele><time>2026-04-26T12:23:48Z</time></trkpt><trkpt lat="43.20442308856626" lon="11.839252657681273"><ele>244.71428571428572</ele><time>2026-04-26T12:23:49Z</time></trkpt><trkpt lat="43.20448483224732" lon="11.839218303836338"><ele>244.85714285714286</ele><time>2026-04-26T12:23:50Z</time></trkpt><trkpt lat="43.20454515350582" lon="11.839178950760537"><ele>245.0</ele><time>2026-04-26T12:23:51Z</time></trkpt><trkpt lat="43.204660917432115" lon="11.83910476246001"><ele>245.14285714285714</ele><time>2026-04-26T12:23:53Z</time></trkpt><trkpt lat="43.20471786856067" lon="11.839066151834178"><ele>245.28571428571428</ele><time>2026-04-26T12:23:54Z</time></trkpt><trkpt lat="43.204776092104616" lon="11.83902794895115"><ele>245.42857142857144</ele><time>2026-04-26T12:23:55Z</time></trkpt><trkpt lat="43.204834448794784" lon="11.838988852793221"><ele>245.57142857142858</ele><time>2026-04-26T12:23:56Z</time></trkpt><trkpt lat="43.20489184606925" lon="11.838950359530486"><ele>245.71428571428572</ele><time>2026-04-26T12:23:57Z</time></trkpt><trkpt lat="43.204951507122814" lon="11.838913389530516"><ele>245.8571428571429</ele><time>2026-04-26T12:23:58Z</time></trkpt><trkpt lat="43.205010600010176" lon="11.8388750670683"><ele>246.00000000000003</ele><time>2026-04-26T12:23:59Z</time></trkpt><trkpt lat="43.2050711043111" lon="11.838841195743495"><ele>246.14285714285717</ele><time>2026-04-26T12:24:00Z</time></trkpt><trkpt lat="43.20513349736539" lon="11.83880993647834"><ele>246.28571428571428</ele><time>2026-04-26T12:24:01Z</time></trkpt><trkpt lat="43.20519599481332" lon="11.838783920224046"><ele>246.42857142857144</ele><time>2026-04-26T12:24:02Z</time></trkpt><trkpt lat="43.20526137686519" lon="11.838763137176592"><ele>246.57142857142858</ele><time>2026-04-26T12:24:03Z</time></trkpt><trkpt lat="43.20532568906937" lon="11.838736501559682"><ele>246.71428571428572</ele><time>2026-04-26T12:24:04Z</time></trkpt><trkpt lat="43.205389235161526" lon="11.83871938622469"><ele>246.85714285714286</ele><time>2026-04-26T12:24:05Z</time></trkpt><trkpt lat="43.20545477694967" lon="11.838708850437238"><ele>247.0</ele><time>2026-04-26T12:24:06Z</time></trkpt><trkpt lat="43.20551970058883" lon="11.83870593639934"><ele>247.0</ele><time>2026-04-26T12:24:06.999Z</time></trkpt><trkpt lat="43.20558587480766" lon="11.838689048541992"><ele>247.0</ele><time>2026-04-26T12:24:07.999Z</time></trkpt><trkpt lat="43.20571716111668" lon="11.838664673915016"><ele>247.0</ele><time>2026-04-26T12:24:09.999Z</time></trkpt><trkpt lat="43.20578418185171" lon="11.838660190443683"><ele>247.0</ele><time>2026-04-26T12:24:10.999Z</time></trkpt><trkpt lat="43.20585148885447" lon="11.838647502094698"><ele>247.0</ele><time>2026-04-26T12:24:11.999Z</time></trkpt><trkpt lat="43.20596920168181" lon="11.83862658685308"><ele>246.75</ele><time>2026-04-26T12:24:13.999Z</time></trkpt><trkpt lat="43.20608236928561" lon="11.838610120518636"><ele>246.5</ele><time>2026-04-26T12:24:15.999Z</time></trkpt><trkpt lat="43.20619452133513" lon="11.838590924956543"><ele>246.25</ele><time>2026-04-26T12:24:17.999Z</time></trkpt><trkpt lat="43.206309840584005" lon="11.83857420431704"><ele>246.0</ele><time>2026-04-26T12:24:19.999Z</time></trkpt><trkpt lat="43.20642988221219" lon="11.83855341767489"><ele>246.0</ele><time>2026-04-26T12:24:21.999Z</time></trkpt><trkpt lat="43.20655042500617" lon="11.838535386890783"><ele>246.0</ele><time>2026-04-26T12:24:23.999Z</time></trkpt><trkpt lat="43.20666661860177" lon="11.838516142421922"><ele>246.0</ele><time>2026-04-26T12:24:25.999Z</time></trkpt><trkpt lat="43.206783579038884" lon="11.838492672878315"><ele>246.0</ele><time>2026-04-26T12:24:27.999Z</time></trkpt><trkpt lat="43.206900228054685" lon="11.838475841616445"><ele>245.75</ele><time>2026-04-26T12:24:29.999Z</time></trkpt><trkpt lat="43.20701746031048" lon="11.838458688203124"><ele>245.5</ele><time>2026-04-26T12:24:31.999Z</time></trkpt><trkpt lat="43.207136865973155" lon="11.838441887436058"><ele>245.25</ele><time>2026-04-26T12:24:33.999Z</time></trkpt><trkpt lat="43.20726035591798" lon="11.838414690989943"><ele>245.0</ele><time>2026-04-26T12:24:35.999Z</time></trkpt><trkpt lat="43.207378489783295" lon="11.838393358623604"><ele>244.75</ele><time>2026-04-26T12:24:37.999Z</time></trkpt><trkpt lat="43.20749175943775" lon="11.83837612386111"><ele>244.5</ele><time>2026-04-26T12:24:39.999Z</time></trkpt><trkpt lat="43.207604684613464" lon="11.83834848393847"><ele>244.25</ele><time>2026-04-26T12:24:41.999Z</time></trkpt><trkpt lat="43.207715858319546" lon="11.83831678999174"><ele>244.0</ele><time>2026-04-26T12:24:43.999Z</time></trkpt><trkpt lat="43.20783130304037" lon="11.838287345751946"><ele>244.0</ele><time>2026-04-26T12:24:45.999Z</time></trkpt><trkpt lat="43.20795429006634" lon="11.83826047464983"><ele>243.99999999999997</ele><time>2026-04-26T12:24:47.999Z</time></trkpt><trkpt lat="43.20801607076486" lon="11.838243303193234"><ele>243.99999999999997</ele><time>2026-04-26T12:24:48.999Z</time></trkpt><trkpt lat="43.2081369623297" lon="11.838213508337947"><ele>244.0</ele><time>2026-04-26T12:24:50.999Z</time></trkpt><trkpt lat="43.208258692979676" lon="11.838182242915071"><ele>244.0</ele><time>2026-04-26T12:24:52.999Z</time></trkpt><trkpt lat="43.20838050398885" lon="11.83815380819765"><ele>244.0</ele><time>2026-04-26T12:24:54.999Z</time></trkpt><trkpt lat="43.208500294086" lon="11.838119505154877"><ele>244.0</ele><time>2026-04-26T12:24:56.999Z</time></trkpt><trkpt lat="43.20862096817724" lon="11.838092994506534"><ele>244.0</ele><time>2026-04-26T12:24:58.999Z</time></trkpt><trkpt lat="43.208742616189134" lon="11.838065346833769"><ele>244.0</ele><time>2026-04-26T12:25:00.999Z</time></trkpt><trkpt lat="43.208863480013314" lon="11.838030035945831"><ele>244.0</ele><time>2026-04-26T12:25:02.999Z</time></trkpt><trkpt lat="43.208984070357204" lon="11.837994571705252"><ele>244.0</ele><time>2026-04-26T12:25:04.999Z</time></trkpt><trkpt lat="43.209102039432416" lon="11.837963071143669"><ele>244.0</ele><time>2026-04-26T12:25:06.999Z</time></trkpt><trkpt lat="43.209219441354385" lon="11.837931499947832"><ele>244.0</ele><time>2026-04-26T12:25:08.999Z</time></trkpt><trkpt lat="43.209333411951675" lon="11.83790741855793"><ele>244.25</ele><time>2026-04-26T12:25:10.999Z</time></trkpt><trkpt lat="43.209446910889646" lon="11.837882726381476"><ele>244.5</ele><time>2026-04-26T12:25:12.999Z</time></trkpt><trkpt lat="43.20955822118159" lon="11.837857248268174"><ele>244.75</ele><time>2026-04-26T12:25:14.999Z</time></trkpt><trkpt lat="43.209673175882" lon="11.837827026503387"><ele>245.0</ele><time>2026-04-26T12:25:17Z</time></trkpt><trkpt lat="43.209792180622166" lon="11.837797342232225"><ele>245.00000000000003</ele><time>2026-04-26T12:25:19Z</time></trkpt><trkpt lat="43.20991515570371" lon="11.837766535166901"><ele>245.0</ele><time>2026-04-26T12:25:21Z</time></trkpt><trkpt lat="43.209977331133125" lon="11.83775219403812"><ele>245.0</ele><time>2026-04-26T12:25:22Z</time></trkpt><trkpt lat="43.21010215876923" lon="11.837722385664424"><ele>245.0</ele><time>2026-04-26T12:25:24Z</time></trkpt><trkpt lat="43.21016554813252" lon="11.837706059863118"><ele>245.00000000000003</ele><time>2026-04-26T12:25:25Z</time></trkpt><trkpt lat="43.210229792767684" lon="11.837688901702567"><ele>245.0</ele><time>2026-04-26T12:25:26Z</time></trkpt><trkpt lat="43.210292927763845" lon="11.837673942133984"><ele>245.0</ele><time>2026-04-26T12:25:27Z</time></trkpt><trkpt lat="43.21035600318052" lon="11.837658432867787"><ele>245.0</ele><time>2026-04-26T12:25:28Z</time></trkpt><trkpt lat="43.21048129318158" lon="11.837633055954575"><ele>245.0</ele><time>2026-04-26T12:25:30Z</time></trkpt><trkpt lat="43.21054432682638" lon="11.837618778399722"><ele>245.0</ele><time>2026-04-26T12:25:31Z</time></trkpt><trkpt lat="43.210668281870866" lon="11.837587553942305"><ele>245.0</ele><time>2026-04-26T12:25:33Z</time></trkpt><trkpt lat="43.21078865562755" lon="11.837555857780421"><ele>244.8</ele><time>2026-04-26T12:25:35Z</time></trkpt><trkpt lat="43.210850844161044" lon="11.83754058545459"><ele>244.6</ele><time>2026-04-26T12:25:36Z</time></trkpt><trkpt lat="43.210972789591544" lon="11.837510580480114"><ele>244.39999999999998</ele><time>2026-04-26T12:25:38Z</time></trkpt><trkpt lat="43.21109520808186" lon="11.83748333149991"><ele>244.2</ele><time>2026-04-26T12:25:40Z</time></trkpt><trkpt lat="43.21121958511167" lon="11.837448228695777"><ele>244.0</ele><time>2026-04-26T12:25:42Z</time></trkpt><trkpt lat="43.21128221088529" lon="11.837430528155549"><ele>243.99999999999997</ele><time>2026-04-26T12:25:43Z</time></trkpt><trkpt lat="43.21134649257206" lon="11.837415137059253"><ele>244.0</ele><time>2026-04-26T12:25:44Z</time></trkpt><trkpt lat="43.21141059778852" lon="11.83740001508996"><ele>243.99999999999997</ele><time>2026-04-26T12:25:45Z</time></trkpt><trkpt lat="43.2114746844515" lon="11.837387355553199"><ele>243.99999999999997</ele><time>2026-04-26T12:25:46Z</time></trkpt><trkpt lat="43.21153867758192" lon="11.837371139605514"><ele>244.0</ele><time>2026-04-26T12:25:47Z</time></trkpt><trkpt lat="43.211601940857655" lon="11.837353448097392"><ele>243.99999999999997</ele><time>2026-04-26T12:25:48Z</time></trkpt><trkpt lat="43.21166472326483" lon="11.837337631505482"><ele>243.99999999999997</ele><time>2026-04-26T12:25:49Z</time></trkpt><trkpt lat="43.211788483985174" lon="11.837304762039413"><ele>243.99999999999997</ele><time>2026-04-26T12:25:51Z</time></trkpt><trkpt lat="43.211852091463726" lon="11.837288091635399"><ele>244.0</ele><time>2026-04-26T12:25:52Z</time></trkpt><trkpt lat="43.21191555968058" lon="11.837271714616165"><ele>244.0</ele><time>2026-04-26T12:25:53Z</time></trkpt><trkpt lat="43.21197802565363" lon="11.837256087439075"><ele>244.0</ele><time>2026-04-26T12:25:54Z</time></trkpt><trkpt lat="43.2120399044599" lon="11.83723804809265"><ele>243.99999999999997</ele><time>2026-04-26T12:25:55Z</time></trkpt><trkpt lat="43.212163435871624" lon="11.837201817413607"><ele>244.0</ele><time>2026-04-26T12:25:57Z</time></trkpt><trkpt lat="43.21228751523622" lon="11.837174136555621"><ele>244.16666666666666</ele><time>2026-04-26T12:25:59Z</time></trkpt><trkpt lat="43.21241199389386" lon="11.837145424738253"><ele>244.33333333333331</ele><time>2026-04-26T12:26:01Z</time></trkpt><trkpt lat="43.21247570799073" lon="11.837129909025402"><ele>244.5</ele><time>2026-04-26T12:26:02Z</time></trkpt><trkpt lat="43.212540537186065" lon="11.837114135652449"><ele>244.66666666666669</ele><time>2026-04-26T12:26:03Z</time></trkpt><trkpt lat="43.212605993432675" lon="11.837096043921902"><ele>244.83333333333334</ele><time>2026-04-26T12:26:04Z</time></trkpt><trkpt lat="43.21266852743851" lon="11.837080057635434"><ele>245.0</ele><time>2026-04-26T12:26:05Z</time></trkpt><trkpt lat="43.2127323244351" lon="11.837065179450333"><ele>245.0</ele><time>2026-04-26T12:26:06Z</time></trkpt><trkpt lat="43.21279451509184" lon="11.837050125008519"><ele>245.0</ele><time>2026-04-26T12:26:07Z</time></trkpt><trkpt lat="43.21291701257067" lon="11.837015854655258"><ele>245.0</ele><time>2026-04-26T12:26:09Z</time></trkpt><trkpt lat="43.21303699810329" lon="11.836985733179368"><ele>245.0</ele><time>2026-04-26T12:26:11Z</time></trkpt><trkpt lat="43.213155693106025" lon="11.836957129890134"><ele>245.0</ele><time>2026-04-26T12:26:13Z</time></trkpt><trkpt lat="43.21327207268595" lon="11.83692758356871"><ele>245.0</ele><time>2026-04-26T12:26:15Z</time></trkpt><trkpt lat="43.21338958086129" lon="11.836897725955744"><ele>245.0</ele><time>2026-04-26T12:26:17Z</time></trkpt><trkpt lat="43.21350518722493" lon="11.83687288081294"><ele>245.0</ele><time>2026-04-26T12:26:19Z</time></trkpt><trkpt lat="43.21361243149475" lon="11.836827155428052"><ele>245.0</ele><time>2026-04-26T12:26:21Z</time></trkpt><trkpt lat="43.213715238051044" lon="11.83677255390109"><ele>245.0</ele><time>2026-04-26T12:26:23Z</time></trkpt><trkpt lat="43.21381443947291" lon="11.836696738484871"><ele>245.0</ele><time>2026-04-26T12:26:25Z</time></trkpt><trkpt lat="43.213912255553375" lon="11.836629172548811"><ele>245.0</ele><time>2026-04-26T12:26:27Z</time></trkpt><trkpt lat="43.21401771354081" lon="11.836585900556283"><ele>245.0</ele><time>2026-04-26T12:26:28.999Z</time></trkpt><trkpt lat="43.21412948712789" lon="11.83655501805537"><ele>245.0</ele><time>2026-04-26T12:26:30.999Z</time></trkpt><trkpt lat="43.21424398060155" lon="11.836520587679598"><ele>244.75</ele><time>2026-04-26T12:26:32.999Z</time></trkpt><trkpt lat="43.214357657586234" lon="11.836489482136335"><ele>244.5</ele><time>2026-04-26T12:26:34.999Z</time></trkpt><trkpt lat="43.21447136777697" lon="11.836454211457985"><ele>244.25</ele><time>2026-04-26T12:26:36.999Z</time></trkpt><trkpt lat="43.21458163712541" lon="11.836414472032633"><ele>244.0</ele><time>2026-04-26T12:26:38.999Z</time></trkpt><trkpt lat="43.21468622387338" lon="11.83638443275604"><ele>244.0</ele><time>2026-04-26T12:26:40.999Z</time></trkpt><trkpt lat="43.21479112483525" lon="11.836359206442472"><ele>243.99999999999997</ele><time>2026-04-26T12:26:42.999Z</time></trkpt><trkpt lat="43.214898811626504" lon="11.836328332655107"><ele>243.99999999999997</ele><time>2026-04-26T12:26:44.999Z</time></trkpt><trkpt lat="43.21500192495133" lon="11.83628973399383"><ele>244.0</ele><time>2026-04-26T12:26:46.999Z</time></trkpt><trkpt lat="43.21510708906177" lon="11.836254935166096"><ele>244.0</ele><time>2026-04-26T12:26:48.999Z</time></trkpt><trkpt lat="43.215216716061725" lon="11.836224985340396"><ele>244.16666666666666</ele><time>2026-04-26T12:26:50.999Z</time></trkpt><trkpt lat="43.2153309087185" lon="11.83618565406571"><ele>244.33333333333331</ele><time>2026-04-26T12:26:52.999Z</time></trkpt><trkpt lat="43.21545193936446" lon="11.836153079501917"><ele>244.5</ele><time>2026-04-26T12:26:54.999Z</time></trkpt><trkpt lat="43.215515140283664" lon="11.836135239181793"><ele>244.66666666666669</ele><time>2026-04-26T12:26:55.999Z</time></trkpt><trkpt lat="43.21557855690225" lon="11.8361169370331"><ele>244.83333333333334</ele><time>2026-04-26T12:26:56.999Z</time></trkpt><trkpt lat="43.21564140347148" lon="11.83609916140665"><ele>245.0</ele><time>2026-04-26T12:26:57.999Z</time></trkpt><trkpt lat="43.21576282064432" lon="11.83606138412292"><ele>245.0</ele><time>2026-04-26T12:26:59.999Z</time></trkpt><trkpt lat="43.21582304682419" lon="11.836035313276467"><ele>245.0</ele><time>2026-04-26T12:27:00.999Z</time></trkpt><trkpt lat="43.215939942014195" lon="11.83599971548322"><ele>245.0</ele><time>2026-04-26T12:27:02.999Z</time></trkpt><trkpt lat="43.216060311018815" lon="11.835969169144388"><ele>245.0</ele><time>2026-04-26T12:27:04.999Z</time></trkpt><trkpt lat="43.21617935101275" lon="11.835937911803718"><ele>245.0</ele><time>2026-04-26T12:27:06.999Z</time></trkpt><trkpt lat="43.21629683589218" lon="11.835897013729912"><ele>244.83333333333334</ele><time>2026-04-26T12:27:08.999Z</time></trkpt><trkpt lat="43.216417176339775" lon="11.835859479687821"><ele>244.66666666666669</ele><time>2026-04-26T12:27:10.999Z</time></trkpt><trkpt lat="43.216536349399554" lon="11.835817499228664"><ele>244.5</ele><time>2026-04-26T12:27:12.999Z</time></trkpt><trkpt lat="43.216598658487264" lon="11.83579944380854"><ele>244.33333333333331</ele><time>2026-04-26T12:27:13.999Z</time></trkpt><trkpt lat="43.21666032292622" lon="11.83578185695521"><ele>244.16666666666666</ele><time>2026-04-26T12:27:14.999Z</time></trkpt><trkpt lat="43.21672306729387" lon="11.835761058685375"><ele>244.0</ele><time>2026-04-26T12:27:15.999Z</time></trkpt><trkpt lat="43.21678526892372" lon="11.835740692024748"><ele>244.0</ele><time>2026-04-26T12:27:16.999Z</time></trkpt><trkpt lat="43.21690854749561" lon="11.835702674599169"><ele>244.0</ele><time>2026-04-26T12:27:18.999Z</time></trkpt><trkpt lat="43.21702918548719" lon="11.83566243155893"><ele>244.0</ele><time>2026-04-26T12:27:20.999Z</time></trkpt><trkpt lat="43.2171512862239" lon="11.835623176440517"><ele>244.0</ele><time>2026-04-26T12:27:23Z</time></trkpt><trkpt lat="43.217270917629776" lon="11.835585346906758"><ele>243.75</ele><time>2026-04-26T12:27:25Z</time></trkpt><trkpt lat="43.21739097119308" lon="11.835550167801035"><ele>243.5</ele><time>2026-04-26T12:27:27Z</time></trkpt><trkpt lat="43.21750877453233" lon="11.835516576374772"><ele>243.25</ele><time>2026-04-26T12:27:29Z</time></trkpt><trkpt lat="43.21762662494475" lon="11.835480200583314"><ele>243.0</ele><time>2026-04-26T12:27:31Z</time></trkpt><trkpt lat="43.21774383565458" lon="11.835447248398019"><ele>243.0</ele><time>2026-04-26T12:27:33Z</time></trkpt><trkpt lat="43.2178578427638" lon="11.835409803647078"><ele>243.0</ele><time>2026-04-26T12:27:35Z</time></trkpt><trkpt lat="43.21796959570101" lon="11.83537266571972"><ele>243.0</ele><time>2026-04-26T12:27:37Z</time></trkpt><trkpt lat="43.218085848373576" lon="11.835337006041538"><ele>243.0</ele><time>2026-04-26T12:27:39Z</time></trkpt><trkpt lat="43.21820029608744" lon="11.83529922045631"><ele>243.75</ele><time>2026-04-26T12:27:41Z</time></trkpt><trkpt lat="43.21831409272754" lon="11.835266660558236"><ele>244.5</ele><time>2026-04-26T12:27:43Z</time></trkpt><trkpt lat="43.218426469372965" lon="11.835234906976808"><ele>245.25</ele><time>2026-04-26T12:27:45Z</time></trkpt><trkpt lat="43.2185387928972" lon="11.835201696134805"><ele>246.0</ele><time>2026-04-26T12:27:47Z</time></trkpt><trkpt lat="43.21865264069458" lon="11.835163365368354"><ele>245.75</ele><time>2026-04-26T12:27:49Z</time></trkpt><trkpt lat="43.21876493805647" lon="11.83513028559327"><ele>245.5</ele><time>2026-04-26T12:27:51Z</time></trkpt><trkpt lat="43.21887726730104" lon="11.835095797252173"><ele>245.25</ele><time>2026-04-26T12:27:53Z</time></trkpt><trkpt lat="43.21898630099103" lon="11.835061936042742"><ele>245.0</ele><time>2026-04-26T12:27:55Z</time></trkpt><trkpt lat="43.21909399077555" lon="11.835029662528616"><ele>245.0</ele><time>2026-04-26T12:27:57Z</time></trkpt><trkpt lat="43.21920095521544" lon="11.835001967051973"><ele>245.0</ele><time>2026-04-26T12:27:59Z</time></trkpt><trkpt lat="43.21930874807726" lon="11.834976046789663"><ele>245.0</ele><time>2026-04-26T12:28:01Z</time></trkpt><trkpt lat="43.2194174538781" lon="11.834944643775613"><ele>245.0</ele><time>2026-04-26T12:28:03Z</time></trkpt><trkpt lat="43.219524832504476" lon="11.834910577478722"><ele>245.0</ele><time>2026-04-26T12:28:05Z</time></trkpt><trkpt lat="43.21963041046215" lon="11.834878066633555"><ele>245.0</ele><time>2026-04-26T12:28:07Z</time></trkpt><trkpt lat="43.21973676925106" lon="11.834848171254972"><ele>245.0</ele><time>2026-04-26T12:28:09Z</time></trkpt><trkpt lat="43.219847263695236" lon="11.834814676920761"><ele>245.0</ele><time>2026-04-26T12:28:11Z</time></trkpt><trkpt lat="43.219957761617785" lon="11.8347799065139"><ele>245.0</ele><time>2026-04-26T12:28:13Z</time></trkpt><trkpt lat="43.22006925020646" lon="11.834745593240731"><ele>245.0</ele><time>2026-04-26T12:28:15Z</time></trkpt><trkpt lat="43.22017895411487" lon="11.834712494014848"><ele>245.0</ele><time>2026-04-26T12:28:17Z</time></trkpt><trkpt lat="43.220287033026" lon="11.83467692739214"><ele>245.0</ele><time>2026-04-26T12:28:19Z</time></trkpt><trkpt lat="43.22039447588171" lon="11.834641666008274"><ele>245.0</ele><time>2026-04-26T12:28:21Z</time></trkpt><trkpt lat="43.220503414928" lon="11.834613759210557"><ele>245.0</ele><time>2026-04-26T12:28:23Z</time></trkpt><trkpt lat="43.220611781678905" lon="11.834585281549831"><ele>245.0</ele><time>2026-04-26T12:28:25Z</time></trkpt><trkpt lat="43.22071983903491" lon="11.834553432263192"><ele>245.4</ele><time>2026-04-26T12:28:27Z</time></trkpt><trkpt lat="43.22082705261546" lon="11.834513478032319"><ele>245.8</ele><time>2026-04-26T12:28:29Z</time></trkpt><trkpt lat="43.220932872048344" lon="11.83447343255116"><ele>246.2</ele><time>2026-04-26T12:28:31Z</time></trkpt><trkpt lat="43.221041438918604" lon="11.834445222691052"><ele>246.6</ele><time>2026-04-26T12:28:33Z</time></trkpt><trkpt lat="43.22114736653178" lon="11.834418806892465"><ele>247.0</ele><time>2026-04-26T12:28:35Z</time></trkpt><trkpt lat="43.22124965859367" lon="11.834386516393828"><ele>247.0</ele><time>2026-04-26T12:28:37Z</time></trkpt><trkpt lat="43.22135295622933" lon="11.834353533658817"><ele>247.0</ele><time>2026-04-26T12:28:39Z</time></trkpt><trkpt lat="43.22145751030146" lon="11.834320525374725"><ele>247.0</ele><time>2026-04-26T12:28:41Z</time></trkpt><trkpt lat="43.22156098746433" lon="11.834288412605757"><ele>247.0</ele><time>2026-04-26T12:28:43Z</time></trkpt><trkpt lat="43.22166058853045" lon="11.83425787220181"><ele>247.0</ele><time>2026-04-26T12:28:45Z</time></trkpt><trkpt lat="43.22176121347384" lon="11.834226826574234"><ele>246.6</ele><time>2026-04-26T12:28:47Z</time></trkpt><trkpt lat="43.22186304434267" lon="11.834195214898125"><ele>246.2</ele><time>2026-04-26T12:28:48.999Z</time></trkpt><trkpt lat="43.2219706711784" lon="11.834163565352616"><ele>245.8</ele><time>2026-04-26T12:28:50.999Z</time></trkpt><trkpt lat="43.22208180884763" lon="11.83413023299992"><ele>245.4</ele><time>2026-04-26T12:28:52.999Z</time></trkpt><trkpt lat="43.222195290680034" lon="11.834099253671923"><ele>245.0</ele><time>2026-04-26T12:28:54.999Z</time></trkpt><trkpt lat="43.222311404550744" lon="11.83406976003595"><ele>245.25</ele><time>2026-04-26T12:28:56.999Z</time></trkpt><trkpt lat="43.22242843096421" lon="11.834042540505967"><ele>245.5</ele><time>2026-04-26T12:28:58.999Z</time></trkpt><trkpt lat="43.222545182712544" lon="11.834019615925033"><ele>245.75</ele><time>2026-04-26T12:29:00.999Z</time></trkpt><trkpt lat="43.22265936177631" lon="11.833996153636006"><ele>246.0</ele><time>2026-04-26T12:29:02.999Z</time></trkpt><trkpt lat="43.222775437377905" lon="11.833979170699967"><ele>246.0</ele><time>2026-04-26T12:29:04.999Z</time></trkpt><trkpt lat="43.222893176935415" lon="11.833967442605504"><ele>246.0</ele><time>2026-04-26T12:29:06.999Z</time></trkpt><trkpt lat="43.22301699721622" lon="11.833948191751444"><ele>246.0</ele><time>2026-04-26T12:29:08.999Z</time></trkpt><trkpt lat="43.223080038581465" lon="11.833939031001275"><ele>246.0</ele><time>2026-04-26T12:29:09.999Z</time></trkpt><trkpt lat="43.22314379881003" lon="11.833941060809453"><ele>246.0</ele><time>2026-04-26T12:29:10.999Z</time></trkpt><trkpt lat="43.223207018779526" lon="11.833949365811652"><ele>246.0</ele><time>2026-04-26T12:29:11.999Z</time></trkpt><trkpt lat="43.22332787179657" lon="11.833971072650968"><ele>245.75</ele><time>2026-04-26T12:29:13.999Z</time></trkpt><trkpt lat="43.22344691031439" lon="11.834002907351902"><ele>245.5</ele><time>2026-04-26T12:29:15.999Z</time></trkpt><trkpt lat="43.223565766683386" lon="11.834037509197445"><ele>245.25</ele><time>2026-04-26T12:29:17.999Z</time></trkpt><trkpt lat="43.223677040450674" lon="11.834075687234591"><ele>245.0</ele><time>2026-04-26T12:29:19.999Z</time></trkpt><trkpt lat="43.22376634443163" lon="11.834109931421619"><ele>245.0</ele><time>2026-04-26T12:29:21.999Z</time></trkpt><trkpt lat="43.223870445045854" lon="11.834128694084722"><ele>245.0</ele><time>2026-04-26T12:29:23.999Z</time></trkpt><trkpt lat="43.22397305548107" lon="11.83416021216529"><ele>245.0</ele><time>2026-04-26T12:29:25.999Z</time></trkpt><trkpt lat="43.224078279329824" lon="11.834143505760004"><ele>245.0</ele><time>2026-04-26T12:29:28Z</time></trkpt><trkpt lat="43.224159457743994" lon="11.83404181215831"><ele>245.0</ele><time>2026-04-26T12:29:30Z</time></trkpt><trkpt lat="43.224214768142105" lon="11.833910544382707"><ele>244.8</ele><time>2026-04-26T12:29:32Z</time></trkpt><trkpt lat="43.224261860263205" lon="11.833765554770528"><ele>244.6</ele><time>2026-04-26T12:29:34Z</time></trkpt><trkpt lat="43.2242946735447" lon="11.833620008874275"><ele>244.39999999999998</ele><time>2026-04-26T12:29:36Z</time></trkpt><trkpt lat="43.22431346604852" lon="11.833501125312612"><ele>244.2</ele><time>2026-04-26T12:29:38Z</time></trkpt><trkpt lat="43.22431354134505" lon="11.833386267950065"><ele>244.0</ele><time>2026-04-26T12:29:40Z</time></trkpt><trkpt lat="43.224307210954265" lon="11.83328163880673"><ele>243.79999999999998</ele><time>2026-04-26T12:29:42Z</time></trkpt><trkpt lat="43.224307070426754" lon="11.833187111387218"><ele>243.59999999999997</ele><time>2026-04-26T12:29:44Z</time></trkpt><trkpt lat="43.22433667423276" lon="11.833086849430353"><ele>243.4</ele><time>2026-04-26T12:29:46Z</time></trkpt><trkpt lat="43.22437720963547" lon="11.83296158375361"><ele>243.2</ele><time>2026-04-26T12:29:48Z</time></trkpt><trkpt lat="43.224414144334425" lon="11.832817795011"><ele>243.0</ele><time>2026-04-26T12:29:50Z</time></trkpt><trkpt lat="43.224452201133786" lon="11.832660849728471"><ele>243.5</ele><time>2026-04-26T12:29:52Z</time></trkpt><trkpt lat="43.224494067673376" lon="11.832511284383655"><ele>244.0</ele><time>2026-04-26T12:29:54Z</time></trkpt><trkpt lat="43.22453868566154" lon="11.832375816361184"><ele>244.5</ele><time>2026-04-26T12:29:56Z</time></trkpt><trkpt lat="43.22458256331246" lon="11.83223132902013"><ele>245.0</ele><time>2026-04-26T12:29:58Z</time></trkpt><trkpt lat="43.224627493202995" lon="11.832081417474553"><ele>245.0</ele><time>2026-04-26T12:30:00Z</time></trkpt><trkpt lat="43.2246733762512" lon="11.831926172094603"><ele>245.0</ele><time>2026-04-26T12:30:02Z</time></trkpt><trkpt lat="43.224717949277434" lon="11.831776894130021"><ele>245.0</ele><time>2026-04-26T12:30:04Z</time></trkpt><trkpt lat="43.22477043518171" lon="11.831641426637255"><ele>245.0</ele><time>2026-04-26T12:30:06Z</time></trkpt><trkpt lat="43.22481525216942" lon="11.831532645288705"><ele>245.0</ele><time>2026-04-26T12:30:08Z</time></trkpt><trkpt lat="43.22483172294023" lon="11.831418460610372"><ele>245.8</ele><time>2026-04-26T12:30:10Z</time></trkpt><trkpt lat="43.22486485065321" lon="11.831307828160782"><ele>246.6</ele><time>2026-04-26T12:30:13Z</time></trkpt><trkpt lat="43.22489130249333" lon="11.831205138081145"><ele>247.39999999999998</ele><time>2026-04-26T12:30:15Z</time></trkpt><trkpt lat="43.2249367799498" lon="11.831070915320588"><ele>248.2</ele><time>2026-04-26T12:30:17Z</time></trkpt><trkpt lat="43.22497446489992" lon="11.830917393458709"><ele>249.0</ele><time>2026-04-26T12:30:19Z</time></trkpt><trkpt lat="43.225017973627445" lon="11.83075704782091"><ele>249.0</ele><time>2026-04-26T12:30:21Z</time></trkpt><trkpt lat="43.22506602645912" lon="11.830602858611604"><ele>248.99999999999997</ele><time>2026-04-26T12:30:23Z</time></trkpt><trkpt lat="43.22511421252538" lon="11.830453191970042"><ele>248.99999999999997</ele><time>2026-04-26T12:30:25Z</time></trkpt><trkpt lat="43.22514082285786" lon="11.83037047805441"><ele>249.0</ele><time>2026-04-26T12:30:26Z</time></trkpt><trkpt lat="43.22518334346405" lon="11.830230883933176"><ele>249.0</ele><time>2026-04-26T12:30:28Z</time></trkpt><trkpt lat="43.22522411515263" lon="11.830089986397157"><ele>248.6</ele><time>2026-04-26T12:30:30Z</time></trkpt><trkpt lat="43.22526753376339" lon="11.829949223816573"><ele>248.2</ele><time>2026-04-26T12:30:32Z</time></trkpt><trkpt lat="43.225308091112325" lon="11.82980739931655"><ele>247.79999999999998</ele><time>2026-04-26T12:30:34Z</time></trkpt><trkpt lat="43.2253492679947" lon="11.829681818308144"><ele>247.39999999999998</ele><time>2026-04-26T12:30:36Z</time></trkpt><trkpt lat="43.22537152986183" lon="11.829590573671183"><ele>247.0</ele><time>2026-04-26T12:30:38Z</time></trkpt><trkpt lat="43.22540540221574" lon="11.829487759646735"><ele>247.0</ele><time>2026-04-26T12:30:40Z</time></trkpt><trkpt lat="43.22543604352402" lon="11.829367035922612"><ele>247.0</ele><time>2026-04-26T12:30:42Z</time></trkpt><trkpt lat="43.22547275442284" lon="11.829240898594552"><ele>247.0</ele><time>2026-04-26T12:30:44Z</time></trkpt><trkpt lat="43.22551036213967" lon="11.82911673338886"><ele>247.0</ele><time>2026-04-26T12:30:46Z</time></trkpt><trkpt lat="43.22554521372657" lon="11.828995200095218"><ele>247.0</ele><time>2026-04-26T12:30:48Z</time></trkpt><trkpt lat="43.22558067472758" lon="11.828875381257308"><ele>247.0</ele><time>2026-04-26T12:30:50Z</time></trkpt><trkpt lat="43.225615144757946" lon="11.82875616418356"><ele>247.0</ele><time>2026-04-26T12:30:52Z</time></trkpt><trkpt lat="43.225652162095784" lon="11.82864189150267"><ele>247.0</ele><time>2026-04-26T12:30:54Z</time></trkpt><trkpt lat="43.225683666259684" lon="11.828523224967734"><ele>247.0</ele><time>2026-04-26T12:30:56Z</time></trkpt><trkpt lat="43.22571993762368" lon="11.828393742558303"><ele>247.0</ele><time>2026-04-26T12:30:58Z</time></trkpt><trkpt lat="43.22575717704615" lon="11.828260794821002"><ele>246.8</ele><time>2026-04-26T12:31:00Z</time></trkpt><trkpt lat="43.22580950737551" lon="11.828129719873"><ele>246.6</ele><time>2026-04-26T12:31:02Z</time></trkpt><trkpt lat="43.22587015028085" lon="11.827999901243942"><ele>246.40000000000003</ele><time>2026-04-26T12:31:03.999Z</time></trkpt><trkpt lat="43.22593229111546" lon="11.827875976690162"><ele>246.20000000000002</ele><time>2026-04-26T12:31:05.999Z</time></trkpt><trkpt lat="43.226003092940125" lon="11.827772789229373"><ele>246.0</ele><time>2026-04-26T12:31:07.999Z</time></trkpt><trkpt lat="43.226073316866966" lon="11.827670113719766"><ele>246.0</ele><time>2026-04-26T12:31:09.999Z</time></trkpt><trkpt lat="43.22615678958714" lon="11.827579062824546"><ele>246.00000000000003</ele><time>2026-04-26T12:31:11.999Z</time></trkpt><trkpt lat="43.22623912875285" lon="11.82750101960872"><ele>246.00000000000003</ele><time>2026-04-26T12:31:13.999Z</time></trkpt><trkpt lat="43.22631928989073" lon="11.8274272490514"><ele>246.0</ele><time>2026-04-26T12:31:15.999Z</time></trkpt><trkpt lat="43.22639391081435" lon="11.827346274668116"><ele>246.0</ele><time>2026-04-26T12:31:17.999Z</time></trkpt><trkpt lat="43.22645346512515" lon="11.827267026875303"><ele>246.0</ele><time>2026-04-26T12:31:19.999Z</time></trkpt><trkpt lat="43.22653355554217" lon="11.82728568921377"><ele>246.0</ele><time>2026-04-26T12:31:21.999Z</time></trkpt><trkpt lat="43.22658178738312" lon="11.827400697379659"><ele>246.0</ele><time>2026-04-26T12:31:23.999Z</time></trkpt><trkpt lat="43.22662074760317" lon="11.827525213205453"><ele>246.0</ele><time>2026-04-26T12:31:25.999Z</time></trkpt><trkpt lat="43.22664432483313" lon="11.827618571813494"><ele>246.0</ele><time>2026-04-26T12:31:27.999Z</time></trkpt><trkpt lat="43.22660527213188" lon="11.827700297755314"><ele>246.0</ele><time>2026-04-26T12:31:29.999Z</time></trkpt><trkpt lat="43.226534279780594" lon="11.8277729963922"><ele>246.0</ele><time>2026-04-26T12:31:31.999Z</time></trkpt><trkpt lat="43.22644932609523" lon="11.827865425609547"><ele>246.0</ele><time>2026-04-26T12:31:34Z</time></trkpt><trkpt lat="43.226366113627904" lon="11.827983313801985"><ele>246.0</ele><time>2026-04-26T12:31:36Z</time></trkpt><trkpt lat="43.226325611241904" lon="11.828050677332444"><ele>246.0</ele><time>2026-04-26T12:31:37Z</time></trkpt><trkpt lat="43.22628399868314" lon="11.82811795192692"><ele>246.0</ele><time>2026-04-26T12:31:38Z</time></trkpt><trkpt lat="43.226246654225875" lon="11.828188998116305"><ele>246.0</ele><time>2026-04-26T12:31:39Z</time></trkpt><trkpt lat="43.22621407255151" lon="11.828263046809987"><ele>246.0</ele><time>2026-04-26T12:31:40Z</time></trkpt><trkpt lat="43.226148641609775" lon="11.828405476007614"><ele>246.00000000000003</ele><time>2026-04-26T12:31:42Z</time></trkpt><trkpt lat="43.2260979879853" lon="11.82855089029014"><ele>246.00000000000003</ele><time>2026-04-26T12:31:44Z</time></trkpt><trkpt lat="43.226059193744206" lon="11.828638067270042"><ele>246.0</ele><time>2026-04-26T12:31:45Z</time></trkpt><trkpt lat="43.22601152451136" lon="11.828786990326845"><ele>246.0</ele><time>2026-04-26T12:31:47Z</time></trkpt><trkpt lat="43.22596981873893" lon="11.828941242567472"><ele>246.0</ele><time>2026-04-26T12:31:49Z</time></trkpt><trkpt lat="43.22593297768909" lon="11.82909141472679"><ele>246.0</ele><time>2026-04-26T12:31:51Z</time></trkpt><trkpt lat="43.225888439763274" lon="11.829246800611243"><ele>246.0</ele><time>2026-04-26T12:31:53Z</time></trkpt><trkpt lat="43.22584141072858" lon="11.829402322813525"><ele>246.0</ele><time>2026-04-26T12:31:55Z</time></trkpt><trkpt lat="43.225797147951106" lon="11.829563398683113"><ele>246.14285714285717</ele><time>2026-04-26T12:31:57Z</time></trkpt><trkpt lat="43.2257745221822" lon="11.829647307155932"><ele>246.28571428571428</ele><time>2026-04-26T12:31:58Z</time></trkpt><trkpt lat="43.22574902325108" lon="11.829726332665768"><ele>246.42857142857144</ele><time>2026-04-26T12:31:59Z</time></trkpt><trkpt lat="43.22572371933024" lon="11.829807809969527"><ele>246.57142857142858</ele><time>2026-04-26T12:32:00Z</time></trkpt><trkpt lat="43.225700482677105" lon="11.829891242469923"><ele>246.71428571428572</ele><time>2026-04-26T12:32:01Z</time></trkpt><trkpt lat="43.22567784890145" lon="11.829981300070958"><ele>246.85714285714286</ele><time>2026-04-26T12:32:02Z</time></trkpt><trkpt lat="43.225651128718916" lon="11.830068261414636"><ele>247.0</ele><time>2026-04-26T12:32:03Z</time></trkpt><trkpt lat="43.22562506501591" lon="11.83015922361821"><ele>247.33333333333331</ele><time>2026-04-26T12:32:04Z</time></trkpt><trkpt lat="43.22559979069607" lon="11.830247109474541"><ele>247.66666666666666</ele><time>2026-04-26T12:32:05Z</time></trkpt><trkpt lat="43.22557443088284" lon="11.830335130172859"><ele>248.0</ele><time>2026-04-26T12:32:06Z</time></trkpt><trkpt lat="43.22553223462301" lon="11.830488262834347"><ele>248.33333333333331</ele><time>2026-04-26T12:32:08Z</time></trkpt><trkpt lat="43.22548562425432" lon="11.83064558887526"><ele>248.66666666666666</ele><time>2026-04-26T12:32:10Z</time></trkpt><trkpt lat="43.22546173976545" lon="11.830725669860483"><ele>249.0</ele><time>2026-04-26T12:32:11Z</time></trkpt><trkpt lat="43.225419716009675" lon="11.830881565279794"><ele>249.25</ele><time>2026-04-26T12:32:13Z</time></trkpt><trkpt lat="43.225371766384754" lon="11.83103233318564"><ele>249.5</ele><time>2026-04-26T12:32:15Z</time></trkpt><trkpt lat="43.22533028864148" lon="11.83118916574866"><ele>249.75</ele><time>2026-04-26T12:32:17Z</time></trkpt><trkpt lat="43.22528443997894" lon="11.8313449397273"><ele>250.0</ele><time>2026-04-26T12:32:19Z</time></trkpt><trkpt lat="43.22523790210985" lon="11.83150133665994"><ele>250.0</ele><time>2026-04-26T12:32:21Z</time></trkpt><trkpt lat="43.22519774408285" lon="11.831661541483202"><ele>250.0</ele><time>2026-04-26T12:32:23Z</time></trkpt><trkpt lat="43.225157538160865" lon="11.831819589529294"><ele>250.0</ele><time>2026-04-26T12:32:25Z</time></trkpt><trkpt lat="43.225128179957466" lon="11.831967435164136"><ele>250.0</ele><time>2026-04-26T12:32:27Z</time></trkpt><trkpt lat="43.225110006867645" lon="11.83207873185964"><ele>250.0</ele><time>2026-04-26T12:32:29Z</time></trkpt><trkpt lat="43.22508263974243" lon="11.832180038979592"><ele>249.6</ele><time>2026-04-26T12:32:31Z</time></trkpt><trkpt lat="43.22504059569156" lon="11.83227124618862"><ele>249.2</ele><time>2026-04-26T12:32:33Z</time></trkpt><trkpt lat="43.224978441662714" lon="11.832386291437384"><ele>248.8</ele><time>2026-04-26T12:32:35Z</time></trkpt><trkpt lat="43.22493126742441" lon="11.83251295542425"><ele>248.4</ele><time>2026-04-26T12:32:37Z</time></trkpt><trkpt lat="43.22489151969925" lon="11.832657401576835"><ele>248.0</ele><time>2026-04-26T12:32:39Z</time></trkpt><trkpt lat="43.22485168514546" lon="11.832804553371393"><ele>247.4</ele><time>2026-04-26T12:32:41Z</time></trkpt><trkpt lat="43.2248142963604" lon="11.832948002649914"><ele>246.8</ele><time>2026-04-26T12:32:43Z</time></trkpt><trkpt lat="43.22477692841422" lon="11.8330897806948"><ele>246.2</ele><time>2026-04-26T12:32:45Z</time></trkpt><trkpt lat="43.224746785786714" lon="11.833218437739209"><ele>245.6</ele><time>2026-04-26T12:32:47Z</time></trkpt><trkpt lat="43.22471921079953" lon="11.83333846759616"><ele>245.0</ele><time>2026-04-26T12:32:49Z</time></trkpt><trkpt lat="43.22469021264265" lon="11.833446753666308"><ele>244.83333333333334</ele><time>2026-04-26T12:32:51Z</time></trkpt><trkpt lat="43.22470687615178" lon="11.833556236208535"><ele>244.66666666666669</ele><time>2026-04-26T12:32:53Z</time></trkpt><trkpt lat="43.22475179682978" lon="11.833650819170876"><ele>244.5</ele><time>2026-04-26T12:32:55Z</time></trkpt><trkpt lat="43.22480416651549" lon="11.833741126772239"><ele>244.33333333333331</ele><time>2026-04-26T12:32:57Z</time></trkpt><trkpt lat="43.22487023867535" lon="11.833825685919221"><ele>244.16666666666666</ele><time>2026-04-26T12:32:59Z</time></trkpt><trkpt lat="43.224949345875764" lon="11.83386888710287"><ele>244.0</ele><time>2026-04-26T12:33:01Z</time></trkpt><trkpt lat="43.22503505685838" lon="11.833890062673927"><ele>244.0</ele><time>2026-04-26T12:33:03Z</time></trkpt><trkpt lat="43.225132376799884" lon="11.833914187396488"><ele>243.99999999999997</ele><time>2026-04-26T12:33:05Z</time></trkpt><trkpt lat="43.22523310581376" lon="11.833939999833735"><ele>243.99999999999997</ele><time>2026-04-26T12:33:07Z</time></trkpt><trkpt lat="43.22533681385492" lon="11.83396708473142"><ele>244.0</ele><time>2026-04-26T12:33:09Z</time></trkpt><trkpt lat="43.22543458613693" lon="11.833982182871607"><ele>244.0</ele><time>2026-04-26T12:33:11Z</time></trkpt><trkpt lat="43.22553787597327" lon="11.834015938659016"><ele>244.0</ele><time>2026-04-26T12:33:13Z</time></trkpt><trkpt lat="43.22564219374625" lon="11.834034614471609"><ele>243.99999999999997</ele><time>2026-04-26T12:33:15Z</time></trkpt><trkpt lat="43.22574930077421" lon="11.834054482315976"><ele>243.99999999999997</ele><time>2026-04-26T12:33:16.999Z</time></trkpt><trkpt lat="43.225847227165936" lon="11.834076621152755"><ele>244.0</ele><time>2026-04-26T12:33:18.999Z</time></trkpt><trkpt lat="43.22593612436797" lon="11.834095123343596"><ele>244.0</ele><time>2026-04-26T12:33:20.999Z</time></trkpt><trkpt lat="43.22602480957382" lon="11.834106346256096"><ele>243.79999999999998</ele><time>2026-04-26T12:33:22.999Z</time></trkpt><trkpt lat="43.226131351729144" lon="11.834135055083964"><ele>243.59999999999997</ele><time>2026-04-26T12:33:24.999Z</time></trkpt><trkpt lat="43.22623894294178" lon="11.834149423230834"><ele>243.4</ele><time>2026-04-26T12:33:26.999Z</time></trkpt><trkpt lat="43.226347953952896" lon="11.834170511396152"><ele>243.2</ele><time>2026-04-26T12:33:28.999Z</time></trkpt><trkpt lat="43.22645431092126" lon="11.834183860362442"><ele>243.0</ele><time>2026-04-26T12:33:30.999Z</time></trkpt><trkpt lat="43.22655513472502" lon="11.834196481156958"><ele>242.83333333333334</ele><time>2026-04-26T12:33:32.999Z</time></trkpt><trkpt lat="43.2266593854648" lon="11.834207598564495"><ele>242.66666666666669</ele><time>2026-04-26T12:33:34.999Z</time></trkpt><trkpt lat="43.22676422998073" lon="11.83422144029127"><ele>242.5</ele><time>2026-04-26T12:33:36.999Z</time></trkpt><trkpt lat="43.22685373486104" lon="11.834217965064484"><ele>242.33333333333334</ele><time>2026-04-26T12:33:39Z</time></trkpt><trkpt lat="43.2269289281088" lon="11.834210919954034"><ele>242.16666666666669</ele><time>2026-04-26T12:33:43Z</time></trkpt><trkpt lat="43.226995310063444" lon="11.834192683126458"><ele>242.0</ele><time>2026-04-26T12:36:13Z</time></trkpt><trkpt lat="43.22706229035551" lon="11.834204651611744"><ele>242.0</ele><time>2026-04-26T12:36:18Z</time></trkpt><trkpt lat="43.22713377959163" lon="11.834196997466938"><ele>241.99999999999997</ele><time>2026-04-26T12:36:22Z</time></trkpt><trkpt lat="43.22722176136064" lon="11.834196663284287"><ele>242.0</ele><time>2026-04-26T12:36:25Z</time></trkpt><trkpt lat="43.22728497581364" lon="11.834187916303058"><ele>242.0</ele><time>2026-04-26T12:36:27Z</time></trkpt><trkpt lat="43.22735065177915" lon="11.834181023031134"><ele>241.99999999999997</ele><time>2026-04-26T12:36:29Z</time></trkpt><trkpt lat="43.227416399549135" lon="11.834174667449533"><ele>242.0</ele><time>2026-04-26T12:36:31Z</time></trkpt><trkpt lat="43.22748248462142" lon="11.83416595934194"><ele>242.0</ele><time>2026-04-26T12:36:33Z</time></trkpt><trkpt lat="43.22754978541544" lon="11.834166612103443"><ele>242.16666666666669</ele><time>2026-04-26T12:36:35Z</time></trkpt><trkpt lat="43.2276218128084" lon="11.834158931989498"><ele>242.33333333333334</ele><time>2026-04-26T12:36:37Z</time></trkpt><trkpt lat="43.22770003798769" lon="11.83415145179992"><ele>242.5</ele><time>2026-04-26T12:36:39Z</time></trkpt><trkpt lat="43.227784816998756" lon="11.834140949322515"><ele>242.66666666666669</ele><time>2026-04-26T12:36:41Z</time></trkpt><trkpt lat="43.227865816934745" lon="11.834125328557134"><ele>242.83333333333334</ele><time>2026-04-26T12:36:43Z</time></trkpt><trkpt lat="43.22793939088742" lon="11.834120052860849"><ele>243.0</ele><time>2026-04-26T12:36:45Z</time></trkpt><trkpt lat="43.228009600544894" lon="11.834111417643474"><ele>243.0</ele><time>2026-04-26T12:36:47Z</time></trkpt><trkpt lat="43.228085616676765" lon="11.834100638875944"><ele>243.0</ele><time>2026-04-26T12:36:49Z</time></trkpt><trkpt lat="43.22815933233245" lon="11.834095939966213"><ele>243.0</ele><time>2026-04-26T12:36:51Z</time></trkpt><trkpt lat="43.22823195503383" lon="11.834085050513902"><ele>243.0</ele><time>2026-04-26T12:36:53Z</time></trkpt><trkpt lat="43.22830932871166" lon="11.83407789135266"><ele>243.0</ele><time>2026-04-26T12:36:55Z</time></trkpt><trkpt lat="43.22839347559905" lon="11.834063615432184"><ele>243.0</ele><time>2026-04-26T12:36:57Z</time></trkpt><trkpt lat="43.22847579242837" lon="11.834054148058307"><ele>243.16666666666666</ele><time>2026-04-26T12:36:59Z</time></trkpt><trkpt lat="43.228559464251404" lon="11.834039463654877"><ele>243.33333333333331</ele><time>2026-04-26T12:37:01Z</time></trkpt><trkpt lat="43.22864075767996" lon="11.834027076035937"><ele>243.5</ele><time>2026-04-26T12:37:03Z</time></trkpt><trkpt lat="43.22872049892432" lon="11.83401860380058"><ele>243.66666666666666</ele><time>2026-04-26T12:37:05Z</time></trkpt><trkpt lat="43.228802344813985" lon="11.834014943965624"><ele>243.83333333333331</ele><time>2026-04-26T12:37:07Z</time></trkpt><trkpt lat="43.22888929912572" lon="11.834001096841442"><ele>244.0</ele><time>2026-04-26T12:37:09Z</time></trkpt><trkpt lat="43.2289809650301" lon="11.833986550160407"><ele>243.99999999999997</ele><time>2026-04-26T12:37:11Z</time></trkpt><trkpt lat="43.22907676387841" lon="11.833982165671065"><ele>244.0</ele><time>2026-04-26T12:37:13Z</time></trkpt><trkpt lat="43.22917054732749" lon="11.833970801432258"><ele>244.0</ele><time>2026-04-26T12:37:15Z</time></trkpt><trkpt lat="43.22925479802348" lon="11.833964420344634"><ele>244.0</ele><time>2026-04-26T12:37:17Z</time></trkpt><trkpt lat="43.229325003259824" lon="11.833953347372637"><ele>243.99999999999997</ele><time>2026-04-26T12:37:19Z</time></trkpt><trkpt lat="43.22939259063688" lon="11.83395550375064"><ele>244.0</ele><time>2026-04-26T12:37:21Z</time></trkpt><trkpt lat="43.22945959658546" lon="11.833954626937862"><ele>243.99999999999997</ele><time>2026-04-26T12:37:23Z</time></trkpt><trkpt lat="43.22953077540898" lon="11.833954284860686"><ele>244.0</ele><time>2026-04-26T12:37:25Z</time></trkpt><trkpt lat="43.22960296822583" lon="11.833954718390569"><ele>244.0</ele><time>2026-04-26T12:37:27Z</time></trkpt><trkpt lat="43.22968215373257" lon="11.833965320963584"><ele>244.0</ele><time>2026-04-26T12:37:29Z</time></trkpt><trkpt lat="43.229763895190295" lon="11.833978073660688"><ele>243.99999999999997</ele><time>2026-04-26T12:37:31Z</time></trkpt><trkpt lat="43.229848321249555" lon="11.833988904385327"><ele>244.0</ele><time>2026-04-26T12:37:33Z</time></trkpt><trkpt lat="43.229938027463945" lon="11.83399681086544"><ele>244.0</ele><time>2026-04-26T12:37:35Z</time></trkpt><trkpt lat="43.2300340487668" lon="11.83400347527508"><ele>243.99999999999997</ele><time>2026-04-26T12:37:37Z</time></trkpt><trkpt lat="43.23013439745113" lon="11.83401491881311"><ele>243.99999999999997</ele><time>2026-04-26T12:37:38.999Z</time></trkpt><trkpt lat="43.23024004665008" lon="11.834024708042023"><ele>244.0</ele><time>2026-04-26T12:37:40.999Z</time></trkpt><trkpt lat="43.23034571982591" lon="11.834032651417898"><ele>244.0</ele><time>2026-04-26T12:37:42.999Z</time></trkpt><trkpt lat="43.23044812436499" lon="11.834041120988884"><ele>244.0</ele><time>2026-04-26T12:37:44.999Z</time></trkpt><trkpt lat="43.23054245353617" lon="11.834050615432432"><ele>243.99999999999997</ele><time>2026-04-26T12:37:46.999Z</time></trkpt><trkpt lat="43.2306348676029" lon="11.834062478014724"><ele>243.99999999999997</ele><time>2026-04-26T12:37:48.999Z</time></trkpt><trkpt lat="43.23072892235744" lon="11.834068395562687"><ele>244.0</ele><time>2026-04-26T12:37:51Z</time></trkpt><trkpt lat="43.230829648473" lon="11.834074713297925"><ele>244.0</ele><time>2026-04-26T12:37:53Z</time></trkpt><trkpt lat="43.230927185618725" lon="11.834082207622057"><ele>244.2</ele><time>2026-04-26T12:37:55Z</time></trkpt><trkpt lat="43.23102699121566" lon="11.834091163439581"><ele>244.39999999999998</ele><time>2026-04-26T12:37:57Z</time></trkpt><trkpt lat="43.23112850659891" lon="11.83409935487833"><ele>244.6</ele><time>2026-04-26T12:37:59Z</time></trkpt><trkpt lat="43.231234058793056" lon="11.834107960627145"><ele>244.8</ele><time>2026-04-26T12:38:01Z</time></trkpt><trkpt lat="43.23133604442232" lon="11.8341173804343"><ele>245.0</ele><time>2026-04-26T12:38:03Z</time></trkpt><trkpt lat="43.23143612482195" lon="11.834128382979289"><ele>244.6</ele><time>2026-04-26T12:38:05Z</time></trkpt><trkpt lat="43.23153421229234" lon="11.83413670786128"><ele>244.2</ele><time>2026-04-26T12:38:07Z</time></trkpt><trkpt lat="43.23163398890127" lon="11.83414375881635"><ele>243.8</ele><time>2026-04-26T12:38:09Z</time></trkpt><trkpt lat="43.23173500151832" lon="11.834152348006524"><ele>243.4</ele><time>2026-04-26T12:38:11Z</time></trkpt><trkpt lat="43.23183780200511" lon="11.834160559180951"><ele>243.0</ele><time>2026-04-26T12:38:13Z</time></trkpt><trkpt lat="43.23193737529444" lon="11.83417011456845"><ele>243.0</ele><time>2026-04-26T12:38:15Z</time></trkpt><trkpt lat="43.232043663142704" lon="11.834172368004223"><ele>243.0</ele><time>2026-04-26T12:38:17Z</time></trkpt><trkpt lat="43.232146076113075" lon="11.834184248377914"><ele>243.0</ele><time>2026-04-26T12:38:19Z</time></trkpt><trkpt lat="43.23225533635224" lon="11.834191721060515"><ele>243.0</ele><time>2026-04-26T12:38:21Z</time></trkpt><trkpt lat="43.23236196629319" lon="11.8342029901536"><ele>243.0</ele><time>2026-04-26T12:38:23Z</time></trkpt><trkpt lat="43.232470780939224" lon="11.834211658712524"><ele>243.0</ele><time>2026-04-26T12:38:25Z</time></trkpt><trkpt lat="43.2325811352826" lon="11.834219234387033"><ele>243.0</ele><time>2026-04-26T12:38:27Z</time></trkpt><trkpt lat="43.23269150875258" lon="11.834231101368445"><ele>243.0</ele><time>2026-04-26T12:38:29Z</time></trkpt><trkpt lat="43.23280180700245" lon="11.834244799836398"><ele>243.0</ele><time>2026-04-26T12:38:31Z</time></trkpt><trkpt lat="43.23291238966818" lon="11.834264874537908"><ele>243.0</ele><time>2026-04-26T12:38:33Z</time></trkpt><trkpt lat="43.23301818627289" lon="11.834296584588337"><ele>243.0</ele><time>2026-04-26T12:38:35Z</time></trkpt><trkpt lat="43.23312339701631" lon="11.834330369645865"><ele>243.0</ele><time>2026-04-26T12:38:37Z</time></trkpt><trkpt lat="43.23322840034077" lon="11.834377605515538"><ele>243.0</ele><time>2026-04-26T12:38:39Z</time></trkpt><trkpt lat="43.233333217431486" lon="11.834428548324336"><ele>243.0</ele><time>2026-04-26T12:38:41Z</time></trkpt><trkpt lat="43.2334406311086" lon="11.834478588628974"><ele>243.0</ele><time>2026-04-26T12:38:43Z</time></trkpt><trkpt lat="43.233546076042124" lon="11.834540933237593"><ele>243.0</ele><time>2026-04-26T12:38:45Z</time></trkpt><trkpt lat="43.233648744428564" lon="11.83461101534274"><ele>243.0</ele><time>2026-04-26T12:38:47Z</time></trkpt><trkpt lat="43.23375021632597" lon="11.834683101498754"><ele>243.0</ele><time>2026-04-26T12:38:49Z</time></trkpt><trkpt lat="43.23385353959826" lon="11.834752681495637"><ele>243.0</ele><time>2026-04-26T12:38:51Z</time></trkpt><trkpt lat="43.23395445177217" lon="11.834829727718422"><ele>243.0</ele><time>2026-04-26T12:38:53Z</time></trkpt><trkpt lat="43.2340510240095" lon="11.834910055275694"><ele>243.0</ele><time>2026-04-26T12:38:55Z</time></trkpt><trkpt lat="43.23414399087653" lon="11.834988815207007"><ele>243.0</ele><time>2026-04-26T12:38:57Z</time></trkpt><trkpt lat="43.234232148628315" lon="11.835051729631871"><ele>243.0</ele><time>2026-04-26T12:38:59Z</time></trkpt><trkpt lat="43.23431791315683" lon="11.835123683704435"><ele>243.0</ele><time>2026-04-26T12:39:01Z</time></trkpt><trkpt lat="43.2344100620095" lon="11.8351873102283"><ele>243.0</ele><time>2026-04-26T12:39:03Z</time></trkpt><trkpt lat="43.23450501388456" lon="11.835264753161628"><ele>243.0</ele><time>2026-04-26T12:39:05Z</time></trkpt><trkpt lat="43.23460568170632" lon="11.835326277184821"><ele>243.0</ele><time>2026-04-26T12:39:07Z</time></trkpt><trkpt lat="43.234695397267856" lon="11.835405622099383"><ele>243.0</ele><time>2026-04-26T12:39:09Z</time></trkpt><trkpt lat="43.2347674407632" lon="11.835472318937999"><ele>243.0</ele><time>2026-04-26T12:39:11Z</time></trkpt><trkpt lat="43.23482476198186" lon="11.835532733800758"><ele>243.16666666666666</ele><time>2026-04-26T12:39:13Z</time></trkpt><trkpt lat="43.234878315528526" lon="11.835596348896939"><ele>243.33333333333331</ele><time>2026-04-26T12:39:31Z</time></trkpt><trkpt lat="43.23493902501499" lon="11.835641071726029"><ele>243.5</ele><time>2026-04-26T12:39:33Z</time></trkpt><trkpt lat="43.234995805577206" lon="11.835712953657914"><ele>243.66666666666666</ele><time>2026-04-26T12:39:35Z</time></trkpt><trkpt lat="43.23508117619665" lon="11.835775158212419"><ele>243.83333333333331</ele><time>2026-04-26T12:39:37Z</time></trkpt><trkpt lat="43.23516417406625" lon="11.835833609757714"><ele>244.0</ele><time>2026-04-26T12:39:39Z</time></trkpt><trkpt lat="43.23524619044217" lon="11.83589154040995"><ele>244.0</ele><time>2026-04-26T12:39:40.999Z</time></trkpt><trkpt lat="43.23533530444049" lon="11.835964215747326"><ele>243.99999999999997</ele><time>2026-04-26T12:39:42.999Z</time></trkpt><trkpt lat="43.235428921630394" lon="11.836036727048553"><ele>243.99999999999997</ele><time>2026-04-26T12:39:44.999Z</time></trkpt><trkpt lat="43.23552436140304" lon="11.83611545625002"><ele>244.0</ele><time>2026-04-26T12:39:46.999Z</time></trkpt><trkpt lat="43.235622864855145" lon="11.836189177143554"><ele>244.0</ele><time>2026-04-26T12:39:48.999Z</time></trkpt><trkpt lat="43.23572106620932" lon="11.8362659240399"><ele>243.39999999999998</ele><time>2026-04-26T12:39:50.999Z</time></trkpt><trkpt lat="43.23581974964862" lon="11.836337055443959"><ele>242.79999999999998</ele><time>2026-04-26T12:39:52.999Z</time></trkpt><trkpt lat="43.235917007121884" lon="11.836407895392636"><ele>242.20000000000002</ele><time>2026-04-26T12:39:54.999Z</time></trkpt><trkpt lat="43.236012752042306" lon="11.836483538309396"><ele>241.60000000000002</ele><time>2026-04-26T12:39:57Z</time></trkpt><trkpt lat="43.236111119916984" lon="11.836548352216449"><ele>241.0</ele><time>2026-04-26T12:39:59Z</time></trkpt><trkpt lat="43.236212824901564" lon="11.836614793867094"><ele>241.0</ele><time>2026-04-26T12:40:01Z</time></trkpt><trkpt lat="43.23631718244684" lon="11.836679145912516"><ele>241.00000000000003</ele><time>2026-04-26T12:40:03Z</time></trkpt><trkpt lat="43.23642223310152" lon="11.836748353320939"><ele>241.00000000000003</ele><time>2026-04-26T12:40:05Z</time></trkpt><trkpt lat="43.23649724299444" lon="11.836795564861132"><ele>241.0</ele><time>2026-04-26T12:40:07Z</time></trkpt><trkpt lat="43.23656273641148" lon="11.83682722655654"><ele>241.0</ele><time>2026-04-26T12:40:18.999Z</time></trkpt><trkpt lat="43.236631826221796" lon="11.836858651056724"><ele>241.20000000000002</ele><time>2026-04-26T12:40:20.999Z</time></trkpt><trkpt lat="43.23671570624328" lon="11.836895109290802"><ele>241.40000000000003</ele><time>2026-04-26T12:40:22.999Z</time></trkpt><trkpt lat="43.236809506220354" lon="11.836934108397536"><ele>241.6</ele><time>2026-04-26T12:40:24.999Z</time></trkpt><trkpt lat="43.23690492145039" lon="11.836975248567487"><ele>241.8</ele><time>2026-04-26T12:40:26.999Z</time></trkpt><trkpt lat="43.2370037846898" lon="11.837006313038255"><ele>242.0</ele><time>2026-04-26T12:40:28.999Z</time></trkpt><trkpt lat="43.23710037129297" lon="11.837034741533987"><ele>242.0</ele><time>2026-04-26T12:40:30.999Z</time></trkpt><trkpt lat="43.23720104625979" lon="11.837064529789021"><ele>242.0</ele><time>2026-04-26T12:40:32.999Z</time></trkpt><trkpt lat="43.23731070434977" lon="11.837099291444074"><ele>242.0</ele><time>2026-04-26T12:40:34.999Z</time></trkpt><trkpt lat="43.23742692961139" lon="11.837132757481701"><ele>242.0</ele><time>2026-04-26T12:40:36.999Z</time></trkpt><trkpt lat="43.2375325317722" lon="11.837167877577645"><ele>242.0</ele><time>2026-04-26T12:40:38.999Z</time></trkpt><trkpt lat="43.23764159487129" lon="11.83719944614269"><ele>242.0</ele><time>2026-04-26T12:40:40.999Z</time></trkpt><trkpt lat="43.23775255476592" lon="11.83723522821379"><ele>242.0</ele><time>2026-04-26T12:40:42.999Z</time></trkpt><trkpt lat="43.2378634000832" lon="11.837265298720505"><ele>242.0</ele><time>2026-04-26T12:40:44.999Z</time></trkpt><trkpt lat="43.23797405445113" lon="11.837301165871697"><ele>242.0</ele><time>2026-04-26T12:40:46.999Z</time></trkpt><trkpt lat="43.238090630835124" lon="11.837335939321694"><ele>242.5</ele><time>2026-04-26T12:40:48.999Z</time></trkpt><trkpt lat="43.23820738912075" lon="11.837372222172675"><ele>243.0</ele><time>2026-04-26T12:40:50.999Z</time></trkpt><trkpt lat="43.238323037118484" lon="11.837402694843163"><ele>243.5</ele><time>2026-04-26T12:40:52.999Z</time></trkpt><trkpt lat="43.2384393185216" lon="11.837438150028982"><ele>244.0</ele><time>2026-04-26T12:40:54.999Z</time></trkpt><trkpt lat="43.238556531411994" lon="11.837477910090659"><ele>244.0</ele><time>2026-04-26T12:40:56.999Z</time></trkpt><trkpt lat="43.238675815235574" lon="11.837515042561268"><ele>243.99999999999997</ele><time>2026-04-26T12:40:58.999Z</time></trkpt><trkpt lat="43.23879502688467" lon="11.837552546003788"><ele>243.99999999999997</ele><time>2026-04-26T12:41:00.999Z</time></trkpt><trkpt lat="43.238915761744146" lon="11.837588627450161"><ele>244.0</ele><time>2026-04-26T12:41:02.999Z</time></trkpt><trkpt lat="43.2389773519501" lon="11.83760745224762"><ele>244.0</ele><time>2026-04-26T12:41:03.999Z</time></trkpt><trkpt lat="43.239098696439946" lon="11.837644478923957"><ele>244.16666666666666</ele><time>2026-04-26T12:41:05.999Z</time></trkpt><trkpt lat="43.2392189606338" lon="11.837682356647598"><ele>244.33333333333331</ele><time>2026-04-26T12:41:07.999Z</time></trkpt><trkpt lat="43.239340900930635" lon="11.837719312834901"><ele>244.5</ele><time>2026-04-26T12:41:09.999Z</time></trkpt><trkpt lat="43.23940381834693" lon="11.837740256177153"><ele>244.66666666666669</ele><time>2026-04-26T12:41:10.999Z</time></trkpt><trkpt lat="43.239466140408645" lon="11.837757755354925"><ele>244.83333333333334</ele><time>2026-04-26T12:41:11.999Z</time></trkpt><trkpt lat="43.239528832420724" lon="11.837776889395274"><ele>245.0</ele><time>2026-04-26T12:41:12.999Z</time></trkpt><trkpt lat="43.23959083455486" lon="11.83779554321005"><ele>245.0</ele><time>2026-04-26T12:41:13.999Z</time></trkpt><trkpt lat="43.23965272718336" lon="11.837813576942121"><ele>245.0</ele><time>2026-04-26T12:41:14.999Z</time></trkpt><trkpt lat="43.239717639964894" lon="11.837835086315465"><ele>245.0</ele><time>2026-04-26T12:41:15.999Z</time></trkpt><trkpt lat="43.23978139068227" lon="11.83785232577895"><ele>245.0</ele><time>2026-04-26T12:41:16.999Z</time></trkpt><trkpt lat="43.239845473133215" lon="11.837870576254156"><ele>245.0</ele><time>2026-04-26T12:41:17.999Z</time></trkpt><trkpt lat="43.23990831479423" lon="11.837890352181265"><ele>245.0</ele><time>2026-04-26T12:41:18.999Z</time></trkpt><trkpt lat="43.23997167463508" lon="11.837909337426844"><ele>245.0</ele><time>2026-04-26T12:41:19.999Z</time></trkpt><trkpt lat="43.24003503262882" lon="11.837929618604308"><ele>244.83333333333334</ele><time>2026-04-26T12:41:20.999Z</time></trkpt><trkpt lat="43.24009869710287" lon="11.837945832407813"><ele>244.66666666666669</ele><time>2026-04-26T12:41:21.999Z</time></trkpt><trkpt lat="43.24022352160628" lon="11.83798208995322"><ele>244.5</ele><time>2026-04-26T12:41:23.999Z</time></trkpt><trkpt lat="43.24028651457978" lon="11.837999240705717"><ele>244.33333333333331</ele><time>2026-04-26T12:41:24.999Z</time></trkpt><trkpt lat="43.24034964616766" lon="11.83801842196637"><ele>244.16666666666666</ele><time>2026-04-26T12:41:25.999Z</time></trkpt><trkpt lat="43.240414223796634" lon="11.838038146627273"><ele>244.0</ele><time>2026-04-26T12:41:26.999Z</time></trkpt><trkpt lat="43.240478206076745" lon="11.838056341877758"><ele>244.0</ele><time>2026-04-26T12:41:27.999Z</time></trkpt><trkpt lat="43.240540693536616" lon="11.838073080878612"><ele>243.99999999999997</ele><time>2026-04-26T12:41:28.999Z</time></trkpt><trkpt lat="43.240662063126855" lon="11.838106916143497"><ele>243.99999999999997</ele><time>2026-04-26T12:41:30.999Z</time></trkpt><trkpt lat="43.24077993371521" lon="11.838139817795048"><ele>244.0</ele><time>2026-04-26T12:41:32.999Z</time></trkpt><trkpt lat="43.24089806479036" lon="11.838173163685282"><ele>244.0</ele><time>2026-04-26T12:41:34.999Z</time></trkpt><trkpt lat="43.24101919683503" lon="11.838203772093431"><ele>243.79999999999998</ele><time>2026-04-26T12:41:36.999Z</time></trkpt><trkpt lat="43.24108255590588" lon="11.838219555547271"><ele>243.59999999999997</ele><time>2026-04-26T12:41:37.999Z</time></trkpt><trkpt lat="43.241203501131885" lon="11.838249705198946"><ele>243.4</ele><time>2026-04-26T12:41:39.999Z</time></trkpt><trkpt lat="43.24132615056729" lon="11.838283035349498"><ele>243.2</ele><time>2026-04-26T12:41:41.999Z</time></trkpt><trkpt lat="43.24145077472393" lon="11.838307165060309"><ele>243.0</ele><time>2026-04-26T12:41:43.999Z</time></trkpt><trkpt lat="43.24151400367553" lon="11.838317160127438"><ele>242.75</ele><time>2026-04-26T12:41:44.999Z</time></trkpt><trkpt lat="43.24163811229291" lon="11.838339433599057"><ele>242.5</ele><time>2026-04-26T12:41:46.999Z</time></trkpt><trkpt lat="43.241754743576834" lon="11.838357516130024"><ele>242.25</ele><time>2026-04-26T12:41:48.999Z</time></trkpt><trkpt lat="43.24186720354802" lon="11.838370605540016"><ele>242.0</ele><time>2026-04-26T12:41:50.999Z</time></trkpt><trkpt lat="43.24198191332453" lon="11.838380221565481"><ele>242.0</ele><time>2026-04-26T12:41:52.999Z</time></trkpt><trkpt lat="43.24209299894937" lon="11.838386056125936"><ele>242.0</ele><time>2026-04-26T12:41:54.999Z</time></trkpt><trkpt lat="43.24220089431503" lon="11.838396724711771"><ele>242.0</ele><time>2026-04-26T12:41:56.999Z</time></trkpt><trkpt lat="43.24231025080381" lon="11.838401116390068"><ele>242.0</ele><time>2026-04-26T12:41:58.999Z</time></trkpt><trkpt lat="43.242420076629664" lon="11.838404578635716"><ele>242.0</ele><time>2026-04-26T12:42:00.999Z</time></trkpt><trkpt lat="43.24252817807814" lon="11.83841246845285"><ele>241.8</ele><time>2026-04-26T12:42:03Z</time></trkpt><trkpt lat="43.242632829633465" lon="11.838416406212378"><ele>241.6</ele><time>2026-04-26T12:42:05Z</time></trkpt><trkpt lat="43.242735003499824" lon="11.83842168351325"><ele>241.40000000000003</ele><time>2026-04-26T12:42:07Z</time></trkpt><trkpt lat="43.24284167999421" lon="11.838426380881055"><ele>241.20000000000002</ele><time>2026-04-26T12:42:09Z</time></trkpt><trkpt lat="43.24295118147414" lon="11.838431538979114"><ele>241.0</ele><time>2026-04-26T12:42:11Z</time></trkpt><trkpt lat="43.24306695455603" lon="11.838437092993988"><ele>241.4</ele><time>2026-04-26T12:42:13Z</time></trkpt><trkpt lat="43.24318672317519" lon="11.838440437522937"><ele>241.8</ele><time>2026-04-26T12:42:15Z</time></trkpt><trkpt lat="43.24330873387188" lon="11.838448269101141"><ele>242.20000000000002</ele><time>2026-04-26T12:42:17Z</time></trkpt><trkpt lat="43.24343366662775" lon="11.838453889046383"><ele>242.60000000000002</ele><time>2026-04-26T12:42:19Z</time></trkpt><trkpt lat="43.24349963028617" lon="11.838455326246745"><ele>243.0</ele><time>2026-04-26T12:42:20Z</time></trkpt><trkpt lat="43.24356341215748" lon="11.83845573865562"><ele>243.0</ele><time>2026-04-26T12:42:21Z</time></trkpt><trkpt lat="43.2436283126784" lon="11.838462946212347"><ele>243.0</ele><time>2026-04-26T12:42:22Z</time></trkpt><trkpt lat="43.243691812803156" lon="11.838466827291615"><ele>243.0</ele><time>2026-04-26T12:42:23Z</time></trkpt><trkpt lat="43.24375624108819" lon="11.838469794738652"><ele>243.0</ele><time>2026-04-26T12:42:24Z</time></trkpt><trkpt lat="43.24381950123852" lon="11.838468657591491"><ele>243.0</ele><time>2026-04-26T12:42:25Z</time></trkpt><trkpt lat="43.24388349552557" lon="11.838472753327826"><ele>243.0</ele><time>2026-04-26T12:42:26Z</time></trkpt><trkpt lat="43.24400761668128" lon="11.838479022329551"><ele>243.0</ele><time>2026-04-26T12:42:28Z</time></trkpt><trkpt lat="43.24412886289799" lon="11.838485931417473"><ele>243.0</ele><time>2026-04-26T12:42:29.999Z</time></trkpt><trkpt lat="43.244192363482945" lon="11.838490250189091"><ele>243.0</ele><time>2026-04-26T12:42:30.999Z</time></trkpt><trkpt lat="43.244257380712625" lon="11.83849230392264"><ele>243.0</ele><time>2026-04-26T12:42:31.999Z</time></trkpt><trkpt lat="43.24432374593077" lon="11.83849399910186"><ele>243.0</ele><time>2026-04-26T12:42:32.999Z</time></trkpt><trkpt lat="43.24439233264825" lon="11.838499281166456"><ele>243.0</ele><time>2026-04-26T12:42:33.999Z</time></trkpt><trkpt lat="43.24445855717521" lon="11.838502946976073"><ele>243.0</ele><time>2026-04-26T12:42:34.999Z</time></trkpt><trkpt lat="43.2445235714939" lon="11.838504967655561"><ele>243.0</ele><time>2026-04-26T12:42:35.999Z</time></trkpt><trkpt lat="43.24458823556527" lon="11.838509503709863"><ele>243.0</ele><time>2026-04-26T12:42:36.999Z</time></trkpt><trkpt lat="43.2446529104069" lon="11.838512824541624"><ele>243.0</ele><time>2026-04-26T12:42:37.999Z</time></trkpt><trkpt lat="43.244717689246954" lon="11.83851866304466"><ele>243.0</ele><time>2026-04-26T12:42:38.999Z</time></trkpt><trkpt lat="43.24484288830349" lon="11.83852184844652"><ele>243.0</ele><time>2026-04-26T12:42:40.999Z</time></trkpt><trkpt lat="43.24496817950697" lon="11.838526876487235"><ele>243.0</ele><time>2026-04-26T12:42:42.999Z</time></trkpt><trkpt lat="43.24509344469012" lon="11.838532347782142"><ele>243.14285714285714</ele><time>2026-04-26T12:42:44.999Z</time></trkpt><trkpt lat="43.24516005508624" lon="11.83854086716252"><ele>243.28571428571428</ele><time>2026-04-26T12:42:45.999Z</time></trkpt><trkpt lat="43.24522680965213" lon="11.838542878224688"><ele>243.42857142857142</ele><time>2026-04-26T12:42:46.999Z</time></trkpt><trkpt lat="43.2452936501078" lon="11.838545948199553"><ele>243.57142857142856</ele><time>2026-04-26T12:42:47.999Z</time></trkpt><trkpt lat="43.24536322838726" lon="11.838548963613746"><ele>243.71428571428572</ele><time>2026-04-26T12:42:48.999Z</time></trkpt><trkpt lat="43.2454313108563" lon="11.838551556427854"><ele>243.85714285714283</ele><time>2026-04-26T12:42:49.999Z</time></trkpt><trkpt lat="43.24549833709228" lon="11.838556699020964"><ele>243.99999999999997</ele><time>2026-04-26T12:42:50.999Z</time></trkpt><trkpt lat="43.245563685107015" lon="11.838558675576722"><ele>243.99999999999997</ele><time>2026-04-26T12:42:51.999Z</time></trkpt><trkpt lat="43.245628158269525" lon="11.838563293368962"><ele>244.0</ele><time>2026-04-26T12:42:52.999Z</time></trkpt><trkpt lat="43.24575433543621" lon="11.838568517404514"><ele>244.0</ele><time>2026-04-26T12:42:54.999Z</time></trkpt><trkpt lat="43.24581933214496" lon="11.83857392430656"><ele>244.0</ele><time>2026-04-26T12:42:55.999Z</time></trkpt><trkpt lat="43.245883742781444" lon="11.838574769136615"><ele>243.99999999999997</ele><time>2026-04-26T12:42:56.999Z</time></trkpt><trkpt lat="43.24594760364745" lon="11.838575788794575"><ele>244.0</ele><time>2026-04-26T12:42:57.999Z</time></trkpt><trkpt lat="43.24601516972628" lon="11.838578408273529"><ele>243.85714285714283</ele><time>2026-04-26T12:42:58.999Z</time></trkpt><trkpt lat="43.24608161044025" lon="11.83858194866846"><ele>243.71428571428572</ele><time>2026-04-26T12:42:59.999Z</time></trkpt><trkpt lat="43.24614978635888" lon="11.838587086592046"><ele>243.57142857142856</ele><time>2026-04-26T12:43:00.999Z</time></trkpt><trkpt lat="43.246217871803026" lon="11.838592116077768"><ele>243.42857142857142</ele><time>2026-04-26T12:43:01.999Z</time></trkpt><trkpt lat="43.24628210337718" lon="11.838593845182743"><ele>243.28571428571428</ele><time>2026-04-26T12:43:02.999Z</time></trkpt><trkpt lat="43.246349790932584" lon="11.838598889046734"><ele>243.14285714285714</ele><time>2026-04-26T12:43:03.999Z</time></trkpt><trkpt lat="43.246417143530905" lon="11.838601355744542"><ele>243.0</ele><time>2026-04-26T12:43:04.999Z</time></trkpt><trkpt lat="43.24648273563888" lon="11.83860376270524"><ele>242.85714285714283</ele><time>2026-04-26T12:43:05.999Z</time></trkpt><trkpt lat="43.246550659408804" lon="11.83860776911561"><ele>242.71428571428572</ele><time>2026-04-26T12:43:06.999Z</time></trkpt><trkpt lat="43.24661888122479" lon="11.838610441022045"><ele>242.57142857142856</ele><time>2026-04-26T12:43:07.999Z</time></trkpt><trkpt lat="43.246683448596144" lon="11.838613961950287"><ele>242.42857142857142</ele><time>2026-04-26T12:43:08.999Z</time></trkpt><trkpt lat="43.246752131180074" lon="11.83861977770312"><ele>242.28571428571428</ele><time>2026-04-26T12:43:09.999Z</time></trkpt><trkpt lat="43.24681894577948" lon="11.838620950697004"><ele>242.14285714285714</ele><time>2026-04-26T12:43:10.999Z</time></trkpt><trkpt lat="43.24688529233342" lon="11.838625716916015"><ele>242.0</ele><time>2026-04-26T12:43:11.999Z</time></trkpt><trkpt lat="43.24695227950317" lon="11.838629710009767"><ele>242.0</ele><time>2026-04-26T12:43:12.999Z</time></trkpt><trkpt lat="43.24701910228923" lon="11.838631102338926"><ele>241.99999999999997</ele><time>2026-04-26T12:43:13.999Z</time></trkpt><trkpt lat="43.24708622553234" lon="11.838634283295828"><ele>242.0</ele><time>2026-04-26T12:43:14.999Z</time></trkpt><trkpt lat="43.24715454633506" lon="11.838638105287096"><ele>242.0</ele><time>2026-04-26T12:43:15.999Z</time></trkpt><trkpt lat="43.247221046474216" lon="11.838642611942648"><ele>241.99999999999997</ele><time>2026-04-26T12:43:16.999Z</time></trkpt><trkpt lat="43.24728796386249" lon="11.83864840585677"><ele>242.0</ele><time>2026-04-26T12:43:17.999Z</time></trkpt><trkpt lat="43.247353929997175" lon="11.838651032675823"><ele>242.0</ele><time>2026-04-26T12:43:18.999Z</time></trkpt><trkpt lat="43.24741889731033" lon="11.838651295089539"><ele>242.28571428571428</ele><time>2026-04-26T12:43:19.999Z</time></trkpt><trkpt lat="43.24748375171316" lon="11.838654996962436"><ele>242.57142857142856</ele><time>2026-04-26T12:43:20.999Z</time></trkpt><trkpt lat="43.24754927630414" lon="11.838657726878331"><ele>242.85714285714283</ele><time>2026-04-26T12:43:21.999Z</time></trkpt><trkpt lat="43.24761355244201" lon="11.838660750413402"><ele>243.1428571428571</ele><time>2026-04-26T12:43:22.999Z</time></trkpt><trkpt lat="43.247680133494455" lon="11.838664529397997"><ele>243.42857142857142</ele><time>2026-04-26T12:43:23.999Z</time></trkpt><trkpt lat="43.24774366767024" lon="11.838668116859079"><ele>243.71428571428567</ele><time>2026-04-26T12:43:24.999Z</time></trkpt><trkpt lat="43.24780793830125" lon="11.838670434876619"><ele>243.99999999999997</ele><time>2026-04-26T12:43:25.999Z</time></trkpt><trkpt lat="43.24787366010202" lon="11.838672648801081"><ele>243.99999999999997</ele><time>2026-04-26T12:43:26.999Z</time></trkpt><trkpt lat="43.24793779761984" lon="11.83867671530442"><ele>244.0</ele><time>2026-04-26T12:43:27.999Z</time></trkpt><trkpt lat="43.248003044447366" lon="11.83868090307655"><ele>244.0</ele><time>2026-04-26T12:43:28.999Z</time></trkpt><trkpt lat="43.248132421063964" lon="11.838688477537481"><ele>244.0</ele><time>2026-04-26T12:43:30.999Z</time></trkpt><trkpt lat="43.24819563843394" lon="11.838691462730493"><ele>243.99999999999997</ele><time>2026-04-26T12:43:31.999Z</time></trkpt><trkpt lat="43.248260541695615" lon="11.838692303992154"><ele>244.0</ele><time>2026-04-26T12:43:32.999Z</time></trkpt><trkpt lat="43.24832796469524" lon="11.838697690422503"><ele>243.85714285714283</ele><time>2026-04-26T12:43:33.999Z</time></trkpt><trkpt lat="43.24839447535102" lon="11.83869974894304"><ele>243.71428571428572</ele><time>2026-04-26T12:43:34.999Z</time></trkpt><trkpt lat="43.248463710038195" lon="11.838702367585846"><ele>243.57142857142856</ele><time>2026-04-26T12:43:35.999Z</time></trkpt><trkpt lat="43.2485339251823" lon="11.83870540683006"><ele>243.42857142857142</ele><time>2026-04-26T12:43:36.999Z</time></trkpt><trkpt lat="43.24860067692145" lon="11.838708725913943"><ele>243.28571428571428</ele><time>2026-04-26T12:43:37.999Z</time></trkpt><trkpt lat="43.248668058751846" lon="11.838712891817293"><ele>243.14285714285714</ele><time>2026-04-26T12:43:38.999Z</time></trkpt><trkpt lat="43.24873633576032" lon="11.838716136919047"><ele>243.0</ele><time>2026-04-26T12:43:39.999Z</time></trkpt><trkpt lat="43.24880474395706" lon="11.838719487278848"><ele>243.0</ele><time>2026-04-26T12:43:40.999Z</time></trkpt><trkpt lat="43.24887290624729" lon="11.838724500333674"><ele>243.0</ele><time>2026-04-26T12:43:41.999Z</time></trkpt><trkpt lat="43.24894350157415" lon="11.838726515023264"><ele>243.0</ele><time>2026-04-26T12:43:42.999Z</time></trkpt><trkpt lat="43.249015280123075" lon="11.838731903188414"><ele>243.0</ele><time>2026-04-26T12:43:43.999Z</time></trkpt><trkpt lat="43.24908710271792" lon="11.838736508123036"><ele>243.0</ele><time>2026-04-26T12:43:44.999Z</time></trkpt><trkpt lat="43.2491601397868" lon="11.8387395389516"><ele>243.0</ele><time>2026-04-26T12:43:45.999Z</time></trkpt><trkpt lat="43.24923235396848" lon="11.838742964131962"><ele>243.0</ele><time>2026-04-26T12:43:46.999Z</time></trkpt><trkpt lat="43.24930274520379" lon="11.838745014724507"><ele>242.85714285714283</ele><time>2026-04-26T12:43:47.999Z</time></trkpt><trkpt lat="43.249372164684374" lon="11.838750067315212"><ele>242.71428571428572</ele><time>2026-04-26T12:43:48.999Z</time></trkpt><trkpt lat="43.24944105843346" lon="11.83875359217101"><ele>242.57142857142856</ele><time>2026-04-26T12:43:49.999Z</time></trkpt><trkpt lat="43.249509816737564" lon="11.838755620761164"><ele>242.42857142857142</ele><time>2026-04-26T12:43:50.999Z</time></trkpt><trkpt lat="43.249577433759804" lon="11.838757099669168"><ele>242.28571428571428</ele><time>2026-04-26T12:43:51.999Z</time></trkpt><trkpt lat="43.249646671716434" lon="11.838761112065546"><ele>242.14285714285714</ele><time>2026-04-26T12:43:52.999Z</time></trkpt><trkpt lat="43.249715738767186" lon="11.83876571811054"><ele>242.0</ele><time>2026-04-26T12:43:53.999Z</time></trkpt><trkpt lat="43.24978281692148" lon="11.83876966084121"><ele>242.0</ele><time>2026-04-26T12:43:54.999Z</time></trkpt><trkpt lat="43.24984871022168" lon="11.838771999388873"><ele>241.99999999999997</ele><time>2026-04-26T12:43:55.999Z</time></trkpt><trkpt lat="43.249917347348365" lon="11.838775701377704"><ele>242.0</ele><time>2026-04-26T12:43:56.999Z</time></trkpt><trkpt lat="43.24998322434236" lon="11.838779980543032"><ele>242.0</ele><time>2026-04-26T12:43:57.999Z</time></trkpt><trkpt lat="43.250047494610925" lon="11.838780711898591"><ele>241.99999999999997</ele><time>2026-04-26T12:43:58.999Z</time></trkpt><trkpt lat="43.250113498588746" lon="11.83878552008339"><ele>242.0</ele><time>2026-04-26T12:43:59.999Z</time></trkpt><trkpt lat="43.25018172747074" lon="11.838790709654596"><ele>242.0</ele><time>2026-04-26T12:44:00.999Z</time></trkpt><trkpt lat="43.25024979938672" lon="11.838793445161402"><ele>242.0</ele><time>2026-04-26T12:44:01.999Z</time></trkpt><trkpt lat="43.25031885757299" lon="11.838794185659241"><ele>241.99999999999997</ele><time>2026-04-26T12:44:02.999Z</time></trkpt><trkpt lat="43.25038945720784" lon="11.838800302330059"><ele>242.0</ele><time>2026-04-26T12:44:03.999Z</time></trkpt><trkpt lat="43.250459481825" lon="11.838804154455968"><ele>242.0</ele><time>2026-04-26T12:44:04.999Z</time></trkpt><trkpt lat="43.250526379606434" lon="11.838807688445295"><ele>241.99999999999997</ele><time>2026-04-26T12:44:05.999Z</time></trkpt><trkpt lat="43.25059500182661" lon="11.838810038420151"><ele>242.0</ele><time>2026-04-26T12:44:06.999Z</time></trkpt><trkpt lat="43.250662829477555" lon="11.83881327594582"><ele>242.0</ele><time>2026-04-26T12:44:08Z</time></trkpt><trkpt lat="43.25073275093447" lon="11.838815821647149"><ele>242.14285714285714</ele><time>2026-04-26T12:44:09Z</time></trkpt><trkpt lat="43.25079935846734" lon="11.83882088828873"><ele>242.28571428571428</ele><time>2026-04-26T12:44:10Z</time></trkpt><trkpt lat="43.25086498562981" lon="11.83882511536458"><ele>242.42857142857142</ele><time>2026-04-26T12:44:11Z</time></trkpt><trkpt lat="43.25093191076199" lon="11.838827218033273"><ele>242.57142857142856</ele><time>2026-04-26T12:44:12Z</time></trkpt><trkpt lat="43.25099825324748" lon="11.838827646047307"><ele>242.71428571428572</ele><time>2026-04-26T12:44:13Z</time></trkpt><trkpt lat="43.251066062335305" lon="11.838832126952154"><ele>242.85714285714283</ele><time>2026-04-26T12:44:14Z</time></trkpt><trkpt lat="43.251131842388446" lon="11.83883399789485"><ele>243.0</ele><time>2026-04-26T12:44:15Z</time></trkpt><trkpt lat="43.25119879503112" lon="11.838838593066297"><ele>243.0</ele><time>2026-04-26T12:44:16Z</time></trkpt><trkpt lat="43.25126614784395" lon="11.838841064195005"><ele>243.0</ele><time>2026-04-26T12:44:17Z</time></trkpt><trkpt lat="43.25133615816668" lon="11.8388440333145"><ele>243.0</ele><time>2026-04-26T12:44:18Z</time></trkpt><trkpt lat="43.2514046114871" lon="11.838846743908382"><ele>243.0</ele><time>2026-04-26T12:44:19Z</time></trkpt><trkpt lat="43.251475151394374" lon="11.838851136956505"><ele>243.0</ele><time>2026-04-26T12:44:20Z</time></trkpt><trkpt lat="43.251544479023366" lon="11.838853439700623"><ele>243.0</ele><time>2026-04-26T12:44:21Z</time></trkpt><trkpt lat="43.25161282782168" lon="11.838858451667724"><ele>243.0</ele><time>2026-04-26T12:44:22Z</time></trkpt><trkpt lat="43.251677995173324" lon="11.838860080369773"><ele>243.0</ele><time>2026-04-26T12:44:23Z</time></trkpt><trkpt lat="43.25174221567314" lon="11.838862001132336"><ele>243.0</ele><time>2026-04-26T12:44:24Z</time></trkpt><trkpt lat="43.25180752908056" lon="11.838864592458869"><ele>243.0</ele><time>2026-04-26T12:44:25Z</time></trkpt><trkpt lat="43.251872613111715" lon="11.83886799074321"><ele>243.0</ele><time>2026-04-26T12:44:26Z</time></trkpt><trkpt lat="43.25193765966789" lon="11.838872904174998"><ele>243.0</ele><time>2026-04-26T12:44:27Z</time></trkpt><trkpt lat="43.25200587273744" lon="11.838877221650424"><ele>243.0</ele><time>2026-04-26T12:44:28Z</time></trkpt><trkpt lat="43.252075048073216" lon="11.838879879546088"><ele>243.0</ele><time>2026-04-26T12:44:29Z</time></trkpt><trkpt lat="43.25214420193594" lon="11.8388831075363"><ele>243.0</ele><time>2026-04-26T12:44:30Z</time></trkpt><trkpt lat="43.252215829373604" lon="11.838887518689162"><ele>243.0</ele><time>2026-04-26T12:44:31Z</time></trkpt><trkpt lat="43.252285636156934" lon="11.838892481329145"><ele>243.0</ele><time>2026-04-26T12:44:32Z</time></trkpt><trkpt lat="43.25235415063947" lon="11.838896793885054"><ele>243.0</ele><time>2026-04-26T12:44:33Z</time></trkpt><trkpt lat="43.2524207046043" lon="11.838900092227133"><ele>243.0</ele><time>2026-04-26T12:44:34Z</time></trkpt><trkpt lat="43.25248712158142" lon="11.838902395361016"><ele>243.0</ele><time>2026-04-26T12:44:35Z</time></trkpt><trkpt lat="43.25255559251469" lon="11.838905973430728"><ele>243.0</ele><time>2026-04-26T12:44:36Z</time></trkpt><trkpt lat="43.25262141183926" lon="11.83890676712552"><ele>242.85714285714283</ele><time>2026-04-26T12:44:37Z</time></trkpt><trkpt lat="43.252690255852656" lon="11.838909850617553"><ele>242.71428571428572</ele><time>2026-04-26T12:44:38Z</time></trkpt><trkpt lat="43.25275825277041" lon="11.838912050485453"><ele>242.57142857142856</ele><time>2026-04-26T12:44:39Z</time></trkpt><trkpt lat="43.25282636999529" lon="11.838917286734604"><ele>242.42857142857142</ele><time>2026-04-26T12:44:40Z</time></trkpt><trkpt lat="43.25289649516484" lon="11.838920344827347"><ele>242.28571428571428</ele><time>2026-04-26T12:44:41Z</time></trkpt><trkpt lat="43.2529635458001" lon="11.838922522492084"><ele>242.14285714285714</ele><time>2026-04-26T12:44:42Z</time></trkpt><trkpt lat="43.25303274777287" lon="11.83892644128485"><ele>242.0</ele><time>2026-04-26T12:44:43Z</time></trkpt><trkpt lat="43.253103967831755" lon="11.838931931789546"><ele>242.28571428571428</ele><time>2026-04-26T12:44:44Z</time></trkpt><trkpt lat="43.2531736688149" lon="11.83893362493429"><ele>242.57142857142856</ele><time>2026-04-26T12:44:45Z</time></trkpt><trkpt lat="43.25324040276692" lon="11.8389358715938"><ele>242.85714285714283</ele><time>2026-04-26T12:44:46Z</time></trkpt><trkpt lat="43.253306238130996" lon="11.838938907525085"><ele>243.1428571428571</ele><time>2026-04-26T12:44:47Z</time></trkpt><trkpt lat="43.253371525169996" lon="11.838942754803027"><ele>243.42857142857142</ele><time>2026-04-26T12:44:48Z</time></trkpt><trkpt lat="43.253436696917085" lon="11.838943625877516"><ele>243.71428571428567</ele><time>2026-04-26T12:44:48.999Z</time></trkpt><trkpt lat="43.253504767695716" lon="11.838942764678114"><ele>243.99999999999997</ele><time>2026-04-26T12:44:49.999Z</time></trkpt><trkpt lat="43.25357663348164" lon="11.838947793083822"><ele>243.99999999999997</ele><time>2026-04-26T12:44:50.999Z</time></trkpt><trkpt lat="43.2536471856258" lon="11.83895332708458"><ele>244.0</ele><time>2026-04-26T12:44:51.999Z</time></trkpt><trkpt lat="43.25371641499366" lon="11.838956294507172"><ele>243.99999999999997</ele><time>2026-04-26T12:44:52.999Z</time></trkpt><trkpt lat="43.25378600391107" lon="11.838958948433039"><ele>243.99999999999997</ele><time>2026-04-26T12:44:53.999Z</time></trkpt><trkpt lat="43.25385569275446" lon="11.838962723417225"><ele>244.0</ele><time>2026-04-26T12:44:54.999Z</time></trkpt><trkpt lat="43.25392611541812" lon="11.838968144851965"><ele>243.99999999999997</ele><time>2026-04-26T12:44:55.999Z</time></trkpt><trkpt lat="43.253996420175035" lon="11.838970852547307"><ele>243.99999999999997</ele><time>2026-04-26T12:44:56.999Z</time></trkpt><trkpt lat="43.2540682896261" lon="11.838972532327027"><ele>243.99999999999997</ele><time>2026-04-26T12:44:57.999Z</time></trkpt><trkpt lat="43.25413792148063" lon="11.838974208309017"><ele>244.0</ele><time>2026-04-26T12:44:58.999Z</time></trkpt><trkpt lat="43.25421021420118" lon="11.838976424641292"><ele>243.99999999999997</ele><time>2026-04-26T12:44:59.999Z</time></trkpt><trkpt lat="43.254281897388445" lon="11.838981116773741"><ele>243.99999999999997</ele><time>2026-04-26T12:45:00.999Z</time></trkpt><trkpt lat="43.254354525073275" lon="11.838987495926656"><ele>244.0</ele><time>2026-04-26T12:45:01.999Z</time></trkpt><trkpt lat="43.254425957659244" lon="11.838991979657147"><ele>243.99999999999997</ele><time>2026-04-26T12:45:02.999Z</time></trkpt><trkpt lat="43.254493743407366" lon="11.838993992550282"><ele>243.99999999999997</ele><time>2026-04-26T12:45:03.999Z</time></trkpt><trkpt lat="43.25456416960572" lon="11.838998164691398"><ele>243.99999999999997</ele><time>2026-04-26T12:45:04.999Z</time></trkpt><trkpt lat="43.25463282247079" lon="11.839001755129285"><ele>244.0</ele><time>2026-04-26T12:45:05.999Z</time></trkpt><trkpt lat="43.25470028606502" lon="11.83900594705793"><ele>243.99999999999997</ele><time>2026-04-26T12:45:06.999Z</time></trkpt><trkpt lat="43.254768330690695" lon="11.839007847838403"><ele>243.99999999999997</ele><time>2026-04-26T12:45:07.999Z</time></trkpt><trkpt lat="43.25483585356148" lon="11.839009520647457"><ele>244.0</ele><time>2026-04-26T12:45:08.999Z</time></trkpt><trkpt lat="43.25490478967921" lon="11.839011612703752"><ele>243.99999999999997</ele><time>2026-04-26T12:45:09.999Z</time></trkpt><trkpt lat="43.25497353956997" lon="11.839013969586174"><ele>243.99999999999997</ele><time>2026-04-26T12:45:10.999Z</time></trkpt><trkpt lat="43.25504076627115" lon="11.839018160019751"><ele>243.71428571428567</ele><time>2026-04-26T12:45:11.999Z</time></trkpt><trkpt lat="43.255110345273195" lon="11.839021594709521"><ele>243.42857142857142</ele><time>2026-04-26T12:45:12.999Z</time></trkpt><trkpt lat="43.25518253112633" lon="11.839025510795404"><ele>243.1428571428571</ele><time>2026-04-26T12:45:13.999Z</time></trkpt><trkpt lat="43.25525185240298" lon="11.839030724352165"><ele>242.85714285714283</ele><time>2026-04-26T12:45:14.999Z</time></trkpt><trkpt lat="43.25532085653432" lon="11.8390339942886"><ele>242.57142857142856</ele><time>2026-04-26T12:45:15.999Z</time></trkpt><trkpt lat="43.255385633668325" lon="11.839037290665791"><ele>242.28571428571428</ele><time>2026-04-26T12:45:16.999Z</time></trkpt><trkpt lat="43.25544981094942" lon="11.839039091690276"><ele>242.0</ele><time>2026-04-26T12:45:17.999Z</time></trkpt><trkpt lat="43.255516401197866" lon="11.839043384474078"><ele>242.0</ele><time>2026-04-26T12:45:18.999Z</time></trkpt><trkpt lat="43.25558195837055" lon="11.839045335062758"><ele>241.99999999999997</ele><time>2026-04-26T12:45:19.999Z</time></trkpt><trkpt lat="43.25564704101467" lon="11.839048975892714"><ele>242.0</ele><time>2026-04-26T12:45:20.999Z</time></trkpt><trkpt lat="43.25571274165767" lon="11.839053466810933"><ele>242.0</ele><time>2026-04-26T12:45:21.999Z</time></trkpt><trkpt lat="43.25577957731411" lon="11.839058247298704"><ele>241.99999999999997</ele><time>2026-04-26T12:45:22.999Z</time></trkpt><trkpt lat="43.25584413785448" lon="11.839060369955918"><ele>242.0</ele><time>2026-04-26T12:45:23.999Z</time></trkpt><trkpt lat="43.25591018247708" lon="11.83906210924867"><ele>242.0</ele><time>2026-04-26T12:45:24.999Z</time></trkpt><trkpt lat="43.255978274246296" lon="11.839065946153182"><ele>242.14285714285714</ele><time>2026-04-26T12:45:25.999Z</time></trkpt><trkpt lat="43.25604579991824" lon="11.839069472855316"><ele>242.28571428571428</ele><time>2026-04-26T12:45:26.999Z</time></trkpt><trkpt lat="43.25611610275337" lon="11.839074449562704"><ele>242.42857142857142</ele><time>2026-04-26T12:45:27.999Z</time></trkpt><trkpt lat="43.256184570482645" lon="11.839078588275772"><ele>242.57142857142856</ele><time>2026-04-26T12:45:28.999Z</time></trkpt><trkpt lat="43.25625154999759" lon="11.839080338548113"><ele>242.71428571428572</ele><time>2026-04-26T12:45:29.999Z</time></trkpt><trkpt lat="43.25631954431984" lon="11.839082240265492"><ele>242.85714285714283</ele><time>2026-04-26T12:45:30.999Z</time></trkpt><trkpt lat="43.25638392252443" lon="11.839084649079451"><ele>243.0</ele><time>2026-04-26T12:45:31.999Z</time></trkpt><trkpt lat="43.25644943445886" lon="11.83908965326631"><ele>243.0</ele><time>2026-04-26T12:45:32.999Z</time></trkpt><trkpt lat="43.25651579188988" lon="11.839090606487375"><ele>243.0</ele><time>2026-04-26T12:45:33.999Z</time></trkpt><trkpt lat="43.25658413368926" lon="11.839095076191416"><ele>243.0</ele><time>2026-04-26T12:45:34.999Z</time></trkpt><trkpt lat="43.256652282622014" lon="11.83909639500731"><ele>243.0</ele><time>2026-04-26T12:45:35.999Z</time></trkpt><trkpt lat="43.25671930974173" lon="11.83909892600914"><ele>243.0</ele><time>2026-04-26T12:45:36.999Z</time></trkpt><trkpt lat="43.25678753651064" lon="11.83910282958159"><ele>243.0</ele><time>2026-04-26T12:45:37.999Z</time></trkpt><trkpt lat="43.2568546087717" lon="11.839107903562196"><ele>243.0</ele><time>2026-04-26T12:45:38.999Z</time></trkpt><trkpt lat="43.256921326058205" lon="11.839112010088687"><ele>243.0</ele><time>2026-04-26T12:45:39.999Z</time></trkpt><trkpt lat="43.256987927065296" lon="11.839113538213022"><ele>243.0</ele><time>2026-04-26T12:45:40.999Z</time></trkpt><trkpt lat="43.257057554713086" lon="11.839116952268494"><ele>243.0</ele><time>2026-04-26T12:45:41.999Z</time></trkpt><trkpt lat="43.25712520976344" lon="11.839121230136794"><ele>243.0</ele><time>2026-04-26T12:45:42.999Z</time></trkpt><trkpt lat="43.257193207017174" lon="11.839126251505446"><ele>243.0</ele><time>2026-04-26T12:45:43.999Z</time></trkpt><trkpt lat="43.2572600140655" lon="11.83912995769008"><ele>243.0</ele><time>2026-04-26T12:45:44.999Z</time></trkpt><trkpt lat="43.2573248731875" lon="11.839131385233015"><ele>243.0</ele><time>2026-04-26T12:45:45.999Z</time></trkpt><trkpt lat="43.257390097565704" lon="11.839133675129421"><ele>243.16666666666666</ele><time>2026-04-26T12:45:46.999Z</time></trkpt><trkpt lat="43.25751621825234" lon="11.839141707237221"><ele>243.33333333333331</ele><time>2026-04-26T12:45:48.999Z</time></trkpt><trkpt lat="43.25758089314264" lon="11.839143629867012"><ele>243.5</ele><time>2026-04-26T12:45:49.999Z</time></trkpt><trkpt lat="43.257647400673925" lon="11.839148352704871"><ele>243.66666666666666</ele><time>2026-04-26T12:45:50.999Z</time></trkpt><trkpt lat="43.257712861234694" lon="11.839149771259954"><ele>243.83333333333331</ele><time>2026-04-26T12:45:51.999Z</time></trkpt><trkpt lat="43.257779703883834" lon="11.839152721632006"><ele>244.0</ele><time>2026-04-26T12:45:52.999Z</time></trkpt><trkpt lat="43.257847302505326" lon="11.839155841963452"><ele>243.99999999999997</ele><time>2026-04-26T12:45:53.999Z</time></trkpt><trkpt lat="43.25791385342295" lon="11.83915976074034"><ele>244.0</ele><time>2026-04-26T12:45:54.999Z</time></trkpt><trkpt lat="43.25798126643999" lon="11.839165116748694"><ele>243.99999999999997</ele><time>2026-04-26T12:45:55.999Z</time></trkpt><trkpt lat="43.25804816657125" lon="11.839165535704144"><ele>243.99999999999997</ele><time>2026-04-26T12:45:56.999Z</time></trkpt><trkpt lat="43.258113544224365" lon="11.839168094729384"><ele>244.0</ele><time>2026-04-26T12:45:57.999Z</time></trkpt><trkpt lat="43.25817925580909" lon="11.839172110484013"><ele>243.99999999999997</ele><time>2026-04-26T12:45:58.999Z</time></trkpt><trkpt lat="43.25824706346677" lon="11.839176564915293"><ele>243.99999999999997</ele><time>2026-04-26T12:45:59.999Z</time></trkpt><trkpt lat="43.25831335351842" lon="11.839179474652758"><ele>243.85714285714283</ele><time>2026-04-26T12:46:00.999Z</time></trkpt><trkpt lat="43.258379839382755" lon="11.839181941901716"><ele>243.71428571428572</ele><time>2026-04-26T12:46:01.999Z</time></trkpt><trkpt lat="43.25845080989152" lon="11.839187558325042"><ele>243.57142857142856</ele><time>2026-04-26T12:46:02.999Z</time></trkpt><trkpt lat="43.25852221426142" lon="11.83919104200692"><ele>243.42857142857142</ele><time>2026-04-26T12:46:03.999Z</time></trkpt><trkpt lat="43.25859160799079" lon="11.839195987988294"><ele>243.28571428571428</ele><time>2026-04-26T12:46:04.999Z</time></trkpt><trkpt lat="43.25866231418843" lon="11.83919852543828"><ele>243.14285714285714</ele><time>2026-04-26T12:46:05.999Z</time></trkpt><trkpt lat="43.25873109491221" lon="11.839197604885358"><ele>243.0</ele><time>2026-04-26T12:46:06.999Z</time></trkpt><trkpt lat="43.25880027065764" lon="11.839201881355715"><ele>243.0</ele><time>2026-04-26T12:46:07.999Z</time></trkpt><trkpt lat="43.25886548834513" lon="11.839203731981705"><ele>243.0</ele><time>2026-04-26T12:46:08.999Z</time></trkpt><trkpt lat="43.25892997871366" lon="11.839208244571177"><ele>243.0</ele><time>2026-04-26T12:46:09.999Z</time></trkpt><trkpt lat="43.25899722419192" lon="11.839210677632716"><ele>243.0</ele><time>2026-04-26T12:46:10.999Z</time></trkpt><trkpt lat="43.25906531029962" lon="11.839213238027606"><ele>243.0</ele><time>2026-04-26T12:46:11.999Z</time></trkpt><trkpt lat="43.259131883454565" lon="11.839217244389392"><ele>243.0</ele><time>2026-04-26T12:46:13Z</time></trkpt><trkpt lat="43.25919884076058" lon="11.839222372408113"><ele>243.0</ele><time>2026-04-26T12:46:14Z</time></trkpt><trkpt lat="43.25926699553108" lon="11.839224936203754"><ele>243.14285714285714</ele><time>2026-04-26T12:46:15Z</time></trkpt><trkpt lat="43.259333866445154" lon="11.839229249553314"><ele>243.28571428571428</ele><time>2026-04-26T12:46:16Z</time></trkpt><trkpt lat="43.25939922467622" lon="11.839233708062505"><ele>243.42857142857142</ele><time>2026-04-26T12:46:17Z</time></trkpt><trkpt lat="43.259464855055164" lon="11.83923680436633"><ele>243.57142857142856</ele><time>2026-04-26T12:46:18Z</time></trkpt><trkpt lat="43.25952922679555" lon="11.839238205797232"><ele>243.71428571428572</ele><time>2026-04-26T12:46:19Z</time></trkpt><trkpt lat="43.2595943685162" lon="11.839241265198053"><ele>243.85714285714283</ele><time>2026-04-26T12:46:20Z</time></trkpt><trkpt lat="43.25966035681521" lon="11.839243103539491"><ele>243.99999999999997</ele><time>2026-04-26T12:46:21Z</time></trkpt><trkpt lat="43.259725842764944" lon="11.839245077435729"><ele>243.85714285714283</ele><time>2026-04-26T12:46:22Z</time></trkpt><trkpt lat="43.25979434779794" lon="11.839247863550998"><ele>243.71428571428572</ele><time>2026-04-26T12:46:23Z</time></trkpt><trkpt lat="43.259860281816785" lon="11.839252207780726"><ele>243.57142857142856</ele><time>2026-04-26T12:46:24Z</time></trkpt><trkpt lat="43.25992995917612" lon="11.839256085170305"><ele>243.42857142857142</ele><time>2026-04-26T12:46:25Z</time></trkpt><trkpt lat="43.25999839895402" lon="11.839257332939082"><ele>243.28571428571428</ele><time>2026-04-26T12:46:26Z</time></trkpt><trkpt lat="43.26006795355562" lon="11.839262624086418"><ele>243.14285714285714</ele><time>2026-04-26T12:46:27Z</time></trkpt><trkpt lat="43.260139102218666" lon="11.839264917652654"><ele>243.0</ele><time>2026-04-26T12:46:28Z</time></trkpt><trkpt lat="43.26020774329732" lon="11.839269777775929"><ele>243.0</ele><time>2026-04-26T12:46:29Z</time></trkpt><trkpt lat="43.26027637105369" lon="11.839272316681496"><ele>243.0</ele><time>2026-04-26T12:46:30Z</time></trkpt><trkpt lat="43.260345690702" lon="11.839275678828987"><ele>243.0</ele><time>2026-04-26T12:46:31Z</time></trkpt><trkpt lat="43.26041634410429" lon="11.839280950335851"><ele>243.0</ele><time>2026-04-26T12:46:32Z</time></trkpt><trkpt lat="43.260485426758464" lon="11.839284930835781"><ele>243.0</ele><time>2026-04-26T12:46:33Z</time></trkpt><trkpt lat="43.26055488620573" lon="11.83928777896331"><ele>243.0</ele><time>2026-04-26T12:46:34Z</time></trkpt><trkpt lat="43.26062437109256" lon="11.839288121857306"><ele>243.0</ele><time>2026-04-26T12:46:35Z</time></trkpt><trkpt lat="43.260694243437825" lon="11.839292499140004"><ele>243.0</ele><time>2026-04-26T12:46:36Z</time></trkpt><trkpt lat="43.26076239285096" lon="11.839295139690496"><ele>243.0</ele><time>2026-04-26T12:46:37Z</time></trkpt><trkpt lat="43.26082871158886" lon="11.839294335942537"><ele>243.0</ele><time>2026-04-26T12:46:38Z</time></trkpt><trkpt lat="43.26089497056601" lon="11.83930022194987"><ele>243.0</ele><time>2026-04-26T12:46:39Z</time></trkpt><trkpt lat="43.26095971700504" lon="11.839303915750852"><ele>243.0</ele><time>2026-04-26T12:46:40Z</time></trkpt><trkpt lat="43.26102417667092" lon="11.839307381741738"><ele>243.0</ele><time>2026-04-26T12:46:41Z</time></trkpt><trkpt lat="43.261088529562436" lon="11.83931012293776"><ele>243.0</ele><time>2026-04-26T12:46:42Z</time></trkpt><trkpt lat="43.26115230424676" lon="11.83931442525095"><ele>243.0</ele><time>2026-04-26T12:46:43Z</time></trkpt><trkpt lat="43.261269630988146" lon="11.839331605429619"><ele>243.0</ele><time>2026-04-26T12:46:45Z</time></trkpt><trkpt lat="43.2613638908881" lon="11.839301079800494"><ele>243.0</ele><time>2026-04-26T12:46:47Z</time></trkpt><trkpt lat="43.2614314927148" lon="11.839275334257993"><ele>243.0</ele><time>2026-04-26T12:46:49Z</time></trkpt><trkpt lat="43.26143397636172" lon="11.839405595561706"><ele>243.0</ele><time>2026-04-26T12:46:53Z</time></trkpt><trkpt lat="43.26142624120974" lon="11.839534825109698"><ele>242.8</ele><time>2026-04-26T12:46:55Z</time></trkpt><trkpt lat="43.26141854135923" lon="11.839680700457848"><ele>242.60000000000002</ele><time>2026-04-26T12:46:57Z</time></trkpt><trkpt lat="43.2614139668009" lon="11.839826325973897"><ele>242.39999999999998</ele><time>2026-04-26T12:46:59Z</time></trkpt><trkpt lat="43.261403045368986" lon="11.839967192105066"><ele>242.2</ele><time>2026-04-26T12:47:01Z</time></trkpt><trkpt lat="43.26141938432807" lon="11.84008378419397"><ele>242.0</ele><time>2026-04-26T12:47:03Z</time></trkpt><trkpt lat="43.26151800695903" lon="11.840159060723346"><ele>242.39999999999998</ele><time>2026-04-26T12:47:04.999Z</time></trkpt><trkpt lat="43.26161604399433" lon="11.840206158150933"><ele>242.79999999999998</ele><time>2026-04-26T12:47:06.999Z</time></trkpt><trkpt lat="43.261712276505044" lon="11.840249648999439"><ele>243.2</ele><time>2026-04-26T12:47:08.999Z</time></trkpt><trkpt lat="43.261800010882666" lon="11.840298821338196"><ele>243.6</ele><time>2026-04-26T12:47:10.999Z</time></trkpt><trkpt lat="43.26186888340191" lon="11.84036048705988"><ele>244.0</ele><time>2026-04-26T12:47:12.999Z</time></trkpt><trkpt lat="43.2619602498544" lon="11.840430387893623"><ele>244.0</ele><time>2026-04-26T12:47:14.999Z</time></trkpt><trkpt lat="43.26206341462115" lon="11.840496180847818"><ele>244.0</ele><time>2026-04-26T12:47:16.999Z</time></trkpt><trkpt lat="43.262351024488815" lon="11.840110678021876"><ele>244.0</ele><time>2026-04-26T12:47:18.999Z</time></trkpt><trkpt lat="43.26241574447513" lon="11.840116468449141"><ele>243.99999999999997</ele><time>2026-04-26T12:47:19.999Z</time></trkpt><trkpt lat="43.262538359199084" lon="11.840125338410866"><ele>243.99999999999997</ele><time>2026-04-26T12:47:21.999Z</time></trkpt><trkpt lat="43.26266005751658" lon="11.840128864985093"><ele>244.0</ele><time>2026-04-26T12:47:23.999Z</time></trkpt><trkpt lat="43.26278465200057" lon="11.840134274921889"><ele>244.0</ele><time>2026-04-26T12:47:25.999Z</time></trkpt><trkpt lat="43.26291022359788" lon="11.840139348519548"><ele>244.1428571428571</ele><time>2026-04-26T12:47:27.999Z</time></trkpt><trkpt lat="43.262975597807745" lon="11.840142675998294"><ele>244.28571428571428</ele><time>2026-04-26T12:47:28.999Z</time></trkpt><trkpt lat="43.26303923373048" lon="11.840144393872958"><ele>244.42857142857142</ele><time>2026-04-26T12:47:29.999Z</time></trkpt><trkpt lat="43.26310320862459" lon="11.840147542136759"><ele>244.57142857142856</ele><time>2026-04-26T12:47:30.999Z</time></trkpt><trkpt lat="43.26316640386732" lon="11.840152703785748"><ele>244.71428571428572</ele><time>2026-04-26T12:47:31.999Z</time></trkpt><trkpt lat="43.26323024033306" lon="11.840157476624109"><ele>244.85714285714286</ele><time>2026-04-26T12:47:32.999Z</time></trkpt><trkpt lat="43.26329344678077" lon="11.840160681527223"><ele>245.0</ele><time>2026-04-26T12:47:33.999Z</time></trkpt><trkpt lat="43.263421278278486" lon="11.840165934480137"><ele>244.42857142857144</ele><time>2026-04-26T12:47:35.999Z</time></trkpt><trkpt lat="43.263487478826875" lon="11.840168500499836"><ele>243.85714285714286</ele><time>2026-04-26T12:47:36.999Z</time></trkpt><trkpt lat="43.26355561261728" lon="11.840172904202335"><ele>243.28571428571428</ele><time>2026-04-26T12:47:37.999Z</time></trkpt><trkpt lat="43.26362426947842" lon="11.840177684847836"><ele>242.71428571428572</ele><time>2026-04-26T12:47:38.999Z</time></trkpt><trkpt lat="43.2636939176961" lon="11.840181916521251"><ele>242.14285714285717</ele><time>2026-04-26T12:47:39.999Z</time></trkpt><trkpt lat="43.26376129151875" lon="11.840186168183076"><ele>241.57142857142858</ele><time>2026-04-26T12:47:40.999Z</time></trkpt><trkpt lat="43.2638294376541" lon="11.840188747175336"><ele>241.0</ele><time>2026-04-26T12:47:41.999Z</time></trkpt><trkpt lat="43.26389552630703" lon="11.84019048698804"><ele>241.14285714285717</ele><time>2026-04-26T12:47:42.999Z</time></trkpt><trkpt lat="43.263962132640316" lon="11.840193681205127"><ele>241.2857142857143</ele><time>2026-04-26T12:47:43.999Z</time></trkpt><trkpt lat="43.26402797071204" lon="11.840196858058992"><ele>241.42857142857144</ele><time>2026-04-26T12:47:44.999Z</time></trkpt><trkpt lat="43.26409350191294" lon="11.840202422430217"><ele>241.57142857142856</ele><time>2026-04-26T12:47:45.999Z</time></trkpt><trkpt lat="43.264158993496565" lon="11.840203373324226"><ele>241.7142857142857</ele><time>2026-04-26T12:47:46.999Z</time></trkpt><trkpt lat="43.26422384307335" lon="11.840204260130294"><ele>241.85714285714283</ele><time>2026-04-26T12:47:47.999Z</time></trkpt><trkpt lat="43.26428877517074" lon="11.840208680887441"><ele>242.0</ele><time>2026-04-26T12:47:48.999Z</time></trkpt><trkpt lat="43.264353308544145" lon="11.840211800487344"><ele>242.0</ele><time>2026-04-26T12:47:49.999Z</time></trkpt><trkpt lat="43.26441925041905" lon="11.840217190168449"><ele>241.99999999999997</ele><time>2026-04-26T12:47:50.999Z</time></trkpt><trkpt lat="43.26448660702254" lon="11.840220131159965"><ele>242.0</ele><time>2026-04-26T12:47:51.999Z</time></trkpt><trkpt lat="43.26455361095469" lon="11.84022149773629"><ele>242.0</ele><time>2026-04-26T12:47:52.999Z</time></trkpt><trkpt lat="43.26462102480509" lon="11.840226454564297"><ele>241.99999999999997</ele><time>2026-04-26T12:47:53.999Z</time></trkpt><trkpt lat="43.26468914093935" lon="11.840231712705595"><ele>242.0</ele><time>2026-04-26T12:47:54.999Z</time></trkpt><trkpt lat="43.264759380024145" lon="11.840235190415546"><ele>242.0</ele><time>2026-04-26T12:47:55.999Z</time></trkpt><trkpt lat="43.264827788422025" lon="11.84023800517039"><ele>242.14285714285714</ele><time>2026-04-26T12:47:56.999Z</time></trkpt><trkpt lat="43.26489741942717" lon="11.840242251439415"><ele>242.28571428571428</ele><time>2026-04-26T12:47:57.999Z</time></trkpt><trkpt lat="43.264966559537775" lon="11.840246460328382"><ele>242.42857142857142</ele><time>2026-04-26T12:47:58.999Z</time></trkpt><trkpt lat="43.26503544619812" lon="11.840246740584671"><ele>242.57142857142856</ele><time>2026-04-26T12:47:59.999Z</time></trkpt><trkpt lat="43.26510532905908" lon="11.840248694279955"><ele>242.71428571428572</ele><time>2026-04-26T12:48:00.999Z</time></trkpt><trkpt lat="43.26517151788581" lon="11.84025554963368"><ele>242.85714285714283</ele><time>2026-04-26T12:48:01.999Z</time></trkpt><trkpt lat="43.26523842688405" lon="11.84025584161375"><ele>243.0</ele><time>2026-04-26T12:48:02.999Z</time></trkpt><trkpt lat="43.26530621400911" lon="11.840261476501944"><ele>243.0</ele><time>2026-04-26T12:48:03.999Z</time></trkpt><trkpt lat="43.26537289942606" lon="11.840265652695306"><ele>243.0</ele><time>2026-04-26T12:48:04.999Z</time></trkpt><trkpt lat="43.26544139095126" lon="11.840269547486065"><ele>243.0</ele><time>2026-04-26T12:48:05.999Z</time></trkpt><trkpt lat="43.26551164069631" lon="11.840273425673423"><ele>243.0</ele><time>2026-04-26T12:48:06.999Z</time></trkpt><trkpt lat="43.26558074401248" lon="11.840277519569632"><ele>243.0</ele><time>2026-04-26T12:48:07.999Z</time></trkpt><trkpt lat="43.26564757084908" lon="11.840281818535614"><ele>243.0</ele><time>2026-04-26T12:48:08.999Z</time></trkpt><trkpt lat="43.265714696714824" lon="11.840287191935433"><ele>243.0</ele><time>2026-04-26T12:48:09.999Z</time></trkpt><trkpt lat="43.2657791290594" lon="11.840289546446732"><ele>243.0</ele><time>2026-04-26T12:48:10.999Z</time></trkpt><trkpt lat="43.265842358114334" lon="11.840292667078623"><ele>243.0</ele><time>2026-04-26T12:48:11.999Z</time></trkpt><trkpt lat="43.26590815430484" lon="11.840295292748088"><ele>243.0</ele><time>2026-04-26T12:48:12.999Z</time></trkpt><trkpt lat="43.265971103372244" lon="11.84029724138747"><ele>243.0</ele><time>2026-04-26T12:48:13.999Z</time></trkpt><trkpt lat="43.26609381974294" lon="11.840303902352987"><ele>243.0</ele><time>2026-04-26T12:48:15.999Z</time></trkpt><trkpt lat="43.26621754126228" lon="11.840309042301017"><ele>243.0</ele><time>2026-04-26T12:48:17.999Z</time></trkpt><trkpt lat="43.26633844335319" lon="11.840317774056011"><ele>242.75</ele><time>2026-04-26T12:48:20Z</time></trkpt><trkpt lat="43.26645879263467" lon="11.840318815435857"><ele>242.5</ele><time>2026-04-26T12:48:22Z</time></trkpt><trkpt lat="43.26657958730966" lon="11.840329002549707"><ele>242.25</ele><time>2026-04-26T12:48:24Z</time></trkpt><trkpt lat="43.266696639716024" lon="11.840331892939917"><ele>242.0</ele><time>2026-04-26T12:48:26Z</time></trkpt><trkpt lat="43.266817679974764" lon="11.840339661537172"><ele>242.00000000000003</ele><time>2026-04-26T12:48:28Z</time></trkpt><trkpt lat="43.26694422902532" lon="11.840345168631115"><ele>242.0</ele><time>2026-04-26T12:48:30Z</time></trkpt><trkpt lat="43.26700940202971" lon="11.84035207060921"><ele>242.0</ele><time>2026-04-26T12:48:31Z</time></trkpt><trkpt lat="43.26707533697631" lon="11.840353913267228"><ele>242.0</ele><time>2026-04-26T12:48:32Z</time></trkpt><trkpt lat="43.26714106645873" lon="11.840356978465724"><ele>242.00000000000003</ele><time>2026-04-26T12:48:33Z</time></trkpt><trkpt lat="43.267207466729865" lon="11.840360224845625"><ele>242.0</ele><time>2026-04-26T12:48:34Z</time></trkpt><trkpt lat="43.26727383526264" lon="11.840365638744053"><ele>242.14285714285714</ele><time>2026-04-26T12:48:35Z</time></trkpt><trkpt lat="43.267340798941554" lon="11.840367632068132"><ele>242.28571428571428</ele><time>2026-04-26T12:48:36Z</time></trkpt><trkpt lat="43.26740945872443" lon="11.840369050458035"><ele>242.42857142857142</ele><time>2026-04-26T12:48:37Z</time></trkpt><trkpt lat="43.26748165956998" lon="11.840372828356378"><ele>242.57142857142856</ele><time>2026-04-26T12:48:38Z</time></trkpt><trkpt lat="43.267553821376175" lon="11.840376269473532"><ele>242.71428571428572</ele><time>2026-04-26T12:48:39Z</time></trkpt><trkpt lat="43.26762729140052" lon="11.840378812740699"><ele>242.85714285714283</ele><time>2026-04-26T12:48:40Z</time></trkpt><trkpt lat="43.26769928675576" lon="11.840384450706402"><ele>243.0</ele><time>2026-04-26T12:48:41Z</time></trkpt><trkpt lat="43.26777056236927" lon="11.840389515306011"><ele>243.0</ele><time>2026-04-26T12:48:42Z</time></trkpt><trkpt lat="43.267842948988076" lon="11.840392377081615"><ele>243.0</ele><time>2026-04-26T12:48:43Z</time></trkpt><trkpt lat="43.26791502642259" lon="11.840393941430499"><ele>243.0</ele><time>2026-04-26T12:48:44Z</time></trkpt><trkpt lat="43.26798612974554" lon="11.840397056498299"><ele>243.0</ele><time>2026-04-26T12:48:45Z</time></trkpt><trkpt lat="43.268054303233654" lon="11.840402804163146"><ele>243.0</ele><time>2026-04-26T12:48:46Z</time></trkpt><trkpt lat="43.26812135590927" lon="11.84040196913175"><ele>243.0</ele><time>2026-04-26T12:48:47Z</time></trkpt><trkpt lat="43.2681842371994" lon="11.840406484027717"><ele>243.0</ele><time>2026-04-26T12:48:48Z</time></trkpt><trkpt lat="43.26831101680087" lon="11.840405403460135"><ele>243.0</ele><time>2026-04-26T12:48:50Z</time></trkpt><trkpt lat="43.26837998031141" lon="11.840410547720573"><ele>243.0</ele><time>2026-04-26T12:48:51Z</time></trkpt><trkpt lat="43.26845206012549" lon="11.840416158973298"><ele>243.0</ele><time>2026-04-26T12:48:52Z</time></trkpt><trkpt lat="43.26852408390413" lon="11.840423255444943"><ele>243.0</ele><time>2026-04-26T12:48:53Z</time></trkpt><trkpt lat="43.2685960552853" lon="11.84042524255907"><ele>243.0</ele><time>2026-04-26T12:48:54Z</time></trkpt><trkpt lat="43.268667694175036" lon="11.8404278795048"><ele>243.0</ele><time>2026-04-26T12:48:55Z</time></trkpt><trkpt lat="43.268739583105145" lon="11.84043230086949"><ele>243.0</ele><time>2026-04-26T12:48:56Z</time></trkpt><trkpt lat="43.26880981624166" lon="11.840437159535146"><ele>243.0</ele><time>2026-04-26T12:48:57Z</time></trkpt><trkpt lat="43.26887978310632" lon="11.840441454970382"><ele>243.0</ele><time>2026-04-26T12:48:58Z</time></trkpt><trkpt lat="43.26894781720116" lon="11.840445640732575"><ele>243.0</ele><time>2026-04-26T12:48:59Z</time></trkpt><trkpt lat="43.269015376853375" lon="11.840450173900345"><ele>243.0</ele><time>2026-04-26T12:49:00Z</time></trkpt><trkpt lat="43.26908284617514" lon="11.84045397219744"><ele>243.0</ele><time>2026-04-26T12:49:01Z</time></trkpt><trkpt lat="43.26915145943181" lon="11.840457119187656"><ele>243.0</ele><time>2026-04-26T12:49:02Z</time></trkpt><trkpt lat="43.269223653853324" lon="11.840461379295444"><ele>243.0</ele><time>2026-04-26T12:49:03Z</time></trkpt><trkpt lat="43.26929287031718" lon="11.840464036808468"><ele>243.0</ele><time>2026-04-26T12:49:04Z</time></trkpt><trkpt lat="43.26936396349241" lon="11.840468474204346"><ele>243.0</ele><time>2026-04-26T12:49:05Z</time></trkpt><trkpt lat="43.26943542434613" lon="11.84047319271546"><ele>243.0</ele><time>2026-04-26T12:49:06Z</time></trkpt><trkpt lat="43.26950740487068" lon="11.84047735966268"><ele>243.0</ele><time>2026-04-26T12:49:07Z</time></trkpt><trkpt lat="43.26958286744206" lon="11.84047874143113"><ele>243.0</ele><time>2026-04-26T12:49:08Z</time></trkpt><trkpt lat="43.269658774289276" lon="11.840484007451597"><ele>243.0</ele><time>2026-04-26T12:49:09Z</time></trkpt><trkpt lat="43.269733452321425" lon="11.840488324831206"><ele>243.0</ele><time>2026-04-26T12:49:10Z</time></trkpt><trkpt lat="43.26980779010389" lon="11.840490235167472"><ele>243.0</ele><time>2026-04-26T12:49:11Z</time></trkpt><trkpt lat="43.269883110316165" lon="11.840493559601338"><ele>243.0</ele><time>2026-04-26T12:49:12Z</time></trkpt><trkpt lat="43.26995791191614" lon="11.840498260659231"><ele>243.0</ele><time>2026-04-26T12:49:13Z</time></trkpt><trkpt lat="43.27003223973872" lon="11.840503188665052"><ele>243.0</ele><time>2026-04-26T12:49:14Z</time></trkpt><trkpt lat="43.2701051974403" lon="11.840507065585701"><ele>243.0</ele><time>2026-04-26T12:49:15Z</time></trkpt><trkpt lat="43.27018065606437" lon="11.84051210003228"><ele>243.0</ele><time>2026-04-26T12:49:16Z</time></trkpt><trkpt lat="43.270255747893856" lon="11.840516337355526"><ele>243.0</ele><time>2026-04-26T12:49:17Z</time></trkpt><trkpt lat="43.27032975457519" lon="11.840520272518777"><ele>243.0</ele><time>2026-04-26T12:49:18Z</time></trkpt><trkpt lat="43.2704054961124" lon="11.840526590093313"><ele>243.0</ele><time>2026-04-26T12:49:19Z</time></trkpt><trkpt lat="43.270478475053274" lon="11.840527045941746"><ele>243.0</ele><time>2026-04-26T12:49:20Z</time></trkpt><trkpt lat="43.270550973842596" lon="11.840532046427198"><ele>243.0</ele><time>2026-04-26T12:49:20.999Z</time></trkpt><trkpt lat="43.270624278282924" lon="11.84053738643436"><ele>243.0</ele><time>2026-04-26T12:49:21.999Z</time></trkpt><trkpt lat="43.2706950426739" lon="11.840541376049526"><ele>243.0</ele><time>2026-04-26T12:49:22.999Z</time></trkpt><trkpt lat="43.27076674855078" lon="11.840544856554597"><ele>243.0</ele><time>2026-04-26T12:49:23.999Z</time></trkpt><trkpt lat="43.27083773279082" lon="11.840547803604732"><ele>243.14285714285714</ele><time>2026-04-26T12:49:24.999Z</time></trkpt><trkpt lat="43.270908071884854" lon="11.84055057069355"><ele>243.28571428571428</ele><time>2026-04-26T12:49:25.999Z</time></trkpt><trkpt lat="43.270980774728066" lon="11.840555218529158"><ele>243.42857142857142</ele><time>2026-04-26T12:49:26.999Z</time></trkpt><trkpt lat="43.27105387475958" lon="11.840558800469324"><ele>243.57142857142856</ele><time>2026-04-26T12:49:27.999Z</time></trkpt><trkpt lat="43.271127441637724" lon="11.840561764901459"><ele>243.71428571428572</ele><time>2026-04-26T12:49:28.999Z</time></trkpt><trkpt lat="43.2712003804478" lon="11.840566084022335"><ele>243.85714285714283</ele><time>2026-04-26T12:49:29.999Z</time></trkpt><trkpt lat="43.27127503196752" lon="11.840570383311833"><ele>243.99999999999997</ele><time>2026-04-26T12:49:30.999Z</time></trkpt><trkpt lat="43.27134668906792" lon="11.840575201977378"><ele>243.99999999999997</ele><time>2026-04-26T12:49:31.999Z</time></trkpt><trkpt lat="43.27142092230688" lon="11.840579879936932"><ele>244.0</ele><time>2026-04-26T12:49:32.999Z</time></trkpt><trkpt lat="43.27149281017322" lon="11.840583570518824"><ele>243.99999999999997</ele><time>2026-04-26T12:49:33.999Z</time></trkpt><trkpt lat="43.271566515110635" lon="11.840588096882378"><ele>243.99999999999997</ele><time>2026-04-26T12:49:34.999Z</time></trkpt><trkpt lat="43.27164137871155" lon="11.840591723991285"><ele>244.0</ele><time>2026-04-26T12:49:35.999Z</time></trkpt><trkpt lat="43.271715776183925" lon="11.840596348805311"><ele>243.99999999999997</ele><time>2026-04-26T12:49:36.999Z</time></trkpt><trkpt lat="43.27179119767344" lon="11.84060003435038"><ele>243.99999999999997</ele><time>2026-04-26T12:49:37.999Z</time></trkpt><trkpt lat="43.27186665749588" lon="11.840603289466786"><ele>243.99999999999997</ele><time>2026-04-26T12:49:38.999Z</time></trkpt><trkpt lat="43.27194266627457" lon="11.840607697502806"><ele>244.0</ele><time>2026-04-26T12:49:39.999Z</time></trkpt><trkpt lat="43.27201769988469" lon="11.840610116463536"><ele>244.0</ele><time>2026-04-26T12:49:40.999Z</time></trkpt><trkpt lat="43.272094130611656" lon="11.840614240349984"><ele>244.0</ele><time>2026-04-26T12:49:41.999Z</time></trkpt><trkpt lat="43.27217063580046" lon="11.840618456468505"><ele>243.99999999999997</ele><time>2026-04-26T12:49:42.999Z</time></trkpt><trkpt lat="43.272245840410434" lon="11.840619998475844"><ele>244.0</ele><time>2026-04-26T12:49:43.999Z</time></trkpt><trkpt lat="43.27231878818498" lon="11.840622976460722"><ele>243.71428571428567</ele><time>2026-04-26T12:49:44.999Z</time></trkpt><trkpt lat="43.27238998624713" lon="11.840626727967157"><ele>243.42857142857142</ele><time>2026-04-26T12:49:45.999Z</time></trkpt><trkpt lat="43.272459767710586" lon="11.840633033162446"><ele>243.1428571428571</ele><time>2026-04-26T12:49:46.999Z</time></trkpt><trkpt lat="43.27252725300611" lon="11.840634734968212"><ele>242.85714285714283</ele><time>2026-04-26T12:49:47.999Z</time></trkpt><trkpt lat="43.272597652249985" lon="11.840637126376793"><ele>242.57142857142856</ele><time>2026-04-26T12:49:48.999Z</time></trkpt><trkpt lat="43.27267009942068" lon="11.840642373447766"><ele>242.28571428571428</ele><time>2026-04-26T12:49:49.999Z</time></trkpt><trkpt lat="43.27274135458442" lon="11.840644792830043"><ele>242.0</ele><time>2026-04-26T12:49:50.999Z</time></trkpt><trkpt lat="43.27281199058528" lon="11.84064804844759"><ele>242.0</ele><time>2026-04-26T12:49:51.999Z</time></trkpt><trkpt lat="43.27288224034956" lon="11.840651259500609"><ele>241.99999999999997</ele><time>2026-04-26T12:49:52.999Z</time></trkpt><trkpt lat="43.272952810579454" lon="11.840654395176303"><ele>242.0</ele><time>2026-04-26T12:49:53.999Z</time></trkpt><trkpt lat="43.27302500104062" lon="11.84065703356964"><ele>242.0</ele><time>2026-04-26T12:49:54.999Z</time></trkpt><trkpt lat="43.27309559643893" lon="11.840659923369197"><ele>241.99999999999997</ele><time>2026-04-26T12:49:55.999Z</time></trkpt><trkpt lat="43.273164753059746" lon="11.840661838618514"><ele>242.0</ele><time>2026-04-26T12:49:56.999Z</time></trkpt><trkpt lat="43.273235699087294" lon="11.840667147569063"><ele>242.0</ele><time>2026-04-26T12:49:57.999Z</time></trkpt><trkpt lat="43.27330792316106" lon="11.840670408470597"><ele>241.85714285714283</ele><time>2026-04-26T12:49:58.999Z</time></trkpt><trkpt lat="43.27338116815586" lon="11.840673332152095"><ele>241.7142857142857</ele><time>2026-04-26T12:49:59.999Z</time></trkpt><trkpt lat="43.2734545244455" lon="11.840678737042115"><ele>241.57142857142856</ele><time>2026-04-26T12:50:00.999Z</time></trkpt><trkpt lat="43.27352725316762" lon="11.840683367184827"><ele>241.42857142857144</ele><time>2026-04-26T12:50:01.999Z</time></trkpt><trkpt lat="43.273598192122535" lon="11.840686349164095"><ele>241.2857142857143</ele><time>2026-04-26T12:50:02.999Z</time></trkpt><trkpt lat="43.27367014011553" lon="11.840690270593004"><ele>241.14285714285717</ele><time>2026-04-26T12:50:03.999Z</time></trkpt><trkpt lat="43.27374242653375" lon="11.840697194721189"><ele>241.0</ele><time>2026-04-26T12:50:04.999Z</time></trkpt><trkpt lat="43.273815407814254" lon="11.840700734215332"><ele>241.0</ele><time>2026-04-26T12:50:05.999Z</time></trkpt><trkpt lat="43.27388578772812" lon="11.840703863141592"><ele>241.00000000000003</ele><time>2026-04-26T12:50:06.999Z</time></trkpt><trkpt lat="43.2739572898862" lon="11.840708459444404"><ele>241.0</ele><time>2026-04-26T12:50:07.999Z</time></trkpt><trkpt lat="43.27403123293615" lon="11.8407103972802"><ele>241.0</ele><time>2026-04-26T12:50:08.999Z</time></trkpt><trkpt lat="43.27410047278486" lon="11.840713995752035"><ele>241.00000000000003</ele><time>2026-04-26T12:50:09.999Z</time></trkpt><trkpt lat="43.27417275702101" lon="11.840719123505375"><ele>241.0</ele><time>2026-04-26T12:50:10.999Z</time></trkpt><trkpt lat="43.27424406517545" lon="11.840722822878329"><ele>241.0</ele><time>2026-04-26T12:50:11.999Z</time></trkpt><trkpt lat="43.27431748658239" lon="11.840725093329658"><ele>241.0</ele><time>2026-04-26T12:50:12.999Z</time></trkpt><trkpt lat="43.27439187721245" lon="11.840727538605922"><ele>241.00000000000003</ele><time>2026-04-26T12:50:13.999Z</time></trkpt><trkpt lat="43.274463546870145" lon="11.840728788406715"><ele>241.0</ele><time>2026-04-26T12:50:14.999Z</time></trkpt><trkpt lat="43.2745372578131" lon="11.840731530410666"><ele>241.0</ele><time>2026-04-26T12:50:15.999Z</time></trkpt><trkpt lat="43.27461058388569" lon="11.840735783815585"><ele>241.00000000000003</ele><time>2026-04-26T12:50:16.999Z</time></trkpt><trkpt lat="43.27468651273618" lon="11.840740334749858"><ele>241.0</ele><time>2026-04-26T12:50:17.999Z</time></trkpt><trkpt lat="43.27476054716307" lon="11.840745095626884"><ele>241.0</ele><time>2026-04-26T12:50:18.999Z</time></trkpt><trkpt lat="43.27483532322763" lon="11.840748346620636"><ele>240.85714285714286</ele><time>2026-04-26T12:50:19.999Z</time></trkpt><trkpt lat="43.274908929596236" lon="11.840752263500544"><ele>240.71428571428572</ele><time>2026-04-26T12:50:20.999Z</time></trkpt><trkpt lat="43.27497895282793" lon="11.840756690230185"><ele>240.57142857142858</ele><time>2026-04-26T12:50:21.999Z</time></trkpt><trkpt lat="43.275047652155365" lon="11.840760030121665"><ele>240.42857142857144</ele><time>2026-04-26T12:50:22.999Z</time></trkpt><trkpt lat="43.27511726041976" lon="11.840761626651759"><ele>240.28571428571428</ele><time>2026-04-26T12:50:23.999Z</time></trkpt><trkpt lat="43.275187475089496" lon="11.840767028528587"><ele>240.14285714285717</ele><time>2026-04-26T12:50:25Z</time></trkpt><trkpt lat="43.27525764415725" lon="11.84076713039926"><ele>240.0</ele><time>2026-04-26T12:50:26Z</time></trkpt><trkpt lat="43.275328386792175" lon="11.840770527626928"><ele>240.0</ele><time>2026-04-26T12:50:27Z</time></trkpt><trkpt lat="43.27539792655914" lon="11.840774996626035"><ele>240.0</ele><time>2026-04-26T12:50:28Z</time></trkpt><trkpt lat="43.27547103826061" lon="11.840782282624899"><ele>240.0</ele><time>2026-04-26T12:50:29Z</time></trkpt><trkpt lat="43.27554257059222" lon="11.84078499796025"><ele>240.0</ele><time>2026-04-26T12:50:30Z</time></trkpt><trkpt lat="43.275613312540514" lon="11.840787640664958"><ele>240.0</ele><time>2026-04-26T12:50:31Z</time></trkpt><trkpt lat="43.275683589392166" lon="11.840791291830275"><ele>240.0</ele><time>2026-04-26T12:50:32Z</time></trkpt><trkpt lat="43.275755376406075" lon="11.840795381871176"><ele>240.0</ele><time>2026-04-26T12:50:33Z</time></trkpt><trkpt lat="43.275826700889375" lon="11.84079710356566"><ele>240.0</ele><time>2026-04-26T12:50:34Z</time></trkpt><trkpt lat="43.27589659764061" lon="11.840800921959532"><ele>240.0</ele><time>2026-04-26T12:50:35Z</time></trkpt><trkpt lat="43.27596314362372" lon="11.840803722461454"><ele>240.0</ele><time>2026-04-26T12:50:36Z</time></trkpt><trkpt lat="43.27603292536962" lon="11.840808913680371"><ele>240.0</ele><time>2026-04-26T12:50:37Z</time></trkpt><trkpt lat="43.276101796429685" lon="11.840813347460308"><ele>240.0</ele><time>2026-04-26T12:50:38Z</time></trkpt><trkpt lat="43.27617035928659" lon="11.840813929113343"><ele>240.0</ele><time>2026-04-26T12:50:39Z</time></trkpt><trkpt lat="43.27624101262742" lon="11.84081527108132"><ele>240.0</ele><time>2026-04-26T12:50:40Z</time></trkpt><trkpt lat="43.27631525814097" lon="11.840820880409854"><ele>240.0</ele><time>2026-04-26T12:50:41Z</time></trkpt><trkpt lat="43.27638882546329" lon="11.840825997633084"><ele>240.0</ele><time>2026-04-26T12:50:42Z</time></trkpt><trkpt lat="43.276463608716874" lon="11.840829006976065"><ele>240.0</ele><time>2026-04-26T12:50:43Z</time></trkpt><trkpt lat="43.276538973777036" lon="11.84083244099767"><ele>240.0</ele><time>2026-04-26T12:50:44Z</time></trkpt><trkpt lat="43.27661206208113" lon="11.84083599745688"><ele>240.0</ele><time>2026-04-26T12:50:45Z</time></trkpt><trkpt lat="43.27668499537771" lon="11.840840838130067"><ele>240.0</ele><time>2026-04-26T12:50:46Z</time></trkpt><trkpt lat="43.276760163441395" lon="11.840844606969348"><ele>240.0</ele><time>2026-04-26T12:50:47Z</time></trkpt><trkpt lat="43.27683250515374" lon="11.8408481316454"><ele>240.28571428571428</ele><time>2026-04-26T12:50:48Z</time></trkpt><trkpt lat="43.276903691557834" lon="11.840852061660193"><ele>240.57142857142856</ele><time>2026-04-26T12:50:49Z</time></trkpt><trkpt lat="43.27697448369202" lon="11.840857658861344"><ele>240.85714285714283</ele><time>2026-04-26T12:50:50Z</time></trkpt><trkpt lat="43.27704327853798" lon="11.840860740331554"><ele>241.14285714285714</ele><time>2026-04-26T12:50:51Z</time></trkpt><trkpt lat="43.27711261240558" lon="11.840865059998578"><ele>241.4285714285714</ele><time>2026-04-26T12:50:52Z</time></trkpt><trkpt lat="43.27718128656166" lon="11.840868786095124"><ele>241.7142857142857</ele><time>2026-04-26T12:50:53Z</time></trkpt><trkpt lat="43.277251323439934" lon="11.840870094116871"><ele>242.0</ele><time>2026-04-26T12:50:54Z</time></trkpt><trkpt lat="43.277323368813214" lon="11.840873318895968"><ele>242.14285714285714</ele><time>2026-04-26T12:50:55Z</time></trkpt><trkpt lat="43.27739420653429" lon="11.840878685342243"><ele>242.28571428571428</ele><time>2026-04-26T12:50:56Z</time></trkpt><trkpt lat="43.27746599442702" lon="11.840883091847715"><ele>242.42857142857142</ele><time>2026-04-26T12:50:57Z</time></trkpt><trkpt lat="43.27753790723" lon="11.840885564471476"><ele>242.57142857142856</ele><time>2026-04-26T12:50:58Z</time></trkpt><trkpt lat="43.277613864198436" lon="11.840887830882272"><ele>242.71428571428572</ele><time>2026-04-26T12:50:59Z</time></trkpt><trkpt lat="43.27768852307025" lon="11.840893260611065"><ele>242.85714285714283</ele><time>2026-04-26T12:51:00Z</time></trkpt><trkpt lat="43.27776144104055" lon="11.84089948547233"><ele>243.0</ele><time>2026-04-26T12:51:01Z</time></trkpt><trkpt lat="43.27783682302304" lon="11.840901450657812"><ele>243.0</ele><time>2026-04-26T12:51:02Z</time></trkpt><trkpt lat="43.27791179668425" lon="11.84090554023958"><ele>243.0</ele><time>2026-04-26T12:51:03Z</time></trkpt><trkpt lat="43.27798631829025" lon="11.840908072164348"><ele>243.0</ele><time>2026-04-26T12:51:04Z</time></trkpt><trkpt lat="43.27806358694662" lon="11.840912288354208"><ele>243.0</ele><time>2026-04-26T12:51:05Z</time></trkpt><trkpt lat="43.27813882593244" lon="11.840913259161756"><ele>243.0</ele><time>2026-04-26T12:51:06Z</time></trkpt><trkpt lat="43.27821545366106" lon="11.840918697364183"><ele>243.0</ele><time>2026-04-26T12:51:07Z</time></trkpt><trkpt lat="43.27829233104509" lon="11.840923447566057"><ele>243.0</ele><time>2026-04-26T12:51:08Z</time></trkpt><trkpt lat="43.27836748000326" lon="11.840924824617213"><ele>243.0</ele><time>2026-04-26T12:51:09Z</time></trkpt><trkpt lat="43.278443290278474" lon="11.840930492507658"><ele>243.0</ele><time>2026-04-26T12:51:10Z</time></trkpt><trkpt lat="43.27851611156963" lon="11.840935617552649"><ele>243.0</ele><time>2026-04-26T12:51:11Z</time></trkpt><trkpt lat="43.27858797545974" lon="11.840937410730861"><ele>243.0</ele><time>2026-04-26T12:51:12Z</time></trkpt><trkpt lat="43.27865886978039" lon="11.840944031478873"><ele>243.0</ele><time>2026-04-26T12:51:13Z</time></trkpt><trkpt lat="43.27872851179255" lon="11.840947049609252"><ele>243.0</ele><time>2026-04-26T12:51:14Z</time></trkpt><trkpt lat="43.27879792367723" lon="11.840951599157552"><ele>243.0</ele><time>2026-04-26T12:51:15Z</time></trkpt><trkpt lat="43.27887027013608" lon="11.84095515112944"><ele>243.0</ele><time>2026-04-26T12:51:16Z</time></trkpt><trkpt lat="43.278942829608" lon="11.840959270421235"><ele>243.0</ele><time>2026-04-26T12:51:17Z</time></trkpt><trkpt lat="43.27901685497357" lon="11.840964545745049"><ele>243.0</ele><time>2026-04-26T12:51:18Z</time></trkpt><trkpt lat="43.2790921118066" lon="11.84096624097586"><ele>243.0</ele><time>2026-04-26T12:51:19Z</time></trkpt><trkpt lat="43.279167883188066" lon="11.840972078850305"><ele>243.0</ele><time>2026-04-26T12:51:20Z</time></trkpt><trkpt lat="43.27923966538857" lon="11.840976201132024"><ele>243.0</ele><time>2026-04-26T12:51:21Z</time></trkpt><trkpt lat="43.27930881810342" lon="11.840979013413545"><ele>242.85714285714283</ele><time>2026-04-26T12:51:22Z</time></trkpt><trkpt lat="43.27937607407481" lon="11.840981700186726"><ele>242.71428571428572</ele><time>2026-04-26T12:51:23Z</time></trkpt><trkpt lat="43.27944091996079" lon="11.840988894010355"><ele>242.57142857142856</ele><time>2026-04-26T12:51:24Z</time></trkpt><trkpt lat="43.27950867119423" lon="11.84099309103172"><ele>242.42857142857142</ele><time>2026-04-26T12:51:25Z</time></trkpt><trkpt lat="43.27957683532264" lon="11.840993365512007"><ele>242.28571428571428</ele><time>2026-04-26T12:51:26Z</time></trkpt><trkpt lat="43.27964745840448" lon="11.840996789348996"><ele>242.14285714285714</ele><time>2026-04-26T12:51:27Z</time></trkpt><trkpt lat="43.27972137407671" lon="11.841001979060952"><ele>242.0</ele><time>2026-04-26T12:51:28Z</time></trkpt><trkpt lat="43.27979372545837" lon="11.841006559081123"><ele>242.0</ele><time>2026-04-26T12:51:29Z</time></trkpt><trkpt lat="43.27986583057719" lon="11.841009594196404"><ele>241.99999999999997</ele><time>2026-04-26T12:51:30Z</time></trkpt><trkpt lat="43.27993847663885" lon="11.84101319549396"><ele>242.0</ele><time>2026-04-26T12:51:31Z</time></trkpt><trkpt lat="43.28000920657149" lon="11.841017442935708"><ele>242.0</ele><time>2026-04-26T12:51:32Z</time></trkpt><trkpt lat="43.2800798923896" lon="11.841020877824944"><ele>241.99999999999997</ele><time>2026-04-26T12:51:32.999Z</time></trkpt><trkpt lat="43.280148481131" lon="11.841024195101683"><ele>242.0</ele><time>2026-04-26T12:51:33.999Z</time></trkpt><trkpt lat="43.28021789089785" lon="11.841028262726331"><ele>242.0</ele><time>2026-04-26T12:51:34.999Z</time></trkpt><trkpt lat="43.280286741383755" lon="11.841030626590472"><ele>242.0</ele><time>2026-04-26T12:51:35.999Z</time></trkpt><trkpt lat="43.280355343061515" lon="11.841033203108077"><ele>241.99999999999997</ele><time>2026-04-26T12:51:36.999Z</time></trkpt><trkpt lat="43.28042606852568" lon="11.841037033322758"><ele>242.0</ele><time>2026-04-26T12:51:37.999Z</time></trkpt><trkpt lat="43.28049557814416" lon="11.841041952076102"><ele>242.0</ele><time>2026-04-26T12:51:38.999Z</time></trkpt><trkpt lat="43.28056721952061" lon="11.841047740016187"><ele>241.99999999999997</ele><time>2026-04-26T12:51:39.999Z</time></trkpt><trkpt lat="43.280636668889336" lon="11.841051430204475"><ele>242.0</ele><time>2026-04-26T12:51:40.999Z</time></trkpt><trkpt lat="43.28070436212639" lon="11.841056361246357"><ele>242.0</ele><time>2026-04-26T12:51:41.999Z</time></trkpt><trkpt lat="43.28077358192202" lon="11.841062075872262"><ele>242.00000000000003</ele><time>2026-04-26T12:51:42.999Z</time></trkpt><trkpt lat="43.280845119497904" lon="11.84106908492315"><ele>242.0</ele><time>2026-04-26T12:51:43.999Z</time></trkpt><trkpt lat="43.28091565006729" lon="11.84107321456926"><ele>242.0</ele><time>2026-04-26T12:51:44.999Z</time></trkpt><trkpt lat="43.28098686598497" lon="11.841069843723565"><ele>242.0</ele><time>2026-04-26T12:51:45.999Z</time></trkpt><trkpt lat="43.2810516568783" lon="11.841048513798441"><ele>242.00000000000003</ele><time>2026-04-26T12:51:46.999Z</time></trkpt><trkpt lat="43.28116448358293" lon="11.84102269174869"><ele>242.0</ele><time>2026-04-26T12:51:48.999Z</time></trkpt><trkpt lat="43.281248340257385" lon="11.841073797353209"><ele>242.00000000000003</ele><time>2026-04-26T12:51:50.999Z</time></trkpt><trkpt lat="43.281319872367796" lon="11.841096494986584"><ele>242.0</ele><time>2026-04-26T12:51:52.999Z</time></trkpt><trkpt lat="43.28141658365807" lon="11.841087282764798"><ele>242.0</ele><time>2026-04-26T12:51:54.999Z</time></trkpt><trkpt lat="43.281540865832426" lon="11.841084967697086"><ele>242.0</ele><time>2026-04-26T12:51:56.999Z</time></trkpt><trkpt lat="43.28160786360548" lon="11.84109204964129"><ele>242.00000000000003</ele><time>2026-04-26T12:51:57.999Z</time></trkpt><trkpt lat="43.281677925514494" lon="11.841099727364702"><ele>242.0</ele><time>2026-04-26T12:51:58.999Z</time></trkpt><trkpt lat="43.281746217458945" lon="11.84110857728777"><ele>242.0</ele><time>2026-04-26T12:51:59.999Z</time></trkpt><trkpt lat="43.28181319905208" lon="11.84111834525613"><ele>242.0</ele><time>2026-04-26T12:52:00.999Z</time></trkpt><trkpt lat="43.281880750176725" lon="11.84112343892978"><ele>242.0</ele><time>2026-04-26T12:52:01.999Z</time></trkpt><trkpt lat="43.28199447548672" lon="11.841128712888082"><ele>242.0</ele><time>2026-04-26T12:52:03.999Z</time></trkpt><trkpt lat="43.28209780833358" lon="11.84113396068354"><ele>242.0</ele><time>2026-04-26T12:52:05.999Z</time></trkpt><trkpt lat="43.28219999940108" lon="11.841139903099403"><ele>242.0</ele><time>2026-04-26T12:52:07.999Z</time></trkpt><trkpt lat="43.28229894809373" lon="11.841149435476437"><ele>242.0</ele><time>2026-04-26T12:52:09.999Z</time></trkpt><trkpt lat="43.282401627386406" lon="11.84115454798174"><ele>242.0</ele><time>2026-04-26T12:52:11.999Z</time></trkpt><trkpt lat="43.28250997300861" lon="11.841158125732768"><ele>242.0</ele><time>2026-04-26T12:52:13.999Z</time></trkpt><trkpt lat="43.282632758593685" lon="11.841166032954318"><ele>242.0</ele><time>2026-04-26T12:52:15.999Z</time></trkpt><trkpt lat="43.28269857710906" lon="11.841169233294366"><ele>242.0</ele><time>2026-04-26T12:52:16.999Z</time></trkpt><trkpt lat="43.282821634763586" lon="11.84117578314285"><ele>242.0</ele><time>2026-04-26T12:52:18.999Z</time></trkpt><trkpt lat="43.28294350475532" lon="11.841182038623108"><ele>242.0</ele><time>2026-04-26T12:52:20.999Z</time></trkpt><trkpt lat="43.28300955136058" lon="11.841186503360689"><ele>242.0</ele><time>2026-04-26T12:52:21.999Z</time></trkpt><trkpt lat="43.28312998061482" lon="11.841188032006182"><ele>242.0</ele><time>2026-04-26T12:52:23.999Z</time></trkpt><trkpt lat="43.28324264921195" lon="11.841193999852983"><ele>242.00000000000003</ele><time>2026-04-26T12:52:25.999Z</time></trkpt><trkpt lat="43.28335683782126" lon="11.841196628648083"><ele>242.0</ele><time>2026-04-26T12:52:27.999Z</time></trkpt><trkpt lat="43.28341404620094" lon="11.841355738434249"><ele>242.0</ele><time>2026-04-26T12:52:28.999Z</time></trkpt><trkpt lat="43.28347818809835" lon="11.841359184865292"><ele>242.0</ele><time>2026-04-26T12:52:29.999Z</time></trkpt><trkpt lat="43.28354340432832" lon="11.841362689020245"><ele>242.00000000000003</ele><time>2026-04-26T12:52:31Z</time></trkpt><trkpt lat="43.2836105717752" lon="11.841366111062465"><ele>242.0</ele><time>2026-04-26T12:52:32Z</time></trkpt><trkpt lat="43.28367677896835" lon="11.841369075389377"><ele>242.00000000000003</ele><time>2026-04-26T12:52:33Z</time></trkpt><trkpt lat="43.283739710615116" lon="11.841371893059312"><ele>242.0</ele><time>2026-04-26T12:52:34Z</time></trkpt><trkpt lat="43.283860522977164" lon="11.841377302250926"><ele>242.0</ele><time>2026-04-26T12:52:36Z</time></trkpt><trkpt lat="43.283984536477355" lon="11.841382854769064"><ele>242.0</ele><time>2026-04-26T12:52:38Z</time></trkpt><trkpt lat="43.284047969529595" lon="11.841385694888732"><ele>242.00000000000003</ele><time>2026-04-26T12:52:39Z</time></trkpt><trkpt lat="43.28411238311907" lon="11.841388578910179"><ele>242.0</ele><time>2026-04-26T12:52:40Z</time></trkpt><trkpt lat="43.284240284753935" lon="11.841395370945754"><ele>242.14285714285714</ele><time>2026-04-26T12:52:42Z</time></trkpt><trkpt lat="43.28430434914683" lon="11.841399058670106"><ele>242.28571428571428</ele><time>2026-04-26T12:52:43Z</time></trkpt><trkpt lat="43.284367658048446" lon="11.841402702905771"><ele>242.42857142857142</ele><time>2026-04-26T12:52:44Z</time></trkpt><trkpt lat="43.28443102437613" lon="11.841406350446917"><ele>242.57142857142856</ele><time>2026-04-26T12:52:45Z</time></trkpt><trkpt lat="43.28449674915588" lon="11.84141013374726"><ele>242.71428571428572</ele><time>2026-04-26T12:52:46Z</time></trkpt><trkpt lat="43.284561520933714" lon="11.841413862189885"><ele>242.85714285714283</ele><time>2026-04-26T12:52:47Z</time></trkpt><trkpt lat="43.2846271561624" lon="11.841417640335589"><ele>243.0</ele><time>2026-04-26T12:52:48Z</time></trkpt><trkpt lat="43.28469438203761" lon="11.841421510042728"><ele>243.0</ele><time>2026-04-26T12:52:49Z</time></trkpt><trkpt lat="43.28476248275159" lon="11.841425430108247"><ele>243.0</ele><time>2026-04-26T12:52:50Z</time></trkpt><trkpt lat="43.2848293531181" lon="11.8414290161887"><ele>243.0</ele><time>2026-04-26T12:52:51Z</time></trkpt><trkpt lat="43.2848961659038" lon="11.841431944893131"><ele>243.0</ele><time>2026-04-26T12:52:52Z</time></trkpt><trkpt lat="43.28496021631372" lon="11.841434752511018"><ele>243.0</ele><time>2026-04-26T12:52:53Z</time></trkpt><trkpt lat="43.28502484516888" lon="11.841437585483611"><ele>243.0</ele><time>2026-04-26T12:52:54Z</time></trkpt><trkpt lat="43.28508776916203" lon="11.84144161167323"><ele>243.0</ele><time>2026-04-26T12:52:55Z</time></trkpt><trkpt lat="43.28515195664262" lon="11.841446847017579"><ele>242.83333333333334</ele><time>2026-04-26T12:52:56Z</time></trkpt><trkpt lat="43.28527848054525" lon="11.841456592686482"><ele>242.66666666666669</ele><time>2026-04-26T12:52:58Z</time></trkpt><trkpt lat="43.28534585507159" lon="11.841460975432962"><ele>242.5</ele><time>2026-04-26T12:52:59Z</time></trkpt><trkpt lat="43.28541071825852" lon="11.841464620549216"><ele>242.33333333333334</ele><time>2026-04-26T12:53:00Z</time></trkpt><trkpt lat="43.285476841545616" lon="11.841468336519556"><ele>242.16666666666669</ele><time>2026-04-26T12:53:01Z</time></trkpt><trkpt lat="43.28554119370477" lon="11.841471952940429"><ele>242.0</ele><time>2026-04-26T12:53:02Z</time></trkpt><trkpt lat="43.28567002752407" lon="11.84147919308203"><ele>242.33333333333334</ele><time>2026-04-26T12:53:04Z</time></trkpt><trkpt lat="43.28579419926206" lon="11.841486171221215"><ele>242.66666666666669</ele><time>2026-04-26T12:53:06Z</time></trkpt><trkpt lat="43.28592094340704" lon="11.841493688467274"><ele>243.0</ele><time>2026-04-26T12:53:08Z</time></trkpt><trkpt lat="43.28598483404449" lon="11.84149794600398"><ele>243.33333333333331</ele><time>2026-04-26T12:53:09Z</time></trkpt><trkpt lat="43.28605179418319" lon="11.841502408091939"><ele>243.66666666666666</ele><time>2026-04-26T12:53:10Z</time></trkpt><trkpt lat="43.28611644047663" lon="11.841506715981565"><ele>244.0</ele><time>2026-04-26T12:53:11Z</time></trkpt><trkpt lat="43.286183166233656" lon="11.84151116244451"><ele>243.99999999999997</ele><time>2026-04-26T12:53:12Z</time></trkpt><trkpt lat="43.28624890864552" lon="11.841515543385643"><ele>244.0</ele><time>2026-04-26T12:53:13Z</time></trkpt><trkpt lat="43.286317161463984" lon="11.841520091609485"><ele>243.99999999999997</ele><time>2026-04-26T12:53:14Z</time></trkpt><trkpt lat="43.28638690163356" lon="11.841524071770648"><ele>243.99999999999997</ele><time>2026-04-26T12:53:15Z</time></trkpt><trkpt lat="43.286453894894485" lon="11.84152741893129"><ele>244.0</ele><time>2026-04-26T12:53:16Z</time></trkpt><trkpt lat="43.28652242780236" lon="11.84153084302907"><ele>243.99999999999997</ele><time>2026-04-26T12:53:17Z</time></trkpt><trkpt lat="43.286593549350194" lon="11.84153439646046"><ele>243.99999999999997</ele><time>2026-04-26T12:53:18Z</time></trkpt><trkpt lat="43.286662221417146" lon="11.841537827490326"><ele>243.85714285714283</ele><time>2026-04-26T12:53:19Z</time></trkpt><trkpt lat="43.28673075482755" lon="11.841541251609284"><ele>243.71428571428572</ele><time>2026-04-26T12:53:20Z</time></trkpt><trkpt lat="43.28679831995285" lon="11.841545168917197"><ele>243.57142857142856</ele><time>2026-04-26T12:53:21Z</time></trkpt><trkpt lat="43.286866108982274" lon="11.841549303640942"><ele>243.42857142857142</ele><time>2026-04-26T12:53:22Z</time></trkpt><trkpt lat="43.28693191558494" lon="11.841552757593009"><ele>243.28571428571428</ele><time>2026-04-26T12:53:23Z</time></trkpt><trkpt lat="43.286999096745745" lon="11.841556101325454"><ele>243.14285714285714</ele><time>2026-04-26T12:53:24Z</time></trkpt><trkpt lat="43.287069527252655" lon="11.841559606785701"><ele>243.0</ele><time>2026-04-26T12:53:25Z</time></trkpt><trkpt lat="43.28713887969456" lon="11.841563363798237"><ele>243.0</ele><time>2026-04-26T12:53:26Z</time></trkpt><trkpt lat="43.287207339494074" lon="11.841568093481953"><ele>243.0</ele><time>2026-04-26T12:53:27Z</time></trkpt><trkpt lat="43.287277493765345" lon="11.84157294022503"><ele>243.0</ele><time>2026-04-26T12:53:28Z</time></trkpt><trkpt lat="43.287343879169384" lon="11.84157752659249"><ele>243.0</ele><time>2026-04-26T12:53:29Z</time></trkpt><trkpt lat="43.28740982998671" lon="11.841582082941974"><ele>243.0</ele><time>2026-04-26T12:53:30Z</time></trkpt><trkpt lat="43.28747847177637" lon="11.841586825189337"><ele>243.0</ele><time>2026-04-26T12:53:31Z</time></trkpt><trkpt lat="43.28754562967273" lon="11.841590290615692"><ele>243.0</ele><time>2026-04-26T12:53:32Z</time></trkpt><trkpt lat="43.2876150207333" lon="11.841593559685581"><ele>242.57142857142856</ele><time>2026-04-26T12:53:33Z</time></trkpt><trkpt lat="43.28768131160688" lon="11.84159668270109"><ele>242.14285714285717</ele><time>2026-04-26T12:53:34Z</time></trkpt><trkpt lat="43.28774904587927" lon="11.841599873731818"><ele>241.71428571428572</ele><time>2026-04-26T12:53:35Z</time></trkpt><trkpt lat="43.28781750131663" lon="11.841603098725535"><ele>241.28571428571428</ele><time>2026-04-26T12:53:36Z</time></trkpt><trkpt lat="43.2878852120598" lon="11.841606288640172"><ele>240.85714285714283</ele><time>2026-04-26T12:53:37Z</time></trkpt><trkpt lat="43.28795412467515" lon="11.841609535173443"><ele>240.42857142857144</ele><time>2026-04-26T12:53:38Z</time></trkpt><trkpt lat="43.288021288388094" lon="11.841612699314604"><ele>240.0</ele><time>2026-04-26T12:53:39Z</time></trkpt><trkpt lat="43.28808992855795" lon="11.841615933013422"><ele>240.28571428571428</ele><time>2026-04-26T12:53:40Z</time></trkpt><trkpt lat="43.288157415875276" lon="11.841619112396925"><ele>240.57142857142856</ele><time>2026-04-26T12:53:41Z</time></trkpt><trkpt lat="43.28822639029066" lon="11.841622361843006"><ele>240.85714285714283</ele><time>2026-04-26T12:53:42Z</time></trkpt><trkpt lat="43.28829332735241" lon="11.841625642033476"><ele>241.14285714285714</ele><time>2026-04-26T12:53:43Z</time></trkpt><trkpt lat="43.28835964565312" lon="11.841629023954027"><ele>241.4285714285714</ele><time>2026-04-26T12:53:44Z</time></trkpt><trkpt lat="43.28842625805717" lon="11.841632420876907"><ele>241.7142857142857</ele><time>2026-04-26T12:53:45Z</time></trkpt><trkpt lat="43.2884917345024" lon="11.841635759865351"><ele>242.0</ele><time>2026-04-26T12:53:46Z</time></trkpt><trkpt lat="43.28855879913703" lon="11.84163917984705"><ele>242.0</ele><time>2026-04-26T12:53:47Z</time></trkpt><trkpt lat="43.2886243965023" lon="11.841642525006222"><ele>241.99999999999997</ele><time>2026-04-26T12:53:48Z</time></trkpt><trkpt lat="43.28868870553349" lon="11.84164580446438"><ele>242.0</ele><time>2026-04-26T12:53:48.999Z</time></trkpt><trkpt lat="43.28875264929699" lon="11.841649594697213"><ele>242.0</ele><time>2026-04-26T12:53:49.999Z</time></trkpt><trkpt lat="43.28881979480678" lon="11.841653809779052"><ele>241.99999999999997</ele><time>2026-04-26T12:53:50.999Z</time></trkpt><trkpt lat="43.288886059512414" lon="11.841657969567287"><ele>242.0</ele><time>2026-04-26T12:53:51.999Z</time></trkpt><trkpt lat="43.288950895645" lon="11.841662039676518"><ele>242.0</ele><time>2026-04-26T12:53:52.999Z</time></trkpt><trkpt lat="43.28901626589861" lon="11.841666143315635"><ele>241.85714285714283</ele><time>2026-04-26T12:53:53.999Z</time></trkpt><trkpt lat="43.289081818038056" lon="11.841670258371499"><ele>241.7142857142857</ele><time>2026-04-26T12:53:54.999Z</time></trkpt><trkpt lat="43.289147300498435" lon="11.841674369056884"><ele>241.57142857142856</ele><time>2026-04-26T12:53:55.999Z</time></trkpt><trkpt lat="43.28921282555893" lon="11.841678482411803"><ele>241.42857142857144</ele><time>2026-04-26T12:53:56.999Z</time></trkpt><trkpt lat="43.28927776422353" lon="11.841682558958448"><ele>241.2857142857143</ele><time>2026-04-26T12:53:57.999Z</time></trkpt><trkpt lat="43.28934453443972" lon="11.841686750480571"><ele>241.14285714285717</ele><time>2026-04-26T12:53:58.999Z</time></trkpt><trkpt lat="43.2894126652136" lon="11.841691027412645"><ele>241.0</ele><time>2026-04-26T12:53:59.999Z</time></trkpt><trkpt lat="43.28948144328119" lon="11.841695344978653"><ele>241.0</ele><time>2026-04-26T12:54:00.999Z</time></trkpt><trkpt lat="43.28954875795226" lon="11.841699570679243"><ele>241.00000000000003</ele><time>2026-04-26T12:54:01.999Z</time></trkpt><trkpt lat="43.28961359027251" lon="11.841703640550639"><ele>241.0</ele><time>2026-04-26T12:54:02.999Z</time></trkpt><trkpt lat="43.28968088401551" lon="11.84170786493623"><ele>241.0</ele><time>2026-04-26T12:54:03.999Z</time></trkpt><trkpt lat="43.289745676380946" lon="11.84171193229737"><ele>241.00000000000003</ele><time>2026-04-26T12:54:04.999Z</time></trkpt><trkpt lat="43.28981332630003" lon="11.841715986974544"><ele>241.0</ele><time>2026-04-26T12:54:05.999Z</time></trkpt><trkpt lat="43.289878174412124" lon="11.84171928017446"><ele>241.0</ele><time>2026-04-26T12:54:06.999Z</time></trkpt><trkpt lat="43.28994479713891" lon="11.841722663493538"><ele>240.83333333333331</ele><time>2026-04-26T12:54:07.999Z</time></trkpt><trkpt lat="43.290010005140765" lon="11.841725974969435"><ele>240.66666666666666</ele><time>2026-04-26T12:54:08.999Z</time></trkpt><trkpt lat="43.290140961192726" lon="11.841732625346582"><ele>240.5</ele><time>2026-04-26T12:54:10.999Z</time></trkpt><trkpt lat="43.290204359100244" lon="11.841735844897368"><ele>240.33333333333331</ele><time>2026-04-26T12:54:11.999Z</time></trkpt><trkpt lat="43.29026907953066" lon="11.84173913161467"><ele>240.16666666666666</ele><time>2026-04-26T12:54:12.999Z</time></trkpt><trkpt lat="43.290333598741924" lon="11.84174240994158"><ele>240.0</ele><time>2026-04-26T12:54:13.999Z</time></trkpt><trkpt lat="43.290396570336384" lon="11.84174549863164"><ele>240.0</ele><time>2026-04-26T12:54:14.999Z</time></trkpt><trkpt lat="43.29046163089088" lon="11.84174841333379"><ele>240.0</ele><time>2026-04-26T12:54:15.999Z</time></trkpt><trkpt lat="43.290527190728994" lon="11.841751350404506"><ele>240.0</ele><time>2026-04-26T12:54:16.999Z</time></trkpt><trkpt lat="43.29059559879793" lon="11.841754415062269"><ele>240.0</ele><time>2026-04-26T12:54:17.999Z</time></trkpt><trkpt lat="43.29066316909148" lon="11.841757442172138"><ele>240.0</ele><time>2026-04-26T12:54:18.999Z</time></trkpt><trkpt lat="43.290731620590115" lon="11.841760508794524"><ele>240.0</ele><time>2026-04-26T12:54:19.999Z</time></trkpt><trkpt lat="43.290800836264495" lon="11.841763609640164"><ele>240.0</ele><time>2026-04-26T12:54:20.999Z</time></trkpt><trkpt lat="43.29086760822019" lon="11.841766601002194"><ele>240.0</ele><time>2026-04-26T12:54:21.999Z</time></trkpt><trkpt lat="43.290934758648966" lon="11.841769609329305"><ele>240.0</ele><time>2026-04-26T12:54:22.999Z</time></trkpt><trkpt lat="43.29100008723019" lon="11.84177307376734"><ele>240.0</ele><time>2026-04-26T12:54:23.999Z</time></trkpt><trkpt lat="43.291069324162464" lon="11.841776883502328"><ele>240.0</ele><time>2026-04-26T12:54:24.999Z</time></trkpt><trkpt lat="43.291137637811154" lon="11.841780642415044"><ele>240.0</ele><time>2026-04-26T12:54:25.999Z</time></trkpt><trkpt lat="43.29120501320222" lon="11.84178434970769"><ele>240.0</ele><time>2026-04-26T12:54:26.999Z</time></trkpt><trkpt lat="43.29127273155418" lon="11.841788075873174"><ele>240.0</ele><time>2026-04-26T12:54:27.999Z</time></trkpt><trkpt lat="43.29134184663479" lon="11.841791878885706"><ele>240.0</ele><time>2026-04-26T12:54:28.999Z</time></trkpt><trkpt lat="43.29140829253058" lon="11.841795535032352"><ele>240.0</ele><time>2026-04-26T12:54:29.999Z</time></trkpt><trkpt lat="43.291476365741666" lon="11.841799385161584"><ele>240.0</ele><time>2026-04-26T12:54:30.999Z</time></trkpt><trkpt lat="43.29154419534961" lon="11.841803547511919"><ele>240.0</ele><time>2026-04-26T12:54:31.999Z</time></trkpt><trkpt lat="43.29161124217329" lon="11.84180766181052"><ele>240.0</ele><time>2026-04-26T12:54:32.999Z</time></trkpt><trkpt lat="43.29167799872871" lon="11.84181175830274"><ele>240.0</ele><time>2026-04-26T12:54:33.999Z</time></trkpt><trkpt lat="43.291746143539676" lon="11.841815939984434"><ele>240.0</ele><time>2026-04-26T12:54:34.999Z</time></trkpt><trkpt lat="43.291813119647664" lon="11.8418200499539"><ele>240.33333333333334</ele><time>2026-04-26T12:54:35.999Z</time></trkpt><trkpt lat="43.2918813626803" lon="11.841824237665614"><ele>240.66666666666669</ele><time>2026-04-26T12:54:37Z</time></trkpt><trkpt lat="43.29195070025157" lon="11.841828492547918"><ele>241.0</ele><time>2026-04-26T12:54:38Z</time></trkpt><trkpt lat="43.292018559036975" lon="11.84183265667727"><ele>241.33333333333334</ele><time>2026-04-26T12:54:39Z</time></trkpt><trkpt lat="43.292156885969895" lon="11.841841231930806"><ele>241.66666666666669</ele><time>2026-04-26T12:54:41Z</time></trkpt><trkpt lat="43.29222393365742" lon="11.841845485149122"><ele>242.0</ele><time>2026-04-26T12:54:42Z</time></trkpt><trkpt lat="43.292291045999235" lon="11.841849742475368"><ele>242.00000000000003</ele><time>2026-04-26T12:54:43Z</time></trkpt><trkpt lat="43.292359637151264" lon="11.841854093618299"><ele>242.0</ele><time>2026-04-26T12:54:44Z</time></trkpt><trkpt lat="43.292425427563984" lon="11.841858267078857"><ele>242.0</ele><time>2026-04-26T12:54:45Z</time></trkpt><trkpt lat="43.29249168239356" lon="11.841862470000665"><ele>242.0</ele><time>2026-04-26T12:54:46Z</time></trkpt><trkpt lat="43.29261769178621" lon="11.841870463509775"><ele>242.00000000000003</ele><time>2026-04-26T12:54:48Z</time></trkpt><trkpt lat="43.292685225068844" lon="11.841872446054593"><ele>242.0</ele><time>2026-04-26T12:54:49Z</time></trkpt><trkpt lat="43.29274874328314" lon="11.84187413536958"><ele>242.0</ele><time>2026-04-26T12:54:50Z</time></trkpt><trkpt lat="43.2928160388105" lon="11.841874159145068"><ele>241.99999999999997</ele><time>2026-04-26T12:54:51Z</time></trkpt><trkpt lat="43.29288265047587" lon="11.84187315688705"><ele>242.0</ele><time>2026-04-26T12:54:52Z</time></trkpt><trkpt lat="43.29294929774507" lon="11.841872154094986"><ele>242.0</ele><time>2026-04-26T12:54:53Z</time></trkpt><trkpt lat="43.29301913940889" lon="11.841867546582856"><ele>241.99999999999997</ele><time>2026-04-26T12:54:54Z</time></trkpt><trkpt lat="43.293088626246636" lon="11.841862450339786"><ele>242.0</ele><time>2026-04-26T12:54:55Z</time></trkpt><trkpt lat="43.29315398403782" lon="11.841855242009983"><ele>242.0</ele><time>2026-04-26T12:54:56Z</time></trkpt><trkpt lat="43.29322012916432" lon="11.841846385179384"><ele>242.2</ele><time>2026-04-26T12:54:57Z</time></trkpt><trkpt lat="43.29328281375445" lon="11.841836383202516"><ele>242.39999999999998</ele><time>2026-04-26T12:54:58Z</time></trkpt><trkpt lat="43.29340652461601" lon="11.841816643832194"><ele>242.60000000000002</ele><time>2026-04-26T12:55:00Z</time></trkpt><trkpt lat="43.29352917190615" lon="11.841802641766032"><ele>242.8</ele><time>2026-04-26T12:55:02Z</time></trkpt><trkpt lat="43.2936451316164" lon="11.841805094811361"><ele>243.0</ele><time>2026-04-26T12:55:04Z</time></trkpt><trkpt lat="43.293728157958704" lon="11.841918166980953"><ele>243.0</ele><time>2026-04-26T12:55:05Z</time></trkpt><trkpt lat="43.293806874267815" lon="11.841895555818766"><ele>243.0</ele><time>2026-04-26T12:55:06Z</time></trkpt><trkpt lat="43.29386960904213" lon="11.841876875163019"><ele>243.0</ele><time>2026-04-26T12:55:07Z</time></trkpt><trkpt lat="43.29393707098983" lon="11.841856786905607"><ele>243.0</ele><time>2026-04-26T12:55:08Z</time></trkpt><trkpt lat="43.29400140522339" lon="11.841837629962946"><ele>243.0</ele><time>2026-04-26T12:55:09Z</time></trkpt><trkpt lat="43.29402239933882" lon="11.841560509660175"><ele>242.57142857142856</ele><time>2026-04-26T12:55:10Z</time></trkpt><trkpt lat="43.29408902522587" lon="11.841550032109028"><ele>242.14285714285717</ele><time>2026-04-26T12:55:11Z</time></trkpt><trkpt lat="43.294156312283995" lon="11.841537433521298"><ele>241.71428571428572</ele><time>2026-04-26T12:55:12Z</time></trkpt><trkpt lat="43.29421932306527" lon="11.841522536570187"><ele>241.28571428571428</ele><time>2026-04-26T12:55:13Z</time></trkpt><trkpt lat="43.2942848420552" lon="11.841512119214663"><ele>240.85714285714283</ele><time>2026-04-26T12:55:14Z</time></trkpt><trkpt lat="43.29435494595748" lon="11.841502816764631"><ele>240.42857142857144</ele><time>2026-04-26T12:55:15Z</time></trkpt><trkpt lat="43.29442310079444" lon="11.841487830743683"><ele>240.0</ele><time>2026-04-26T12:55:16Z</time></trkpt><trkpt lat="43.29449036374722" lon="11.84147563609683"><ele>240.0</ele><time>2026-04-26T12:55:17Z</time></trkpt><trkpt lat="43.29455972457436" lon="11.841464422022092"><ele>240.0</ele><time>2026-04-26T12:55:18Z</time></trkpt><trkpt lat="43.29462958290621" lon="11.841453781329589"><ele>240.0</ele><time>2026-04-26T12:55:19Z</time></trkpt><trkpt lat="43.29469762248444" lon="11.841441968121405"><ele>240.0</ele><time>2026-04-26T12:55:20Z</time></trkpt><trkpt lat="43.294764156688544" lon="11.841430926063756"><ele>240.0</ele><time>2026-04-26T12:55:21Z</time></trkpt><trkpt lat="43.29483104107282" lon="11.841417280732387"><ele>240.0</ele><time>2026-04-26T12:55:22Z</time></trkpt><trkpt lat="43.29489804050268" lon="11.841403982261324"><ele>240.0</ele><time>2026-04-26T12:55:23Z</time></trkpt><trkpt lat="43.29496744968873" lon="11.841395414865676"><ele>240.28571428571428</ele><time>2026-04-26T12:55:24Z</time></trkpt><trkpt lat="43.295031911919516" lon="11.841379159833833"><ele>240.57142857142856</ele><time>2026-04-26T12:55:25Z</time></trkpt><trkpt lat="43.29509887393434" lon="11.84136339799008"><ele>240.85714285714283</ele><time>2026-04-26T12:55:26Z</time></trkpt><trkpt lat="43.29516509533368" lon="11.841353599514102"><ele>241.14285714285714</ele><time>2026-04-26T12:55:27Z</time></trkpt><trkpt lat="43.295232628407426" lon="11.841342546828999"><ele>241.4285714285714</ele><time>2026-04-26T12:55:28Z</time></trkpt><trkpt lat="43.29529948797155" lon="11.841329389747314"><ele>241.7142857142857</ele><time>2026-04-26T12:55:29Z</time></trkpt><trkpt lat="43.29536610038652" lon="11.841318506699333"><ele>242.0</ele><time>2026-04-26T12:55:30Z</time></trkpt><trkpt lat="43.29543420367064" lon="11.841308233383279"><ele>242.0</ele><time>2026-04-26T12:55:31Z</time></trkpt><trkpt lat="43.295503219279766" lon="11.841295693178981"><ele>241.99999999999997</ele><time>2026-04-26T12:55:32Z</time></trkpt><trkpt lat="43.295570002534866" lon="11.841280907590146"><ele>242.0</ele><time>2026-04-26T12:55:33Z</time></trkpt><trkpt lat="43.29563859076465" lon="11.841269802584291"><ele>242.0</ele><time>2026-04-26T12:55:34Z</time></trkpt><trkpt lat="43.29570909125838" lon="11.84125630730689"><ele>241.99999999999997</ele><time>2026-04-26T12:55:35Z</time></trkpt><trkpt lat="43.2957786358182" lon="11.841244636734261"><ele>242.0</ele><time>2026-04-26T12:55:36Z</time></trkpt><trkpt lat="43.29584898389898" lon="11.84123046705581"><ele>242.0</ele><time>2026-04-26T12:55:37Z</time></trkpt><trkpt lat="43.2959203017972" lon="11.841218131567155"><ele>242.14285714285714</ele><time>2026-04-26T12:55:38Z</time></trkpt><trkpt lat="43.29599096249051" lon="11.84120433413404"><ele>242.28571428571428</ele><time>2026-04-26T12:55:39Z</time></trkpt><trkpt lat="43.29605899212805" lon="11.841192042023236"><ele>242.42857142857142</ele><time>2026-04-26T12:55:40Z</time></trkpt><trkpt lat="43.296129271846254" lon="11.841179842724763"><ele>242.57142857142856</ele><time>2026-04-26T12:55:41Z</time></trkpt><trkpt lat="43.29619713532158" lon="11.841166631791323"><ele>242.71428571428572</ele><time>2026-04-26T12:55:42Z</time></trkpt><trkpt lat="43.29626460418057" lon="11.841153374858052"><ele>242.85714285714283</ele><time>2026-04-26T12:55:43Z</time></trkpt><trkpt lat="43.29633111121651" lon="11.841140378780452"><ele>243.0</ele><time>2026-04-26T12:55:44Z</time></trkpt><trkpt lat="43.29639856867472" lon="11.841128104954828"><ele>243.0</ele><time>2026-04-26T12:55:45Z</time></trkpt><trkpt lat="43.29646289574409" lon="11.841118469774027"><ele>243.0</ele><time>2026-04-26T12:55:46Z</time></trkpt><trkpt lat="43.296529787749215" lon="11.841104195209372"><ele>243.0</ele><time>2026-04-26T12:55:47Z</time></trkpt><trkpt lat="43.29659736264121" lon="11.841093833267156"><ele>243.0</ele><time>2026-04-26T12:55:48Z</time></trkpt><trkpt lat="43.29666455308652" lon="11.841081688960859"><ele>243.0</ele><time>2026-04-26T12:55:49Z</time></trkpt><trkpt lat="43.29673404751018" lon="11.84106787616504"><ele>243.0</ele><time>2026-04-26T12:55:50Z</time></trkpt><trkpt lat="43.29680232652133" lon="11.841054497895415"><ele>243.0</ele><time>2026-04-26T12:55:51Z</time></trkpt><trkpt lat="43.29687079115904" lon="11.84104199386489"><ele>243.0</ele><time>2026-04-26T12:55:52Z</time></trkpt><trkpt lat="43.29694063223759" lon="11.84102938831664"><ele>243.0</ele><time>2026-04-26T12:55:53Z</time></trkpt><trkpt lat="43.29701029037544" lon="11.841017088301724"><ele>243.0</ele><time>2026-04-26T12:55:54Z</time></trkpt><trkpt lat="43.297078185259856" lon="11.841004529284042"><ele>243.0</ele><time>2026-04-26T12:55:55Z</time></trkpt><trkpt lat="43.297145878596474" lon="11.84099437041811"><ele>243.0</ele><time>2026-04-26T12:55:56Z</time></trkpt><trkpt lat="43.297211100678695" lon="11.840982130172035"><ele>243.0</ele><time>2026-04-26T12:55:57Z</time></trkpt><trkpt lat="43.29727501891743" lon="11.84096936615028"><ele>243.0</ele><time>2026-04-26T12:55:58Z</time></trkpt><trkpt lat="43.29733904644046" lon="11.840959444333444"><ele>242.8</ele><time>2026-04-26T12:55:59Z</time></trkpt><trkpt lat="43.29746427261905" lon="11.840937064615312"><ele>242.60000000000002</ele><time>2026-04-26T12:56:01Z</time></trkpt><trkpt lat="43.29759246607655" lon="11.840913555009294"><ele>242.39999999999998</ele><time>2026-04-26T12:56:03Z</time></trkpt><trkpt lat="43.29771818744039" lon="11.840892191026867"><ele>242.2</ele><time>2026-04-26T12:56:05Z</time></trkpt><trkpt lat="43.29778110425359" lon="11.840881400634983"><ele>242.0</ele><time>2026-04-26T12:56:06Z</time></trkpt><trkpt lat="43.297844547029094" lon="11.840870699934134"><ele>242.0</ele><time>2026-04-26T12:56:07Z</time></trkpt><trkpt lat="43.29790730946867" lon="11.840858564600476"><ele>241.99999999999997</ele><time>2026-04-26T12:56:08Z</time></trkpt><trkpt lat="43.297972237392216" lon="11.84084684263112"><ele>242.0</ele><time>2026-04-26T12:56:09Z</time></trkpt><trkpt lat="43.29803734278617" lon="11.840835324638588"><ele>242.0</ele><time>2026-04-26T12:56:10Z</time></trkpt><trkpt lat="43.29810261377611" lon="11.84082187566333"><ele>241.99999999999997</ele><time>2026-04-26T12:56:10.999Z</time></trkpt><trkpt lat="43.298170659104194" lon="11.84080998900969"><ele>242.0</ele><time>2026-04-26T12:56:11.999Z</time></trkpt><trkpt lat="43.29823705589982" lon="11.840799934074578"><ele>242.0</ele><time>2026-04-26T12:56:12.999Z</time></trkpt><trkpt lat="43.29830423039257" lon="11.840787318582832"><ele>242.0</ele><time>2026-04-26T12:56:13.999Z</time></trkpt><trkpt lat="43.29836854944167" lon="11.840774522770714"><ele>241.99999999999997</ele><time>2026-04-26T12:56:14.999Z</time></trkpt><trkpt lat="43.29843416301796" lon="11.840762512254374"><ele>242.0</ele><time>2026-04-26T12:56:15.999Z</time></trkpt><trkpt lat="43.29849726835191" lon="11.840752896983023"><ele>242.0</ele><time>2026-04-26T12:56:16.999Z</time></trkpt><trkpt lat="43.298562790239174" lon="11.84074222778848"><ele>241.99999999999997</ele><time>2026-04-26T12:56:17.999Z</time></trkpt><trkpt lat="43.29862706218606" lon="11.84072869402202"><ele>242.0</ele><time>2026-04-26T12:56:18.999Z</time></trkpt><trkpt lat="43.29869062861185" lon="11.840717458557762"><ele>242.0</ele><time>2026-04-26T12:56:19.999Z</time></trkpt><trkpt lat="43.2988132934292" lon="11.840692753995073"><ele>242.00000000000003</ele><time>2026-04-26T12:56:21.999Z</time></trkpt><trkpt lat="43.29887676615671" lon="11.840685795257519"><ele>242.0</ele><time>2026-04-26T12:56:22.999Z</time></trkpt><trkpt lat="43.29894221387099" lon="11.840674723492448"><ele>242.0</ele><time>2026-04-26T12:56:23.999Z</time></trkpt><trkpt lat="43.299062705345484" lon="11.840651950267151"><ele>242.0</ele><time>2026-04-26T12:56:25.999Z</time></trkpt><trkpt lat="43.29913063525163" lon="11.8406379313598"><ele>242.00000000000003</ele><time>2026-04-26T12:56:26.999Z</time></trkpt><trkpt lat="43.29919538922603" lon="11.840625394167867"><ele>242.0</ele><time>2026-04-26T12:56:27.999Z</time></trkpt><trkpt lat="43.2993197388288" lon="11.840607808864894"><ele>242.0</ele><time>2026-04-26T12:56:29.999Z</time></trkpt><trkpt lat="43.29944301030613" lon="11.840582406605282"><ele>242.0</ele><time>2026-04-26T12:56:31.999Z</time></trkpt><trkpt lat="43.299566408182336" lon="11.840559797308531"><ele>242.0</ele><time>2026-04-26T12:56:33.999Z</time></trkpt><trkpt lat="43.29968940727046" lon="11.840540840195445"><ele>242.0</ele><time>2026-04-26T12:56:35.999Z</time></trkpt><trkpt lat="43.29980676440049" lon="11.840518154320677"><ele>242.0</ele><time>2026-04-26T12:56:37.999Z</time></trkpt><trkpt lat="43.299925489517506" lon="11.840496410942695"><ele>242.0</ele><time>2026-04-26T12:56:39.999Z</time></trkpt><trkpt lat="43.30004538748553" lon="11.840476940810223"><ele>242.0</ele><time>2026-04-26T12:56:41.999Z</time></trkpt><trkpt lat="43.30016272408188" lon="11.840455521874588"><ele>242.0</ele><time>2026-04-26T12:56:44Z</time></trkpt><trkpt lat="43.300282424723655" lon="11.840435099390962"><ele>242.00000000000003</ele><time>2026-04-26T12:56:46Z</time></trkpt><trkpt lat="43.3003454161183" lon="11.840424039946823"><ele>242.0</ele><time>2026-04-26T12:56:47Z</time></trkpt><trkpt lat="43.30046586953002" lon="11.840399066253923"><ele>242.0</ele><time>2026-04-26T12:56:49Z</time></trkpt><trkpt lat="43.30052831715935" lon="11.840387095549618"><ele>242.0</ele><time>2026-04-26T12:56:50Z</time></trkpt><trkpt lat="43.3006533447517" lon="11.840367170524553"><ele>242.00000000000003</ele><time>2026-04-26T12:56:52Z</time></trkpt><trkpt lat="43.30072067454862" lon="11.840353927770785"><ele>242.0</ele><time>2026-04-26T12:56:53Z</time></trkpt><trkpt lat="43.30078610959354" lon="11.840338965021303"><ele>242.16666666666669</ele><time>2026-04-26T12:56:54Z</time></trkpt><trkpt lat="43.30085364730954" lon="11.840325188515896"><ele>242.33333333333334</ele><time>2026-04-26T12:56:55Z</time></trkpt><trkpt lat="43.30091870968941" lon="11.840315094036548"><ele>242.5</ele><time>2026-04-26T12:56:56Z</time></trkpt><trkpt lat="43.30098571616854" lon="11.840305112440609"><ele>242.66666666666669</ele><time>2026-04-26T12:56:57Z</time></trkpt><trkpt lat="43.301051171703044" lon="11.840292777696261"><ele>242.83333333333334</ele><time>2026-04-26T12:56:58Z</time></trkpt><trkpt lat="43.30117811401055" lon="11.84026600740236"><ele>243.0</ele><time>2026-04-26T12:57:00Z</time></trkpt><trkpt lat="43.30129725123391" lon="11.840244161565588"><ele>243.0</ele><time>2026-04-26T12:57:02Z</time></trkpt><trkpt lat="43.30141436133193" lon="11.840224223412116"><ele>243.0</ele><time>2026-04-26T12:57:04Z</time></trkpt><trkpt lat="43.301533816957544" lon="11.840203510605182"><ele>243.0</ele><time>2026-04-26T12:57:06Z</time></trkpt><trkpt lat="43.30165757468797" lon="11.84017756151353"><ele>243.0</ele><time>2026-04-26T12:57:08Z</time></trkpt><trkpt lat="43.30178438195583" lon="11.84015852630622"><ele>243.14285714285714</ele><time>2026-04-26T12:57:10Z</time></trkpt><trkpt lat="43.301847664910014" lon="11.840147017240936"><ele>243.28571428571428</ele><time>2026-04-26T12:57:11Z</time></trkpt><trkpt lat="43.30191203313583" lon="11.840132601558429"><ele>243.42857142857142</ele><time>2026-04-26T12:57:12Z</time></trkpt><trkpt lat="43.30197856780939" lon="11.84012153019728"><ele>243.57142857142856</ele><time>2026-04-26T12:57:13Z</time></trkpt><trkpt lat="43.302042069059446" lon="11.8401123813444"><ele>243.71428571428572</ele><time>2026-04-26T12:57:14Z</time></trkpt><trkpt lat="43.302108147418494" lon="11.840100239161314"><ele>243.85714285714283</ele><time>2026-04-26T12:57:15Z</time></trkpt><trkpt lat="43.30217213033204" lon="11.840088019390821"><ele>243.99999999999997</ele><time>2026-04-26T12:57:16Z</time></trkpt><trkpt lat="43.30223746618266" lon="11.840076890665754"><ele>243.71428571428567</ele><time>2026-04-26T12:57:17Z</time></trkpt><trkpt lat="43.302301540592865" lon="11.840064086561974"><ele>243.42857142857142</ele><time>2026-04-26T12:57:18Z</time></trkpt><trkpt lat="43.30236659915488" lon="11.84005243930781"><ele>243.1428571428571</ele><time>2026-04-26T12:57:19Z</time></trkpt><trkpt lat="43.30242993970332" lon="11.840041726352815"><ele>242.85714285714283</ele><time>2026-04-26T12:57:20Z</time></trkpt><trkpt lat="43.302494638333364" lon="11.84003059847467"><ele>242.57142857142856</ele><time>2026-04-26T12:57:21Z</time></trkpt><trkpt lat="43.30256024727962" lon="11.840020841139546"><ele>242.28571428571428</ele><time>2026-04-26T12:57:22Z</time></trkpt><trkpt lat="43.302624791773034" lon="11.840008845922608"><ele>242.0</ele><time>2026-04-26T12:57:23Z</time></trkpt><trkpt lat="43.302749562603346" lon="11.839986094920832"><ele>242.00000000000003</ele><time>2026-04-26T12:57:25Z</time></trkpt><trkpt lat="43.30281338767647" lon="11.839977640549595"><ele>242.0</ele><time>2026-04-26T12:57:26Z</time></trkpt><trkpt lat="43.30287980167566" lon="11.83996597104402"><ele>242.0</ele><time>2026-04-26T12:57:27Z</time></trkpt><trkpt lat="43.30294520642625" lon="11.839953999177679"><ele>242.0</ele><time>2026-04-26T12:57:28Z</time></trkpt><trkpt lat="43.303009048315054" lon="11.839941496543334"><ele>242.00000000000003</ele><time>2026-04-26T12:57:29Z</time></trkpt><trkpt lat="43.303132888703416" lon="11.839916218322001"><ele>242.0</ele><time>2026-04-26T12:57:31Z</time></trkpt><trkpt lat="43.30325244011151" lon="11.8398965894936"><ele>242.00000000000003</ele><time>2026-04-26T12:57:33Z</time></trkpt><trkpt lat="43.30331594528837" lon="11.839883154788566"><ele>242.0</ele><time>2026-04-26T12:57:34Z</time></trkpt><trkpt lat="43.30337949860471" lon="11.839871714889599"><ele>242.0</ele><time>2026-04-26T12:57:35Z</time></trkpt><trkpt lat="43.303502878748766" lon="11.83984966995717"><ele>242.0</ele><time>2026-04-26T12:57:37Z</time></trkpt><trkpt lat="43.303566568968" lon="11.839840380844517"><ele>242.00000000000003</ele><time>2026-04-26T12:57:38Z</time></trkpt><trkpt lat="43.30368828038376" lon="11.839820160560185"><ele>242.0</ele><time>2026-04-26T12:57:40Z</time></trkpt><trkpt lat="43.30381076526017" lon="11.839796330388927"><ele>242.0</ele><time>2026-04-26T12:57:42Z</time></trkpt><trkpt lat="43.30392899669365" lon="11.839777513905323"><ele>242.0</ele><time>2026-04-26T12:57:44Z</time></trkpt><trkpt lat="43.30405089446192" lon="11.839751729166661"><ele>242.0</ele><time>2026-04-26T12:57:46Z</time></trkpt><trkpt lat="43.3041701157331" lon="11.839729161242955"><ele>242.0</ele><time>2026-04-26T12:57:48Z</time></trkpt><trkpt lat="43.304293941934745" lon="11.839705979501847"><ele>242.00000000000003</ele><time>2026-04-26T12:57:50Z</time></trkpt><trkpt lat="43.30435827898551" lon="11.839696912504138"><ele>242.0</ele><time>2026-04-26T12:57:51Z</time></trkpt><trkpt lat="43.30442304037798" lon="11.839686500525877"><ele>242.0</ele><time>2026-04-26T12:57:52Z</time></trkpt><trkpt lat="43.304487990879196" lon="11.839677689369966"><ele>242.0</ele><time>2026-04-26T12:57:53Z</time></trkpt><trkpt lat="43.30455050375138" lon="11.839660048480441"><ele>242.00000000000003</ele><time>2026-04-26T12:57:54Z</time></trkpt><trkpt lat="43.30467365720912" lon="11.839640026537015"><ele>242.0</ele><time>2026-04-26T12:57:56Z</time></trkpt><trkpt lat="43.30478937128491" lon="11.839613234589796"><ele>241.8</ele><time>2026-04-26T12:57:58Z</time></trkpt><trkpt lat="43.304911735086826" lon="11.839595519423833"><ele>241.6</ele><time>2026-04-26T12:58:00Z</time></trkpt><trkpt lat="43.30502637176728" lon="11.83956413830565"><ele>241.40000000000003</ele><time>2026-04-26T12:58:02Z</time></trkpt><trkpt lat="43.30514283260393" lon="11.839535857863034"><ele>241.20000000000002</ele><time>2026-04-26T12:58:04Z</time></trkpt><trkpt lat="43.305205872032154" lon="11.839529533599466"><ele>241.0</ele><time>2026-04-26T12:58:05Z</time></trkpt><trkpt lat="43.30526930504416" lon="11.839520874026876"><ele>241.0</ele><time>2026-04-26T12:58:06Z</time></trkpt><trkpt lat="43.305331907059724" lon="11.839510819370195"><ele>241.00000000000003</ele><time>2026-04-26T12:58:07Z</time></trkpt><trkpt lat="43.30545668991749" lon="11.83948990622627"><ele>241.0</ele><time>2026-04-26T12:58:09Z</time></trkpt><trkpt lat="43.305519472482416" lon="11.839477868403709"><ele>241.0</ele><time>2026-04-26T12:58:10Z</time></trkpt><trkpt lat="43.305582796200504" lon="11.839468027303713"><ele>241.00000000000003</ele><time>2026-04-26T12:58:11Z</time></trkpt><trkpt lat="43.30564749586915" lon="11.839456430606749"><ele>241.0</ele><time>2026-04-26T12:58:12Z</time></trkpt><trkpt lat="43.30570972305021" lon="11.839442946296321"><ele>241.0</ele><time>2026-04-26T12:58:13Z</time></trkpt><trkpt lat="43.30577435116709" lon="11.83943265547226"><ele>240.83333333333331</ele><time>2026-04-26T12:58:14Z</time></trkpt><trkpt lat="43.30583843749278" lon="11.839421287675064"><ele>240.66666666666666</ele><time>2026-04-26T12:58:15Z</time></trkpt><trkpt lat="43.305902691375536" lon="11.839408672034796"><ele>240.5</ele><time>2026-04-26T12:58:16Z</time></trkpt><trkpt lat="43.30602400226033" lon="11.839383752406881"><ele>240.33333333333331</ele><time>2026-04-26T12:58:18Z</time></trkpt><trkpt lat="43.30615232347452" lon="11.839360781975913"><ele>240.16666666666666</ele><time>2026-04-26T12:58:20Z</time></trkpt><trkpt lat="43.3062181940208" lon="11.839349435179424"><ele>240.0</ele><time>2026-04-26T12:58:21Z</time></trkpt><trkpt lat="43.30628441626031" lon="11.839337144905524"><ele>240.0</ele><time>2026-04-26T12:58:22Z</time></trkpt><trkpt lat="43.306350251380394" lon="11.839326037953544"><ele>240.0</ele><time>2026-04-26T12:58:23Z</time></trkpt><trkpt lat="43.30641408068884" lon="11.839315091996333"><ele>240.0</ele><time>2026-04-26T12:58:23.999Z</time></trkpt><trkpt lat="43.30647897081476" lon="11.839303586085016"><ele>240.0</ele><time>2026-04-26T12:58:24.999Z</time></trkpt><trkpt lat="43.306543400482425" lon="11.83929075744377"><ele>240.0</ele><time>2026-04-26T12:58:25.999Z</time></trkpt><trkpt lat="43.306608425299395" lon="11.839279630960649"><ele>240.0</ele><time>2026-04-26T12:58:26.999Z</time></trkpt><trkpt lat="43.30672991685345" lon="11.839255846490971"><ele>240.0</ele><time>2026-04-26T12:58:28.999Z</time></trkpt><trkpt lat="43.306853159128295" lon="11.83923470492087"><ele>240.16666666666666</ele><time>2026-04-26T12:58:30.999Z</time></trkpt><trkpt lat="43.3069763352961" lon="11.83921467299474"><ele>240.33333333333331</ele><time>2026-04-26T12:58:32.999Z</time></trkpt><trkpt lat="43.307039173583775" lon="11.839201664296292"><ele>240.5</ele><time>2026-04-26T12:58:33.999Z</time></trkpt><trkpt lat="43.30710341397161" lon="11.839189249534924"><ele>240.66666666666666</ele><time>2026-04-26T12:58:34.999Z</time></trkpt><trkpt lat="43.30716615836658" lon="11.839178886081635"><ele>240.83333333333331</ele><time>2026-04-26T12:58:35.999Z</time></trkpt><trkpt lat="43.30728529218997" lon="11.839157474720755"><ele>241.0</ele><time>2026-04-26T12:58:37.999Z</time></trkpt><trkpt lat="43.30740524529007" lon="11.83913697505339"><ele>240.99999999999997</ele><time>2026-04-26T12:58:39.999Z</time></trkpt><trkpt lat="43.30753006443164" lon="11.839111589841078"><ele>241.0</ele><time>2026-04-26T12:58:41.999Z</time></trkpt><trkpt lat="43.30759491711532" lon="11.839100032073944"><ele>241.0</ele><time>2026-04-26T12:58:42.999Z</time></trkpt><trkpt lat="43.30765957296257" lon="11.839088825609661"><ele>241.0</ele><time>2026-04-26T12:58:43.999Z</time></trkpt><trkpt lat="43.30772374002054" lon="11.839076865591633"><ele>240.99999999999997</ele><time>2026-04-26T12:58:44.999Z</time></trkpt><trkpt lat="43.307787968651525" lon="11.839064835570879"><ele>241.0</ele><time>2026-04-26T12:58:45.999Z</time></trkpt><trkpt lat="43.30785189535728" lon="11.839051288743082"><ele>241.0</ele><time>2026-04-26T12:58:46.999Z</time></trkpt><trkpt lat="43.3079754455539" lon="11.839030703844116"><ele>241.0</ele><time>2026-04-26T12:58:49Z</time></trkpt><trkpt lat="43.30809863349465" lon="11.839008793481995"><ele>241.0</ele><time>2026-04-26T12:58:51Z</time></trkpt><trkpt lat="43.30821974706611" lon="11.838984443388352"><ele>241.0</ele><time>2026-04-26T12:58:53Z</time></trkpt><trkpt lat="43.30834157186921" lon="11.838962616924759"><ele>240.99999999999997</ele><time>2026-04-26T12:58:55Z</time></trkpt><trkpt lat="43.30845847454024" lon="11.83894217813765"><ele>241.0</ele><time>2026-04-26T12:58:57Z</time></trkpt><trkpt lat="43.30857861324356" lon="11.838919281033057"><ele>241.0</ele><time>2026-04-26T12:58:59Z</time></trkpt><trkpt lat="43.308642543545005" lon="11.838906654752758"><ele>241.0</ele><time>2026-04-26T12:59:00Z</time></trkpt><trkpt lat="43.308706856225584" lon="11.838895661429572"><ele>240.99999999999997</ele><time>2026-04-26T12:59:01Z</time></trkpt><trkpt lat="43.30877348534782" lon="11.838887634235753"><ele>241.0</ele><time>2026-04-26T12:59:02Z</time></trkpt><trkpt lat="43.308838084423705" lon="11.838875519722281"><ele>240.99999999999997</ele><time>2026-04-26T12:59:03Z</time></trkpt><trkpt lat="43.30890305215362" lon="11.8388616317144"><ele>241.0</ele><time>2026-04-26T12:59:04Z</time></trkpt><trkpt lat="43.30896817957683" lon="11.838849352199082"><ele>241.0</ele><time>2026-04-26T12:59:05Z</time></trkpt><trkpt lat="43.30903306559675" lon="11.838838759038266"><ele>241.0</ele><time>2026-04-26T12:59:06Z</time></trkpt><trkpt lat="43.30909595790283" lon="11.838826819295651"><ele>240.99999999999997</ele><time>2026-04-26T12:59:07Z</time></trkpt><trkpt lat="43.309217521527444" lon="11.838804313349039"><ele>241.0</ele><time>2026-04-26T12:59:09Z</time></trkpt><trkpt lat="43.30934029467489" lon="11.838781062264331"><ele>241.16666666666666</ele><time>2026-04-26T12:59:11Z</time></trkpt><trkpt lat="43.309405471071955" lon="11.83877007139195"><ele>241.33333333333331</ele><time>2026-04-26T12:59:12Z</time></trkpt><trkpt lat="43.30946972553124" lon="11.83875802621819"><ele>241.5</ele><time>2026-04-26T12:59:13Z</time></trkpt><trkpt lat="43.30953273808624" lon="11.838745317452068"><ele>241.66666666666669</ele><time>2026-04-26T12:59:14Z</time></trkpt><trkpt lat="43.309596921755485" lon="11.838728599611569"><ele>241.83333333333334</ele><time>2026-04-26T12:59:15Z</time></trkpt><trkpt lat="43.309661202536255" lon="11.838712665008824"><ele>242.0</ele><time>2026-04-26T12:59:16Z</time></trkpt><trkpt lat="43.30978722929061" lon="11.838687514117247"><ele>242.16666666666669</ele><time>2026-04-26T12:59:18Z</time></trkpt><trkpt lat="43.309852412296976" lon="11.838679461721114"><ele>242.33333333333334</ele><time>2026-04-26T12:59:19Z</time></trkpt><trkpt lat="43.309919121729834" lon="11.838672412651318"><ele>242.5</ele><time>2026-04-26T12:59:20Z</time></trkpt><trkpt lat="43.309985327979206" lon="11.838665120117337"><ele>242.66666666666669</ele><time>2026-04-26T12:59:21Z</time></trkpt><trkpt lat="43.310050109693094" lon="11.838658239297168"><ele>242.83333333333334</ele><time>2026-04-26T12:59:22Z</time></trkpt><trkpt lat="43.310116370333255" lon="11.838650757023922"><ele>243.0</ele><time>2026-04-26T12:59:23Z</time></trkpt><trkpt lat="43.31024242428887" lon="11.838626593628405"><ele>243.0</ele><time>2026-04-26T12:59:25Z</time></trkpt><trkpt lat="43.31030612406247" lon="11.83861387784418"><ele>243.0</ele><time>2026-04-26T12:59:26Z</time></trkpt><trkpt lat="43.31037172023254" lon="11.838602825761669"><ele>243.0</ele><time>2026-04-26T12:59:27Z</time></trkpt><trkpt lat="43.310436423334735" lon="11.838588966979039"><ele>243.0</ele><time>2026-04-26T12:59:28Z</time></trkpt><trkpt lat="43.31050145917332" lon="11.838575287630357"><ele>243.0</ele><time>2026-04-26T12:59:29Z</time></trkpt><trkpt lat="43.31056688204864" lon="11.838562202453247"><ele>243.0</ele><time>2026-04-26T12:59:30Z</time></trkpt><trkpt lat="43.31063238424914" lon="11.838551310574104"><ele>243.0</ele><time>2026-04-26T12:59:31Z</time></trkpt><trkpt lat="43.31069785352824" lon="11.838539899648424"><ele>242.57142857142856</ele><time>2026-04-26T12:59:32Z</time></trkpt><trkpt lat="43.31076357871294" lon="11.838524726331146"><ele>242.14285714285717</ele><time>2026-04-26T12:59:33Z</time></trkpt><trkpt lat="43.31082842878458" lon="11.838514538807496"><ele>241.71428571428572</ele><time>2026-04-26T12:59:34Z</time></trkpt><trkpt lat="43.31089446109051" lon="11.838503701175334"><ele>241.28571428571428</ele><time>2026-04-26T12:59:35Z</time></trkpt><trkpt lat="43.31095999138681" lon="11.838491578089014"><ele>240.85714285714283</ele><time>2026-04-26T12:59:36Z</time></trkpt><trkpt lat="43.31102652840204" lon="11.838480095140952"><ele>240.42857142857144</ele><time>2026-04-26T12:59:37Z</time></trkpt><trkpt lat="43.31109097495561" lon="11.83847027764084"><ele>240.0</ele><time>2026-04-26T12:59:38Z</time></trkpt><trkpt lat="43.311155437137124" lon="11.838456701030797"><ele>239.85714285714286</ele><time>2026-04-26T12:59:39Z</time></trkpt><trkpt lat="43.311219408888896" lon="11.838445303382038"><ele>239.71428571428572</ele><time>2026-04-26T12:59:40Z</time></trkpt><trkpt lat="43.31128371600537" lon="11.838434290234295"><ele>239.57142857142858</ele><time>2026-04-26T12:59:41Z</time></trkpt><trkpt lat="43.31134805817594" lon="11.838426167820824"><ele>239.42857142857144</ele><time>2026-04-26T12:59:42Z</time></trkpt><trkpt lat="43.31141164026911" lon="11.838414148671461"><ele>239.28571428571428</ele><time>2026-04-26T12:59:43Z</time></trkpt><trkpt lat="43.311474719998515" lon="11.838397699252303"><ele>239.14285714285717</ele><time>2026-04-26T12:59:44Z</time></trkpt><trkpt lat="43.31154064213554" lon="11.838385560053919"><ele>239.00000000000003</ele><time>2026-04-26T12:59:45Z</time></trkpt><trkpt lat="43.3116040665755" lon="11.838373024929805"><ele>239.28571428571433</ele><time>2026-04-26T12:59:46Z</time></trkpt><trkpt lat="43.31166647536645" lon="11.838357088399906"><ele>239.57142857142858</ele><time>2026-04-26T12:59:47Z</time></trkpt><trkpt lat="43.31178882896035" lon="11.838338988709467"><ele>239.8571428571429</ele><time>2026-04-26T12:59:49Z</time></trkpt><trkpt lat="43.31185409092904" lon="11.83832514502233"><ele>240.14285714285717</ele><time>2026-04-26T12:59:50Z</time></trkpt><trkpt lat="43.31191753234121" lon="11.83831365495479"><ele>240.42857142857144</ele><time>2026-04-26T12:59:51Z</time></trkpt><trkpt lat="43.311981586193525" lon="11.838301510866577"><ele>240.71428571428572</ele><time>2026-04-26T12:59:52Z</time></trkpt><trkpt lat="43.312048306079895" lon="11.838288172025283"><ele>241.0</ele><time>2026-04-26T12:59:53Z</time></trkpt><trkpt lat="43.312117097000424" lon="11.8382756751275"><ele>241.0</ele><time>2026-04-26T12:59:54Z</time></trkpt><trkpt lat="43.312186906341246" lon="11.838263425929657"><ele>241.00000000000003</ele><time>2026-04-26T12:59:55Z</time></trkpt><trkpt lat="43.312256217890315" lon="11.838250035579918"><ele>241.0</ele><time>2026-04-26T12:59:56Z</time></trkpt><trkpt lat="43.31232510435517" lon="11.838236244973924"><ele>241.0</ele><time>2026-04-26T12:59:57Z</time></trkpt><trkpt lat="43.31239565454068" lon="11.838223453118319"><ele>241.00000000000003</ele><time>2026-04-26T12:59:58Z</time></trkpt><trkpt lat="43.31246606336384" lon="11.838210117244442"><ele>241.0</ele><time>2026-04-26T12:59:59Z</time></trkpt><trkpt lat="43.31253735384238" lon="11.838194064187741"><ele>241.0</ele><time>2026-04-26T13:00:00Z</time></trkpt><trkpt lat="43.31260763922316" lon="11.838181768303995"><ele>241.14285714285717</ele><time>2026-04-26T13:00:01Z</time></trkpt><trkpt lat="43.31267558144636" lon="11.83816868528944"><ele>241.2857142857143</ele><time>2026-04-26T13:00:02Z</time></trkpt><trkpt lat="43.312742987812825" lon="11.838156116115153"><ele>241.42857142857144</ele><time>2026-04-26T13:00:03Z</time></trkpt><trkpt lat="43.312808235592556" lon="11.83814144543027"><ele>241.57142857142856</ele><time>2026-04-26T13:00:04Z</time></trkpt><trkpt lat="43.312876247286454" lon="11.838128163156604"><ele>241.7142857142857</ele><time>2026-04-26T13:00:05Z</time></trkpt><trkpt lat="43.3129453181312" lon="11.838115489983148"><ele>241.85714285714283</ele><time>2026-04-26T13:00:06Z</time></trkpt><trkpt lat="43.31301396774627" lon="11.838100947210497"><ele>242.0</ele><time>2026-04-26T13:00:07Z</time></trkpt><trkpt lat="43.313083651640596" lon="11.838090305790624"><ele>242.14285714285714</ele><time>2026-04-26T13:00:08Z</time></trkpt><trkpt lat="43.31315133574344" lon="11.838075479247337"><ele>242.28571428571428</ele><time>2026-04-26T13:00:09Z</time></trkpt><trkpt lat="43.3132171017518" lon="11.838061881684588"><ele>242.42857142857142</ele><time>2026-04-26T13:00:10Z</time></trkpt><trkpt lat="43.313285249384684" lon="11.838049687623528"><ele>242.57142857142856</ele><time>2026-04-26T13:00:11Z</time></trkpt><trkpt lat="43.31335269520249" lon="11.838037079919706"><ele>242.71428571428572</ele><time>2026-04-26T13:00:12Z</time></trkpt><trkpt lat="43.31341984981618" lon="11.838022976671201"><ele>242.85714285714283</ele><time>2026-04-26T13:00:13Z</time></trkpt><trkpt lat="43.31348672882088" lon="11.83800857468755"><ele>243.0</ele><time>2026-04-26T13:00:14Z</time></trkpt><trkpt lat="43.31355247073104" lon="11.837997754593776"><ele>243.0</ele><time>2026-04-26T13:00:15Z</time></trkpt><trkpt lat="43.31361783498305" lon="11.837983636043562"><ele>243.0</ele><time>2026-04-26T13:00:16Z</time></trkpt><trkpt lat="43.31368379392641" lon="11.837968762527831"><ele>243.0</ele><time>2026-04-26T13:00:17Z</time></trkpt><trkpt lat="43.31374972389445" lon="11.837956742794814"><ele>243.0</ele><time>2026-04-26T13:00:18Z</time></trkpt><trkpt lat="43.31381697617839" lon="11.83794548155323"><ele>243.0</ele><time>2026-04-26T13:00:19Z</time></trkpt><trkpt lat="43.31388376443538" lon="11.837931238732697"><ele>243.0</ele><time>2026-04-26T13:00:20Z</time></trkpt><trkpt lat="43.31395188858228" lon="11.837918140261369"><ele>243.0</ele><time>2026-04-26T13:00:21Z</time></trkpt><trkpt lat="43.31401872186467" lon="11.83790489634994"><ele>243.0</ele><time>2026-04-26T13:00:22Z</time></trkpt><trkpt lat="43.31408851316199" lon="11.837892230566682"><ele>243.0</ele><time>2026-04-26T13:00:23Z</time></trkpt><trkpt lat="43.31415815877977" lon="11.837878504293949"><ele>243.0</ele><time>2026-04-26T13:00:24Z</time></trkpt><trkpt lat="43.314227526721695" lon="11.837866076230478"><ele>243.0</ele><time>2026-04-26T13:00:25Z</time></trkpt><trkpt lat="43.31429815761419" lon="11.837854063008589"><ele>243.0</ele><time>2026-04-26T13:00:26Z</time></trkpt><trkpt lat="43.31436773498671" lon="11.837839869309962"><ele>243.0</ele><time>2026-04-26T13:00:27Z</time></trkpt><trkpt lat="43.314438874925784" lon="11.837826385177003"><ele>243.0</ele><time>2026-04-26T13:00:28Z</time></trkpt><trkpt lat="43.314510196581104" lon="11.83781143879114"><ele>243.0</ele><time>2026-04-26T13:00:29Z</time></trkpt><trkpt lat="43.31457943451973" lon="11.837797647851085"><ele>243.0</ele><time>2026-04-26T13:00:30Z</time></trkpt><trkpt lat="43.31464815110711" lon="11.837784016389346"><ele>243.0</ele><time>2026-04-26T13:00:31Z</time></trkpt><trkpt lat="43.31471519932671" lon="11.837767863401147"><ele>243.0</ele><time>2026-04-26T13:00:31.999Z</time></trkpt><trkpt lat="43.314783717143506" lon="11.83775650993531"><ele>243.0</ele><time>2026-04-26T13:00:32.999Z</time></trkpt><trkpt lat="43.314904536348" lon="11.83772598877358"><ele>243.0</ele><time>2026-04-26T13:00:34.999Z</time></trkpt><trkpt lat="43.31496706380974" lon="11.837712197301133"><ele>242.8</ele><time>2026-04-26T13:00:35.999Z</time></trkpt><trkpt lat="43.31508581934638" lon="11.837690489621748"><ele>242.60000000000002</ele><time>2026-04-26T13:00:37.999Z</time></trkpt><trkpt lat="43.3151749950273" lon="11.837762652210436"><ele>242.39999999999998</ele><time>2026-04-26T13:00:39.999Z</time></trkpt><trkpt lat="43.31515904362553" lon="11.83785944649466"><ele>242.2</ele><time>2026-04-26T13:00:41.999Z</time></trkpt><trkpt lat="43.315077277524715" lon="11.83793983802907"><ele>242.0</ele><time>2026-04-26T13:00:43.999Z</time></trkpt><trkpt lat="43.31498965845733" lon="11.838033234274384"><ele>242.0</ele><time>2026-04-26T13:00:45.999Z</time></trkpt><trkpt lat="43.31490751486372" lon="11.838126317328015"><ele>242.0</ele><time>2026-04-26T13:00:47.999Z</time></trkpt><trkpt lat="43.314820428549474" lon="11.838225778855675"><ele>242.0</ele><time>2026-04-26T13:00:49.999Z</time></trkpt><trkpt lat="43.31473591004243" lon="11.838334161047134"><ele>242.0</ele><time>2026-04-26T13:00:51.999Z</time></trkpt><trkpt lat="43.31464287872659" lon="11.838447260556094"><ele>241.75</ele><time>2026-04-26T13:00:54Z</time></trkpt><trkpt lat="43.314557119174985" lon="11.838561148113367"><ele>241.5</ele><time>2026-04-26T13:00:56Z</time></trkpt><trkpt lat="43.31447361476222" lon="11.838676434600067"><ele>241.25</ele><time>2026-04-26T13:00:58Z</time></trkpt><trkpt lat="43.314392839124004" lon="11.838796448517357"><ele>241.0</ele><time>2026-04-26T13:01:00Z</time></trkpt><trkpt lat="43.3143134096445" lon="11.838919875404533"><ele>241.0</ele><time>2026-04-26T13:01:02Z</time></trkpt><trkpt lat="43.31423556701336" lon="11.839045334750502"><ele>241.0</ele><time>2026-04-26T13:01:04Z</time></trkpt><trkpt lat="43.31415927689625" lon="11.839173277801988"><ele>241.0</ele><time>2026-04-26T13:01:06Z</time></trkpt><trkpt lat="43.314087950960904" lon="11.839304094862653"><ele>241.0</ele><time>2026-04-26T13:01:08Z</time></trkpt><trkpt lat="43.31405045341378" lon="11.839422964140853"><ele>241.0</ele><time>2026-04-26T13:01:10Z</time></trkpt><trkpt lat="43.314123138475495" lon="11.83950095590533"><ele>241.00000000000003</ele><time>2026-04-26T13:01:12Z</time></trkpt><trkpt lat="43.31420700998716" lon="11.83958543755986"><ele>241.00000000000003</ele><time>2026-04-26T13:01:14Z</time></trkpt><trkpt lat="43.3142880096886" lon="11.839676673316411"><ele>241.0</ele><time>2026-04-26T13:01:16Z</time></trkpt><trkpt lat="43.314363347983985" lon="11.839761716305008"><ele>241.0</ele><time>2026-04-26T13:01:18Z</time></trkpt><trkpt lat="43.31443664545577" lon="11.839823103685585"><ele>241.0</ele><time>2026-04-26T13:01:20Z</time></trkpt><trkpt lat="43.31450141402922" lon="11.83975237617169"><ele>241.00000000000003</ele><time>2026-04-26T13:01:22Z</time></trkpt><trkpt lat="43.314553263291565" lon="11.839622009042476"><ele>241.00000000000003</ele><time>2026-04-26T13:01:24Z</time></trkpt><trkpt lat="43.31463043602612" lon="11.839503304821282"><ele>241.0</ele><time>2026-04-26T13:01:26Z</time></trkpt><trkpt lat="43.314704544206805" lon="11.839382572916424"><ele>241.0</ele><time>2026-04-26T13:01:28Z</time></trkpt><trkpt lat="43.31478060273316" lon="11.839271194133586"><ele>241.20000000000002</ele><time>2026-04-26T13:01:30Z</time></trkpt><trkpt lat="43.31486160038549" lon="11.839152542038498"><ele>241.40000000000003</ele><time>2026-04-26T13:01:32Z</time></trkpt><trkpt lat="43.31494913979627" lon="11.839040211637519"><ele>241.6</ele><time>2026-04-26T13:01:34Z</time></trkpt><trkpt lat="43.31503704999619" lon="11.838923563736584"><ele>241.8</ele><time>2026-04-26T13:01:36Z</time></trkpt><trkpt lat="43.31508479495687" lon="11.838865630840187"><ele>242.0</ele><time>2026-04-26T13:01:37Z</time></trkpt><trkpt lat="43.31518265612996" lon="11.838750967658765"><ele>242.0</ele><time>2026-04-26T13:01:39Z</time></trkpt><trkpt lat="43.315234111978974" lon="11.838693710486668"><ele>241.99999999999997</ele><time>2026-04-26T13:01:40Z</time></trkpt><trkpt lat="43.31528402376273" lon="11.838638739339967"><ele>242.0</ele><time>2026-04-26T13:01:41Z</time></trkpt><trkpt lat="43.31533550895944" lon="11.838584491855746"><ele>242.0</ele><time>2026-04-26T13:01:42Z</time></trkpt><trkpt lat="43.31538854638583" lon="11.838532470028467"><ele>241.99999999999997</ele><time>2026-04-26T13:01:43Z</time></trkpt><trkpt lat="43.31544168465411" lon="11.838479677915933"><ele>242.0</ele><time>2026-04-26T13:01:44Z</time></trkpt><trkpt lat="43.31549519354084" lon="11.83842701619389"><ele>242.0</ele><time>2026-04-26T13:01:45Z</time></trkpt><trkpt lat="43.31554879573576" lon="11.838376121329727"><ele>242.14285714285714</ele><time>2026-04-26T13:01:46Z</time></trkpt><trkpt lat="43.31560214190557" lon="11.83832635541256"><ele>242.28571428571428</ele><time>2026-04-26T13:01:47Z</time></trkpt><trkpt lat="43.31570847149066" lon="11.838230738636248"><ele>242.42857142857142</ele><time>2026-04-26T13:01:48.999Z</time></trkpt><trkpt lat="43.31576257027384" lon="11.838185061373569"><ele>242.57142857142856</ele><time>2026-04-26T13:01:49.999Z</time></trkpt><trkpt lat="43.31581637113136" lon="11.838138368255903"><ele>242.71428571428572</ele><time>2026-04-26T13:01:50.999Z</time></trkpt><trkpt lat="43.31587001548603" lon="11.838092547649806"><ele>242.85714285714283</ele><time>2026-04-26T13:01:51.999Z</time></trkpt><trkpt lat="43.315926539867505" lon="11.83804848000526"><ele>243.0</ele><time>2026-04-26T13:01:52.999Z</time></trkpt><trkpt lat="43.31598294692014" lon="11.838009039604819"><ele>243.0</ele><time>2026-04-26T13:01:53.999Z</time></trkpt><trkpt lat="43.3160975690456" lon="11.837928563858172"><ele>243.0</ele><time>2026-04-26T13:01:55.999Z</time></trkpt><trkpt lat="43.31615667285896" lon="11.837892831167613"><ele>243.0</ele><time>2026-04-26T13:01:56.999Z</time></trkpt><trkpt lat="43.31621725511813" lon="11.837857655916984"><ele>243.0</ele><time>2026-04-26T13:01:57.999Z</time></trkpt><trkpt lat="43.3162800155776" lon="11.837817695352136"><ele>243.0</ele><time>2026-04-26T13:01:58.999Z</time></trkpt><trkpt lat="43.31634324689644" lon="11.83778331018846"><ele>243.0</ele><time>2026-04-26T13:01:59.999Z</time></trkpt><trkpt lat="43.31640835422813" lon="11.83774811426801"><ele>243.0</ele><time>2026-04-26T13:02:00.999Z</time></trkpt><trkpt lat="43.3164739571559" lon="11.83771357190917"><ele>243.0</ele><time>2026-04-26T13:02:01.999Z</time></trkpt><trkpt lat="43.31654115642038" lon="11.837677935741802"><ele>243.0</ele><time>2026-04-26T13:02:02.999Z</time></trkpt><trkpt lat="43.31661072544893" lon="11.83764206779367"><ele>243.0</ele><time>2026-04-26T13:02:03.999Z</time></trkpt><trkpt lat="43.31667931035885" lon="11.837606123227419"><ele>243.0</ele><time>2026-04-26T13:02:04.999Z</time></trkpt><trkpt lat="43.316747591767076" lon="11.837574279648674"><ele>243.0</ele><time>2026-04-26T13:02:05.999Z</time></trkpt><trkpt lat="43.31681333175559" lon="11.837541043093877"><ele>243.0</ele><time>2026-04-26T13:02:06.999Z</time></trkpt><trkpt lat="43.31687822264498" lon="11.83750757053196"><ele>243.0</ele><time>2026-04-26T13:02:07.999Z</time></trkpt><trkpt lat="43.31694397226732" lon="11.83747777166861"><ele>243.0</ele><time>2026-04-26T13:02:08.999Z</time></trkpt><trkpt lat="43.3170122605565" lon="11.837448727666764"><ele>243.0</ele><time>2026-04-26T13:02:09.999Z</time></trkpt><trkpt lat="43.317077297914466" lon="11.837423071440917"><ele>243.0</ele><time>2026-04-26T13:02:10.999Z</time></trkpt><trkpt lat="43.317145147291775" lon="11.837398225384575"><ele>243.0</ele><time>2026-04-26T13:02:11.999Z</time></trkpt><trkpt lat="43.31721263691417" lon="11.837371783124768"><ele>243.0</ele><time>2026-04-26T13:02:12.999Z</time></trkpt><trkpt lat="43.317279517128014" lon="11.837347755935513"><ele>243.0</ele><time>2026-04-26T13:02:13.999Z</time></trkpt><trkpt lat="43.31734608125699" lon="11.837324485154957"><ele>243.0</ele><time>2026-04-26T13:02:14.999Z</time></trkpt><trkpt lat="43.317413964097526" lon="11.837302849729687"><ele>243.0</ele><time>2026-04-26T13:02:15.999Z</time></trkpt><trkpt lat="43.317480553608455" lon="11.837282202001935"><ele>243.0</ele><time>2026-04-26T13:02:16.999Z</time></trkpt><trkpt lat="43.317548523858015" lon="11.837261392831026"><ele>243.0</ele><time>2026-04-26T13:02:17.999Z</time></trkpt><trkpt lat="43.31761746086503" lon="11.837237452484946"><ele>243.0</ele><time>2026-04-26T13:02:18.999Z</time></trkpt><trkpt lat="43.31768681876243" lon="11.837217726388623"><ele>243.0</ele><time>2026-04-26T13:02:19.999Z</time></trkpt><trkpt lat="43.317756513304886" lon="11.837200450979351"><ele>243.0</ele><time>2026-04-26T13:02:20.999Z</time></trkpt><trkpt lat="43.31782563964409" lon="11.837183555009425"><ele>243.0</ele><time>2026-04-26T13:02:21.999Z</time></trkpt><trkpt lat="43.3178948565677" lon="11.837167547608017"><ele>243.0</ele><time>2026-04-26T13:02:22.999Z</time></trkpt><trkpt lat="43.31796393854272" lon="11.837152461399533"><ele>243.0</ele><time>2026-04-26T13:02:23.999Z</time></trkpt><trkpt lat="43.318034187912374" lon="11.837138934244381"><ele>243.0</ele><time>2026-04-26T13:02:24.999Z</time></trkpt><trkpt lat="43.31810230463874" lon="11.837127243214894"><ele>243.0</ele><time>2026-04-26T13:02:25.999Z</time></trkpt><trkpt lat="43.31817286173642" lon="11.837116101417395"><ele>243.0</ele><time>2026-04-26T13:02:26.999Z</time></trkpt><trkpt lat="43.31824074415001" lon="11.83710406220555"><ele>243.0</ele><time>2026-04-26T13:02:27.999Z</time></trkpt><trkpt lat="43.318308153490335" lon="11.837092789571608"><ele>243.0</ele><time>2026-04-26T13:02:28.999Z</time></trkpt><trkpt lat="43.31837775945412" lon="11.837080757976535"><ele>243.0</ele><time>2026-04-26T13:02:29.999Z</time></trkpt><trkpt lat="43.318442688489554" lon="11.837066539648195"><ele>243.0</ele><time>2026-04-26T13:02:30.999Z</time></trkpt><trkpt lat="43.31850961323406" lon="11.83705847383311"><ele>243.0</ele><time>2026-04-26T13:02:31.999Z</time></trkpt><trkpt lat="43.318577887418634" lon="11.837047659515237"><ele>243.0</ele><time>2026-04-26T13:02:32.999Z</time></trkpt><trkpt lat="43.31864714603829" lon="11.837033590589265"><ele>243.0</ele><time>2026-04-26T13:02:33.999Z</time></trkpt><trkpt lat="43.31871599933164" lon="11.83701806225369"><ele>243.0</ele><time>2026-04-26T13:02:34.999Z</time></trkpt><trkpt lat="43.31878537849511" lon="11.837004376932196"><ele>243.0</ele><time>2026-04-26T13:02:35.999Z</time></trkpt><trkpt lat="43.318854613424655" lon="11.836989203932358"><ele>243.0</ele><time>2026-04-26T13:02:36.999Z</time></trkpt><trkpt lat="43.318923571317725" lon="11.836972635170172"><ele>243.0</ele><time>2026-04-26T13:02:37.999Z</time></trkpt><trkpt lat="43.31899274927686" lon="11.83695533846703"><ele>243.0</ele><time>2026-04-26T13:02:38.999Z</time></trkpt><trkpt lat="43.319061407024044" lon="11.836938036422165"><ele>243.0</ele><time>2026-04-26T13:02:39.999Z</time></trkpt><trkpt lat="43.31913222993093" lon="11.836920641728872"><ele>243.0</ele><time>2026-04-26T13:02:40.999Z</time></trkpt><trkpt lat="43.31920307471717" lon="11.836901815908668"><ele>243.0</ele><time>2026-04-26T13:02:41.999Z</time></trkpt><trkpt lat="43.31927250898079" lon="11.836882487011776"><ele>243.0</ele><time>2026-04-26T13:02:42.999Z</time></trkpt><trkpt lat="43.31934435942471" lon="11.836864707430863"><ele>243.0</ele><time>2026-04-26T13:02:43.999Z</time></trkpt><trkpt lat="43.319412942179824" lon="11.836842587568881"><ele>243.0</ele><time>2026-04-26T13:02:44.999Z</time></trkpt><trkpt lat="43.31948216069462" lon="11.83682271540818"><ele>243.0</ele><time>2026-04-26T13:02:45.999Z</time></trkpt><trkpt lat="43.319551055678744" lon="11.836805580968456"><ele>243.0</ele><time>2026-04-26T13:02:46.999Z</time></trkpt><trkpt lat="43.31961714428379" lon="11.836785916562114"><ele>243.0</ele><time>2026-04-26T13:02:47.999Z</time></trkpt><trkpt lat="43.319684515562905" lon="11.836764277948914"><ele>243.0</ele><time>2026-04-26T13:02:48.999Z</time></trkpt><trkpt lat="43.31974825813896" lon="11.836740749893996"><ele>242.71428571428572</ele><time>2026-04-26T13:02:49.999Z</time></trkpt><trkpt lat="43.31981246853246" lon="11.836718268273852"><ele>242.42857142857144</ele><time>2026-04-26T13:02:50.999Z</time></trkpt><trkpt lat="43.31987589884599" lon="11.836696350769218"><ele>242.14285714285717</ele><time>2026-04-26T13:02:51.999Z</time></trkpt><trkpt lat="43.31993921662436" lon="11.836672669843692"><ele>241.85714285714286</ele><time>2026-04-26T13:02:52.999Z</time></trkpt><trkpt lat="43.32000270207673" lon="11.836648007968389"><ele>241.5714285714286</ele><time>2026-04-26T13:02:53.999Z</time></trkpt><trkpt lat="43.32006610874339" lon="11.836623864634076"><ele>241.2857142857143</ele><time>2026-04-26T13:02:54.999Z</time></trkpt><trkpt lat="43.32012965614084" lon="11.836598547082444"><ele>241.0</ele><time>2026-04-26T13:02:55.999Z</time></trkpt><trkpt lat="43.32024828533819" lon="11.836541633019376"><ele>240.99999999999997</ele><time>2026-04-26T13:02:57.999Z</time></trkpt><trkpt lat="43.320353911371264" lon="11.836495433657324"><ele>241.0</ele><time>2026-04-26T13:03:00Z</time></trkpt><trkpt lat="43.32042703410086" lon="11.83647233571542"><ele>241.0</ele><time>2026-04-26T13:03:03Z</time></trkpt><trkpt lat="43.32045280824774" lon="11.836345301676237"><ele>241.0</ele><time>2026-04-26T13:03:07Z</time></trkpt><trkpt lat="43.320427178753825" lon="11.836260010864189"><ele>240.99999999999997</ele><time>2026-04-26T13:03:08Z</time></trkpt><trkpt lat="43.32039893489425" lon="11.836164575456737"><ele>241.0</ele><time>2026-04-26T13:03:09Z</time></trkpt><trkpt lat="43.32037487952871" lon="11.8360647217851"><ele>240.99999999999997</ele><time>2026-04-26T13:03:10Z</time></trkpt><trkpt lat="43.32034756045147" lon="11.835958359705877"><ele>241.0</ele><time>2026-04-26T13:03:11Z</time></trkpt><trkpt lat="43.32031829451444" lon="11.835854879320397"><ele>241.0</ele><time>2026-04-26T13:03:12Z</time></trkpt><trkpt lat="43.32029714117836" lon="11.835763035881653"><ele>241.0</ele><time>2026-04-26T13:03:13Z</time></trkpt><trkpt lat="43.32027667184053" lon="11.835648076662617"><ele>240.99999999999997</ele><time>2026-04-26T13:03:15Z</time></trkpt><trkpt lat="43.32037276629884" lon="11.835615561535187"><ele>241.0</ele><time>2026-04-26T13:03:17Z</time></trkpt><trkpt lat="43.32047152169952" lon="11.835593074916627"><ele>240.75</ele><time>2026-04-26T13:03:19Z</time></trkpt><trkpt lat="43.320574943461345" lon="11.835546952773587"><ele>240.5</ele><time>2026-04-26T13:03:21Z</time></trkpt><trkpt lat="43.32068371582707" lon="11.835505264267969"><ele>240.25</ele><time>2026-04-26T13:03:22.999Z</time></trkpt><trkpt lat="43.32079381765304" lon="11.835446166733272"><ele>240.0</ele><time>2026-04-26T13:03:24.999Z</time></trkpt><trkpt lat="43.32090569193613" lon="11.835388849179811"><ele>240.0</ele><time>2026-04-26T13:03:26.999Z</time></trkpt><trkpt lat="43.321017363341426" lon="11.835330384133131"><ele>240.0</ele><time>2026-04-26T13:03:28.999Z</time></trkpt><trkpt lat="43.32107756934255" lon="11.835302105100181"><ele>240.0</ele><time>2026-04-26T13:03:29.999Z</time></trkpt><trkpt lat="43.32114073890477" lon="11.835276740478575"><ele>240.0</ele><time>2026-04-26T13:03:30.999Z</time></trkpt><trkpt lat="43.32120037194651" lon="11.835246112505212"><ele>240.0</ele><time>2026-04-26T13:03:31.999Z</time></trkpt><trkpt lat="43.321310774039425" lon="11.83518927116775"><ele>240.0</ele><time>2026-04-26T13:03:33.999Z</time></trkpt><trkpt lat="43.32141741581117" lon="11.835137167171508"><ele>240.16666666666666</ele><time>2026-04-26T13:03:35.999Z</time></trkpt><trkpt lat="43.321532007669454" lon="11.835086930955539"><ele>240.33333333333331</ele><time>2026-04-26T13:03:37.999Z</time></trkpt><trkpt lat="43.321644420872296" lon="11.835031956670322"><ele>240.5</ele><time>2026-04-26T13:03:39.999Z</time></trkpt><trkpt lat="43.321704455709984" lon="11.835003876712278"><ele>240.66666666666666</ele><time>2026-04-26T13:03:40.999Z</time></trkpt><trkpt lat="43.32176439821131" lon="11.834974126167795"><ele>240.83333333333331</ele><time>2026-04-26T13:03:41.999Z</time></trkpt><trkpt lat="43.32182589080254" lon="11.834943116329239"><ele>241.0</ele><time>2026-04-26T13:03:42.999Z</time></trkpt><trkpt lat="43.32188840945448" lon="11.834912731592132"><ele>241.0</ele><time>2026-04-26T13:03:43.999Z</time></trkpt><trkpt lat="43.32195116543843" lon="11.834880602991005"><ele>241.00000000000003</ele><time>2026-04-26T13:03:44.999Z</time></trkpt><trkpt lat="43.32201324465625" lon="11.834848420221318"><ele>241.0</ele><time>2026-04-26T13:03:45.999Z</time></trkpt><trkpt lat="43.322077433572716" lon="11.834818043859936"><ele>241.0</ele><time>2026-04-26T13:03:46.999Z</time></trkpt><trkpt lat="43.32214122562594" lon="11.834785253564123"><ele>241.00000000000003</ele><time>2026-04-26T13:03:47.999Z</time></trkpt><trkpt lat="43.32220422909261" lon="11.834753703963884"><ele>241.0</ele><time>2026-04-26T13:03:48.999Z</time></trkpt><trkpt lat="43.32226998093915" lon="11.834722589103212"><ele>241.0</ele><time>2026-04-26T13:03:49.999Z</time></trkpt><trkpt lat="43.3223313022728" lon="11.834692955448187"><ele>240.85714285714286</ele><time>2026-04-26T13:03:50.999Z</time></trkpt><trkpt lat="43.32239565088082" lon="11.834664035311908"><ele>240.71428571428572</ele><time>2026-04-26T13:03:51.999Z</time></trkpt><trkpt lat="43.32245626148492" lon="11.83463321521911"><ele>240.57142857142858</ele><time>2026-04-26T13:03:52.999Z</time></trkpt><trkpt lat="43.32252022386772" lon="11.83460404206314"><ele>240.42857142857144</ele><time>2026-04-26T13:03:53.999Z</time></trkpt><trkpt lat="43.322583123816244" lon="11.834573119573612"><ele>240.28571428571428</ele><time>2026-04-26T13:03:54.999Z</time></trkpt><trkpt lat="43.32264539651187" lon="11.834544687684929"><ele>240.14285714285717</ele><time>2026-04-26T13:03:55.999Z</time></trkpt><trkpt lat="43.32270880822832" lon="11.834515748586577"><ele>240.0</ele><time>2026-04-26T13:03:56.999Z</time></trkpt><trkpt lat="43.32277273605304" lon="11.834485672560556"><ele>240.0</ele><time>2026-04-26T13:03:57.999Z</time></trkpt><trkpt lat="43.322831664544125" lon="11.834453935869593"><ele>240.0</ele><time>2026-04-26T13:03:58.999Z</time></trkpt><trkpt lat="43.32289679484574" lon="11.834423399189303"><ele>240.0</ele><time>2026-04-26T13:03:59.999Z</time></trkpt><trkpt lat="43.32295930472437" lon="11.8343951018788"><ele>240.0</ele><time>2026-04-26T13:04:00.999Z</time></trkpt><trkpt lat="43.32302081320401" lon="11.834364751295379"><ele>240.0</ele><time>2026-04-26T13:04:01.999Z</time></trkpt><trkpt lat="43.32308237666814" lon="11.834334758862232"><ele>240.0</ele><time>2026-04-26T13:04:02.999Z</time></trkpt><trkpt lat="43.32320241434934" lon="11.834278369057321"><ele>240.0</ele><time>2026-04-26T13:04:04.999Z</time></trkpt><trkpt lat="43.32326411408887" lon="11.83425077738342"><ele>240.0</ele><time>2026-04-26T13:04:05.999Z</time></trkpt><trkpt lat="43.32332559352239" lon="11.834220183450553"><ele>240.0</ele><time>2026-04-26T13:04:06.999Z</time></trkpt><trkpt lat="43.32338638332537" lon="11.834192543356245"><ele>240.0</ele><time>2026-04-26T13:04:07.999Z</time></trkpt><trkpt lat="43.32350278011514" lon="11.834133751681929"><ele>240.0</ele><time>2026-04-26T13:04:09.999Z</time></trkpt><trkpt lat="43.32362702501702" lon="11.834079828964398"><ele>240.0</ele><time>2026-04-26T13:04:11.999Z</time></trkpt><trkpt lat="43.3237441536404" lon="11.83401846357138"><ele>240.0</ele><time>2026-04-26T13:04:13.999Z</time></trkpt><trkpt lat="43.32381091507887" lon="11.833989867754005"><ele>240.0</ele><time>2026-04-26T13:04:14.999Z</time></trkpt><trkpt lat="43.32387749367773" lon="11.833959642790138"><ele>240.0</ele><time>2026-04-26T13:04:15.999Z</time></trkpt><trkpt lat="43.323941548641976" lon="11.833928244884774"><ele>240.0</ele><time>2026-04-26T13:04:16.999Z</time></trkpt><trkpt lat="43.324001572074486" lon="11.83389961186625"><ele>240.0</ele><time>2026-04-26T13:04:17.999Z</time></trkpt><trkpt lat="43.32410693485902" lon="11.833842536521791"><ele>240.0</ele><time>2026-04-26T13:04:19.999Z</time></trkpt><trkpt lat="43.32421738135485" lon="11.833785185893877"><ele>239.83333333333334</ele><time>2026-04-26T13:04:21.999Z</time></trkpt><trkpt lat="43.32433249133208" lon="11.833726252424041"><ele>239.66666666666669</ele><time>2026-04-26T13:04:23.999Z</time></trkpt><trkpt lat="43.32439149426015" lon="11.833694928746109"><ele>239.5</ele><time>2026-04-26T13:04:24.999Z</time></trkpt><trkpt lat="43.324507274971076" lon="11.833633119535612"><ele>239.33333333333334</ele><time>2026-04-26T13:04:26.999Z</time></trkpt><trkpt lat="43.3245688695483" lon="11.833605314252448"><ele>239.16666666666669</ele><time>2026-04-26T13:04:27.999Z</time></trkpt><trkpt lat="43.32462913541052" lon="11.833579221995521"><ele>239.0</ele><time>2026-04-26T13:04:28.999Z</time></trkpt><trkpt lat="43.32469076123743" lon="11.833549755711655"><ele>239.14285714285717</ele><time>2026-04-26T13:04:29.999Z</time></trkpt><trkpt lat="43.324752868561575" lon="11.83352325685966"><ele>239.28571428571428</ele><time>2026-04-26T13:04:30.999Z</time></trkpt><trkpt lat="43.324812912146044" lon="11.833494018832887"><ele>239.42857142857144</ele><time>2026-04-26T13:04:31.999Z</time></trkpt><trkpt lat="43.324875965427054" lon="11.833467350467435"><ele>239.57142857142858</ele><time>2026-04-26T13:04:32.999Z</time></trkpt><trkpt lat="43.324936896003074" lon="11.833438558433796"><ele>239.71428571428572</ele><time>2026-04-26T13:04:33.999Z</time></trkpt><trkpt lat="43.324999723202225" lon="11.833409807171147"><ele>239.85714285714286</ele><time>2026-04-26T13:04:34.999Z</time></trkpt><trkpt lat="43.32506189394237" lon="11.833381939562985"><ele>240.0</ele><time>2026-04-26T13:04:35.999Z</time></trkpt><trkpt lat="43.3251218326767" lon="11.833352299392146"><ele>240.16666666666666</ele><time>2026-04-26T13:04:36.999Z</time></trkpt><trkpt lat="43.32518499118903" lon="11.833325326371227"><ele>240.33333333333331</ele><time>2026-04-26T13:04:37.999Z</time></trkpt><trkpt lat="43.32524645145631" lon="11.833299236073138"><ele>240.5</ele><time>2026-04-26T13:04:38.999Z</time></trkpt><trkpt lat="43.32536140408317" lon="11.833241044285932"><ele>240.66666666666666</ele><time>2026-04-26T13:04:40.999Z</time></trkpt><trkpt lat="43.32548016582388" lon="11.833183669840066"><ele>240.83333333333331</ele><time>2026-04-26T13:04:42.999Z</time></trkpt><trkpt lat="43.32554163789511" lon="11.833154497748538"><ele>241.0</ele><time>2026-04-26T13:04:43.999Z</time></trkpt><trkpt lat="43.32560729872094" lon="11.833125331806547"><ele>240.71428571428572</ele><time>2026-04-26T13:04:44.999Z</time></trkpt><trkpt lat="43.32567224036453" lon="11.833095415868238"><ele>240.42857142857144</ele><time>2026-04-26T13:04:45.999Z</time></trkpt><trkpt lat="43.32573991106512" lon="11.833064245090274"><ele>240.14285714285717</ele><time>2026-04-26T13:04:46.999Z</time></trkpt><trkpt lat="43.32580922778458" lon="11.833034005319819"><ele>239.8571428571429</ele><time>2026-04-26T13:04:47.999Z</time></trkpt><trkpt lat="43.32587714986492" lon="11.833005041953482"><ele>239.57142857142858</ele><time>2026-04-26T13:04:48.999Z</time></trkpt><trkpt lat="43.32594353473865" lon="11.832977135938613"><ele>239.28571428571433</ele><time>2026-04-26T13:04:49.999Z</time></trkpt><trkpt lat="43.32601084645857" lon="11.832946984798971"><ele>239.00000000000003</ele><time>2026-04-26T13:04:50.999Z</time></trkpt><trkpt lat="43.32607672394735" lon="11.832917995426792"><ele>239.00000000000003</ele><time>2026-04-26T13:04:51.999Z</time></trkpt><trkpt lat="43.326142088830906" lon="11.832890059302068"><ele>239.0</ele><time>2026-04-26T13:04:52.999Z</time></trkpt><trkpt lat="43.3262069353658" lon="11.832862291822199"><ele>239.00000000000003</ele><time>2026-04-26T13:04:53.999Z</time></trkpt><trkpt lat="43.3262692505834" lon="11.832833954206018"><ele>239.00000000000003</ele><time>2026-04-26T13:04:54.999Z</time></trkpt><trkpt lat="43.326331703356104" lon="11.832805047980175"><ele>239.0</ele><time>2026-04-26T13:04:55.999Z</time></trkpt><trkpt lat="43.326394309655555" lon="11.832779496907076"><ele>239.00000000000003</ele><time>2026-04-26T13:04:56.999Z</time></trkpt><trkpt lat="43.32645748893382" lon="11.832752003491272"><ele>239.00000000000003</ele><time>2026-04-26T13:04:57.999Z</time></trkpt><trkpt lat="43.326517687321164" lon="11.832724059274051"><ele>239.14285714285717</ele><time>2026-04-26T13:04:58.999Z</time></trkpt><trkpt lat="43.326582251518246" lon="11.832695410606988"><ele>239.28571428571428</ele><time>2026-04-26T13:04:59.999Z</time></trkpt><trkpt lat="43.32664817302941" lon="11.832677598299727"><ele>239.42857142857144</ele><time>2026-04-26T13:05:00.999Z</time></trkpt><trkpt lat="43.326714236970695" lon="11.832648651211525"><ele>239.57142857142858</ele><time>2026-04-26T13:05:01.999Z</time></trkpt><trkpt lat="43.326783591059446" lon="11.832623774169374"><ele>239.71428571428572</ele><time>2026-04-26T13:05:02.999Z</time></trkpt><trkpt lat="43.32685325461903" lon="11.832600651678298"><ele>239.85714285714286</ele><time>2026-04-26T13:05:03.999Z</time></trkpt><trkpt lat="43.326919908821175" lon="11.83257792438289"><ele>240.0</ele><time>2026-04-26T13:05:04.999Z</time></trkpt><trkpt lat="43.326983581536034" lon="11.832555760491514"><ele>240.0</ele><time>2026-04-26T13:05:06Z</time></trkpt><trkpt lat="43.32704889353427" lon="11.832535131805209"><ele>240.0</ele><time>2026-04-26T13:05:07Z</time></trkpt><trkpt lat="43.32711111718665" lon="11.832512349455621"><ele>240.0</ele><time>2026-04-26T13:05:08Z</time></trkpt><trkpt lat="43.32717770346487" lon="11.832490629744335"><ele>240.0</ele><time>2026-04-26T13:05:09Z</time></trkpt><trkpt lat="43.32724344211051" lon="11.832469748016155"><ele>240.0</ele><time>2026-04-26T13:05:10Z</time></trkpt><trkpt lat="43.32730734709895" lon="11.832452194667084"><ele>240.0</ele><time>2026-04-26T13:05:11Z</time></trkpt><trkpt lat="43.327370850381435" lon="11.832431826335435"><ele>240.0</ele><time>2026-04-26T13:05:12Z</time></trkpt><trkpt lat="43.32743242116206" lon="11.83241000466867"><ele>240.0</ele><time>2026-04-26T13:05:13Z</time></trkpt><trkpt lat="43.32749596690339" lon="11.832389001190158"><ele>240.0</ele><time>2026-04-26T13:05:14Z</time></trkpt><trkpt lat="43.32755867881671" lon="11.8323662698872"><ele>240.0</ele><time>2026-04-26T13:05:15Z</time></trkpt><trkpt lat="43.32762012691021" lon="11.832342076492106"><ele>240.0</ele><time>2026-04-26T13:05:16Z</time></trkpt><trkpt lat="43.327682543324165" lon="11.832317938753159"><ele>240.0</ele><time>2026-04-26T13:05:17Z</time></trkpt><trkpt lat="43.32774714590803" lon="11.832298538198968"><ele>240.0</ele><time>2026-04-26T13:05:18Z</time></trkpt><trkpt lat="43.32780822322168" lon="11.832274047554806"><ele>240.0</ele><time>2026-04-26T13:05:19Z</time></trkpt><trkpt lat="43.32792973476988" lon="11.832228740538062"><ele>240.0</ele><time>2026-04-26T13:05:21Z</time></trkpt><trkpt lat="43.327992130876424" lon="11.83220648318576"><ele>240.0</ele><time>2026-04-26T13:05:22Z</time></trkpt><trkpt lat="43.328053024654615" lon="11.832184386245379"><ele>240.0</ele><time>2026-04-26T13:05:23Z</time></trkpt><trkpt lat="43.32811528094296" lon="11.832160429166654"><ele>240.0</ele><time>2026-04-26T13:05:24Z</time></trkpt><trkpt lat="43.32817715372655" lon="11.83213512202565"><ele>240.0</ele><time>2026-04-26T13:05:25Z</time></trkpt><trkpt lat="43.328240831440546" lon="11.832114959406935"><ele>240.0</ele><time>2026-04-26T13:05:26Z</time></trkpt><trkpt lat="43.32830462489181" lon="11.832089741343058"><ele>240.0</ele><time>2026-04-26T13:05:27Z</time></trkpt><trkpt lat="43.328367767557324" lon="11.832067600253803"><ele>240.0</ele><time>2026-04-26T13:05:28Z</time></trkpt><trkpt lat="43.32843268925001" lon="11.832044852058827"><ele>240.0</ele><time>2026-04-26T13:05:29Z</time></trkpt><trkpt lat="43.32849774135606" lon="11.832020424322193"><ele>240.0</ele><time>2026-04-26T13:05:30Z</time></trkpt><trkpt lat="43.32856510157291" lon="11.831994731726535"><ele>240.0</ele><time>2026-04-26T13:05:31Z</time></trkpt><trkpt lat="43.32863007909869" lon="11.831971182245477"><ele>240.0</ele><time>2026-04-26T13:05:32Z</time></trkpt><trkpt lat="43.32869133808997" lon="11.831947237141344"><ele>240.0</ele><time>2026-04-26T13:05:33Z</time></trkpt><trkpt lat="43.32875920310243" lon="11.831925799591287"><ele>240.0</ele><time>2026-04-26T13:05:34Z</time></trkpt><trkpt lat="43.32882747527413" lon="11.831902362793159"><ele>240.0</ele><time>2026-04-26T13:05:35Z</time></trkpt><trkpt lat="43.32889342964602" lon="11.831876944568824"><ele>240.0</ele><time>2026-04-26T13:05:36Z</time></trkpt><trkpt lat="43.328959912090866" lon="11.8318521174381"><ele>240.0</ele><time>2026-04-26T13:05:37Z</time></trkpt><trkpt lat="43.329027808871025" lon="11.831828904859247"><ele>240.0</ele><time>2026-04-26T13:05:38Z</time></trkpt><trkpt lat="43.32909768178808" lon="11.831804512521487"><ele>240.0</ele><time>2026-04-26T13:05:39Z</time></trkpt><trkpt lat="43.32916435398876" lon="11.83177954967904"><ele>240.0</ele><time>2026-04-26T13:05:40Z</time></trkpt><trkpt lat="43.32922975746157" lon="11.831754341017259"><ele>240.0</ele><time>2026-04-26T13:05:41Z</time></trkpt><trkpt lat="43.329296292136135" lon="11.831730201910652"><ele>240.0</ele><time>2026-04-26T13:05:42Z</time></trkpt><trkpt lat="43.32936304358086" lon="11.831706374476926"><ele>240.0</ele><time>2026-04-26T13:05:43Z</time></trkpt><trkpt lat="43.329428898655735" lon="11.831681446981381"><ele>240.0</ele><time>2026-04-26T13:05:44Z</time></trkpt><trkpt lat="43.32949285853689" lon="11.831659744282195"><ele>240.0</ele><time>2026-04-26T13:05:44.999Z</time></trkpt><trkpt lat="43.32955781143949" lon="11.831633381331466"><ele>240.0</ele><time>2026-04-26T13:05:45.999Z</time></trkpt><trkpt lat="43.32962449907961" lon="11.83160898070974"><ele>240.0</ele><time>2026-04-26T13:05:46.999Z</time></trkpt><trkpt lat="43.329691657415225" lon="11.831587249730342"><ele>240.0</ele><time>2026-04-26T13:05:47.999Z</time></trkpt><trkpt lat="43.32975794439213" lon="11.831564478111282"><ele>240.0</ele><time>2026-04-26T13:05:48.999Z</time></trkpt><trkpt lat="43.329825300571024" lon="11.831542531195144"><ele>240.0</ele><time>2026-04-26T13:05:49.999Z</time></trkpt><trkpt lat="43.329890261839765" lon="11.831516070369448"><ele>240.0</ele><time>2026-04-26T13:05:50.999Z</time></trkpt><trkpt lat="43.329957408260846" lon="11.831489672443233"><ele>240.0</ele><time>2026-04-26T13:05:51.999Z</time></trkpt><trkpt lat="43.33002370853196" lon="11.831469026610598"><ele>240.0</ele><time>2026-04-26T13:05:52.999Z</time></trkpt><trkpt lat="43.33008765775575" lon="11.831448747179294"><ele>240.0</ele><time>2026-04-26T13:05:53.999Z</time></trkpt><trkpt lat="43.33015382048774" lon="11.831427996021745"><ele>240.0</ele><time>2026-04-26T13:05:54.999Z</time></trkpt><trkpt lat="43.33021713915842" lon="11.831403873269178"><ele>240.0</ele><time>2026-04-26T13:05:55.999Z</time></trkpt><trkpt lat="43.33028293349151" lon="11.831383532255654"><ele>240.0</ele><time>2026-04-26T13:05:56.999Z</time></trkpt><trkpt lat="43.33034782570991" lon="11.831359673531502"><ele>240.0</ele><time>2026-04-26T13:05:57.999Z</time></trkpt><trkpt lat="43.3304136448808" lon="11.831337056681981"><ele>240.0</ele><time>2026-04-26T13:05:58.999Z</time></trkpt><trkpt lat="43.330475598704034" lon="11.831308474997604"><ele>240.0</ele><time>2026-04-26T13:05:59.999Z</time></trkpt><trkpt lat="43.33054456938436" lon="11.831284787629844"><ele>240.0</ele><time>2026-04-26T13:06:00.999Z</time></trkpt><trkpt lat="43.3306160978647" lon="11.83126319778853"><ele>240.0</ele><time>2026-04-26T13:06:01.999Z</time></trkpt><trkpt lat="43.33068585764161" lon="11.831237686562016"><ele>240.0</ele><time>2026-04-26T13:06:02.999Z</time></trkpt><trkpt lat="43.330754090453134" lon="11.8312113618872"><ele>240.0</ele><time>2026-04-26T13:06:03.999Z</time></trkpt><trkpt lat="43.330823471610806" lon="11.831189440326643"><ele>240.0</ele><time>2026-04-26T13:06:04.999Z</time></trkpt><trkpt lat="43.33089047845359" lon="11.83116857025332"><ele>240.0</ele><time>2026-04-26T13:06:05.999Z</time></trkpt><trkpt lat="43.330959623117934" lon="11.831143459696305"><ele>240.0</ele><time>2026-04-26T13:06:06.999Z</time></trkpt><trkpt lat="43.33102535854836" lon="11.831120380623489"><ele>240.0</ele><time>2026-04-26T13:06:07.999Z</time></trkpt><trkpt lat="43.33109266670649" lon="11.831096747893868"><ele>240.0</ele><time>2026-04-26T13:06:08.999Z</time></trkpt><trkpt lat="43.33115729297113" lon="11.831075094383468"><ele>240.0</ele><time>2026-04-26T13:06:09.999Z</time></trkpt><trkpt lat="43.33122540486174" lon="11.831049409933565"><ele>240.0</ele><time>2026-04-26T13:06:10.999Z</time></trkpt><trkpt lat="43.33129270499119" lon="11.831037384825102"><ele>240.0</ele><time>2026-04-26T13:06:11.999Z</time></trkpt><trkpt lat="43.331364118958845" lon="11.831001539615665"><ele>240.0</ele><time>2026-04-26T13:06:12.999Z</time></trkpt><trkpt lat="43.33143380655622" lon="11.83097899894028"><ele>240.0</ele><time>2026-04-26T13:06:13.999Z</time></trkpt><trkpt lat="43.33150211754782" lon="11.830956708918874"><ele>240.0</ele><time>2026-04-26T13:06:14.999Z</time></trkpt><trkpt lat="43.33156733238868" lon="11.830932803052242"><ele>240.0</ele><time>2026-04-26T13:06:15.999Z</time></trkpt><trkpt lat="43.331633334561026" lon="11.830909771968829"><ele>240.28571428571428</ele><time>2026-04-26T13:06:16.999Z</time></trkpt><trkpt lat="43.331699423008864" lon="11.830882391211702"><ele>240.57142857142856</ele><time>2026-04-26T13:06:17.999Z</time></trkpt><trkpt lat="43.331767026860625" lon="11.830858578220488"><ele>240.85714285714283</ele><time>2026-04-26T13:06:18.999Z</time></trkpt><trkpt lat="43.331836315004786" lon="11.830837115456134"><ele>241.14285714285714</ele><time>2026-04-26T13:06:19.999Z</time></trkpt><trkpt lat="43.331905783737234" lon="11.83081486774211"><ele>241.4285714285714</ele><time>2026-04-26T13:06:20.999Z</time></trkpt><trkpt lat="43.33197754073274" lon="11.830793508352874"><ele>241.7142857142857</ele><time>2026-04-26T13:06:21.999Z</time></trkpt><trkpt lat="43.33204685064049" lon="11.830769457837988"><ele>242.0</ele><time>2026-04-26T13:06:22.999Z</time></trkpt><trkpt lat="43.33211647741597" lon="11.83074475083013"><ele>242.0</ele><time>2026-04-26T13:06:23.999Z</time></trkpt><trkpt lat="43.33218823807124" lon="11.830722948949157"><ele>241.99999999999997</ele><time>2026-04-26T13:06:24.999Z</time></trkpt><trkpt lat="43.33225928676057" lon="11.83069617738139"><ele>242.0</ele><time>2026-04-26T13:06:25.999Z</time></trkpt><trkpt lat="43.332330165034286" lon="11.830668137754877"><ele>242.0</ele><time>2026-04-26T13:06:26.999Z</time></trkpt><trkpt lat="43.332398616056956" lon="11.830637626889118"><ele>241.99999999999997</ele><time>2026-04-26T13:06:27.999Z</time></trkpt><trkpt lat="43.332470001897704" lon="11.83061609791881"><ele>242.0</ele><time>2026-04-26T13:06:28.999Z</time></trkpt><trkpt lat="43.33254144798034" lon="11.830591301593852"><ele>242.0</ele><time>2026-04-26T13:06:29.999Z</time></trkpt><trkpt lat="43.33261232157792" lon="11.830563002573877"><ele>241.57142857142856</ele><time>2026-04-26T13:06:30.999Z</time></trkpt><trkpt lat="43.332682385595405" lon="11.830539254041856"><ele>241.1428571428571</ele><time>2026-04-26T13:06:31.999Z</time></trkpt><trkpt lat="43.33275488155295" lon="11.830514813843994"><ele>240.71428571428572</ele><time>2026-04-26T13:06:32.999Z</time></trkpt><trkpt lat="43.33282281647953" lon="11.830487915680717"><ele>240.28571428571428</ele><time>2026-04-26T13:06:33.999Z</time></trkpt><trkpt lat="43.332894652644526" lon="11.830463475978938"><ele>239.85714285714286</ele><time>2026-04-26T13:06:34.999Z</time></trkpt><trkpt lat="43.33296317152156" lon="11.83043655468526"><ele>239.42857142857144</ele><time>2026-04-26T13:06:35.999Z</time></trkpt><trkpt lat="43.333031919338445" lon="11.830413789958891"><ele>239.00000000000003</ele><time>2026-04-26T13:06:36.999Z</time></trkpt><trkpt lat="43.333101313846626" lon="11.830387708998334"><ele>239.00000000000003</ele><time>2026-04-26T13:06:37.999Z</time></trkpt><trkpt lat="43.333169742679054" lon="11.830361152778023"><ele>239.0</ele><time>2026-04-26T13:06:38.999Z</time></trkpt><trkpt lat="43.33323766825176" lon="11.830333762654158"><ele>239.00000000000003</ele><time>2026-04-26T13:06:39.999Z</time></trkpt><trkpt lat="43.33330662727418" lon="11.830306032789007"><ele>239.00000000000003</ele><time>2026-04-26T13:06:40.999Z</time></trkpt><trkpt lat="43.333374827226564" lon="11.830283513508737"><ele>239.0</ele><time>2026-04-26T13:06:41.999Z</time></trkpt><trkpt lat="43.33344592045384" lon="11.830259724159076"><ele>239.00000000000003</ele><time>2026-04-26T13:06:42.999Z</time></trkpt><trkpt lat="43.33351927010554" lon="11.830239397352358"><ele>239.00000000000003</ele><time>2026-04-26T13:06:43.999Z</time></trkpt><trkpt lat="43.33359100785915" lon="11.83021684566552"><ele>239.00000000000003</ele><time>2026-04-26T13:06:44.999Z</time></trkpt><trkpt lat="43.33366192528834" lon="11.830193459605095"><ele>239.0</ele><time>2026-04-26T13:06:45.999Z</time></trkpt><trkpt lat="43.3337340876158" lon="11.8301724729527"><ele>239.00000000000003</ele><time>2026-04-26T13:06:46.999Z</time></trkpt><trkpt lat="43.33380197000013" lon="11.830147652455404"><ele>239.00000000000003</ele><time>2026-04-26T13:06:47.999Z</time></trkpt><trkpt lat="43.33387093931259" lon="11.8301248180907"><ele>239.0</ele><time>2026-04-26T13:06:48.999Z</time></trkpt><trkpt lat="43.333939174180514" lon="11.830102295815335"><ele>239.00000000000003</ele><time>2026-04-26T13:06:49.999Z</time></trkpt><trkpt lat="43.33400554343635" lon="11.830082305105728"><ele>239.00000000000003</ele><time>2026-04-26T13:06:50.999Z</time></trkpt><trkpt lat="43.33407099262667" lon="11.83005605730129"><ele>239.00000000000003</ele><time>2026-04-26T13:06:51.999Z</time></trkpt><trkpt lat="43.33413637146558" lon="11.83003024442253"><ele>239.0</ele><time>2026-04-26T13:06:52.999Z</time></trkpt><trkpt lat="43.33419758267421" lon="11.830005650365415"><ele>239.0</ele><time>2026-04-26T13:06:53.999Z</time></trkpt><trkpt lat="43.33431247052125" lon="11.829961609986869"><ele>239.0</ele><time>2026-04-26T13:06:55.999Z</time></trkpt><trkpt lat="43.33443493761577" lon="11.829916379449829"><ele>239.00000000000003</ele><time>2026-04-26T13:06:57.999Z</time></trkpt><trkpt lat="43.33449961908231" lon="11.82989133978276"><ele>239.0</ele><time>2026-04-26T13:06:58.999Z</time></trkpt><trkpt lat="43.334566028778404" lon="11.829864618408536"><ele>239.00000000000003</ele><time>2026-04-26T13:06:59.999Z</time></trkpt><trkpt lat="43.33463488421771" lon="11.829834195277678"><ele>239.0</ele><time>2026-04-26T13:07:00.999Z</time></trkpt><trkpt lat="43.33470956412252" lon="11.829808491740042"><ele>239.00000000000003</ele><time>2026-04-26T13:07:01.999Z</time></trkpt><trkpt lat="43.33478154369511" lon="11.829782822655224"><ele>239.00000000000003</ele><time>2026-04-26T13:07:02.999Z</time></trkpt><trkpt lat="43.334852616798855" lon="11.829757220851775"><ele>239.0</ele><time>2026-04-26T13:07:03.999Z</time></trkpt><trkpt lat="43.33492427820949" lon="11.829730140181178"><ele>239.00000000000003</ele><time>2026-04-26T13:07:04.999Z</time></trkpt><trkpt lat="43.33499588687155" lon="11.82970632977261"><ele>239.00000000000003</ele><time>2026-04-26T13:07:05.999Z</time></trkpt><trkpt lat="43.335069518683284" lon="11.829684889091483"><ele>239.00000000000003</ele><time>2026-04-26T13:07:06.999Z</time></trkpt><trkpt lat="43.33514212859662" lon="11.829658842927893"><ele>239.0</ele><time>2026-04-26T13:07:07.999Z</time></trkpt><trkpt lat="43.33521726489251" lon="11.829636308887464"><ele>239.00000000000003</ele><time>2026-04-26T13:07:08.999Z</time></trkpt><trkpt lat="43.33528420780546" lon="11.82961348248132"><ele>239.00000000000003</ele><time>2026-04-26T13:07:09.999Z</time></trkpt><trkpt lat="43.335350999555686" lon="11.829581174821424"><ele>239.0</ele><time>2026-04-26T13:07:10.999Z</time></trkpt><trkpt lat="43.33542415530887" lon="11.829560506333596"><ele>239.00000000000003</ele><time>2026-04-26T13:07:12Z</time></trkpt><trkpt lat="43.33549413803147" lon="11.829538761444937"><ele>239.00000000000003</ele><time>2026-04-26T13:07:13Z</time></trkpt><trkpt lat="43.33556199963537" lon="11.829515352302336"><ele>239.14285714285717</ele><time>2026-04-26T13:07:14Z</time></trkpt><trkpt lat="43.335627339089825" lon="11.829491723753362"><ele>239.28571428571428</ele><time>2026-04-26T13:07:15Z</time></trkpt><trkpt lat="43.33569688696889" lon="11.829461119995724"><ele>239.42857142857144</ele><time>2026-04-26T13:07:16Z</time></trkpt><trkpt lat="43.33576440456657" lon="11.829437740405153"><ele>239.57142857142858</ele><time>2026-04-26T13:07:17Z</time></trkpt><trkpt lat="43.33583024360308" lon="11.829415693306757"><ele>239.71428571428572</ele><time>2026-04-26T13:07:18Z</time></trkpt><trkpt lat="43.335896886542045" lon="11.829390412895322"><ele>239.85714285714286</ele><time>2026-04-26T13:07:19Z</time></trkpt><trkpt lat="43.335963178130505" lon="11.829367886498158"><ele>240.0</ele><time>2026-04-26T13:07:20Z</time></trkpt><trkpt lat="43.33603112602839" lon="11.829344924754958"><ele>240.0</ele><time>2026-04-26T13:07:21Z</time></trkpt><trkpt lat="43.336096174148345" lon="11.829321470289731"><ele>240.0</ele><time>2026-04-26T13:07:22Z</time></trkpt><trkpt lat="43.33616221671388" lon="11.829298829410522"><ele>240.0</ele><time>2026-04-26T13:07:23Z</time></trkpt><trkpt lat="43.33622943592438" lon="11.829272783360151"><ele>240.0</ele><time>2026-04-26T13:07:24Z</time></trkpt><trkpt lat="43.336297233764114" lon="11.829249598882871"><ele>240.0</ele><time>2026-04-26T13:07:25Z</time></trkpt><trkpt lat="43.33636636349815" lon="11.829224592477306"><ele>240.0</ele><time>2026-04-26T13:07:26Z</time></trkpt><trkpt lat="43.33643132555563" lon="11.829200518756018"><ele>240.0</ele><time>2026-04-26T13:07:27Z</time></trkpt><trkpt lat="43.336499689644235" lon="11.829177094765774"><ele>239.85714285714286</ele><time>2026-04-26T13:07:28Z</time></trkpt><trkpt lat="43.336571024386046" lon="11.829152081353772"><ele>239.71428571428572</ele><time>2026-04-26T13:07:29Z</time></trkpt><trkpt lat="43.33664048695402" lon="11.829127891086186"><ele>239.57142857142858</ele><time>2026-04-26T13:07:30Z</time></trkpt><trkpt lat="43.336707984402075" lon="11.829101408467505"><ele>239.42857142857144</ele><time>2026-04-26T13:07:31Z</time></trkpt><trkpt lat="43.33677657719131" lon="11.829076310251054"><ele>239.28571428571428</ele><time>2026-04-26T13:07:32Z</time></trkpt><trkpt lat="43.33684245188965" lon="11.829053802786927"><ele>239.14285714285717</ele><time>2026-04-26T13:07:33Z</time></trkpt><trkpt lat="43.336906373862234" lon="11.829032119622896"><ele>239.00000000000003</ele><time>2026-04-26T13:07:34Z</time></trkpt><trkpt lat="43.33696942664973" lon="11.829007902952752"><ele>239.00000000000003</ele><time>2026-04-26T13:07:35Z</time></trkpt><trkpt lat="43.33703446146587" lon="11.828985806594973"><ele>239.0</ele><time>2026-04-26T13:07:36Z</time></trkpt><trkpt lat="43.337098270158414" lon="11.828961013141688"><ele>239.00000000000003</ele><time>2026-04-26T13:07:37Z</time></trkpt><trkpt lat="43.337162559450476" lon="11.828940013039865"><ele>239.00000000000003</ele><time>2026-04-26T13:07:38Z</time></trkpt><trkpt lat="43.337228570903974" lon="11.828917017994671"><ele>239.0</ele><time>2026-04-26T13:07:39Z</time></trkpt><trkpt lat="43.33729283652908" lon="11.828890833114196"><ele>239.00000000000003</ele><time>2026-04-26T13:07:40Z</time></trkpt><trkpt lat="43.33736188544169" lon="11.828867444037225"><ele>239.00000000000003</ele><time>2026-04-26T13:07:41Z</time></trkpt><trkpt lat="43.33742843862497" lon="11.828841463784409"><ele>239.28571428571433</ele><time>2026-04-26T13:07:42Z</time></trkpt><trkpt lat="43.33749417005009" lon="11.828819685026641"><ele>239.57142857142858</ele><time>2026-04-26T13:07:43Z</time></trkpt><trkpt lat="43.337560004922686" lon="11.828791880657914"><ele>239.8571428571429</ele><time>2026-04-26T13:07:44Z</time></trkpt><trkpt lat="43.33762957311439" lon="11.82877056264133"><ele>240.14285714285717</ele><time>2026-04-26T13:07:45Z</time></trkpt><trkpt lat="43.337697949468065" lon="11.828748060410547"><ele>240.42857142857144</ele><time>2026-04-26T13:07:46Z</time></trkpt><trkpt lat="43.33776543212871" lon="11.828724567279766"><ele>240.71428571428572</ele><time>2026-04-26T13:07:47Z</time></trkpt><trkpt lat="43.337828044260704" lon="11.828701727160988"><ele>241.0</ele><time>2026-04-26T13:07:48Z</time></trkpt><trkpt lat="43.337892161221994" lon="11.82868101385048"><ele>241.0</ele><time>2026-04-26T13:07:49Z</time></trkpt><trkpt lat="43.33795700949233" lon="11.828658932459536"><ele>241.00000000000003</ele><time>2026-04-26T13:07:50Z</time></trkpt><trkpt lat="43.33801921390049" lon="11.828638315285597"><ele>241.0</ele><time>2026-04-26T13:07:51Z</time></trkpt><trkpt lat="43.33808374037986" lon="11.828613163246372"><ele>241.0</ele><time>2026-04-26T13:07:52Z</time></trkpt><trkpt lat="43.33814919298285" lon="11.82858770889326"><ele>241.00000000000003</ele><time>2026-04-26T13:07:53Z</time></trkpt><trkpt lat="43.33821691809021" lon="11.828564487671551"><ele>241.0</ele><time>2026-04-26T13:07:54Z</time></trkpt><trkpt lat="43.338286469219646" lon="11.828539668784776"><ele>241.0</ele><time>2026-04-26T13:07:55Z</time></trkpt><trkpt lat="43.33835566080028" lon="11.828516537990376"><ele>240.85714285714286</ele><time>2026-04-26T13:07:56Z</time></trkpt><trkpt lat="43.33842533937968" lon="11.828489100653584"><ele>240.71428571428572</ele><time>2026-04-26T13:07:57Z</time></trkpt><trkpt lat="43.33849496460469" lon="11.828466831657629"><ele>240.57142857142858</ele><time>2026-04-26T13:07:58Z</time></trkpt><trkpt lat="43.338564782452266" lon="11.828441752822215"><ele>240.42857142857144</ele><time>2026-04-26T13:07:59Z</time></trkpt><trkpt lat="43.33863504591967" lon="11.82841488242401"><ele>240.28571428571428</ele><time>2026-04-26T13:08:00Z</time></trkpt><trkpt lat="43.338703308936246" lon="11.828389018748844"><ele>240.14285714285717</ele><time>2026-04-26T13:08:01Z</time></trkpt><trkpt lat="43.338772292409054" lon="11.828364470715181"><ele>240.0</ele><time>2026-04-26T13:08:02Z</time></trkpt><trkpt lat="43.3388367125157" lon="11.828342882062552"><ele>239.71428571428572</ele><time>2026-04-26T13:08:03Z</time></trkpt><trkpt lat="43.33890115222321" lon="11.828318095954213"><ele>239.42857142857142</ele><time>2026-04-26T13:08:04Z</time></trkpt><trkpt lat="43.33896574346053" lon="11.828294601034061"><ele>239.14285714285714</ele><time>2026-04-26T13:08:05Z</time></trkpt><trkpt lat="43.33902677148807" lon="11.828269390994611"><ele>238.85714285714286</ele><time>2026-04-26T13:08:05.999Z</time></trkpt><trkpt lat="43.33909167501876" lon="11.828249939419322"><ele>238.57142857142856</ele><time>2026-04-26T13:08:06.999Z</time></trkpt><trkpt lat="43.33915600900358" lon="11.828224150090008"><ele>238.28571428571428</ele><time>2026-04-26T13:08:07.999Z</time></trkpt><trkpt lat="43.33921947433586" lon="11.828201508277234"><ele>238.0</ele><time>2026-04-26T13:08:08.999Z</time></trkpt><trkpt lat="43.33928589289754" lon="11.828179426352046"><ele>237.99999999999997</ele><time>2026-04-26T13:08:09.999Z</time></trkpt><trkpt lat="43.33935133044375" lon="11.828155772725953"><ele>238.0</ele><time>2026-04-26T13:08:10.999Z</time></trkpt><trkpt lat="43.339414690525956" lon="11.828128532098628"><ele>238.0</ele><time>2026-04-26T13:08:11.999Z</time></trkpt><trkpt lat="43.339476888798245" lon="11.828107539553542"><ele>238.0</ele><time>2026-04-26T13:08:12.999Z</time></trkpt><trkpt lat="43.33959851864372" lon="11.828065560219232"><ele>237.99999999999997</ele><time>2026-04-26T13:08:14.999Z</time></trkpt><trkpt lat="43.339660690720855" lon="11.828044003370426"><ele>238.0</ele><time>2026-04-26T13:08:15.999Z</time></trkpt><trkpt lat="43.33972271495578" lon="11.82802295849504"><ele>238.28571428571428</ele><time>2026-04-26T13:08:16.999Z</time></trkpt><trkpt lat="43.33978698874241" lon="11.827999412565195"><ele>238.57142857142856</ele><time>2026-04-26T13:08:17.999Z</time></trkpt><trkpt lat="43.339854694099" lon="11.82797350982579"><ele>238.85714285714286</ele><time>2026-04-26T13:08:18.999Z</time></trkpt><trkpt lat="43.33992076014613" lon="11.827946860312341"><ele>239.14285714285714</ele><time>2026-04-26T13:08:19.999Z</time></trkpt><trkpt lat="43.33998922325433" lon="11.827925357504913"><ele>239.42857142857142</ele><time>2026-04-26T13:08:20.999Z</time></trkpt><trkpt lat="43.34005557566865" lon="11.827900770901552"><ele>239.71428571428572</ele><time>2026-04-26T13:08:21.999Z</time></trkpt><trkpt lat="43.34012373817287" lon="11.827878266144065"><ele>240.0</ele><time>2026-04-26T13:08:22.999Z</time></trkpt><trkpt lat="43.34018952489953" lon="11.827856545859781"><ele>240.0</ele><time>2026-04-26T13:08:23.999Z</time></trkpt><trkpt lat="43.340253376211706" lon="11.827832606146233"><ele>240.0</ele><time>2026-04-26T13:08:24.999Z</time></trkpt><trkpt lat="43.34031795481433" lon="11.827808205390902"><ele>240.0</ele><time>2026-04-26T13:08:25.999Z</time></trkpt><trkpt lat="43.340384459115725" lon="11.827786947310878"><ele>240.0</ele><time>2026-04-26T13:08:26.999Z</time></trkpt><trkpt lat="43.340452673305315" lon="11.827762470189162"><ele>240.0</ele><time>2026-04-26T13:08:27.999Z</time></trkpt><trkpt lat="43.340522000644484" lon="11.827735861544728"><ele>240.0</ele><time>2026-04-26T13:08:28.999Z</time></trkpt><trkpt lat="43.34059241556069" lon="11.82771785917187"><ele>240.0</ele><time>2026-04-26T13:08:29.999Z</time></trkpt><trkpt lat="43.340661795017425" lon="11.827695732163209"><ele>240.0</ele><time>2026-04-26T13:08:30.999Z</time></trkpt><trkpt lat="43.34073143559908" lon="11.82767130767945"><ele>240.0</ele><time>2026-04-26T13:08:31.999Z</time></trkpt><trkpt lat="43.340802994827946" lon="11.827646837726732"><ele>240.0</ele><time>2026-04-26T13:08:32.999Z</time></trkpt><trkpt lat="43.340874822858375" lon="11.827620747934823"><ele>240.0</ele><time>2026-04-26T13:08:33.999Z</time></trkpt><trkpt lat="43.340946727678116" lon="11.827595918203112"><ele>240.0</ele><time>2026-04-26T13:08:34.999Z</time></trkpt><trkpt lat="43.341019392241435" lon="11.82757101901694"><ele>240.0</ele><time>2026-04-26T13:08:35.999Z</time></trkpt><trkpt lat="43.34109264855384" lon="11.827543142258945"><ele>240.0</ele><time>2026-04-26T13:08:36.999Z</time></trkpt><trkpt lat="43.34116407612554" lon="11.827517907293435"><ele>239.85714285714286</ele><time>2026-04-26T13:08:37.999Z</time></trkpt><trkpt lat="43.341236198099715" lon="11.827490531017993"><ele>239.71428571428572</ele><time>2026-04-26T13:08:38.999Z</time></trkpt><trkpt lat="43.34130552103815" lon="11.82746477948189"><ele>239.57142857142858</ele><time>2026-04-26T13:08:39.999Z</time></trkpt><trkpt lat="43.34137447707328" lon="11.827442363287052"><ele>239.42857142857144</ele><time>2026-04-26T13:08:40.999Z</time></trkpt><trkpt lat="43.34143873880753" lon="11.827417092252617"><ele>239.28571428571428</ele><time>2026-04-26T13:08:41.999Z</time></trkpt><trkpt lat="43.341504912227336" lon="11.82739089437539"><ele>239.14285714285717</ele><time>2026-04-26T13:08:42.999Z</time></trkpt><trkpt lat="43.34157216416224" lon="11.827367928884126"><ele>239.00000000000003</ele><time>2026-04-26T13:08:43.999Z</time></trkpt><trkpt lat="43.34164222224811" lon="11.82734219610223"><ele>239.00000000000003</ele><time>2026-04-26T13:08:44.999Z</time></trkpt><trkpt lat="43.34171278573678" lon="11.827318898647563"><ele>239.0</ele><time>2026-04-26T13:08:45.999Z</time></trkpt><trkpt lat="43.34178074916848" lon="11.827294375720149"><ele>239.00000000000003</ele><time>2026-04-26T13:08:46.999Z</time></trkpt><trkpt lat="43.341849417979844" lon="11.82727081763596"><ele>239.00000000000003</ele><time>2026-04-26T13:08:47.999Z</time></trkpt><trkpt lat="43.34191813256877" lon="11.827243641268435"><ele>239.0</ele><time>2026-04-26T13:08:48.999Z</time></trkpt><trkpt lat="43.3419858204193" lon="11.827221559897964"><ele>239.00000000000003</ele><time>2026-04-26T13:08:49.999Z</time></trkpt><trkpt lat="43.3420562947306" lon="11.827197753069138"><ele>239.00000000000003</ele><time>2026-04-26T13:08:50.999Z</time></trkpt><trkpt lat="43.34212259762198" lon="11.82717281154305"><ele>239.00000000000003</ele><time>2026-04-26T13:08:51.999Z</time></trkpt><trkpt lat="43.34218989769038" lon="11.82714885205071"><ele>239.0</ele><time>2026-04-26T13:08:52.999Z</time></trkpt><trkpt lat="43.34225967873269" lon="11.827123141670905"><ele>239.00000000000003</ele><time>2026-04-26T13:08:53.999Z</time></trkpt><trkpt lat="43.34232575334157" lon="11.82709736422332"><ele>239.00000000000003</ele><time>2026-04-26T13:08:54.999Z</time></trkpt><trkpt lat="43.34239452527128" lon="11.827074538497943"><ele>239.0</ele><time>2026-04-26T13:08:55.999Z</time></trkpt><trkpt lat="43.34246288125524" lon="11.827052343593477"><ele>239.00000000000003</ele><time>2026-04-26T13:08:56.999Z</time></trkpt><trkpt lat="43.342529034553515" lon="11.827028194024134"><ele>239.00000000000003</ele><time>2026-04-26T13:08:57.999Z</time></trkpt><trkpt lat="43.34259626881718" lon="11.827005200075893"><ele>239.00000000000003</ele><time>2026-04-26T13:08:58.999Z</time></trkpt><trkpt lat="43.34266577805844" lon="11.826982276958669"><ele>239.0</ele><time>2026-04-26T13:08:59.999Z</time></trkpt><trkpt lat="43.34273751038618" lon="11.826957535412223"><ele>239.00000000000003</ele><time>2026-04-26T13:09:00.999Z</time></trkpt><trkpt lat="43.34280908046836" lon="11.826934112881867"><ele>239.00000000000003</ele><time>2026-04-26T13:09:01.999Z</time></trkpt><trkpt lat="43.34288152536108" lon="11.82691072253811"><ele>239.0</ele><time>2026-04-26T13:09:02.999Z</time></trkpt><trkpt lat="43.342953865911284" lon="11.826885199266588"><ele>239.00000000000003</ele><time>2026-04-26T13:09:03.999Z</time></trkpt><trkpt lat="43.34302251304604" lon="11.826859753340212"><ele>239.00000000000003</ele><time>2026-04-26T13:09:04.999Z</time></trkpt><trkpt lat="43.34309192424077" lon="11.82683248037911"><ele>239.00000000000003</ele><time>2026-04-26T13:09:05.999Z</time></trkpt><trkpt lat="43.343161681757884" lon="11.826807776974949"><ele>239.0</ele><time>2026-04-26T13:09:06.999Z</time></trkpt><trkpt lat="43.34323493877252" lon="11.826782282360757"><ele>239.00000000000003</ele><time>2026-04-26T13:09:07.999Z</time></trkpt><trkpt lat="43.34330508992524" lon="11.826757101305509"><ele>239.00000000000003</ele><time>2026-04-26T13:09:08.999Z</time></trkpt><trkpt lat="43.34337736248378" lon="11.826732103461461"><ele>239.0</ele><time>2026-04-26T13:09:09.999Z</time></trkpt><trkpt lat="43.3434495846044" lon="11.8267096443854"><ele>239.00000000000003</ele><time>2026-04-26T13:09:10.999Z</time></trkpt><trkpt lat="43.34352201344215" lon="11.82668467639465"><ele>239.00000000000003</ele><time>2026-04-26T13:09:11.999Z</time></trkpt><trkpt lat="43.34359435087072" lon="11.826661761977523"><ele>239.00000000000003</ele><time>2026-04-26T13:09:12.999Z</time></trkpt><trkpt lat="43.34366745259673" lon="11.826640964120513"><ele>239.0</ele><time>2026-04-26T13:09:13.999Z</time></trkpt><trkpt lat="43.34373751496117" lon="11.826620245543976"><ele>239.00000000000003</ele><time>2026-04-26T13:09:14.999Z</time></trkpt><trkpt lat="43.34380665563534" lon="11.8266026319167"><ele>239.00000000000003</ele><time>2026-04-26T13:09:15.999Z</time></trkpt><trkpt lat="43.343875263575754" lon="11.826582947829802"><ele>239.0</ele><time>2026-04-26T13:09:16.999Z</time></trkpt><trkpt lat="43.34394888999835" lon="11.826567426532442"><ele>239.00000000000003</ele><time>2026-04-26T13:09:18Z</time></trkpt><trkpt lat="43.34401817847968" lon="11.826553960676295"><ele>239.00000000000003</ele><time>2026-04-26T13:09:19Z</time></trkpt><trkpt lat="43.34408881630981" lon="11.826541029188139"><ele>239.00000000000003</ele><time>2026-04-26T13:09:20Z</time></trkpt><trkpt lat="43.34415895502632" lon="11.826531435544018"><ele>239.0</ele><time>2026-04-26T13:09:21Z</time></trkpt><trkpt lat="43.34423062200225" lon="11.82652386833202"><ele>239.00000000000003</ele><time>2026-04-26T13:09:22Z</time></trkpt><trkpt lat="43.344301201498226" lon="11.82651502649228"><ele>239.00000000000003</ele><time>2026-04-26T13:09:23Z</time></trkpt><trkpt lat="43.34437338961495" lon="11.826505807914735"><ele>239.0</ele><time>2026-04-26T13:09:24Z</time></trkpt><trkpt lat="43.344442439984775" lon="11.826503517539834"><ele>239.00000000000003</ele><time>2026-04-26T13:09:25Z</time></trkpt><trkpt lat="43.3445102548093" lon="11.826491451979974"><ele>239.00000000000003</ele><time>2026-04-26T13:09:26Z</time></trkpt><trkpt lat="43.34457932811794" lon="11.826485453794499"><ele>239.00000000000003</ele><time>2026-04-26T13:09:27Z</time></trkpt><trkpt lat="43.3446529977698" lon="11.826483439792542"><ele>239.0</ele><time>2026-04-26T13:09:28Z</time></trkpt><trkpt lat="43.344725589201516" lon="11.82647625815305"><ele>239.0</ele><time>2026-04-26T13:09:29Z</time></trkpt><trkpt lat="43.34479984269156" lon="11.826466167734875"><ele>239.0</ele><time>2026-04-26T13:09:30Z</time></trkpt><trkpt lat="43.344878160902574" lon="11.82646096621718"><ele>239.00000000000003</ele><time>2026-04-26T13:09:31Z</time></trkpt><trkpt lat="43.34495195359711" lon="11.826455481736899"><ele>239.0</ele><time>2026-04-26T13:09:32Z</time></trkpt><trkpt lat="43.34503269374426" lon="11.826453464612886"><ele>239.00000000000003</ele><time>2026-04-26T13:09:33Z</time></trkpt><trkpt lat="43.34510949618691" lon="11.826447403100657"><ele>239.0</ele><time>2026-04-26T13:09:34Z</time></trkpt><trkpt lat="43.3451863995757" lon="11.826443084960967"><ele>239.00000000000003</ele><time>2026-04-26T13:09:35Z</time></trkpt><trkpt lat="43.34526058960612" lon="11.826443981807989"><ele>239.00000000000003</ele><time>2026-04-26T13:09:36Z</time></trkpt><trkpt lat="43.34533123633901" lon="11.826444806621838"><ele>239.0</ele><time>2026-04-26T13:09:37Z</time></trkpt><trkpt lat="43.345400040122314" lon="11.826442111599155"><ele>239.00000000000003</ele><time>2026-04-26T13:09:38Z</time></trkpt><trkpt lat="43.34547074119948" lon="11.82644166582891"><ele>239.00000000000003</ele><time>2026-04-26T13:09:39Z</time></trkpt><trkpt lat="43.345543232627605" lon="11.826441906902163"><ele>239.00000000000003</ele><time>2026-04-26T13:09:40Z</time></trkpt><trkpt lat="43.345615844168364" lon="11.826442521788874"><ele>239.0</ele><time>2026-04-26T13:09:41Z</time></trkpt><trkpt lat="43.345690565632076" lon="11.826439025459367"><ele>239.00000000000003</ele><time>2026-04-26T13:09:42Z</time></trkpt><trkpt lat="43.34576669489441" lon="11.82643730524255"><ele>239.00000000000003</ele><time>2026-04-26T13:09:43Z</time></trkpt><trkpt lat="43.34584160350237" lon="11.826436554867831"><ele>239.0</ele><time>2026-04-26T13:09:44Z</time></trkpt><trkpt lat="43.34591458807911" lon="11.826439745455172"><ele>239.00000000000003</ele><time>2026-04-26T13:09:45Z</time></trkpt><trkpt lat="43.34598732447527" lon="11.826436202207168"><ele>239.00000000000003</ele><time>2026-04-26T13:09:46Z</time></trkpt><trkpt lat="43.34606157489613" lon="11.82643131278865"><ele>239.00000000000003</ele><time>2026-04-26T13:09:47Z</time></trkpt><trkpt lat="43.3461344488219" lon="11.82642551887042"><ele>239.0</ele><time>2026-04-26T13:09:48Z</time></trkpt><trkpt lat="43.3462082021106" lon="11.826423025206442"><ele>239.00000000000003</ele><time>2026-04-26T13:09:49Z</time></trkpt><trkpt lat="43.34628306715283" lon="11.826420318685178"><ele>239.00000000000003</ele><time>2026-04-26T13:09:50Z</time></trkpt><trkpt lat="43.346356959792224" lon="11.826421459161972"><ele>239.0</ele><time>2026-04-26T13:09:51Z</time></trkpt><trkpt lat="43.34643133901214" lon="11.826420847262545"><ele>239.00000000000003</ele><time>2026-04-26T13:09:52Z</time></trkpt><trkpt lat="43.346503967192966" lon="11.826421561790065"><ele>239.00000000000003</ele><time>2026-04-26T13:09:53Z</time></trkpt><trkpt lat="43.346579983627095" lon="11.82642490248833"><ele>239.00000000000003</ele><time>2026-04-26T13:09:54Z</time></trkpt><trkpt lat="43.3466558520321" lon="11.826426975016036"><ele>239.0</ele><time>2026-04-26T13:09:55Z</time></trkpt><trkpt lat="43.34673107686916" lon="11.826429610347773"><ele>239.00000000000003</ele><time>2026-04-26T13:09:56Z</time></trkpt><trkpt lat="43.34680463586015" lon="11.826431579605735"><ele>239.00000000000003</ele><time>2026-04-26T13:09:57Z</time></trkpt><trkpt lat="43.34687926947908" lon="11.82643441336275"><ele>239.0</ele><time>2026-04-26T13:09:58Z</time></trkpt><trkpt lat="43.34695205712191" lon="11.826431317503179"><ele>239.00000000000003</ele><time>2026-04-26T13:09:59Z</time></trkpt><trkpt lat="43.34702401229223" lon="11.826431931320537"><ele>239.00000000000003</ele><time>2026-04-26T13:10:00Z</time></trkpt><trkpt lat="43.3470969381262" lon="11.826431082828524"><ele>239.00000000000003</ele><time>2026-04-26T13:10:01Z</time></trkpt><trkpt lat="43.347171964069226" lon="11.82643295776384"><ele>239.0</ele><time>2026-04-26T13:10:02Z</time></trkpt><trkpt lat="43.347245944468476" lon="11.826434841244089"><ele>239.00000000000003</ele><time>2026-04-26T13:10:03Z</time></trkpt><trkpt lat="43.347318640430274" lon="11.826434179348038"><ele>239.00000000000003</ele><time>2026-04-26T13:10:04Z</time></trkpt><trkpt lat="43.347391019883" lon="11.826434178088975"><ele>239.0</ele><time>2026-04-26T13:10:05Z</time></trkpt><trkpt lat="43.347463253836054" lon="11.826433111511276"><ele>239.00000000000003</ele><time>2026-04-26T13:10:06Z</time></trkpt><trkpt lat="43.34753748393052" lon="11.82643445197754"><ele>239.00000000000003</ele><time>2026-04-26T13:10:07Z</time></trkpt><trkpt lat="43.3476088061136" lon="11.826431841399792"><ele>238.8571428571429</ele><time>2026-04-26T13:10:08Z</time></trkpt><trkpt lat="43.347680660824935" lon="11.826431123133277"><ele>238.71428571428572</ele><time>2026-04-26T13:10:09Z</time></trkpt><trkpt lat="43.34775266533538" lon="11.826429488605802"><ele>238.57142857142858</ele><time>2026-04-26T13:10:10Z</time></trkpt><trkpt lat="43.34782356071084" lon="11.82642669052169"><ele>238.42857142857144</ele><time>2026-04-26T13:10:11Z</time></trkpt><trkpt lat="43.34789201103446" lon="11.826425419124416"><ele>238.28571428571428</ele><time>2026-04-26T13:10:12Z</time></trkpt><trkpt lat="43.347963709211534" lon="11.826425151564095"><ele>238.14285714285714</ele><time>2026-04-26T13:10:13Z</time></trkpt><trkpt lat="43.348033417967635" lon="11.826424848567692"><ele>238.0</ele><time>2026-04-26T13:10:14Z</time></trkpt><trkpt lat="43.34810249959825" lon="11.826425580326603"><ele>238.28571428571428</ele><time>2026-04-26T13:10:15Z</time></trkpt><trkpt lat="43.34817284176327" lon="11.826421807442099"><ele>238.57142857142856</ele><time>2026-04-26T13:10:16Z</time></trkpt><trkpt lat="43.348242131248966" lon="11.826420401965803"><ele>238.85714285714286</ele><time>2026-04-26T13:10:17Z</time></trkpt><trkpt lat="43.3483122792467" lon="11.826421365837541"><ele>239.14285714285714</ele><time>2026-04-26T13:10:17.999Z</time></trkpt><trkpt lat="43.34838468291992" lon="11.82642141932262"><ele>239.42857142857142</ele><time>2026-04-26T13:10:18.999Z</time></trkpt><trkpt lat="43.34845388589663" lon="11.826420686124473"><ele>239.71428571428572</ele><time>2026-04-26T13:10:19.999Z</time></trkpt><trkpt lat="43.34852524049336" lon="11.826417720369191"><ele>240.0</ele><time>2026-04-26T13:10:20.999Z</time></trkpt><trkpt lat="43.3485957274297" lon="11.826415794609117"><ele>240.0</ele><time>2026-04-26T13:10:21.999Z</time></trkpt><trkpt lat="43.34866775308421" lon="11.826417639208053"><ele>240.0</ele><time>2026-04-26T13:10:22.999Z</time></trkpt><trkpt lat="43.34873811686802" lon="11.826419831909408"><ele>240.0</ele><time>2026-04-26T13:10:23.999Z</time></trkpt><trkpt lat="43.3488100934904" lon="11.826421934727023"><ele>240.0</ele><time>2026-04-26T13:10:24.999Z</time></trkpt><trkpt lat="43.348882465219745" lon="11.826419079310456"><ele>240.0</ele><time>2026-04-26T13:10:25.999Z</time></trkpt><trkpt lat="43.348955779042235" lon="11.826418598610205"><ele>240.0</ele><time>2026-04-26T13:10:26.999Z</time></trkpt><trkpt lat="43.34903005990597" lon="11.826420315150079"><ele>240.0</ele><time>2026-04-26T13:10:27.999Z</time></trkpt><trkpt lat="43.34910376723646" lon="11.826420552533389"><ele>239.85714285714286</ele><time>2026-04-26T13:10:28.999Z</time></trkpt><trkpt lat="43.34917709885068" lon="11.826421639898756"><ele>239.71428571428572</ele><time>2026-04-26T13:10:29.999Z</time></trkpt><trkpt lat="43.34924867611471" lon="11.82642544960227"><ele>239.57142857142858</ele><time>2026-04-26T13:10:30.999Z</time></trkpt><trkpt lat="43.34931971919434" lon="11.826425785468215"><ele>239.42857142857144</ele><time>2026-04-26T13:10:31.999Z</time></trkpt><trkpt lat="43.3493894271237" lon="11.826426496756929"><ele>239.28571428571428</ele><time>2026-04-26T13:10:32.999Z</time></trkpt><trkpt lat="43.349457993230786" lon="11.826428542325363"><ele>239.14285714285717</ele><time>2026-04-26T13:10:33.999Z</time></trkpt><trkpt lat="43.349527584697626" lon="11.826431157770518"><ele>239.00000000000003</ele><time>2026-04-26T13:10:34.999Z</time></trkpt><trkpt lat="43.34959787417033" lon="11.826433112288559"><ele>239.00000000000003</ele><time>2026-04-26T13:10:35.999Z</time></trkpt><trkpt lat="43.34966833512181" lon="11.826433651419743"><ele>239.0</ele><time>2026-04-26T13:10:36.999Z</time></trkpt><trkpt lat="43.349737857098" lon="11.826434223568782"><ele>239.00000000000003</ele><time>2026-04-26T13:10:37.999Z</time></trkpt><trkpt lat="43.34980681070057" lon="11.82643413293619"><ele>239.00000000000003</ele><time>2026-04-26T13:10:38.999Z</time></trkpt><trkpt lat="43.34987679586095" lon="11.826435023590767"><ele>239.0</ele><time>2026-04-26T13:10:39.999Z</time></trkpt><trkpt lat="43.34994570314703" lon="11.826436751572771"><ele>239.00000000000003</ele><time>2026-04-26T13:10:40.999Z</time></trkpt><trkpt lat="43.35001449187082" lon="11.826440659323074"><ele>239.00000000000003</ele><time>2026-04-26T13:10:41.999Z</time></trkpt><trkpt lat="43.350085717320916" lon="11.826446130657017"><ele>238.8571428571429</ele><time>2026-04-26T13:10:42.999Z</time></trkpt><trkpt lat="43.35015601951537" lon="11.826447985732427"><ele>238.71428571428572</ele><time>2026-04-26T13:10:43.999Z</time></trkpt><trkpt lat="43.3502242928749" lon="11.826449783318308"><ele>238.57142857142858</ele><time>2026-04-26T13:10:44.999Z</time></trkpt><trkpt lat="43.35029374484725" lon="11.82645224211658"><ele>238.42857142857144</ele><time>2026-04-26T13:10:45.999Z</time></trkpt><trkpt lat="43.350362898419505" lon="11.826452800696277"><ele>238.28571428571428</ele><time>2026-04-26T13:10:46.999Z</time></trkpt><trkpt lat="43.35043268508639" lon="11.82645579034018"><ele>238.14285714285714</ele><time>2026-04-26T13:10:47.999Z</time></trkpt><trkpt lat="43.35050352445375" lon="11.82646067899739"><ele>238.0</ele><time>2026-04-26T13:10:48.999Z</time></trkpt><trkpt lat="43.35057329837036" lon="11.826458497047577"><ele>238.28571428571428</ele><time>2026-04-26T13:10:49.999Z</time></trkpt><trkpt lat="43.350643123055576" lon="11.826459510749181"><ele>238.57142857142856</ele><time>2026-04-26T13:10:50.999Z</time></trkpt><trkpt lat="43.35071287666407" lon="11.826461553532567"><ele>238.85714285714286</ele><time>2026-04-26T13:10:51.999Z</time></trkpt><trkpt lat="43.35078201237247" lon="11.826462133061437"><ele>239.14285714285714</ele><time>2026-04-26T13:10:52.999Z</time></trkpt><trkpt lat="43.35085240231365" lon="11.826465324280695"><ele>239.42857142857142</ele><time>2026-04-26T13:10:53.999Z</time></trkpt><trkpt lat="43.35092204446005" lon="11.826464032437846"><ele>239.71428571428572</ele><time>2026-04-26T13:10:54.999Z</time></trkpt><trkpt lat="43.35098992343258" lon="11.826470418130901"><ele>240.0</ele><time>2026-04-26T13:10:55.999Z</time></trkpt><trkpt lat="43.35106012160595" lon="11.826467925832215"><ele>240.0</ele><time>2026-04-26T13:10:56.999Z</time></trkpt><trkpt lat="43.35112454615691" lon="11.826464776318272"><ele>240.0</ele><time>2026-04-26T13:10:57.999Z</time></trkpt><trkpt lat="43.35119418555182" lon="11.826457542220247"><ele>240.0</ele><time>2026-04-26T13:10:58.999Z</time></trkpt><trkpt lat="43.35125983407202" lon="11.826457685023778"><ele>240.0</ele><time>2026-04-26T13:10:59.999Z</time></trkpt><trkpt lat="43.351323262674306" lon="11.826457758496534"><ele>240.0</ele><time>2026-04-26T13:11:00.999Z</time></trkpt><trkpt lat="43.35138847141693" lon="11.826462177790235"><ele>240.0</ele><time>2026-04-26T13:11:01.999Z</time></trkpt><trkpt lat="43.35145377789483" lon="11.826465862699978"><ele>240.0</ele><time>2026-04-26T13:11:02.999Z</time></trkpt><trkpt lat="43.35152703932977" lon="11.82647014847137"><ele>240.16666666666666</ele><time>2026-04-26T13:11:03.999Z</time></trkpt><trkpt lat="43.351595174012715" lon="11.826475061340009"><ele>240.33333333333331</ele><time>2026-04-26T13:11:04.999Z</time></trkpt><trkpt lat="43.351663899940085" lon="11.826478427677115"><ele>240.5</ele><time>2026-04-26T13:11:05.999Z</time></trkpt><trkpt lat="43.35172793145177" lon="11.826477064790208"><ele>240.66666666666666</ele><time>2026-04-26T13:11:06.999Z</time></trkpt><trkpt lat="43.35184310113906" lon="11.826464020211922"><ele>240.83333333333331</ele><time>2026-04-26T13:11:08.999Z</time></trkpt><trkpt lat="43.35190807301803" lon="11.826464099515999"><ele>241.0</ele><time>2026-04-26T13:11:09.999Z</time></trkpt><trkpt lat="43.35203157027837" lon="11.826459709473315"><ele>241.0</ele><time>2026-04-26T13:11:11.999Z</time></trkpt><trkpt lat="43.35211421883034" lon="11.82644561892435"><ele>241.00000000000003</ele><time>2026-04-26T13:11:13.999Z</time></trkpt><trkpt lat="43.352192155170854" lon="11.82641757938704"><ele>241.00000000000003</ele><time>2026-04-26T13:11:17.999Z</time></trkpt><trkpt lat="43.35227088471709" lon="11.826430615012503"><ele>241.0</ele><time>2026-04-26T13:11:19.999Z</time></trkpt><trkpt lat="43.35237231990393" lon="11.826474447180647"><ele>241.0</ele><time>2026-04-26T13:11:21.999Z</time></trkpt><trkpt lat="43.3524909090067" lon="11.826484068607778"><ele>240.75</ele><time>2026-04-26T13:11:24Z</time></trkpt><trkpt lat="43.352605812476085" lon="11.826508655851674"><ele>240.5</ele><time>2026-04-26T13:11:26Z</time></trkpt><trkpt lat="43.35271853849107" lon="11.826497180895458"><ele>240.25</ele><time>2026-04-26T13:11:28Z</time></trkpt><trkpt lat="43.3528376954594" lon="11.826500960690346"><ele>240.0</ele><time>2026-04-26T13:11:30Z</time></trkpt><trkpt lat="43.35294700028166" lon="11.826493245015772"><ele>240.0</ele><time>2026-04-26T13:11:32Z</time></trkpt><trkpt lat="43.35304427959117" lon="11.826500822561218"><ele>240.0</ele><time>2026-04-26T13:11:34Z</time></trkpt><trkpt lat="43.35313675194765" lon="11.826498811354707"><ele>240.0</ele><time>2026-04-26T13:11:36Z</time></trkpt><trkpt lat="43.35323016045566" lon="11.826506565361495"><ele>240.0</ele><time>2026-04-26T13:11:38Z</time></trkpt><trkpt lat="43.353333855400614" lon="11.826514778586665"><ele>240.0</ele><time>2026-04-26T13:11:40Z</time></trkpt><trkpt lat="43.35344582178566" lon="11.826515997430395"><ele>240.0</ele><time>2026-04-26T13:11:42Z</time></trkpt><trkpt lat="43.35356332156669" lon="11.826524744280487"><ele>240.0</ele><time>2026-04-26T13:11:44Z</time></trkpt><trkpt lat="43.353690210222084" lon="11.826525749917867"><ele>240.0</ele><time>2026-04-26T13:11:46Z</time></trkpt><trkpt lat="43.35375319541763" lon="11.82653229184504"><ele>240.0</ele><time>2026-04-26T13:11:47Z</time></trkpt><trkpt lat="43.35381813606357" lon="11.82653391707105"><ele>240.0</ele><time>2026-04-26T13:11:48Z</time></trkpt><trkpt lat="43.353883437156384" lon="11.826533866176021"><ele>240.0</ele><time>2026-04-26T13:11:49Z</time></trkpt><trkpt lat="43.35394682880339" lon="11.82653524338325"><ele>239.71428571428572</ele><time>2026-04-26T13:11:50Z</time></trkpt><trkpt lat="43.35401301671821" lon="11.826536497486142"><ele>239.42857142857142</ele><time>2026-04-26T13:11:51Z</time></trkpt><trkpt lat="43.3540802079336" lon="11.826538473725696"><ele>239.14285714285714</ele><time>2026-04-26T13:11:52Z</time></trkpt><trkpt lat="43.354148233865686" lon="11.826541095371017"><ele>238.85714285714286</ele><time>2026-04-26T13:11:53Z</time></trkpt><trkpt lat="43.35421641658336" lon="11.826546013561671"><ele>238.57142857142856</ele><time>2026-04-26T13:11:54Z</time></trkpt><trkpt lat="43.35428445824514" lon="11.826550614982006"><ele>238.28571428571428</ele><time>2026-04-26T13:11:55Z</time></trkpt><trkpt lat="43.35435224721718" lon="11.826549266399853"><ele>238.0</ele><time>2026-04-26T13:11:56Z</time></trkpt><trkpt lat="43.354418562984065" lon="11.826550827816783"><ele>238.0</ele><time>2026-04-26T13:11:57Z</time></trkpt><trkpt lat="43.35448328029026" lon="11.826554961687608"><ele>238.0</ele><time>2026-04-26T13:11:58Z</time></trkpt><trkpt lat="43.35454841216695" lon="11.826559777823954"><ele>238.0</ele><time>2026-04-26T13:11:59Z</time></trkpt><trkpt lat="43.35461398792664" lon="11.826561903778408"><ele>238.0</ele><time>2026-04-26T13:12:00Z</time></trkpt><trkpt lat="43.35467922082784" lon="11.826560711808911"><ele>238.0</ele><time>2026-04-26T13:12:01Z</time></trkpt><trkpt lat="43.354744592761776" lon="11.826561445439078"><ele>238.0</ele><time>2026-04-26T13:12:02Z</time></trkpt><trkpt lat="43.354808662817085" lon="11.826565597723732"><ele>238.0</ele><time>2026-04-26T13:12:03Z</time></trkpt><trkpt lat="43.3548731729917" lon="11.826568787735535"><ele>238.25</ele><time>2026-04-26T13:12:04Z</time></trkpt><trkpt lat="43.35493784958684" lon="11.826572596005581"><ele>238.5</ele><time>2026-04-26T13:12:05Z</time></trkpt><trkpt lat="43.35500163490468" lon="11.826572408809984"><ele>238.75</ele><time>2026-04-26T13:12:06Z</time></trkpt><trkpt lat="43.3550651447361" lon="11.826570426390196"><ele>239.0</ele><time>2026-04-26T13:12:07Z</time></trkpt><trkpt lat="43.35513068664026" lon="11.826570945331802"><ele>239.25</ele><time>2026-04-26T13:12:08Z</time></trkpt><trkpt lat="43.35519452450344" lon="11.826577832355625"><ele>239.5</ele><time>2026-04-26T13:12:09Z</time></trkpt><trkpt lat="43.355258250841054" lon="11.826579384547353"><ele>239.75</ele><time>2026-04-26T13:12:10Z</time></trkpt><trkpt lat="43.35532228800311" lon="11.826579691600854"><ele>240.0</ele><time>2026-04-26T13:12:11Z</time></trkpt><trkpt lat="43.35538761832735" lon="11.826582510078449"><ele>240.0</ele><time>2026-04-26T13:12:12Z</time></trkpt><trkpt lat="43.35545434550324" lon="11.826584605237803"><ele>240.0</ele><time>2026-04-26T13:12:13Z</time></trkpt><trkpt lat="43.355519350996985" lon="11.82658956186431"><ele>240.0</ele><time>2026-04-26T13:12:14Z</time></trkpt><trkpt lat="43.35558320720452" lon="11.826592183245339"><ele>240.0</ele><time>2026-04-26T13:12:15Z</time></trkpt><trkpt lat="43.35564755624403" lon="11.8265950522643"><ele>240.0</ele><time>2026-04-26T13:12:16Z</time></trkpt><trkpt lat="43.35571248752938" lon="11.82659845543969"><ele>240.0</ele><time>2026-04-26T13:12:17Z</time></trkpt><trkpt lat="43.35577716546712" lon="11.826601137590085"><ele>240.0</ele><time>2026-04-26T13:12:18Z</time></trkpt><trkpt lat="43.35584204823386" lon="11.8266028581549"><ele>240.0</ele><time>2026-04-26T13:12:19Z</time></trkpt><trkpt lat="43.35590690571244" lon="11.826607440902729"><ele>240.0</ele><time>2026-04-26T13:12:20Z</time></trkpt><trkpt lat="43.35597265020937" lon="11.826612453228963"><ele>240.0</ele><time>2026-04-26T13:12:21Z</time></trkpt><trkpt lat="43.35604010269408" lon="11.82661578825936"><ele>240.0</ele><time>2026-04-26T13:12:22Z</time></trkpt><trkpt lat="43.35610865764713" lon="11.826619065705513"><ele>240.0</ele><time>2026-04-26T13:12:23Z</time></trkpt><trkpt lat="43.35617788017642" lon="11.82662179434458"><ele>240.0</ele><time>2026-04-26T13:12:24Z</time></trkpt><trkpt lat="43.35624786137399" lon="11.826625948120904"><ele>240.0</ele><time>2026-04-26T13:12:25Z</time></trkpt><trkpt lat="43.35631716468832" lon="11.826628653520993"><ele>240.0</ele><time>2026-04-26T13:12:26Z</time></trkpt><trkpt lat="43.35638704125293" lon="11.82663119341952"><ele>240.0</ele><time>2026-04-26T13:12:27Z</time></trkpt><trkpt lat="43.356456772364346" lon="11.826635333023438"><ele>240.0</ele><time>2026-04-26T13:12:28Z</time></trkpt><trkpt lat="43.35652773062953" lon="11.826638019036743"><ele>240.0</ele><time>2026-04-26T13:12:29Z</time></trkpt><trkpt lat="43.35659865311027" lon="11.82663955978263"><ele>240.0</ele><time>2026-04-26T13:12:30Z</time></trkpt><trkpt lat="43.35666790770219" lon="11.82664917903624"><ele>240.0</ele><time>2026-04-26T13:12:31Z</time></trkpt><trkpt lat="43.35673782099922" lon="11.82666086073316"><ele>240.0</ele><time>2026-04-26T13:12:32Z</time></trkpt><trkpt lat="43.35680737805804" lon="11.826666499550994"><ele>240.0</ele><time>2026-04-26T13:12:33Z</time></trkpt><trkpt lat="43.35687729332887" lon="11.82666743450337"><ele>240.0</ele><time>2026-04-26T13:12:34Z</time></trkpt><trkpt lat="43.356946844895766" lon="11.826668993409244"><ele>240.0</ele><time>2026-04-26T13:12:35Z</time></trkpt><trkpt lat="43.357015596568715" lon="11.826671321321982"><ele>240.0</ele><time>2026-04-26T13:12:36Z</time></trkpt><trkpt lat="43.35708336066845" lon="11.826675438151392"><ele>240.0</ele><time>2026-04-26T13:12:37Z</time></trkpt><trkpt lat="43.357148860384186" lon="11.826677383467546"><ele>240.0</ele><time>2026-04-26T13:12:38Z</time></trkpt><trkpt lat="43.35721424986447" lon="11.826679345609534"><ele>240.0</ele><time>2026-04-26T13:12:39Z</time></trkpt><trkpt lat="43.35727904002483" lon="11.826681485624855"><ele>240.28571428571428</ele><time>2026-04-26T13:12:40Z</time></trkpt><trkpt lat="43.35734233694189" lon="11.826682580080359"><ele>240.57142857142856</ele><time>2026-04-26T13:12:40.999Z</time></trkpt><trkpt lat="43.357467970601824" lon="11.826690742128397"><ele>240.85714285714283</ele><time>2026-04-26T13:12:42.999Z</time></trkpt><trkpt lat="43.35753152044685" lon="11.826694086351111"><ele>241.14285714285714</ele><time>2026-04-26T13:12:43.999Z</time></trkpt><trkpt lat="43.35759491336046" lon="11.82669494811328"><ele>241.4285714285714</ele><time>2026-04-26T13:12:44.999Z</time></trkpt><trkpt lat="43.357659764460124" lon="11.826693771298952"><ele>241.7142857142857</ele><time>2026-04-26T13:12:45.999Z</time></trkpt><trkpt lat="43.35772572577234" lon="11.826692629079819"><ele>242.0</ele><time>2026-04-26T13:12:46.999Z</time></trkpt><trkpt lat="43.35779328623554" lon="11.826693650856033"><ele>242.0</ele><time>2026-04-26T13:12:47.999Z</time></trkpt><trkpt lat="43.357862421209475" lon="11.826694224407559"><ele>241.99999999999997</ele><time>2026-04-26T13:12:48.999Z</time></trkpt><trkpt lat="43.357929938794" lon="11.826693669287303"><ele>242.0</ele><time>2026-04-26T13:12:49.999Z</time></trkpt><trkpt lat="43.35799753197018" lon="11.826692927546665"><ele>242.0</ele><time>2026-04-26T13:12:50.999Z</time></trkpt><trkpt lat="43.35806587424736" lon="11.826691519042217"><ele>241.99999999999997</ele><time>2026-04-26T13:12:51.999Z</time></trkpt><trkpt lat="43.3581346756084" lon="11.82668795294703"><ele>242.0</ele><time>2026-04-26T13:12:52.999Z</time></trkpt><trkpt lat="43.35820409038278" lon="11.826683667196685"><ele>242.0</ele><time>2026-04-26T13:12:53.999Z</time></trkpt><trkpt lat="43.35827367683282" lon="11.826677895564291"><ele>241.85714285714283</ele><time>2026-04-26T13:12:54.999Z</time></trkpt><trkpt lat="43.35834207756328" lon="11.826670934867284"><ele>241.7142857142857</ele><time>2026-04-26T13:12:55.999Z</time></trkpt><trkpt lat="43.35841121644116" lon="11.826664454212983"><ele>241.57142857142856</ele><time>2026-04-26T13:12:56.999Z</time></trkpt><trkpt lat="43.358481003711844" lon="11.826657483075254"><ele>241.42857142857144</ele><time>2026-04-26T13:12:57.999Z</time></trkpt><trkpt lat="43.358550511641056" lon="11.826649672296119"><ele>241.2857142857143</ele><time>2026-04-26T13:12:58.999Z</time></trkpt><trkpt lat="43.35862034346568" lon="11.82664496046608"><ele>241.14285714285717</ele><time>2026-04-26T13:12:59.999Z</time></trkpt><trkpt lat="43.358691218281876" lon="11.826639656035047"><ele>241.0</ele><time>2026-04-26T13:13:00.999Z</time></trkpt><trkpt lat="43.35876290010912" lon="11.826634938404338"><ele>241.0</ele><time>2026-04-26T13:13:01.999Z</time></trkpt><trkpt lat="43.3588345235165" lon="11.826629183500103"><ele>241.00000000000003</ele><time>2026-04-26T13:13:02.999Z</time></trkpt><trkpt lat="43.35890620488382" lon="11.826622887131482"><ele>241.0</ele><time>2026-04-26T13:13:03.999Z</time></trkpt><trkpt lat="43.35897734271001" lon="11.826616732955467"><ele>241.0</ele><time>2026-04-26T13:13:04.999Z</time></trkpt><trkpt lat="43.35904702662981" lon="11.826612343831902"><ele>241.00000000000003</ele><time>2026-04-26T13:13:05.999Z</time></trkpt><trkpt lat="43.35911679468942" lon="11.826606181740756"><ele>241.0</ele><time>2026-04-26T13:13:06.999Z</time></trkpt><trkpt lat="43.35918689108387" lon="11.826598517388168"><ele>241.0</ele><time>2026-04-26T13:13:07.999Z</time></trkpt><trkpt lat="43.359257456390715" lon="11.826592043151495"><ele>240.85714285714286</ele><time>2026-04-26T13:13:08.999Z</time></trkpt><trkpt lat="43.359327323264665" lon="11.826586041937018"><ele>240.71428571428572</ele><time>2026-04-26T13:13:09.999Z</time></trkpt><trkpt lat="43.35939798700181" lon="11.826580628265436"><ele>240.57142857142858</ele><time>2026-04-26T13:13:10.999Z</time></trkpt><trkpt lat="43.35946971294052" lon="11.826574809724569"><ele>240.42857142857144</ele><time>2026-04-26T13:13:11.999Z</time></trkpt><trkpt lat="43.35954098851569" lon="11.82657123449327"><ele>240.28571428571428</ele><time>2026-04-26T13:13:12.999Z</time></trkpt><trkpt lat="43.35961258591792" lon="11.826565270774122"><ele>240.14285714285717</ele><time>2026-04-26T13:13:13.999Z</time></trkpt><trkpt lat="43.3596839581342" lon="11.82656125211035"><ele>240.0</ele><time>2026-04-26T13:13:14.999Z</time></trkpt><trkpt lat="43.359755180299885" lon="11.826558606740122"><ele>239.85714285714286</ele><time>2026-04-26T13:13:15.999Z</time></trkpt><trkpt lat="43.35982670345714" lon="11.82655575274793"><ele>239.71428571428572</ele><time>2026-04-26T13:13:16.999Z</time></trkpt><trkpt lat="43.35989772965053" lon="11.826552068034026"><ele>239.57142857142858</ele><time>2026-04-26T13:13:17.999Z</time></trkpt><trkpt lat="43.35996919856477" lon="11.82654642618002"><ele>239.42857142857144</ele><time>2026-04-26T13:13:18.999Z</time></trkpt><trkpt lat="43.360040282117865" lon="11.826540488257626"><ele>239.28571428571428</ele><time>2026-04-26T13:13:19.999Z</time></trkpt><trkpt lat="43.36011115882194" lon="11.82653517705108"><ele>239.14285714285717</ele><time>2026-04-26T13:13:20.999Z</time></trkpt><trkpt lat="43.36018244053853" lon="11.826530290230549"><ele>239.00000000000003</ele><time>2026-04-26T13:13:21.999Z</time></trkpt><trkpt lat="43.36025391956516" lon="11.826524273032652"><ele>239.00000000000003</ele><time>2026-04-26T13:13:22.999Z</time></trkpt><trkpt lat="43.36032629003962" lon="11.826518526135084"><ele>239.0</ele><time>2026-04-26T13:13:23.999Z</time></trkpt><trkpt lat="43.360398697054144" lon="11.826513015041039"><ele>239.00000000000003</ele><time>2026-04-26T13:13:24.999Z</time></trkpt><trkpt lat="43.36047071019337" lon="11.82650814289077"><ele>239.00000000000003</ele><time>2026-04-26T13:13:25.999Z</time></trkpt><trkpt lat="43.36054292334542" lon="11.8265037908314"><ele>239.0</ele><time>2026-04-26T13:13:26.999Z</time></trkpt><trkpt lat="43.36061517374355" lon="11.826497677122651"><ele>239.00000000000003</ele><time>2026-04-26T13:13:27.999Z</time></trkpt><trkpt lat="43.360687120910086" lon="11.82648900364001"><ele>239.00000000000003</ele><time>2026-04-26T13:13:28.999Z</time></trkpt><trkpt lat="43.360759182856974" lon="11.826482005770435"><ele>239.00000000000003</ele><time>2026-04-26T13:13:30Z</time></trkpt><trkpt lat="43.36083054213133" lon="11.82647587793253"><ele>239.0</ele><time>2026-04-26T13:13:31Z</time></trkpt><trkpt lat="43.36090244002827" lon="11.826470363697874"><ele>239.00000000000003</ele><time>2026-04-26T13:13:32Z</time></trkpt><trkpt lat="43.36097386774911" lon="11.826465276835997"><ele>239.00000000000003</ele><time>2026-04-26T13:13:33Z</time></trkpt><trkpt lat="43.36104475103179" lon="11.826459690166228"><ele>239.0</ele><time>2026-04-26T13:13:34Z</time></trkpt><trkpt lat="43.361115808984245" lon="11.826454070768978"><ele>239.00000000000003</ele><time>2026-04-26T13:13:35Z</time></trkpt><trkpt lat="43.36118457720125" lon="11.8264494927146"><ele>239.00000000000003</ele><time>2026-04-26T13:13:36Z</time></trkpt><trkpt lat="43.36125282377444" lon="11.826444516081652"><ele>239.00000000000003</ele><time>2026-04-26T13:13:37Z</time></trkpt><trkpt lat="43.361320340198496" lon="11.826438498367779"><ele>239.0</ele><time>2026-04-26T13:13:38Z</time></trkpt><trkpt lat="43.36138706034318" lon="11.82643356400951"><ele>239.00000000000003</ele><time>2026-04-26T13:13:39Z</time></trkpt><trkpt lat="43.36145325096551" lon="11.8264296037615"><ele>239.00000000000003</ele><time>2026-04-26T13:13:40Z</time></trkpt><trkpt lat="43.36151789073584" lon="11.82642522892429"><ele>239.0</ele><time>2026-04-26T13:13:41Z</time></trkpt><trkpt lat="43.36158360934421" lon="11.82641776043917"><ele>239.00000000000003</ele><time>2026-04-26T13:13:42Z</time></trkpt><trkpt lat="43.361650063647524" lon="11.826412177208388"><ele>239.00000000000003</ele><time>2026-04-26T13:13:43Z</time></trkpt><trkpt lat="43.36171639099955" lon="11.826406220882342"><ele>238.8571428571429</ele><time>2026-04-26T13:13:44Z</time></trkpt><trkpt lat="43.36178358765882" lon="11.826401059237634"><ele>238.71428571428572</ele><time>2026-04-26T13:13:45Z</time></trkpt><trkpt lat="43.361852219426304" lon="11.826397094428497"><ele>238.57142857142858</ele><time>2026-04-26T13:13:46Z</time></trkpt><trkpt lat="43.361920776664334" lon="11.826392406576893"><ele>238.42857142857144</ele><time>2026-04-26T13:13:47Z</time></trkpt><trkpt lat="43.361990306002426" lon="11.826387356622167"><ele>238.28571428571428</ele><time>2026-04-26T13:13:48Z</time></trkpt><trkpt lat="43.362060264851166" lon="11.82638191369029"><ele>238.14285714285714</ele><time>2026-04-26T13:13:49Z</time></trkpt><trkpt lat="43.36212945094059" lon="11.826373420441927"><ele>238.0</ele><time>2026-04-26T13:13:50Z</time></trkpt><trkpt lat="43.36219309694467" lon="11.826366302927353"><ele>238.16666666666666</ele><time>2026-04-26T13:13:51Z</time></trkpt><trkpt lat="43.36231629682371" lon="11.826345168803787"><ele>238.33333333333331</ele><time>2026-04-26T13:13:53Z</time></trkpt><trkpt lat="43.362440379335915" lon="11.82633119554309"><ele>238.5</ele><time>2026-04-26T13:13:55Z</time></trkpt><trkpt lat="43.36250381155199" lon="11.826326676570353"><ele>238.66666666666669</ele><time>2026-04-26T13:13:56Z</time></trkpt><trkpt lat="43.3625670823142" lon="11.826323114525653"><ele>238.83333333333334</ele><time>2026-04-26T13:13:57Z</time></trkpt><trkpt lat="43.36263046509095" lon="11.826318382514213"><ele>239.0</ele><time>2026-04-26T13:13:58Z</time></trkpt><trkpt lat="43.362693753209" lon="11.826315480761554"><ele>239.00000000000003</ele><time>2026-04-26T13:13:59Z</time></trkpt><trkpt lat="43.36275811494362" lon="11.826311371053222"><ele>239.0</ele><time>2026-04-26T13:14:00Z</time></trkpt><trkpt lat="43.362822115990504" lon="11.82630298809893"><ele>239.0</ele><time>2026-04-26T13:14:01Z</time></trkpt><trkpt lat="43.362945263582645" lon="11.826293308206015"><ele>239.0</ele><time>2026-04-26T13:14:03Z</time></trkpt><trkpt lat="43.363058199086524" lon="11.826283921263991"><ele>239.00000000000003</ele><time>2026-04-26T13:14:05Z</time></trkpt><trkpt lat="43.363138948458314" lon="11.82627545459467"><ele>239.0</ele><time>2026-04-26T13:14:07Z</time></trkpt><trkpt lat="43.363145507243296" lon="11.826173810207406"><ele>238.8571428571429</ele><time>2026-04-26T13:14:20Z</time></trkpt><trkpt lat="43.36311830531998" lon="11.82607402731079"><ele>238.71428571428572</ele><time>2026-04-26T13:14:23Z</time></trkpt><trkpt lat="43.36309124444456" lon="11.825993451110921"><ele>238.57142857142858</ele><time>2026-04-26T13:14:26Z</time></trkpt><trkpt lat="43.3630745157647" lon="11.825893835995101"><ele>238.42857142857144</ele><time>2026-04-26T13:14:32Z</time></trkpt><trkpt lat="43.36306154532822" lon="11.825800058379924"><ele>238.28571428571428</ele><time>2026-04-26T13:14:35Z</time></trkpt><trkpt lat="43.36304409314361" lon="11.825712365838394"><ele>238.14285714285714</ele><time>2026-04-26T13:14:37Z</time></trkpt><trkpt lat="43.363024029049974" lon="11.825583598047459"><ele>238.0</ele><time>2026-04-26T13:14:40Z</time></trkpt><trkpt lat="43.36299726557636" lon="11.82546344279164"><ele>238.33333333333331</ele><time>2026-04-26T13:14:43Z</time></trkpt><trkpt lat="43.3629895359813" lon="11.825364712194968"><ele>238.66666666666666</ele><time>2026-04-26T13:14:45Z</time></trkpt><trkpt lat="43.3629767395822" lon="11.825254582627347"><ele>239.0</ele><time>2026-04-26T13:14:47Z</time></trkpt><trkpt lat="43.3629636493258" lon="11.825141694026309"><ele>239.33333333333331</ele><time>2026-04-26T13:14:49Z</time></trkpt><trkpt lat="43.362951504618856" lon="11.825028043339787"><ele>239.66666666666666</ele><time>2026-04-26T13:14:51Z</time></trkpt><trkpt lat="43.362938045673936" lon="11.824908721062881"><ele>240.0</ele><time>2026-04-26T13:14:53Z</time></trkpt><trkpt lat="43.362922930138325" lon="11.82478261164464"><ele>240.0</ele><time>2026-04-26T13:14:54.999Z</time></trkpt><trkpt lat="43.36290501781072" lon="11.824648373224289"><ele>240.0</ele><time>2026-04-26T13:14:56.999Z</time></trkpt><trkpt lat="43.36288928183293" lon="11.82451541718548"><ele>240.0</ele><time>2026-04-26T13:14:58.999Z</time></trkpt><trkpt lat="43.36286993628683" lon="11.824378021257145"><ele>240.0</ele><time>2026-04-26T13:15:00.999Z</time></trkpt><trkpt lat="43.36285306315604" lon="11.82424270606143"><ele>240.0</ele><time>2026-04-26T13:15:02.999Z</time></trkpt><trkpt lat="43.36283390706613" lon="11.824109252329224"><ele>240.2</ele><time>2026-04-26T13:15:04.999Z</time></trkpt><trkpt lat="43.36283807425499" lon="11.823963391566528"><ele>240.4</ele><time>2026-04-26T13:15:06.999Z</time></trkpt><trkpt lat="43.36281602745078" lon="11.823824302100212"><ele>240.60000000000002</ele><time>2026-04-26T13:15:08.999Z</time></trkpt><trkpt lat="43.36279627418514" lon="11.823689674623294"><ele>240.8</ele><time>2026-04-26T13:15:10.999Z</time></trkpt><trkpt lat="43.362780820765664" lon="11.823558506750208"><ele>241.0</ele><time>2026-04-26T13:15:12.999Z</time></trkpt><trkpt lat="43.362762825081724" lon="11.82341921486212"><ele>241.4</ele><time>2026-04-26T13:15:14.999Z</time></trkpt><trkpt lat="43.36274363991446" lon="11.823278786451352"><ele>241.8</ele><time>2026-04-26T13:15:16.999Z</time></trkpt><trkpt lat="43.362723390155224" lon="11.82312711852617"><ele>242.20000000000002</ele><time>2026-04-26T13:15:18.999Z</time></trkpt><trkpt lat="43.36270608428112" lon="11.822986898141277"><ele>242.60000000000002</ele><time>2026-04-26T13:15:20.999Z</time></trkpt><trkpt lat="43.36269023596106" lon="11.822862138287244"><ele>243.0</ele><time>2026-04-26T13:15:22.999Z</time></trkpt><trkpt lat="43.36267135662889" lon="11.822717664254919"><ele>243.0</ele><time>2026-04-26T13:15:24.999Z</time></trkpt><trkpt lat="43.362650895627205" lon="11.822567902166634"><ele>243.0</ele><time>2026-04-26T13:15:26.999Z</time></trkpt><trkpt lat="43.362631206029526" lon="11.822423786288898"><ele>243.0</ele><time>2026-04-26T13:15:28.999Z</time></trkpt><trkpt lat="43.36261093171799" lon="11.822277728695399"><ele>243.0</ele><time>2026-04-26T13:15:30.999Z</time></trkpt><trkpt lat="43.36258871915867" lon="11.822120080024387"><ele>243.0</ele><time>2026-04-26T13:15:32.999Z</time></trkpt><trkpt lat="43.36256616119469" lon="11.821959979922822"><ele>242.75</ele><time>2026-04-26T13:15:35Z</time></trkpt><trkpt lat="43.362543984266296" lon="11.821802337072148"><ele>242.5</ele><time>2026-04-26T13:15:37Z</time></trkpt><trkpt lat="43.362524184947" lon="11.821649238028266"><ele>242.25</ele><time>2026-04-26T13:15:39Z</time></trkpt><trkpt lat="43.36250261246544" lon="11.821482427928418"><ele>242.0</ele><time>2026-04-26T13:15:41Z</time></trkpt><trkpt lat="43.362482379909906" lon="11.821325978873153"><ele>242.0</ele><time>2026-04-26T13:15:43Z</time></trkpt><trkpt lat="43.362470386353635" lon="11.821239893842847"><ele>242.0</ele><time>2026-04-26T13:15:44Z</time></trkpt><trkpt lat="43.36244867973646" lon="11.821093698855503"><ele>242.0</ele><time>2026-04-26T13:15:46Z</time></trkpt><trkpt lat="43.36242645603517" lon="11.820935879847417"><ele>242.0</ele><time>2026-04-26T13:15:48Z</time></trkpt><trkpt lat="43.36240783090426" lon="11.820805694309998"><ele>242.0</ele><time>2026-04-26T13:15:50Z</time></trkpt><trkpt lat="43.36240052652552" lon="11.820706254102953"><ele>242.0</ele><time>2026-04-26T13:15:51Z</time></trkpt><trkpt lat="43.36238741956665" lon="11.820618740631787"><ele>242.0</ele><time>2026-04-26T13:15:52Z</time></trkpt><trkpt lat="43.362363311887236" lon="11.820464281441822"><ele>242.0</ele><time>2026-04-26T13:15:54Z</time></trkpt><trkpt lat="43.36234092741705" lon="11.820299207592194"><ele>242.0</ele><time>2026-04-26T13:15:56Z</time></trkpt><trkpt lat="43.362328617547526" lon="11.820210425977697"><ele>242.0</ele><time>2026-04-26T13:15:57Z</time></trkpt><trkpt lat="43.36230673075329" lon="11.820048088909678"><ele>242.2</ele><time>2026-04-26T13:15:59Z</time></trkpt><trkpt lat="43.36228546151153" lon="11.819877523975647"><ele>242.39999999999998</ele><time>2026-04-26T13:16:01Z</time></trkpt><trkpt lat="43.36226479125917" lon="11.819711762532016"><ele>242.60000000000002</ele><time>2026-04-26T13:16:03Z</time></trkpt><trkpt lat="43.362243711000616" lon="11.819542713113794"><ele>242.8</ele><time>2026-04-26T13:16:05Z</time></trkpt><trkpt lat="43.36223259621817" lon="11.819453580077168"><ele>243.0</ele><time>2026-04-26T13:16:06Z</time></trkpt><trkpt lat="43.362220304836256" lon="11.81935999103486"><ele>243.4</ele><time>2026-04-26T13:16:07Z</time></trkpt><trkpt lat="43.36219611002518" lon="11.819180085935551"><ele>243.8</ele><time>2026-04-26T13:16:09Z</time></trkpt><trkpt lat="43.362171160406895" lon="11.819005279018471"><ele>244.2</ele><time>2026-04-26T13:16:11Z</time></trkpt><trkpt lat="43.36215867908291" lon="11.818917829913488"><ele>244.6</ele><time>2026-04-26T13:16:12Z</time></trkpt><trkpt lat="43.36214680875769" lon="11.818832346986833"><ele>245.0</ele><time>2026-04-26T13:16:13Z</time></trkpt><trkpt lat="43.36213537442765" lon="11.818746420365354"><ele>245.0</ele><time>2026-04-26T13:16:14Z</time></trkpt><trkpt lat="43.362110352072236" lon="11.8186621860861"><ele>245.0</ele><time>2026-04-26T13:16:15Z</time></trkpt><trkpt lat="43.362096182815094" lon="11.818570938854139"><ele>245.0</ele><time>2026-04-26T13:16:16Z</time></trkpt><trkpt lat="43.36209959705992" lon="11.818478190501603"><ele>245.0</ele><time>2026-04-26T13:16:17Z</time></trkpt><trkpt lat="43.36208646463864" lon="11.818387294782434"><ele>245.0</ele><time>2026-04-26T13:16:18Z</time></trkpt><trkpt lat="43.36205912720702" lon="11.818296793885503"><ele>245.0</ele><time>2026-04-26T13:16:19Z</time></trkpt><trkpt lat="43.362049119376714" lon="11.818201928811662"><ele>245.0</ele><time>2026-04-26T13:16:20Z</time></trkpt><trkpt lat="43.36202988409775" lon="11.818111436242512"><ele>245.0</ele><time>2026-04-26T13:16:21Z</time></trkpt><trkpt lat="43.362021482500396" lon="11.818017933227148"><ele>245.0</ele><time>2026-04-26T13:16:22Z</time></trkpt><trkpt lat="43.362009599735934" lon="11.81792892111447"><ele>245.0</ele><time>2026-04-26T13:16:23Z</time></trkpt><trkpt lat="43.361995517463676" lon="11.817831260528013"><ele>245.0</ele><time>2026-04-26T13:16:24Z</time></trkpt><trkpt lat="43.36198467082525" lon="11.817734093186697"><ele>245.0</ele><time>2026-04-26T13:16:25Z</time></trkpt><trkpt lat="43.36197750990609" lon="11.817639274923327"><ele>245.0</ele><time>2026-04-26T13:16:26Z</time></trkpt><trkpt lat="43.361964729344905" lon="11.817543216091506"><ele>245.0</ele><time>2026-04-26T13:16:27Z</time></trkpt><trkpt lat="43.36194990962679" lon="11.81745075834571"><ele>244.85714285714286</ele><time>2026-04-26T13:16:28Z</time></trkpt><trkpt lat="43.36193571594608" lon="11.817362613250747"><ele>244.71428571428572</ele><time>2026-04-26T13:16:29Z</time></trkpt><trkpt lat="43.361919937058495" lon="11.817264886165294"><ele>244.57142857142856</ele><time>2026-04-26T13:16:30Z</time></trkpt><trkpt lat="43.361906667389654" lon="11.817169891513862"><ele>244.42857142857142</ele><time>2026-04-26T13:16:31Z</time></trkpt><trkpt lat="43.36189497549938" lon="11.81707515287736"><ele>244.28571428571428</ele><time>2026-04-26T13:16:32Z</time></trkpt><trkpt lat="43.36188077518159" lon="11.816977779675597"><ele>244.1428571428571</ele><time>2026-04-26T13:16:33Z</time></trkpt><trkpt lat="43.361868201677495" lon="11.816890450807445"><ele>243.99999999999997</ele><time>2026-04-26T13:16:34Z</time></trkpt><trkpt lat="43.36185825614486" lon="11.816800128534712"><ele>243.99999999999997</ele><time>2026-04-26T13:16:35Z</time></trkpt><trkpt lat="43.36184895514222" lon="11.816712078875621"><ele>244.0</ele><time>2026-04-26T13:16:36Z</time></trkpt><trkpt lat="43.36183715500295" lon="11.816623317319367"><ele>244.0</ele><time>2026-04-26T13:16:37Z</time></trkpt><trkpt lat="43.36180547455114" lon="11.816460695363947"><ele>244.0</ele><time>2026-04-26T13:16:39Z</time></trkpt><trkpt lat="43.36179777981556" lon="11.816285903753231"><ele>243.99999999999997</ele><time>2026-04-26T13:16:41Z</time></trkpt><trkpt lat="43.361785424551485" lon="11.816197727296425"><ele>244.0</ele><time>2026-04-26T13:16:42Z</time></trkpt><trkpt lat="43.36177466758233" lon="11.816108030108785"><ele>243.99999999999997</ele><time>2026-04-26T13:16:43Z</time></trkpt><trkpt lat="43.361764992676186" lon="11.816018972900435"><ele>244.0</ele><time>2026-04-26T13:16:44Z</time></trkpt><trkpt lat="43.361754920504374" lon="11.815926258877155"><ele>244.0</ele><time>2026-04-26T13:16:45Z</time></trkpt><trkpt lat="43.3617443836766" lon="11.815835223363068"><ele>244.0</ele><time>2026-04-26T13:16:46Z</time></trkpt><trkpt lat="43.361733170909595" lon="11.815747344990585"><ele>243.99999999999997</ele><time>2026-04-26T13:16:47Z</time></trkpt><trkpt lat="43.361720440150364" lon="11.81566102945764"><ele>244.0</ele><time>2026-04-26T13:16:48Z</time></trkpt><trkpt lat="43.36169432237182" lon="11.81549312649756"><ele>244.2</ele><time>2026-04-26T13:16:50Z</time></trkpt><trkpt lat="43.36166380822253" lon="11.815332863863857"><ele>244.39999999999998</ele><time>2026-04-26T13:16:52Z</time></trkpt><trkpt lat="43.36162220207986" lon="11.815189143281156"><ele>244.6</ele><time>2026-04-26T13:16:54Z</time></trkpt><trkpt lat="43.36160645766472" lon="11.815047109546684"><ele>244.8</ele><time>2026-04-26T13:16:56Z</time></trkpt><trkpt lat="43.36162285148791" lon="11.814937596592252"><ele>245.0</ele><time>2026-04-26T13:16:58Z</time></trkpt><trkpt lat="43.36175055635262" lon="11.81491743935114"><ele>245.2</ele><time>2026-04-26T13:17:00Z</time></trkpt><trkpt lat="43.36185362283462" lon="11.814841303431383"><ele>245.4</ele><time>2026-04-26T13:17:02Z</time></trkpt><trkpt lat="43.36196792371246" lon="11.814792611284771"><ele>245.60000000000002</ele><time>2026-04-26T13:17:03.999Z</time></trkpt><trkpt lat="43.36208110568434" lon="11.814741109017053"><ele>245.8</ele><time>2026-04-26T13:17:05.999Z</time></trkpt><trkpt lat="43.362141583722675" lon="11.814713688342147"><ele>246.0</ele><time>2026-04-26T13:17:06.999Z</time></trkpt><trkpt lat="43.36220140058218" lon="11.81468609001509"><ele>245.66666666666666</ele><time>2026-04-26T13:17:07.999Z</time></trkpt><trkpt lat="43.362260361997635" lon="11.814654856808657"><ele>245.33333333333331</ele><time>2026-04-26T13:17:08.999Z</time></trkpt><trkpt lat="43.36232160437513" lon="11.814622747276882"><ele>245.0</ele><time>2026-04-26T13:17:09.999Z</time></trkpt><trkpt lat="43.36238679238094" lon="11.814606281988452"><ele>244.66666666666666</ele><time>2026-04-26T13:17:10.999Z</time></trkpt><trkpt lat="43.362450274657085" lon="11.814573014604024"><ele>244.33333333333331</ele><time>2026-04-26T13:17:11.999Z</time></trkpt><trkpt lat="43.36251371540162" lon="11.814539768984284"><ele>244.0</ele><time>2026-04-26T13:17:12.999Z</time></trkpt><trkpt lat="43.362623151360005" lon="11.814460243988133"><ele>244.0</ele><time>2026-04-26T13:17:14.999Z</time></trkpt><trkpt lat="43.36273506342533" lon="11.814412756339394"><ele>243.99999999999997</ele><time>2026-04-26T13:17:16.999Z</time></trkpt><trkpt lat="43.362841022173654" lon="11.81436287717558"><ele>243.99999999999997</ele><time>2026-04-26T13:17:18.999Z</time></trkpt><trkpt lat="43.362935750178124" lon="11.814314266389607"><ele>244.0</ele><time>2026-04-26T13:17:20.999Z</time></trkpt><trkpt lat="43.36301303126911" lon="11.814268853898303"><ele>244.0</ele><time>2026-04-26T13:17:22.999Z</time></trkpt><trkpt lat="43.36307577097925" lon="11.814229393369914"><ele>243.79999999999998</ele><time>2026-04-26T13:17:26.999Z</time></trkpt><trkpt lat="43.36311399745131" lon="11.814335715759533"><ele>243.59999999999997</ele><time>2026-04-26T13:17:31.999Z</time></trkpt><trkpt lat="43.36312289946731" lon="11.814463977874968"><ele>243.4</ele><time>2026-04-26T13:17:33.999Z</time></trkpt><trkpt lat="43.363150078885" lon="11.814592068259405"><ele>243.2</ele><time>2026-04-26T13:17:35.999Z</time></trkpt><trkpt lat="43.363166291587056" lon="11.814726521875372"><ele>243.0</ele><time>2026-04-26T13:17:37.999Z</time></trkpt><trkpt lat="43.3631829981882" lon="11.814856867163119"><ele>243.0</ele><time>2026-04-26T13:17:39.999Z</time></trkpt><trkpt lat="43.36320436706408" lon="11.81499816467968"><ele>243.0</ele><time>2026-04-26T13:17:42Z</time></trkpt><trkpt lat="43.363220163297925" lon="11.815137768952285"><ele>243.0</ele><time>2026-04-26T13:17:44Z</time></trkpt><trkpt lat="43.3632342828726" lon="11.815267420765325"><ele>243.0</ele><time>2026-04-26T13:17:46Z</time></trkpt><trkpt lat="43.36324730995904" lon="11.815395012150336"><ele>243.0</ele><time>2026-04-26T13:17:48Z</time></trkpt><trkpt lat="43.36329216671756" lon="11.815487197346194"><ele>243.2</ele><time>2026-04-26T13:17:50Z</time></trkpt><trkpt lat="43.36338476303808" lon="11.815501929368262"><ele>243.4</ele><time>2026-04-26T13:17:52Z</time></trkpt><trkpt lat="43.36348185819461" lon="11.815470702158162"><ele>243.59999999999997</ele><time>2026-04-26T13:17:54Z</time></trkpt><trkpt lat="43.363576329554725" lon="11.815477383059388"><ele>243.79999999999998</ele><time>2026-04-26T13:17:56Z</time></trkpt><trkpt lat="43.363675297308134" lon="11.815463561734525"><ele>244.0</ele><time>2026-04-26T13:17:58Z</time></trkpt><trkpt lat="43.36377128432619" lon="11.815462993177091"><ele>244.0</ele><time>2026-04-26T13:18:00Z</time></trkpt><trkpt lat="43.363866539455366" lon="11.81546886254954"><ele>243.99999999999997</ele><time>2026-04-26T13:18:02Z</time></trkpt><trkpt lat="43.36397260701181" lon="11.815461808938252"><ele>243.99999999999997</ele><time>2026-04-26T13:18:04Z</time></trkpt><trkpt lat="43.36407666780392" lon="11.815457931017944"><ele>244.0</ele><time>2026-04-26T13:18:06Z</time></trkpt><trkpt lat="43.36418683528609" lon="11.815455980390706"><ele>244.0</ele><time>2026-04-26T13:18:08Z</time></trkpt><trkpt lat="43.36428738274752" lon="11.815457090775396"><ele>244.0</ele><time>2026-04-26T13:18:10Z</time></trkpt><trkpt lat="43.36440090007602" lon="11.815451285666315"><ele>244.0</ele><time>2026-04-26T13:18:12Z</time></trkpt><trkpt lat="43.36451283806016" lon="11.815447531158467"><ele>244.0</ele><time>2026-04-26T13:18:14Z</time></trkpt><trkpt lat="43.36463022322236" lon="11.815441264906433"><ele>244.0</ele><time>2026-04-26T13:18:16Z</time></trkpt><trkpt lat="43.36473947749484" lon="11.815447202570718"><ele>243.99999999999997</ele><time>2026-04-26T13:18:18Z</time></trkpt><trkpt lat="43.36483792172785" lon="11.81543753812519"><ele>244.0</ele><time>2026-04-26T13:18:20Z</time></trkpt><trkpt lat="43.36492794674626" lon="11.815439227693448"><ele>244.0</ele><time>2026-04-26T13:18:22Z</time></trkpt><trkpt lat="43.36500523683897" lon="11.815429678857166"><ele>244.0</ele><time>2026-04-26T13:18:24Z</time></trkpt><trkpt lat="43.36506810264886" lon="11.81548579752716"><ele>243.99999999999997</ele><time>2026-04-26T13:18:28Z</time></trkpt><trkpt lat="43.36513038732561" lon="11.815565523343576"><ele>244.0</ele><time>2026-04-26T13:18:33Z</time></trkpt><trkpt lat="43.36517639542802" lon="11.81567280266594"><ele>243.99999999999997</ele><time>2026-04-26T13:18:36Z</time></trkpt><trkpt lat="43.36522069588908" lon="11.815785102613415"><ele>244.0</ele><time>2026-04-26T13:18:39Z</time></trkpt><trkpt lat="43.36525551411435" lon="11.815873762311481"><ele>244.0</ele><time>2026-04-26T13:18:41Z</time></trkpt><trkpt lat="43.365295044952965" lon="11.815972921555153"><ele>244.0</ele><time>2026-04-26T13:18:43Z</time></trkpt><trkpt lat="43.365337452916364" lon="11.81607760397495"><ele>243.99999999999997</ele><time>2026-04-26T13:18:45Z</time></trkpt><trkpt lat="43.36537778662117" lon="11.816180188945653"><ele>244.0</ele><time>2026-04-26T13:18:47Z</time></trkpt><trkpt lat="43.36542024768685" lon="11.816282258069805"><ele>243.99999999999997</ele><time>2026-04-26T13:18:49Z</time></trkpt><trkpt lat="43.36545712954747" lon="11.816369313979099"><ele>244.0</ele><time>2026-04-26T13:18:51Z</time></trkpt><trkpt lat="43.365494630867985" lon="11.81645415149946"><ele>244.0</ele><time>2026-04-26T13:18:53Z</time></trkpt><trkpt lat="43.36553305102698" lon="11.81655001968583"><ele>244.0</ele><time>2026-04-26T13:18:55Z</time></trkpt><trkpt lat="43.36556988754097" lon="11.816640756216911"><ele>243.99999999999997</ele><time>2026-04-26T13:18:58Z</time></trkpt><trkpt lat="43.365585716776636" lon="11.816732873558486"><ele>244.0</ele><time>2026-04-26T13:19:01Z</time></trkpt><trkpt lat="43.365636661863626" lon="11.816842746804973"><ele>243.99999999999997</ele><time>2026-04-26T13:19:04Z</time></trkpt><trkpt lat="43.36567252756676" lon="11.816922558968145"><ele>244.0</ele><time>2026-04-26T13:19:06Z</time></trkpt><trkpt lat="43.365709778248714" lon="11.81700830121467"><ele>243.99999999999997</ele><time>2026-04-26T13:19:08Z</time></trkpt><trkpt lat="43.36574031903193" lon="11.81709514387564"><ele>243.99999999999997</ele><time>2026-04-26T13:19:10Z</time></trkpt><trkpt lat="43.365773601855786" lon="11.817168930748709"><ele>244.0</ele><time>2026-04-26T13:19:13Z</time></trkpt><trkpt lat="43.365829492930715" lon="11.817249167325615"><ele>243.99999999999997</ele><time>2026-04-26T13:19:16Z</time></trkpt><trkpt lat="43.36589139594682" lon="11.817285047151017"><ele>243.99999999999997</ele><time>2026-04-26T13:19:18Z</time></trkpt><trkpt lat="43.36596031382177" lon="11.817312037816954"><ele>243.99999999999997</ele><time>2026-04-26T13:19:20Z</time></trkpt><trkpt lat="43.366041721159334" lon="11.81732944403249"><ele>244.0</ele><time>2026-04-26T13:19:22Z</time></trkpt><trkpt lat="43.366127804460056" lon="11.817348384293227"><ele>244.0</ele><time>2026-04-26T13:19:24Z</time></trkpt><trkpt lat="43.36620715439845" lon="11.81735881953275"><ele>244.0</ele><time>2026-04-26T13:19:25.999Z</time></trkpt><trkpt lat="43.36629910509565" lon="11.81737698153864"><ele>243.99999999999997</ele><time>2026-04-26T13:19:28.999Z</time></trkpt><trkpt lat="43.36637265351216" lon="11.81738727754176"><ele>244.0</ele><time>2026-04-26T13:19:30.999Z</time></trkpt><trkpt lat="43.36644124250715" lon="11.8174004914678"><ele>243.99999999999997</ele><time>2026-04-26T13:19:32.999Z</time></trkpt><trkpt lat="43.36651752469178" lon="11.817418064367297"><ele>244.0</ele><time>2026-04-26T13:19:34.999Z</time></trkpt><trkpt lat="43.36660280873171" lon="11.817427546385368"><ele>244.0</ele><time>2026-04-26T13:19:37.999Z</time></trkpt><trkpt lat="43.366693163597134" lon="11.817422766220222"><ele>244.0</ele><time>2026-04-26T13:19:40.999Z</time></trkpt><trkpt lat="43.36675969750584" lon="11.817430743794398"><ele>243.99999999999997</ele><time>2026-04-26T13:19:42.999Z</time></trkpt><trkpt lat="43.36683035611079" lon="11.81743895143954"><ele>244.0</ele><time>2026-04-26T13:19:44.999Z</time></trkpt><trkpt lat="43.366898548242" lon="11.817452440136865"><ele>243.99999999999997</ele><time>2026-04-26T13:19:47Z</time></trkpt><trkpt lat="43.36697420866285" lon="11.81746356359716"><ele>244.0</ele><time>2026-04-26T13:19:49Z</time></trkpt><trkpt lat="43.36704684033606" lon="11.817469288537715"><ele>244.0</ele><time>2026-04-26T13:19:51Z</time></trkpt><trkpt lat="43.36713121942394" lon="11.81747709525952"><ele>244.0</ele><time>2026-04-26T13:19:54Z</time></trkpt><trkpt lat="43.36719682001142" lon="11.817498636686025"><ele>243.99999999999997</ele><time>2026-04-26T13:19:57Z</time></trkpt><trkpt lat="43.36727297859269" lon="11.81750632788771"><ele>244.0</ele><time>2026-04-26T13:19:59Z</time></trkpt><trkpt lat="43.36734703749957" lon="11.817517562054281"><ele>244.0</ele><time>2026-04-26T13:20:01Z</time></trkpt><trkpt lat="43.367438010962864" lon="11.817523494704522"><ele>243.99999999999997</ele><time>2026-04-26T13:20:03Z</time></trkpt><trkpt lat="43.36753992447887" lon="11.81754017329612"><ele>243.99999999999997</ele><time>2026-04-26T13:20:05Z</time></trkpt><trkpt lat="43.36765332465301" lon="11.817551951480032"><ele>244.0</ele><time>2026-04-26T13:20:07Z</time></trkpt><trkpt lat="43.36776123292537" lon="11.817571052754657"><ele>244.0</ele><time>2026-04-26T13:20:09Z</time></trkpt><trkpt lat="43.36787004920557" lon="11.81758410908854"><ele>244.0</ele><time>2026-04-26T13:20:11Z</time></trkpt><trkpt lat="43.367980332975144" lon="11.817595002178765"><ele>243.99999999999997</ele><time>2026-04-26T13:20:13Z</time></trkpt><trkpt lat="43.368089576319505" lon="11.817611831679882"><ele>243.99999999999997</ele><time>2026-04-26T13:20:15Z</time></trkpt><trkpt lat="43.368191970942625" lon="11.817624237710003"><ele>244.0</ele><time>2026-04-26T13:20:17Z</time></trkpt><trkpt lat="43.36830163641946" lon="11.817639655696732"><ele>244.0</ele><time>2026-04-26T13:20:19Z</time></trkpt><trkpt lat="43.36841113818239" lon="11.817649542472202"><ele>243.79999999999998</ele><time>2026-04-26T13:20:21Z</time></trkpt><trkpt lat="43.368522414136244" lon="11.817660676596443"><ele>243.59999999999997</ele><time>2026-04-26T13:20:23Z</time></trkpt><trkpt lat="43.368632443160124" lon="11.817666352076278"><ele>243.4</ele><time>2026-04-26T13:20:25Z</time></trkpt><trkpt lat="43.368733754129025" lon="11.817683213725763"><ele>243.2</ele><time>2026-04-26T13:20:27Z</time></trkpt><trkpt lat="43.36881494077673" lon="11.817690919097442"><ele>243.0</ele><time>2026-04-26T13:20:29Z</time></trkpt><trkpt lat="43.36891532628988" lon="11.81770785331255"><ele>242.8</ele><time>2026-04-26T13:20:32Z</time></trkpt><trkpt lat="43.36900013183332" lon="11.817714303867714"><ele>242.60000000000002</ele><time>2026-04-26T13:20:34Z</time></trkpt><trkpt lat="43.36909269022259" lon="11.81771699297422"><ele>242.39999999999998</ele><time>2026-04-26T13:20:36Z</time></trkpt><trkpt lat="43.36917934274652" lon="11.817732947861344"><ele>242.2</ele><time>2026-04-26T13:20:38Z</time></trkpt><trkpt lat="43.3692667609881" lon="11.81774764229783"><ele>242.0</ele><time>2026-04-26T13:20:40Z</time></trkpt><trkpt lat="43.36936875287369" lon="11.817756847369884"><ele>242.0</ele><time>2026-04-26T13:20:42Z</time></trkpt><trkpt lat="43.369477073620786" lon="11.817765985527716"><ele>242.0</ele><time>2026-04-26T13:20:44Z</time></trkpt><trkpt lat="43.36959671323449" lon="11.817771129595709"><ele>242.0</ele><time>2026-04-26T13:20:46Z</time></trkpt><trkpt lat="43.36971067424721" lon="11.817758450595775"><ele>242.0</ele><time>2026-04-26T13:20:48Z</time></trkpt><trkpt lat="43.36981152331511" lon="11.8177133626357"><ele>242.0</ele><time>2026-04-26T13:20:50Z</time></trkpt><trkpt lat="43.369881424346524" lon="11.817613882578753"><ele>242.25</ele><time>2026-04-26T13:20:52Z</time></trkpt><trkpt lat="43.3699182556002" lon="11.817465342453314"><ele>242.5</ele><time>2026-04-26T13:20:54Z</time></trkpt><trkpt lat="43.36996790709846" lon="11.817305482433964"><ele>242.75</ele><time>2026-04-26T13:20:56Z</time></trkpt><trkpt lat="43.370026329667965" lon="11.8171579092103"><ele>243.0</ele><time>2026-04-26T13:20:58Z</time></trkpt><trkpt lat="43.37007577574853" lon="11.817008354357245"><ele>243.0</ele><time>2026-04-26T13:21:00Z</time></trkpt><trkpt lat="43.37012675097849" lon="11.816853626994105"><ele>243.0</ele><time>2026-04-26T13:21:02Z</time></trkpt><trkpt lat="43.370154708311595" lon="11.816774622173696"><ele>243.0</ele><time>2026-04-26T13:21:03Z</time></trkpt><trkpt lat="43.370204686945584" lon="11.816626271987356"><ele>243.0</ele><time>2026-04-26T13:21:05Z</time></trkpt><trkpt lat="43.370249808078725" lon="11.816476959731428"><ele>243.0</ele><time>2026-04-26T13:21:07Z</time></trkpt><trkpt lat="43.370283606330716" lon="11.816394359118622"><ele>243.0</ele><time>2026-04-26T13:21:08Z</time></trkpt><trkpt lat="43.37033744959602" lon="11.816260678977772"><ele>243.0</ele><time>2026-04-26T13:21:10Z</time></trkpt><trkpt lat="43.37037468936191" lon="11.816144533324069"><ele>243.0</ele><time>2026-04-26T13:21:12Z</time></trkpt><trkpt lat="43.37042006295075" lon="11.81600823924066"><ele>243.0</ele><time>2026-04-26T13:21:14Z</time></trkpt><trkpt lat="43.37045413903935" lon="11.81588643779681"><ele>243.0</ele><time>2026-04-26T13:21:16Z</time></trkpt><trkpt lat="43.37047764476179" lon="11.81576397414629"><ele>243.0</ele><time>2026-04-26T13:21:18Z</time></trkpt><trkpt lat="43.37051539173458" lon="11.815630821001026"><ele>243.0</ele><time>2026-04-26T13:21:20Z</time></trkpt><trkpt lat="43.37053534612329" lon="11.815490629789801"><ele>243.0</ele><time>2026-04-26T13:21:22Z</time></trkpt><trkpt lat="43.370527611975575" lon="11.815340722990868"><ele>243.0</ele><time>2026-04-26T13:21:24Z</time></trkpt><trkpt lat="43.37051546987171" lon="11.815182240565534"><ele>243.0</ele><time>2026-04-26T13:21:26Z</time></trkpt><trkpt lat="43.370518858336794" lon="11.815047267627152"><ele>243.0</ele><time>2026-04-26T13:21:28Z</time></trkpt><trkpt lat="43.37052098166439" lon="11.814925234647633"><ele>243.0</ele><time>2026-04-26T13:21:30Z</time></trkpt><trkpt lat="43.37052774506969" lon="11.81480510761624"><ele>243.0</ele><time>2026-04-26T13:21:32Z</time></trkpt><trkpt lat="43.37052691354628" lon="11.814681894722963"><ele>243.0</ele><time>2026-04-26T13:21:34Z</time></trkpt><trkpt lat="43.370519645447" lon="11.814547571989197"><ele>243.0</ele><time>2026-04-26T13:21:36Z</time></trkpt><trkpt lat="43.37052047780209" lon="11.81445030053727"><ele>243.0</ele><time>2026-04-26T13:21:37.999Z</time></trkpt><trkpt lat="43.370523843606485" lon="11.814359162170955"><ele>243.16666666666666</ele><time>2026-04-26T13:21:39.999Z</time></trkpt><trkpt lat="43.37051191404823" lon="11.814252826518869"><ele>243.33333333333331</ele><time>2026-04-26T13:21:42.999Z</time></trkpt><trkpt lat="43.37050734873255" lon="11.814138051094291"><ele>243.5</ele><time>2026-04-26T13:22:03Z</time></trkpt><trkpt lat="43.37055011318346" lon="11.814070710098305"><ele>243.66666666666666</ele><time>2026-04-26T13:22:06Z</time></trkpt><trkpt lat="43.37063737417344" lon="11.814051675452179"><ele>243.83333333333331</ele><time>2026-04-26T13:22:09Z</time></trkpt><trkpt lat="43.37070987936395" lon="11.814031679396159"><ele>244.0</ele><time>2026-04-26T13:22:11Z</time></trkpt><trkpt lat="43.370785341375495" lon="11.814018103119512"><ele>243.99999999999997</ele><time>2026-04-26T13:22:13Z</time></trkpt><trkpt lat="43.37086354407667" lon="11.81400077295062"><ele>244.0</ele><time>2026-04-26T13:22:16Z</time></trkpt><trkpt lat="43.3709524653131" lon="11.813958105342294"><ele>244.0</ele><time>2026-04-26T13:22:19Z</time></trkpt><trkpt lat="43.37098941081767" lon="11.813884200709637"><ele>244.0</ele><time>2026-04-26T13:22:21Z</time></trkpt><trkpt lat="43.37099019401336" lon="11.813779420953274"><ele>243.99999999999997</ele><time>2026-04-26T13:22:23Z</time></trkpt><trkpt lat="43.37098580303237" lon="11.81369077678626"><ele>244.0</ele><time>2026-04-26T13:22:25Z</time></trkpt><trkpt lat="43.37103219108563" lon="11.813609055879924"><ele>243.99999999999997</ele><time>2026-04-26T13:22:29Z</time></trkpt><trkpt lat="43.37109452785751" lon="11.813623143318864"><ele>244.0</ele><time>2026-04-26T13:22:31Z</time></trkpt><trkpt lat="43.37116744381108" lon="11.813674709421335"><ele>243.99999999999997</ele><time>2026-04-26T13:22:34Z</time></trkpt><trkpt lat="43.37123515926408" lon="11.813711047183661"><ele>243.99999999999997</ele><time>2026-04-26T13:22:36Z</time></trkpt><trkpt lat="43.37131083014086" lon="11.813745799796324"><ele>244.0</ele><time>2026-04-26T13:22:39Z</time></trkpt><trkpt lat="43.3713680241817" lon="11.813782941600255"><ele>243.99999999999997</ele><time>2026-04-26T13:22:41Z</time></trkpt><trkpt lat="43.371422244633614" lon="11.813831052693262"><ele>243.99999999999997</ele><time>2026-04-26T13:22:43Z</time></trkpt><trkpt lat="43.37148388309203" lon="11.813870307599077"><ele>243.83333333333331</ele><time>2026-04-26T13:22:45Z</time></trkpt><trkpt lat="43.371550274797556" lon="11.813924436304582"><ele>243.66666666666666</ele><time>2026-04-26T13:22:48Z</time></trkpt><trkpt lat="43.37162254759931" lon="11.813966238977503"><ele>243.5</ele><time>2026-04-26T13:22:51Z</time></trkpt><trkpt lat="43.37168691249806" lon="11.814005667618682"><ele>243.33333333333331</ele><time>2026-04-26T13:22:54Z</time></trkpt><trkpt lat="43.37176489167998" lon="11.814058107137397"><ele>243.16666666666666</ele><time>2026-04-26T13:22:57Z</time></trkpt><trkpt lat="43.371698533365446" lon="11.814029119287563"><ele>243.0</ele><time>2026-04-26T13:23:03Z</time></trkpt><trkpt lat="43.37161991658278" lon="11.813968757634182"><ele>243.0</ele><time>2026-04-26T13:23:06Z</time></trkpt><trkpt lat="43.3715589999975" lon="11.813935299738292"><ele>243.0</ele><time>2026-04-26T13:23:08Z</time></trkpt><trkpt lat="43.371477567903625" lon="11.813872813294008"><ele>243.0</ele><time>2026-04-26T13:23:11Z</time></trkpt><trkpt lat="43.37137505716558" lon="11.813795368762234"><ele>243.0</ele><time>2026-04-26T13:23:14Z</time></trkpt><trkpt lat="43.37129051687381" lon="11.81373888654105"><ele>243.0</ele><time>2026-04-26T13:23:16Z</time></trkpt><trkpt lat="43.37120630756508" lon="11.813696528000133"><ele>243.14285714285714</ele><time>2026-04-26T13:23:18Z</time></trkpt><trkpt lat="43.37112233534164" lon="11.81365506053326"><ele>243.28571428571428</ele><time>2026-04-26T13:23:20Z</time></trkpt><trkpt lat="43.37105094071967" lon="11.81362979908918"><ele>243.42857142857142</ele><time>2026-04-26T13:23:22Z</time></trkpt><trkpt lat="43.37098418604585" lon="11.813680685223575"><ele>243.57142857142856</ele><time>2026-04-26T13:23:25Z</time></trkpt><trkpt lat="43.370967809276586" lon="11.813782980412501"><ele>243.71428571428572</ele><time>2026-04-26T13:23:27Z</time></trkpt><trkpt lat="43.37095745198506" lon="11.813871950317298"><ele>243.85714285714283</ele><time>2026-04-26T13:23:29Z</time></trkpt><trkpt lat="43.37095821566728" lon="11.813959318465457"><ele>243.99999999999997</ele><time>2026-04-26T13:23:33Z</time></trkpt><trkpt lat="43.37089158531753" lon="11.813991737564606"><ele>243.99999999999997</ele><time>2026-04-26T13:23:37Z</time></trkpt><trkpt lat="43.37082801483151" lon="11.814009588272263"><ele>244.0</ele><time>2026-04-26T13:23:40Z</time></trkpt><trkpt lat="43.370733531708865" lon="11.814020453711814"><ele>244.0</ele><time>2026-04-26T13:23:42Z</time></trkpt><trkpt lat="43.37063953103783" lon="11.814033219006438"><ele>244.0</ele><time>2026-04-26T13:23:45Z</time></trkpt><trkpt lat="43.37056433154677" lon="11.814066160714185"><ele>243.99999999999997</ele><time>2026-04-26T13:23:48.999Z</time></trkpt><trkpt lat="43.37051316873498" lon="11.814128776315485"><ele>244.0</ele><time>2026-04-26T13:23:51.999Z</time></trkpt><trkpt lat="43.37049899198064" lon="11.814221723763106"><ele>244.28571428571425</ele><time>2026-04-26T13:23:54.999Z</time></trkpt><trkpt lat="43.37043797852347" lon="11.81426466553192"><ele>244.57142857142856</ele><time>2026-04-26T13:24:16.999Z</time></trkpt><trkpt lat="43.370375105622244" lon="11.814254990785601"><ele>244.85714285714286</ele><time>2026-04-26T13:25:03.999Z</time></trkpt><trkpt lat="43.37030416407644" lon="11.814256409657064"><ele>245.14285714285714</ele><time>2026-04-26T13:25:10.999Z</time></trkpt><trkpt lat="43.37023639537764" lon="11.814258271460556"><ele>245.42857142857144</ele><time>2026-04-26T13:25:16.999Z</time></trkpt><trkpt lat="43.370170521346594" lon="11.81426766598838"><ele>245.71428571428575</ele><time>2026-04-26T13:25:23.999Z</time></trkpt><trkpt lat="43.37010725450373" lon="11.814269631652694"><ele>246.00000000000003</ele><time>2026-04-26T13:25:48.999Z</time></trkpt><trkpt lat="43.37003809388569" lon="11.814280983317266"><ele>246.0</ele><time>2026-04-26T13:25:54.999Z</time></trkpt><trkpt lat="43.369969621319875" lon="11.81430095113006"><ele>246.0</ele><time>2026-04-26T13:25:59.999Z</time></trkpt><trkpt lat="43.369892604199286" lon="11.8143076440965"><ele>246.0</ele><time>2026-04-26T13:26:06.999Z</time></trkpt><trkpt lat="43.369815252472954" lon="11.814314895630186"><ele>246.0</ele><time>2026-04-26T13:26:12.999Z</time></trkpt><trkpt lat="43.36975002389911" lon="11.814313057087018"><ele>246.0</ele><time>2026-04-26T13:26:17.999Z</time></trkpt><trkpt lat="43.3696762877257" lon="11.814330209253509"><ele>246.0</ele><time>2026-04-26T13:26:34.999Z</time></trkpt><trkpt lat="43.3695838451314" lon="11.814334314649626"><ele>245.5714285714286</ele><time>2026-04-26T13:26:57.999Z</time></trkpt><trkpt lat="43.369513926530864" lon="11.814335600176058"><ele>245.14285714285717</ele><time>2026-04-26T13:27:18.999Z</time></trkpt><trkpt lat="43.369447032043546" lon="11.814342357247384"><ele>244.71428571428572</ele><time>2026-04-26T13:27:25.999Z</time></trkpt><trkpt lat="43.36938274921268" lon="11.814363652920074"><ele>244.2857142857143</ele><time>2026-04-26T13:27:31.999Z</time></trkpt><trkpt lat="43.36931968555505" lon="11.81438845918544"><ele>243.8571428571429</ele><time>2026-04-26T13:27:37.999Z</time></trkpt><trkpt lat="43.36925300486805" lon="11.814381770096821"><ele>243.42857142857142</ele><time>2026-04-26T13:27:53.999Z</time></trkpt><trkpt lat="43.369184667755114" lon="11.814386424987855"><ele>243.0</ele><time>2026-04-26T13:27:59.999Z</time></trkpt><trkpt lat="43.36911894188935" lon="11.814387669567022"><ele>243.0</ele><time>2026-04-26T13:28:04.999Z</time></trkpt><trkpt lat="43.3690496719178" lon="11.814399428580401"><ele>243.0</ele><time>2026-04-26T13:28:11Z</time></trkpt><trkpt lat="43.3689841554971" lon="11.814408677464698"><ele>243.0</ele><time>2026-04-26T13:28:17Z</time></trkpt><trkpt lat="43.368921806500175" lon="11.814421626854978"><ele>243.0</ele><time>2026-04-26T13:28:22Z</time></trkpt><trkpt lat="43.36885505530082" lon="11.814428167403793"><ele>243.0</ele><time>2026-04-26T13:28:28Z</time></trkpt><trkpt lat="43.36880284383451" lon="11.814484196756352"><ele>243.0</ele><time>2026-04-26T13:28:32Z</time></trkpt><trkpt lat="43.36876476256563" lon="11.81437177392429"><ele>243.0</ele><time>2026-04-26T13:28:49.999Z</time></trkpt><trkpt lat="43.368736756654336" lon="11.814263390323756"><ele>243.33333333333334</ele><time>2026-04-26T13:28:52.999Z</time></trkpt><trkpt lat="43.368712276496886" lon="11.814173497287275"><ele>243.66666666666669</ele><time>2026-04-26T13:28:54.999Z</time></trkpt><trkpt lat="43.36868323201563" lon="11.8140798127272"><ele>244.0</ele><time>2026-04-26T13:28:56.999Z</time></trkpt><trkpt lat="43.36864601570248" lon="11.813979441624081"><ele>244.33333333333334</ele><time>2026-04-26T13:28:58.999Z</time></trkpt><trkpt lat="43.36858905137842" lon="11.813885482559652"><ele>244.66666666666669</ele><time>2026-04-26T13:29:00.999Z</time></trkpt><trkpt lat="43.36850623726197" lon="11.81381828171825"><ele>245.0</ele><time>2026-04-26T13:29:02.999Z</time></trkpt><trkpt lat="43.368417147203225" lon="11.813741691454224"><ele>245.0</ele><time>2026-04-26T13:29:04.999Z</time></trkpt><trkpt lat="43.36832185827432" lon="11.81366800582315"><ele>245.0</ele><time>2026-04-26T13:29:06.999Z</time></trkpt><trkpt lat="43.368226143812066" lon="11.813593283516262"><ele>245.0</ele><time>2026-04-26T13:29:08.999Z</time></trkpt><trkpt lat="43.36817066639915" lon="11.813548531704985"><ele>245.0</ele><time>2026-04-26T13:29:10.999Z</time></trkpt><trkpt lat="43.36810087721875" lon="11.813476739494575"><ele>245.0</ele><time>2026-04-26T13:29:11.999Z</time></trkpt><trkpt lat="43.3680077378716" lon="11.813386423016073"><ele>245.5</ele><time>2026-04-26T13:29:13.999Z</time></trkpt><trkpt lat="43.36792158481772" lon="11.813276446728127"><ele>246.0</ele><time>2026-04-26T13:29:15.999Z</time></trkpt><trkpt lat="43.36784351746227" lon="11.813159021675514"><ele>246.5</ele><time>2026-04-26T13:29:17.999Z</time></trkpt><trkpt lat="43.36778906560215" lon="11.813014597833126"><ele>247.0</ele><time>2026-04-26T13:29:19.999Z</time></trkpt><trkpt lat="43.36774622316588" lon="11.812874020988302"><ele>246.99999999999997</ele><time>2026-04-26T13:29:21.999Z</time></trkpt><trkpt lat="43.36771073641766" lon="11.812720605051465"><ele>247.0</ele><time>2026-04-26T13:29:23.999Z</time></trkpt><trkpt lat="43.367687846113576" lon="11.812637327063484"><ele>247.0</ele><time>2026-04-26T13:29:24.999Z</time></trkpt><trkpt lat="43.36766508727145" lon="11.812543534897747"><ele>247.0</ele><time>2026-04-26T13:29:25.999Z</time></trkpt><trkpt lat="43.36764343427711" lon="11.812454834623392"><ele>246.99999999999997</ele><time>2026-04-26T13:29:26.999Z</time></trkpt><trkpt lat="43.36763554288246" lon="11.812361095852632"><ele>247.0</ele><time>2026-04-26T13:29:27.999Z</time></trkpt><trkpt lat="43.36761359528324" lon="11.812273548412303"><ele>247.0</ele><time>2026-04-26T13:29:28.999Z</time></trkpt><trkpt lat="43.36759172072552" lon="11.812186292315705"><ele>247.0</ele><time>2026-04-26T13:29:29.999Z</time></trkpt><trkpt lat="43.36757081207677" lon="11.812101041926386"><ele>247.0</ele><time>2026-04-26T13:29:30.999Z</time></trkpt><trkpt lat="43.36754888823322" lon="11.812010535806213"><ele>247.0</ele><time>2026-04-26T13:29:31.999Z</time></trkpt><trkpt lat="43.367513362414606" lon="11.811929218251372"><ele>247.0</ele><time>2026-04-26T13:29:32.999Z</time></trkpt><trkpt lat="43.367495467398804" lon="11.811837670239449"><ele>247.0</ele><time>2026-04-26T13:29:33.999Z</time></trkpt><trkpt lat="43.367473561074675" lon="11.811741723388122"><ele>247.0</ele><time>2026-04-26T13:29:34.999Z</time></trkpt><trkpt lat="43.36746727109286" lon="11.811641838890656"><ele>247.0</ele><time>2026-04-26T13:29:35.999Z</time></trkpt><trkpt lat="43.36742968221878" lon="11.81154492070692"><ele>247.0</ele><time>2026-04-26T13:29:36.999Z</time></trkpt><trkpt lat="43.367410730899195" lon="11.81144807609641"><ele>247.0</ele><time>2026-04-26T13:29:37.999Z</time></trkpt><trkpt lat="43.36739222797755" lon="11.811347759981084"><ele>247.0</ele><time>2026-04-26T13:29:38.999Z</time></trkpt><trkpt lat="43.36736976773023" lon="11.811245979674963"><ele>247.0</ele><time>2026-04-26T13:29:39.999Z</time></trkpt><trkpt lat="43.36736570613659" lon="11.811149248318317"><ele>247.0</ele><time>2026-04-26T13:29:40.999Z</time></trkpt><trkpt lat="43.36734716174062" lon="11.811054754475608"><ele>247.0</ele><time>2026-04-26T13:29:41.999Z</time></trkpt><trkpt lat="43.36732799174408" lon="11.810970209856896"><ele>247.0</ele><time>2026-04-26T13:29:42.999Z</time></trkpt><trkpt lat="43.367307828123124" lon="11.810881283113881"><ele>247.0</ele><time>2026-04-26T13:29:43.999Z</time></trkpt><trkpt lat="43.36727009357135" lon="11.810795081022471"><ele>247.0</ele><time>2026-04-26T13:29:44.999Z</time></trkpt><trkpt lat="43.36725003170024" lon="11.81069758916318"><ele>247.0</ele><time>2026-04-26T13:29:45.999Z</time></trkpt><trkpt lat="43.36724289354788" lon="11.810608558092401"><ele>247.0</ele><time>2026-04-26T13:29:46.999Z</time></trkpt><trkpt lat="43.367220572829865" lon="11.810521894614638"><ele>247.0</ele><time>2026-04-26T13:29:47.999Z</time></trkpt><trkpt lat="43.367197172815786" lon="11.810439029223021"><ele>247.0</ele><time>2026-04-26T13:29:48.999Z</time></trkpt><trkpt lat="43.36714806526643" lon="11.810285951749705"><ele>246.8</ele><time>2026-04-26T13:29:50.999Z</time></trkpt><trkpt lat="43.367097871149156" lon="11.810138966871326"><ele>246.6</ele><time>2026-04-26T13:29:52.999Z</time></trkpt><trkpt lat="43.36706430366772" lon="11.809983989394434"><ele>246.40000000000003</ele><time>2026-04-26T13:29:54.999Z</time></trkpt><trkpt lat="43.367028572604035" lon="11.809823529717297"><ele>246.20000000000002</ele><time>2026-04-26T13:29:56.999Z</time></trkpt><trkpt lat="43.36701111617276" lon="11.80973468893595"><ele>246.0</ele><time>2026-04-26T13:29:57.999Z</time></trkpt><trkpt lat="43.36698749253071" lon="11.80956525016325"><ele>246.0</ele><time>2026-04-26T13:29:59.999Z</time></trkpt><trkpt lat="43.36696689317869" lon="11.809388791642437"><ele>246.0</ele><time>2026-04-26T13:30:01.999Z</time></trkpt><trkpt lat="43.36695760424181" lon="11.809300160987654"><ele>246.0</ele><time>2026-04-26T13:30:02.999Z</time></trkpt><trkpt lat="43.366948128795464" lon="11.809209504010864"><ele>246.0</ele><time>2026-04-26T13:30:03.999Z</time></trkpt><trkpt lat="43.36693973219322" lon="11.809118374808468"><ele>246.0</ele><time>2026-04-26T13:30:04.999Z</time></trkpt><trkpt lat="43.36693178655941" lon="11.809028697211152"><ele>246.0</ele><time>2026-04-26T13:30:05.999Z</time></trkpt><trkpt lat="43.36692499524776" lon="11.808940959465941"><ele>246.5</ele><time>2026-04-26T13:30:06.999Z</time></trkpt><trkpt lat="43.36691345985193" lon="11.80877604098551"><ele>247.0</ele><time>2026-04-26T13:30:08.999Z</time></trkpt><trkpt lat="43.36690658669349" lon="11.808618561149336"><ele>247.5</ele><time>2026-04-26T13:30:10.999Z</time></trkpt><trkpt lat="43.36689531638418" lon="11.808459536135135"><ele>248.0</ele><time>2026-04-26T13:30:12.999Z</time></trkpt><trkpt lat="43.36688305035512" lon="11.808310259929586"><ele>248.4</ele><time>2026-04-26T13:30:14.999Z</time></trkpt><trkpt lat="43.36687212900961" lon="11.808149663539554"><ele>248.8</ele><time>2026-04-26T13:30:17Z</time></trkpt><trkpt lat="43.366857203228015" lon="11.807982926488144"><ele>249.2</ele><time>2026-04-26T13:30:19Z</time></trkpt><trkpt lat="43.366842870082294" lon="11.807848365471285"><ele>249.6</ele><time>2026-04-26T13:30:21Z</time></trkpt><trkpt lat="43.36684211343642" lon="11.807743731610868"><ele>250.0</ele><time>2026-04-26T13:30:23Z</time></trkpt><trkpt lat="43.36683882170009" lon="11.807624590140087"><ele>249.99999999999997</ele><time>2026-04-26T13:30:26Z</time></trkpt><trkpt lat="43.36684304635336" lon="11.8075198578576"><ele>250.0</ele><time>2026-04-26T13:30:30Z</time></trkpt><trkpt lat="43.36675179156796" lon="11.807429960691639"><ele>250.0</ele><time>2026-04-26T13:30:31Z</time></trkpt><trkpt lat="43.36668215940321" lon="11.807415370298376"><ele>250.0</ele><time>2026-04-26T13:30:33Z</time></trkpt><trkpt lat="43.36661920088184" lon="11.80740217826842"><ele>249.99999999999997</ele><time>2026-04-26T13:30:36Z</time></trkpt><trkpt lat="43.36653350860748" lon="11.80738504398006"><ele>250.0</ele><time>2026-04-26T13:30:40Z</time></trkpt><trkpt lat="43.3664349428826" lon="11.807365781255005"><ele>249.99999999999997</ele><time>2026-04-26T13:30:43Z</time></trkpt><trkpt lat="43.36636399625137" lon="11.807351512037126"><ele>250.0</ele><time>2026-04-26T13:30:45Z</time></trkpt><trkpt lat="43.36630153415353" lon="11.807338160959091"><ele>250.0</ele><time>2026-04-26T13:30:47Z</time></trkpt><trkpt lat="43.366226221227734" lon="11.807322063062331"><ele>250.0</ele><time>2026-04-26T13:30:49Z</time></trkpt><trkpt lat="43.36616490599314" lon="11.807368493861265"><ele>249.99999999999997</ele><time>2026-04-26T13:30:51Z</time></trkpt><trkpt lat="43.36607984923303" lon="11.807363517698729"><ele>250.0</ele><time>2026-04-26T13:30:54Z</time></trkpt><trkpt lat="43.366007048650786" lon="11.80728262129403"><ele>250.16666666666666</ele><time>2026-04-26T13:30:57Z</time></trkpt><trkpt lat="43.365976881467155" lon="11.807195724120659"><ele>250.33333333333331</ele><time>2026-04-26T13:30:59Z</time></trkpt><trkpt lat="43.36603814081759" lon="11.807262048939204"><ele>250.5</ele><time>2026-04-26T13:34:11.999Z</time></trkpt><trkpt lat="43.36611936880921" lon="11.807350924875188"><ele>250.66666666666669</ele><time>2026-04-26T13:34:13.999Z</time></trkpt><trkpt lat="43.36618962166127" lon="11.8073849927274"><ele>250.83333333333334</ele><time>2026-04-26T13:34:14.999Z</time></trkpt><trkpt lat="43.36626864203442" lon="11.807398787153184"><ele>251.0</ele><time>2026-04-26T13:34:15.999Z</time></trkpt><trkpt lat="43.36635145163716" lon="11.807412234243133"><ele>250.83333333333334</ele><time>2026-04-26T13:34:16.999Z</time></trkpt><trkpt lat="43.366432113931154" lon="11.807431116650452"><ele>250.66666666666669</ele><time>2026-04-26T13:34:17.999Z</time></trkpt><trkpt lat="43.366514868636166" lon="11.80744624883507"><ele>250.5</ele><time>2026-04-26T13:34:18.999Z</time></trkpt><trkpt lat="43.36659498705054" lon="11.807465801195688"><ele>250.33333333333331</ele><time>2026-04-26T13:34:19.999Z</time></trkpt><trkpt lat="43.36667790856337" lon="11.807480179223715"><ele>250.16666666666666</ele><time>2026-04-26T13:34:20.999Z</time></trkpt><trkpt lat="43.36676177991192" lon="11.807496235034602"><ele>250.0</ele><time>2026-04-26T13:34:21.999Z</time></trkpt><trkpt lat="43.36684491910851" lon="11.80751430275928"><ele>249.99999999999997</ele><time>2026-04-26T13:34:22.999Z</time></trkpt><trkpt lat="43.366929381703294" lon="11.807534263966446"><ele>250.0</ele><time>2026-04-26T13:34:23.999Z</time></trkpt><trkpt lat="43.36701384623339" lon="11.807555611934868"><ele>250.0</ele><time>2026-04-26T13:34:24.999Z</time></trkpt><trkpt lat="43.36709319711313" lon="11.807578760917934"><ele>250.0</ele><time>2026-04-26T13:34:25.999Z</time></trkpt><trkpt lat="43.36717327084136" lon="11.80760364595158"><ele>249.99999999999997</ele><time>2026-04-26T13:34:26.999Z</time></trkpt><trkpt lat="43.367251185032636" lon="11.807638092767728"><ele>250.0</ele><time>2026-04-26T13:34:28Z</time></trkpt><trkpt lat="43.36732943890512" lon="11.80767654611963"><ele>249.83333333333331</ele><time>2026-04-26T13:34:29Z</time></trkpt><trkpt lat="43.36740856893614" lon="11.80771393657631"><ele>249.66666666666666</ele><time>2026-04-26T13:34:30Z</time></trkpt><trkpt lat="43.36748663359271" lon="11.807747256407783"><ele>249.5</ele><time>2026-04-26T13:34:31Z</time></trkpt><trkpt lat="43.367561506477955" lon="11.807777277523067"><ele>249.33333333333331</ele><time>2026-04-26T13:34:32Z</time></trkpt><trkpt lat="43.367640892198594" lon="11.807799342433192"><ele>249.16666666666666</ele><time>2026-04-26T13:34:33Z</time></trkpt><trkpt lat="43.36771827140315" lon="11.807827606928779"><ele>249.0</ele><time>2026-04-26T13:34:34Z</time></trkpt><trkpt lat="43.36779538776835" lon="11.807854181574294"><ele>249.0</ele><time>2026-04-26T13:34:35Z</time></trkpt><trkpt lat="43.36787329665281" lon="11.807872387893964"><ele>248.99999999999997</ele><time>2026-04-26T13:34:36Z</time></trkpt><trkpt lat="43.36794805953053" lon="11.807887594018856"><ele>249.0</ele><time>2026-04-26T13:34:37Z</time></trkpt><trkpt lat="43.36801996748837" lon="11.807893124931066"><ele>249.0</ele><time>2026-04-26T13:34:38Z</time></trkpt><trkpt lat="43.36809158843372" lon="11.80789934538077"><ele>248.99999999999997</ele><time>2026-04-26T13:34:39Z</time></trkpt><trkpt lat="43.368164441390064" lon="11.807907535907761"><ele>249.0</ele><time>2026-04-26T13:34:40Z</time></trkpt><trkpt lat="43.36823874522779" lon="11.807919403878808"><ele>249.0</ele><time>2026-04-26T13:34:41Z</time></trkpt><trkpt lat="43.368315176175585" lon="11.80792726986912"><ele>249.0</ele><time>2026-04-26T13:34:42Z</time></trkpt><trkpt lat="43.36839014056468" lon="11.807937886783254"><ele>249.0</ele><time>2026-04-26T13:34:43Z</time></trkpt><trkpt lat="43.36846731564339" lon="11.807943171289557"><ele>249.0</ele><time>2026-04-26T13:34:44Z</time></trkpt><trkpt lat="43.36854493105048" lon="11.80794914367187"><ele>249.0</ele><time>2026-04-26T13:34:45Z</time></trkpt><trkpt lat="43.36862344724229" lon="11.807963347297164"><ele>249.0</ele><time>2026-04-26T13:34:46Z</time></trkpt><trkpt lat="43.368696537917536" lon="11.80797506672263"><ele>249.0</ele><time>2026-04-26T13:34:47Z</time></trkpt><trkpt lat="43.36877043928467" lon="11.807986774251304"><ele>249.0</ele><time>2026-04-26T13:34:48Z</time></trkpt><trkpt lat="43.36884448985089" lon="11.80798833227589"><ele>249.0</ele><time>2026-04-26T13:34:49Z</time></trkpt><trkpt lat="43.36891932969626" lon="11.807991461573321"><ele>249.0</ele><time>2026-04-26T13:34:50Z</time></trkpt><trkpt lat="43.368993904577025" lon="11.807999777568492"><ele>249.0</ele><time>2026-04-26T13:34:51Z</time></trkpt><trkpt lat="43.36907159687642" lon="11.808011675220659"><ele>249.0</ele><time>2026-04-26T13:34:52Z</time></trkpt><trkpt lat="43.36914773340282" lon="11.808025771388484"><ele>249.0</ele><time>2026-04-26T13:34:53Z</time></trkpt><trkpt lat="43.36922261992845" lon="11.808033752781057"><ele>249.0</ele><time>2026-04-26T13:34:54Z</time></trkpt><trkpt lat="43.36929717503943" lon="11.8080460641401"><ele>248.99999999999997</ele><time>2026-04-26T13:34:55Z</time></trkpt><trkpt lat="43.3693703636272" lon="11.80805484415391"><ele>249.0</ele><time>2026-04-26T13:34:56Z</time></trkpt><trkpt lat="43.369442352040664" lon="11.808065849027845"><ele>249.0</ele><time>2026-04-26T13:34:57Z</time></trkpt><trkpt lat="43.36951481714796" lon="11.808071709125999"><ele>248.99999999999997</ele><time>2026-04-26T13:34:58Z</time></trkpt><trkpt lat="43.36958672161065" lon="11.808067331609662"><ele>249.0</ele><time>2026-04-26T13:34:59Z</time></trkpt><trkpt lat="43.36966328136258" lon="11.808075050679564"><ele>249.0</ele><time>2026-04-26T13:35:00Z</time></trkpt><trkpt lat="43.36974094495479" lon="11.80808741972333"><ele>248.66666666666666</ele><time>2026-04-26T13:35:01Z</time></trkpt><trkpt lat="43.36982068215953" lon="11.808097008811442"><ele>248.33333333333331</ele><time>2026-04-26T13:35:02Z</time></trkpt><trkpt lat="43.36989952430607" lon="11.80810681052503"><ele>248.0</ele><time>2026-04-26T13:35:03Z</time></trkpt><trkpt lat="43.36997875931657" lon="11.808114237143847"><ele>247.66666666666666</ele><time>2026-04-26T13:35:04Z</time></trkpt><trkpt lat="43.37005647586911" lon="11.808121516519801"><ele>247.33333333333331</ele><time>2026-04-26T13:35:05Z</time></trkpt><trkpt lat="43.370131419106244" lon="11.808128476774456"><ele>247.0</ele><time>2026-04-26T13:35:06Z</time></trkpt><trkpt lat="43.37020874038696" lon="11.808131760773886"><ele>246.99999999999997</ele><time>2026-04-26T13:35:07Z</time></trkpt><trkpt lat="43.37028646845983" lon="11.808141952376173"><ele>247.0</ele><time>2026-04-26T13:35:08Z</time></trkpt><trkpt lat="43.37036350124122" lon="11.808152002493733"><ele>247.0</ele><time>2026-04-26T13:35:09Z</time></trkpt><trkpt lat="43.370441767180566" lon="11.808159255848173"><ele>247.0</ele><time>2026-04-26T13:35:10Z</time></trkpt><trkpt lat="43.37052152653539" lon="11.808171941900838"><ele>246.99999999999997</ele><time>2026-04-26T13:35:11Z</time></trkpt><trkpt lat="43.370600673762624" lon="11.80817862252206"><ele>247.0</ele><time>2026-04-26T13:35:12Z</time></trkpt><trkpt lat="43.370680736929764" lon="11.808183227251103"><ele>247.16666666666666</ele><time>2026-04-26T13:35:13Z</time></trkpt><trkpt lat="43.37076296593983" lon="11.808193105490963"><ele>247.33333333333331</ele><time>2026-04-26T13:35:14Z</time></trkpt><trkpt lat="43.37084395946999" lon="11.808200083348703"><ele>247.5</ele><time>2026-04-26T13:35:15Z</time></trkpt><trkpt lat="43.37091674580122" lon="11.808204120050632"><ele>247.66666666666669</ele><time>2026-04-26T13:35:16Z</time></trkpt><trkpt lat="43.37098588431025" lon="11.808211227368828"><ele>247.83333333333334</ele><time>2026-04-26T13:35:17Z</time></trkpt><trkpt lat="43.371058222415016" lon="11.808219642158287"><ele>248.0</ele><time>2026-04-26T13:35:18Z</time></trkpt><trkpt lat="43.37113133101668" lon="11.808237968353891"><ele>248.00000000000003</ele><time>2026-04-26T13:35:19Z</time></trkpt><trkpt lat="43.371210398081985" lon="11.808248102854504"><ele>248.0</ele><time>2026-04-26T13:35:20Z</time></trkpt><trkpt lat="43.37129206776153" lon="11.808254384651763"><ele>248.0</ele><time>2026-04-26T13:35:21Z</time></trkpt><trkpt lat="43.371372310665386" lon="11.808263446311587"><ele>248.0</ele><time>2026-04-26T13:35:22Z</time></trkpt><trkpt lat="43.37145092757889" lon="11.808273712613678"><ele>248.00000000000003</ele><time>2026-04-26T13:35:23Z</time></trkpt><trkpt lat="43.37153076450727" lon="11.808282365513154"><ele>248.0</ele><time>2026-04-26T13:35:24Z</time></trkpt><trkpt lat="43.37160976050139" lon="11.808290185251485"><ele>248.00000000000003</ele><time>2026-04-26T13:35:25Z</time></trkpt><trkpt lat="43.37168906902151" lon="11.808296922966758"><ele>248.0</ele><time>2026-04-26T13:35:26Z</time></trkpt><trkpt lat="43.3717693256889" lon="11.808307018029806"><ele>248.0</ele><time>2026-04-26T13:35:27Z</time></trkpt><trkpt lat="43.37184609834512" lon="11.808320477966001"><ele>248.0</ele><time>2026-04-26T13:35:28Z</time></trkpt><trkpt lat="43.37192060245287" lon="11.808329812272532"><ele>248.00000000000003</ele><time>2026-04-26T13:35:29Z</time></trkpt><trkpt lat="43.37198347616748" lon="11.80834904277537"><ele>248.0</ele><time>2026-04-26T13:35:30Z</time></trkpt><trkpt lat="43.37208426791078" lon="11.808370130133493"><ele>248.00000000000003</ele><time>2026-04-26T13:35:32Z</time></trkpt><trkpt lat="43.372175532766214" lon="11.808381726797407"><ele>248.0</ele><time>2026-04-26T13:35:34Z</time></trkpt><trkpt lat="43.37225490636182" lon="11.808380700036288"><ele>248.0</ele><time>2026-04-26T13:35:36Z</time></trkpt><trkpt lat="43.372340468489995" lon="11.808390516062191"><ele>248.0</ele><time>2026-04-26T13:35:38Z</time></trkpt><trkpt lat="43.372424456664554" lon="11.808403805523213"><ele>248.00000000000003</ele><time>2026-04-26T13:35:40Z</time></trkpt><trkpt lat="43.37252247290015" lon="11.808409000428195"><ele>248.0</ele><time>2026-04-26T13:35:42Z</time></trkpt><trkpt lat="43.372640593859664" lon="11.808424796160578"><ele>248.2</ele><time>2026-04-26T13:35:44Z</time></trkpt><trkpt lat="43.372704885199624" lon="11.80842554412082"><ele>248.4</ele><time>2026-04-26T13:35:45Z</time></trkpt><trkpt lat="43.37282888620091" lon="11.808426500770967"><ele>248.59999999999997</ele><time>2026-04-26T13:35:47Z</time></trkpt><trkpt lat="43.37295069168653" lon="11.808421205910522"><ele>248.79999999999998</ele><time>2026-04-26T13:35:49Z</time></trkpt><trkpt lat="43.37306026748851" lon="11.80841191555788"><ele>249.0</ele><time>2026-04-26T13:35:51Z</time></trkpt><trkpt lat="43.3731904911772" lon="11.80839788899187"><ele>249.16666666666666</ele><time>2026-04-26T13:35:53Z</time></trkpt><trkpt lat="43.37325448266898" lon="11.808383688707178"><ele>249.33333333333331</ele><time>2026-04-26T13:35:54Z</time></trkpt><trkpt lat="43.37331733802648" lon="11.808374024488453"><ele>249.5</ele><time>2026-04-26T13:35:55Z</time></trkpt><trkpt lat="43.373415197858506" lon="11.808355613186883"><ele>249.66666666666666</ele><time>2026-04-26T13:35:57Z</time></trkpt><trkpt lat="43.373493159860814" lon="11.808329365423052"><ele>249.83333333333331</ele><time>2026-04-26T13:35:59Z</time></trkpt><trkpt lat="43.373568277568864" lon="11.808312382404502"><ele>250.0</ele><time>2026-04-26T13:36:01Z</time></trkpt><trkpt lat="43.37363616939052" lon="11.808288441999398"><ele>249.99999999999997</ele><time>2026-04-26T13:36:02.999Z</time></trkpt><trkpt lat="43.37371270934899" lon="11.808273001165945"><ele>250.0</ele><time>2026-04-26T13:36:04.999Z</time></trkpt><trkpt lat="43.37363969852558" lon="11.808283546229555"><ele>250.0</ele><time>2026-04-26T13:36:11.999Z</time></trkpt><trkpt lat="43.37354714212368" lon="11.80830879274124"><ele>250.0</ele><time>2026-04-26T13:36:13.999Z</time></trkpt><trkpt lat="43.37345241399063" lon="11.80832606083166"><ele>249.99999999999997</ele><time>2026-04-26T13:36:15.999Z</time></trkpt><trkpt lat="43.373365459315266" lon="11.808349969597478"><ele>250.0</ele><time>2026-04-26T13:36:17.999Z</time></trkpt><trkpt lat="43.37327546023473" lon="11.808370064900846"><ele>249.99999999999997</ele><time>2026-04-26T13:36:19.999Z</time></trkpt><trkpt lat="43.37317933392004" lon="11.80838686124382"><ele>250.0</ele><time>2026-04-26T13:36:21.999Z</time></trkpt><trkpt lat="43.373100408301774" lon="11.808394907976089"><ele>250.0</ele><time>2026-04-26T13:36:23.999Z</time></trkpt><trkpt lat="43.373035901136575" lon="11.808401946990625"><ele>250.0</ele><time>2026-04-26T13:36:25.999Z</time></trkpt><trkpt lat="43.37296502941597" lon="11.808407428733862"><ele>249.99999999999997</ele><time>2026-04-26T13:36:28.999Z</time></trkpt><trkpt lat="43.37289931934474" lon="11.808383468669565"><ele>250.0</ele><time>2026-04-26T13:36:34Z</time></trkpt><trkpt lat="43.372831053637235" lon="11.808328291870241"><ele>249.0</ele><time>2026-04-26T13:36:36Z</time></trkpt><trkpt lat="43.372741625634426" lon="11.808316152000174"><ele>249.0</ele><time>2026-04-26T13:36:38Z</time></trkpt><trkpt lat="43.372723515746806" lon="11.808203360193566"><ele>249.0</ele><time>2026-04-26T13:36:41Z</time></trkpt><trkpt lat="43.37271426436909" lon="11.808111329782854"><ele>249.0</ele><time>2026-04-26T13:36:43Z</time></trkpt><trkpt lat="43.37275209129779" lon="11.808028374764291"><ele>249.0</ele><time>2026-04-26T13:36:46Z</time></trkpt></trkseg></trk></gpx>